<?xml version="1.0" encoding="UTF-8" standalone="no" ?>
<gpx xmlns="http://www.topografix.com/GPX/1/1" xmlns:xsi="http://www.w3.org/2001/XMLSchema-instance" xsi:schemaLocation="http://www.topografix.com/GPX/1/1 http://www.topografix.com/GPX/1/1/gpx.xsd" version="1.1" creator="VisuGPX - https://www.visugpx.com">
  <metadata>
    <name>nord vercors</name>
  </metadata>
  <trk>
    <name><![CDATA[Autour d'Autrans - 10585 - UtagawaVTT.com]]></name>
    <trkseg>
      <trkpt lat="45.17676" lon="5.54045">
        <ele>1041.4</ele>
        <time>2014-08-29T07:13:17Z</time>
      </trkpt>
      <trkpt lat="45.17737" lon="5.54107">
        <ele>1046.9</ele>
        <time>2014-08-29T07:13:42Z</time>
      </trkpt>
      <trkpt lat="45.17753" lon="5.54154">
        <ele>1047.2</ele>
        <time>2014-08-29T07:13:52Z</time>
      </trkpt>
      <trkpt lat="45.17754" lon="5.54171">
        <ele>1047</ele>
        <time>2014-08-29T07:13:55Z</time>
      </trkpt>
      <trkpt lat="45.17725" lon="5.54243">
        <ele>1046.9</ele>
        <time>2014-08-29T07:14:08Z</time>
      </trkpt>
      <trkpt lat="45.17736" lon="5.54262">
        <ele>1047</ele>
        <time>2014-08-29T07:14:12Z</time>
      </trkpt>
      <trkpt lat="45.18145" lon="5.54453">
        <ele>1061.3</ele>
        <time>2014-08-29T07:16:08Z</time>
      </trkpt>
      <trkpt lat="45.18304" lon="5.54448">
        <ele>1072.7</ele>
        <time>2014-08-29T07:17:01Z</time>
      </trkpt>
      <trkpt lat="45.18317" lon="5.54456">
        <ele>1074</ele>
        <time>2014-08-29T07:17:07Z</time>
      </trkpt>
      <trkpt lat="45.1836" lon="5.54506">
        <ele>1078.9</ele>
        <time>2014-08-29T07:17:30Z</time>
      </trkpt>
      <trkpt lat="45.18406" lon="5.5454">
        <ele>1082.6</ele>
        <time>2014-08-29T07:17:50Z</time>
      </trkpt>
      <trkpt lat="45.18467" lon="5.54565">
        <ele>1088.3</ele>
        <time>2014-08-29T07:18:14Z</time>
      </trkpt>
      <trkpt lat="45.18764" lon="5.54789">
        <ele>1134.1</ele>
        <time>2014-08-29T07:20:22Z</time>
      </trkpt>
      <trkpt lat="45.18775" lon="5.54821">
        <ele>1134.2</ele>
        <time>2014-08-29T07:20:31Z</time>
      </trkpt>
      <trkpt lat="45.1877" lon="5.54892">
        <ele>1126.1</ele>
        <time>2014-08-29T07:20:48Z</time>
      </trkpt>
      <trkpt lat="45.18778" lon="5.54922">
        <ele>1126.8</ele>
        <time>2014-08-29T07:20:56Z</time>
      </trkpt>
      <trkpt lat="45.19302" lon="5.55358">
        <ele>1187.7</ele>
        <time>2014-08-29T07:24:38Z</time>
      </trkpt>
      <trkpt lat="45.19313" lon="5.55388">
        <ele>1189.7</ele>
        <time>2014-08-29T07:24:47Z</time>
      </trkpt>
      <trkpt lat="45.19315" lon="5.5545">
        <ele>1190.3</ele>
        <time>2014-08-29T07:25:03Z</time>
      </trkpt>
      <trkpt lat="45.19338" lon="5.55521">
        <ele>1192.3</ele>
        <time>2014-08-29T07:25:19Z</time>
      </trkpt>
      <trkpt lat="45.19368" lon="5.55561">
        <ele>1193.6</ele>
        <time>2014-08-29T07:25:30Z</time>
      </trkpt>
      <trkpt lat="45.19386" lon="5.55571">
        <ele>1194.2</ele>
        <time>2014-08-29T07:25:38Z</time>
      </trkpt>
      <trkpt lat="45.1939" lon="5.55577">
        <ele>1194.2</ele>
        <time>2014-08-29T07:25:43Z</time>
      </trkpt>
      <trkpt lat="45.19415" lon="5.55573">
        <ele>1195.3</ele>
        <time>2014-08-29T07:39:36Z</time>
      </trkpt>
      <trkpt lat="45.19421" lon="5.55466">
        <ele>1203.5</ele>
        <time>2014-08-29T07:40:15Z</time>
      </trkpt>
      <trkpt lat="45.19423" lon="5.5546">
        <ele>1204.8</ele>
        <time>2014-08-29T07:40:18Z</time>
      </trkpt>
      <trkpt lat="45.19434" lon="5.55458">
        <ele>1207.7</ele>
        <time>2014-08-29T07:40:24Z</time>
      </trkpt>
      <trkpt lat="45.19534" lon="5.55514">
        <ele>1220.9</ele>
        <time>2014-08-29T07:41:24Z</time>
      </trkpt>
      <trkpt lat="45.19559" lon="5.55519">
        <ele>1225.1</ele>
        <time>2014-08-29T07:41:37Z</time>
      </trkpt>
      <trkpt lat="45.19575" lon="5.55529">
        <ele>1227.4</ele>
        <time>2014-08-29T07:41:47Z</time>
      </trkpt>
      <trkpt lat="45.19604" lon="5.55538">
        <ele>1230.7</ele>
        <time>2014-08-29T07:42:04Z</time>
      </trkpt>
      <trkpt lat="45.19615" lon="5.55537">
        <ele>1231.9</ele>
        <time>2014-08-29T07:42:10Z</time>
      </trkpt>
      <trkpt lat="45.19748" lon="5.55592">
        <ele>1241.4</ele>
        <time>2014-08-29T07:43:21Z</time>
      </trkpt>
      <trkpt lat="45.19829" lon="5.5571">
        <ele>1237</ele>
        <time>2014-08-29T07:44:51Z</time>
      </trkpt>
      <trkpt lat="45.19835" lon="5.55706">
        <ele>1237.8</ele>
        <time>2014-08-29T07:44:54Z</time>
      </trkpt>
      <trkpt lat="45.19847" lon="5.55717">
        <ele>1237.2</ele>
        <time>2014-08-29T07:45:00Z</time>
      </trkpt>
      <trkpt lat="45.19862" lon="5.55722">
        <ele>1237.4</ele>
        <time>2014-08-29T07:45:06Z</time>
      </trkpt>
      <trkpt lat="45.19866" lon="5.55717">
        <ele>1238.1</ele>
        <time>2014-08-29T07:45:08Z</time>
      </trkpt>
      <trkpt lat="45.19895" lon="5.55708">
        <ele>1240.8</ele>
        <time>2014-08-29T07:50:00Z</time>
      </trkpt>
      <trkpt lat="45.1992" lon="5.5571">
        <ele>1242.1</ele>
        <time>2014-08-29T07:50:06Z</time>
      </trkpt>
      <trkpt lat="45.19955" lon="5.55696">
        <ele>1246.6</ele>
        <time>2014-08-29T07:50:15Z</time>
      </trkpt>
      <trkpt lat="45.20008" lon="5.55709">
        <ele>1249.4</ele>
        <time>2014-08-29T07:50:31Z</time>
      </trkpt>
      <trkpt lat="45.20021" lon="5.55707">
        <ele>1251.2</ele>
        <time>2014-08-29T07:50:34Z</time>
      </trkpt>
      <trkpt lat="45.20068" lon="5.55719">
        <ele>1255.3</ele>
        <time>2014-08-29T07:50:48Z</time>
      </trkpt>
      <trkpt lat="45.20081" lon="5.5573">
        <ele>1255.3</ele>
        <time>2014-08-29T07:50:53Z</time>
      </trkpt>
      <trkpt lat="45.20131" lon="5.55749">
        <ele>1258.2</ele>
        <time>2014-08-29T07:51:15Z</time>
      </trkpt>
      <trkpt lat="45.20152" lon="5.55751">
        <ele>1260.4</ele>
        <time>2014-08-29T07:51:27Z</time>
      </trkpt>
      <trkpt lat="45.20204" lon="5.55795">
        <ele>1264.9</ele>
        <time>2014-08-29T07:51:44Z</time>
      </trkpt>
      <trkpt lat="45.20222" lon="5.55799">
        <ele>1266.4</ele>
        <time>2014-08-29T07:51:51Z</time>
      </trkpt>
      <trkpt lat="45.2026" lon="5.55774">
        <ele>1270.1</ele>
        <time>2014-08-29T07:52:08Z</time>
      </trkpt>
      <trkpt lat="45.20279" lon="5.55774">
        <ele>1272.3</ele>
        <time>2014-08-29T07:52:18Z</time>
      </trkpt>
      <trkpt lat="45.20294" lon="5.55781">
        <ele>1274</ele>
        <time>2014-08-29T07:52:26Z</time>
      </trkpt>
      <trkpt lat="45.20305" lon="5.55791">
        <ele>1275.3</ele>
        <time>2014-08-29T07:52:33Z</time>
      </trkpt>
      <trkpt lat="45.20318" lon="5.55793">
        <ele>1276.8</ele>
        <time>2014-08-29T07:52:42Z</time>
      </trkpt>
      <trkpt lat="45.20329" lon="5.55782">
        <ele>1278.1</ele>
        <time>2014-08-29T07:52:52Z</time>
      </trkpt>
      <trkpt lat="45.20351" lon="5.55771">
        <ele>1282.3</ele>
        <time>2014-08-29T07:53:11Z</time>
      </trkpt>
      <trkpt lat="45.20365" lon="5.55769">
        <ele>1285.2</ele>
        <time>2014-08-29T07:53:23Z</time>
      </trkpt>
      <trkpt lat="45.20455" lon="5.55809">
        <ele>1296.5</ele>
        <time>2014-08-29T07:54:26Z</time>
      </trkpt>
      <trkpt lat="45.20488" lon="5.55805">
        <ele>1299.4</ele>
        <time>2014-08-29T07:54:39Z</time>
      </trkpt>
      <trkpt lat="45.20538" lon="5.55845">
        <ele>1293.6</ele>
        <time>2014-08-29T07:54:52Z</time>
      </trkpt>
      <trkpt lat="45.20554" lon="5.55851">
        <ele>1291.9</ele>
        <time>2014-08-29T07:54:56Z</time>
      </trkpt>
      <trkpt lat="45.20583" lon="5.55851">
        <ele>1290.5</ele>
        <time>2014-08-29T07:55:03Z</time>
      </trkpt>
      <trkpt lat="45.2059" lon="5.55847">
        <ele>1290.3</ele>
        <time>2014-08-29T07:55:04Z</time>
      </trkpt>
      <trkpt lat="45.20621" lon="5.55844">
        <ele>1288</ele>
        <time>2014-08-29T07:55:08Z</time>
      </trkpt>
      <trkpt lat="45.20636" lon="5.55831">
        <ele>1287.1</ele>
        <time>2014-08-29T07:55:16Z</time>
      </trkpt>
      <trkpt lat="45.20639" lon="5.55825">
        <ele>1287.3</ele>
        <time>2014-08-29T07:55:59Z</time>
      </trkpt>
      <trkpt lat="45.20659" lon="5.55813">
        <ele>1286.3</ele>
        <time>2014-08-29T07:56:07Z</time>
      </trkpt>
      <trkpt lat="45.20697" lon="5.55815">
        <ele>1285.1</ele>
        <time>2014-08-29T08:04:17Z</time>
      </trkpt>
      <trkpt lat="45.20701" lon="5.55812">
        <ele>1285.1</ele>
        <time>2014-08-29T08:04:20Z</time>
      </trkpt>
      <trkpt lat="45.20712" lon="5.55813">
        <ele>1284.9</ele>
        <time>2014-08-29T08:04:24Z</time>
      </trkpt>
      <trkpt lat="45.2073" lon="5.55809">
        <ele>1284.7</ele>
        <time>2014-08-29T08:04:30Z</time>
      </trkpt>
      <trkpt lat="45.20739" lon="5.55819">
        <ele>1284.3</ele>
        <time>2014-08-29T08:04:33Z</time>
      </trkpt>
      <trkpt lat="45.20745" lon="5.5582">
        <ele>1284.2</ele>
        <time>2014-08-29T08:04:35Z</time>
      </trkpt>
      <trkpt lat="45.20765" lon="5.55803">
        <ele>1284.7</ele>
        <time>2014-08-29T08:04:41Z</time>
      </trkpt>
      <trkpt lat="45.2079" lon="5.55797">
        <ele>1285.6</ele>
        <time>2014-08-29T08:04:48Z</time>
      </trkpt>
      <trkpt lat="45.20824" lon="5.55809">
        <ele>1285.9</ele>
        <time>2014-08-29T08:04:59Z</time>
      </trkpt>
      <trkpt lat="45.20826" lon="5.55806">
        <ele>1286.1</ele>
        <time>2014-08-29T08:05:03Z</time>
      </trkpt>
      <trkpt lat="45.20825" lon="5.5581">
        <ele>1285.9</ele>
        <time>2014-08-29T08:05:07Z</time>
      </trkpt>
      <trkpt lat="45.20829" lon="5.55818">
        <ele>1285.7</ele>
        <time>2014-08-29T08:05:11Z</time>
      </trkpt>
      <trkpt lat="45.20838" lon="5.55826">
        <ele>1285.8</ele>
        <time>2014-08-29T08:05:15Z</time>
      </trkpt>
      <trkpt lat="45.20852" lon="5.55831">
        <ele>1286.9</ele>
        <time>2014-08-29T08:05:20Z</time>
      </trkpt>
      <trkpt lat="45.20869" lon="5.55831">
        <ele>1288.5</ele>
        <time>2014-08-29T08:05:26Z</time>
      </trkpt>
      <trkpt lat="45.20878" lon="5.55826">
        <ele>1289.6</ele>
        <time>2014-08-29T08:05:30Z</time>
      </trkpt>
      <trkpt lat="45.20904" lon="5.55828">
        <ele>1292</ele>
        <time>2014-08-29T08:05:39Z</time>
      </trkpt>
      <trkpt lat="45.20928" lon="5.55812">
        <ele>1294.4</ele>
        <time>2014-08-29T08:05:50Z</time>
      </trkpt>
      <trkpt lat="45.20963" lon="5.55762">
        <ele>1298.8</ele>
        <time>2014-08-29T08:06:12Z</time>
      </trkpt>
      <trkpt lat="45.20994" lon="5.55766">
        <ele>1300.6</ele>
        <time>2014-08-29T08:06:35Z</time>
      </trkpt>
      <trkpt lat="45.21004" lon="5.55784">
        <ele>1300.2</ele>
        <time>2014-08-29T08:06:41Z</time>
      </trkpt>
      <trkpt lat="45.21016" lon="5.55795">
        <ele>1300.4</ele>
        <time>2014-08-29T08:06:47Z</time>
      </trkpt>
      <trkpt lat="45.2104" lon="5.55794">
        <ele>1302</ele>
        <time>2014-08-29T08:06:54Z</time>
      </trkpt>
      <trkpt lat="45.2105" lon="5.55803">
        <ele>1302</ele>
        <time>2014-08-29T08:06:58Z</time>
      </trkpt>
      <trkpt lat="45.21056" lon="5.55816">
        <ele>1301.5</ele>
        <time>2014-08-29T08:07:02Z</time>
      </trkpt>
      <trkpt lat="45.21099" lon="5.55847">
        <ele>1301.2</ele>
        <time>2014-08-29T08:07:19Z</time>
      </trkpt>
      <trkpt lat="45.21179" lon="5.5586">
        <ele>1300.8</ele>
        <time>2014-08-29T08:07:45Z</time>
      </trkpt>
      <trkpt lat="45.21181" lon="5.55871">
        <ele>1300.5</ele>
        <time>2014-08-29T08:07:48Z</time>
      </trkpt>
      <trkpt lat="45.21187" lon="5.55883">
        <ele>1300.2</ele>
        <time>2014-08-29T08:07:52Z</time>
      </trkpt>
      <trkpt lat="45.21204" lon="5.55877">
        <ele>1301.3</ele>
        <time>2014-08-29T08:08:01Z</time>
      </trkpt>
      <trkpt lat="45.21237" lon="5.55853">
        <ele>1305.2</ele>
        <time>2014-08-29T08:08:13Z</time>
      </trkpt>
      <trkpt lat="45.21246" lon="5.5585">
        <ele>1306.1</ele>
        <time>2014-08-29T08:08:17Z</time>
      </trkpt>
      <trkpt lat="45.21258" lon="5.55855">
        <ele>1306.7</ele>
        <time>2014-08-29T08:08:24Z</time>
      </trkpt>
      <trkpt lat="45.21269" lon="5.55854">
        <ele>1308</ele>
        <time>2014-08-29T08:08:29Z</time>
      </trkpt>
      <trkpt lat="45.21273" lon="5.5586">
        <ele>1307.8</ele>
        <time>2014-08-29T08:08:32Z</time>
      </trkpt>
      <trkpt lat="45.21274" lon="5.55869">
        <ele>1306.9</ele>
        <time>2014-08-29T08:08:36Z</time>
      </trkpt>
      <trkpt lat="45.21279" lon="5.55879">
        <ele>1306.4</ele>
        <time>2014-08-29T08:08:41Z</time>
      </trkpt>
      <trkpt lat="45.21294" lon="5.55999">
        <ele>1301</ele>
        <time>2014-08-29T08:09:07Z</time>
      </trkpt>
      <trkpt lat="45.21327" lon="5.5601">
        <ele>1301.4</ele>
        <time>2014-08-29T08:09:23Z</time>
      </trkpt>
      <trkpt lat="45.21329" lon="5.56009">
        <ele>1301.3</ele>
        <time>2014-08-29T08:09:25Z</time>
      </trkpt>
      <trkpt lat="45.21326" lon="5.56003">
        <ele>1301.1</ele>
        <time>2014-08-29T08:09:28Z</time>
      </trkpt>
      <trkpt lat="45.21296" lon="5.55992">
        <ele>1301.3</ele>
        <time>2014-08-29T08:09:45Z</time>
      </trkpt>
      <trkpt lat="45.21295" lon="5.55989">
        <ele>1301.4</ele>
        <time>2014-08-29T08:09:49Z</time>
      </trkpt>
      <trkpt lat="45.21307" lon="5.56003">
        <ele>1301.2</ele>
        <time>2014-08-29T08:11:14Z</time>
      </trkpt>
      <trkpt lat="45.21304" lon="5.56008">
        <ele>1301.4</ele>
        <time>2014-08-29T08:11:16Z</time>
      </trkpt>
      <trkpt lat="45.213" lon="5.56008">
        <ele>1301.5</ele>
        <time>2014-08-29T08:11:18Z</time>
      </trkpt>
      <trkpt lat="45.2129" lon="5.55998">
        <ele>1301.1</ele>
        <time>2014-08-29T08:11:23Z</time>
      </trkpt>
      <trkpt lat="45.21286" lon="5.56003">
        <ele>1301.2</ele>
        <time>2014-08-29T08:11:26Z</time>
      </trkpt>
      <trkpt lat="45.21289" lon="5.56009">
        <ele>1301.6</ele>
        <time>2014-08-29T08:11:30Z</time>
      </trkpt>
      <trkpt lat="45.21398" lon="5.5606">
        <ele>1297.8</ele>
        <time>2014-08-29T08:12:18Z</time>
      </trkpt>
      <trkpt lat="45.21401" lon="5.56053">
        <ele>1297.6</ele>
        <time>2014-08-29T08:12:21Z</time>
      </trkpt>
      <trkpt lat="45.21394" lon="5.5601">
        <ele>1298.1</ele>
        <time>2014-08-29T08:12:31Z</time>
      </trkpt>
      <trkpt lat="45.21387" lon="5.56006">
        <ele>1298.4</ele>
        <time>2014-08-29T08:12:33Z</time>
      </trkpt>
      <trkpt lat="45.21354" lon="5.5601">
        <ele>1300.2</ele>
        <time>2014-08-29T08:12:42Z</time>
      </trkpt>
      <trkpt lat="45.2134" lon="5.56006">
        <ele>1300.9</ele>
        <time>2014-08-29T08:12:46Z</time>
      </trkpt>
      <trkpt lat="45.21336" lon="5.56011">
        <ele>1301.2</ele>
        <time>2014-08-29T08:12:51Z</time>
      </trkpt>
      <trkpt lat="45.21339" lon="5.56006">
        <ele>1301</ele>
        <time>2014-08-29T08:17:30Z</time>
      </trkpt>
      <trkpt lat="45.21339" lon="5.56009">
        <ele>1301</ele>
        <time>2014-08-29T08:17:31Z</time>
      </trkpt>
      <trkpt lat="45.21336" lon="5.56011">
        <ele>1301.2</ele>
        <time>2014-08-29T08:22:03Z</time>
      </trkpt>
      <trkpt lat="45.21814" lon="5.56024">
        <ele>1298.7</ele>
        <time>2014-08-29T08:26:17Z</time>
      </trkpt>
      <trkpt lat="45.21821" lon="5.5603">
        <ele>1298.5</ele>
        <time>2014-08-29T08:26:19Z</time>
      </trkpt>
      <trkpt lat="45.2199" lon="5.56358">
        <ele>1315.9</ele>
        <time>2014-08-29T08:27:35Z</time>
      </trkpt>
      <trkpt lat="45.21998" lon="5.56395">
        <ele>1318.9</ele>
        <time>2014-08-29T08:27:45Z</time>
      </trkpt>
      <trkpt lat="45.22013" lon="5.56422">
        <ele>1320.6</ele>
        <time>2014-08-29T08:27:54Z</time>
      </trkpt>
      <trkpt lat="45.22031" lon="5.56439">
        <ele>1320.9</ele>
        <time>2014-08-29T08:28:03Z</time>
      </trkpt>
      <trkpt lat="45.22086" lon="5.56606">
        <ele>1325.7</ele>
        <time>2014-08-29T08:28:53Z</time>
      </trkpt>
      <trkpt lat="45.22084" lon="5.56632">
        <ele>1326.2</ele>
        <time>2014-08-29T08:28:59Z</time>
      </trkpt>
      <trkpt lat="45.21988" lon="5.56866">
        <ele>1348.6</ele>
        <time>2014-08-29T08:30:22Z</time>
      </trkpt>
      <trkpt lat="45.21976" lon="5.56883">
        <ele>1350.2</ele>
        <time>2014-08-29T08:30:29Z</time>
      </trkpt>
      <trkpt lat="45.21961" lon="5.56891">
        <ele>1350.7</ele>
        <time>2014-08-29T08:30:35Z</time>
      </trkpt>
      <trkpt lat="45.21931" lon="5.56892">
        <ele>1350.3</ele>
        <time>2014-08-29T08:30:47Z</time>
      </trkpt>
      <trkpt lat="45.2192" lon="5.56901">
        <ele>1350.5</ele>
        <time>2014-08-29T08:30:52Z</time>
      </trkpt>
      <trkpt lat="45.21913" lon="5.56917">
        <ele>1350.6</ele>
        <time>2014-08-29T08:30:58Z</time>
      </trkpt>
      <trkpt lat="45.2192" lon="5.56944">
        <ele>1353.1</ele>
        <time>2014-08-29T08:31:08Z</time>
      </trkpt>
      <trkpt lat="45.21989" lon="5.56947">
        <ele>1357.1</ele>
        <time>2014-08-29T08:31:37Z</time>
      </trkpt>
      <trkpt lat="45.21995" lon="5.56953">
        <ele>1358.1</ele>
        <time>2014-08-29T08:31:40Z</time>
      </trkpt>
      <trkpt lat="45.22003" lon="5.56969">
        <ele>1360.4</ele>
        <time>2014-08-29T08:31:46Z</time>
      </trkpt>
      <trkpt lat="45.22006" lon="5.56986">
        <ele>1362.6</ele>
        <time>2014-08-29T08:31:52Z</time>
      </trkpt>
      <trkpt lat="45.21999" lon="5.57033">
        <ele>1365.1</ele>
        <time>2014-08-29T08:32:06Z</time>
      </trkpt>
      <trkpt lat="45.22017" lon="5.57107">
        <ele>1368.2</ele>
        <time>2014-08-29T08:32:22Z</time>
      </trkpt>
      <trkpt lat="45.22003" lon="5.57128">
        <ele>1364.8</ele>
        <time>2014-08-29T08:32:29Z</time>
      </trkpt>
      <trkpt lat="45.21999" lon="5.57144">
        <ele>1363.2</ele>
        <time>2014-08-29T08:32:33Z</time>
      </trkpt>
      <trkpt lat="45.22001" lon="5.57157">
        <ele>1362.8</ele>
        <time>2014-08-29T08:32:37Z</time>
      </trkpt>
      <trkpt lat="45.22038" lon="5.57239">
        <ele>1363</ele>
        <time>2014-08-29T08:33:08Z</time>
      </trkpt>
      <trkpt lat="45.22045" lon="5.57243">
        <ele>1364.4</ele>
        <time>2014-08-29T08:33:11Z</time>
      </trkpt>
      <trkpt lat="45.22062" lon="5.57238">
        <ele>1368.9</ele>
        <time>2014-08-29T08:33:19Z</time>
      </trkpt>
      <trkpt lat="45.22083" lon="5.57205">
        <ele>1375.6</ele>
        <time>2014-08-29T08:33:31Z</time>
      </trkpt>
      <trkpt lat="45.22093" lon="5.57197">
        <ele>1376.9</ele>
        <time>2014-08-29T08:33:36Z</time>
      </trkpt>
      <trkpt lat="45.22103" lon="5.57198">
        <ele>1377.7</ele>
        <time>2014-08-29T08:33:40Z</time>
      </trkpt>
      <trkpt lat="45.22139" lon="5.57265">
        <ele>1381.5</ele>
        <time>2014-08-29T08:34:06Z</time>
      </trkpt>
      <trkpt lat="45.22167" lon="5.57288">
        <ele>1386</ele>
        <time>2014-08-29T08:34:19Z</time>
      </trkpt>
      <trkpt lat="45.22258" lon="5.57288">
        <ele>1391.4</ele>
        <time>2014-08-29T08:42:43Z</time>
      </trkpt>
      <trkpt lat="45.22371" lon="5.57217">
        <ele>1393.7</ele>
        <time>2014-08-29T08:43:10Z</time>
      </trkpt>
      <trkpt lat="45.22381" lon="5.5722">
        <ele>1395.4</ele>
        <time>2014-08-29T08:43:13Z</time>
      </trkpt>
      <trkpt lat="45.22397" lon="5.5723">
        <ele>1398.9</ele>
        <time>2014-08-29T08:43:20Z</time>
      </trkpt>
      <trkpt lat="45.22409" lon="5.57227">
        <ele>1400.6</ele>
        <time>2014-08-29T08:43:25Z</time>
      </trkpt>
      <trkpt lat="45.22426" lon="5.57212">
        <ele>1401.8</ele>
        <time>2014-08-29T08:43:33Z</time>
      </trkpt>
      <trkpt lat="45.22445" lon="5.57183">
        <ele>1401.2</ele>
        <time>2014-08-29T08:43:47Z</time>
      </trkpt>
      <trkpt lat="45.22471" lon="5.57159">
        <ele>1401.1</ele>
        <time>2014-08-29T08:44:04Z</time>
      </trkpt>
      <trkpt lat="45.22483" lon="5.57155">
        <ele>1401.7</ele>
        <time>2014-08-29T08:44:09Z</time>
      </trkpt>
      <trkpt lat="45.22532" lon="5.57158">
        <ele>1406.3</ele>
        <time>2014-08-29T08:44:34Z</time>
      </trkpt>
      <trkpt lat="45.2256" lon="5.57171">
        <ele>1410.2</ele>
        <time>2014-08-29T08:44:48Z</time>
      </trkpt>
      <trkpt lat="45.22576" lon="5.57186">
        <ele>1413.3</ele>
        <time>2014-08-29T08:44:57Z</time>
      </trkpt>
      <trkpt lat="45.22601" lon="5.57283">
        <ele>1426.8</ele>
        <time>2014-08-29T08:45:33Z</time>
      </trkpt>
      <trkpt lat="45.22608" lon="5.57291">
        <ele>1427.7</ele>
        <time>2014-08-29T08:45:38Z</time>
      </trkpt>
      <trkpt lat="45.22842" lon="5.57429">
        <ele>1421</ele>
        <time>2014-08-29T08:46:33Z</time>
      </trkpt>
      <trkpt lat="45.22894" lon="5.57433">
        <ele>1426</ele>
        <time>2014-08-29T08:46:52Z</time>
      </trkpt>
      <trkpt lat="45.22938" lon="5.5742">
        <ele>1430.6</ele>
        <time>2014-08-29T08:47:08Z</time>
      </trkpt>
      <trkpt lat="45.22984" lon="5.5743">
        <ele>1434.1</ele>
        <time>2014-08-29T08:47:31Z</time>
      </trkpt>
      <trkpt lat="45.22992" lon="5.57429">
        <ele>1434.9</ele>
        <time>2014-08-29T08:47:35Z</time>
      </trkpt>
      <trkpt lat="45.23015" lon="5.57419">
        <ele>1438.6</ele>
        <time>2014-08-29T08:47:46Z</time>
      </trkpt>
      <trkpt lat="45.23024" lon="5.57417">
        <ele>1440.4</ele>
        <time>2014-08-29T08:47:51Z</time>
      </trkpt>
      <trkpt lat="45.2305" lon="5.57424">
        <ele>1444.6</ele>
        <time>2014-08-29T08:48:04Z</time>
      </trkpt>
      <trkpt lat="45.23065" lon="5.57435">
        <ele>1446.6</ele>
        <time>2014-08-29T08:48:11Z</time>
      </trkpt>
      <trkpt lat="45.23093" lon="5.57491">
        <ele>1448.6</ele>
        <time>2014-08-29T08:48:31Z</time>
      </trkpt>
      <trkpt lat="45.23095" lon="5.57612">
        <ele>1457.3</ele>
        <time>2014-08-29T08:49:05Z</time>
      </trkpt>
      <trkpt lat="45.231" lon="5.57624">
        <ele>1458.9</ele>
        <time>2014-08-29T08:49:09Z</time>
      </trkpt>
      <trkpt lat="45.23105" lon="5.57629">
        <ele>1460.2</ele>
        <time>2014-08-29T08:49:12Z</time>
      </trkpt>
      <trkpt lat="45.23112" lon="5.57631">
        <ele>1461.5</ele>
        <time>2014-08-29T08:49:16Z</time>
      </trkpt>
      <trkpt lat="45.23124" lon="5.57626">
        <ele>1463.4</ele>
        <time>2014-08-29T08:49:23Z</time>
      </trkpt>
      <trkpt lat="45.23154" lon="5.57548">
        <ele>1463.9</ele>
        <time>2014-08-29T08:49:48Z</time>
      </trkpt>
      <trkpt lat="45.23227" lon="5.57476">
        <ele>1472</ele>
        <time>2014-08-29T08:50:19Z</time>
      </trkpt>
      <trkpt lat="45.23238" lon="5.57473">
        <ele>1473.7</ele>
        <time>2014-08-29T08:50:24Z</time>
      </trkpt>
      <trkpt lat="45.23295" lon="5.57491">
        <ele>1478.6</ele>
        <time>2014-08-29T08:50:44Z</time>
      </trkpt>
      <trkpt lat="45.23332" lon="5.57527">
        <ele>1480.6</ele>
        <time>2014-08-29T08:51:04Z</time>
      </trkpt>
      <trkpt lat="45.23334" lon="5.57538">
        <ele>1480.6</ele>
        <time>2014-08-29T08:51:22Z</time>
      </trkpt>
      <trkpt lat="45.23342" lon="5.57537">
        <ele>1481.3</ele>
        <time>2014-08-29T08:51:26Z</time>
      </trkpt>
      <trkpt lat="45.23346" lon="5.5753">
        <ele>1481.8</ele>
        <time>2014-08-29T08:51:32Z</time>
      </trkpt>
      <trkpt lat="45.2333" lon="5.57523">
        <ele>1480.6</ele>
        <time>2014-08-29T08:52:07Z</time>
      </trkpt>
      <trkpt lat="45.23327" lon="5.57528">
        <ele>1480.4</ele>
        <time>2014-08-29T08:52:37Z</time>
      </trkpt>
      <trkpt lat="45.23333" lon="5.5753">
        <ele>1480.6</ele>
        <time>2014-08-29T08:52:41Z</time>
      </trkpt>
      <trkpt lat="45.23333" lon="5.57528">
        <ele>1480.6</ele>
        <time>2014-08-29T08:52:45Z</time>
      </trkpt>
      <trkpt lat="45.23342" lon="5.57528">
        <ele>1481.5</ele>
        <time>2014-08-29T08:57:58Z</time>
      </trkpt>
      <trkpt lat="45.2338" lon="5.57545">
        <ele>1484</ele>
        <time>2014-08-29T08:58:11Z</time>
      </trkpt>
      <trkpt lat="45.23412" lon="5.57546">
        <ele>1486.4</ele>
        <time>2014-08-29T08:58:26Z</time>
      </trkpt>
      <trkpt lat="45.23426" lon="5.57561">
        <ele>1487.5</ele>
        <time>2014-08-29T08:58:35Z</time>
      </trkpt>
      <trkpt lat="45.2346" lon="5.57578">
        <ele>1492.3</ele>
        <time>2014-08-29T08:58:59Z</time>
      </trkpt>
      <trkpt lat="45.23487" lon="5.57581">
        <ele>1497.1</ele>
        <time>2014-08-29T08:59:17Z</time>
      </trkpt>
      <trkpt lat="45.23493" lon="5.57584">
        <ele>1497.7</ele>
        <time>2014-08-29T08:59:21Z</time>
      </trkpt>
      <trkpt lat="45.23504" lon="5.57585">
        <ele>1499.8</ele>
        <time>2014-08-29T08:59:29Z</time>
      </trkpt>
      <trkpt lat="45.23515" lon="5.57599">
        <ele>1500.9</ele>
        <time>2014-08-29T08:59:39Z</time>
      </trkpt>
      <trkpt lat="45.23528" lon="5.57641">
        <ele>1498.6</ele>
        <time>2014-08-29T09:00:03Z</time>
      </trkpt>
      <trkpt lat="45.23538" lon="5.5765">
        <ele>1499.1</ele>
        <time>2014-08-29T09:00:09Z</time>
      </trkpt>
      <trkpt lat="45.23575" lon="5.57665">
        <ele>1503</ele>
        <time>2014-08-29T09:00:23Z</time>
      </trkpt>
      <trkpt lat="45.23622" lon="5.57709">
        <ele>1504.8</ele>
        <time>2014-08-29T09:00:59Z</time>
      </trkpt>
      <trkpt lat="45.23634" lon="5.5771">
        <ele>1507.1</ele>
        <time>2014-08-29T09:01:01Z</time>
      </trkpt>
      <trkpt lat="45.23649" lon="5.577">
        <ele>1511</ele>
        <time>2014-08-29T09:01:07Z</time>
      </trkpt>
      <trkpt lat="45.23662" lon="5.57697">
        <ele>1513.8</ele>
        <time>2014-08-29T09:01:14Z</time>
      </trkpt>
      <trkpt lat="45.23692" lon="5.577">
        <ele>1517.5</ele>
        <time>2014-08-29T09:01:20Z</time>
      </trkpt>
      <trkpt lat="45.23769" lon="5.5773">
        <ele>1523.1</ele>
        <time>2014-08-29T09:01:55Z</time>
      </trkpt>
      <trkpt lat="45.23781" lon="5.57727">
        <ele>1524.4</ele>
        <time>2014-08-29T09:02:01Z</time>
      </trkpt>
      <trkpt lat="45.23884" lon="5.57769">
        <ele>1521.1</ele>
        <time>2014-08-29T09:02:25Z</time>
      </trkpt>
      <trkpt lat="45.23901" lon="5.57808">
        <ele>1511.9</ele>
        <time>2014-08-29T09:02:30Z</time>
      </trkpt>
      <trkpt lat="45.23905" lon="5.57812">
        <ele>1511.1</ele>
        <time>2014-08-29T09:02:31Z</time>
      </trkpt>
      <trkpt lat="45.23923" lon="5.57814">
        <ele>1510.5</ele>
        <time>2014-08-29T09:02:34Z</time>
      </trkpt>
      <trkpt lat="45.2395" lon="5.57805">
        <ele>1510.2</ele>
        <time>2014-08-29T09:02:38Z</time>
      </trkpt>
      <trkpt lat="45.23991" lon="5.5776">
        <ele>1519</ele>
        <time>2014-08-29T09:02:49Z</time>
      </trkpt>
      <trkpt lat="45.24009" lon="5.57752">
        <ele>1521</ele>
        <time>2014-08-29T09:02:55Z</time>
      </trkpt>
      <trkpt lat="45.24016" lon="5.57756">
        <ele>1520.4</ele>
        <time>2014-08-29T09:02:57Z</time>
      </trkpt>
      <trkpt lat="45.2418" lon="5.57923">
        <ele>1512</ele>
        <time>2014-08-29T09:03:24Z</time>
      </trkpt>
      <trkpt lat="45.24184" lon="5.57937">
        <ele>1514</ele>
        <time>2014-08-29T09:03:26Z</time>
      </trkpt>
      <trkpt lat="45.24123" lon="5.582">
        <ele>1511.7</ele>
        <time>2014-08-29T09:04:06Z</time>
      </trkpt>
      <trkpt lat="45.2413" lon="5.58246">
        <ele>1516.2</ele>
        <time>2014-08-29T09:04:16Z</time>
      </trkpt>
      <trkpt lat="45.24124" lon="5.58281">
        <ele>1512.9</ele>
        <time>2014-08-29T09:04:22Z</time>
      </trkpt>
      <trkpt lat="45.24144" lon="5.58405">
        <ele>1516.7</ele>
        <time>2014-08-29T09:04:35Z</time>
      </trkpt>
      <trkpt lat="45.24137" lon="5.58453">
        <ele>1517.7</ele>
        <time>2014-08-29T09:04:39Z</time>
      </trkpt>
      <trkpt lat="45.24118" lon="5.58494">
        <ele>1516.3</ele>
        <time>2014-08-29T09:04:49Z</time>
      </trkpt>
      <trkpt lat="45.24108" lon="5.58502">
        <ele>1514.4</ele>
        <time>2014-08-29T09:04:52Z</time>
      </trkpt>
      <trkpt lat="45.23992" lon="5.58517">
        <ele>1502.9</ele>
        <time>2014-08-29T09:05:10Z</time>
      </trkpt>
      <trkpt lat="45.23891" lon="5.58601">
        <ele>1510.8</ele>
        <time>2014-08-29T09:05:34Z</time>
      </trkpt>
      <trkpt lat="45.23836" lon="5.58615">
        <ele>1507.9</ele>
        <time>2014-08-29T09:05:44Z</time>
      </trkpt>
      <trkpt lat="45.23804" lon="5.58644">
        <ele>1511.1</ele>
        <time>2014-08-29T09:06:03Z</time>
      </trkpt>
      <trkpt lat="45.23793" lon="5.58661">
        <ele>1513.9</ele>
        <time>2014-08-29T09:06:13Z</time>
      </trkpt>
      <trkpt lat="45.2383" lon="5.58622">
        <ele>1509.5</ele>
        <time>2014-08-29T09:06:32Z</time>
      </trkpt>
      <trkpt lat="45.23904" lon="5.58607">
        <ele>1514.3</ele>
        <time>2014-08-29T09:06:43Z</time>
      </trkpt>
      <trkpt lat="45.23988" lon="5.5852">
        <ele>1502.9</ele>
        <time>2014-08-29T09:07:04Z</time>
      </trkpt>
      <trkpt lat="45.23883" lon="5.58598">
        <ele>1508.9</ele>
        <time>2014-08-29T09:11:47Z</time>
      </trkpt>
      <trkpt lat="45.2386" lon="5.586">
        <ele>1506.4</ele>
        <time>2014-08-29T09:11:52Z</time>
      </trkpt>
      <trkpt lat="45.23832" lon="5.58615">
        <ele>1507.4</ele>
        <time>2014-08-29T09:12:01Z</time>
      </trkpt>
      <trkpt lat="45.23802" lon="5.58643">
        <ele>1510.3</ele>
        <time>2014-08-29T09:12:15Z</time>
      </trkpt>
      <trkpt lat="45.23774" lon="5.58689">
        <ele>1515.8</ele>
        <time>2014-08-29T09:12:36Z</time>
      </trkpt>
      <trkpt lat="45.23755" lon="5.58804">
        <ele>1527.2</ele>
        <time>2014-08-29T09:13:24Z</time>
      </trkpt>
      <trkpt lat="45.23764" lon="5.58854">
        <ele>1533.6</ele>
        <time>2014-08-29T09:13:39Z</time>
      </trkpt>
      <trkpt lat="45.23761" lon="5.58889">
        <ele>1536.3</ele>
        <time>2014-08-29T09:13:51Z</time>
      </trkpt>
      <trkpt lat="45.23754" lon="5.58904">
        <ele>1537.1</ele>
        <time>2014-08-29T09:13:58Z</time>
      </trkpt>
      <trkpt lat="45.23579" lon="5.5908">
        <ele>1544.7</ele>
        <time>2014-08-29T09:14:58Z</time>
      </trkpt>
      <trkpt lat="45.23575" lon="5.59092">
        <ele>1546.9</ele>
        <time>2014-08-29T09:15:03Z</time>
      </trkpt>
      <trkpt lat="45.23583" lon="5.59098">
        <ele>1548.7</ele>
        <time>2014-08-29T09:15:08Z</time>
      </trkpt>
      <trkpt lat="45.23593" lon="5.59093">
        <ele>1548</ele>
        <time>2014-08-29T09:15:13Z</time>
      </trkpt>
      <trkpt lat="45.23607" lon="5.5909">
        <ele>1548</ele>
        <time>2014-08-29T09:15:18Z</time>
      </trkpt>
      <trkpt lat="45.23629" lon="5.59091">
        <ele>1548.9</ele>
        <time>2014-08-29T09:15:28Z</time>
      </trkpt>
      <trkpt lat="45.23634" lon="5.59094">
        <ele>1549.3</ele>
        <time>2014-08-29T09:15:31Z</time>
      </trkpt>
      <trkpt lat="45.23639" lon="5.59104">
        <ele>1550.2</ele>
        <time>2014-08-29T09:15:36Z</time>
      </trkpt>
      <trkpt lat="45.23639" lon="5.5911">
        <ele>1550.7</ele>
        <time>2014-08-29T09:15:39Z</time>
      </trkpt>
      <trkpt lat="45.23635" lon="5.59123">
        <ele>1551.8</ele>
        <time>2014-08-29T09:15:45Z</time>
      </trkpt>
      <trkpt lat="45.23613" lon="5.5913">
        <ele>1553.3</ele>
        <time>2014-08-29T09:15:54Z</time>
      </trkpt>
      <trkpt lat="45.23564" lon="5.59181">
        <ele>1562.6</ele>
        <time>2014-08-29T09:16:18Z</time>
      </trkpt>
      <trkpt lat="45.23563" lon="5.59186">
        <ele>1563.3</ele>
        <time>2014-08-29T09:16:20Z</time>
      </trkpt>
      <trkpt lat="45.2357" lon="5.59192">
        <ele>1564.2</ele>
        <time>2014-08-29T09:16:25Z</time>
      </trkpt>
      <trkpt lat="45.23576" lon="5.59193">
        <ele>1564.4</ele>
        <time>2014-08-29T09:16:29Z</time>
      </trkpt>
      <trkpt lat="45.23584" lon="5.59199">
        <ele>1565.2</ele>
        <time>2014-08-29T09:16:36Z</time>
      </trkpt>
      <trkpt lat="45.23583" lon="5.59214">
        <ele>1567.3</ele>
        <time>2014-08-29T09:16:43Z</time>
      </trkpt>
      <trkpt lat="45.23579" lon="5.59225">
        <ele>1568.7</ele>
        <time>2014-08-29T09:16:47Z</time>
      </trkpt>
      <trkpt lat="45.23571" lon="5.59234">
        <ele>1570.1</ele>
        <time>2014-08-29T09:16:51Z</time>
      </trkpt>
      <trkpt lat="45.23557" lon="5.59245">
        <ele>1571.9</ele>
        <time>2014-08-29T09:16:57Z</time>
      </trkpt>
      <trkpt lat="45.23537" lon="5.59248">
        <ele>1572.8</ele>
        <time>2014-08-29T09:17:04Z</time>
      </trkpt>
      <trkpt lat="45.23521" lon="5.59247">
        <ele>1573</ele>
        <time>2014-08-29T09:17:14Z</time>
      </trkpt>
      <trkpt lat="45.23504" lon="5.59266">
        <ele>1575.1</ele>
        <time>2014-08-29T09:17:25Z</time>
      </trkpt>
      <trkpt lat="45.23498" lon="5.59268">
        <ele>1575.4</ele>
        <time>2014-08-29T09:17:30Z</time>
      </trkpt>
      <trkpt lat="45.23477" lon="5.59262">
        <ele>1575.6</ele>
        <time>2014-08-29T09:17:39Z</time>
      </trkpt>
      <trkpt lat="45.23458" lon="5.59262">
        <ele>1576.3</ele>
        <time>2014-08-29T09:17:47Z</time>
      </trkpt>
      <trkpt lat="45.23447" lon="5.59265">
        <ele>1576.9</ele>
        <time>2014-08-29T09:17:52Z</time>
      </trkpt>
      <trkpt lat="45.23441" lon="5.5927">
        <ele>1577.4</ele>
        <time>2014-08-29T09:17:56Z</time>
      </trkpt>
      <trkpt lat="45.23431" lon="5.59287">
        <ele>1578.8</ele>
        <time>2014-08-29T09:18:04Z</time>
      </trkpt>
      <trkpt lat="45.23432" lon="5.593">
        <ele>1579.6</ele>
        <time>2014-08-29T09:18:09Z</time>
      </trkpt>
      <trkpt lat="45.23436" lon="5.59308">
        <ele>1580</ele>
        <time>2014-08-29T09:18:13Z</time>
      </trkpt>
      <trkpt lat="45.23437" lon="5.59307">
        <ele>1579.8</ele>
        <time>2014-08-29T09:18:15Z</time>
      </trkpt>
      <trkpt lat="45.23433" lon="5.59298">
        <ele>1579.4</ele>
        <time>2014-08-29T09:18:19Z</time>
      </trkpt>
      <trkpt lat="45.23442" lon="5.59267">
        <ele>1577.1</ele>
        <time>2014-08-29T09:18:27Z</time>
      </trkpt>
      <trkpt lat="45.2344" lon="5.59244">
        <ele>1575.2</ele>
        <time>2014-08-29T09:18:32Z</time>
      </trkpt>
      <trkpt lat="45.23421" lon="5.59232">
        <ele>1573.9</ele>
        <time>2014-08-29T09:18:42Z</time>
      </trkpt>
      <trkpt lat="45.23412" lon="5.59231">
        <ele>1574</ele>
        <time>2014-08-29T09:18:48Z</time>
      </trkpt>
      <trkpt lat="45.23418" lon="5.5923">
        <ele>1573.9</ele>
        <time>2014-08-29T09:18:54Z</time>
      </trkpt>
      <trkpt lat="45.23431" lon="5.59235">
        <ele>1574.1</ele>
        <time>2014-08-29T09:18:57Z</time>
      </trkpt>
      <trkpt lat="45.23448" lon="5.59252">
        <ele>1576</ele>
        <time>2014-08-29T09:19:01Z</time>
      </trkpt>
      <trkpt lat="45.23448" lon="5.59262">
        <ele>1576.6</ele>
        <time>2014-08-29T09:19:03Z</time>
      </trkpt>
      <trkpt lat="45.23437" lon="5.59278">
        <ele>1578</ele>
        <time>2014-08-29T09:19:09Z</time>
      </trkpt>
      <trkpt lat="45.23432" lon="5.59302">
        <ele>1579.7</ele>
        <time>2014-08-29T09:19:15Z</time>
      </trkpt>
      <trkpt lat="45.23442" lon="5.59327">
        <ele>1581</ele>
        <time>2014-08-29T09:19:21Z</time>
      </trkpt>
      <trkpt lat="45.23538" lon="5.59427">
        <ele>1589.5</ele>
        <time>2014-08-29T09:20:08Z</time>
      </trkpt>
      <trkpt lat="45.2356" lon="5.59467">
        <ele>1593.2</ele>
        <time>2014-08-29T09:20:34Z</time>
      </trkpt>
      <trkpt lat="45.23559" lon="5.59469">
        <ele>1593.6</ele>
        <time>2014-08-29T09:20:47Z</time>
      </trkpt>
      <trkpt lat="45.23556" lon="5.59469">
        <ele>1593.7</ele>
        <time>2014-08-29T09:31:35Z</time>
      </trkpt>
      <trkpt lat="45.23548" lon="5.5948">
        <ele>1596</ele>
        <time>2014-08-29T09:31:41Z</time>
      </trkpt>
      <trkpt lat="45.23509" lon="5.59497">
        <ele>1603.9</ele>
        <time>2014-08-29T09:32:04Z</time>
      </trkpt>
      <trkpt lat="45.23494" lon="5.59497">
        <ele>1605.6</ele>
        <time>2014-08-29T09:32:15Z</time>
      </trkpt>
      <trkpt lat="45.23468" lon="5.59474">
        <ele>1602.3</ele>
        <time>2014-08-29T09:32:23Z</time>
      </trkpt>
      <trkpt lat="45.23456" lon="5.59475">
        <ele>1603.1</ele>
        <time>2014-08-29T09:32:26Z</time>
      </trkpt>
      <trkpt lat="45.23448" lon="5.59481">
        <ele>1604.8</ele>
        <time>2014-08-29T09:32:30Z</time>
      </trkpt>
      <trkpt lat="45.23442" lon="5.59491">
        <ele>1607.1</ele>
        <time>2014-08-29T09:32:37Z</time>
      </trkpt>
      <trkpt lat="45.23432" lon="5.595">
        <ele>1609.3</ele>
        <time>2014-08-29T09:32:45Z</time>
      </trkpt>
      <trkpt lat="45.23404" lon="5.59536">
        <ele>1616</ele>
        <time>2014-08-29T09:33:05Z</time>
      </trkpt>
      <trkpt lat="45.23397" lon="5.5954">
        <ele>1616.8</ele>
        <time>2014-08-29T09:33:10Z</time>
      </trkpt>
      <trkpt lat="45.23358" lon="5.59535">
        <ele>1617</ele>
        <time>2014-08-29T09:33:27Z</time>
      </trkpt>
      <trkpt lat="45.23349" lon="5.5954">
        <ele>1617.9</ele>
        <time>2014-08-29T09:33:33Z</time>
      </trkpt>
      <trkpt lat="45.23344" lon="5.59547">
        <ele>1619</ele>
        <time>2014-08-29T09:33:39Z</time>
      </trkpt>
      <trkpt lat="45.23338" lon="5.59547">
        <ele>1619.2</ele>
        <time>2014-08-29T09:33:44Z</time>
      </trkpt>
      <trkpt lat="45.23286" lon="5.59503">
        <ele>1615.5</ele>
        <time>2014-08-29T09:34:04Z</time>
      </trkpt>
      <trkpt lat="45.23275" lon="5.595">
        <ele>1615.8</ele>
        <time>2014-08-29T09:34:07Z</time>
      </trkpt>
      <trkpt lat="45.23267" lon="5.59504">
        <ele>1616.4</ele>
        <time>2014-08-29T09:34:10Z</time>
      </trkpt>
      <trkpt lat="45.23254" lon="5.59519">
        <ele>1617.6</ele>
        <time>2014-08-29T09:34:16Z</time>
      </trkpt>
      <trkpt lat="45.23233" lon="5.59529">
        <ele>1617.8</ele>
        <time>2014-08-29T09:34:22Z</time>
      </trkpt>
      <trkpt lat="45.23219" lon="5.59549">
        <ele>1617.8</ele>
        <time>2014-08-29T09:34:25Z</time>
      </trkpt>
      <trkpt lat="45.23208" lon="5.59559">
        <ele>1617.5</ele>
        <time>2014-08-29T09:34:30Z</time>
      </trkpt>
      <trkpt lat="45.23119" lon="5.59427">
        <ele>1609.4</ele>
        <time>2014-08-29T09:35:02Z</time>
      </trkpt>
      <trkpt lat="45.23091" lon="5.59408">
        <ele>1608.1</ele>
        <time>2014-08-29T09:35:07Z</time>
      </trkpt>
      <trkpt lat="45.23052" lon="5.594">
        <ele>1609</ele>
        <time>2014-08-29T09:35:14Z</time>
      </trkpt>
      <trkpt lat="45.2303" lon="5.59383">
        <ele>1609.2</ele>
        <time>2014-08-29T09:35:21Z</time>
      </trkpt>
      <trkpt lat="45.23014" lon="5.59381">
        <ele>1610.2</ele>
        <time>2014-08-29T09:35:25Z</time>
      </trkpt>
      <trkpt lat="45.22996" lon="5.59357">
        <ele>1610.6</ele>
        <time>2014-08-29T09:35:31Z</time>
      </trkpt>
      <trkpt lat="45.22991" lon="5.59356">
        <ele>1610.6</ele>
        <time>2014-08-29T09:35:33Z</time>
      </trkpt>
      <trkpt lat="45.22974" lon="5.59361">
        <ele>1610.9</ele>
        <time>2014-08-29T09:35:40Z</time>
      </trkpt>
      <trkpt lat="45.22951" lon="5.59348">
        <ele>1610.8</ele>
        <time>2014-08-29T09:35:46Z</time>
      </trkpt>
      <trkpt lat="45.2289" lon="5.59383">
        <ele>1612.2</ele>
        <time>2014-08-29T09:36:06Z</time>
      </trkpt>
      <trkpt lat="45.2287" lon="5.59384">
        <ele>1612.6</ele>
        <time>2014-08-29T09:36:11Z</time>
      </trkpt>
      <trkpt lat="45.22861" lon="5.5939">
        <ele>1612.8</ele>
        <time>2014-08-29T09:36:15Z</time>
      </trkpt>
      <trkpt lat="45.22853" lon="5.59381">
        <ele>1613</ele>
        <time>2014-08-29T09:36:50Z</time>
      </trkpt>
      <trkpt lat="45.22859" lon="5.5938">
        <ele>1612.9</ele>
        <time>2014-08-29T09:37:53Z</time>
      </trkpt>
      <trkpt lat="45.22871" lon="5.59361">
        <ele>1612.6</ele>
        <time>2014-08-29T09:38:06Z</time>
      </trkpt>
      <trkpt lat="45.22879" lon="5.59357">
        <ele>1612.4</ele>
        <time>2014-08-29T09:39:00Z</time>
      </trkpt>
      <trkpt lat="45.22861" lon="5.59381">
        <ele>1612.8</ele>
        <time>2014-08-29T10:53:49Z</time>
      </trkpt>
      <trkpt lat="45.22855" lon="5.59383">
        <ele>1612.9</ele>
        <time>2014-08-29T10:53:51Z</time>
      </trkpt>
      <trkpt lat="45.22837" lon="5.59372">
        <ele>1613.5</ele>
        <time>2014-08-29T10:53:58Z</time>
      </trkpt>
      <trkpt lat="45.22825" lon="5.59369">
        <ele>1613.3</ele>
        <time>2014-08-29T10:54:02Z</time>
      </trkpt>
      <trkpt lat="45.22761" lon="5.59383">
        <ele>1610.8</ele>
        <time>2014-08-29T10:54:18Z</time>
      </trkpt>
      <trkpt lat="45.2276" lon="5.59387">
        <ele>1610.7</ele>
        <time>2014-08-29T10:54:22Z</time>
      </trkpt>
      <trkpt lat="45.22754" lon="5.59387">
        <ele>1610.5</ele>
        <time>2014-08-29T10:54:25Z</time>
      </trkpt>
      <trkpt lat="45.22739" lon="5.59397">
        <ele>1610.2</ele>
        <time>2014-08-29T10:54:31Z</time>
      </trkpt>
      <trkpt lat="45.22729" lon="5.594">
        <ele>1610.2</ele>
        <time>2014-08-29T10:54:34Z</time>
      </trkpt>
      <trkpt lat="45.22717" lon="5.59398">
        <ele>1610.1</ele>
        <time>2014-08-29T10:54:37Z</time>
      </trkpt>
      <trkpt lat="45.22706" lon="5.59392">
        <ele>1610.1</ele>
        <time>2014-08-29T10:54:40Z</time>
      </trkpt>
      <trkpt lat="45.22695" lon="5.59377">
        <ele>1610.2</ele>
        <time>2014-08-29T10:54:44Z</time>
      </trkpt>
      <trkpt lat="45.2268" lon="5.59375">
        <ele>1610.1</ele>
        <time>2014-08-29T10:54:49Z</time>
      </trkpt>
      <trkpt lat="45.22657" lon="5.59391">
        <ele>1610.2</ele>
        <time>2014-08-29T10:54:56Z</time>
      </trkpt>
      <trkpt lat="45.22603" lon="5.59389">
        <ele>1611.5</ele>
        <time>2014-08-29T10:55:10Z</time>
      </trkpt>
      <trkpt lat="45.22592" lon="5.59384">
        <ele>1611.8</ele>
        <time>2014-08-29T10:55:13Z</time>
      </trkpt>
      <trkpt lat="45.22392" lon="5.59364">
        <ele>1618.2</ele>
        <time>2014-08-29T10:56:04Z</time>
      </trkpt>
      <trkpt lat="45.22357" lon="5.59376">
        <ele>1618.9</ele>
        <time>2014-08-29T10:56:14Z</time>
      </trkpt>
      <trkpt lat="45.22298" lon="5.59354">
        <ele>1620.8</ele>
        <time>2014-08-29T10:56:38Z</time>
      </trkpt>
      <trkpt lat="45.22192" lon="5.59236">
        <ele>1609.1</ele>
        <time>2014-08-29T10:57:04Z</time>
      </trkpt>
      <trkpt lat="45.22178" lon="5.5923">
        <ele>1607.8</ele>
        <time>2014-08-29T10:57:06Z</time>
      </trkpt>
      <trkpt lat="45.22093" lon="5.59245">
        <ele>1609.9</ele>
        <time>2014-08-29T10:57:19Z</time>
      </trkpt>
      <trkpt lat="45.22063" lon="5.59238">
        <ele>1607.1</ele>
        <time>2014-08-29T10:57:24Z</time>
      </trkpt>
      <trkpt lat="45.22045" lon="5.59239">
        <ele>1606.2</ele>
        <time>2014-08-29T10:57:27Z</time>
      </trkpt>
      <trkpt lat="45.22003" lon="5.59254">
        <ele>1605.7</ele>
        <time>2014-08-29T10:57:34Z</time>
      </trkpt>
      <trkpt lat="45.21943" lon="5.59253">
        <ele>1600.5</ele>
        <time>2014-08-29T10:57:43Z</time>
      </trkpt>
      <trkpt lat="45.21911" lon="5.59267">
        <ele>1599.5</ele>
        <time>2014-08-29T10:57:49Z</time>
      </trkpt>
      <trkpt lat="45.21826" lon="5.59267">
        <ele>1598.3</ele>
        <time>2014-08-29T10:58:07Z</time>
      </trkpt>
      <trkpt lat="45.21821" lon="5.5927">
        <ele>1598.1</ele>
        <time>2014-08-29T10:58:08Z</time>
      </trkpt>
      <trkpt lat="45.21724" lon="5.59433">
        <ele>1589.1</ele>
        <time>2014-08-29T10:58:25Z</time>
      </trkpt>
      <trkpt lat="45.2171" lon="5.59439">
        <ele>1590.2</ele>
        <time>2014-08-29T10:58:27Z</time>
      </trkpt>
      <trkpt lat="45.21668" lon="5.59398">
        <ele>1597</ele>
        <time>2014-08-29T10:58:45Z</time>
      </trkpt>
      <trkpt lat="45.2166" lon="5.5938">
        <ele>1599.9</ele>
        <time>2014-08-29T10:58:55Z</time>
      </trkpt>
      <trkpt lat="45.2166" lon="5.59295">
        <ele>1602.2</ele>
        <time>2014-08-29T10:59:23Z</time>
      </trkpt>
      <trkpt lat="45.21605" lon="5.59192">
        <ele>1611.7</ele>
        <time>2014-08-29T10:59:56Z</time>
      </trkpt>
      <trkpt lat="45.21599" lon="5.59192">
        <ele>1612.7</ele>
        <time>2014-08-29T11:00:00Z</time>
      </trkpt>
      <trkpt lat="45.21591" lon="5.5917">
        <ele>1612.3</ele>
        <time>2014-08-29T11:00:07Z</time>
      </trkpt>
      <trkpt lat="45.21562" lon="5.59152">
        <ele>1616.2</ele>
        <time>2014-08-29T11:00:17Z</time>
      </trkpt>
      <trkpt lat="45.21548" lon="5.59154">
        <ele>1617.6</ele>
        <time>2014-08-29T11:00:22Z</time>
      </trkpt>
      <trkpt lat="45.21516" lon="5.59144">
        <ele>1621.6</ele>
        <time>2014-08-29T11:00:33Z</time>
      </trkpt>
      <trkpt lat="45.21512" lon="5.59145">
        <ele>1622</ele>
        <time>2014-08-29T11:00:35Z</time>
      </trkpt>
      <trkpt lat="45.21494" lon="5.5916">
        <ele>1622.9</ele>
        <time>2014-08-29T11:00:48Z</time>
      </trkpt>
      <trkpt lat="45.21487" lon="5.59157">
        <ele>1623.6</ele>
        <time>2014-08-29T11:00:52Z</time>
      </trkpt>
      <trkpt lat="45.2132" lon="5.58997">
        <ele>1632.9</ele>
        <time>2014-08-29T11:02:37Z</time>
      </trkpt>
      <trkpt lat="45.21305" lon="5.58999">
        <ele>1633.7</ele>
        <time>2014-08-29T11:02:45Z</time>
      </trkpt>
      <trkpt lat="45.21274" lon="5.59016">
        <ele>1635.2</ele>
        <time>2014-08-29T11:03:05Z</time>
      </trkpt>
      <trkpt lat="45.21249" lon="5.59019">
        <ele>1636.5</ele>
        <time>2014-08-29T11:03:20Z</time>
      </trkpt>
      <trkpt lat="45.2124" lon="5.59025">
        <ele>1636.5</ele>
        <time>2014-08-29T11:03:40Z</time>
      </trkpt>
      <trkpt lat="45.21221" lon="5.59031">
        <ele>1636.4</ele>
        <time>2014-08-29T11:03:46Z</time>
      </trkpt>
      <trkpt lat="45.21173" lon="5.59025">
        <ele>1637.1</ele>
        <time>2014-08-29T11:03:59Z</time>
      </trkpt>
      <trkpt lat="45.21138" lon="5.59009">
        <ele>1635.1</ele>
        <time>2014-08-29T11:04:08Z</time>
      </trkpt>
      <trkpt lat="45.21129" lon="5.58999">
        <ele>1634.5</ele>
        <time>2014-08-29T11:04:10Z</time>
      </trkpt>
      <trkpt lat="45.21119" lon="5.58972">
        <ele>1633.6</ele>
        <time>2014-08-29T11:04:14Z</time>
      </trkpt>
      <trkpt lat="45.21117" lon="5.58971">
        <ele>1633.3</ele>
        <time>2014-08-29T11:04:15Z</time>
      </trkpt>
      <trkpt lat="45.21115" lon="5.58956">
        <ele>1633.2</ele>
        <time>2014-08-29T11:04:26Z</time>
      </trkpt>
      <trkpt lat="45.21107" lon="5.58951">
        <ele>1632.2</ele>
        <time>2014-08-29T11:04:29Z</time>
      </trkpt>
      <trkpt lat="45.21098" lon="5.58956">
        <ele>1630.9</ele>
        <time>2014-08-29T11:04:42Z</time>
      </trkpt>
      <trkpt lat="45.21085" lon="5.58971">
        <ele>1629.2</ele>
        <time>2014-08-29T11:06:41Z</time>
      </trkpt>
      <trkpt lat="45.21064" lon="5.59029">
        <ele>1626.8</ele>
        <time>2014-08-29T11:06:49Z</time>
      </trkpt>
      <trkpt lat="45.21047" lon="5.59052">
        <ele>1626.1</ele>
        <time>2014-08-29T11:06:59Z</time>
      </trkpt>
      <trkpt lat="45.21037" lon="5.59053">
        <ele>1625.6</ele>
        <time>2014-08-29T11:14:24Z</time>
      </trkpt>
      <trkpt lat="45.21023" lon="5.59062">
        <ele>1625.5</ele>
        <time>2014-08-29T11:14:29Z</time>
      </trkpt>
      <trkpt lat="45.21012" lon="5.59079">
        <ele>1626.7</ele>
        <time>2014-08-29T11:14:33Z</time>
      </trkpt>
      <trkpt lat="45.20999" lon="5.59133">
        <ele>1625.2</ele>
        <time>2014-08-29T11:14:45Z</time>
      </trkpt>
      <trkpt lat="45.21" lon="5.59159">
        <ele>1624.3</ele>
        <time>2014-08-29T11:14:51Z</time>
      </trkpt>
      <trkpt lat="45.20992" lon="5.59171">
        <ele>1623.6</ele>
        <time>2014-08-29T11:14:54Z</time>
      </trkpt>
      <trkpt lat="45.20942" lon="5.59173">
        <ele>1622.2</ele>
        <time>2014-08-29T11:15:05Z</time>
      </trkpt>
      <trkpt lat="45.20889" lon="5.59116">
        <ele>1623.4</ele>
        <time>2014-08-29T11:15:16Z</time>
      </trkpt>
      <trkpt lat="45.20855" lon="5.59104">
        <ele>1623.2</ele>
        <time>2014-08-29T11:15:21Z</time>
      </trkpt>
      <trkpt lat="45.20836" lon="5.59104">
        <ele>1622.8</ele>
        <time>2014-08-29T11:15:24Z</time>
      </trkpt>
      <trkpt lat="45.20732" lon="5.59164">
        <ele>1623</ele>
        <time>2014-08-29T11:15:41Z</time>
      </trkpt>
      <trkpt lat="45.20705" lon="5.59215">
        <ele>1621.3</ele>
        <time>2014-08-29T11:15:53Z</time>
      </trkpt>
      <trkpt lat="45.20697" lon="5.59219">
        <ele>1621.3</ele>
        <time>2014-08-29T11:15:55Z</time>
      </trkpt>
      <trkpt lat="45.20679" lon="5.5922">
        <ele>1621.5</ele>
        <time>2014-08-29T11:16:00Z</time>
      </trkpt>
      <trkpt lat="45.20629" lon="5.59209">
        <ele>1624</ele>
        <time>2014-08-29T11:16:14Z</time>
      </trkpt>
      <trkpt lat="45.20622" lon="5.5921">
        <ele>1624.4</ele>
        <time>2014-08-29T11:16:16Z</time>
      </trkpt>
      <trkpt lat="45.20499" lon="5.59296">
        <ele>1626.8</ele>
        <time>2014-08-29T11:16:47Z</time>
      </trkpt>
      <trkpt lat="45.20484" lon="5.59312">
        <ele>1626</ele>
        <time>2014-08-29T11:16:54Z</time>
      </trkpt>
      <trkpt lat="45.20475" lon="5.59316">
        <ele>1625.8</ele>
        <time>2014-08-29T11:17:06Z</time>
      </trkpt>
      <trkpt lat="45.20452" lon="5.59306">
        <ele>1626.1</ele>
        <time>2014-08-29T11:17:18Z</time>
      </trkpt>
      <trkpt lat="45.20395" lon="5.59305">
        <ele>1626.4</ele>
        <time>2014-08-29T11:17:38Z</time>
      </trkpt>
      <trkpt lat="45.1987" lon="5.59181">
        <ele>1631.3</ele>
        <time>2014-08-29T11:19:37Z</time>
      </trkpt>
      <trkpt lat="45.19845" lon="5.59194">
        <ele>1631.1</ele>
        <time>2014-08-29T11:19:43Z</time>
      </trkpt>
      <trkpt lat="45.19813" lon="5.59189">
        <ele>1632.8</ele>
        <time>2014-08-29T11:19:52Z</time>
      </trkpt>
      <trkpt lat="45.19793" lon="5.59203">
        <ele>1633</ele>
        <time>2014-08-29T11:20:03Z</time>
      </trkpt>
      <trkpt lat="45.19792" lon="5.59199">
        <ele>1633.3</ele>
        <time>2014-08-29T11:32:57Z</time>
      </trkpt>
      <trkpt lat="45.19691" lon="5.59172">
        <ele>1647</ele>
        <time>2014-08-29T11:33:57Z</time>
      </trkpt>
      <trkpt lat="45.19684" lon="5.59166">
        <ele>1649.1</ele>
        <time>2014-08-29T11:34:04Z</time>
      </trkpt>
      <trkpt lat="45.19649" lon="5.5916">
        <ele>1652.4</ele>
        <time>2014-08-29T11:34:26Z</time>
      </trkpt>
      <trkpt lat="45.19528" lon="5.59191">
        <ele>1656.1</ele>
        <time>2014-08-29T11:35:06Z</time>
      </trkpt>
      <trkpt lat="45.19505" lon="5.59206">
        <ele>1657.1</ele>
        <time>2014-08-29T11:35:12Z</time>
      </trkpt>
      <trkpt lat="45.19459" lon="5.59213">
        <ele>1654.8</ele>
        <time>2014-08-29T11:35:22Z</time>
      </trkpt>
      <trkpt lat="45.1943" lon="5.59241">
        <ele>1654.5</ele>
        <time>2014-08-29T11:35:30Z</time>
      </trkpt>
      <trkpt lat="45.19381" lon="5.59247">
        <ele>1650.5</ele>
        <time>2014-08-29T11:35:40Z</time>
      </trkpt>
      <trkpt lat="45.19141" lon="5.59187">
        <ele>1654</ele>
        <time>2014-08-29T11:36:37Z</time>
      </trkpt>
      <trkpt lat="45.19111" lon="5.59166">
        <ele>1664.7</ele>
        <time>2014-08-29T11:36:56Z</time>
      </trkpt>
      <trkpt lat="45.19088" lon="5.59164">
        <ele>1668.3</ele>
        <time>2014-08-29T11:37:13Z</time>
      </trkpt>
      <trkpt lat="45.19068" lon="5.59153">
        <ele>1670.5</ele>
        <time>2014-08-29T11:37:30Z</time>
      </trkpt>
      <trkpt lat="45.18976" lon="5.5913">
        <ele>1682.1</ele>
        <time>2014-08-29T11:38:26Z</time>
      </trkpt>
      <trkpt lat="45.18941" lon="5.59136">
        <ele>1683.6</ele>
        <time>2014-08-29T11:38:41Z</time>
      </trkpt>
      <trkpt lat="45.18929" lon="5.59134">
        <ele>1684.7</ele>
        <time>2014-08-29T11:38:47Z</time>
      </trkpt>
      <trkpt lat="45.18915" lon="5.59139">
        <ele>1685.1</ele>
        <time>2014-08-29T11:38:55Z</time>
      </trkpt>
      <trkpt lat="45.18862" lon="5.59132">
        <ele>1690.2</ele>
        <time>2014-08-29T11:39:19Z</time>
      </trkpt>
      <trkpt lat="45.18819" lon="5.59149">
        <ele>1691.5</ele>
        <time>2014-08-29T11:39:45Z</time>
      </trkpt>
      <trkpt lat="45.18789" lon="5.59184">
        <ele>1689.4</ele>
        <time>2014-08-29T11:41:10Z</time>
      </trkpt>
      <trkpt lat="45.18778" lon="5.59191">
        <ele>1690.2</ele>
        <time>2014-08-29T11:41:15Z</time>
      </trkpt>
      <trkpt lat="45.18754" lon="5.59194">
        <ele>1696.3</ele>
        <time>2014-08-29T11:41:24Z</time>
      </trkpt>
      <trkpt lat="45.18736" lon="5.59215">
        <ele>1694.3</ele>
        <time>2014-08-29T11:41:30Z</time>
      </trkpt>
      <trkpt lat="45.18723" lon="5.59223">
        <ele>1694.2</ele>
        <time>2014-08-29T11:41:35Z</time>
      </trkpt>
      <trkpt lat="45.18721" lon="5.59228">
        <ele>1693.4</ele>
        <time>2014-08-29T11:41:37Z</time>
      </trkpt>
      <trkpt lat="45.1871" lon="5.59234">
        <ele>1693.6</ele>
        <time>2014-08-29T11:41:41Z</time>
      </trkpt>
      <trkpt lat="45.18689" lon="5.59261">
        <ele>1687.4</ele>
        <time>2014-08-29T11:41:49Z</time>
      </trkpt>
      <trkpt lat="45.18681" lon="5.59262">
        <ele>1688.1</ele>
        <time>2014-08-29T11:41:51Z</time>
      </trkpt>
      <trkpt lat="45.18644" lon="5.59241">
        <ele>1691.1</ele>
        <time>2014-08-29T11:42:05Z</time>
      </trkpt>
      <trkpt lat="45.18598" lon="5.59173">
        <ele>1703.3</ele>
        <time>2014-08-29T11:58:47Z</time>
      </trkpt>
      <trkpt lat="45.18581" lon="5.5916">
        <ele>1703.9</ele>
        <time>2014-08-29T11:58:52Z</time>
      </trkpt>
      <trkpt lat="45.18569" lon="5.59142">
        <ele>1700.4</ele>
        <time>2014-08-29T11:58:57Z</time>
      </trkpt>
      <trkpt lat="45.18564" lon="5.59116">
        <ele>1702.9</ele>
        <time>2014-08-29T11:59:03Z</time>
      </trkpt>
      <trkpt lat="45.1855" lon="5.59109">
        <ele>1698.7</ele>
        <time>2014-08-29T11:59:07Z</time>
      </trkpt>
      <trkpt lat="45.18484" lon="5.59019">
        <ele>1691.7</ele>
        <time>2014-08-29T11:59:26Z</time>
      </trkpt>
      <trkpt lat="45.18482" lon="5.59">
        <ele>1694.7</ele>
        <time>2014-08-29T11:59:28Z</time>
      </trkpt>
      <trkpt lat="45.18329" lon="5.58811">
        <ele>1675.6</ele>
        <time>2014-08-29T12:00:03Z</time>
      </trkpt>
      <trkpt lat="45.18263" lon="5.58784">
        <ele>1662.2</ele>
        <time>2014-08-29T12:00:12Z</time>
      </trkpt>
      <trkpt lat="45.18242" lon="5.58751">
        <ele>1666.2</ele>
        <time>2014-08-29T12:00:18Z</time>
      </trkpt>
      <trkpt lat="45.17979" lon="5.58583">
        <ele>1657.5</ele>
        <time>2014-08-29T12:00:57Z</time>
      </trkpt>
      <trkpt lat="45.17944" lon="5.58578">
        <ele>1658.3</ele>
        <time>2014-08-29T12:01:04Z</time>
      </trkpt>
      <trkpt lat="45.17938" lon="5.5858">
        <ele>1658.5</ele>
        <time>2014-08-29T12:01:06Z</time>
      </trkpt>
      <trkpt lat="45.17909" lon="5.58574">
        <ele>1660.1</ele>
        <time>2014-08-29T12:01:18Z</time>
      </trkpt>
      <trkpt lat="45.17899" lon="5.58576">
        <ele>1661.2</ele>
        <time>2014-08-29T12:01:21Z</time>
      </trkpt>
      <trkpt lat="45.17884" lon="5.58573">
        <ele>1663.1</ele>
        <time>2014-08-29T12:01:27Z</time>
      </trkpt>
      <trkpt lat="45.17876" lon="5.58576">
        <ele>1664</ele>
        <time>2014-08-29T12:01:31Z</time>
      </trkpt>
      <trkpt lat="45.17857" lon="5.586">
        <ele>1661</ele>
        <time>2014-08-29T12:01:44Z</time>
      </trkpt>
      <trkpt lat="45.1784" lon="5.58603">
        <ele>1662.2</ele>
        <time>2014-08-29T12:01:51Z</time>
      </trkpt>
      <trkpt lat="45.17822" lon="5.58614">
        <ele>1660.9</ele>
        <time>2014-08-29T12:02:02Z</time>
      </trkpt>
      <trkpt lat="45.17796" lon="5.58622">
        <ele>1661.5</ele>
        <time>2014-08-29T12:02:16Z</time>
      </trkpt>
      <trkpt lat="45.17777" lon="5.58638">
        <ele>1660</ele>
        <time>2014-08-29T12:02:26Z</time>
      </trkpt>
      <trkpt lat="45.17768" lon="5.58637">
        <ele>1661.4</ele>
        <time>2014-08-29T12:02:30Z</time>
      </trkpt>
      <trkpt lat="45.17718" lon="5.58645">
        <ele>1665.8</ele>
        <time>2014-08-29T12:02:48Z</time>
      </trkpt>
      <trkpt lat="45.1771" lon="5.58651">
        <ele>1665.7</ele>
        <time>2014-08-29T12:02:51Z</time>
      </trkpt>
      <trkpt lat="45.17685" lon="5.58651">
        <ele>1668.7</ele>
        <time>2014-08-29T12:03:02Z</time>
      </trkpt>
      <trkpt lat="45.17676" lon="5.58647">
        <ele>1670.5</ele>
        <time>2014-08-29T12:03:07Z</time>
      </trkpt>
      <trkpt lat="45.17669" lon="5.58646">
        <ele>1671.4</ele>
        <time>2014-08-29T12:03:12Z</time>
      </trkpt>
      <trkpt lat="45.17644" lon="5.58634">
        <ele>1672.7</ele>
        <time>2014-08-29T12:03:26Z</time>
      </trkpt>
      <trkpt lat="45.17638" lon="5.58628">
        <ele>1673.7</ele>
        <time>2014-08-29T12:03:30Z</time>
      </trkpt>
      <trkpt lat="45.17627" lon="5.58626">
        <ele>1673.9</ele>
        <time>2014-08-29T12:03:38Z</time>
      </trkpt>
      <trkpt lat="45.17623" lon="5.58621">
        <ele>1675.1</ele>
        <time>2014-08-29T12:03:42Z</time>
      </trkpt>
      <trkpt lat="45.17595" lon="5.5863">
        <ele>1671.4</ele>
        <time>2014-08-29T12:04:13Z</time>
      </trkpt>
      <trkpt lat="45.17601" lon="5.58628">
        <ele>1672.4</ele>
        <time>2014-08-29T12:04:17Z</time>
      </trkpt>
      <trkpt lat="45.17606" lon="5.58622">
        <ele>1674.2</ele>
        <time>2014-08-29T12:04:20Z</time>
      </trkpt>
      <trkpt lat="45.17602" lon="5.58608">
        <ele>1678.2</ele>
        <time>2014-08-29T12:04:24Z</time>
      </trkpt>
      <trkpt lat="45.1754" lon="5.58573">
        <ele>1679</ele>
        <time>2014-08-29T12:04:45Z</time>
      </trkpt>
      <trkpt lat="45.17529" lon="5.58561">
        <ele>1678.6</ele>
        <time>2014-08-29T12:04:49Z</time>
      </trkpt>
      <trkpt lat="45.17515" lon="5.58553">
        <ele>1677.8</ele>
        <time>2014-08-29T12:04:52Z</time>
      </trkpt>
      <trkpt lat="45.17479" lon="5.58548">
        <ele>1673</ele>
        <time>2014-08-29T12:04:58Z</time>
      </trkpt>
      <trkpt lat="45.17471" lon="5.58551">
        <ele>1671.1</ele>
        <time>2014-08-29T12:05:00Z</time>
      </trkpt>
      <trkpt lat="45.1744" lon="5.58541">
        <ele>1667.9</ele>
        <time>2014-08-29T12:05:08Z</time>
      </trkpt>
      <trkpt lat="45.1743" lon="5.5854">
        <ele>1666.2</ele>
        <time>2014-08-29T12:05:12Z</time>
      </trkpt>
      <trkpt lat="45.17428" lon="5.58536">
        <ele>1666.9</ele>
        <time>2014-08-29T12:05:15Z</time>
      </trkpt>
      <trkpt lat="45.17428" lon="5.58538">
        <ele>1666.5</ele>
        <time>2014-08-29T12:05:19Z</time>
      </trkpt>
      <trkpt lat="45.17428" lon="5.58534">
        <ele>1667.4</ele>
        <time>2014-08-29T12:15:42Z</time>
      </trkpt>
      <trkpt lat="45.17412" lon="5.58509">
        <ele>1670.8</ele>
        <time>2014-08-29T12:15:49Z</time>
      </trkpt>
      <trkpt lat="45.17351" lon="5.58464">
        <ele>1657.2</ele>
        <time>2014-08-29T12:16:05Z</time>
      </trkpt>
      <trkpt lat="45.17348" lon="5.58466">
        <ele>1655.9</ele>
        <time>2014-08-29T12:16:07Z</time>
      </trkpt>
      <trkpt lat="45.17342" lon="5.58465">
        <ele>1654.1</ele>
        <time>2014-08-29T12:16:12Z</time>
      </trkpt>
      <trkpt lat="45.17299" lon="5.58406">
        <ele>1654</ele>
        <time>2014-08-29T12:16:31Z</time>
      </trkpt>
      <trkpt lat="45.17298" lon="5.58395">
        <ele>1653.6</ele>
        <time>2014-08-29T12:16:38Z</time>
      </trkpt>
      <trkpt lat="45.1738" lon="5.58314">
        <ele>1660.5</ele>
        <time>2014-08-29T12:18:41Z</time>
      </trkpt>
      <trkpt lat="45.17474" lon="5.58111">
        <ele>1622.1</ele>
        <time>2014-08-29T12:19:26Z</time>
      </trkpt>
      <trkpt lat="45.17486" lon="5.58097">
        <ele>1623.5</ele>
        <time>2014-08-29T12:19:28Z</time>
      </trkpt>
      <trkpt lat="45.17526" lon="5.5807">
        <ele>1624.5</ele>
        <time>2014-08-29T12:19:37Z</time>
      </trkpt>
      <trkpt lat="45.17536" lon="5.58066">
        <ele>1624</ele>
        <time>2014-08-29T12:19:40Z</time>
      </trkpt>
      <trkpt lat="45.1754" lon="5.58059">
        <ele>1622.9</ele>
        <time>2014-08-29T12:19:43Z</time>
      </trkpt>
      <trkpt lat="45.17533" lon="5.58041">
        <ele>1619.4</ele>
        <time>2014-08-29T12:19:47Z</time>
      </trkpt>
      <trkpt lat="45.17506" lon="5.58019">
        <ele>1613.6</ele>
        <time>2014-08-29T12:19:52Z</time>
      </trkpt>
      <trkpt lat="45.17503" lon="5.58007">
        <ele>1610.9</ele>
        <time>2014-08-29T12:19:54Z</time>
      </trkpt>
      <trkpt lat="45.1753" lon="5.57978">
        <ele>1607.3</ele>
        <time>2014-08-29T12:20:04Z</time>
      </trkpt>
      <trkpt lat="45.1753" lon="5.57975">
        <ele>1606.7</ele>
        <time>2014-08-29T12:20:06Z</time>
      </trkpt>
      <trkpt lat="45.17509" lon="5.57952">
        <ele>1599.6</ele>
        <time>2014-08-29T12:20:13Z</time>
      </trkpt>
      <trkpt lat="45.17508" lon="5.57945">
        <ele>1597.9</ele>
        <time>2014-08-29T12:20:14Z</time>
      </trkpt>
      <trkpt lat="45.17515" lon="5.57922">
        <ele>1593.8</ele>
        <time>2014-08-29T12:20:17Z</time>
      </trkpt>
      <trkpt lat="45.17531" lon="5.57898">
        <ele>1591.2</ele>
        <time>2014-08-29T12:20:22Z</time>
      </trkpt>
      <trkpt lat="45.17532" lon="5.57893">
        <ele>1590.5</ele>
        <time>2014-08-29T12:20:25Z</time>
      </trkpt>
      <trkpt lat="45.17501" lon="5.5787">
        <ele>1582.8</ele>
        <time>2014-08-29T12:20:35Z</time>
      </trkpt>
      <trkpt lat="45.1753" lon="5.57818">
        <ele>1576.7</ele>
        <time>2014-08-29T12:22:28Z</time>
      </trkpt>
      <trkpt lat="45.17544" lon="5.57804">
        <ele>1575</ele>
        <time>2014-08-29T12:22:32Z</time>
      </trkpt>
      <trkpt lat="45.17544" lon="5.57799">
        <ele>1573.8</ele>
        <time>2014-08-29T12:22:34Z</time>
      </trkpt>
      <trkpt lat="45.17491" lon="5.5776">
        <ele>1555.3</ele>
        <time>2014-08-29T12:22:46Z</time>
      </trkpt>
      <trkpt lat="45.17491" lon="5.57756">
        <ele>1554.2</ele>
        <time>2014-08-29T12:22:47Z</time>
      </trkpt>
      <trkpt lat="45.17508" lon="5.57735">
        <ele>1555.9</ele>
        <time>2014-08-29T12:22:52Z</time>
      </trkpt>
      <trkpt lat="45.17533" lon="5.57727">
        <ele>1555.5</ele>
        <time>2014-08-29T12:22:57Z</time>
      </trkpt>
      <trkpt lat="45.17536" lon="5.57724">
        <ele>1554.9</ele>
        <time>2014-08-29T12:23:00Z</time>
      </trkpt>
      <trkpt lat="45.17535" lon="5.5772">
        <ele>1554</ele>
        <time>2014-08-29T12:23:02Z</time>
      </trkpt>
      <trkpt lat="45.17453" lon="5.57613">
        <ele>1516.1</ele>
        <time>2014-08-29T12:27:16Z</time>
      </trkpt>
      <trkpt lat="45.17449" lon="5.57612">
        <ele>1514.4</ele>
        <time>2014-08-29T12:27:18Z</time>
      </trkpt>
      <trkpt lat="45.17442" lon="5.57618">
        <ele>1512.5</ele>
        <time>2014-08-29T12:27:20Z</time>
      </trkpt>
      <trkpt lat="45.17396" lon="5.57769">
        <ele>1501.7</ele>
        <time>2014-08-29T12:28:20Z</time>
      </trkpt>
      <trkpt lat="45.17303" lon="5.57843">
        <ele>1478.7</ele>
        <time>2014-08-29T12:28:50Z</time>
      </trkpt>
      <trkpt lat="45.17314" lon="5.57818">
        <ele>1474.5</ele>
        <time>2014-08-29T12:29:00Z</time>
      </trkpt>
      <trkpt lat="45.17312" lon="5.57812">
        <ele>1472.4</ele>
        <time>2014-08-29T12:29:02Z</time>
      </trkpt>
      <trkpt lat="45.17309" lon="5.57813">
        <ele>1471.8</ele>
        <time>2014-08-29T12:29:03Z</time>
      </trkpt>
      <trkpt lat="45.17296" lon="5.57826">
        <ele>1473</ele>
        <time>2014-08-29T12:29:08Z</time>
      </trkpt>
      <trkpt lat="45.1728" lon="5.57832">
        <ele>1471.7</ele>
        <time>2014-08-29T12:29:17Z</time>
      </trkpt>
      <trkpt lat="45.17276" lon="5.57838">
        <ele>1472.4</ele>
        <time>2014-08-29T12:33:23Z</time>
      </trkpt>
      <trkpt lat="45.17247" lon="5.57851">
        <ele>1470.1</ele>
        <time>2014-08-29T12:33:33Z</time>
      </trkpt>
      <trkpt lat="45.17205" lon="5.5784">
        <ele>1466.4</ele>
        <time>2014-08-29T12:33:40Z</time>
      </trkpt>
      <trkpt lat="45.17172" lon="5.57844">
        <ele>1467.1</ele>
        <time>2014-08-29T12:33:46Z</time>
      </trkpt>
      <trkpt lat="45.17147" lon="5.57838">
        <ele>1466.5</ele>
        <time>2014-08-29T12:33:51Z</time>
      </trkpt>
      <trkpt lat="45.17116" lon="5.57847">
        <ele>1473</ele>
        <time>2014-08-29T12:33:59Z</time>
      </trkpt>
      <trkpt lat="45.1704" lon="5.57813">
        <ele>1469.7</ele>
        <time>2014-08-29T12:34:21Z</time>
      </trkpt>
      <trkpt lat="45.16996" lon="5.57807">
        <ele>1472.4</ele>
        <time>2014-08-29T12:34:34Z</time>
      </trkpt>
      <trkpt lat="45.1696" lon="5.57818">
        <ele>1476.7</ele>
        <time>2014-08-29T12:34:43Z</time>
      </trkpt>
      <trkpt lat="45.16863" lon="5.57803">
        <ele>1475.8</ele>
        <time>2014-08-29T12:34:59Z</time>
      </trkpt>
      <trkpt lat="45.16852" lon="5.57797">
        <ele>1475.3</ele>
        <time>2014-08-29T12:35:01Z</time>
      </trkpt>
      <trkpt lat="45.16823" lon="5.57742">
        <ele>1461.8</ele>
        <time>2014-08-29T12:35:07Z</time>
      </trkpt>
      <trkpt lat="45.16778" lon="5.57712">
        <ele>1455.7</ele>
        <time>2014-08-29T12:35:13Z</time>
      </trkpt>
      <trkpt lat="45.1669" lon="5.57683">
        <ele>1449.5</ele>
        <time>2014-08-29T12:35:25Z</time>
      </trkpt>
      <trkpt lat="45.16636" lon="5.57688">
        <ele>1449.8</ele>
        <time>2014-08-29T12:35:36Z</time>
      </trkpt>
      <trkpt lat="45.16564" lon="5.57713">
        <ele>1460.4</ele>
        <time>2014-08-29T12:35:54Z</time>
      </trkpt>
      <trkpt lat="45.16557" lon="5.5771">
        <ele>1461.3</ele>
        <time>2014-08-29T12:35:56Z</time>
      </trkpt>
      <trkpt lat="45.16532" lon="5.57674">
        <ele>1458.3</ele>
        <time>2014-08-29T12:36:17Z</time>
      </trkpt>
      <trkpt lat="45.16533" lon="5.5766">
        <ele>1454.8</ele>
        <time>2014-08-29T12:41:00Z</time>
      </trkpt>
      <trkpt lat="45.16529" lon="5.57649">
        <ele>1453.8</ele>
        <time>2014-08-29T12:41:02Z</time>
      </trkpt>
      <trkpt lat="45.16488" lon="5.57593">
        <ele>1461.2</ele>
        <time>2014-08-29T12:41:14Z</time>
      </trkpt>
      <trkpt lat="45.16483" lon="5.57591">
        <ele>1463.7</ele>
        <time>2014-08-29T12:41:20Z</time>
      </trkpt>
      <trkpt lat="45.16486" lon="5.57597">
        <ele>1463.1</ele>
        <time>2014-08-29T12:41:24Z</time>
      </trkpt>
      <trkpt lat="45.16497" lon="5.57606">
        <ele>1456.8</ele>
        <time>2014-08-29T12:41:34Z</time>
      </trkpt>
      <trkpt lat="45.16511" lon="5.57598">
        <ele>1449.8</ele>
        <time>2014-08-29T12:41:52Z</time>
      </trkpt>
      <trkpt lat="45.16549" lon="5.57599">
        <ele>1437.3</ele>
        <time>2014-08-29T12:50:30Z</time>
      </trkpt>
      <trkpt lat="45.16548" lon="5.57582">
        <ele>1434</ele>
        <time>2014-08-29T12:50:34Z</time>
      </trkpt>
      <trkpt lat="45.16541" lon="5.57571">
        <ele>1435.1</ele>
        <time>2014-08-29T12:50:38Z</time>
      </trkpt>
      <trkpt lat="45.16542" lon="5.57569">
        <ele>1434.4</ele>
        <time>2014-08-29T12:50:40Z</time>
      </trkpt>
      <trkpt lat="45.16542" lon="5.57573">
        <ele>1434.8</ele>
        <time>2014-08-29T12:50:45Z</time>
      </trkpt>
      <trkpt lat="45.16546" lon="5.57575">
        <ele>1433.7</ele>
        <time>2014-08-29T12:50:47Z</time>
      </trkpt>
      <trkpt lat="45.16556" lon="5.57575">
        <ele>1430.2</ele>
        <time>2014-08-29T12:50:50Z</time>
      </trkpt>
      <trkpt lat="45.16576" lon="5.57589">
        <ele>1425.7</ele>
        <time>2014-08-29T12:50:55Z</time>
      </trkpt>
      <trkpt lat="45.16582" lon="5.57588">
        <ele>1423.5</ele>
        <time>2014-08-29T12:50:58Z</time>
      </trkpt>
      <trkpt lat="45.16584" lon="5.57585">
        <ele>1422.4</ele>
        <time>2014-08-29T12:50:59Z</time>
      </trkpt>
      <trkpt lat="45.16581" lon="5.57551">
        <ele>1416.5</ele>
        <time>2014-08-29T12:51:08Z</time>
      </trkpt>
      <trkpt lat="45.16583" lon="5.57553">
        <ele>1416.2</ele>
        <time>2014-08-29T12:51:10Z</time>
      </trkpt>
      <trkpt lat="45.16584" lon="5.57567">
        <ele>1418.5</ele>
        <time>2014-08-29T12:51:14Z</time>
      </trkpt>
      <trkpt lat="45.16593" lon="5.57549">
        <ele>1414.1</ele>
        <time>2014-08-29T12:51:22Z</time>
      </trkpt>
      <trkpt lat="45.16592" lon="5.57535">
        <ele>1411.1</ele>
        <time>2014-08-29T12:51:24Z</time>
      </trkpt>
      <trkpt lat="45.16583" lon="5.5751">
        <ele>1407.2</ele>
        <time>2014-08-29T12:51:30Z</time>
      </trkpt>
      <trkpt lat="45.16581" lon="5.57511">
        <ele>1408.5</ele>
        <time>2014-08-29T12:51:33Z</time>
      </trkpt>
      <trkpt lat="45.16582" lon="5.57515">
        <ele>1408.7</ele>
        <time>2014-08-29T12:51:37Z</time>
      </trkpt>
      <trkpt lat="45.16585" lon="5.57267">
        <ele>1380.6</ele>
        <time>2014-08-29T12:52:21Z</time>
      </trkpt>
      <trkpt lat="45.16608" lon="5.57199">
        <ele>1363.4</ele>
        <time>2014-08-29T12:52:37Z</time>
      </trkpt>
      <trkpt lat="45.16644" lon="5.57289">
        <ele>1351.6</ele>
        <time>2014-08-29T12:53:05Z</time>
      </trkpt>
      <trkpt lat="45.16647" lon="5.5729">
        <ele>1350.3</ele>
        <time>2014-08-29T12:53:06Z</time>
      </trkpt>
      <trkpt lat="45.1665" lon="5.57288">
        <ele>1348.9</ele>
        <time>2014-08-29T12:53:08Z</time>
      </trkpt>
      <trkpt lat="45.16661" lon="5.57142">
        <ele>1327.2</ele>
        <time>2014-08-29T12:53:40Z</time>
      </trkpt>
      <trkpt lat="45.16679" lon="5.57179">
        <ele>1323.7</ele>
        <time>2014-08-29T12:53:52Z</time>
      </trkpt>
      <trkpt lat="45.16681" lon="5.57177">
        <ele>1322.4</ele>
        <time>2014-08-29T12:53:54Z</time>
      </trkpt>
      <trkpt lat="45.16718" lon="5.56893">
        <ele>1293.9</ele>
        <time>2014-08-29T12:54:38Z</time>
      </trkpt>
      <trkpt lat="45.1674" lon="5.56862">
        <ele>1285</ele>
        <time>2014-08-29T12:54:44Z</time>
      </trkpt>
      <trkpt lat="45.16743" lon="5.56865">
        <ele>1282.5</ele>
        <time>2014-08-29T12:54:47Z</time>
      </trkpt>
      <trkpt lat="45.16749" lon="5.56976">
        <ele>1268.9</ele>
        <time>2014-08-29T12:55:01Z</time>
      </trkpt>
      <trkpt lat="45.16754" lon="5.56985">
        <ele>1266.3</ele>
        <time>2014-08-29T12:55:04Z</time>
      </trkpt>
      <trkpt lat="45.1676" lon="5.56989">
        <ele>1263.3</ele>
        <time>2014-08-29T12:55:07Z</time>
      </trkpt>
      <trkpt lat="45.16763" lon="5.56987">
        <ele>1261.6</ele>
        <time>2014-08-29T12:55:09Z</time>
      </trkpt>
      <trkpt lat="45.16838" lon="5.56801">
        <ele>1232.6</ele>
        <time>2014-08-29T12:55:46Z</time>
      </trkpt>
      <trkpt lat="45.1684" lon="5.5678">
        <ele>1234.2</ele>
        <time>2014-08-29T12:55:57Z</time>
      </trkpt>
      <trkpt lat="45.16856" lon="5.56759">
        <ele>1228.8</ele>
        <time>2014-08-29T12:56:10Z</time>
      </trkpt>
      <trkpt lat="45.16861" lon="5.56735">
        <ele>1229.1</ele>
        <time>2014-08-29T12:56:25Z</time>
      </trkpt>
      <trkpt lat="45.16853" lon="5.56863">
        <ele>1221.2</ele>
        <time>2014-08-29T12:56:43Z</time>
      </trkpt>
      <trkpt lat="45.16871" lon="5.56935">
        <ele>1213.6</ele>
        <time>2014-08-29T12:56:54Z</time>
      </trkpt>
      <trkpt lat="45.16878" lon="5.56942">
        <ele>1212.3</ele>
        <time>2014-08-29T12:56:57Z</time>
      </trkpt>
      <trkpt lat="45.16923" lon="5.56922">
        <ele>1200.7</ele>
        <time>2014-08-29T12:57:08Z</time>
      </trkpt>
      <trkpt lat="45.16929" lon="5.56928">
        <ele>1204</ele>
        <time>2014-08-29T12:57:14Z</time>
      </trkpt>
      <trkpt lat="45.16928" lon="5.56916">
        <ele>1202.1</ele>
        <time>2014-08-29T12:57:17Z</time>
      </trkpt>
      <trkpt lat="45.16926" lon="5.56911">
        <ele>1201</ele>
        <time>2014-08-29T12:57:18Z</time>
      </trkpt>
      <trkpt lat="45.16931" lon="5.56902">
        <ele>1203</ele>
        <time>2014-08-29T12:57:21Z</time>
      </trkpt>
      <trkpt lat="45.16894" lon="5.56908">
        <ele>1204.5</ele>
        <time>2014-08-29T12:57:54Z</time>
      </trkpt>
      <trkpt lat="45.16894" lon="5.5691">
        <ele>1204.5</ele>
        <time>2014-08-29T13:11:31Z</time>
      </trkpt>
      <trkpt lat="45.16929" lon="5.5677">
        <ele>1201.9</ele>
        <time>2014-08-29T13:11:47Z</time>
      </trkpt>
      <trkpt lat="45.16926" lon="5.56734">
        <ele>1201.2</ele>
        <time>2014-08-29T13:11:51Z</time>
      </trkpt>
      <trkpt lat="45.16943" lon="5.56661">
        <ele>1196.1</ele>
        <time>2014-08-29T13:11:58Z</time>
      </trkpt>
      <trkpt lat="45.16959" lon="5.56629">
        <ele>1191.5</ele>
        <time>2014-08-29T13:12:01Z</time>
      </trkpt>
      <trkpt lat="45.16986" lon="5.56598">
        <ele>1175.7</ele>
        <time>2014-08-29T13:12:06Z</time>
      </trkpt>
      <trkpt lat="45.17072" lon="5.5614">
        <ele>1120.7</ele>
        <time>2014-08-29T13:12:51Z</time>
      </trkpt>
      <trkpt lat="45.17069" lon="5.56129">
        <ele>1120.5</ele>
        <time>2014-08-29T13:12:54Z</time>
      </trkpt>
      <trkpt lat="45.17062" lon="5.56128">
        <ele>1120.7</ele>
        <time>2014-08-29T13:13:03Z</time>
      </trkpt>
      <trkpt lat="45.17067" lon="5.56135">
        <ele>1120.7</ele>
        <time>2014-08-29T13:13:28Z</time>
      </trkpt>
      <trkpt lat="45.17063" lon="5.56129">
        <ele>1120.7</ele>
        <time>2014-08-29T13:13:38Z</time>
      </trkpt>
      <trkpt lat="45.17062" lon="5.56134">
        <ele>1120.9</ele>
        <time>2014-08-29T13:13:45Z</time>
      </trkpt>
      <trkpt lat="45.17072" lon="5.56131">
        <ele>1120.5</ele>
        <time>2014-08-29T13:13:59Z</time>
      </trkpt>
      <trkpt lat="45.17108" lon="5.56087">
        <ele>1117.6</ele>
        <time>2014-08-29T13:14:08Z</time>
      </trkpt>
      <trkpt lat="45.17304" lon="5.55977">
        <ele>1102.6</ele>
        <time>2014-08-29T13:14:35Z</time>
      </trkpt>
      <trkpt lat="45.17311" lon="5.55975">
        <ele>1101.9</ele>
        <time>2014-08-29T13:14:36Z</time>
      </trkpt>
      <trkpt lat="45.17319" lon="5.55977">
        <ele>1101.4</ele>
        <time>2014-08-29T13:14:37Z</time>
      </trkpt>
      <trkpt lat="45.1734" lon="5.55996">
        <ele>1101.4</ele>
        <time>2014-08-29T13:14:40Z</time>
      </trkpt>
      <trkpt lat="45.17363" lon="5.56034">
        <ele>1101.1</ele>
        <time>2014-08-29T13:14:44Z</time>
      </trkpt>
      <trkpt lat="45.17375" lon="5.56045">
        <ele>1100.8</ele>
        <time>2014-08-29T13:14:46Z</time>
      </trkpt>
      <trkpt lat="45.17386" lon="5.56043">
        <ele>1100.3</ele>
        <time>2014-08-29T13:14:48Z</time>
      </trkpt>
      <trkpt lat="45.1739" lon="5.56029">
        <ele>1099.9</ele>
        <time>2014-08-29T13:14:50Z</time>
      </trkpt>
      <trkpt lat="45.17348" lon="5.5577">
        <ele>1091.2</ele>
        <time>2014-08-29T13:15:16Z</time>
      </trkpt>
      <trkpt lat="45.17402" lon="5.55608">
        <ele>1079.1</ele>
        <time>2014-08-29T13:15:37Z</time>
      </trkpt>
      <trkpt lat="45.17499" lon="5.55479">
        <ele>1066.5</ele>
        <time>2014-08-29T13:15:50Z</time>
      </trkpt>
      <trkpt lat="45.17517" lon="5.55394">
        <ele>1065.4</ele>
        <time>2014-08-29T13:15:57Z</time>
      </trkpt>
      <trkpt lat="45.17516" lon="5.55188">
        <ele>1065.2</ele>
        <time>2014-08-29T13:16:18Z</time>
      </trkpt>
      <trkpt lat="45.17576" lon="5.5503">
        <ele>1056</ele>
        <time>2014-08-29T13:16:40Z</time>
      </trkpt>
      <trkpt lat="45.1757" lon="5.55007">
        <ele>1054.8</ele>
        <time>2014-08-29T13:16:43Z</time>
      </trkpt>
      <trkpt lat="45.17511" lon="5.54899">
        <ele>1054.3</ele>
        <time>2014-08-29T13:16:57Z</time>
      </trkpt>
      <trkpt lat="45.17506" lon="5.54857">
        <ele>1053.4</ele>
        <time>2014-08-29T13:17:01Z</time>
      </trkpt>
      <trkpt lat="45.17528" lon="5.54679">
        <ele>1048.8</ele>
        <time>2014-08-29T13:17:22Z</time>
      </trkpt>
      <trkpt lat="45.17657" lon="5.5441">
        <ele>1045.8</ele>
        <time>2014-08-29T13:17:58Z</time>
      </trkpt>
      <trkpt lat="45.17655" lon="5.54405">
        <ele>1045.9</ele>
        <time>2014-08-29T13:17:59Z</time>
      </trkpt>
      <trkpt lat="45.17615" lon="5.54365">
        <ele>1045.8</ele>
        <time>2014-08-29T13:18:17Z</time>
      </trkpt>
      <trkpt lat="45.17604" lon="5.54328">
        <ele>1046.5</ele>
        <time>2014-08-29T13:18:26Z</time>
      </trkpt>
      <trkpt lat="45.17593" lon="5.54319">
        <ele>1046.2</ele>
        <time>2014-08-29T13:18:30Z</time>
      </trkpt>
      <trkpt lat="45.17593" lon="5.54313">
        <ele>1046.2</ele>
        <time>2014-08-29T13:18:31Z</time>
      </trkpt>
      <trkpt lat="45.17602" lon="5.54282">
        <ele>1046.3</ele>
        <time>2014-08-29T13:18:37Z</time>
      </trkpt>
      <trkpt lat="45.17598" lon="5.54271">
        <ele>1046.2</ele>
        <time>2014-08-29T13:18:39Z</time>
      </trkpt>
      <trkpt lat="45.17592" lon="5.54263">
        <ele>1046.1</ele>
        <time>2014-08-29T13:18:41Z</time>
      </trkpt>
      <trkpt lat="45.17586" lon="5.54242">
        <ele>1045.8</ele>
        <time>2014-08-29T13:18:44Z</time>
      </trkpt>
      <trkpt lat="45.17588" lon="5.54224">
        <ele>1045.1</ele>
        <time>2014-08-29T13:18:47Z</time>
      </trkpt>
      <trkpt lat="45.17581" lon="5.54215">
        <ele>1044.7</ele>
        <time>2014-08-29T13:18:50Z</time>
      </trkpt>
      <trkpt lat="45.17563" lon="5.54213">
        <ele>1044.6</ele>
        <time>2014-08-29T13:18:56Z</time>
      </trkpt>
      <trkpt lat="45.17528" lon="5.54194">
        <ele>1044.4</ele>
        <time>2014-08-29T13:19:06Z</time>
      </trkpt>
      <trkpt lat="45.17509" lon="5.54194">
        <ele>1044.6</ele>
        <time>2014-08-29T13:19:11Z</time>
      </trkpt>
      <trkpt lat="45.17501" lon="5.54203">
        <ele>1044.6</ele>
        <time>2014-08-29T13:19:16Z</time>
      </trkpt>
      <trkpt lat="45.17496" lon="5.54201">
        <ele>1044.5</ele>
        <time>2014-08-29T13:19:32Z</time>
      </trkpt>
      <trkpt lat="45.17497" lon="5.54204">
        <ele>1044.5</ele>
        <time>2014-08-29T13:19:34Z</time>
      </trkpt>
      <trkpt lat="45.17501" lon="5.54198">
        <ele>1044.6</ele>
        <time>2014-08-29T13:22:26Z</time>
      </trkpt>
      <trkpt lat="45.17496" lon="5.54198">
        <ele>1044.5</ele>
        <time>2014-08-29T13:22:30Z</time>
      </trkpt>
      <trkpt lat="45.17507" lon="5.54197">
        <ele>1044.6</ele>
        <time>2014-08-29T13:58:51Z</time>
      </trkpt>
      <trkpt lat="45.17522" lon="5.54201">
        <ele>1044.5</ele>
        <time>2014-08-29T13:59:00Z</time>
      </trkpt>
      <trkpt lat="45.17534" lon="5.54199">
        <ele>1044.4</ele>
        <time>2014-08-29T13:59:07Z</time>
      </trkpt>
      <trkpt lat="45.17567" lon="5.54215">
        <ele>1044.7</ele>
        <time>2014-08-29T13:59:20Z</time>
      </trkpt>
      <trkpt lat="45.17618" lon="5.54216">
        <ele>1045.2</ele>
        <time>2014-08-29T13:59:34Z</time>
      </trkpt>
      <trkpt lat="45.17726" lon="5.54244">
        <ele>1046.9</ele>
        <time>2014-08-29T14:00:07Z</time>
      </trkpt>
      <trkpt lat="45.17848" lon="5.5396">
        <ele>1048.3</ele>
        <time>2014-08-29T14:01:03Z</time>
      </trkpt>
      <trkpt lat="45.1789" lon="5.53927">
        <ele>1047.8</ele>
        <time>2014-08-29T14:01:13Z</time>
      </trkpt>
      <trkpt lat="45.17899" lon="5.53925">
        <ele>1047.9</ele>
        <time>2014-08-29T14:01:15Z</time>
      </trkpt>
      <trkpt lat="45.17929" lon="5.53925">
        <ele>1049</ele>
        <time>2014-08-29T14:01:22Z</time>
      </trkpt>
      <trkpt lat="45.17945" lon="5.53932">
        <ele>1050.1</ele>
        <time>2014-08-29T14:01:26Z</time>
      </trkpt>
      <trkpt lat="45.1802" lon="5.53989">
        <ele>1058.2</ele>
        <time>2014-08-29T14:01:54Z</time>
      </trkpt>
      <trkpt lat="45.18029" lon="5.5399">
        <ele>1058.7</ele>
        <time>2014-08-29T14:01:57Z</time>
      </trkpt>
      <trkpt lat="45.18045" lon="5.53983">
        <ele>1059.2</ele>
        <time>2014-08-29T14:02:04Z</time>
      </trkpt>
      <trkpt lat="45.18058" lon="5.53948">
        <ele>1057.9</ele>
        <time>2014-08-29T14:02:34Z</time>
      </trkpt>
      <trkpt lat="45.18042" lon="5.53983">
        <ele>1059</ele>
        <time>2014-08-29T14:03:41Z</time>
      </trkpt>
      <trkpt lat="45.18131" lon="5.53771">
        <ele>1061.3</ele>
        <time>2014-08-29T14:04:49Z</time>
      </trkpt>
      <trkpt lat="45.1841" lon="5.53728">
        <ele>1073.7</ele>
        <time>2014-08-29T14:06:13Z</time>
      </trkpt>
      <trkpt lat="45.18475" lon="5.53628">
        <ele>1077.5</ele>
        <time>2014-08-29T14:06:51Z</time>
      </trkpt>
      <trkpt lat="45.18575" lon="5.53593">
        <ele>1091.9</ele>
        <time>2014-08-29T14:07:39Z</time>
      </trkpt>
      <trkpt lat="45.18581" lon="5.53586">
        <ele>1093.5</ele>
        <time>2014-08-29T14:07:43Z</time>
      </trkpt>
      <trkpt lat="45.18613" lon="5.5349">
        <ele>1109.8</ele>
        <time>2014-08-29T14:08:18Z</time>
      </trkpt>
      <trkpt lat="45.18621" lon="5.53485">
        <ele>1111.6</ele>
        <time>2014-08-29T14:08:23Z</time>
      </trkpt>
      <trkpt lat="45.18639" lon="5.5349">
        <ele>1114.7</ele>
        <time>2014-08-29T14:08:34Z</time>
      </trkpt>
      <trkpt lat="45.18647" lon="5.53497">
        <ele>1115.7</ele>
        <time>2014-08-29T14:08:39Z</time>
      </trkpt>
      <trkpt lat="45.18777" lon="5.53557">
        <ele>1128.2</ele>
        <time>2014-08-29T14:09:47Z</time>
      </trkpt>
      <trkpt lat="45.18794" lon="5.53558">
        <ele>1131.1</ele>
        <time>2014-08-29T14:09:56Z</time>
      </trkpt>
      <trkpt lat="45.18807" lon="5.53552">
        <ele>1134.4</ele>
        <time>2014-08-29T14:10:02Z</time>
      </trkpt>
      <trkpt lat="45.18817" lon="5.53542">
        <ele>1138.3</ele>
        <time>2014-08-29T14:10:08Z</time>
      </trkpt>
      <trkpt lat="45.18843" lon="5.53492">
        <ele>1152</ele>
        <time>2014-08-29T14:10:29Z</time>
      </trkpt>
      <trkpt lat="45.18856" lon="5.53488">
        <ele>1154.6</ele>
        <time>2014-08-29T14:10:34Z</time>
      </trkpt>
      <trkpt lat="45.18864" lon="5.5349">
        <ele>1155.5</ele>
        <time>2014-08-29T14:10:38Z</time>
      </trkpt>
      <trkpt lat="45.18871" lon="5.53499">
        <ele>1155</ele>
        <time>2014-08-29T14:10:42Z</time>
      </trkpt>
      <trkpt lat="45.18888" lon="5.53551">
        <ele>1149.4</ele>
        <time>2014-08-29T14:11:01Z</time>
      </trkpt>
      <trkpt lat="45.18895" lon="5.53559">
        <ele>1149.3</ele>
        <time>2014-08-29T14:11:06Z</time>
      </trkpt>
      <trkpt lat="45.18908" lon="5.53564">
        <ele>1151.1</ele>
        <time>2014-08-29T14:11:13Z</time>
      </trkpt>
      <trkpt lat="45.18925" lon="5.53564">
        <ele>1154.1</ele>
        <time>2014-08-29T14:11:21Z</time>
      </trkpt>
      <trkpt lat="45.18968" lon="5.53551">
        <ele>1161.8</ele>
        <time>2014-08-29T14:11:43Z</time>
      </trkpt>
      <trkpt lat="45.18992" lon="5.53536">
        <ele>1167.2</ele>
        <time>2014-08-29T14:11:56Z</time>
      </trkpt>
      <trkpt lat="45.19015" lon="5.53534">
        <ele>1172.2</ele>
        <time>2014-08-29T14:12:07Z</time>
      </trkpt>
      <trkpt lat="45.1902" lon="5.53537">
        <ele>1173.1</ele>
        <time>2014-08-29T14:12:10Z</time>
      </trkpt>
      <trkpt lat="45.19089" lon="5.53654">
        <ele>1174.5</ele>
        <time>2014-08-29T14:13:00Z</time>
      </trkpt>
      <trkpt lat="45.19095" lon="5.53658">
        <ele>1175.1</ele>
        <time>2014-08-29T14:13:04Z</time>
      </trkpt>
      <trkpt lat="45.19171" lon="5.53648">
        <ele>1189.5</ele>
        <time>2014-08-29T14:13:43Z</time>
      </trkpt>
      <trkpt lat="45.19206" lon="5.53655">
        <ele>1193.6</ele>
        <time>2014-08-29T14:14:00Z</time>
      </trkpt>
      <trkpt lat="45.19269" lon="5.53694">
        <ele>1195.9</ele>
        <time>2014-08-29T14:14:31Z</time>
      </trkpt>
      <trkpt lat="45.19342" lon="5.537">
        <ele>1207.8</ele>
        <time>2014-08-29T14:15:06Z</time>
      </trkpt>
      <trkpt lat="45.19358" lon="5.53698">
        <ele>1210.6</ele>
        <time>2014-08-29T14:15:13Z</time>
      </trkpt>
      <trkpt lat="45.19382" lon="5.53685">
        <ele>1216.4</ele>
        <time>2014-08-29T14:15:25Z</time>
      </trkpt>
      <trkpt lat="45.19399" lon="5.53686">
        <ele>1218.8</ele>
        <time>2014-08-29T14:15:33Z</time>
      </trkpt>
      <trkpt lat="45.19426" lon="5.53695">
        <ele>1220.7</ele>
        <time>2014-08-29T14:15:46Z</time>
      </trkpt>
      <trkpt lat="45.19507" lon="5.53699">
        <ele>1229.7</ele>
        <time>2014-08-29T14:16:25Z</time>
      </trkpt>
      <trkpt lat="45.19521" lon="5.53706">
        <ele>1229.7</ele>
        <time>2014-08-29T14:16:32Z</time>
      </trkpt>
      <trkpt lat="45.19538" lon="5.53708">
        <ele>1230.8</ele>
        <time>2014-08-29T14:16:40Z</time>
      </trkpt>
      <trkpt lat="45.19582" lon="5.53674">
        <ele>1237.3</ele>
        <time>2014-08-29T14:17:03Z</time>
      </trkpt>
      <trkpt lat="45.19621" lon="5.53669">
        <ele>1243.7</ele>
        <time>2014-08-29T14:17:22Z</time>
      </trkpt>
      <trkpt lat="45.19714" lon="5.53718">
        <ele>1253.7</ele>
        <time>2014-08-29T14:18:11Z</time>
      </trkpt>
      <trkpt lat="45.1974" lon="5.53741">
        <ele>1254.8</ele>
        <time>2014-08-29T14:18:25Z</time>
      </trkpt>
      <trkpt lat="45.19753" lon="5.53748">
        <ele>1255.7</ele>
        <time>2014-08-29T14:18:32Z</time>
      </trkpt>
      <trkpt lat="45.20068" lon="5.53733">
        <ele>1301</ele>
        <time>2014-08-29T14:21:18Z</time>
      </trkpt>
      <trkpt lat="45.2009" lon="5.53757">
        <ele>1302.6</ele>
        <time>2014-08-29T14:21:30Z</time>
      </trkpt>
      <trkpt lat="45.20112" lon="5.53804">
        <ele>1304.8</ele>
        <time>2014-08-29T14:21:51Z</time>
      </trkpt>
      <trkpt lat="45.2013" lon="5.53819">
        <ele>1306.3</ele>
        <time>2014-08-29T14:22:03Z</time>
      </trkpt>
      <trkpt lat="45.20148" lon="5.5382">
        <ele>1308.9</ele>
        <time>2014-08-29T14:22:13Z</time>
      </trkpt>
      <trkpt lat="45.20157" lon="5.53817">
        <ele>1310.6</ele>
        <time>2014-08-29T14:22:18Z</time>
      </trkpt>
      <trkpt lat="45.20167" lon="5.53809">
        <ele>1313.6</ele>
        <time>2014-08-29T14:22:24Z</time>
      </trkpt>
      <trkpt lat="45.20206" lon="5.53808">
        <ele>1319.6</ele>
        <time>2014-08-29T14:22:45Z</time>
      </trkpt>
      <trkpt lat="45.20205" lon="5.53806">
        <ele>1319.9</ele>
        <time>2014-08-29T14:22:47Z</time>
      </trkpt>
      <trkpt lat="45.20238" lon="5.53815">
        <ele>1322.6</ele>
        <time>2014-08-29T14:33:50Z</time>
      </trkpt>
      <trkpt lat="45.20249" lon="5.53832">
        <ele>1320.3</ele>
        <time>2014-08-29T14:33:57Z</time>
      </trkpt>
      <trkpt lat="45.20255" lon="5.53862">
        <ele>1318</ele>
        <time>2014-08-29T14:34:08Z</time>
      </trkpt>
      <trkpt lat="45.20264" lon="5.53873">
        <ele>1318.6</ele>
        <time>2014-08-29T14:34:14Z</time>
      </trkpt>
      <trkpt lat="45.2029" lon="5.53887">
        <ele>1322.9</ele>
        <time>2014-08-29T14:34:31Z</time>
      </trkpt>
      <trkpt lat="45.20317" lon="5.53889">
        <ele>1328.4</ele>
        <time>2014-08-29T14:34:46Z</time>
      </trkpt>
      <trkpt lat="45.20327" lon="5.53899">
        <ele>1329.6</ele>
        <time>2014-08-29T14:34:53Z</time>
      </trkpt>
      <trkpt lat="45.20336" lon="5.53915">
        <ele>1329.8</ele>
        <time>2014-08-29T14:35:03Z</time>
      </trkpt>
      <trkpt lat="45.2033" lon="5.5394">
        <ele>1331.7</ele>
        <time>2014-08-29T14:36:00Z</time>
      </trkpt>
      <trkpt lat="45.20282" lon="5.54026">
        <ele>1336.8</ele>
        <time>2014-08-29T14:36:34Z</time>
      </trkpt>
      <trkpt lat="45.20269" lon="5.5404">
        <ele>1337.8</ele>
        <time>2014-08-29T14:36:41Z</time>
      </trkpt>
      <trkpt lat="45.20089" lon="5.5408">
        <ele>1344.9</ele>
        <time>2014-08-29T14:37:29Z</time>
      </trkpt>
      <trkpt lat="45.20078" lon="5.54077">
        <ele>1344.2</ele>
        <time>2014-08-29T14:37:31Z</time>
      </trkpt>
      <trkpt lat="45.20035" lon="5.54041">
        <ele>1334.9</ele>
        <time>2014-08-29T14:37:41Z</time>
      </trkpt>
      <trkpt lat="45.20016" lon="5.5404">
        <ele>1335</ele>
        <time>2014-08-29T14:37:45Z</time>
      </trkpt>
      <trkpt lat="45.19852" lon="5.54141">
        <ele>1335.9</ele>
        <time>2014-08-29T14:38:21Z</time>
      </trkpt>
      <trkpt lat="45.19831" lon="5.54161">
        <ele>1334.1</ele>
        <time>2014-08-29T14:38:26Z</time>
      </trkpt>
      <trkpt lat="45.19779" lon="5.54257">
        <ele>1328.3</ele>
        <time>2014-08-29T14:38:42Z</time>
      </trkpt>
      <trkpt lat="45.198" lon="5.54385">
        <ele>1338.9</ele>
        <time>2014-08-29T14:38:59Z</time>
      </trkpt>
      <trkpt lat="45.19798" lon="5.54399">
        <ele>1338.7</ele>
        <time>2014-08-29T14:39:01Z</time>
      </trkpt>
      <trkpt lat="45.19775" lon="5.54441">
        <ele>1334.9</ele>
        <time>2014-08-29T14:39:09Z</time>
      </trkpt>
      <trkpt lat="45.19762" lon="5.54448">
        <ele>1331.6</ele>
        <time>2014-08-29T14:41:34Z</time>
      </trkpt>
      <trkpt lat="45.1976" lon="5.54445">
        <ele>1330.8</ele>
        <time>2014-08-29T14:41:36Z</time>
      </trkpt>
      <trkpt lat="45.19762" lon="5.54428">
        <ele>1330</ele>
        <time>2014-08-29T14:41:41Z</time>
      </trkpt>
      <trkpt lat="45.19744" lon="5.54389">
        <ele>1323.9</ele>
        <time>2014-08-29T14:41:55Z</time>
      </trkpt>
      <trkpt lat="45.19726" lon="5.5438">
        <ele>1319.2</ele>
        <time>2014-08-29T14:42:16Z</time>
      </trkpt>
      <trkpt lat="45.19725" lon="5.54377">
        <ele>1318.7</ele>
        <time>2014-08-29T14:42:18Z</time>
      </trkpt>
      <trkpt lat="45.19717" lon="5.54376">
        <ele>1316.7</ele>
        <time>2014-08-29T14:42:29Z</time>
      </trkpt>
      <trkpt lat="45.19705" lon="5.54379">
        <ele>1314.1</ele>
        <time>2014-08-29T14:42:32Z</time>
      </trkpt>
      <trkpt lat="45.19695" lon="5.54379">
        <ele>1311.5</ele>
        <time>2014-08-29T14:42:35Z</time>
      </trkpt>
      <trkpt lat="45.19685" lon="5.54371">
        <ele>1308</ele>
        <time>2014-08-29T14:42:40Z</time>
      </trkpt>
      <trkpt lat="45.1967" lon="5.54367">
        <ele>1303.7</ele>
        <time>2014-08-29T14:42:54Z</time>
      </trkpt>
      <trkpt lat="45.19664" lon="5.54362">
        <ele>1301.3</ele>
        <time>2014-08-29T14:43:00Z</time>
      </trkpt>
      <trkpt lat="45.19654" lon="5.54365">
        <ele>1299.1</ele>
        <time>2014-08-29T14:43:06Z</time>
      </trkpt>
      <trkpt lat="45.19637" lon="5.54345">
        <ele>1291.4</ele>
        <time>2014-08-29T14:43:18Z</time>
      </trkpt>
      <trkpt lat="45.19605" lon="5.54341">
        <ele>1281.9</ele>
        <time>2014-08-29T14:43:27Z</time>
      </trkpt>
      <trkpt lat="45.19565" lon="5.5432">
        <ele>1269.7</ele>
        <time>2014-08-29T14:43:41Z</time>
      </trkpt>
      <trkpt lat="45.19488" lon="5.54322">
        <ele>1249.4</ele>
        <time>2014-08-29T14:44:02Z</time>
      </trkpt>
      <trkpt lat="45.1948" lon="5.54317">
        <ele>1247.1</ele>
        <time>2014-08-29T14:44:06Z</time>
      </trkpt>
      <trkpt lat="45.19482" lon="5.54322">
        <ele>1247.9</ele>
        <time>2014-08-29T14:47:10Z</time>
      </trkpt>
      <trkpt lat="45.1947" lon="5.54324">
        <ele>1245</ele>
        <time>2014-08-29T14:47:17Z</time>
      </trkpt>
      <trkpt lat="45.19427" lon="5.54301">
        <ele>1233.4</ele>
        <time>2014-08-29T14:47:26Z</time>
      </trkpt>
      <trkpt lat="45.19386" lon="5.54292">
        <ele>1224.1</ele>
        <time>2014-08-29T14:49:24Z</time>
      </trkpt>
      <trkpt lat="45.1938" lon="5.54286">
        <ele>1222.7</ele>
        <time>2014-08-29T14:49:27Z</time>
      </trkpt>
      <trkpt lat="45.19377" lon="5.54289">
        <ele>1222.1</ele>
        <time>2014-08-29T14:49:29Z</time>
      </trkpt>
      <trkpt lat="45.19306" lon="5.54299">
        <ele>1205.3</ele>
        <time>2014-08-29T14:49:42Z</time>
      </trkpt>
      <trkpt lat="45.19295" lon="5.54295">
        <ele>1202.1</ele>
        <time>2014-08-29T14:49:44Z</time>
      </trkpt>
      <trkpt lat="45.19277" lon="5.54294">
        <ele>1197</ele>
        <time>2014-08-29T14:49:47Z</time>
      </trkpt>
      <trkpt lat="45.19252" lon="5.5428">
        <ele>1188.6</ele>
        <time>2014-08-29T14:49:53Z</time>
      </trkpt>
      <trkpt lat="45.19241" lon="5.54263">
        <ele>1185.3</ele>
        <time>2014-08-29T14:49:58Z</time>
      </trkpt>
      <trkpt lat="45.1923" lon="5.54256">
        <ele>1182.4</ele>
        <time>2014-08-29T14:50:01Z</time>
      </trkpt>
      <trkpt lat="45.19223" lon="5.54257">
        <ele>1181.1</ele>
        <time>2014-08-29T14:50:04Z</time>
      </trkpt>
      <trkpt lat="45.19212" lon="5.54249">
        <ele>1177.9</ele>
        <time>2014-08-29T14:50:09Z</time>
      </trkpt>
      <trkpt lat="45.19202" lon="5.54235">
        <ele>1176.1</ele>
        <time>2014-08-29T14:50:13Z</time>
      </trkpt>
      <trkpt lat="45.19185" lon="5.54229">
        <ele>1172</ele>
        <time>2014-08-29T14:50:17Z</time>
      </trkpt>
      <trkpt lat="45.19148" lon="5.54184">
        <ele>1164.4</ele>
        <time>2014-08-29T14:52:24Z</time>
      </trkpt>
      <trkpt lat="45.19112" lon="5.54107">
        <ele>1158.4</ele>
        <time>2014-08-29T14:52:42Z</time>
      </trkpt>
      <trkpt lat="45.19111" lon="5.54026">
        <ele>1159.5</ele>
        <time>2014-08-29T14:52:54Z</time>
      </trkpt>
      <trkpt lat="45.19068" lon="5.5391">
        <ele>1151.8</ele>
        <time>2014-08-29T14:53:25Z</time>
      </trkpt>
      <trkpt lat="45.19068" lon="5.53893">
        <ele>1151.2</ele>
        <time>2014-08-29T14:53:32Z</time>
      </trkpt>
      <trkpt lat="45.19059" lon="5.53892">
        <ele>1149</ele>
        <time>2014-08-29T14:53:35Z</time>
      </trkpt>
      <trkpt lat="45.19053" lon="5.53886">
        <ele>1147.4</ele>
        <time>2014-08-29T14:53:38Z</time>
      </trkpt>
      <trkpt lat="45.19051" lon="5.53876">
        <ele>1146.7</ele>
        <time>2014-08-29T14:53:59Z</time>
      </trkpt>
      <trkpt lat="45.19053" lon="5.53871">
        <ele>1147</ele>
        <time>2014-08-29T14:54:00Z</time>
      </trkpt>
      <trkpt lat="45.19061" lon="5.53862">
        <ele>1148.6</ele>
        <time>2014-08-29T14:54:03Z</time>
      </trkpt>
      <trkpt lat="45.19066" lon="5.53852">
        <ele>1149.2</ele>
        <time>2014-08-29T14:54:05Z</time>
      </trkpt>
      <trkpt lat="45.19072" lon="5.53845">
        <ele>1150.4</ele>
        <time>2014-08-29T14:54:08Z</time>
      </trkpt>
      <trkpt lat="45.19077" lon="5.5383">
        <ele>1150.9</ele>
        <time>2014-08-29T14:54:11Z</time>
      </trkpt>
      <trkpt lat="45.19085" lon="5.53824">
        <ele>1152.6</ele>
        <time>2014-08-29T14:54:16Z</time>
      </trkpt>
      <trkpt lat="45.1909" lon="5.53802">
        <ele>1154.2</ele>
        <time>2014-08-29T14:54:21Z</time>
      </trkpt>
      <trkpt lat="45.19095" lon="5.53796">
        <ele>1155.2</ele>
        <time>2014-08-29T14:54:24Z</time>
      </trkpt>
      <trkpt lat="45.19086" lon="5.53786">
        <ele>1153.6</ele>
        <time>2014-08-29T14:54:27Z</time>
      </trkpt>
      <trkpt lat="45.19064" lon="5.53777">
        <ele>1150.6</ele>
        <time>2014-08-29T14:54:32Z</time>
      </trkpt>
      <trkpt lat="45.1905" lon="5.53783">
        <ele>1148.3</ele>
        <time>2014-08-29T14:54:36Z</time>
      </trkpt>
      <trkpt lat="45.19044" lon="5.53788">
        <ele>1147.1</ele>
        <time>2014-08-29T14:54:37Z</time>
      </trkpt>
      <trkpt lat="45.1904" lon="5.53785">
        <ele>1146.6</ele>
        <time>2014-08-29T14:54:38Z</time>
      </trkpt>
      <trkpt lat="45.19018" lon="5.53784">
        <ele>1143.5</ele>
        <time>2014-08-29T14:54:43Z</time>
      </trkpt>
      <trkpt lat="45.18993" lon="5.53774">
        <ele>1140.7</ele>
        <time>2014-08-29T14:54:50Z</time>
      </trkpt>
      <trkpt lat="45.18978" lon="5.53748">
        <ele>1140.9</ele>
        <time>2014-08-29T14:54:58Z</time>
      </trkpt>
      <trkpt lat="45.1897" lon="5.53742">
        <ele>1140.3</ele>
        <time>2014-08-29T14:55:00Z</time>
      </trkpt>
      <trkpt lat="45.18936" lon="5.53659">
        <ele>1143.1</ele>
        <time>2014-08-29T14:56:29Z</time>
      </trkpt>
      <trkpt lat="45.18915" lon="5.53643">
        <ele>1141.1</ele>
        <time>2014-08-29T14:56:34Z</time>
      </trkpt>
      <trkpt lat="45.18877" lon="5.53632">
        <ele>1135</ele>
        <time>2014-08-29T14:56:42Z</time>
      </trkpt>
      <trkpt lat="45.1879" lon="5.53565">
        <ele>1128.7</ele>
        <time>2014-08-29T14:56:56Z</time>
      </trkpt>
      <trkpt lat="45.18789" lon="5.53557">
        <ele>1130.3</ele>
        <time>2014-08-29T14:56:59Z</time>
      </trkpt>
      <trkpt lat="45.18791" lon="5.53556">
        <ele>1130.9</ele>
        <time>2014-08-29T14:57:01Z</time>
      </trkpt>
      <trkpt lat="45.18624" lon="5.53457">
        <ele>1113.8</ele>
        <time>2014-08-29T14:57:34Z</time>
      </trkpt>
      <trkpt lat="45.18621" lon="5.53452">
        <ele>1113.4</ele>
        <time>2014-08-29T14:57:35Z</time>
      </trkpt>
      <trkpt lat="45.1862" lon="5.53432">
        <ele>1114.4</ele>
        <time>2014-08-29T14:58:08Z</time>
      </trkpt>
      <trkpt lat="45.18608" lon="5.53415">
        <ele>1112</ele>
        <time>2014-08-29T14:58:14Z</time>
      </trkpt>
      <trkpt lat="45.18587" lon="5.53401">
        <ele>1107.1</ele>
        <time>2014-08-29T14:58:21Z</time>
      </trkpt>
      <trkpt lat="45.18553" lon="5.53396">
        <ele>1100</ele>
        <time>2014-08-29T14:58:32Z</time>
      </trkpt>
      <trkpt lat="45.18545" lon="5.53401">
        <ele>1098</ele>
        <time>2014-08-29T14:58:35Z</time>
      </trkpt>
      <trkpt lat="45.18538" lon="5.534">
        <ele>1096.7</ele>
        <time>2014-08-29T14:58:36Z</time>
      </trkpt>
      <trkpt lat="45.18491" lon="5.53416">
        <ele>1085.9</ele>
        <time>2014-08-29T14:58:46Z</time>
      </trkpt>
      <trkpt lat="45.18448" lon="5.53455">
        <ele>1081.4</ele>
        <time>2014-08-29T14:58:56Z</time>
      </trkpt>
      <trkpt lat="45.18422" lon="5.5357">
        <ele>1077.6</ele>
        <time>2014-08-29T15:02:13Z</time>
      </trkpt>
      <trkpt lat="45.18383" lon="5.53626">
        <ele>1070.6</ele>
        <time>2014-08-29T15:02:21Z</time>
      </trkpt>
      <trkpt lat="45.18378" lon="5.53643">
        <ele>1069.5</ele>
        <time>2014-08-29T15:02:23Z</time>
      </trkpt>
      <trkpt lat="45.18379" lon="5.5366">
        <ele>1069</ele>
        <time>2014-08-29T15:02:25Z</time>
      </trkpt>
      <trkpt lat="45.18386" lon="5.5368">
        <ele>1069.9</ele>
        <time>2014-08-29T15:02:28Z</time>
      </trkpt>
      <trkpt lat="45.18409" lon="5.53708">
        <ele>1072.9</ele>
        <time>2014-08-29T15:02:35Z</time>
      </trkpt>
      <trkpt lat="45.18412" lon="5.53716">
        <ele>1073.4</ele>
        <time>2014-08-29T15:02:37Z</time>
      </trkpt>
      <trkpt lat="45.1841" lon="5.53724">
        <ele>1073.6</ele>
        <time>2014-08-29T15:02:39Z</time>
      </trkpt>
      <trkpt lat="45.18404" lon="5.53729">
        <ele>1073.3</ele>
        <time>2014-08-29T15:02:41Z</time>
      </trkpt>
      <trkpt lat="45.18137" lon="5.53764">
        <ele>1061.4</ele>
        <time>2014-08-29T15:03:29Z</time>
      </trkpt>
      <trkpt lat="45.18125" lon="5.53775">
        <ele>1061</ele>
        <time>2014-08-29T15:03:31Z</time>
      </trkpt>
      <trkpt lat="45.18046" lon="5.53974">
        <ele>1058.7</ele>
        <time>2014-08-29T15:03:56Z</time>
      </trkpt>
      <trkpt lat="45.18038" lon="5.53984">
        <ele>1058.8</ele>
        <time>2014-08-29T15:03:58Z</time>
      </trkpt>
      <trkpt lat="45.1802" lon="5.53987">
        <ele>1058.1</ele>
        <time>2014-08-29T15:04:01Z</time>
      </trkpt>
      <trkpt lat="45.1793" lon="5.53923">
        <ele>1048.9</ele>
        <time>2014-08-29T15:04:13Z</time>
      </trkpt>
      <trkpt lat="45.17911" lon="5.53919">
        <ele>1048</ele>
        <time>2014-08-29T15:04:15Z</time>
      </trkpt>
      <trkpt lat="45.17894" lon="5.53921">
        <ele>1047.6</ele>
        <time>2014-08-29T15:04:17Z</time>
      </trkpt>
      <trkpt lat="45.17863" lon="5.5394">
        <ele>1047.7</ele>
        <time>2014-08-29T15:04:21Z</time>
      </trkpt>
      <trkpt lat="45.17815" lon="5.54003">
        <ele>1049.3</ele>
        <time>2014-08-29T15:04:31Z</time>
      </trkpt>
      <trkpt lat="45.17727" lon="5.54235">
        <ele>1046.9</ele>
        <time>2014-08-29T15:05:03Z</time>
      </trkpt>
      <trkpt lat="45.17713" lon="5.54242">
        <ele>1046.9</ele>
        <time>2014-08-29T15:05:06Z</time>
      </trkpt>
      <trkpt lat="45.17506" lon="5.54194">
        <ele>1044.6</ele>
        <time>2014-08-29T15:05:45Z</time>
      </trkpt>
      <trkpt lat="45.17501" lon="5.54197">
        <ele>1044.6</ele>
        <time>2014-08-29T15:05:53Z</time>
      </trkpt>
      <trkpt lat="45.17514" lon="5.54197">
        <ele>1044.5</ele>
        <time>2014-08-29T15:07:05Z</time>
      </trkpt>
      <trkpt lat="45.1752" lon="5.54192">
        <ele>1044.5</ele>
        <time>2014-08-29T15:07:07Z</time>
      </trkpt>
      <trkpt lat="45.17587" lon="5.5398">
        <ele>1039</ele>
        <time>2014-08-29T15:07:38Z</time>
      </trkpt>
      <trkpt lat="45.17649" lon="5.53985">
        <ele>1039.1</ele>
        <time>2014-08-29T15:07:51Z</time>
      </trkpt>
      <trkpt lat="45.17657" lon="5.53983">
        <ele>1039</ele>
        <time>2014-08-29T15:07:54Z</time>
      </trkpt>
      <trkpt lat="45.17665" lon="5.53992">
        <ele>1039</ele>
        <time>2014-08-29T15:23:31Z</time>
      </trkpt>
      <trkpt lat="45.17655" lon="5.54006">
        <ele>1039.3</ele>
        <time>2014-08-29T15:23:35Z</time>
      </trkpt>
      <trkpt lat="45.17639" lon="5.54005">
        <ele>1039.5</ele>
        <time>2014-08-29T15:23:38Z</time>
      </trkpt>
      <trkpt lat="45.17421" lon="5.53864">
        <ele>1032.6</ele>
        <time>2014-08-29T15:24:08Z</time>
      </trkpt>
      <trkpt lat="45.17413" lon="5.53869">
        <ele>1032.8</ele>
        <time>2014-08-29T15:24:10Z</time>
      </trkpt>
      <trkpt lat="45.17373" lon="5.5403">
        <ele>1036.3</ele>
        <time>2014-08-29T15:24:26Z</time>
      </trkpt>
      <trkpt lat="45.17357" lon="5.54032">
        <ele>1035.6</ele>
        <time>2014-08-29T15:24:29Z</time>
      </trkpt>
      <trkpt lat="45.16776" lon="5.53522">
        <ele>1025.6</ele>
        <time>2014-08-29T15:25:34Z</time>
      </trkpt>
      <trkpt lat="45.15014" lon="5.52567">
        <ele>996.4</ele>
        <time>2014-08-29T15:27:05Z</time>
      </trkpt>
      <trkpt lat="45.13986" lon="5.52639">
        <ele>995.2</ele>
        <time>2014-08-29T15:28:11Z</time>
      </trkpt>
      <trkpt lat="45.13958" lon="5.52634">
        <ele>993.6</ele>
        <time>2014-08-29T15:28:14Z</time>
      </trkpt>
      <trkpt lat="45.13128" lon="5.52859">
        <ele>975.4</ele>
        <time>2014-08-29T15:29:01Z</time>
      </trkpt>
      <trkpt lat="45.13115" lon="5.52854">
        <ele>975.7</ele>
        <time>2014-08-29T15:29:03Z</time>
      </trkpt>
      <trkpt lat="45.13107" lon="5.52842">
        <ele>976.1</ele>
        <time>2014-08-29T15:29:05Z</time>
      </trkpt>
      <trkpt lat="45.13098" lon="5.52798">
        <ele>976.6</ele>
        <time>2014-08-29T15:29:12Z</time>
      </trkpt>
      <trkpt lat="45.13095" lon="5.52795">
        <ele>976.7</ele>
        <time>2014-08-29T15:29:13Z</time>
      </trkpt>
      <trkpt lat="45.13063" lon="5.52806">
        <ele>977.8</ele>
        <time>2014-08-29T15:29:18Z</time>
      </trkpt>
      <trkpt lat="45.12797" lon="5.52769">
        <ele>990.2</ele>
        <time>2014-08-29T15:29:47Z</time>
      </trkpt>
      <trkpt lat="45.12727" lon="5.52718">
        <ele>991.7</ele>
        <time>2014-08-29T15:29:58Z</time>
      </trkpt>
      <trkpt lat="45.12714" lon="5.52716">
        <ele>992.3</ele>
        <time>2014-08-29T15:30:00Z</time>
      </trkpt>
      <trkpt lat="45.12642" lon="5.5279">
        <ele>991.7</ele>
        <time>2014-08-29T15:30:11Z</time>
      </trkpt>
      <trkpt lat="45.12633" lon="5.52794">
        <ele>991.7</ele>
        <time>2014-08-29T15:30:12Z</time>
      </trkpt>
      <trkpt lat="45.12595" lon="5.52825">
        <ele>989.8</ele>
        <time>2014-08-29T15:30:17Z</time>
      </trkpt>
      <trkpt lat="45.12535" lon="5.52921">
        <ele>982.9</ele>
        <time>2014-08-29T15:30:25Z</time>
      </trkpt>
      <trkpt lat="45.12481" lon="5.52975">
        <ele>979.5</ele>
        <time>2014-08-29T15:30:30Z</time>
      </trkpt>
      <trkpt lat="45.12469" lon="5.52981">
        <ele>979.7</ele>
        <time>2014-08-29T15:30:31Z</time>
      </trkpt>
      <trkpt lat="45.11591" lon="5.53189">
        <ele>964.9</ele>
        <time>2014-08-29T15:31:22Z</time>
      </trkpt>
      <trkpt lat="45.10873" lon="5.5293">
        <ele>976.6</ele>
        <time>2014-08-29T15:32:05Z</time>
      </trkpt>
      <trkpt lat="45.10853" lon="5.52933">
        <ele>979.4</ele>
        <time>2014-08-29T15:32:07Z</time>
      </trkpt>
      <trkpt lat="45.10844" lon="5.5294">
        <ele>981.6</ele>
        <time>2014-08-29T15:32:08Z</time>
      </trkpt>
      <trkpt lat="45.1083" lon="5.52966">
        <ele>986</ele>
        <time>2014-08-29T15:32:10Z</time>
      </trkpt>
      <trkpt lat="45.1081" lon="5.52984">
        <ele>988.6</ele>
        <time>2014-08-29T15:32:12Z</time>
      </trkpt>
      <trkpt lat="45.10797" lon="5.5299">
        <ele>989.6</ele>
        <time>2014-08-29T15:32:13Z</time>
      </trkpt>
      <trkpt lat="45.1077" lon="5.5299">
        <ele>990.2</ele>
        <time>2014-08-29T15:32:15Z</time>
      </trkpt>
      <trkpt lat="45.10635" lon="5.52927">
        <ele>978.7</ele>
        <time>2014-08-29T15:32:24Z</time>
      </trkpt>
      <trkpt lat="45.10611" lon="5.52934">
        <ele>977.8</ele>
        <time>2014-08-29T15:32:26Z</time>
      </trkpt>
      <trkpt lat="45.10559" lon="5.53">
        <ele>984.8</ele>
        <time>2014-08-29T15:32:31Z</time>
      </trkpt>
      <trkpt lat="45.10532" lon="5.53011">
        <ele>992.1</ele>
        <time>2014-08-29T15:32:33Z</time>
      </trkpt>
      <trkpt lat="45.10506" lon="5.53002">
        <ele>993.5</ele>
        <time>2014-08-29T15:32:35Z</time>
      </trkpt>
      <trkpt lat="45.10495" lon="5.52995">
        <ele>995.4</ele>
        <time>2014-08-29T15:32:36Z</time>
      </trkpt>
      <trkpt lat="45.10477" lon="5.5297">
        <ele>1000.4</ele>
        <time>2014-08-29T15:32:38Z</time>
      </trkpt>
      <trkpt lat="45.10473" lon="5.5289">
        <ele>993.8</ele>
        <time>2014-08-29T15:32:42Z</time>
      </trkpt>
      <trkpt lat="45.10532" lon="5.52711">
        <ele>979.2</ele>
        <time>2014-08-29T15:32:54Z</time>
      </trkpt>
      <trkpt lat="45.10529" lon="5.52703">
        <ele>979.2</ele>
        <time>2014-08-29T15:32:55Z</time>
      </trkpt>
      <trkpt lat="45.10523" lon="5.52698">
        <ele>978.8</ele>
        <time>2014-08-29T15:32:56Z</time>
      </trkpt>
      <trkpt lat="45.10441" lon="5.52672">
        <ele>979.5</ele>
        <time>2014-08-29T15:33:03Z</time>
      </trkpt>
      <trkpt lat="45.10248" lon="5.52695">
        <ele>983.8</ele>
        <time>2014-08-29T15:33:17Z</time>
      </trkpt>
      <trkpt lat="45.10234" lon="5.52708">
        <ele>984.4</ele>
        <time>2014-08-29T15:33:19Z</time>
      </trkpt>
      <trkpt lat="45.10203" lon="5.5277">
        <ele>988.6</ele>
        <time>2014-08-29T15:33:23Z</time>
      </trkpt>
      <trkpt lat="45.10181" lon="5.52791">
        <ele>991.5</ele>
        <time>2014-08-29T15:33:25Z</time>
      </trkpt>
      <trkpt lat="45.10157" lon="5.52802">
        <ele>993.1</ele>
        <time>2014-08-29T15:33:27Z</time>
      </trkpt>
      <trkpt lat="45.10136" lon="5.52802">
        <ele>994.7</ele>
        <time>2014-08-29T15:33:29Z</time>
      </trkpt>
      <trkpt lat="45.10124" lon="5.52797">
        <ele>994.3</ele>
        <time>2014-08-29T15:33:30Z</time>
      </trkpt>
      <trkpt lat="45.10109" lon="5.52784">
        <ele>991.8</ele>
        <time>2014-08-29T15:33:32Z</time>
      </trkpt>
      <trkpt lat="45.09985" lon="5.52562">
        <ele>963.6</ele>
        <time>2014-08-29T15:33:44Z</time>
      </trkpt>
      <trkpt lat="45.09933" lon="5.52529">
        <ele>961.5</ele>
        <time>2014-08-29T15:33:48Z</time>
      </trkpt>
      <trkpt lat="45.09912" lon="5.52526">
        <ele>960.9</ele>
        <time>2014-08-29T15:33:50Z</time>
      </trkpt>
      <trkpt lat="45.09888" lon="5.52546">
        <ele>962.3</ele>
        <time>2014-08-29T15:33:53Z</time>
      </trkpt>
      <trkpt lat="45.09836" lon="5.52705">
        <ele>971.6</ele>
        <time>2014-08-29T15:34:02Z</time>
      </trkpt>
      <trkpt lat="45.09793" lon="5.52745">
        <ele>985.5</ele>
        <time>2014-08-29T15:34:06Z</time>
      </trkpt>
      <trkpt lat="45.09782" lon="5.52749">
        <ele>987</ele>
        <time>2014-08-29T15:34:07Z</time>
      </trkpt>
      <trkpt lat="45.09758" lon="5.52739">
        <ele>982.9</ele>
        <time>2014-08-29T15:34:09Z</time>
      </trkpt>
      <trkpt lat="45.09694" lon="5.52626">
        <ele>955.9</ele>
        <time>2014-08-29T15:34:17Z</time>
      </trkpt>
      <trkpt lat="45.09671" lon="5.52612">
        <ele>954</ele>
        <time>2014-08-29T15:34:19Z</time>
      </trkpt>
      <trkpt lat="45.09656" lon="5.52611">
        <ele>953.1</ele>
        <time>2014-08-29T15:34:20Z</time>
      </trkpt>
      <trkpt lat="45.09572" lon="5.52669">
        <ele>957.2</ele>
        <time>2014-08-29T15:34:27Z</time>
      </trkpt>
      <trkpt lat="45.09499" lon="5.52642">
        <ele>951.1</ele>
        <time>2014-08-29T15:34:32Z</time>
      </trkpt>
      <trkpt lat="45.09458" lon="5.52612">
        <ele>946.9</ele>
        <time>2014-08-29T15:34:36Z</time>
      </trkpt>
      <trkpt lat="45.09437" lon="5.52618">
        <ele>947.6</ele>
        <time>2014-08-29T15:34:38Z</time>
      </trkpt>
      <trkpt lat="45.09343" lon="5.52716">
        <ele>953.1</ele>
        <time>2014-08-29T15:34:46Z</time>
      </trkpt>
      <trkpt lat="45.09329" lon="5.52725">
        <ele>954.4</ele>
        <time>2014-08-29T15:34:47Z</time>
      </trkpt>
      <trkpt lat="45.09287" lon="5.52737">
        <ele>962.2</ele>
        <time>2014-08-29T15:34:50Z</time>
      </trkpt>
      <trkpt lat="45.09259" lon="5.52734">
        <ele>964.3</ele>
        <time>2014-08-29T15:34:52Z</time>
      </trkpt>
      <trkpt lat="45.09236" lon="5.52715">
        <ele>966.1</ele>
        <time>2014-08-29T15:34:54Z</time>
      </trkpt>
      <trkpt lat="45.09158" lon="5.52451">
        <ele>949.6</ele>
        <time>2014-08-29T15:35:08Z</time>
      </trkpt>
      <trkpt lat="45.09139" lon="5.52431">
        <ele>949.4</ele>
        <time>2014-08-29T15:35:10Z</time>
      </trkpt>
      <trkpt lat="45.09115" lon="5.52424">
        <ele>947.4</ele>
        <time>2014-08-29T15:35:12Z</time>
      </trkpt>
      <trkpt lat="45.09092" lon="5.5243">
        <ele>945.4</ele>
        <time>2014-08-29T15:35:14Z</time>
      </trkpt>
      <trkpt lat="45.08988" lon="5.52529">
        <ele>943</ele>
        <time>2014-08-29T15:35:22Z</time>
      </trkpt>
      <trkpt lat="45.0896" lon="5.5254">
        <ele>951.9</ele>
        <time>2014-08-29T15:35:24Z</time>
      </trkpt>
      <trkpt lat="45.08932" lon="5.52537">
        <ele>957.4</ele>
        <time>2014-08-29T15:35:26Z</time>
      </trkpt>
      <trkpt lat="45.0889" lon="5.5251">
        <ele>960.6</ele>
        <time>2014-08-29T15:35:29Z</time>
      </trkpt>
      <trkpt lat="45.08821" lon="5.52421">
        <ele>944.8</ele>
        <time>2014-08-29T15:35:35Z</time>
      </trkpt>
      <trkpt lat="45.08808" lon="5.52412">
        <ele>943.1</ele>
        <time>2014-08-29T15:35:36Z</time>
      </trkpt>
      <trkpt lat="45.08764" lon="5.52399">
        <ele>943.9</ele>
        <time>2014-08-29T15:35:39Z</time>
      </trkpt>
      <trkpt lat="45.08605" lon="5.52425">
        <ele>935.3</ele>
        <time>2014-08-29T15:35:51Z</time>
      </trkpt>
      <trkpt lat="45.08587" lon="5.52422">
        <ele>933.5</ele>
        <time>2014-08-29T15:35:56Z</time>
      </trkpt>
      <trkpt lat="45.08572" lon="5.52427">
        <ele>933.2</ele>
        <time>2014-08-29T15:36:05Z</time>
      </trkpt>
      <trkpt lat="45.08396" lon="5.53088">
        <ele>961</ele>
        <time>2014-08-29T15:36:43Z</time>
      </trkpt>
      <trkpt lat="45.08214" lon="5.53258">
        <ele>949.4</ele>
        <time>2014-08-29T15:36:54Z</time>
      </trkpt>
      <trkpt lat="45.07954" lon="5.53426">
        <ele>951.6</ele>
        <time>2014-08-29T15:37:08Z</time>
      </trkpt>
      <trkpt lat="45.07775" lon="5.53686">
        <ele>964.3</ele>
        <time>2014-08-29T15:37:23Z</time>
      </trkpt>
      <trkpt lat="45.07647" lon="5.53701">
        <ele>959.3</ele>
        <time>2014-08-29T15:37:31Z</time>
      </trkpt>
      <trkpt lat="45.07637" lon="5.53707">
        <ele>960.3</ele>
        <time>2014-08-29T15:37:32Z</time>
      </trkpt>
      <trkpt lat="45.0759" lon="5.53821">
        <ele>952.1</ele>
        <time>2014-08-29T15:37:39Z</time>
      </trkpt>
      <trkpt lat="45.07319" lon="5.54044">
        <ele>957.1</ele>
        <time>2014-08-29T15:38:01Z</time>
      </trkpt>
      <trkpt lat="45.07322" lon="5.54068">
        <ele>957.3</ele>
        <time>2014-08-29T15:38:04Z</time>
      </trkpt>
      <trkpt lat="45.07338" lon="5.54079">
        <ele>954.7</ele>
        <time>2014-08-29T15:38:07Z</time>
      </trkpt>
      <trkpt lat="45.07374" lon="5.54089">
        <ele>962.7</ele>
        <time>2014-08-29T15:38:10Z</time>
      </trkpt>
      <trkpt lat="45.07384" lon="5.54097">
        <ele>964.7</ele>
        <time>2014-08-29T15:38:11Z</time>
      </trkpt>
      <trkpt lat="45.07397" lon="5.54123">
        <ele>966.3</ele>
        <time>2014-08-29T15:38:13Z</time>
      </trkpt>
      <trkpt lat="45.07399" lon="5.54139">
        <ele>965.9</ele>
        <time>2014-08-29T15:38:14Z</time>
      </trkpt>
      <trkpt lat="45.07357" lon="5.5431">
        <ele>971.9</ele>
        <time>2014-08-29T15:38:23Z</time>
      </trkpt>
      <trkpt lat="45.0731" lon="5.54376">
        <ele>977.2</ele>
        <time>2014-08-29T15:38:29Z</time>
      </trkpt>
      <trkpt lat="45.07299" lon="5.54437">
        <ele>984.9</ele>
        <time>2014-08-29T15:38:34Z</time>
      </trkpt>
      <trkpt lat="45.07385" lon="5.54623">
        <ele>970.4</ele>
        <time>2014-08-29T15:38:50Z</time>
      </trkpt>
      <trkpt lat="45.07375" lon="5.54659">
        <ele>964.9</ele>
        <time>2014-08-29T15:38:54Z</time>
      </trkpt>
      <trkpt lat="45.07355" lon="5.54676">
        <ele>963.8</ele>
        <time>2014-08-29T15:38:57Z</time>
      </trkpt>
      <trkpt lat="45.06933" lon="5.5453">
        <ele>990</ele>
        <time>2014-08-29T15:39:23Z</time>
      </trkpt>
      <trkpt lat="45.06865" lon="5.5453">
        <ele>994.7</ele>
        <time>2014-08-29T15:39:27Z</time>
      </trkpt>
      <trkpt lat="45.0664" lon="5.54634">
        <ele>979.1</ele>
        <time>2014-08-29T15:39:48Z</time>
      </trkpt>
      <trkpt lat="45.06603" lon="5.54642">
        <ele>979.5</ele>
        <time>2014-08-29T15:39:51Z</time>
      </trkpt>
      <trkpt lat="45.06397" lon="5.546">
        <ele>986.8</ele>
        <time>2014-08-29T15:40:05Z</time>
      </trkpt>
      <trkpt lat="45.06343" lon="5.54609">
        <ele>988.5</ele>
        <time>2014-08-29T15:40:09Z</time>
      </trkpt>
      <trkpt lat="45.06215" lon="5.54692">
        <ele>988.7</ele>
        <time>2014-08-29T15:40:19Z</time>
      </trkpt>
      <trkpt lat="45.06172" lon="5.54692">
        <ele>989.4</ele>
        <time>2014-08-29T15:40:22Z</time>
      </trkpt>
      <trkpt lat="45.05942" lon="5.54546">
        <ele>1000</ele>
        <time>2014-08-29T15:40:38Z</time>
      </trkpt>
      <trkpt lat="45.05354" lon="5.54507">
        <ele>1013.6</ele>
        <time>2014-08-29T15:41:13Z</time>
      </trkpt>
      <trkpt lat="45.05126" lon="5.54398">
        <ele>1022.7</ele>
        <time>2014-08-29T15:41:27Z</time>
      </trkpt>
      <trkpt lat="45.05054" lon="5.54339">
        <ele>1027.3</ele>
        <time>2014-08-29T15:41:32Z</time>
      </trkpt>
      <trkpt lat="45.05012" lon="5.54319">
        <ele>1027.3</ele>
        <time>2014-08-29T15:41:35Z</time>
      </trkpt>
      <trkpt lat="45.04622" lon="5.54322">
        <ele>1044.7</ele>
        <time>2014-08-29T15:41:58Z</time>
      </trkpt>
      <trkpt lat="45.0459" lon="5.54303">
        <ele>1046.8</ele>
        <time>2014-08-29T15:42:00Z</time>
      </trkpt>
      <trkpt lat="45.04194" lon="5.53823">
        <ele>1076.6</ele>
        <time>2014-08-29T15:42:34Z</time>
      </trkpt>
      <trkpt lat="45.03423" lon="5.53309">
        <ele>1094.8</ele>
        <time>2014-08-29T15:43:35Z</time>
      </trkpt>
      <trkpt lat="45.03392" lon="5.53277">
        <ele>1097.6</ele>
        <time>2014-08-29T15:43:39Z</time>
      </trkpt>
      <trkpt lat="45.03365" lon="5.5323">
        <ele>1097.7</ele>
        <time>2014-08-29T15:43:44Z</time>
      </trkpt>
      <trkpt lat="45.03339" lon="5.53153">
        <ele>1095.3</ele>
        <time>2014-08-29T15:43:58Z</time>
      </trkpt>
      <trkpt lat="45.03307" lon="5.52788">
        <ele>1099.8</ele>
        <time>2014-08-29T15:44:21Z</time>
      </trkpt>
      <trkpt lat="45.03303" lon="5.52779">
        <ele>1100</ele>
        <time>2014-08-29T15:44:22Z</time>
      </trkpt>
      <trkpt lat="45.03284" lon="5.52755">
        <ele>1100.8</ele>
        <time>2014-08-29T15:44:26Z</time>
      </trkpt>
      <trkpt lat="45.03268" lon="5.52747">
        <ele>1101.3</ele>
        <time>2014-08-29T15:44:28Z</time>
      </trkpt>
      <trkpt lat="45.03209" lon="5.52738">
        <ele>1103.7</ele>
        <time>2014-08-29T15:44:36Z</time>
      </trkpt>
      <trkpt lat="45.03028" lon="5.52599">
        <ele>1107.3</ele>
        <time>2014-08-29T15:44:59Z</time>
      </trkpt>
      <trkpt lat="45.02971" lon="5.52513">
        <ele>1108.3</ele>
        <time>2014-08-29T15:45:13Z</time>
      </trkpt>
      <trkpt lat="45.0297" lon="5.52507">
        <ele>1108.4</ele>
        <time>2014-08-29T15:45:15Z</time>
      </trkpt>
      <trkpt lat="45.02979" lon="5.52499">
        <ele>1108.1</ele>
        <time>2014-08-29T15:45:19Z</time>
      </trkpt>
      <trkpt lat="45.02987" lon="5.52499">
        <ele>1107.6</ele>
        <time>2014-08-29T15:45:21Z</time>
      </trkpt>
      <trkpt lat="45.03029" lon="5.52514">
        <ele>1106.8</ele>
        <time>2014-08-29T15:45:29Z</time>
      </trkpt>
      <trkpt lat="45.03039" lon="5.52512">
        <ele>1106.7</ele>
        <time>2014-08-29T15:45:32Z</time>
      </trkpt>
      <trkpt lat="45.03042" lon="5.52507">
        <ele>1106.6</ele>
        <time>2014-08-29T15:45:33Z</time>
      </trkpt>
      <trkpt lat="45.03045" lon="5.52477">
        <ele>1106.1</ele>
        <time>2014-08-29T15:45:41Z</time>
      </trkpt>
      <trkpt lat="45.03051" lon="5.52477">
        <ele>1105.9</ele>
        <time>2014-08-29T15:46:32Z</time>
      </trkpt>
      <trkpt lat="45.03048" lon="5.52478">
        <ele>1106</ele>
        <time>2014-08-29T15:46:36Z</time>
      </trkpt>
    </trkseg>
  </trk>
  <trk>
    <name><![CDATA[Belvédères en Vercors drômois - 23695 - UtagawaVTT.com]]></name>
    <trkseg>
      <trkpt lat="45.04994" lon="5.44886">
        <ele>913</ele>
        <time>2019-10-30T09:19:04Z</time>
      </trkpt>
      <trkpt lat="45.05015" lon="5.44895">
        <ele>913.7</ele>
        <time>2019-10-30T09:19:13Z</time>
      </trkpt>
      <trkpt lat="45.05036" lon="5.44914">
        <ele>914.8</ele>
        <time>2019-10-30T09:19:21Z</time>
      </trkpt>
      <trkpt lat="45.05075" lon="5.44939">
        <ele>914.9</ele>
        <time>2019-10-30T09:19:33Z</time>
      </trkpt>
      <trkpt lat="45.05106" lon="5.44951">
        <ele>914.7</ele>
        <time>2019-10-30T09:19:41Z</time>
      </trkpt>
      <trkpt lat="45.05139" lon="5.44954">
        <ele>914.8</ele>
        <time>2019-10-30T09:19:49Z</time>
      </trkpt>
      <trkpt lat="45.05168" lon="5.44939">
        <ele>914.6</ele>
        <time>2019-10-30T09:19:55Z</time>
      </trkpt>
      <trkpt lat="45.05223" lon="5.44929">
        <ele>916.8</ele>
        <time>2019-10-30T09:20:07Z</time>
      </trkpt>
      <trkpt lat="45.0528" lon="5.44912">
        <ele>915.7</ele>
        <time>2019-10-30T09:20:18Z</time>
      </trkpt>
      <trkpt lat="45.05308" lon="5.44913">
        <ele>913.7</ele>
        <time>2019-10-30T09:20:29Z</time>
      </trkpt>
      <trkpt lat="45.05417" lon="5.44943">
        <ele>908.2</ele>
        <time>2019-10-30T09:20:45Z</time>
      </trkpt>
      <trkpt lat="45.0543" lon="5.44943">
        <ele>908.4</ele>
        <time>2019-10-30T09:20:47Z</time>
      </trkpt>
      <trkpt lat="45.05448" lon="5.44935">
        <ele>907.9</ele>
        <time>2019-10-30T09:20:50Z</time>
      </trkpt>
      <trkpt lat="45.05497" lon="5.44927">
        <ele>907.9</ele>
        <time>2019-10-30T09:20:59Z</time>
      </trkpt>
      <trkpt lat="45.05553" lon="5.44933">
        <ele>908</ele>
        <time>2019-10-30T09:21:09Z</time>
      </trkpt>
      <trkpt lat="45.05607" lon="5.44957">
        <ele>906.5</ele>
        <time>2019-10-30T09:21:17Z</time>
      </trkpt>
      <trkpt lat="45.05664" lon="5.44987">
        <ele>902.7</ele>
        <time>2019-10-30T09:21:24Z</time>
      </trkpt>
      <trkpt lat="45.057" lon="5.45012">
        <ele>900.5</ele>
        <time>2019-10-30T09:21:28Z</time>
      </trkpt>
      <trkpt lat="45.05743" lon="5.45021">
        <ele>898.8</ele>
        <time>2019-10-30T09:21:33Z</time>
      </trkpt>
      <trkpt lat="45.05777" lon="5.45042">
        <ele>900.3</ele>
        <time>2019-10-30T09:21:39Z</time>
      </trkpt>
      <trkpt lat="45.05784" lon="5.45053">
        <ele>901.3</ele>
        <time>2019-10-30T09:21:41Z</time>
      </trkpt>
      <trkpt lat="45.05815" lon="5.45135">
        <ele>911.3</ele>
        <time>2019-10-30T09:21:53Z</time>
      </trkpt>
      <trkpt lat="45.05829" lon="5.4516">
        <ele>915.1</ele>
        <time>2019-10-30T09:21:58Z</time>
      </trkpt>
      <trkpt lat="45.05844" lon="5.45164">
        <ele>916.3</ele>
        <time>2019-10-30T09:22:02Z</time>
      </trkpt>
      <trkpt lat="45.05878" lon="5.45131">
        <ele>916.1</ele>
        <time>2019-10-30T09:22:14Z</time>
      </trkpt>
      <trkpt lat="45.05884" lon="5.45128">
        <ele>916.5</ele>
        <time>2019-10-30T09:22:16Z</time>
      </trkpt>
      <trkpt lat="45.0591" lon="5.45132">
        <ele>919</ele>
        <time>2019-10-30T09:22:26Z</time>
      </trkpt>
      <trkpt lat="45.05932" lon="5.4509">
        <ele>919.4</ele>
        <time>2019-10-30T09:22:37Z</time>
      </trkpt>
      <trkpt lat="45.05947" lon="5.45068">
        <ele>918.7</ele>
        <time>2019-10-30T09:26:14Z</time>
      </trkpt>
      <trkpt lat="45.05969" lon="5.45021">
        <ele>917.1</ele>
        <time>2019-10-30T09:26:25Z</time>
      </trkpt>
      <trkpt lat="45.05976" lon="5.44993">
        <ele>916.2</ele>
        <time>2019-10-30T09:26:29Z</time>
      </trkpt>
      <trkpt lat="45.05978" lon="5.44961">
        <ele>913.9</ele>
        <time>2019-10-30T09:26:34Z</time>
      </trkpt>
      <trkpt lat="45.05999" lon="5.44939">
        <ele>913.8</ele>
        <time>2019-10-30T09:26:43Z</time>
      </trkpt>
      <trkpt lat="45.06054" lon="5.44958">
        <ele>919</ele>
        <time>2019-10-30T09:27:35Z</time>
      </trkpt>
      <trkpt lat="45.06075" lon="5.44961">
        <ele>920.6</ele>
        <time>2019-10-30T09:27:40Z</time>
      </trkpt>
      <trkpt lat="45.06089" lon="5.44984">
        <ele>922.4</ele>
        <time>2019-10-30T09:27:52Z</time>
      </trkpt>
      <trkpt lat="45.06078" lon="5.44962">
        <ele>921</ele>
        <time>2019-10-30T09:28:05Z</time>
      </trkpt>
      <trkpt lat="45.0608" lon="5.44926">
        <ele>918.4</ele>
        <time>2019-10-30T09:28:11Z</time>
      </trkpt>
      <trkpt lat="45.06087" lon="5.44905">
        <ele>917.4</ele>
        <time>2019-10-30T09:28:15Z</time>
      </trkpt>
      <trkpt lat="45.06093" lon="5.44898">
        <ele>917</ele>
        <time>2019-10-30T09:28:17Z</time>
      </trkpt>
      <trkpt lat="45.06124" lon="5.44882">
        <ele>916.7</ele>
        <time>2019-10-30T09:28:24Z</time>
      </trkpt>
      <trkpt lat="45.06152" lon="5.44844">
        <ele>916.5</ele>
        <time>2019-10-30T09:28:34Z</time>
      </trkpt>
      <trkpt lat="45.06159" lon="5.44823">
        <ele>916.9</ele>
        <time>2019-10-30T09:28:38Z</time>
      </trkpt>
      <trkpt lat="45.06164" lon="5.44782">
        <ele>918.1</ele>
        <time>2019-10-30T09:28:45Z</time>
      </trkpt>
      <trkpt lat="45.06155" lon="5.44748">
        <ele>918.8</ele>
        <time>2019-10-30T09:28:55Z</time>
      </trkpt>
      <trkpt lat="45.06154" lon="5.44725">
        <ele>921.1</ele>
        <time>2019-10-30T09:29:00Z</time>
      </trkpt>
      <trkpt lat="45.06158" lon="5.447">
        <ele>923.6</ele>
        <time>2019-10-30T09:29:05Z</time>
      </trkpt>
      <trkpt lat="45.06158" lon="5.44669">
        <ele>926.7</ele>
        <time>2019-10-30T09:29:12Z</time>
      </trkpt>
      <trkpt lat="45.06165" lon="5.44645">
        <ele>927</ele>
        <time>2019-10-30T09:29:17Z</time>
      </trkpt>
      <trkpt lat="45.06168" lon="5.44592">
        <ele>926.9</ele>
        <time>2019-10-30T09:29:24Z</time>
      </trkpt>
      <trkpt lat="45.06184" lon="5.44549">
        <ele>925.6</ele>
        <time>2019-10-30T09:29:30Z</time>
      </trkpt>
      <trkpt lat="45.06186" lon="5.4453">
        <ele>925.6</ele>
        <time>2019-10-30T09:29:33Z</time>
      </trkpt>
      <trkpt lat="45.06203" lon="5.44467">
        <ele>926.3</ele>
        <time>2019-10-30T09:29:42Z</time>
      </trkpt>
      <trkpt lat="45.06206" lon="5.44437">
        <ele>927.2</ele>
        <time>2019-10-30T09:29:47Z</time>
      </trkpt>
      <trkpt lat="45.06202" lon="5.444">
        <ele>928.4</ele>
        <time>2019-10-30T09:29:54Z</time>
      </trkpt>
      <trkpt lat="45.06192" lon="5.44382">
        <ele>928.7</ele>
        <time>2019-10-30T09:29:58Z</time>
      </trkpt>
      <trkpt lat="45.0618" lon="5.44373">
        <ele>928.5</ele>
        <time>2019-10-30T09:30:01Z</time>
      </trkpt>
      <trkpt lat="45.06173" lon="5.44365">
        <ele>928.7</ele>
        <time>2019-10-30T09:30:03Z</time>
      </trkpt>
      <trkpt lat="45.06165" lon="5.44338">
        <ele>930.4</ele>
        <time>2019-10-30T09:30:08Z</time>
      </trkpt>
      <trkpt lat="45.06165" lon="5.44307">
        <ele>930.1</ele>
        <time>2019-10-30T09:30:13Z</time>
      </trkpt>
      <trkpt lat="45.06173" lon="5.44295">
        <ele>930.2</ele>
        <time>2019-10-30T09:30:16Z</time>
      </trkpt>
      <trkpt lat="45.06203" lon="5.44274">
        <ele>930.3</ele>
        <time>2019-10-30T09:30:23Z</time>
      </trkpt>
      <trkpt lat="45.06212" lon="5.4426">
        <ele>929.9</ele>
        <time>2019-10-30T09:30:26Z</time>
      </trkpt>
      <trkpt lat="45.06223" lon="5.44203">
        <ele>929.1</ele>
        <time>2019-10-30T09:30:34Z</time>
      </trkpt>
      <trkpt lat="45.06235" lon="5.44173">
        <ele>929.3</ele>
        <time>2019-10-30T09:30:39Z</time>
      </trkpt>
      <trkpt lat="45.06238" lon="5.44126">
        <ele>930</ele>
        <time>2019-10-30T09:30:46Z</time>
      </trkpt>
      <trkpt lat="45.06235" lon="5.44104">
        <ele>930.2</ele>
        <time>2019-10-30T09:30:50Z</time>
      </trkpt>
      <trkpt lat="45.06222" lon="5.4406">
        <ele>929.6</ele>
        <time>2019-10-30T09:30:58Z</time>
      </trkpt>
      <trkpt lat="45.06207" lon="5.44031">
        <ele>928.8</ele>
        <time>2019-10-30T09:31:03Z</time>
      </trkpt>
      <trkpt lat="45.06205" lon="5.44018">
        <ele>928.7</ele>
        <time>2019-10-30T09:31:05Z</time>
      </trkpt>
      <trkpt lat="45.06205" lon="5.43982">
        <ele>927.2</ele>
        <time>2019-10-30T09:31:11Z</time>
      </trkpt>
      <trkpt lat="45.06214" lon="5.43957">
        <ele>924.5</ele>
        <time>2019-10-30T09:31:19Z</time>
      </trkpt>
      <trkpt lat="45.06217" lon="5.43941">
        <ele>922.5</ele>
        <time>2019-10-30T09:31:25Z</time>
      </trkpt>
      <trkpt lat="45.06211" lon="5.43941">
        <ele>923.5</ele>
        <time>2019-10-30T09:31:47Z</time>
      </trkpt>
      <trkpt lat="45.06198" lon="5.43925">
        <ele>924.6</ele>
        <time>2019-10-30T09:31:53Z</time>
      </trkpt>
      <trkpt lat="45.06182" lon="5.43917">
        <ele>927.8</ele>
        <time>2019-10-30T09:31:59Z</time>
      </trkpt>
      <trkpt lat="45.06169" lon="5.43906">
        <ele>929.6</ele>
        <time>2019-10-30T09:32:02Z</time>
      </trkpt>
      <trkpt lat="45.0616" lon="5.43903">
        <ele>928.3</ele>
        <time>2019-10-30T09:32:04Z</time>
      </trkpt>
      <trkpt lat="45.06145" lon="5.43904">
        <ele>924.9</ele>
        <time>2019-10-30T09:32:08Z</time>
      </trkpt>
      <trkpt lat="45.0614" lon="5.43925">
        <ele>925</ele>
        <time>2019-10-30T09:32:12Z</time>
      </trkpt>
      <trkpt lat="45.06126" lon="5.43952">
        <ele>922.3</ele>
        <time>2019-10-30T09:32:18Z</time>
      </trkpt>
      <trkpt lat="45.0612" lon="5.43983">
        <ele>922</ele>
        <time>2019-10-30T09:32:23Z</time>
      </trkpt>
      <trkpt lat="45.06124" lon="5.44009">
        <ele>922.9</ele>
        <time>2019-10-30T09:32:29Z</time>
      </trkpt>
      <trkpt lat="45.06121" lon="5.44018">
        <ele>922.5</ele>
        <time>2019-10-30T09:32:31Z</time>
      </trkpt>
      <trkpt lat="45.06112" lon="5.44026">
        <ele>921.4</ele>
        <time>2019-10-30T09:32:34Z</time>
      </trkpt>
      <trkpt lat="45.06083" lon="5.4404">
        <ele>917.7</ele>
        <time>2019-10-30T09:32:40Z</time>
      </trkpt>
      <trkpt lat="45.06065" lon="5.44063">
        <ele>912.7</ele>
        <time>2019-10-30T09:32:45Z</time>
      </trkpt>
      <trkpt lat="45.06036" lon="5.44086">
        <ele>908.5</ele>
        <time>2019-10-30T09:32:53Z</time>
      </trkpt>
      <trkpt lat="45.06019" lon="5.44108">
        <ele>906</ele>
        <time>2019-10-30T09:33:00Z</time>
      </trkpt>
      <trkpt lat="45.06008" lon="5.44149">
        <ele>906.1</ele>
        <time>2019-10-30T09:33:09Z</time>
      </trkpt>
      <trkpt lat="45.06002" lon="5.44159">
        <ele>905.9</ele>
        <time>2019-10-30T09:33:11Z</time>
      </trkpt>
      <trkpt lat="45.05992" lon="5.44191">
        <ele>905.2</ele>
        <time>2019-10-30T09:33:16Z</time>
      </trkpt>
      <trkpt lat="45.05982" lon="5.44211">
        <ele>904.2</ele>
        <time>2019-10-30T09:33:19Z</time>
      </trkpt>
      <trkpt lat="45.05969" lon="5.44227">
        <ele>903</ele>
        <time>2019-10-30T09:33:22Z</time>
      </trkpt>
      <trkpt lat="45.05959" lon="5.44234">
        <ele>902</ele>
        <time>2019-10-30T09:33:24Z</time>
      </trkpt>
      <trkpt lat="45.05942" lon="5.44255">
        <ele>901</ele>
        <time>2019-10-30T09:33:28Z</time>
      </trkpt>
      <trkpt lat="45.05904" lon="5.44285">
        <ele>899.2</ele>
        <time>2019-10-30T09:33:35Z</time>
      </trkpt>
      <trkpt lat="45.05879" lon="5.44316">
        <ele>899.6</ele>
        <time>2019-10-30T09:33:39Z</time>
      </trkpt>
      <trkpt lat="45.0584" lon="5.44395">
        <ele>899.1</ele>
        <time>2019-10-30T09:33:53Z</time>
      </trkpt>
      <trkpt lat="45.05809" lon="5.44434">
        <ele>900.6</ele>
        <time>2019-10-30T09:34:00Z</time>
      </trkpt>
      <trkpt lat="45.05785" lon="5.44451">
        <ele>902.2</ele>
        <time>2019-10-30T09:34:06Z</time>
      </trkpt>
      <trkpt lat="45.0576" lon="5.44461">
        <ele>903.6</ele>
        <time>2019-10-30T09:34:12Z</time>
      </trkpt>
      <trkpt lat="45.05712" lon="5.4447">
        <ele>904.3</ele>
        <time>2019-10-30T09:34:23Z</time>
      </trkpt>
      <trkpt lat="45.05688" lon="5.44494">
        <ele>904.8</ele>
        <time>2019-10-30T09:34:30Z</time>
      </trkpt>
      <trkpt lat="45.05668" lon="5.44523">
        <ele>905.8</ele>
        <time>2019-10-30T09:34:38Z</time>
      </trkpt>
      <trkpt lat="45.05659" lon="5.44526">
        <ele>906.5</ele>
        <time>2019-10-30T09:34:41Z</time>
      </trkpt>
      <trkpt lat="45.05642" lon="5.44544">
        <ele>908.1</ele>
        <time>2019-10-30T09:34:45Z</time>
      </trkpt>
      <trkpt lat="45.05592" lon="5.44577">
        <ele>910.7</ele>
        <time>2019-10-30T09:34:55Z</time>
      </trkpt>
      <trkpt lat="45.0557" lon="5.44597">
        <ele>910.1</ele>
        <time>2019-10-30T09:35:01Z</time>
      </trkpt>
      <trkpt lat="45.05554" lon="5.44606">
        <ele>909.6</ele>
        <time>2019-10-30T09:35:05Z</time>
      </trkpt>
      <trkpt lat="45.0555" lon="5.44611">
        <ele>909.3</ele>
        <time>2019-10-30T09:35:06Z</time>
      </trkpt>
      <trkpt lat="45.05529" lon="5.44623">
        <ele>908.9</ele>
        <time>2019-10-30T09:35:11Z</time>
      </trkpt>
      <trkpt lat="45.05499" lon="5.44634">
        <ele>908.8</ele>
        <time>2019-10-30T09:35:19Z</time>
      </trkpt>
      <trkpt lat="45.0548" lon="5.44626">
        <ele>908.2</ele>
        <time>2019-10-30T09:35:25Z</time>
      </trkpt>
      <trkpt lat="45.05463" lon="5.44602">
        <ele>908.2</ele>
        <time>2019-10-30T09:35:29Z</time>
      </trkpt>
      <trkpt lat="45.05423" lon="5.44588">
        <ele>907.1</ele>
        <time>2019-10-30T09:35:36Z</time>
      </trkpt>
      <trkpt lat="45.05407" lon="5.44577">
        <ele>906.9</ele>
        <time>2019-10-30T09:35:39Z</time>
      </trkpt>
      <trkpt lat="45.0539" lon="5.44554">
        <ele>906.8</ele>
        <time>2019-10-30T09:35:44Z</time>
      </trkpt>
      <trkpt lat="45.0537" lon="5.44547">
        <ele>906.4</ele>
        <time>2019-10-30T09:35:48Z</time>
      </trkpt>
      <trkpt lat="45.05345" lon="5.44526">
        <ele>905.6</ele>
        <time>2019-10-30T09:35:53Z</time>
      </trkpt>
      <trkpt lat="45.05322" lon="5.44513">
        <ele>904.8</ele>
        <time>2019-10-30T09:35:57Z</time>
      </trkpt>
      <trkpt lat="45.05294" lon="5.44502">
        <ele>903.6</ele>
        <time>2019-10-30T09:36:02Z</time>
      </trkpt>
      <trkpt lat="45.05259" lon="5.44474">
        <ele>902.2</ele>
        <time>2019-10-30T09:36:10Z</time>
      </trkpt>
      <trkpt lat="45.05238" lon="5.44468">
        <ele>901.7</ele>
        <time>2019-10-30T09:36:15Z</time>
      </trkpt>
      <trkpt lat="45.05228" lon="5.44472">
        <ele>901.4</ele>
        <time>2019-10-30T09:36:18Z</time>
      </trkpt>
      <trkpt lat="45.05218" lon="5.44484">
        <ele>901.2</ele>
        <time>2019-10-30T09:36:22Z</time>
      </trkpt>
      <trkpt lat="45.05208" lon="5.44503">
        <ele>901</ele>
        <time>2019-10-30T09:36:26Z</time>
      </trkpt>
      <trkpt lat="45.05195" lon="5.44517">
        <ele>901</ele>
        <time>2019-10-30T09:36:30Z</time>
      </trkpt>
      <trkpt lat="45.05175" lon="5.44523">
        <ele>900.5</ele>
        <time>2019-10-30T09:36:34Z</time>
      </trkpt>
      <trkpt lat="45.05115" lon="5.44557">
        <ele>899.3</ele>
        <time>2019-10-30T09:36:47Z</time>
      </trkpt>
      <trkpt lat="45.05095" lon="5.44576">
        <ele>899.1</ele>
        <time>2019-10-30T09:36:52Z</time>
      </trkpt>
      <trkpt lat="45.05086" lon="5.44594">
        <ele>899.3</ele>
        <time>2019-10-30T09:36:56Z</time>
      </trkpt>
      <trkpt lat="45.05074" lon="5.44635">
        <ele>900.3</ele>
        <time>2019-10-30T09:37:03Z</time>
      </trkpt>
      <trkpt lat="45.05068" lon="5.44638">
        <ele>900.3</ele>
        <time>2019-10-30T09:37:05Z</time>
      </trkpt>
      <trkpt lat="45.05017" lon="5.446">
        <ele>900.5</ele>
        <time>2019-10-30T09:37:19Z</time>
      </trkpt>
      <trkpt lat="45.05013" lon="5.44588">
        <ele>900.7</ele>
        <time>2019-10-30T09:37:21Z</time>
      </trkpt>
      <trkpt lat="45.05011" lon="5.44558">
        <ele>899.9</ele>
        <time>2019-10-30T09:37:25Z</time>
      </trkpt>
      <trkpt lat="45.05013" lon="5.44523">
        <ele>898.6</ele>
        <time>2019-10-30T09:37:31Z</time>
      </trkpt>
      <trkpt lat="45.05018" lon="5.44501">
        <ele>897.8</ele>
        <time>2019-10-30T09:37:34Z</time>
      </trkpt>
      <trkpt lat="45.05021" lon="5.44455">
        <ele>897.6</ele>
        <time>2019-10-30T09:37:38Z</time>
      </trkpt>
      <trkpt lat="45.05036" lon="5.44401">
        <ele>898</ele>
        <time>2019-10-30T09:37:43Z</time>
      </trkpt>
      <trkpt lat="45.05058" lon="5.44333">
        <ele>900.9</ele>
        <time>2019-10-30T09:37:51Z</time>
      </trkpt>
      <trkpt lat="45.05066" lon="5.44303">
        <ele>900.1</ele>
        <time>2019-10-30T09:37:55Z</time>
      </trkpt>
      <trkpt lat="45.0508" lon="5.44277">
        <ele>899.4</ele>
        <time>2019-10-30T09:38:00Z</time>
      </trkpt>
      <trkpt lat="45.0509" lon="5.44267">
        <ele>898.7</ele>
        <time>2019-10-30T09:38:03Z</time>
      </trkpt>
      <trkpt lat="45.05115" lon="5.44259">
        <ele>896.6</ele>
        <time>2019-10-30T09:38:08Z</time>
      </trkpt>
      <trkpt lat="45.05133" lon="5.4425">
        <ele>894.8</ele>
        <time>2019-10-30T09:38:11Z</time>
      </trkpt>
      <trkpt lat="45.05147" lon="5.44236">
        <ele>892.9</ele>
        <time>2019-10-30T09:38:13Z</time>
      </trkpt>
      <trkpt lat="45.05186" lon="5.44175">
        <ele>890.5</ele>
        <time>2019-10-30T09:38:20Z</time>
      </trkpt>
      <trkpt lat="45.05191" lon="5.44161">
        <ele>890.2</ele>
        <time>2019-10-30T09:38:22Z</time>
      </trkpt>
      <trkpt lat="45.05191" lon="5.44156">
        <ele>890</ele>
        <time>2019-10-30T09:38:23Z</time>
      </trkpt>
      <trkpt lat="45.05171" lon="5.44123">
        <ele>889</ele>
        <time>2019-10-30T09:38:29Z</time>
      </trkpt>
      <trkpt lat="45.05168" lon="5.44104">
        <ele>888.5</ele>
        <time>2019-10-30T09:38:31Z</time>
      </trkpt>
      <trkpt lat="45.05167" lon="5.44069">
        <ele>887.5</ele>
        <time>2019-10-30T09:38:34Z</time>
      </trkpt>
      <trkpt lat="45.05174" lon="5.44025">
        <ele>885.8</ele>
        <time>2019-10-30T09:38:38Z</time>
      </trkpt>
      <trkpt lat="45.05172" lon="5.43995">
        <ele>885</ele>
        <time>2019-10-30T09:38:41Z</time>
      </trkpt>
      <trkpt lat="45.05163" lon="5.43966">
        <ele>885.7</ele>
        <time>2019-10-30T09:38:44Z</time>
      </trkpt>
      <trkpt lat="45.05154" lon="5.43954">
        <ele>885.8</ele>
        <time>2019-10-30T09:38:46Z</time>
      </trkpt>
      <trkpt lat="45.05121" lon="5.43947">
        <ele>885.3</ele>
        <time>2019-10-30T09:38:51Z</time>
      </trkpt>
      <trkpt lat="45.05053" lon="5.4392">
        <ele>886.2</ele>
        <time>2019-10-30T09:39:02Z</time>
      </trkpt>
      <trkpt lat="45.05026" lon="5.43899">
        <ele>886.9</ele>
        <time>2019-10-30T09:39:07Z</time>
      </trkpt>
      <trkpt lat="45.05015" lon="5.43882">
        <ele>887</ele>
        <time>2019-10-30T09:39:10Z</time>
      </trkpt>
      <trkpt lat="45.05003" lon="5.43843">
        <ele>887.1</ele>
        <time>2019-10-30T09:39:15Z</time>
      </trkpt>
      <trkpt lat="45.04999" lon="5.4381">
        <ele>887.2</ele>
        <time>2019-10-30T09:39:19Z</time>
      </trkpt>
      <trkpt lat="45.04986" lon="5.43765">
        <ele>887.1</ele>
        <time>2019-10-30T09:39:25Z</time>
      </trkpt>
      <trkpt lat="45.04979" lon="5.43754">
        <ele>886.9</ele>
        <time>2019-10-30T09:39:27Z</time>
      </trkpt>
      <trkpt lat="45.04954" lon="5.43746">
        <ele>886</ele>
        <time>2019-10-30T09:39:32Z</time>
      </trkpt>
      <trkpt lat="45.04936" lon="5.43735">
        <ele>885.9</ele>
        <time>2019-10-30T09:39:36Z</time>
      </trkpt>
      <trkpt lat="45.04914" lon="5.43732">
        <ele>885.4</ele>
        <time>2019-10-30T09:39:40Z</time>
      </trkpt>
      <trkpt lat="45.04896" lon="5.43734">
        <ele>885.9</ele>
        <time>2019-10-30T09:39:44Z</time>
      </trkpt>
      <trkpt lat="45.0486" lon="5.43712">
        <ele>888.5</ele>
        <time>2019-10-30T09:39:52Z</time>
      </trkpt>
      <trkpt lat="45.04819" lon="5.43715">
        <ele>889.7</ele>
        <time>2019-10-30T09:40:01Z</time>
      </trkpt>
      <trkpt lat="45.0481" lon="5.43712">
        <ele>890.3</ele>
        <time>2019-10-30T09:40:03Z</time>
      </trkpt>
      <trkpt lat="45.04797" lon="5.43697">
        <ele>891.6</ele>
        <time>2019-10-30T09:40:06Z</time>
      </trkpt>
      <trkpt lat="45.04792" lon="5.43686">
        <ele>892.4</ele>
        <time>2019-10-30T09:40:08Z</time>
      </trkpt>
      <trkpt lat="45.0479" lon="5.43668">
        <ele>893.5</ele>
        <time>2019-10-30T09:40:11Z</time>
      </trkpt>
      <trkpt lat="45.04791" lon="5.43648">
        <ele>894.8</ele>
        <time>2019-10-30T09:40:14Z</time>
      </trkpt>
      <trkpt lat="45.04799" lon="5.43621">
        <ele>896.7</ele>
        <time>2019-10-30T09:40:19Z</time>
      </trkpt>
      <trkpt lat="45.04805" lon="5.43608">
        <ele>897.7</ele>
        <time>2019-10-30T09:40:22Z</time>
      </trkpt>
      <trkpt lat="45.04808" lon="5.43594">
        <ele>898.9</ele>
        <time>2019-10-30T09:40:24Z</time>
      </trkpt>
      <trkpt lat="45.04831" lon="5.43558">
        <ele>902.4</ele>
        <time>2019-10-30T09:40:35Z</time>
      </trkpt>
      <trkpt lat="45.04833" lon="5.43549">
        <ele>903.3</ele>
        <time>2019-10-30T09:40:37Z</time>
      </trkpt>
      <trkpt lat="45.04854" lon="5.43515">
        <ele>906.4</ele>
        <time>2019-10-30T09:40:47Z</time>
      </trkpt>
      <trkpt lat="45.04869" lon="5.43497">
        <ele>908.2</ele>
        <time>2019-10-30T09:40:52Z</time>
      </trkpt>
      <trkpt lat="45.04883" lon="5.43468">
        <ele>910.4</ele>
        <time>2019-10-30T09:40:58Z</time>
      </trkpt>
      <trkpt lat="45.04888" lon="5.43441">
        <ele>912.7</ele>
        <time>2019-10-30T09:41:03Z</time>
      </trkpt>
      <trkpt lat="45.04881" lon="5.4342">
        <ele>914</ele>
        <time>2019-10-30T09:41:08Z</time>
      </trkpt>
      <trkpt lat="45.04877" lon="5.43391">
        <ele>917.5</ele>
        <time>2019-10-30T09:41:17Z</time>
      </trkpt>
      <trkpt lat="45.04877" lon="5.43359">
        <ele>921.8</ele>
        <time>2019-10-30T09:41:40Z</time>
      </trkpt>
      <trkpt lat="45.04871" lon="5.43341">
        <ele>923.6</ele>
        <time>2019-10-30T09:41:47Z</time>
      </trkpt>
      <trkpt lat="45.04867" lon="5.43309">
        <ele>929.9</ele>
        <time>2019-10-30T09:41:59Z</time>
      </trkpt>
      <trkpt lat="45.04877" lon="5.43277">
        <ele>938</ele>
        <time>2019-10-30T09:42:15Z</time>
      </trkpt>
      <trkpt lat="45.04909" lon="5.43266">
        <ele>942.2</ele>
        <time>2019-10-30T09:42:35Z</time>
      </trkpt>
      <trkpt lat="45.04931" lon="5.43252">
        <ele>946.2</ele>
        <time>2019-10-30T09:42:54Z</time>
      </trkpt>
      <trkpt lat="45.04946" lon="5.43248">
        <ele>947.5</ele>
        <time>2019-10-30T09:45:22Z</time>
      </trkpt>
      <trkpt lat="45.04958" lon="5.43238">
        <ele>949.5</ele>
        <time>2019-10-30T09:45:30Z</time>
      </trkpt>
      <trkpt lat="45.04966" lon="5.43225">
        <ele>952</ele>
        <time>2019-10-30T09:45:37Z</time>
      </trkpt>
      <trkpt lat="45.04971" lon="5.4321">
        <ele>954.6</ele>
        <time>2019-10-30T09:45:43Z</time>
      </trkpt>
      <trkpt lat="45.04971" lon="5.43186">
        <ele>958.6</ele>
        <time>2019-10-30T09:45:53Z</time>
      </trkpt>
      <trkpt lat="45.04977" lon="5.43175">
        <ele>960.2</ele>
        <time>2019-10-30T09:45:57Z</time>
      </trkpt>
      <trkpt lat="45.05001" lon="5.43153">
        <ele>962.5</ele>
        <time>2019-10-30T09:46:10Z</time>
      </trkpt>
      <trkpt lat="45.05004" lon="5.43143">
        <ele>963.4</ele>
        <time>2019-10-30T09:46:14Z</time>
      </trkpt>
      <trkpt lat="45.05004" lon="5.43131">
        <ele>964.7</ele>
        <time>2019-10-30T09:46:19Z</time>
      </trkpt>
      <trkpt lat="45.05009" lon="5.43116">
        <ele>966.1</ele>
        <time>2019-10-30T09:46:25Z</time>
      </trkpt>
      <trkpt lat="45.04986" lon="5.43005">
        <ele>983.7</ele>
        <time>2019-10-30T09:47:23Z</time>
      </trkpt>
      <trkpt lat="45.04986" lon="5.42954">
        <ele>989.7</ele>
        <time>2019-10-30T09:48:20Z</time>
      </trkpt>
      <trkpt lat="45.04994" lon="5.42943">
        <ele>990.5</ele>
        <time>2019-10-30T09:48:26Z</time>
      </trkpt>
      <trkpt lat="45.05006" lon="5.42934">
        <ele>990.8</ele>
        <time>2019-10-30T09:48:35Z</time>
      </trkpt>
      <trkpt lat="45.05017" lon="5.42913">
        <ele>992.2</ele>
        <time>2019-10-30T09:48:44Z</time>
      </trkpt>
      <trkpt lat="45.04994" lon="5.42856">
        <ele>998.7</ele>
        <time>2019-10-30T09:49:14Z</time>
      </trkpt>
      <trkpt lat="45.0494" lon="5.42779">
        <ele>1012.5</ele>
        <time>2019-10-30T09:49:49Z</time>
      </trkpt>
      <trkpt lat="45.04931" lon="5.42762">
        <ele>1015.4</ele>
        <time>2019-10-30T09:49:53Z</time>
      </trkpt>
      <trkpt lat="45.04915" lon="5.4272">
        <ele>1019.3</ele>
        <time>2019-10-30T09:50:03Z</time>
      </trkpt>
      <trkpt lat="45.04909" lon="5.42698">
        <ele>1020.1</ele>
        <time>2019-10-30T09:50:08Z</time>
      </trkpt>
      <trkpt lat="45.04907" lon="5.42669">
        <ele>1020.3</ele>
        <time>2019-10-30T09:50:15Z</time>
      </trkpt>
      <trkpt lat="45.04867" lon="5.426">
        <ele>1021.4</ele>
        <time>2019-10-30T09:50:39Z</time>
      </trkpt>
      <trkpt lat="45.04857" lon="5.42589">
        <ele>1021.3</ele>
        <time>2019-10-30T09:50:44Z</time>
      </trkpt>
      <trkpt lat="45.04832" lon="5.42577">
        <ele>1022.6</ele>
        <time>2019-10-30T09:50:54Z</time>
      </trkpt>
      <trkpt lat="45.04745" lon="5.42571">
        <ele>1028.1</ele>
        <time>2019-10-30T09:51:19Z</time>
      </trkpt>
      <trkpt lat="45.04719" lon="5.42563">
        <ele>1028.6</ele>
        <time>2019-10-30T09:51:26Z</time>
      </trkpt>
      <trkpt lat="45.04714" lon="5.42555">
        <ele>1029.3</ele>
        <time>2019-10-30T09:51:29Z</time>
      </trkpt>
      <trkpt lat="45.04716" lon="5.42536">
        <ele>1031.1</ele>
        <time>2019-10-30T09:51:36Z</time>
      </trkpt>
      <trkpt lat="45.04715" lon="5.42521">
        <ele>1032.6</ele>
        <time>2019-10-30T09:51:41Z</time>
      </trkpt>
      <trkpt lat="45.04723" lon="5.42477">
        <ele>1036.4</ele>
        <time>2019-10-30T09:51:54Z</time>
      </trkpt>
      <trkpt lat="45.04735" lon="5.42456">
        <ele>1037.7</ele>
        <time>2019-10-30T09:52:02Z</time>
      </trkpt>
      <trkpt lat="45.04739" lon="5.42438">
        <ele>1038.9</ele>
        <time>2019-10-30T09:52:07Z</time>
      </trkpt>
      <trkpt lat="45.04737" lon="5.42426">
        <ele>1039.7</ele>
        <time>2019-10-30T09:52:11Z</time>
      </trkpt>
      <trkpt lat="45.04716" lon="5.4241">
        <ele>1041.3</ele>
        <time>2019-10-30T09:52:20Z</time>
      </trkpt>
      <trkpt lat="45.0471" lon="5.42401">
        <ele>1042.2</ele>
        <time>2019-10-30T09:52:24Z</time>
      </trkpt>
      <trkpt lat="45.04684" lon="5.42343">
        <ele>1048.2</ele>
        <time>2019-10-30T09:52:45Z</time>
      </trkpt>
      <trkpt lat="45.04676" lon="5.42303">
        <ele>1052.1</ele>
        <time>2019-10-30T09:52:57Z</time>
      </trkpt>
      <trkpt lat="45.0467" lon="5.42289">
        <ele>1053.6</ele>
        <time>2019-10-30T09:53:02Z</time>
      </trkpt>
      <trkpt lat="45.04656" lon="5.42274">
        <ele>1054.6</ele>
        <time>2019-10-30T09:53:09Z</time>
      </trkpt>
      <trkpt lat="45.04631" lon="5.42238">
        <ele>1058.2</ele>
        <time>2019-10-30T09:53:21Z</time>
      </trkpt>
      <trkpt lat="45.04594" lon="5.42201">
        <ele>1063.6</ele>
        <time>2019-10-30T09:53:37Z</time>
      </trkpt>
      <trkpt lat="45.04569" lon="5.4219">
        <ele>1065.2</ele>
        <time>2019-10-30T09:53:46Z</time>
      </trkpt>
      <trkpt lat="45.04547" lon="5.42189">
        <ele>1064.9</ele>
        <time>2019-10-30T09:53:54Z</time>
      </trkpt>
      <trkpt lat="45.04533" lon="5.42193">
        <ele>1064.3</ele>
        <time>2019-10-30T09:54:00Z</time>
      </trkpt>
      <trkpt lat="45.0453" lon="5.42191">
        <ele>1064.5</ele>
        <time>2019-10-30T09:54:02Z</time>
      </trkpt>
      <trkpt lat="45.04528" lon="5.42182">
        <ele>1065.3</ele>
        <time>2019-10-30T09:54:05Z</time>
      </trkpt>
      <trkpt lat="45.04533" lon="5.42156">
        <ele>1068.7</ele>
        <time>2019-10-30T09:54:13Z</time>
      </trkpt>
      <trkpt lat="45.0456" lon="5.421">
        <ele>1078.2</ele>
        <time>2019-10-30T09:54:34Z</time>
      </trkpt>
      <trkpt lat="45.0457" lon="5.42093">
        <ele>1079.7</ele>
        <time>2019-10-30T09:54:40Z</time>
      </trkpt>
      <trkpt lat="45.04591" lon="5.4209">
        <ele>1081</ele>
        <time>2019-10-30T09:54:49Z</time>
      </trkpt>
      <trkpt lat="45.04596" lon="5.42085">
        <ele>1081.9</ele>
        <time>2019-10-30T09:54:51Z</time>
      </trkpt>
      <trkpt lat="45.04594" lon="5.42078">
        <ele>1083.2</ele>
        <time>2019-10-30T09:54:54Z</time>
      </trkpt>
      <trkpt lat="45.0458" lon="5.4207">
        <ele>1084.3</ele>
        <time>2019-10-30T09:55:02Z</time>
      </trkpt>
      <trkpt lat="45.04561" lon="5.42046">
        <ele>1087</ele>
        <time>2019-10-30T09:55:16Z</time>
      </trkpt>
      <trkpt lat="45.04554" lon="5.42025">
        <ele>1089.9</ele>
        <time>2019-10-30T09:55:23Z</time>
      </trkpt>
      <trkpt lat="45.04542" lon="5.41976">
        <ele>1095.8</ele>
        <time>2019-10-30T09:55:37Z</time>
      </trkpt>
      <trkpt lat="45.04529" lon="5.41941">
        <ele>1098.4</ele>
        <time>2019-10-30T09:55:51Z</time>
      </trkpt>
      <trkpt lat="45.04509" lon="5.41759">
        <ele>1115.8</ele>
        <time>2019-10-30T09:56:43Z</time>
      </trkpt>
      <trkpt lat="45.04499" lon="5.41709">
        <ele>1117.8</ele>
        <time>2019-10-30T09:56:57Z</time>
      </trkpt>
      <trkpt lat="45.04503" lon="5.41679">
        <ele>1120.8</ele>
        <time>2019-10-30T09:57:06Z</time>
      </trkpt>
      <trkpt lat="45.04499" lon="5.41615">
        <ele>1127.7</ele>
        <time>2019-10-30T09:57:24Z</time>
      </trkpt>
      <trkpt lat="45.04489" lon="5.41586">
        <ele>1131</ele>
        <time>2019-10-30T09:57:33Z</time>
      </trkpt>
      <trkpt lat="45.04469" lon="5.41571">
        <ele>1130.3</ele>
        <time>2019-10-30T09:57:42Z</time>
      </trkpt>
      <trkpt lat="45.04466" lon="5.41564">
        <ele>1130.2</ele>
        <time>2019-10-30T09:57:44Z</time>
      </trkpt>
      <trkpt lat="45.04466" lon="5.41534">
        <ele>1130.4</ele>
        <time>2019-10-30T09:57:50Z</time>
      </trkpt>
      <trkpt lat="45.04474" lon="5.41505">
        <ele>1131</ele>
        <time>2019-10-30T09:57:55Z</time>
      </trkpt>
      <trkpt lat="45.04486" lon="5.41444">
        <ele>1126.5</ele>
        <time>2019-10-30T09:58:02Z</time>
      </trkpt>
      <trkpt lat="45.04489" lon="5.414">
        <ele>1124</ele>
        <time>2019-10-30T09:58:07Z</time>
      </trkpt>
      <trkpt lat="45.04486" lon="5.41372">
        <ele>1124.7</ele>
        <time>2019-10-30T09:58:10Z</time>
      </trkpt>
      <trkpt lat="45.04478" lon="5.41336">
        <ele>1126.6</ele>
        <time>2019-10-30T09:58:14Z</time>
      </trkpt>
      <trkpt lat="45.0448" lon="5.41301">
        <ele>1126.1</ele>
        <time>2019-10-30T09:58:20Z</time>
      </trkpt>
      <trkpt lat="45.04463" lon="5.41264">
        <ele>1128.7</ele>
        <time>2019-10-30T09:58:34Z</time>
      </trkpt>
      <trkpt lat="45.0446" lon="5.41244">
        <ele>1129.2</ele>
        <time>2019-10-30T09:58:40Z</time>
      </trkpt>
      <trkpt lat="45.04468" lon="5.41199">
        <ele>1128.2</ele>
        <time>2019-10-30T10:01:18Z</time>
      </trkpt>
      <trkpt lat="45.04499" lon="5.41136">
        <ele>1131.1</ele>
        <time>2019-10-30T10:01:37Z</time>
      </trkpt>
      <trkpt lat="45.04504" lon="5.41116">
        <ele>1133.4</ele>
        <time>2019-10-30T10:01:43Z</time>
      </trkpt>
      <trkpt lat="45.045" lon="5.41076">
        <ele>1137.8</ele>
        <time>2019-10-30T10:01:56Z</time>
      </trkpt>
      <trkpt lat="45.04504" lon="5.41061">
        <ele>1137.1</ele>
        <time>2019-10-30T10:02:00Z</time>
      </trkpt>
      <trkpt lat="45.04519" lon="5.41032">
        <ele>1135.3</ele>
        <time>2019-10-30T10:02:06Z</time>
      </trkpt>
      <trkpt lat="45.04524" lon="5.41018">
        <ele>1134.9</ele>
        <time>2019-10-30T10:02:09Z</time>
      </trkpt>
      <trkpt lat="45.04526" lon="5.40999">
        <ele>1134.8</ele>
        <time>2019-10-30T10:02:14Z</time>
      </trkpt>
      <trkpt lat="45.04521" lon="5.40984">
        <ele>1134.6</ele>
        <time>2019-10-30T10:05:20Z</time>
      </trkpt>
      <trkpt lat="45.04483" lon="5.40937">
        <ele>1133.7</ele>
        <time>2019-10-30T10:05:39Z</time>
      </trkpt>
      <trkpt lat="45.04472" lon="5.40915">
        <ele>1133.7</ele>
        <time>2019-10-30T10:05:46Z</time>
      </trkpt>
      <trkpt lat="45.04473" lon="5.40907">
        <ele>1133.6</ele>
        <time>2019-10-30T10:05:49Z</time>
      </trkpt>
      <trkpt lat="45.04481" lon="5.40887">
        <ele>1133.3</ele>
        <time>2019-10-30T10:06:03Z</time>
      </trkpt>
      <trkpt lat="45.0448" lon="5.40882">
        <ele>1133.4</ele>
        <time>2019-10-30T10:06:04Z</time>
      </trkpt>
      <trkpt lat="45.04482" lon="5.40873">
        <ele>1133.2</ele>
        <time>2019-10-30T10:06:09Z</time>
      </trkpt>
      <trkpt lat="45.04481" lon="5.40816">
        <ele>1133.7</ele>
        <time>2019-10-30T10:09:59Z</time>
      </trkpt>
      <trkpt lat="45.0441" lon="5.40532">
        <ele>1166.7</ele>
        <time>2019-10-30T10:13:24Z</time>
      </trkpt>
      <trkpt lat="45.04394" lon="5.40432">
        <ele>1178.9</ele>
        <time>2019-10-30T10:14:00Z</time>
      </trkpt>
      <trkpt lat="45.04394" lon="5.40414">
        <ele>1181.4</ele>
        <time>2019-10-30T10:14:08Z</time>
      </trkpt>
      <trkpt lat="45.04403" lon="5.40353">
        <ele>1190.7</ele>
        <time>2019-10-30T10:14:32Z</time>
      </trkpt>
      <trkpt lat="45.04409" lon="5.40339">
        <ele>1193</ele>
        <time>2019-10-30T10:14:40Z</time>
      </trkpt>
      <trkpt lat="45.04406" lon="5.40287">
        <ele>1199.5</ele>
        <time>2019-10-30T10:15:08Z</time>
      </trkpt>
      <trkpt lat="45.04383" lon="5.40259">
        <ele>1203.1</ele>
        <time>2019-10-30T10:15:31Z</time>
      </trkpt>
      <trkpt lat="45.0436" lon="5.40217">
        <ele>1209.5</ele>
        <time>2019-10-30T10:15:55Z</time>
      </trkpt>
      <trkpt lat="45.04356" lon="5.40204">
        <ele>1211.7</ele>
        <time>2019-10-30T10:16:02Z</time>
      </trkpt>
      <trkpt lat="45.04362" lon="5.40114">
        <ele>1227.2</ele>
        <time>2019-10-30T10:17:10Z</time>
      </trkpt>
      <trkpt lat="45.04339" lon="5.40099">
        <ele>1235.7</ele>
        <time>2019-10-30T10:17:24Z</time>
      </trkpt>
      <trkpt lat="45.04321" lon="5.40092">
        <ele>1237.7</ele>
        <time>2019-10-30T10:17:38Z</time>
      </trkpt>
      <trkpt lat="45.04314" lon="5.40085">
        <ele>1238.9</ele>
        <time>2019-10-30T10:17:44Z</time>
      </trkpt>
      <trkpt lat="45.04303" lon="5.40052">
        <ele>1242.7</ele>
        <time>2019-10-30T10:17:59Z</time>
      </trkpt>
      <trkpt lat="45.04304" lon="5.40026">
        <ele>1246.4</ele>
        <time>2019-10-30T10:18:09Z</time>
      </trkpt>
      <trkpt lat="45.04317" lon="5.39994">
        <ele>1250.9</ele>
        <time>2019-10-30T10:18:23Z</time>
      </trkpt>
      <trkpt lat="45.04321" lon="5.39971">
        <ele>1251.6</ele>
        <time>2019-10-30T10:18:31Z</time>
      </trkpt>
      <trkpt lat="45.04328" lon="5.39964">
        <ele>1251.9</ele>
        <time>2019-10-30T10:18:35Z</time>
      </trkpt>
      <trkpt lat="45.04338" lon="5.39959">
        <ele>1251.2</ele>
        <time>2019-10-30T10:18:40Z</time>
      </trkpt>
      <trkpt lat="45.0435" lon="5.39959">
        <ele>1249.3</ele>
        <time>2019-10-30T10:18:48Z</time>
      </trkpt>
      <trkpt lat="45.04325" lon="5.39949">
        <ele>1251.9</ele>
        <time>2019-10-30T10:21:41Z</time>
      </trkpt>
      <trkpt lat="45.04292" lon="5.3995">
        <ele>1251.7</ele>
        <time>2019-10-30T10:21:54Z</time>
      </trkpt>
      <trkpt lat="45.04245" lon="5.39981">
        <ele>1247.6</ele>
        <time>2019-10-30T10:22:12Z</time>
      </trkpt>
      <trkpt lat="45.04229" lon="5.39997">
        <ele>1244</ele>
        <time>2019-10-30T10:22:18Z</time>
      </trkpt>
      <trkpt lat="45.0421" lon="5.40026">
        <ele>1237.8</ele>
        <time>2019-10-30T10:22:26Z</time>
      </trkpt>
      <trkpt lat="45.04189" lon="5.40071">
        <ele>1227.9</ele>
        <time>2019-10-30T10:22:37Z</time>
      </trkpt>
      <trkpt lat="45.04184" lon="5.40091">
        <ele>1224</ele>
        <time>2019-10-30T10:22:41Z</time>
      </trkpt>
      <trkpt lat="45.04147" lon="5.40189">
        <ele>1202.5</ele>
        <time>2019-10-30T10:23:00Z</time>
      </trkpt>
      <trkpt lat="45.04121" lon="5.40285">
        <ele>1184.9</ele>
        <time>2019-10-30T10:23:16Z</time>
      </trkpt>
      <trkpt lat="45.04101" lon="5.40333">
        <ele>1175.3</ele>
        <time>2019-10-30T10:23:23Z</time>
      </trkpt>
      <trkpt lat="45.0409" lon="5.40335">
        <ele>1173.8</ele>
        <time>2019-10-30T10:23:29Z</time>
      </trkpt>
      <trkpt lat="45.04072" lon="5.40345">
        <ele>1171.7</ele>
        <time>2019-10-30T10:23:35Z</time>
      </trkpt>
      <trkpt lat="45.04057" lon="5.40348">
        <ele>1171.1</ele>
        <time>2019-10-30T10:23:40Z</time>
      </trkpt>
      <trkpt lat="45.04037" lon="5.40346">
        <ele>1170.5</ele>
        <time>2019-10-30T10:23:46Z</time>
      </trkpt>
      <trkpt lat="45.0402" lon="5.4035">
        <ele>1169.6</ele>
        <time>2019-10-30T10:23:50Z</time>
      </trkpt>
      <trkpt lat="45.03964" lon="5.4039">
        <ele>1169.9</ele>
        <time>2019-10-30T10:24:11Z</time>
      </trkpt>
      <trkpt lat="45.0393" lon="5.40437">
        <ele>1168.3</ele>
        <time>2019-10-30T10:24:24Z</time>
      </trkpt>
      <trkpt lat="45.03898" lon="5.40463">
        <ele>1166.8</ele>
        <time>2019-10-30T10:24:34Z</time>
      </trkpt>
      <trkpt lat="45.03876" lon="5.40485">
        <ele>1164.4</ele>
        <time>2019-10-30T10:24:39Z</time>
      </trkpt>
      <trkpt lat="45.0385" lon="5.40505">
        <ele>1162.1</ele>
        <time>2019-10-30T10:24:48Z</time>
      </trkpt>
      <trkpt lat="45.0384" lon="5.40515">
        <ele>1161.2</ele>
        <time>2019-10-30T10:24:51Z</time>
      </trkpt>
      <trkpt lat="45.03832" lon="5.40536">
        <ele>1159.8</ele>
        <time>2019-10-30T10:24:55Z</time>
      </trkpt>
      <trkpt lat="45.03696" lon="5.40606">
        <ele>1159.2</ele>
        <time>2019-10-30T10:26:24Z</time>
      </trkpt>
      <trkpt lat="45.0367" lon="5.40611">
        <ele>1161.1</ele>
        <time>2019-10-30T10:26:37Z</time>
      </trkpt>
      <trkpt lat="45.03662" lon="5.40618">
        <ele>1161.6</ele>
        <time>2019-10-30T10:26:42Z</time>
      </trkpt>
      <trkpt lat="45.03656" lon="5.40612">
        <ele>1161.3</ele>
        <time>2019-10-30T10:26:48Z</time>
      </trkpt>
      <trkpt lat="45.03637" lon="5.4057">
        <ele>1160.1</ele>
        <time>2019-10-30T10:27:00Z</time>
      </trkpt>
      <trkpt lat="45.03624" lon="5.40558">
        <ele>1160</ele>
        <time>2019-10-30T10:27:04Z</time>
      </trkpt>
      <trkpt lat="45.0361" lon="5.40533">
        <ele>1159.6</ele>
        <time>2019-10-30T10:27:09Z</time>
      </trkpt>
      <trkpt lat="45.03598" lon="5.40492">
        <ele>1159.2</ele>
        <time>2019-10-30T10:27:16Z</time>
      </trkpt>
      <trkpt lat="45.03583" lon="5.4042">
        <ele>1162.8</ele>
        <time>2019-10-30T10:27:30Z</time>
      </trkpt>
      <trkpt lat="45.03571" lon="5.40378">
        <ele>1163.9</ele>
        <time>2019-10-30T10:27:37Z</time>
      </trkpt>
      <trkpt lat="45.0355" lon="5.4034">
        <ele>1164.5</ele>
        <time>2019-10-30T10:27:45Z</time>
      </trkpt>
      <trkpt lat="45.03495" lon="5.40302">
        <ele>1165.7</ele>
        <time>2019-10-30T10:27:59Z</time>
      </trkpt>
      <trkpt lat="45.03473" lon="5.40292">
        <ele>1165.5</ele>
        <time>2019-10-30T10:28:04Z</time>
      </trkpt>
      <trkpt lat="45.03444" lon="5.40269">
        <ele>1165.6</ele>
        <time>2019-10-30T10:28:30Z</time>
      </trkpt>
      <trkpt lat="45.03412" lon="5.40225">
        <ele>1168.2</ele>
        <time>2019-10-30T10:28:43Z</time>
      </trkpt>
      <trkpt lat="45.03402" lon="5.40193">
        <ele>1172</ele>
        <time>2019-10-30T10:28:53Z</time>
      </trkpt>
      <trkpt lat="45.03375" lon="5.40136">
        <ele>1178.3</ele>
        <time>2019-10-30T10:29:13Z</time>
      </trkpt>
      <trkpt lat="45.03365" lon="5.40095">
        <ele>1182.9</ele>
        <time>2019-10-30T10:29:26Z</time>
      </trkpt>
      <trkpt lat="45.0335" lon="5.40078">
        <ele>1182.8</ele>
        <time>2019-10-30T10:29:33Z</time>
      </trkpt>
      <trkpt lat="45.0334" lon="5.40046">
        <ele>1179.2</ele>
        <time>2019-10-30T10:29:47Z</time>
      </trkpt>
      <trkpt lat="45.03327" lon="5.40033">
        <ele>1176.3</ele>
        <time>2019-10-30T10:29:54Z</time>
      </trkpt>
      <trkpt lat="45.03323" lon="5.40022">
        <ele>1174.6</ele>
        <time>2019-10-30T10:30:00Z</time>
      </trkpt>
      <trkpt lat="45.03329" lon="5.40027">
        <ele>1176</ele>
        <time>2019-10-30T10:38:08Z</time>
      </trkpt>
      <trkpt lat="45.0334" lon="5.40051">
        <ele>1179.7</ele>
        <time>2019-10-30T10:38:19Z</time>
      </trkpt>
      <trkpt lat="45.03352" lon="5.40066">
        <ele>1182.1</ele>
        <time>2019-10-30T10:38:30Z</time>
      </trkpt>
      <trkpt lat="45.03368" lon="5.40122">
        <ele>1179.7</ele>
        <time>2019-10-30T10:38:48Z</time>
      </trkpt>
      <trkpt lat="45.03381" lon="5.4015">
        <ele>1176.8</ele>
        <time>2019-10-30T10:38:55Z</time>
      </trkpt>
      <trkpt lat="45.0339" lon="5.40178">
        <ele>1173.5</ele>
        <time>2019-10-30T10:39:01Z</time>
      </trkpt>
      <trkpt lat="45.03416" lon="5.40225">
        <ele>1168.2</ele>
        <time>2019-10-30T10:39:12Z</time>
      </trkpt>
      <trkpt lat="45.03432" lon="5.40247">
        <ele>1166.5</ele>
        <time>2019-10-30T10:39:18Z</time>
      </trkpt>
      <trkpt lat="45.03463" lon="5.40267">
        <ele>1167</ele>
        <time>2019-10-30T10:39:32Z</time>
      </trkpt>
      <trkpt lat="45.03485" lon="5.40276">
        <ele>1167.6</ele>
        <time>2019-10-30T10:39:39Z</time>
      </trkpt>
      <trkpt lat="45.0352" lon="5.40307">
        <ele>1166.3</ele>
        <time>2019-10-30T10:39:49Z</time>
      </trkpt>
      <trkpt lat="45.03532" lon="5.40327">
        <ele>1164.8</ele>
        <time>2019-10-30T10:39:53Z</time>
      </trkpt>
      <trkpt lat="45.03537" lon="5.40343">
        <ele>1163.9</ele>
        <time>2019-10-30T10:39:56Z</time>
      </trkpt>
      <trkpt lat="45.03555" lon="5.40367">
        <ele>1163.6</ele>
        <time>2019-10-30T10:40:16Z</time>
      </trkpt>
      <trkpt lat="45.03567" lon="5.4042">
        <ele>1162</ele>
        <time>2019-10-30T10:40:25Z</time>
      </trkpt>
      <trkpt lat="45.03579" lon="5.40455">
        <ele>1160.6</ele>
        <time>2019-10-30T10:40:30Z</time>
      </trkpt>
      <trkpt lat="45.03604" lon="5.405">
        <ele>1159</ele>
        <time>2019-10-30T10:40:40Z</time>
      </trkpt>
      <trkpt lat="45.03616" lon="5.40526">
        <ele>1159.7</ele>
        <time>2019-10-30T10:40:45Z</time>
      </trkpt>
      <trkpt lat="45.03622" lon="5.40549">
        <ele>1159.9</ele>
        <time>2019-10-30T10:40:48Z</time>
      </trkpt>
      <trkpt lat="45.03638" lon="5.40628">
        <ele>1162</ele>
        <time>2019-10-30T10:41:00Z</time>
      </trkpt>
      <trkpt lat="45.03662" lon="5.40688">
        <ele>1163</ele>
        <time>2019-10-30T10:41:10Z</time>
      </trkpt>
      <trkpt lat="45.03706" lon="5.40775">
        <ele>1158.2</ele>
        <time>2019-10-30T10:41:26Z</time>
      </trkpt>
      <trkpt lat="45.0371" lon="5.40788">
        <ele>1158</ele>
        <time>2019-10-30T10:41:29Z</time>
      </trkpt>
      <trkpt lat="45.03725" lon="5.40818">
        <ele>1158.1</ele>
        <time>2019-10-30T10:41:37Z</time>
      </trkpt>
      <trkpt lat="45.03732" lon="5.40842">
        <ele>1158.5</ele>
        <time>2019-10-30T10:41:43Z</time>
      </trkpt>
      <trkpt lat="45.03735" lon="5.40878">
        <ele>1159.3</ele>
        <time>2019-10-30T10:41:49Z</time>
      </trkpt>
      <trkpt lat="45.03732" lon="5.40898">
        <ele>1159.6</ele>
        <time>2019-10-30T10:41:53Z</time>
      </trkpt>
      <trkpt lat="45.03728" lon="5.409">
        <ele>1159.6</ele>
        <time>2019-10-30T10:41:55Z</time>
      </trkpt>
      <trkpt lat="45.03721" lon="5.40894">
        <ele>1159.5</ele>
        <time>2019-10-30T10:41:58Z</time>
      </trkpt>
      <trkpt lat="45.03703" lon="5.40869">
        <ele>1158.5</ele>
        <time>2019-10-30T10:42:04Z</time>
      </trkpt>
      <trkpt lat="45.03688" lon="5.40856">
        <ele>1157.7</ele>
        <time>2019-10-30T10:42:07Z</time>
      </trkpt>
      <trkpt lat="45.03644" lon="5.40833">
        <ele>1158.1</ele>
        <time>2019-10-30T10:42:14Z</time>
      </trkpt>
      <trkpt lat="45.0359" lon="5.40829">
        <ele>1163.4</ele>
        <time>2019-10-30T10:42:34Z</time>
      </trkpt>
      <trkpt lat="45.03568" lon="5.40823">
        <ele>1164.8</ele>
        <time>2019-10-30T10:42:45Z</time>
      </trkpt>
      <trkpt lat="45.03527" lon="5.4083">
        <ele>1166.7</ele>
        <time>2019-10-30T10:43:07Z</time>
      </trkpt>
      <trkpt lat="45.03485" lon="5.40822">
        <ele>1168.9</ele>
        <time>2019-10-30T10:43:20Z</time>
      </trkpt>
      <trkpt lat="45.03464" lon="5.4081">
        <ele>1169.9</ele>
        <time>2019-10-30T10:43:28Z</time>
      </trkpt>
      <trkpt lat="45.03451" lon="5.40798">
        <ele>1170.4</ele>
        <time>2019-10-30T10:43:34Z</time>
      </trkpt>
      <trkpt lat="45.03437" lon="5.408">
        <ele>1171</ele>
        <time>2019-10-30T10:43:40Z</time>
      </trkpt>
      <trkpt lat="45.03388" lon="5.40795">
        <ele>1171.9</ele>
        <time>2019-10-30T10:43:50Z</time>
      </trkpt>
      <trkpt lat="45.03361" lon="5.40805">
        <ele>1172.2</ele>
        <time>2019-10-30T10:43:57Z</time>
      </trkpt>
      <trkpt lat="45.03325" lon="5.40811">
        <ele>1172.5</ele>
        <time>2019-10-30T10:44:03Z</time>
      </trkpt>
      <trkpt lat="45.03309" lon="5.4081">
        <ele>1172.9</ele>
        <time>2019-10-30T10:44:06Z</time>
      </trkpt>
      <trkpt lat="45.03287" lon="5.40814">
        <ele>1173.5</ele>
        <time>2019-10-30T10:44:10Z</time>
      </trkpt>
      <trkpt lat="45.03277" lon="5.40811">
        <ele>1173.8</ele>
        <time>2019-10-30T10:44:12Z</time>
      </trkpt>
      <trkpt lat="45.03228" lon="5.40764">
        <ele>1171.3</ele>
        <time>2019-10-30T10:44:30Z</time>
      </trkpt>
      <trkpt lat="45.03208" lon="5.40732">
        <ele>1168.9</ele>
        <time>2019-10-30T10:44:36Z</time>
      </trkpt>
      <trkpt lat="45.03186" lon="5.40716">
        <ele>1167.3</ele>
        <time>2019-10-30T10:44:41Z</time>
      </trkpt>
      <trkpt lat="45.03168" lon="5.40712">
        <ele>1166</ele>
        <time>2019-10-30T10:44:45Z</time>
      </trkpt>
      <trkpt lat="45.03151" lon="5.40717">
        <ele>1164.5</ele>
        <time>2019-10-30T10:44:48Z</time>
      </trkpt>
      <trkpt lat="45.03114" lon="5.40761">
        <ele>1161.3</ele>
        <time>2019-10-30T10:45:02Z</time>
      </trkpt>
      <trkpt lat="45.03072" lon="5.40785">
        <ele>1160.3</ele>
        <time>2019-10-30T10:45:11Z</time>
      </trkpt>
      <trkpt lat="45.03059" lon="5.40788">
        <ele>1160.1</ele>
        <time>2019-10-30T10:45:15Z</time>
      </trkpt>
      <trkpt lat="45.03051" lon="5.40795">
        <ele>1160.2</ele>
        <time>2019-10-30T10:45:19Z</time>
      </trkpt>
      <trkpt lat="45.03011" lon="5.40809">
        <ele>1159.2</ele>
        <time>2019-10-30T10:45:44Z</time>
      </trkpt>
      <trkpt lat="45.02955" lon="5.40818">
        <ele>1159.2</ele>
        <time>2019-10-30T10:45:56Z</time>
      </trkpt>
      <trkpt lat="45.02927" lon="5.40813">
        <ele>1159.2</ele>
        <time>2019-10-30T10:46:04Z</time>
      </trkpt>
      <trkpt lat="45.02908" lon="5.40805">
        <ele>1159.1</ele>
        <time>2019-10-30T10:46:08Z</time>
      </trkpt>
      <trkpt lat="45.02858" lon="5.40794">
        <ele>1159.4</ele>
        <time>2019-10-30T10:46:18Z</time>
      </trkpt>
      <trkpt lat="45.02815" lon="5.4077">
        <ele>1157.9</ele>
        <time>2019-10-30T10:46:27Z</time>
      </trkpt>
      <trkpt lat="45.02784" lon="5.40757">
        <ele>1156.8</ele>
        <time>2019-10-30T10:46:35Z</time>
      </trkpt>
      <trkpt lat="45.02774" lon="5.40749">
        <ele>1156</ele>
        <time>2019-10-30T10:47:45Z</time>
      </trkpt>
      <trkpt lat="45.02727" lon="5.40744">
        <ele>1156</ele>
        <time>2019-10-30T10:47:54Z</time>
      </trkpt>
      <trkpt lat="45.02712" lon="5.40749">
        <ele>1156.4</ele>
        <time>2019-10-30T10:47:57Z</time>
      </trkpt>
      <trkpt lat="45.02684" lon="5.4075">
        <ele>1156.8</ele>
        <time>2019-10-30T10:48:02Z</time>
      </trkpt>
      <trkpt lat="45.0263" lon="5.40774">
        <ele>1161.3</ele>
        <time>2019-10-30T10:48:18Z</time>
      </trkpt>
      <trkpt lat="45.02581" lon="5.40842">
        <ele>1170.4</ele>
        <time>2019-10-30T10:49:40Z</time>
      </trkpt>
      <trkpt lat="45.0256" lon="5.40882">
        <ele>1174.1</ele>
        <time>2019-10-30T10:49:53Z</time>
      </trkpt>
      <trkpt lat="45.02538" lon="5.4091">
        <ele>1176.6</ele>
        <time>2019-10-30T10:50:01Z</time>
      </trkpt>
      <trkpt lat="45.02531" lon="5.40928">
        <ele>1176.3</ele>
        <time>2019-10-30T10:50:07Z</time>
      </trkpt>
      <trkpt lat="45.0252" lon="5.41016">
        <ele>1171</ele>
        <time>2019-10-30T10:50:21Z</time>
      </trkpt>
      <trkpt lat="45.02526" lon="5.41125">
        <ele>1159.1</ele>
        <time>2019-10-30T10:50:36Z</time>
      </trkpt>
      <trkpt lat="45.0253" lon="5.4113">
        <ele>1158.1</ele>
        <time>2019-10-30T10:51:01Z</time>
      </trkpt>
      <trkpt lat="45.02552" lon="5.41134">
        <ele>1155.1</ele>
        <time>2019-10-30T10:51:06Z</time>
      </trkpt>
      <trkpt lat="45.02566" lon="5.41145">
        <ele>1152.4</ele>
        <time>2019-10-30T10:51:09Z</time>
      </trkpt>
      <trkpt lat="45.0258" lon="5.41171">
        <ele>1148.4</ele>
        <time>2019-10-30T10:51:13Z</time>
      </trkpt>
      <trkpt lat="45.02614" lon="5.41194">
        <ele>1142.4</ele>
        <time>2019-10-30T10:51:20Z</time>
      </trkpt>
      <trkpt lat="45.02623" lon="5.41207">
        <ele>1139.7</ele>
        <time>2019-10-30T10:51:22Z</time>
      </trkpt>
      <trkpt lat="45.02638" lon="5.41214">
        <ele>1138.2</ele>
        <time>2019-10-30T10:51:25Z</time>
      </trkpt>
      <trkpt lat="45.02665" lon="5.41236">
        <ele>1134.2</ele>
        <time>2019-10-30T10:51:34Z</time>
      </trkpt>
      <trkpt lat="45.02676" lon="5.41241">
        <ele>1133.5</ele>
        <time>2019-10-30T10:51:37Z</time>
      </trkpt>
      <trkpt lat="45.02677" lon="5.41244">
        <ele>1133.1</ele>
        <time>2019-10-30T10:51:38Z</time>
      </trkpt>
      <trkpt lat="45.02675" lon="5.41253">
        <ele>1131.8</ele>
        <time>2019-10-30T10:51:41Z</time>
      </trkpt>
      <trkpt lat="45.02673" lon="5.41289">
        <ele>1127.3</ele>
        <time>2019-10-30T10:51:47Z</time>
      </trkpt>
      <trkpt lat="45.02662" lon="5.41322">
        <ele>1122.2</ele>
        <time>2019-10-30T10:51:51Z</time>
      </trkpt>
      <trkpt lat="45.02639" lon="5.41346">
        <ele>1116.1</ele>
        <time>2019-10-30T10:51:55Z</time>
      </trkpt>
      <trkpt lat="45.02568" lon="5.41385">
        <ele>1103.2</ele>
        <time>2019-10-30T10:52:17Z</time>
      </trkpt>
      <trkpt lat="45.02563" lon="5.41398">
        <ele>1100.6</ele>
        <time>2019-10-30T10:52:22Z</time>
      </trkpt>
      <trkpt lat="45.0256" lon="5.4142">
        <ele>1096.2</ele>
        <time>2019-10-30T10:52:27Z</time>
      </trkpt>
      <trkpt lat="45.02533" lon="5.41443">
        <ele>1094.5</ele>
        <time>2019-10-30T10:52:35Z</time>
      </trkpt>
      <trkpt lat="45.02504" lon="5.41458">
        <ele>1093</ele>
        <time>2019-10-30T10:52:43Z</time>
      </trkpt>
      <trkpt lat="45.02482" lon="5.41463">
        <ele>1093.2</ele>
        <time>2019-10-30T10:52:50Z</time>
      </trkpt>
      <trkpt lat="45.02452" lon="5.41479">
        <ele>1092.7</ele>
        <time>2019-10-30T10:52:58Z</time>
      </trkpt>
      <trkpt lat="45.02437" lon="5.41484">
        <ele>1092.9</ele>
        <time>2019-10-30T10:53:03Z</time>
      </trkpt>
      <trkpt lat="45.02417" lon="5.41507">
        <ele>1091.2</ele>
        <time>2019-10-30T10:53:13Z</time>
      </trkpt>
      <trkpt lat="45.02405" lon="5.41513">
        <ele>1090</ele>
        <time>2019-10-30T10:53:16Z</time>
      </trkpt>
      <trkpt lat="45.02391" lon="5.41536">
        <ele>1087.1</ele>
        <time>2019-10-30T10:53:24Z</time>
      </trkpt>
      <trkpt lat="45.0239" lon="5.41552">
        <ele>1085.6</ele>
        <time>2019-10-30T10:53:29Z</time>
      </trkpt>
      <trkpt lat="45.02398" lon="5.41606">
        <ele>1081.2</ele>
        <time>2019-10-30T10:53:38Z</time>
      </trkpt>
      <trkpt lat="45.02398" lon="5.41671">
        <ele>1076.4</ele>
        <time>2019-10-30T10:53:46Z</time>
      </trkpt>
      <trkpt lat="45.0241" lon="5.4174">
        <ele>1070.2</ele>
        <time>2019-10-30T10:53:54Z</time>
      </trkpt>
      <trkpt lat="45.02408" lon="5.41769">
        <ele>1067.2</ele>
        <time>2019-10-30T10:53:58Z</time>
      </trkpt>
      <trkpt lat="45.02376" lon="5.41863">
        <ele>1058</ele>
        <time>2019-10-30T10:54:10Z</time>
      </trkpt>
      <trkpt lat="45.02367" lon="5.41883">
        <ele>1056</ele>
        <time>2019-10-30T10:54:12Z</time>
      </trkpt>
      <trkpt lat="45.02329" lon="5.41932">
        <ele>1050.2</ele>
        <time>2019-10-30T10:54:24Z</time>
      </trkpt>
      <trkpt lat="45.02316" lon="5.41943">
        <ele>1048.5</ele>
        <time>2019-10-30T10:54:27Z</time>
      </trkpt>
      <trkpt lat="45.02239" lon="5.41974">
        <ele>1040.7</ele>
        <time>2019-10-30T10:54:41Z</time>
      </trkpt>
      <trkpt lat="45.02219" lon="5.41993">
        <ele>1036.1</ele>
        <time>2019-10-30T10:54:45Z</time>
      </trkpt>
      <trkpt lat="45.02214" lon="5.42002">
        <ele>1034.3</ele>
        <time>2019-10-30T10:54:46Z</time>
      </trkpt>
      <trkpt lat="45.02182" lon="5.42085">
        <ele>1020.8</ele>
        <time>2019-10-30T10:54:55Z</time>
      </trkpt>
      <trkpt lat="45.02171" lon="5.42103">
        <ele>1020.4</ele>
        <time>2019-10-30T10:54:58Z</time>
      </trkpt>
      <trkpt lat="45.02156" lon="5.42119">
        <ele>1019.4</ele>
        <time>2019-10-30T10:55:02Z</time>
      </trkpt>
      <trkpt lat="45.02139" lon="5.42116">
        <ele>1017.7</ele>
        <time>2019-10-30T10:55:05Z</time>
      </trkpt>
      <trkpt lat="45.01982" lon="5.42111">
        <ele>1004.7</ele>
        <time>2019-10-30T10:55:22Z</time>
      </trkpt>
      <trkpt lat="45.01951" lon="5.42088">
        <ele>1002.4</ele>
        <time>2019-10-30T10:55:26Z</time>
      </trkpt>
      <trkpt lat="45.01943" lon="5.42079">
        <ele>1001.7</ele>
        <time>2019-10-30T10:55:27Z</time>
      </trkpt>
      <trkpt lat="45.01925" lon="5.42045">
        <ele>1000.7</ele>
        <time>2019-10-30T10:55:30Z</time>
      </trkpt>
      <trkpt lat="45.01905" lon="5.42016">
        <ele>999.3</ele>
        <time>2019-10-30T10:55:33Z</time>
      </trkpt>
      <trkpt lat="45.01889" lon="5.42003">
        <ele>998.5</ele>
        <time>2019-10-30T10:55:35Z</time>
      </trkpt>
      <trkpt lat="45.01855" lon="5.41988">
        <ele>998.4</ele>
        <time>2019-10-30T10:55:39Z</time>
      </trkpt>
      <trkpt lat="45.01826" lon="5.41984">
        <ele>998.1</ele>
        <time>2019-10-30T10:55:42Z</time>
      </trkpt>
      <trkpt lat="45.01796" lon="5.41986">
        <ele>999.7</ele>
        <time>2019-10-30T10:55:45Z</time>
      </trkpt>
      <trkpt lat="45.01769" lon="5.41981">
        <ele>1000.7</ele>
        <time>2019-10-30T10:55:48Z</time>
      </trkpt>
      <trkpt lat="45.01729" lon="5.41953">
        <ele>999.4</ele>
        <time>2019-10-30T10:55:53Z</time>
      </trkpt>
      <trkpt lat="45.01689" lon="5.41906">
        <ele>995.5</ele>
        <time>2019-10-30T10:55:59Z</time>
      </trkpt>
      <trkpt lat="45.01656" lon="5.4188">
        <ele>994.7</ele>
        <time>2019-10-30T10:56:04Z</time>
      </trkpt>
      <trkpt lat="45.01614" lon="5.41862">
        <ele>993.6</ele>
        <time>2019-10-30T10:56:09Z</time>
      </trkpt>
      <trkpt lat="45.01592" lon="5.4184">
        <ele>990.3</ele>
        <time>2019-10-30T10:56:12Z</time>
      </trkpt>
      <trkpt lat="45.01522" lon="5.41793">
        <ele>986.3</ele>
        <time>2019-10-30T10:56:21Z</time>
      </trkpt>
      <trkpt lat="45.01484" lon="5.41753">
        <ele>977.2</ele>
        <time>2019-10-30T10:56:27Z</time>
      </trkpt>
      <trkpt lat="45.01458" lon="5.41734">
        <ele>974</ele>
        <time>2019-10-30T10:56:31Z</time>
      </trkpt>
      <trkpt lat="45.01359" lon="5.41696">
        <ele>959.4</ele>
        <time>2019-10-30T10:56:46Z</time>
      </trkpt>
      <trkpt lat="45.01354" lon="5.41698">
        <ele>958.8</ele>
        <time>2019-10-30T10:56:48Z</time>
      </trkpt>
      <trkpt lat="45.01342" lon="5.4172">
        <ele>958.5</ele>
        <time>2019-10-30T10:56:56Z</time>
      </trkpt>
      <trkpt lat="45.01324" lon="5.41743">
        <ele>957.2</ele>
        <time>2019-10-30T10:57:04Z</time>
      </trkpt>
      <trkpt lat="45.01319" lon="5.41746">
        <ele>956.6</ele>
        <time>2019-10-30T10:57:06Z</time>
      </trkpt>
      <trkpt lat="45.01309" lon="5.41761">
        <ele>958.4</ele>
        <time>2019-10-30T10:57:12Z</time>
      </trkpt>
      <trkpt lat="45.01296" lon="5.418">
        <ele>967.2</ele>
        <time>2019-10-30T10:57:26Z</time>
      </trkpt>
      <trkpt lat="45.01273" lon="5.41838">
        <ele>973.8</ele>
        <time>2019-10-30T10:57:43Z</time>
      </trkpt>
      <trkpt lat="45.01263" lon="5.41862">
        <ele>977.2</ele>
        <time>2019-10-30T10:57:52Z</time>
      </trkpt>
      <trkpt lat="45.0124" lon="5.41904">
        <ele>980.4</ele>
        <time>2019-10-30T11:04:40Z</time>
      </trkpt>
      <trkpt lat="45.01235" lon="5.4192">
        <ele>982</ele>
        <time>2019-10-30T11:04:44Z</time>
      </trkpt>
      <trkpt lat="45.0123" lon="5.41975">
        <ele>982.2</ele>
        <time>2019-10-30T11:04:53Z</time>
      </trkpt>
      <trkpt lat="45.01231" lon="5.42052">
        <ele>977.6</ele>
        <time>2019-10-30T11:05:03Z</time>
      </trkpt>
      <trkpt lat="45.01239" lon="5.42079">
        <ele>976.8</ele>
        <time>2019-10-30T11:05:07Z</time>
      </trkpt>
      <trkpt lat="45.01249" lon="5.42094">
        <ele>976.2</ele>
        <time>2019-10-30T11:05:10Z</time>
      </trkpt>
      <trkpt lat="45.01252" lon="5.4211">
        <ele>973.6</ele>
        <time>2019-10-30T11:05:12Z</time>
      </trkpt>
      <trkpt lat="45.01252" lon="5.42136">
        <ele>968.2</ele>
        <time>2019-10-30T11:05:15Z</time>
      </trkpt>
      <trkpt lat="45.01234" lon="5.42173">
        <ele>956.8</ele>
        <time>2019-10-30T11:05:21Z</time>
      </trkpt>
      <trkpt lat="45.01206" lon="5.42256">
        <ele>941.3</ele>
        <time>2019-10-30T11:05:33Z</time>
      </trkpt>
      <trkpt lat="45.01188" lon="5.42283">
        <ele>935.3</ele>
        <time>2019-10-30T11:05:38Z</time>
      </trkpt>
      <trkpt lat="45.01171" lon="5.42318">
        <ele>929</ele>
        <time>2019-10-30T11:05:42Z</time>
      </trkpt>
      <trkpt lat="45.01139" lon="5.42407">
        <ele>916.8</ele>
        <time>2019-10-30T11:05:50Z</time>
      </trkpt>
      <trkpt lat="45.0113" lon="5.42453">
        <ele>915</ele>
        <time>2019-10-30T11:05:54Z</time>
      </trkpt>
      <trkpt lat="45.01109" lon="5.42507">
        <ele>912.7</ele>
        <time>2019-10-30T11:05:59Z</time>
      </trkpt>
      <trkpt lat="45.01097" lon="5.4256">
        <ele>907.7</ele>
        <time>2019-10-30T11:06:04Z</time>
      </trkpt>
      <trkpt lat="45.01082" lon="5.42598">
        <ele>902.9</ele>
        <time>2019-10-30T11:06:09Z</time>
      </trkpt>
      <trkpt lat="45.01081" lon="5.42606">
        <ele>902.3</ele>
        <time>2019-10-30T11:06:10Z</time>
      </trkpt>
      <trkpt lat="45.01087" lon="5.42637">
        <ele>900.6</ele>
        <time>2019-10-30T11:06:16Z</time>
      </trkpt>
      <trkpt lat="45.0108" lon="5.42657">
        <ele>898.7</ele>
        <time>2019-10-30T11:06:20Z</time>
      </trkpt>
      <trkpt lat="45.01067" lon="5.42674">
        <ele>897.4</ele>
        <time>2019-10-30T11:06:23Z</time>
      </trkpt>
      <trkpt lat="45.01038" lon="5.42694">
        <ele>895.6</ele>
        <time>2019-10-30T11:06:27Z</time>
      </trkpt>
      <trkpt lat="45.01026" lon="5.42709">
        <ele>894.2</ele>
        <time>2019-10-30T11:06:29Z</time>
      </trkpt>
      <trkpt lat="45.01015" lon="5.42756">
        <ele>890.4</ele>
        <time>2019-10-30T11:06:33Z</time>
      </trkpt>
      <trkpt lat="45.01" lon="5.42775">
        <ele>889.2</ele>
        <time>2019-10-30T11:06:35Z</time>
      </trkpt>
      <trkpt lat="45.0096" lon="5.42802">
        <ele>885.1</ele>
        <time>2019-10-30T11:06:39Z</time>
      </trkpt>
      <trkpt lat="45.00953" lon="5.42817">
        <ele>883.3</ele>
        <time>2019-10-30T11:06:40Z</time>
      </trkpt>
      <trkpt lat="45.00948" lon="5.42851">
        <ele>880.2</ele>
        <time>2019-10-30T11:06:42Z</time>
      </trkpt>
      <trkpt lat="45.00953" lon="5.42902">
        <ele>877</ele>
        <time>2019-10-30T11:06:45Z</time>
      </trkpt>
      <trkpt lat="45.0095" lon="5.42929">
        <ele>874.8</ele>
        <time>2019-10-30T11:06:47Z</time>
      </trkpt>
      <trkpt lat="45.00933" lon="5.42941">
        <ele>873.4</ele>
        <time>2019-10-30T11:06:49Z</time>
      </trkpt>
      <trkpt lat="45.00859" lon="5.42949">
        <ele>869.3</ele>
        <time>2019-10-30T11:06:57Z</time>
      </trkpt>
      <trkpt lat="45.00833" lon="5.42961">
        <ele>866.6</ele>
        <time>2019-10-30T11:07:00Z</time>
      </trkpt>
      <trkpt lat="45.00759" lon="5.42973">
        <ele>861.5</ele>
        <time>2019-10-30T11:07:12Z</time>
      </trkpt>
      <trkpt lat="45.00759" lon="5.42977">
        <ele>861.1</ele>
        <time>2019-10-30T11:07:14Z</time>
      </trkpt>
      <trkpt lat="45.00775" lon="5.42998">
        <ele>860.1</ele>
        <time>2019-10-30T11:07:20Z</time>
      </trkpt>
      <trkpt lat="45.00769" lon="5.43001">
        <ele>859.5</ele>
        <time>2019-10-30T11:07:23Z</time>
      </trkpt>
      <trkpt lat="45.00707" lon="5.42988">
        <ele>858.9</ele>
        <time>2019-10-30T11:07:34Z</time>
      </trkpt>
      <trkpt lat="45.00699" lon="5.42994">
        <ele>858.2</ele>
        <time>2019-10-30T11:07:36Z</time>
      </trkpt>
      <trkpt lat="45.00692" lon="5.4301">
        <ele>855.6</ele>
        <time>2019-10-30T11:07:39Z</time>
      </trkpt>
      <trkpt lat="45.00655" lon="5.43055">
        <ele>845.8</ele>
        <time>2019-10-30T11:07:48Z</time>
      </trkpt>
      <trkpt lat="45.00653" lon="5.4307">
        <ele>842.7</ele>
        <time>2019-10-30T11:07:50Z</time>
      </trkpt>
      <trkpt lat="45.00657" lon="5.43078">
        <ele>841</ele>
        <time>2019-10-30T11:07:52Z</time>
      </trkpt>
      <trkpt lat="45.00688" lon="5.43101">
        <ele>837</ele>
        <time>2019-10-30T11:07:58Z</time>
      </trkpt>
      <trkpt lat="45.007" lon="5.43105">
        <ele>836.3</ele>
        <time>2019-10-30T11:08:00Z</time>
      </trkpt>
      <trkpt lat="45.0071" lon="5.43112">
        <ele>834.8</ele>
        <time>2019-10-30T11:08:02Z</time>
      </trkpt>
      <trkpt lat="45.00714" lon="5.43122">
        <ele>832.5</ele>
        <time>2019-10-30T11:08:04Z</time>
      </trkpt>
      <trkpt lat="45.00714" lon="5.43128">
        <ele>831.4</ele>
        <time>2019-10-30T11:08:05Z</time>
      </trkpt>
      <trkpt lat="45.00698" lon="5.43156">
        <ele>825.7</ele>
        <time>2019-10-30T11:08:11Z</time>
      </trkpt>
      <trkpt lat="45.0067" lon="5.43171">
        <ele>824.4</ele>
        <time>2019-10-30T11:08:19Z</time>
      </trkpt>
      <trkpt lat="45.00627" lon="5.4322">
        <ele>817.9</ele>
        <time>2019-10-30T11:08:32Z</time>
      </trkpt>
      <trkpt lat="45.00605" lon="5.4324">
        <ele>814</ele>
        <time>2019-10-30T11:08:38Z</time>
      </trkpt>
      <trkpt lat="45.00577" lon="5.43276">
        <ele>806.1</ele>
        <time>2019-10-30T11:08:46Z</time>
      </trkpt>
      <trkpt lat="45.0053" lon="5.43304">
        <ele>797</ele>
        <time>2019-10-30T11:08:56Z</time>
      </trkpt>
      <trkpt lat="45.005" lon="5.43309">
        <ele>793.3</ele>
        <time>2019-10-30T11:09:02Z</time>
      </trkpt>
      <trkpt lat="45.00476" lon="5.43323">
        <ele>789.1</ele>
        <time>2019-10-30T11:09:08Z</time>
      </trkpt>
      <trkpt lat="45.00442" lon="5.43339">
        <ele>783.9</ele>
        <time>2019-10-30T11:09:16Z</time>
      </trkpt>
      <trkpt lat="45.0042" lon="5.43345">
        <ele>781</ele>
        <time>2019-10-30T11:09:20Z</time>
      </trkpt>
      <trkpt lat="45.00392" lon="5.43347">
        <ele>776.5</ele>
        <time>2019-10-30T11:09:27Z</time>
      </trkpt>
      <trkpt lat="45.00386" lon="5.43351">
        <ele>774.4</ele>
        <time>2019-10-30T11:09:29Z</time>
      </trkpt>
      <trkpt lat="45.00352" lon="5.434">
        <ele>755.4</ele>
        <time>2019-10-30T11:09:39Z</time>
      </trkpt>
      <trkpt lat="45.00316" lon="5.43432">
        <ele>743.7</ele>
        <time>2019-10-30T11:09:47Z</time>
      </trkpt>
      <trkpt lat="45.003" lon="5.4347">
        <ele>737.1</ele>
        <time>2019-10-30T11:09:52Z</time>
      </trkpt>
      <trkpt lat="45.0029" lon="5.43526">
        <ele>729.2</ele>
        <time>2019-10-30T11:09:59Z</time>
      </trkpt>
      <trkpt lat="45.00284" lon="5.43541">
        <ele>726.9</ele>
        <time>2019-10-30T11:10:01Z</time>
      </trkpt>
      <trkpt lat="45.00268" lon="5.4356">
        <ele>723.6</ele>
        <time>2019-10-30T11:10:04Z</time>
      </trkpt>
      <trkpt lat="45.00232" lon="5.43576">
        <ele>715.6</ele>
        <time>2019-10-30T11:10:11Z</time>
      </trkpt>
      <trkpt lat="45.00233" lon="5.43588">
        <ele>714.1</ele>
        <time>2019-10-30T11:10:14Z</time>
      </trkpt>
      <trkpt lat="45.00238" lon="5.43596">
        <ele>713.1</ele>
        <time>2019-10-30T11:10:16Z</time>
      </trkpt>
      <trkpt lat="45.00265" lon="5.43618">
        <ele>710.8</ele>
        <time>2019-10-30T11:10:22Z</time>
      </trkpt>
      <trkpt lat="45.00263" lon="5.43626">
        <ele>708.3</ele>
        <time>2019-10-30T11:10:25Z</time>
      </trkpt>
      <trkpt lat="45.00247" lon="5.43631">
        <ele>705.3</ele>
        <time>2019-10-30T11:10:32Z</time>
      </trkpt>
      <trkpt lat="45.00208" lon="5.43622">
        <ele>701.4</ele>
        <time>2019-10-30T11:10:45Z</time>
      </trkpt>
      <trkpt lat="45.00166" lon="5.43606">
        <ele>695.7</ele>
        <time>2019-10-30T11:10:56Z</time>
      </trkpt>
      <trkpt lat="45.00158" lon="5.43606">
        <ele>695.4</ele>
        <time>2019-10-30T11:10:58Z</time>
      </trkpt>
      <trkpt lat="45.00116" lon="5.4359">
        <ele>694.5</ele>
        <time>2019-10-30T11:11:06Z</time>
      </trkpt>
      <trkpt lat="45.00087" lon="5.43575">
        <ele>692.7</ele>
        <time>2019-10-30T11:11:12Z</time>
      </trkpt>
      <trkpt lat="45.00082" lon="5.43565">
        <ele>692.2</ele>
        <time>2019-10-30T11:11:16Z</time>
      </trkpt>
      <trkpt lat="45.00077" lon="5.43559">
        <ele>693.9</ele>
        <time>2019-10-30T11:11:21Z</time>
      </trkpt>
      <trkpt lat="45.00058" lon="5.43522">
        <ele>698.4</ele>
        <time>2019-10-30T11:13:55Z</time>
      </trkpt>
      <trkpt lat="45.00049" lon="5.4351">
        <ele>701.1</ele>
        <time>2019-10-30T11:14:00Z</time>
      </trkpt>
      <trkpt lat="45.00014" lon="5.43437">
        <ele>706.5</ele>
        <time>2019-10-30T11:14:16Z</time>
      </trkpt>
      <trkpt lat="44.99989" lon="5.43393">
        <ele>707.9</ele>
        <time>2019-10-30T11:14:24Z</time>
      </trkpt>
      <trkpt lat="44.99968" lon="5.43339">
        <ele>709.5</ele>
        <time>2019-10-30T11:14:34Z</time>
      </trkpt>
      <trkpt lat="44.99926" lon="5.43269">
        <ele>712.3</ele>
        <time>2019-10-30T11:14:47Z</time>
      </trkpt>
      <trkpt lat="44.99909" lon="5.43223">
        <ele>709.8</ele>
        <time>2019-10-30T11:14:54Z</time>
      </trkpt>
      <trkpt lat="44.99901" lon="5.43153">
        <ele>702.2</ele>
        <time>2019-10-30T11:15:03Z</time>
      </trkpt>
      <trkpt lat="44.99901" lon="5.43109">
        <ele>700.1</ele>
        <time>2019-10-30T11:15:10Z</time>
      </trkpt>
      <trkpt lat="44.99893" lon="5.43034">
        <ele>704</ele>
        <time>2019-10-30T11:15:23Z</time>
      </trkpt>
      <trkpt lat="44.99889" lon="5.4302">
        <ele>706</ele>
        <time>2019-10-30T11:15:28Z</time>
      </trkpt>
      <trkpt lat="44.9988" lon="5.43004">
        <ele>709.1</ele>
        <time>2019-10-30T11:15:33Z</time>
      </trkpt>
      <trkpt lat="44.9986" lon="5.42984">
        <ele>716</ele>
        <time>2019-10-30T11:15:45Z</time>
      </trkpt>
      <trkpt lat="44.99858" lon="5.42974">
        <ele>717</ele>
        <time>2019-10-30T11:15:51Z</time>
      </trkpt>
      <trkpt lat="44.99891" lon="5.42925">
        <ele>717.2</ele>
        <time>2019-10-30T11:16:21Z</time>
      </trkpt>
      <trkpt lat="44.99916" lon="5.42901">
        <ele>717.5</ele>
        <time>2019-10-30T11:16:35Z</time>
      </trkpt>
      <trkpt lat="44.99924" lon="5.42885">
        <ele>716</ele>
        <time>2019-10-30T11:16:40Z</time>
      </trkpt>
      <trkpt lat="44.99927" lon="5.42872">
        <ele>715.8</ele>
        <time>2019-10-30T11:16:46Z</time>
      </trkpt>
      <trkpt lat="44.99924" lon="5.42867">
        <ele>716.7</ele>
        <time>2019-10-30T11:16:50Z</time>
      </trkpt>
      <trkpt lat="44.99915" lon="5.42867">
        <ele>718.4</ele>
        <time>2019-10-30T11:16:57Z</time>
      </trkpt>
      <trkpt lat="44.999" lon="5.42841">
        <ele>721.8</ele>
        <time>2019-10-30T11:17:55Z</time>
      </trkpt>
      <trkpt lat="44.99908" lon="5.42797">
        <ele>718.5</ele>
        <time>2019-10-30T11:18:10Z</time>
      </trkpt>
      <trkpt lat="44.99908" lon="5.42755">
        <ele>716.2</ele>
        <time>2019-10-30T11:18:19Z</time>
      </trkpt>
      <trkpt lat="44.999" lon="5.42734">
        <ele>714.1</ele>
        <time>2019-10-30T11:18:22Z</time>
      </trkpt>
      <trkpt lat="44.99878" lon="5.42704">
        <ele>714.4</ele>
        <time>2019-10-30T11:18:26Z</time>
      </trkpt>
      <trkpt lat="44.99847" lon="5.4268">
        <ele>720</ele>
        <time>2019-10-30T11:18:31Z</time>
      </trkpt>
      <trkpt lat="44.99826" lon="5.42659">
        <ele>722.6</ele>
        <time>2019-10-30T11:18:34Z</time>
      </trkpt>
      <trkpt lat="44.9982" lon="5.42649">
        <ele>722.3</ele>
        <time>2019-10-30T11:18:35Z</time>
      </trkpt>
      <trkpt lat="44.99811" lon="5.42624">
        <ele>719.4</ele>
        <time>2019-10-30T11:18:37Z</time>
      </trkpt>
      <trkpt lat="44.99806" lon="5.42558">
        <ele>709.7</ele>
        <time>2019-10-30T11:18:41Z</time>
      </trkpt>
      <trkpt lat="44.99781" lon="5.42373">
        <ele>700.8</ele>
        <time>2019-10-30T11:18:54Z</time>
      </trkpt>
      <trkpt lat="44.99764" lon="5.42333">
        <ele>701.3</ele>
        <time>2019-10-30T11:19:00Z</time>
      </trkpt>
      <trkpt lat="44.99754" lon="5.42323">
        <ele>702</ele>
        <time>2019-10-30T11:19:04Z</time>
      </trkpt>
      <trkpt lat="44.99736" lon="5.42274">
        <ele>704.3</ele>
        <time>2019-10-30T11:19:22Z</time>
      </trkpt>
      <trkpt lat="44.99706" lon="5.42238">
        <ele>707.2</ele>
        <time>2019-10-30T11:19:40Z</time>
      </trkpt>
      <trkpt lat="44.99683" lon="5.42221">
        <ele>709.1</ele>
        <time>2019-10-30T11:19:52Z</time>
      </trkpt>
      <trkpt lat="44.99637" lon="5.42166">
        <ele>709.3</ele>
        <time>2019-10-30T11:20:12Z</time>
      </trkpt>
      <trkpt lat="44.99595" lon="5.42159">
        <ele>708.8</ele>
        <time>2019-10-30T11:20:26Z</time>
      </trkpt>
      <trkpt lat="44.99564" lon="5.42161">
        <ele>709.8</ele>
        <time>2019-10-30T11:20:37Z</time>
      </trkpt>
      <trkpt lat="44.99543" lon="5.42155">
        <ele>711.8</ele>
        <time>2019-10-30T11:20:44Z</time>
      </trkpt>
      <trkpt lat="44.99523" lon="5.4216">
        <ele>712.8</ele>
        <time>2019-10-30T11:20:57Z</time>
      </trkpt>
      <trkpt lat="44.99522" lon="5.42143">
        <ele>714.3</ele>
        <time>2019-10-30T11:23:33Z</time>
      </trkpt>
      <trkpt lat="44.99533" lon="5.42133">
        <ele>714.3</ele>
        <time>2019-10-30T11:23:43Z</time>
      </trkpt>
      <trkpt lat="44.99533" lon="5.4213">
        <ele>714.6</ele>
        <time>2019-10-30T11:23:47Z</time>
      </trkpt>
      <trkpt lat="44.99498" lon="5.4209">
        <ele>720.7</ele>
        <time>2019-10-30T11:24:16Z</time>
      </trkpt>
      <trkpt lat="44.99443" lon="5.42069">
        <ele>727</ele>
        <time>2019-10-30T11:24:46Z</time>
      </trkpt>
      <trkpt lat="44.9943" lon="5.42061">
        <ele>728.3</ele>
        <time>2019-10-30T11:24:55Z</time>
      </trkpt>
      <trkpt lat="44.99368" lon="5.42003">
        <ele>734</ele>
        <time>2019-10-30T11:25:31Z</time>
      </trkpt>
      <trkpt lat="44.99349" lon="5.41964">
        <ele>735.4</ele>
        <time>2019-10-30T11:25:42Z</time>
      </trkpt>
      <trkpt lat="44.99324" lon="5.41928">
        <ele>736.9</ele>
        <time>2019-10-30T11:25:56Z</time>
      </trkpt>
      <trkpt lat="44.99295" lon="5.41908">
        <ele>739.3</ele>
        <time>2019-10-30T11:26:06Z</time>
      </trkpt>
      <trkpt lat="44.99288" lon="5.41906">
        <ele>740</ele>
        <time>2019-10-30T11:26:08Z</time>
      </trkpt>
      <trkpt lat="44.99248" lon="5.41912">
        <ele>743.2</ele>
        <time>2019-10-30T11:26:21Z</time>
      </trkpt>
      <trkpt lat="44.99224" lon="5.41907">
        <ele>744.7</ele>
        <time>2019-10-30T11:26:29Z</time>
      </trkpt>
      <trkpt lat="44.99206" lon="5.41886">
        <ele>746.2</ele>
        <time>2019-10-30T11:26:37Z</time>
      </trkpt>
      <trkpt lat="44.99188" lon="5.41855">
        <ele>748</ele>
        <time>2019-10-30T11:26:47Z</time>
      </trkpt>
      <trkpt lat="44.99138" lon="5.41811">
        <ele>754.5</ele>
        <time>2019-10-30T11:27:09Z</time>
      </trkpt>
      <trkpt lat="44.99112" lon="5.41782">
        <ele>758.1</ele>
        <time>2019-10-30T11:27:24Z</time>
      </trkpt>
      <trkpt lat="44.99086" lon="5.41762">
        <ele>760.8</ele>
        <time>2019-10-30T11:27:38Z</time>
      </trkpt>
      <trkpt lat="44.99077" lon="5.41761">
        <ele>762.1</ele>
        <time>2019-10-30T11:27:43Z</time>
      </trkpt>
      <trkpt lat="44.99004" lon="5.41732">
        <ele>774.6</ele>
        <time>2019-10-30T11:28:20Z</time>
      </trkpt>
      <trkpt lat="44.98958" lon="5.41721">
        <ele>781.3</ele>
        <time>2019-10-30T11:28:42Z</time>
      </trkpt>
      <trkpt lat="44.98937" lon="5.41723">
        <ele>783.8</ele>
        <time>2019-10-30T11:28:52Z</time>
      </trkpt>
      <trkpt lat="44.98909" lon="5.41719">
        <ele>787.3</ele>
        <time>2019-10-30T11:29:05Z</time>
      </trkpt>
      <trkpt lat="44.98903" lon="5.41705">
        <ele>788.6</ele>
        <time>2019-10-30T11:29:11Z</time>
      </trkpt>
      <trkpt lat="44.98894" lon="5.41697">
        <ele>789.9</ele>
        <time>2019-10-30T11:29:16Z</time>
      </trkpt>
      <trkpt lat="44.9889" lon="5.41661">
        <ele>792.3</ele>
        <time>2019-10-30T11:29:27Z</time>
      </trkpt>
      <trkpt lat="44.98896" lon="5.4162">
        <ele>794.9</ele>
        <time>2019-10-30T11:29:40Z</time>
      </trkpt>
      <trkpt lat="44.98884" lon="5.41575">
        <ele>800.6</ele>
        <time>2019-10-30T11:30:00Z</time>
      </trkpt>
      <trkpt lat="44.98899" lon="5.41481">
        <ele>811.6</ele>
        <time>2019-10-30T11:30:33Z</time>
      </trkpt>
      <trkpt lat="44.98913" lon="5.41456">
        <ele>811.8</ele>
        <time>2019-10-30T11:30:43Z</time>
      </trkpt>
      <trkpt lat="44.98915" lon="5.41447">
        <ele>812.4</ele>
        <time>2019-10-30T11:30:47Z</time>
      </trkpt>
      <trkpt lat="44.98913" lon="5.41432">
        <ele>814.1</ele>
        <time>2019-10-30T11:30:53Z</time>
      </trkpt>
      <trkpt lat="44.98915" lon="5.41423">
        <ele>814.6</ele>
        <time>2019-10-30T11:30:56Z</time>
      </trkpt>
      <trkpt lat="44.98914" lon="5.4141">
        <ele>815.8</ele>
        <time>2019-10-30T11:31:01Z</time>
      </trkpt>
      <trkpt lat="44.989" lon="5.41375">
        <ele>819.6</ele>
        <time>2019-10-30T11:31:16Z</time>
      </trkpt>
      <trkpt lat="44.98885" lon="5.41362">
        <ele>822.9</ele>
        <time>2019-10-30T11:31:23Z</time>
      </trkpt>
      <trkpt lat="44.9887" lon="5.41345">
        <ele>826.2</ele>
        <time>2019-10-30T11:31:30Z</time>
      </trkpt>
      <trkpt lat="44.98853" lon="5.41316">
        <ele>829.8</ele>
        <time>2019-10-30T11:31:41Z</time>
      </trkpt>
      <trkpt lat="44.9884" lon="5.413">
        <ele>831.9</ele>
        <time>2019-10-30T11:31:49Z</time>
      </trkpt>
      <trkpt lat="44.98811" lon="5.41282">
        <ele>837.5</ele>
        <time>2019-10-30T11:32:03Z</time>
      </trkpt>
      <trkpt lat="44.98761" lon="5.41284">
        <ele>847.8</ele>
        <time>2019-10-30T11:32:25Z</time>
      </trkpt>
      <trkpt lat="44.98749" lon="5.41279">
        <ele>849.9</ele>
        <time>2019-10-30T11:32:33Z</time>
      </trkpt>
      <trkpt lat="44.98708" lon="5.41253">
        <ele>858.1</ele>
        <time>2019-10-30T11:32:52Z</time>
      </trkpt>
      <trkpt lat="44.98696" lon="5.41241">
        <ele>860.4</ele>
        <time>2019-10-30T11:32:58Z</time>
      </trkpt>
      <trkpt lat="44.98685" lon="5.41222">
        <ele>861.7</ele>
        <time>2019-10-30T11:33:05Z</time>
      </trkpt>
      <trkpt lat="44.98675" lon="5.41191">
        <ele>861.5</ele>
        <time>2019-10-30T11:33:14Z</time>
      </trkpt>
      <trkpt lat="44.98666" lon="5.41175">
        <ele>861.8</ele>
        <time>2019-10-30T11:33:19Z</time>
      </trkpt>
      <trkpt lat="44.98655" lon="5.41164">
        <ele>862.9</ele>
        <time>2019-10-30T11:33:24Z</time>
      </trkpt>
      <trkpt lat="44.98636" lon="5.41154">
        <ele>865.7</ele>
        <time>2019-10-30T11:33:32Z</time>
      </trkpt>
      <trkpt lat="44.98613" lon="5.41135">
        <ele>868.6</ele>
        <time>2019-10-30T11:33:43Z</time>
      </trkpt>
      <trkpt lat="44.98579" lon="5.41097">
        <ele>872.5</ele>
        <time>2019-10-30T11:33:59Z</time>
      </trkpt>
      <trkpt lat="44.98539" lon="5.41046">
        <ele>875.7</ele>
        <time>2019-10-30T11:34:16Z</time>
      </trkpt>
      <trkpt lat="44.98523" lon="5.41018">
        <ele>876.1</ele>
        <time>2019-10-30T11:34:24Z</time>
      </trkpt>
      <trkpt lat="44.98479" lon="5.40987">
        <ele>877.6</ele>
        <time>2019-10-30T11:34:35Z</time>
      </trkpt>
      <trkpt lat="44.98473" lon="5.4098">
        <ele>877.2</ele>
        <time>2019-10-30T11:34:37Z</time>
      </trkpt>
      <trkpt lat="44.98445" lon="5.40956">
        <ele>876.7</ele>
        <time>2019-10-30T11:34:45Z</time>
      </trkpt>
      <trkpt lat="44.9837" lon="5.40902">
        <ele>877.3</ele>
        <time>2019-10-30T11:35:00Z</time>
      </trkpt>
      <trkpt lat="44.98356" lon="5.40897">
        <ele>877.8</ele>
        <time>2019-10-30T11:35:03Z</time>
      </trkpt>
      <trkpt lat="44.98315" lon="5.40891">
        <ele>878.4</ele>
        <time>2019-10-30T11:35:10Z</time>
      </trkpt>
      <trkpt lat="44.98231" lon="5.40857">
        <ele>874.6</ele>
        <time>2019-10-30T11:35:27Z</time>
      </trkpt>
      <trkpt lat="44.9822" lon="5.40848">
        <ele>873.7</ele>
        <time>2019-10-30T11:35:29Z</time>
      </trkpt>
      <trkpt lat="44.98213" lon="5.40837">
        <ele>872.9</ele>
        <time>2019-10-30T11:35:31Z</time>
      </trkpt>
      <trkpt lat="44.98194" lon="5.40787">
        <ele>873.3</ele>
        <time>2019-10-30T11:35:41Z</time>
      </trkpt>
      <trkpt lat="44.98193" lon="5.40778">
        <ele>873.6</ele>
        <time>2019-10-30T11:35:43Z</time>
      </trkpt>
      <trkpt lat="44.98184" lon="5.40757">
        <ele>874.1</ele>
        <time>2019-10-30T11:35:48Z</time>
      </trkpt>
      <trkpt lat="44.98172" lon="5.40747">
        <ele>874.1</ele>
        <time>2019-10-30T11:35:52Z</time>
      </trkpt>
      <trkpt lat="44.9814" lon="5.40729">
        <ele>877.5</ele>
        <time>2019-10-30T11:36:02Z</time>
      </trkpt>
      <trkpt lat="44.9812" lon="5.40695">
        <ele>879.8</ele>
        <time>2019-10-30T11:36:15Z</time>
      </trkpt>
      <trkpt lat="44.98061" lon="5.40642">
        <ele>883.8</ele>
        <time>2019-10-30T11:36:52Z</time>
      </trkpt>
      <trkpt lat="44.98021" lon="5.40614">
        <ele>885</ele>
        <time>2019-10-30T11:37:04Z</time>
      </trkpt>
      <trkpt lat="44.98" lon="5.40595">
        <ele>885.2</ele>
        <time>2019-10-30T11:37:16Z</time>
      </trkpt>
      <trkpt lat="44.97984" lon="5.40588">
        <ele>884.9</ele>
        <time>2019-10-30T11:37:22Z</time>
      </trkpt>
      <trkpt lat="44.9797" lon="5.40576">
        <ele>883.8</ele>
        <time>2019-10-30T11:37:31Z</time>
      </trkpt>
      <trkpt lat="44.97917" lon="5.40555">
        <ele>882.6</ele>
        <time>2019-10-30T11:37:54Z</time>
      </trkpt>
      <trkpt lat="44.97884" lon="5.40552">
        <ele>881.4</ele>
        <time>2019-10-30T11:38:05Z</time>
      </trkpt>
      <trkpt lat="44.97864" lon="5.40558">
        <ele>881.5</ele>
        <time>2019-10-30T11:38:12Z</time>
      </trkpt>
      <trkpt lat="44.97852" lon="5.40567">
        <ele>882</ele>
        <time>2019-10-30T11:38:16Z</time>
      </trkpt>
      <trkpt lat="44.97843" lon="5.40581">
        <ele>883.1</ele>
        <time>2019-10-30T11:38:22Z</time>
      </trkpt>
      <trkpt lat="44.97842" lon="5.4061">
        <ele>885.3</ele>
        <time>2019-10-30T11:38:35Z</time>
      </trkpt>
      <trkpt lat="44.97856" lon="5.40632">
        <ele>887.6</ele>
        <time>2019-10-30T11:38:47Z</time>
      </trkpt>
      <trkpt lat="44.97866" lon="5.4066">
        <ele>890.4</ele>
        <time>2019-10-30T11:38:56Z</time>
      </trkpt>
      <trkpt lat="44.97877" lon="5.40714">
        <ele>892.5</ele>
        <time>2019-10-30T11:39:10Z</time>
      </trkpt>
      <trkpt lat="44.97879" lon="5.40743">
        <ele>893.2</ele>
        <time>2019-10-30T11:39:17Z</time>
      </trkpt>
      <trkpt lat="44.97888" lon="5.40776">
        <ele>895.3</ele>
        <time>2019-10-30T11:39:28Z</time>
      </trkpt>
      <trkpt lat="44.97887" lon="5.40792">
        <ele>896.1</ele>
        <time>2019-10-30T11:39:31Z</time>
      </trkpt>
      <trkpt lat="44.97912" lon="5.40865">
        <ele>899.7</ele>
        <time>2019-10-30T11:39:48Z</time>
      </trkpt>
      <trkpt lat="44.97911" lon="5.40873">
        <ele>899.8</ele>
        <time>2019-10-30T11:39:50Z</time>
      </trkpt>
      <trkpt lat="44.97916" lon="5.40889">
        <ele>900.3</ele>
        <time>2019-10-30T11:39:55Z</time>
      </trkpt>
      <trkpt lat="44.97924" lon="5.40943">
        <ele>901.6</ele>
        <time>2019-10-30T11:40:06Z</time>
      </trkpt>
      <trkpt lat="44.97929" lon="5.41033">
        <ele>906.4</ele>
        <time>2019-10-30T11:40:23Z</time>
      </trkpt>
      <trkpt lat="44.97926" lon="5.41069">
        <ele>909.2</ele>
        <time>2019-10-30T11:40:29Z</time>
      </trkpt>
      <trkpt lat="44.97926" lon="5.41102">
        <ele>910.9</ele>
        <time>2019-10-30T11:40:35Z</time>
      </trkpt>
      <trkpt lat="44.97924" lon="5.41128">
        <ele>912</ele>
        <time>2019-10-30T11:40:39Z</time>
      </trkpt>
      <trkpt lat="44.97924" lon="5.41152">
        <ele>912.8</ele>
        <time>2019-10-30T11:40:43Z</time>
      </trkpt>
      <trkpt lat="44.9792" lon="5.41177">
        <ele>914.2</ele>
        <time>2019-10-30T11:40:48Z</time>
      </trkpt>
      <trkpt lat="44.97908" lon="5.4119">
        <ele>914.9</ele>
        <time>2019-10-30T11:40:52Z</time>
      </trkpt>
      <trkpt lat="44.97878" lon="5.41204">
        <ele>914.9</ele>
        <time>2019-10-30T11:40:58Z</time>
      </trkpt>
      <trkpt lat="44.97854" lon="5.41209">
        <ele>914.4</ele>
        <time>2019-10-30T11:41:02Z</time>
      </trkpt>
      <trkpt lat="44.97786" lon="5.41232">
        <ele>914.1</ele>
        <time>2019-10-30T11:41:13Z</time>
      </trkpt>
      <trkpt lat="44.97729" lon="5.41242">
        <ele>912.8</ele>
        <time>2019-10-30T11:41:23Z</time>
      </trkpt>
      <trkpt lat="44.97668" lon="5.41237">
        <ele>909.1</ele>
        <time>2019-10-30T11:41:33Z</time>
      </trkpt>
      <trkpt lat="44.97574" lon="5.41247">
        <ele>900.4</ele>
        <time>2019-10-30T11:41:45Z</time>
      </trkpt>
      <trkpt lat="44.97562" lon="5.41254">
        <ele>899.1</ele>
        <time>2019-10-30T11:41:47Z</time>
      </trkpt>
      <trkpt lat="44.97556" lon="5.41267">
        <ele>898.5</ele>
        <time>2019-10-30T11:41:49Z</time>
      </trkpt>
      <trkpt lat="44.9755" lon="5.41304">
        <ele>899</ele>
        <time>2019-10-30T11:41:53Z</time>
      </trkpt>
      <trkpt lat="44.97539" lon="5.41317">
        <ele>898.6</ele>
        <time>2019-10-30T11:41:55Z</time>
      </trkpt>
      <trkpt lat="44.97492" lon="5.41346">
        <ele>898.1</ele>
        <time>2019-10-30T11:42:03Z</time>
      </trkpt>
      <trkpt lat="44.97478" lon="5.41351">
        <ele>898.2</ele>
        <time>2019-10-30T11:42:05Z</time>
      </trkpt>
      <trkpt lat="44.9739" lon="5.41361">
        <ele>895.8</ele>
        <time>2019-10-30T11:42:21Z</time>
      </trkpt>
      <trkpt lat="44.97361" lon="5.4136">
        <ele>894.9</ele>
        <time>2019-10-30T11:42:25Z</time>
      </trkpt>
      <trkpt lat="44.97318" lon="5.41372">
        <ele>895.4</ele>
        <time>2019-10-30T11:42:35Z</time>
      </trkpt>
      <trkpt lat="44.97263" lon="5.41369">
        <ele>898.9</ele>
        <time>2019-10-30T11:42:48Z</time>
      </trkpt>
      <trkpt lat="44.97257" lon="5.41372">
        <ele>899.4</ele>
        <time>2019-10-30T11:42:51Z</time>
      </trkpt>
      <trkpt lat="44.9722" lon="5.41422">
        <ele>901.8</ele>
        <time>2019-10-30T11:43:08Z</time>
      </trkpt>
      <trkpt lat="44.97151" lon="5.41499">
        <ele>904.8</ele>
        <time>2019-10-30T11:43:29Z</time>
      </trkpt>
      <trkpt lat="44.97142" lon="5.41498">
        <ele>904.6</ele>
        <time>2019-10-30T11:43:31Z</time>
      </trkpt>
      <trkpt lat="44.97084" lon="5.41455">
        <ele>902.4</ele>
        <time>2019-10-30T11:43:42Z</time>
      </trkpt>
      <trkpt lat="44.9706" lon="5.41446">
        <ele>902.3</ele>
        <time>2019-10-30T11:43:46Z</time>
      </trkpt>
      <trkpt lat="44.97026" lon="5.41443">
        <ele>902.4</ele>
        <time>2019-10-30T11:43:52Z</time>
      </trkpt>
      <trkpt lat="44.97015" lon="5.41445">
        <ele>902.6</ele>
        <time>2019-10-30T11:43:54Z</time>
      </trkpt>
      <trkpt lat="44.97009" lon="5.41454">
        <ele>902.8</ele>
        <time>2019-10-30T11:43:56Z</time>
      </trkpt>
      <trkpt lat="44.97002" lon="5.41592">
        <ele>904.3</ele>
        <time>2019-10-30T11:44:18Z</time>
      </trkpt>
      <trkpt lat="44.96996" lon="5.41597">
        <ele>904.1</ele>
        <time>2019-10-30T11:44:20Z</time>
      </trkpt>
      <trkpt lat="44.96891" lon="5.4155">
        <ele>898.2</ele>
        <time>2019-10-30T11:44:37Z</time>
      </trkpt>
      <trkpt lat="44.96873" lon="5.41547">
        <ele>896.9</ele>
        <time>2019-10-30T11:44:39Z</time>
      </trkpt>
      <trkpt lat="44.96856" lon="5.41549">
        <ele>895.6</ele>
        <time>2019-10-30T11:44:41Z</time>
      </trkpt>
      <trkpt lat="44.96827" lon="5.41565">
        <ele>893.5</ele>
        <time>2019-10-30T11:44:45Z</time>
      </trkpt>
      <trkpt lat="44.96813" lon="5.4158">
        <ele>892.5</ele>
        <time>2019-10-30T11:44:48Z</time>
      </trkpt>
      <trkpt lat="44.96803" lon="5.41584">
        <ele>891.8</ele>
        <time>2019-10-30T11:44:50Z</time>
      </trkpt>
      <trkpt lat="44.96769" lon="5.41571">
        <ele>888.9</ele>
        <time>2019-10-30T11:44:58Z</time>
      </trkpt>
      <trkpt lat="44.96775" lon="5.41567">
        <ele>889.3</ele>
        <time>2019-10-30T11:46:15Z</time>
      </trkpt>
      <trkpt lat="44.96778" lon="5.41557">
        <ele>889.2</ele>
        <time>2019-10-30T11:46:18Z</time>
      </trkpt>
      <trkpt lat="44.96774" lon="5.41514">
        <ele>887.3</ele>
        <time>2019-10-30T11:46:29Z</time>
      </trkpt>
      <trkpt lat="44.96765" lon="5.41506">
        <ele>886</ele>
        <time>2019-10-30T11:46:34Z</time>
      </trkpt>
      <trkpt lat="44.96763" lon="5.41511">
        <ele>886</ele>
        <time>2019-10-30T12:07:19Z</time>
      </trkpt>
      <trkpt lat="44.968" lon="5.41461">
        <ele>888.4</ele>
        <time>2019-10-30T12:07:20Z</time>
      </trkpt>
      <trkpt lat="44.96798" lon="5.41461">
        <ele>888.1</ele>
        <time>2019-10-30T12:07:25Z</time>
      </trkpt>
      <trkpt lat="44.96766" lon="5.41549">
        <ele>887.8</ele>
        <time>2019-10-30T13:22:40Z</time>
      </trkpt>
      <trkpt lat="44.96764" lon="5.41511">
        <ele>886.1</ele>
        <time>2019-10-30T13:24:55Z</time>
      </trkpt>
      <trkpt lat="44.96775" lon="5.41475">
        <ele>885.9</ele>
        <time>2019-10-30T13:25:04Z</time>
      </trkpt>
      <trkpt lat="44.968" lon="5.41408">
        <ele>886.2</ele>
        <time>2019-10-30T13:25:16Z</time>
      </trkpt>
      <trkpt lat="44.96815" lon="5.4135">
        <ele>885.7</ele>
        <time>2019-10-30T13:25:24Z</time>
      </trkpt>
      <trkpt lat="44.96831" lon="5.41258">
        <ele>881.5</ele>
        <time>2019-10-30T13:25:35Z</time>
      </trkpt>
      <trkpt lat="44.96857" lon="5.4117">
        <ele>875.9</ele>
        <time>2019-10-30T13:25:44Z</time>
      </trkpt>
      <trkpt lat="44.96879" lon="5.41123">
        <ele>871.6</ele>
        <time>2019-10-30T13:25:48Z</time>
      </trkpt>
      <trkpt lat="44.96899" lon="5.41096">
        <ele>868.6</ele>
        <time>2019-10-30T13:25:51Z</time>
      </trkpt>
      <trkpt lat="44.96927" lon="5.41037">
        <ele>865.7</ele>
        <time>2019-10-30T13:25:56Z</time>
      </trkpt>
      <trkpt lat="44.96929" lon="5.41024">
        <ele>865.3</ele>
        <time>2019-10-30T13:25:57Z</time>
      </trkpt>
      <trkpt lat="44.96927" lon="5.40985">
        <ele>863.8</ele>
        <time>2019-10-30T13:26:00Z</time>
      </trkpt>
      <trkpt lat="44.9693" lon="5.40949">
        <ele>863.6</ele>
        <time>2019-10-30T13:26:03Z</time>
      </trkpt>
      <trkpt lat="44.96932" lon="5.40867">
        <ele>859.3</ele>
        <time>2019-10-30T13:26:10Z</time>
      </trkpt>
      <trkpt lat="44.96926" lon="5.40809">
        <ele>854.6</ele>
        <time>2019-10-30T13:26:16Z</time>
      </trkpt>
      <trkpt lat="44.96926" lon="5.40775">
        <ele>851.9</ele>
        <time>2019-10-30T13:26:20Z</time>
      </trkpt>
      <trkpt lat="44.96933" lon="5.40718">
        <ele>846.8</ele>
        <time>2019-10-30T13:26:26Z</time>
      </trkpt>
      <trkpt lat="44.96926" lon="5.40601">
        <ele>837.7</ele>
        <time>2019-10-30T13:26:37Z</time>
      </trkpt>
      <trkpt lat="44.96927" lon="5.40528">
        <ele>835.2</ele>
        <time>2019-10-30T13:26:44Z</time>
      </trkpt>
      <trkpt lat="44.9693" lon="5.40498">
        <ele>834.3</ele>
        <time>2019-10-30T13:26:47Z</time>
      </trkpt>
      <trkpt lat="44.9694" lon="5.40452">
        <ele>832.6</ele>
        <time>2019-10-30T13:26:52Z</time>
      </trkpt>
      <trkpt lat="44.96949" lon="5.40439">
        <ele>832.1</ele>
        <time>2019-10-30T13:26:54Z</time>
      </trkpt>
      <trkpt lat="44.97005" lon="5.40397">
        <ele>829.9</ele>
        <time>2019-10-30T13:27:03Z</time>
      </trkpt>
      <trkpt lat="44.97019" lon="5.4038">
        <ele>828.5</ele>
        <time>2019-10-30T13:27:06Z</time>
      </trkpt>
      <trkpt lat="44.97033" lon="5.40329">
        <ele>825.8</ele>
        <time>2019-10-30T13:27:12Z</time>
      </trkpt>
      <trkpt lat="44.97048" lon="5.40254">
        <ele>825.3</ele>
        <time>2019-10-30T13:27:21Z</time>
      </trkpt>
      <trkpt lat="44.97059" lon="5.40223">
        <ele>825.7</ele>
        <time>2019-10-30T13:27:25Z</time>
      </trkpt>
      <trkpt lat="44.97071" lon="5.40175">
        <ele>827</ele>
        <time>2019-10-30T13:27:32Z</time>
      </trkpt>
      <trkpt lat="44.97086" lon="5.40138">
        <ele>826.9</ele>
        <time>2019-10-30T13:27:42Z</time>
      </trkpt>
      <trkpt lat="44.9709" lon="5.40135">
        <ele>826.8</ele>
        <time>2019-10-30T13:27:46Z</time>
      </trkpt>
      <trkpt lat="44.9709" lon="5.4013">
        <ele>826.8</ele>
        <time>2019-10-30T13:27:52Z</time>
      </trkpt>
      <trkpt lat="44.97232" lon="5.40215">
        <ele>822.7</ele>
        <time>2019-10-30T13:30:28Z</time>
      </trkpt>
      <trkpt lat="44.97255" lon="5.40231">
        <ele>822.2</ele>
        <time>2019-10-30T13:30:33Z</time>
      </trkpt>
      <trkpt lat="44.97297" lon="5.40246">
        <ele>822</ele>
        <time>2019-10-30T13:30:40Z</time>
      </trkpt>
      <trkpt lat="44.97349" lon="5.40283">
        <ele>823.9</ele>
        <time>2019-10-30T13:30:52Z</time>
      </trkpt>
      <trkpt lat="44.97366" lon="5.4028">
        <ele>824.1</ele>
        <time>2019-10-30T13:30:59Z</time>
      </trkpt>
      <trkpt lat="44.97448" lon="5.40201">
        <ele>825.8</ele>
        <time>2019-10-30T13:31:17Z</time>
      </trkpt>
      <trkpt lat="44.97479" lon="5.40163">
        <ele>826.9</ele>
        <time>2019-10-30T13:31:25Z</time>
      </trkpt>
      <trkpt lat="44.97482" lon="5.4015">
        <ele>826.9</ele>
        <time>2019-10-30T13:31:27Z</time>
      </trkpt>
      <trkpt lat="44.9748" lon="5.40137">
        <ele>826.8</ele>
        <time>2019-10-30T13:31:29Z</time>
      </trkpt>
      <trkpt lat="44.97467" lon="5.401">
        <ele>826.4</ele>
        <time>2019-10-30T13:31:35Z</time>
      </trkpt>
      <trkpt lat="44.97457" lon="5.40083">
        <ele>826.5</ele>
        <time>2019-10-30T13:31:38Z</time>
      </trkpt>
      <trkpt lat="44.97447" lon="5.40078">
        <ele>827.3</ele>
        <time>2019-10-30T13:31:40Z</time>
      </trkpt>
      <trkpt lat="44.97412" lon="5.40082">
        <ele>827.4</ele>
        <time>2019-10-30T13:31:47Z</time>
      </trkpt>
      <trkpt lat="44.97402" lon="5.4008">
        <ele>827.9</ele>
        <time>2019-10-30T13:31:49Z</time>
      </trkpt>
      <trkpt lat="44.97386" lon="5.40068">
        <ele>829.9</ele>
        <time>2019-10-30T13:31:53Z</time>
      </trkpt>
      <trkpt lat="44.97369" lon="5.40049">
        <ele>832.8</ele>
        <time>2019-10-30T13:31:58Z</time>
      </trkpt>
      <trkpt lat="44.97364" lon="5.40039">
        <ele>834.1</ele>
        <time>2019-10-30T13:32:00Z</time>
      </trkpt>
      <trkpt lat="44.97365" lon="5.40028">
        <ele>835.6</ele>
        <time>2019-10-30T13:32:02Z</time>
      </trkpt>
      <trkpt lat="44.97369" lon="5.40019">
        <ele>836.9</ele>
        <time>2019-10-30T13:32:04Z</time>
      </trkpt>
      <trkpt lat="44.97406" lon="5.40006">
        <ele>838.9</ele>
        <time>2019-10-30T13:32:13Z</time>
      </trkpt>
      <trkpt lat="44.97439" lon="5.39983">
        <ele>841.6</ele>
        <time>2019-10-30T13:32:23Z</time>
      </trkpt>
      <trkpt lat="44.97468" lon="5.39971">
        <ele>841.2</ele>
        <time>2019-10-30T13:32:32Z</time>
      </trkpt>
      <trkpt lat="44.97482" lon="5.39959">
        <ele>842.4</ele>
        <time>2019-10-30T13:32:37Z</time>
      </trkpt>
      <trkpt lat="44.97497" lon="5.39936">
        <ele>845.9</ele>
        <time>2019-10-30T13:32:43Z</time>
      </trkpt>
      <trkpt lat="44.97513" lon="5.39917">
        <ele>848.5</ele>
        <time>2019-10-30T13:32:48Z</time>
      </trkpt>
      <trkpt lat="44.97583" lon="5.39851">
        <ele>865.4</ele>
        <time>2019-10-30T13:33:13Z</time>
      </trkpt>
      <trkpt lat="44.976" lon="5.39842">
        <ele>865.4</ele>
        <time>2019-10-30T13:33:20Z</time>
      </trkpt>
      <trkpt lat="44.9766" lon="5.39795">
        <ele>872.8</ele>
        <time>2019-10-30T13:33:45Z</time>
      </trkpt>
      <trkpt lat="44.977" lon="5.39788">
        <ele>872.9</ele>
        <time>2019-10-30T13:33:55Z</time>
      </trkpt>
      <trkpt lat="44.97837" lon="5.39749">
        <ele>876.2</ele>
        <time>2019-10-30T13:34:35Z</time>
      </trkpt>
      <trkpt lat="44.97876" lon="5.39742">
        <ele>876.9</ele>
        <time>2019-10-30T13:34:48Z</time>
      </trkpt>
      <trkpt lat="44.97893" lon="5.39732">
        <ele>879.1</ele>
        <time>2019-10-30T13:34:54Z</time>
      </trkpt>
      <trkpt lat="44.97956" lon="5.39644">
        <ele>896.8</ele>
        <time>2019-10-30T13:35:29Z</time>
      </trkpt>
      <trkpt lat="44.98018" lon="5.39587">
        <ele>903</ele>
        <time>2019-10-30T13:35:55Z</time>
      </trkpt>
      <trkpt lat="44.98039" lon="5.39572">
        <ele>907.8</ele>
        <time>2019-10-30T13:36:05Z</time>
      </trkpt>
      <trkpt lat="44.98037" lon="5.39568">
        <ele>909.6</ele>
        <time>2019-10-30T13:36:07Z</time>
      </trkpt>
      <trkpt lat="44.9802" lon="5.39566">
        <ele>910.6</ele>
        <time>2019-10-30T13:36:17Z</time>
      </trkpt>
      <trkpt lat="44.9799" lon="5.39577">
        <ele>908.9</ele>
        <time>2019-10-30T13:36:38Z</time>
      </trkpt>
      <trkpt lat="44.97966" lon="5.3958">
        <ele>912.9</ele>
        <time>2019-10-30T13:36:53Z</time>
      </trkpt>
      <trkpt lat="44.97926" lon="5.39592">
        <ele>917.3</ele>
        <time>2019-10-30T13:37:26Z</time>
      </trkpt>
      <trkpt lat="44.97883" lon="5.39628">
        <ele>916.8</ele>
        <time>2019-10-30T13:37:37Z</time>
      </trkpt>
      <trkpt lat="44.97842" lon="5.39637">
        <ele>924.1</ele>
        <time>2019-10-30T13:37:45Z</time>
      </trkpt>
      <trkpt lat="44.97804" lon="5.39635">
        <ele>932</ele>
        <time>2019-10-30T13:37:55Z</time>
      </trkpt>
      <trkpt lat="44.97794" lon="5.39632">
        <ele>935.1</ele>
        <time>2019-10-30T13:38:00Z</time>
      </trkpt>
      <trkpt lat="44.97768" lon="5.39632">
        <ele>939.7</ele>
        <time>2019-10-30T13:38:10Z</time>
      </trkpt>
      <trkpt lat="44.97749" lon="5.39636">
        <ele>940.4</ele>
        <time>2019-10-30T13:38:16Z</time>
      </trkpt>
      <trkpt lat="44.97743" lon="5.39631">
        <ele>943.5</ele>
        <time>2019-10-30T13:38:20Z</time>
      </trkpt>
      <trkpt lat="44.97763" lon="5.39623">
        <ele>945.2</ele>
        <time>2019-10-30T13:38:33Z</time>
      </trkpt>
      <trkpt lat="44.97786" lon="5.39626">
        <ele>939.2</ele>
        <time>2019-10-30T13:38:44Z</time>
      </trkpt>
      <trkpt lat="44.97802" lon="5.39622">
        <ele>938.2</ele>
        <time>2019-10-30T13:38:51Z</time>
      </trkpt>
      <trkpt lat="44.97826" lon="5.39608">
        <ele>939.5</ele>
        <time>2019-10-30T13:39:03Z</time>
      </trkpt>
      <trkpt lat="44.97846" lon="5.3959">
        <ele>941.6</ele>
        <time>2019-10-30T13:39:13Z</time>
      </trkpt>
      <trkpt lat="44.97867" lon="5.39558">
        <ele>949.4</ele>
        <time>2019-10-30T13:39:28Z</time>
      </trkpt>
      <trkpt lat="44.97913" lon="5.39519">
        <ele>952.8</ele>
        <time>2019-10-30T13:39:49Z</time>
      </trkpt>
      <trkpt lat="44.97929" lon="5.39498">
        <ele>957.7</ele>
        <time>2019-10-30T13:39:57Z</time>
      </trkpt>
      <trkpt lat="44.97983" lon="5.39459">
        <ele>962.3</ele>
        <time>2019-10-30T13:40:20Z</time>
      </trkpt>
      <trkpt lat="44.9801" lon="5.39434">
        <ele>969.4</ele>
        <time>2019-10-30T13:40:35Z</time>
      </trkpt>
      <trkpt lat="44.98034" lon="5.39422">
        <ele>973.2</ele>
        <time>2019-10-30T13:40:49Z</time>
      </trkpt>
      <trkpt lat="44.98081" lon="5.39406">
        <ele>976.2</ele>
        <time>2019-10-30T13:41:13Z</time>
      </trkpt>
      <trkpt lat="44.98126" lon="5.39402">
        <ele>982.7</ele>
        <time>2019-10-30T13:41:33Z</time>
      </trkpt>
      <trkpt lat="44.98176" lon="5.39404">
        <ele>987.7</ele>
        <time>2019-10-30T13:41:57Z</time>
      </trkpt>
      <trkpt lat="44.98195" lon="5.39411">
        <ele>988</ele>
        <time>2019-10-30T13:42:07Z</time>
      </trkpt>
      <trkpt lat="44.98248" lon="5.39449">
        <ele>987.8</ele>
        <time>2019-10-30T13:42:34Z</time>
      </trkpt>
      <trkpt lat="44.9828" lon="5.39467">
        <ele>989.5</ele>
        <time>2019-10-30T13:42:47Z</time>
      </trkpt>
      <trkpt lat="44.98299" lon="5.39489">
        <ele>989.5</ele>
        <time>2019-10-30T13:42:54Z</time>
      </trkpt>
      <trkpt lat="44.98308" lon="5.39495">
        <ele>990.7</ele>
        <time>2019-10-30T13:42:58Z</time>
      </trkpt>
      <trkpt lat="44.9831" lon="5.39491">
        <ele>991.7</ele>
        <time>2019-10-30T13:43:01Z</time>
      </trkpt>
      <trkpt lat="44.98309" lon="5.39468">
        <ele>994.4</ele>
        <time>2019-10-30T13:43:14Z</time>
      </trkpt>
      <trkpt lat="44.98316" lon="5.39432">
        <ele>1000.4</ele>
        <time>2019-10-30T13:43:32Z</time>
      </trkpt>
      <trkpt lat="44.98326" lon="5.39397">
        <ele>1005</ele>
        <time>2019-10-30T13:43:49Z</time>
      </trkpt>
      <trkpt lat="44.98374" lon="5.3927">
        <ele>1023.5</ele>
        <time>2019-10-30T13:45:22Z</time>
      </trkpt>
      <trkpt lat="44.98389" lon="5.39247">
        <ele>1026.3</ele>
        <time>2019-10-30T13:45:28Z</time>
      </trkpt>
      <trkpt lat="44.98408" lon="5.39204">
        <ele>1029</ele>
        <time>2019-10-30T13:45:38Z</time>
      </trkpt>
      <trkpt lat="44.98433" lon="5.39166">
        <ele>1031.9</ele>
        <time>2019-10-30T13:45:51Z</time>
      </trkpt>
      <trkpt lat="44.98447" lon="5.39131">
        <ele>1032.2</ele>
        <time>2019-10-30T13:46:03Z</time>
      </trkpt>
      <trkpt lat="44.98457" lon="5.39122">
        <ele>1032.1</ele>
        <time>2019-10-30T13:46:07Z</time>
      </trkpt>
      <trkpt lat="44.98489" lon="5.39115">
        <ele>1032.6</ele>
        <time>2019-10-30T13:46:19Z</time>
      </trkpt>
      <trkpt lat="44.98524" lon="5.39095">
        <ele>1034.1</ele>
        <time>2019-10-30T13:46:37Z</time>
      </trkpt>
      <trkpt lat="44.98582" lon="5.39076">
        <ele>1042.3</ele>
        <time>2019-10-30T13:46:57Z</time>
      </trkpt>
      <trkpt lat="44.98628" lon="5.39035">
        <ele>1041</ele>
        <time>2019-10-30T13:47:13Z</time>
      </trkpt>
      <trkpt lat="44.98689" lon="5.3899">
        <ele>1042</ele>
        <time>2019-10-30T13:47:34Z</time>
      </trkpt>
      <trkpt lat="44.98734" lon="5.38968">
        <ele>1044.3</ele>
        <time>2019-10-30T13:47:48Z</time>
      </trkpt>
      <trkpt lat="44.98776" lon="5.38957">
        <ele>1046.4</ele>
        <time>2019-10-30T13:48:02Z</time>
      </trkpt>
      <trkpt lat="44.98816" lon="5.38957">
        <ele>1049.8</ele>
        <time>2019-10-30T13:48:15Z</time>
      </trkpt>
      <trkpt lat="44.98893" lon="5.3897">
        <ele>1059</ele>
        <time>2019-10-30T13:48:39Z</time>
      </trkpt>
      <trkpt lat="44.98945" lon="5.38972">
        <ele>1060.1</ele>
        <time>2019-10-30T13:48:53Z</time>
      </trkpt>
      <trkpt lat="44.98994" lon="5.38979">
        <ele>1060.4</ele>
        <time>2019-10-30T13:49:08Z</time>
      </trkpt>
      <trkpt lat="44.99041" lon="5.38995">
        <ele>1061.9</ele>
        <time>2019-10-30T13:49:21Z</time>
      </trkpt>
      <trkpt lat="44.99079" lon="5.39015">
        <ele>1065.4</ele>
        <time>2019-10-30T13:49:33Z</time>
      </trkpt>
      <trkpt lat="44.99149" lon="5.39035">
        <ele>1070.3</ele>
        <time>2019-10-30T13:49:52Z</time>
      </trkpt>
      <trkpt lat="44.99222" lon="5.39042">
        <ele>1074.2</ele>
        <time>2019-10-30T13:50:12Z</time>
      </trkpt>
      <trkpt lat="44.99311" lon="5.39021">
        <ele>1079.8</ele>
        <time>2019-10-30T13:50:35Z</time>
      </trkpt>
      <trkpt lat="44.99332" lon="5.39009">
        <ele>1080.3</ele>
        <time>2019-10-30T13:50:43Z</time>
      </trkpt>
      <trkpt lat="44.99358" lon="5.39">
        <ele>1081.7</ele>
        <time>2019-10-30T13:50:49Z</time>
      </trkpt>
      <trkpt lat="44.99411" lon="5.38967">
        <ele>1084.4</ele>
        <time>2019-10-30T13:51:02Z</time>
      </trkpt>
      <trkpt lat="44.99463" lon="5.38958">
        <ele>1087</ele>
        <time>2019-10-30T13:51:17Z</time>
      </trkpt>
      <trkpt lat="44.99503" lon="5.38964">
        <ele>1090.6</ele>
        <time>2019-10-30T13:51:31Z</time>
      </trkpt>
      <trkpt lat="44.99579" lon="5.38938">
        <ele>1089</ele>
        <time>2019-10-30T13:51:53Z</time>
      </trkpt>
      <trkpt lat="44.9965" lon="5.38924">
        <ele>1090.5</ele>
        <time>2019-10-30T13:52:13Z</time>
      </trkpt>
      <trkpt lat="44.99717" lon="5.3892">
        <ele>1094.2</ele>
        <time>2019-10-30T13:52:28Z</time>
      </trkpt>
      <trkpt lat="44.9975" lon="5.38926">
        <ele>1097.3</ele>
        <time>2019-10-30T13:52:36Z</time>
      </trkpt>
      <trkpt lat="44.99771" lon="5.38921">
        <ele>1095.8</ele>
        <time>2019-10-30T13:52:40Z</time>
      </trkpt>
      <trkpt lat="44.99828" lon="5.38916">
        <ele>1093.2</ele>
        <time>2019-10-30T13:52:53Z</time>
      </trkpt>
      <trkpt lat="44.99882" lon="5.38918">
        <ele>1094.3</ele>
        <time>2019-10-30T13:53:10Z</time>
      </trkpt>
      <trkpt lat="44.99967" lon="5.38953">
        <ele>1106.2</ele>
        <time>2019-10-30T13:53:43Z</time>
      </trkpt>
      <trkpt lat="45.0001" lon="5.38979">
        <ele>1111.8</ele>
        <time>2019-10-30T13:54:06Z</time>
      </trkpt>
      <trkpt lat="45.00029" lon="5.38984">
        <ele>1113.5</ele>
        <time>2019-10-30T13:54:15Z</time>
      </trkpt>
      <trkpt lat="45.00058" lon="5.39002">
        <ele>1115.6</ele>
        <time>2019-10-30T13:54:26Z</time>
      </trkpt>
      <trkpt lat="45.00069" lon="5.39034">
        <ele>1117.8</ele>
        <time>2019-10-30T13:54:34Z</time>
      </trkpt>
      <trkpt lat="45.00088" lon="5.39068">
        <ele>1118.8</ele>
        <time>2019-10-30T13:54:46Z</time>
      </trkpt>
      <trkpt lat="45.00094" lon="5.39102">
        <ele>1121.5</ele>
        <time>2019-10-30T13:54:59Z</time>
      </trkpt>
      <trkpt lat="45.00097" lon="5.39109">
        <ele>1122.4</ele>
        <time>2019-10-30T13:55:01Z</time>
      </trkpt>
      <trkpt lat="45.001" lon="5.39134">
        <ele>1125.2</ele>
        <time>2019-10-30T13:55:10Z</time>
      </trkpt>
      <trkpt lat="45.0011" lon="5.39177">
        <ele>1130</ele>
        <time>2019-10-30T13:55:25Z</time>
      </trkpt>
      <trkpt lat="45.0012" lon="5.39194">
        <ele>1132.1</ele>
        <time>2019-10-30T13:55:33Z</time>
      </trkpt>
      <trkpt lat="45.00134" lon="5.39206">
        <ele>1133.1</ele>
        <time>2019-10-30T13:55:42Z</time>
      </trkpt>
      <trkpt lat="45.00147" lon="5.39222">
        <ele>1134.7</ele>
        <time>2019-10-30T13:55:49Z</time>
      </trkpt>
      <trkpt lat="45.00162" lon="5.39267">
        <ele>1139.7</ele>
        <time>2019-10-30T13:56:08Z</time>
      </trkpt>
      <trkpt lat="45.00185" lon="5.39296">
        <ele>1144.3</ele>
        <time>2019-10-30T13:56:28Z</time>
      </trkpt>
      <trkpt lat="45.00194" lon="5.393">
        <ele>1144.9</ele>
        <time>2019-10-30T13:56:34Z</time>
      </trkpt>
      <trkpt lat="45.00196" lon="5.39304">
        <ele>1145.4</ele>
        <time>2019-10-30T13:56:37Z</time>
      </trkpt>
      <trkpt lat="45.00204" lon="5.39307">
        <ele>1145.9</ele>
        <time>2019-10-30T13:56:41Z</time>
      </trkpt>
      <trkpt lat="45.00218" lon="5.39321">
        <ele>1147</ele>
        <time>2019-10-30T13:56:48Z</time>
      </trkpt>
      <trkpt lat="45.00239" lon="5.39332">
        <ele>1147.2</ele>
        <time>2019-10-30T13:56:55Z</time>
      </trkpt>
      <trkpt lat="45.00242" lon="5.39338">
        <ele>1147.6</ele>
        <time>2019-10-30T13:56:58Z</time>
      </trkpt>
      <trkpt lat="45.00247" lon="5.3934">
        <ele>1147.6</ele>
        <time>2019-10-30T13:57:00Z</time>
      </trkpt>
      <trkpt lat="45.00272" lon="5.39375">
        <ele>1149.7</ele>
        <time>2019-10-30T14:00:42Z</time>
      </trkpt>
      <trkpt lat="45.00315" lon="5.39444">
        <ele>1150.2</ele>
        <time>2019-10-30T14:00:58Z</time>
      </trkpt>
      <trkpt lat="45.00332" lon="5.39462">
        <ele>1149.5</ele>
        <time>2019-10-30T14:01:05Z</time>
      </trkpt>
      <trkpt lat="45.00344" lon="5.39482">
        <ele>1150.1</ele>
        <time>2019-10-30T14:01:11Z</time>
      </trkpt>
      <trkpt lat="45.00348" lon="5.39484">
        <ele>1150</ele>
        <time>2019-10-30T14:01:12Z</time>
      </trkpt>
      <trkpt lat="45.00363" lon="5.39509">
        <ele>1151.4</ele>
        <time>2019-10-30T14:01:20Z</time>
      </trkpt>
      <trkpt lat="45.00369" lon="5.39513">
        <ele>1151.6</ele>
        <time>2019-10-30T14:01:22Z</time>
      </trkpt>
      <trkpt lat="45.00399" lon="5.39558">
        <ele>1155.7</ele>
        <time>2019-10-30T14:01:44Z</time>
      </trkpt>
      <trkpt lat="45.00438" lon="5.39643">
        <ele>1162</ele>
        <time>2019-10-30T14:02:19Z</time>
      </trkpt>
      <trkpt lat="45.00465" lon="5.39655">
        <ele>1160.8</ele>
        <time>2019-10-30T14:02:28Z</time>
      </trkpt>
      <trkpt lat="45.00486" lon="5.39676">
        <ele>1160.9</ele>
        <time>2019-10-30T14:02:38Z</time>
      </trkpt>
      <trkpt lat="45.00501" lon="5.39696">
        <ele>1161.7</ele>
        <time>2019-10-30T14:02:46Z</time>
      </trkpt>
      <trkpt lat="45.00503" lon="5.39702">
        <ele>1162.1</ele>
        <time>2019-10-30T14:02:49Z</time>
      </trkpt>
      <trkpt lat="45.00554" lon="5.39739">
        <ele>1156.1</ele>
        <time>2019-10-30T14:03:32Z</time>
      </trkpt>
      <trkpt lat="45.00573" lon="5.39746">
        <ele>1152.9</ele>
        <time>2019-10-30T14:03:44Z</time>
      </trkpt>
      <trkpt lat="45.00545" lon="5.39728">
        <ele>1157.3</ele>
        <time>2019-10-30T14:09:40Z</time>
      </trkpt>
      <trkpt lat="45.00541" lon="5.39715">
        <ele>1157.2</ele>
        <time>2019-10-30T14:09:48Z</time>
      </trkpt>
      <trkpt lat="45.00535" lon="5.39707">
        <ele>1157.6</ele>
        <time>2019-10-30T14:09:52Z</time>
      </trkpt>
      <trkpt lat="45.00518" lon="5.39695">
        <ele>1159.3</ele>
        <time>2019-10-30T14:10:01Z</time>
      </trkpt>
      <trkpt lat="45.00487" lon="5.39685">
        <ele>1161.5</ele>
        <time>2019-10-30T14:10:10Z</time>
      </trkpt>
      <trkpt lat="45.00451" lon="5.3969">
        <ele>1163.5</ele>
        <time>2019-10-30T14:10:28Z</time>
      </trkpt>
      <trkpt lat="45.00438" lon="5.39705">
        <ele>1163.5</ele>
        <time>2019-10-30T14:10:33Z</time>
      </trkpt>
      <trkpt lat="45.0042" lon="5.39716">
        <ele>1162.9</ele>
        <time>2019-10-30T14:10:40Z</time>
      </trkpt>
      <trkpt lat="45.00415" lon="5.39735">
        <ele>1161.4</ele>
        <time>2019-10-30T14:10:46Z</time>
      </trkpt>
      <trkpt lat="45.00405" lon="5.39749">
        <ele>1160.8</ele>
        <time>2019-10-30T14:10:50Z</time>
      </trkpt>
      <trkpt lat="45.00391" lon="5.39779">
        <ele>1155.4</ele>
        <time>2019-10-30T14:10:57Z</time>
      </trkpt>
      <trkpt lat="45.00357" lon="5.39821">
        <ele>1147.9</ele>
        <time>2019-10-30T14:11:08Z</time>
      </trkpt>
      <trkpt lat="45.0034" lon="5.39848">
        <ele>1143.1</ele>
        <time>2019-10-30T14:11:12Z</time>
      </trkpt>
      <trkpt lat="45.00312" lon="5.39869">
        <ele>1138.9</ele>
        <time>2019-10-30T14:11:17Z</time>
      </trkpt>
      <trkpt lat="45.0029" lon="5.39872">
        <ele>1137.7</ele>
        <time>2019-10-30T14:11:24Z</time>
      </trkpt>
      <trkpt lat="45.0027" lon="5.39879">
        <ele>1135.9</ele>
        <time>2019-10-30T14:11:30Z</time>
      </trkpt>
      <trkpt lat="45.00226" lon="5.39878">
        <ele>1131.9</ele>
        <time>2019-10-30T14:11:39Z</time>
      </trkpt>
      <trkpt lat="45.00216" lon="5.39875">
        <ele>1131</ele>
        <time>2019-10-30T14:11:42Z</time>
      </trkpt>
      <trkpt lat="45.00199" lon="5.3986">
        <ele>1131.1</ele>
        <time>2019-10-30T14:11:48Z</time>
      </trkpt>
      <trkpt lat="45.00168" lon="5.39848">
        <ele>1128.7</ele>
        <time>2019-10-30T14:11:55Z</time>
      </trkpt>
      <trkpt lat="45.00134" lon="5.39824">
        <ele>1128.3</ele>
        <time>2019-10-30T14:12:08Z</time>
      </trkpt>
      <trkpt lat="45.00117" lon="5.39805">
        <ele>1129.1</ele>
        <time>2019-10-30T14:12:14Z</time>
      </trkpt>
      <trkpt lat="45.00099" lon="5.39774">
        <ele>1131.6</ele>
        <time>2019-10-30T14:12:27Z</time>
      </trkpt>
      <trkpt lat="45.00088" lon="5.39749">
        <ele>1133.8</ele>
        <time>2019-10-30T14:12:34Z</time>
      </trkpt>
      <trkpt lat="45.00075" lon="5.39686">
        <ele>1141.1</ele>
        <time>2019-10-30T14:12:56Z</time>
      </trkpt>
      <trkpt lat="45.00062" lon="5.39639">
        <ele>1147.2</ele>
        <time>2019-10-30T14:13:13Z</time>
      </trkpt>
      <trkpt lat="45.00061" lon="5.39614">
        <ele>1149.6</ele>
        <time>2019-10-30T14:13:21Z</time>
      </trkpt>
      <trkpt lat="45.00058" lon="5.39599">
        <ele>1151.3</ele>
        <time>2019-10-30T14:13:25Z</time>
      </trkpt>
      <trkpt lat="45.00048" lon="5.39572">
        <ele>1154.3</ele>
        <time>2019-10-30T14:13:33Z</time>
      </trkpt>
      <trkpt lat="45.00005" lon="5.39508">
        <ele>1157.1</ele>
        <time>2019-10-30T14:13:57Z</time>
      </trkpt>
      <trkpt lat="44.99951" lon="5.39444">
        <ele>1162.4</ele>
        <time>2019-10-30T14:15:18Z</time>
      </trkpt>
      <trkpt lat="44.99933" lon="5.39439">
        <ele>1162.3</ele>
        <time>2019-10-30T14:15:25Z</time>
      </trkpt>
      <trkpt lat="44.99896" lon="5.39414">
        <ele>1166</ele>
        <time>2019-10-30T14:15:39Z</time>
      </trkpt>
      <trkpt lat="44.99849" lon="5.39373">
        <ele>1170.6</ele>
        <time>2019-10-30T14:16:06Z</time>
      </trkpt>
      <trkpt lat="44.99831" lon="5.39345">
        <ele>1171.2</ele>
        <time>2019-10-30T14:16:13Z</time>
      </trkpt>
      <trkpt lat="44.99813" lon="5.39325">
        <ele>1172</ele>
        <time>2019-10-30T14:16:23Z</time>
      </trkpt>
      <trkpt lat="44.99804" lon="5.39322">
        <ele>1172.4</ele>
        <time>2019-10-30T14:16:28Z</time>
      </trkpt>
      <trkpt lat="44.9979" lon="5.39309">
        <ele>1171.8</ele>
        <time>2019-10-30T14:16:42Z</time>
      </trkpt>
      <trkpt lat="44.99781" lon="5.39306">
        <ele>1171.9</ele>
        <time>2019-10-30T14:16:45Z</time>
      </trkpt>
      <trkpt lat="44.99773" lon="5.39295">
        <ele>1170.7</ele>
        <time>2019-10-30T14:16:49Z</time>
      </trkpt>
      <trkpt lat="44.99749" lon="5.39275">
        <ele>1168.3</ele>
        <time>2019-10-30T14:16:55Z</time>
      </trkpt>
      <trkpt lat="44.99737" lon="5.39269">
        <ele>1166</ele>
        <time>2019-10-30T14:16:57Z</time>
      </trkpt>
      <trkpt lat="44.99705" lon="5.39266">
        <ele>1161.9</ele>
        <time>2019-10-30T14:17:01Z</time>
      </trkpt>
      <trkpt lat="44.9966" lon="5.39268">
        <ele>1157</ele>
        <time>2019-10-30T14:17:07Z</time>
      </trkpt>
      <trkpt lat="44.99648" lon="5.39272">
        <ele>1155.5</ele>
        <time>2019-10-30T14:17:09Z</time>
      </trkpt>
      <trkpt lat="44.99633" lon="5.39268">
        <ele>1152.4</ele>
        <time>2019-10-30T14:17:12Z</time>
      </trkpt>
      <trkpt lat="44.99526" lon="5.39216">
        <ele>1133.9</ele>
        <time>2019-10-30T14:17:28Z</time>
      </trkpt>
      <trkpt lat="44.99498" lon="5.39209">
        <ele>1131.6</ele>
        <time>2019-10-30T14:17:32Z</time>
      </trkpt>
      <trkpt lat="44.99482" lon="5.3921">
        <ele>1131.2</ele>
        <time>2019-10-30T14:17:35Z</time>
      </trkpt>
      <trkpt lat="44.99453" lon="5.39189">
        <ele>1126.8</ele>
        <time>2019-10-30T14:17:42Z</time>
      </trkpt>
      <trkpt lat="44.99448" lon="5.39181">
        <ele>1125.2</ele>
        <time>2019-10-30T14:17:44Z</time>
      </trkpt>
      <trkpt lat="44.99449" lon="5.39168">
        <ele>1123.2</ele>
        <time>2019-10-30T14:17:47Z</time>
      </trkpt>
      <trkpt lat="44.99445" lon="5.39161">
        <ele>1121.8</ele>
        <time>2019-10-30T14:17:49Z</time>
      </trkpt>
      <trkpt lat="44.99425" lon="5.39157">
        <ele>1119.6</ele>
        <time>2019-10-30T14:17:53Z</time>
      </trkpt>
      <trkpt lat="44.99402" lon="5.39158">
        <ele>1117.5</ele>
        <time>2019-10-30T14:17:56Z</time>
      </trkpt>
      <trkpt lat="44.99345" lon="5.39148">
        <ele>1107.8</ele>
        <time>2019-10-30T14:18:04Z</time>
      </trkpt>
      <trkpt lat="44.99311" lon="5.39155">
        <ele>1103.5</ele>
        <time>2019-10-30T14:18:10Z</time>
      </trkpt>
      <trkpt lat="44.9928" lon="5.3915">
        <ele>1096.9</ele>
        <time>2019-10-30T14:18:18Z</time>
      </trkpt>
      <trkpt lat="44.99268" lon="5.39136">
        <ele>1092.6</ele>
        <time>2019-10-30T14:18:21Z</time>
      </trkpt>
      <trkpt lat="44.99255" lon="5.39131">
        <ele>1089.7</ele>
        <time>2019-10-30T14:18:24Z</time>
      </trkpt>
      <trkpt lat="44.99245" lon="5.39134">
        <ele>1089.3</ele>
        <time>2019-10-30T14:18:28Z</time>
      </trkpt>
      <trkpt lat="44.99241" lon="5.3914">
        <ele>1090</ele>
        <time>2019-10-30T14:18:32Z</time>
      </trkpt>
      <trkpt lat="44.99243" lon="5.39159">
        <ele>1092.8</ele>
        <time>2019-10-30T14:18:37Z</time>
      </trkpt>
      <trkpt lat="44.9924" lon="5.39171">
        <ele>1094.1</ele>
        <time>2019-10-30T14:18:40Z</time>
      </trkpt>
      <trkpt lat="44.99232" lon="5.39185">
        <ele>1094.5</ele>
        <time>2019-10-30T14:18:44Z</time>
      </trkpt>
      <trkpt lat="44.99207" lon="5.39211">
        <ele>1093.1</ele>
        <time>2019-10-30T14:18:53Z</time>
      </trkpt>
      <trkpt lat="44.9919" lon="5.39215">
        <ele>1091.3</ele>
        <time>2019-10-30T14:18:57Z</time>
      </trkpt>
      <trkpt lat="44.99171" lon="5.39256">
        <ele>1086.7</ele>
        <time>2019-10-30T14:19:05Z</time>
      </trkpt>
      <trkpt lat="44.99147" lon="5.39291">
        <ele>1086.3</ele>
        <time>2019-10-30T14:19:12Z</time>
      </trkpt>
      <trkpt lat="44.99111" lon="5.39322">
        <ele>1082.7</ele>
        <time>2019-10-30T14:19:18Z</time>
      </trkpt>
      <trkpt lat="44.991" lon="5.39336">
        <ele>1080.1</ele>
        <time>2019-10-30T14:19:20Z</time>
      </trkpt>
      <trkpt lat="44.99082" lon="5.39351">
        <ele>1078.2</ele>
        <time>2019-10-30T14:19:23Z</time>
      </trkpt>
      <trkpt lat="44.99072" lon="5.39363">
        <ele>1077.9</ele>
        <time>2019-10-30T14:19:25Z</time>
      </trkpt>
      <trkpt lat="44.99044" lon="5.39383">
        <ele>1075.8</ele>
        <time>2019-10-30T14:19:30Z</time>
      </trkpt>
      <trkpt lat="44.99039" lon="5.39402">
        <ele>1073</ele>
        <time>2019-10-30T14:19:35Z</time>
      </trkpt>
      <trkpt lat="44.99034" lon="5.3941">
        <ele>1071.4</ele>
        <time>2019-10-30T14:19:37Z</time>
      </trkpt>
      <trkpt lat="44.9902" lon="5.39455">
        <ele>1063.4</ele>
        <time>2019-10-30T14:20:38Z</time>
      </trkpt>
      <trkpt lat="44.99011" lon="5.39471">
        <ele>1059.7</ele>
        <time>2019-10-30T14:20:42Z</time>
      </trkpt>
      <trkpt lat="44.99013" lon="5.395">
        <ele>1055.7</ele>
        <time>2019-10-30T14:20:49Z</time>
      </trkpt>
      <trkpt lat="44.9902" lon="5.39523">
        <ele>1052</ele>
        <time>2019-10-30T14:20:55Z</time>
      </trkpt>
      <trkpt lat="44.99019" lon="5.39533">
        <ele>1049.5</ele>
        <time>2019-10-30T14:20:57Z</time>
      </trkpt>
      <trkpt lat="44.99011" lon="5.39545">
        <ele>1045.1</ele>
        <time>2019-10-30T14:21:00Z</time>
      </trkpt>
      <trkpt lat="44.98968" lon="5.39569">
        <ele>1032.7</ele>
        <time>2019-10-30T14:21:12Z</time>
      </trkpt>
      <trkpt lat="44.98913" lon="5.39585">
        <ele>1021.3</ele>
        <time>2019-10-30T14:21:29Z</time>
      </trkpt>
      <trkpt lat="44.98903" lon="5.39593">
        <ele>1018.5</ele>
        <time>2019-10-30T14:21:33Z</time>
      </trkpt>
      <trkpt lat="44.98887" lon="5.39614">
        <ele>1012.1</ele>
        <time>2019-10-30T14:21:41Z</time>
      </trkpt>
      <trkpt lat="44.98889" lon="5.39632">
        <ele>1008.4</ele>
        <time>2019-10-30T14:22:17Z</time>
      </trkpt>
      <trkpt lat="44.98896" lon="5.3964">
        <ele>1007</ele>
        <time>2019-10-30T14:22:20Z</time>
      </trkpt>
      <trkpt lat="44.98898" lon="5.39662">
        <ele>1002.4</ele>
        <time>2019-10-30T14:22:27Z</time>
      </trkpt>
      <trkpt lat="44.98895" lon="5.39665">
        <ele>1001.2</ele>
        <time>2019-10-30T14:22:30Z</time>
      </trkpt>
      <trkpt lat="44.98898" lon="5.39674">
        <ele>999.7</ele>
        <time>2019-10-30T14:22:34Z</time>
      </trkpt>
      <trkpt lat="44.98906" lon="5.39683">
        <ele>998.4</ele>
        <time>2019-10-30T14:22:39Z</time>
      </trkpt>
      <trkpt lat="44.98916" lon="5.39715">
        <ele>992.6</ele>
        <time>2019-10-30T14:22:46Z</time>
      </trkpt>
      <trkpt lat="44.98924" lon="5.3973">
        <ele>989.8</ele>
        <time>2019-10-30T14:22:52Z</time>
      </trkpt>
      <trkpt lat="44.98926" lon="5.39748">
        <ele>985.8</ele>
        <time>2019-10-30T14:23:19Z</time>
      </trkpt>
      <trkpt lat="44.98925" lon="5.39768">
        <ele>980.5</ele>
        <time>2019-10-30T14:23:27Z</time>
      </trkpt>
      <trkpt lat="44.98931" lon="5.39799">
        <ele>972.6</ele>
        <time>2019-10-30T14:23:59Z</time>
      </trkpt>
      <trkpt lat="44.98937" lon="5.39815">
        <ele>968.4</ele>
        <time>2019-10-30T14:24:03Z</time>
      </trkpt>
      <trkpt lat="44.98953" lon="5.39843">
        <ele>960.5</ele>
        <time>2019-10-30T14:24:11Z</time>
      </trkpt>
      <trkpt lat="44.9897" lon="5.3986">
        <ele>956.1</ele>
        <time>2019-10-30T14:24:16Z</time>
      </trkpt>
      <trkpt lat="44.98971" lon="5.39869">
        <ele>953.7</ele>
        <time>2019-10-30T14:24:17Z</time>
      </trkpt>
      <trkpt lat="44.98983" lon="5.39883">
        <ele>950</ele>
        <time>2019-10-30T14:24:20Z</time>
      </trkpt>
      <trkpt lat="44.98993" lon="5.39889">
        <ele>948.8</ele>
        <time>2019-10-30T14:24:22Z</time>
      </trkpt>
      <trkpt lat="44.99015" lon="5.39908">
        <ele>942.5</ele>
        <time>2019-10-30T14:24:29Z</time>
      </trkpt>
      <trkpt lat="44.99027" lon="5.39911">
        <ele>940.7</ele>
        <time>2019-10-30T14:24:35Z</time>
      </trkpt>
      <trkpt lat="44.99036" lon="5.39918">
        <ele>937.8</ele>
        <time>2019-10-30T14:24:38Z</time>
      </trkpt>
      <trkpt lat="44.99066" lon="5.39963">
        <ele>926.2</ele>
        <time>2019-10-30T14:24:52Z</time>
      </trkpt>
      <trkpt lat="44.99082" lon="5.39981">
        <ele>921.5</ele>
        <time>2019-10-30T14:24:59Z</time>
      </trkpt>
      <trkpt lat="44.99092" lon="5.39996">
        <ele>919</ele>
        <time>2019-10-30T14:25:06Z</time>
      </trkpt>
      <trkpt lat="44.99098" lon="5.40013">
        <ele>915.9</ele>
        <time>2019-10-30T14:25:14Z</time>
      </trkpt>
      <trkpt lat="44.99107" lon="5.40024">
        <ele>914.2</ele>
        <time>2019-10-30T14:25:18Z</time>
      </trkpt>
      <trkpt lat="44.99113" lon="5.40042">
        <ele>911.4</ele>
        <time>2019-10-30T14:25:23Z</time>
      </trkpt>
      <trkpt lat="44.99124" lon="5.40061">
        <ele>909</ele>
        <time>2019-10-30T14:25:28Z</time>
      </trkpt>
      <trkpt lat="44.99133" lon="5.40109">
        <ele>900.8</ele>
        <time>2019-10-30T14:25:40Z</time>
      </trkpt>
      <trkpt lat="44.99146" lon="5.40145">
        <ele>894.2</ele>
        <time>2019-10-30T14:25:49Z</time>
      </trkpt>
      <trkpt lat="44.99175" lon="5.40188">
        <ele>888.3</ele>
        <time>2019-10-30T14:26:02Z</time>
      </trkpt>
      <trkpt lat="44.99181" lon="5.40201">
        <ele>886</ele>
        <time>2019-10-30T14:26:05Z</time>
      </trkpt>
      <trkpt lat="44.99193" lon="5.4025">
        <ele>875.1</ele>
        <time>2019-10-30T14:26:12Z</time>
      </trkpt>
      <trkpt lat="44.99197" lon="5.40259">
        <ele>874.4</ele>
        <time>2019-10-30T14:26:13Z</time>
      </trkpt>
      <trkpt lat="44.99202" lon="5.40287">
        <ele>870.9</ele>
        <time>2019-10-30T14:26:17Z</time>
      </trkpt>
      <trkpt lat="44.99198" lon="5.40305">
        <ele>867.6</ele>
        <time>2019-10-30T14:26:20Z</time>
      </trkpt>
      <trkpt lat="44.99194" lon="5.40308">
        <ele>866.7</ele>
        <time>2019-10-30T14:26:22Z</time>
      </trkpt>
      <trkpt lat="44.99194" lon="5.40321">
        <ele>864.7</ele>
        <time>2019-10-30T14:26:25Z</time>
      </trkpt>
      <trkpt lat="44.99199" lon="5.4034">
        <ele>863.1</ele>
        <time>2019-10-30T14:26:30Z</time>
      </trkpt>
      <trkpt lat="44.99197" lon="5.40359">
        <ele>860.9</ele>
        <time>2019-10-30T14:26:33Z</time>
      </trkpt>
      <trkpt lat="44.99207" lon="5.40406">
        <ele>857.8</ele>
        <time>2019-10-30T14:26:44Z</time>
      </trkpt>
      <trkpt lat="44.99205" lon="5.40424">
        <ele>856.2</ele>
        <time>2019-10-30T14:26:47Z</time>
      </trkpt>
      <trkpt lat="44.9918" lon="5.40537">
        <ele>848</ele>
        <time>2019-10-30T14:27:00Z</time>
      </trkpt>
      <trkpt lat="44.9918" lon="5.40584">
        <ele>845.1</ele>
        <time>2019-10-30T14:27:04Z</time>
      </trkpt>
      <trkpt lat="44.99182" lon="5.40596">
        <ele>845.5</ele>
        <time>2019-10-30T14:27:05Z</time>
      </trkpt>
      <trkpt lat="44.99195" lon="5.40611">
        <ele>846.5</ele>
        <time>2019-10-30T14:27:07Z</time>
      </trkpt>
      <trkpt lat="44.99226" lon="5.40626">
        <ele>848.2</ele>
        <time>2019-10-30T14:27:11Z</time>
      </trkpt>
      <trkpt lat="44.99243" lon="5.40641">
        <ele>848.6</ele>
        <time>2019-10-30T14:27:14Z</time>
      </trkpt>
      <trkpt lat="44.99286" lon="5.40663">
        <ele>851.3</ele>
        <time>2019-10-30T14:27:22Z</time>
      </trkpt>
      <trkpt lat="44.99302" lon="5.40679">
        <ele>853.4</ele>
        <time>2019-10-30T14:27:26Z</time>
      </trkpt>
      <trkpt lat="44.9931" lon="5.40698">
        <ele>855.6</ele>
        <time>2019-10-30T14:27:29Z</time>
      </trkpt>
      <trkpt lat="44.99313" lon="5.40721">
        <ele>857.6</ele>
        <time>2019-10-30T14:27:32Z</time>
      </trkpt>
      <trkpt lat="44.99317" lon="5.40735">
        <ele>859</ele>
        <time>2019-10-30T14:27:34Z</time>
      </trkpt>
      <trkpt lat="44.99336" lon="5.40766">
        <ele>860.5</ele>
        <time>2019-10-30T14:27:41Z</time>
      </trkpt>
      <trkpt lat="44.99353" lon="5.40813">
        <ele>859</ele>
        <time>2019-10-30T14:27:51Z</time>
      </trkpt>
      <trkpt lat="44.99363" lon="5.40819">
        <ele>858.6</ele>
        <time>2019-10-30T14:27:54Z</time>
      </trkpt>
      <trkpt lat="44.9939" lon="5.40813">
        <ele>858</ele>
        <time>2019-10-30T14:28:03Z</time>
      </trkpt>
      <trkpt lat="44.99424" lon="5.40822">
        <ele>858.1</ele>
        <time>2019-10-30T14:28:12Z</time>
      </trkpt>
      <trkpt lat="44.99445" lon="5.40818">
        <ele>860.5</ele>
        <time>2019-10-30T14:28:17Z</time>
      </trkpt>
      <trkpt lat="44.99499" lon="5.40796">
        <ele>865.7</ele>
        <time>2019-10-30T14:28:36Z</time>
      </trkpt>
      <trkpt lat="44.99588" lon="5.40804">
        <ele>877</ele>
        <time>2019-10-30T14:29:10Z</time>
      </trkpt>
      <trkpt lat="44.99633" lon="5.40814">
        <ele>880.6</ele>
        <time>2019-10-30T14:29:26Z</time>
      </trkpt>
      <trkpt lat="44.99715" lon="5.40815">
        <ele>886.2</ele>
        <time>2019-10-30T14:29:52Z</time>
      </trkpt>
      <trkpt lat="44.99779" lon="5.40839">
        <ele>889.1</ele>
        <time>2019-10-30T14:30:14Z</time>
      </trkpt>
      <trkpt lat="44.99813" lon="5.40845">
        <ele>891.1</ele>
        <time>2019-10-30T14:30:26Z</time>
      </trkpt>
      <trkpt lat="44.99877" lon="5.40899">
        <ele>894</ele>
        <time>2019-10-30T14:30:50Z</time>
      </trkpt>
      <trkpt lat="44.99892" lon="5.409">
        <ele>895.6</ele>
        <time>2019-10-30T14:30:55Z</time>
      </trkpt>
      <trkpt lat="44.99923" lon="5.40855">
        <ele>905.5</ele>
        <time>2019-10-30T14:31:21Z</time>
      </trkpt>
      <trkpt lat="44.99958" lon="5.40782">
        <ele>919.9</ele>
        <time>2019-10-30T14:37:45Z</time>
      </trkpt>
      <trkpt lat="44.99964" lon="5.40762">
        <ele>924</ele>
        <time>2019-10-30T14:37:55Z</time>
      </trkpt>
      <trkpt lat="44.99978" lon="5.40755">
        <ele>927.3</ele>
        <time>2019-10-30T14:38:05Z</time>
      </trkpt>
      <trkpt lat="44.99993" lon="5.40753">
        <ele>930.3</ele>
        <time>2019-10-30T14:38:14Z</time>
      </trkpt>
      <trkpt lat="45.00008" lon="5.40755">
        <ele>931.8</ele>
        <time>2019-10-30T14:38:21Z</time>
      </trkpt>
      <trkpt lat="45.00074" lon="5.40819">
        <ele>926.7</ele>
        <time>2019-10-30T14:38:43Z</time>
      </trkpt>
      <trkpt lat="45.00088" lon="5.40853">
        <ele>922.4</ele>
        <time>2019-10-30T14:39:02Z</time>
      </trkpt>
      <trkpt lat="45.00103" lon="5.40869">
        <ele>920.8</ele>
        <time>2019-10-30T14:39:06Z</time>
      </trkpt>
      <trkpt lat="45.0013" lon="5.40918">
        <ele>914.6</ele>
        <time>2019-10-30T14:39:13Z</time>
      </trkpt>
      <trkpt lat="45.00142" lon="5.40945">
        <ele>910.1</ele>
        <time>2019-10-30T14:39:16Z</time>
      </trkpt>
      <trkpt lat="45.00156" lon="5.41005">
        <ele>900.3</ele>
        <time>2019-10-30T14:39:24Z</time>
      </trkpt>
      <trkpt lat="45.00161" lon="5.41057">
        <ele>893.1</ele>
        <time>2019-10-30T14:39:41Z</time>
      </trkpt>
      <trkpt lat="45.00173" lon="5.41097">
        <ele>888.2</ele>
        <time>2019-10-30T14:39:51Z</time>
      </trkpt>
      <trkpt lat="45.00181" lon="5.4111">
        <ele>886.7</ele>
        <time>2019-10-30T14:39:56Z</time>
      </trkpt>
      <trkpt lat="45.0019" lon="5.41143">
        <ele>881.8</ele>
        <time>2019-10-30T14:40:06Z</time>
      </trkpt>
      <trkpt lat="45.00199" lon="5.41159">
        <ele>879.9</ele>
        <time>2019-10-30T14:40:12Z</time>
      </trkpt>
      <trkpt lat="45.00218" lon="5.41268">
        <ele>858.6</ele>
        <time>2019-10-30T14:42:53Z</time>
      </trkpt>
      <trkpt lat="45.00213" lon="5.41298">
        <ele>852.9</ele>
        <time>2019-10-30T14:42:59Z</time>
      </trkpt>
      <trkpt lat="45.00215" lon="5.41309">
        <ele>851.2</ele>
        <time>2019-10-30T14:43:02Z</time>
      </trkpt>
      <trkpt lat="45.00205" lon="5.41337">
        <ele>845.5</ele>
        <time>2019-10-30T14:43:08Z</time>
      </trkpt>
      <trkpt lat="45.00209" lon="5.41376">
        <ele>838.6</ele>
        <time>2019-10-30T14:43:15Z</time>
      </trkpt>
      <trkpt lat="45.00209" lon="5.41393">
        <ele>835.5</ele>
        <time>2019-10-30T14:43:18Z</time>
      </trkpt>
      <trkpt lat="45.00205" lon="5.4141">
        <ele>831.8</ele>
        <time>2019-10-30T14:43:21Z</time>
      </trkpt>
      <trkpt lat="45.00187" lon="5.41444">
        <ele>823.3</ele>
        <time>2019-10-30T14:43:27Z</time>
      </trkpt>
      <trkpt lat="45.00183" lon="5.41478">
        <ele>815.7</ele>
        <time>2019-10-30T14:43:33Z</time>
      </trkpt>
      <trkpt lat="45.00182" lon="5.41519">
        <ele>808.4</ele>
        <time>2019-10-30T14:43:39Z</time>
      </trkpt>
      <trkpt lat="45.00179" lon="5.41528">
        <ele>806.8</ele>
        <time>2019-10-30T14:43:40Z</time>
      </trkpt>
      <trkpt lat="45.00144" lon="5.41585">
        <ele>795.3</ele>
        <time>2019-10-30T14:43:49Z</time>
      </trkpt>
      <trkpt lat="45.00141" lon="5.41623">
        <ele>788</ele>
        <time>2019-10-30T14:43:56Z</time>
      </trkpt>
      <trkpt lat="45.00142" lon="5.41645">
        <ele>784.1</ele>
        <time>2019-10-30T14:43:59Z</time>
      </trkpt>
      <trkpt lat="45.00136" lon="5.41655">
        <ele>781.4</ele>
        <time>2019-10-30T14:44:01Z</time>
      </trkpt>
      <trkpt lat="45.00131" lon="5.41658">
        <ele>780.2</ele>
        <time>2019-10-30T14:44:03Z</time>
      </trkpt>
      <trkpt lat="45.00132" lon="5.41671">
        <ele>777.8</ele>
        <time>2019-10-30T14:44:19Z</time>
      </trkpt>
      <trkpt lat="45.00163" lon="5.41761">
        <ele>763.4</ele>
        <time>2019-10-30T14:44:34Z</time>
      </trkpt>
      <trkpt lat="45.00163" lon="5.41774">
        <ele>760.4</ele>
        <time>2019-10-30T14:44:37Z</time>
      </trkpt>
      <trkpt lat="45.00154" lon="5.41801">
        <ele>754.2</ele>
        <time>2019-10-30T14:44:44Z</time>
      </trkpt>
      <trkpt lat="45.00153" lon="5.41831">
        <ele>748.1</ele>
        <time>2019-10-30T14:44:52Z</time>
      </trkpt>
      <trkpt lat="45.00157" lon="5.41846">
        <ele>745.9</ele>
        <time>2019-10-30T14:44:55Z</time>
      </trkpt>
      <trkpt lat="45.00162" lon="5.41852">
        <ele>745.1</ele>
        <time>2019-10-30T14:44:57Z</time>
      </trkpt>
      <trkpt lat="45.00166" lon="5.41872">
        <ele>742.4</ele>
        <time>2019-10-30T14:45:01Z</time>
      </trkpt>
      <trkpt lat="45.0016" lon="5.41894">
        <ele>739.1</ele>
        <time>2019-10-30T14:45:03Z</time>
      </trkpt>
      <trkpt lat="45.0016" lon="5.41917">
        <ele>735.8</ele>
        <time>2019-10-30T14:45:06Z</time>
      </trkpt>
      <trkpt lat="45.00152" lon="5.41939">
        <ele>733</ele>
        <time>2019-10-30T14:45:11Z</time>
      </trkpt>
      <trkpt lat="45.00159" lon="5.41974">
        <ele>728.1</ele>
        <time>2019-10-30T14:45:17Z</time>
      </trkpt>
      <trkpt lat="45.00168" lon="5.42003">
        <ele>723.4</ele>
        <time>2019-10-30T14:45:24Z</time>
      </trkpt>
      <trkpt lat="45.00158" lon="5.4203">
        <ele>719.1</ele>
        <time>2019-10-30T14:45:37Z</time>
      </trkpt>
      <trkpt lat="45.00151" lon="5.42068">
        <ele>713.3</ele>
        <time>2019-10-30T14:46:04Z</time>
      </trkpt>
      <trkpt lat="45.00135" lon="5.42121">
        <ele>705.3</ele>
        <time>2019-10-30T14:46:09Z</time>
      </trkpt>
      <trkpt lat="45.00123" lon="5.42142">
        <ele>703</ele>
        <time>2019-10-30T14:46:11Z</time>
      </trkpt>
      <trkpt lat="45.00092" lon="5.42169">
        <ele>703.9</ele>
        <time>2019-10-30T14:46:14Z</time>
      </trkpt>
      <trkpt lat="45.00009" lon="5.42212">
        <ele>701.8</ele>
        <time>2019-10-30T14:46:22Z</time>
      </trkpt>
      <trkpt lat="44.99969" lon="5.42228">
        <ele>702.6</ele>
        <time>2019-10-30T14:46:26Z</time>
      </trkpt>
      <trkpt lat="44.9995" lon="5.42239">
        <ele>702</ele>
        <time>2019-10-30T14:46:28Z</time>
      </trkpt>
      <trkpt lat="44.9994" lon="5.42256">
        <ele>699.7</ele>
        <time>2019-10-30T14:46:30Z</time>
      </trkpt>
      <trkpt lat="44.99929" lon="5.42297">
        <ele>694.5</ele>
        <time>2019-10-30T14:46:34Z</time>
      </trkpt>
      <trkpt lat="44.99915" lon="5.42307">
        <ele>694</ele>
        <time>2019-10-30T14:46:36Z</time>
      </trkpt>
      <trkpt lat="44.999" lon="5.42311">
        <ele>694.9</ele>
        <time>2019-10-30T14:46:38Z</time>
      </trkpt>
      <trkpt lat="44.9984" lon="5.42312">
        <ele>701.1</ele>
        <time>2019-10-30T14:46:45Z</time>
      </trkpt>
      <trkpt lat="44.99783" lon="5.42301">
        <ele>703</ele>
        <time>2019-10-30T14:46:52Z</time>
      </trkpt>
      <trkpt lat="44.99773" lon="5.42308">
        <ele>702.4</ele>
        <time>2019-10-30T14:46:55Z</time>
      </trkpt>
      <trkpt lat="44.99778" lon="5.4233">
        <ele>700.9</ele>
        <time>2019-10-30T14:46:59Z</time>
      </trkpt>
      <trkpt lat="44.99783" lon="5.42341">
        <ele>700.4</ele>
        <time>2019-10-30T14:47:01Z</time>
      </trkpt>
      <trkpt lat="44.99799" lon="5.42404">
        <ele>698</ele>
        <time>2019-10-30T14:47:09Z</time>
      </trkpt>
      <trkpt lat="44.99806" lon="5.42568">
        <ele>710.9</ele>
        <time>2019-10-30T14:47:32Z</time>
      </trkpt>
      <trkpt lat="44.99804" lon="5.4258">
        <ele>712.8</ele>
        <time>2019-10-30T14:47:35Z</time>
      </trkpt>
      <trkpt lat="44.99813" lon="5.42615">
        <ele>716.7</ele>
        <time>2019-10-30T14:47:48Z</time>
      </trkpt>
      <trkpt lat="44.99839" lon="5.42646">
        <ele>715</ele>
        <time>2019-10-30T14:48:02Z</time>
      </trkpt>
      <trkpt lat="44.99858" lon="5.42661">
        <ele>711.3</ele>
        <time>2019-10-30T14:48:12Z</time>
      </trkpt>
      <trkpt lat="44.99888" lon="5.42703">
        <ele>710.4</ele>
        <time>2019-10-30T14:48:29Z</time>
      </trkpt>
      <trkpt lat="44.99897" lon="5.42728">
        <ele>713.9</ele>
        <time>2019-10-30T14:48:37Z</time>
      </trkpt>
      <trkpt lat="44.99895" lon="5.42753">
        <ele>720.4</ele>
        <time>2019-10-30T14:48:44Z</time>
      </trkpt>
      <trkpt lat="44.99902" lon="5.4278">
        <ele>719.3</ele>
        <time>2019-10-30T14:48:52Z</time>
      </trkpt>
      <trkpt lat="44.99901" lon="5.42788">
        <ele>719.9</ele>
        <time>2019-10-30T14:48:54Z</time>
      </trkpt>
      <trkpt lat="44.99906" lon="5.42809">
        <ele>719.8</ele>
        <time>2019-10-30T14:49:01Z</time>
      </trkpt>
      <trkpt lat="44.99903" lon="5.42833">
        <ele>721.6</ele>
        <time>2019-10-30T14:49:06Z</time>
      </trkpt>
      <trkpt lat="44.99911" lon="5.42864">
        <ele>719.1</ele>
        <time>2019-10-30T14:49:44Z</time>
      </trkpt>
      <trkpt lat="44.99911" lon="5.42873">
        <ele>718.8</ele>
        <time>2019-10-30T14:49:46Z</time>
      </trkpt>
      <trkpt lat="44.99894" lon="5.42898">
        <ele>719.5</ele>
        <time>2019-10-30T14:49:52Z</time>
      </trkpt>
      <trkpt lat="44.99889" lon="5.42911">
        <ele>719</ele>
        <time>2019-10-30T14:49:55Z</time>
      </trkpt>
      <trkpt lat="44.99875" lon="5.42925">
        <ele>718.6</ele>
        <time>2019-10-30T14:50:00Z</time>
      </trkpt>
      <trkpt lat="44.99877" lon="5.42935">
        <ele>717.2</ele>
        <time>2019-10-30T14:50:03Z</time>
      </trkpt>
      <trkpt lat="44.99888" lon="5.42947">
        <ele>714.4</ele>
        <time>2019-10-30T14:50:07Z</time>
      </trkpt>
      <trkpt lat="44.99898" lon="5.4297">
        <ele>708.7</ele>
        <time>2019-10-30T14:50:13Z</time>
      </trkpt>
      <trkpt lat="44.99897" lon="5.42975">
        <ele>708.2</ele>
        <time>2019-10-30T14:50:14Z</time>
      </trkpt>
      <trkpt lat="44.999" lon="5.42979">
        <ele>706.9</ele>
        <time>2019-10-30T14:50:15Z</time>
      </trkpt>
      <trkpt lat="44.99897" lon="5.42985">
        <ele>706.4</ele>
        <time>2019-10-30T14:50:16Z</time>
      </trkpt>
      <trkpt lat="44.99901" lon="5.43026">
        <ele>701.3</ele>
        <time>2019-10-30T14:50:24Z</time>
      </trkpt>
      <trkpt lat="44.99896" lon="5.43039">
        <ele>702.6</ele>
        <time>2019-10-30T14:50:26Z</time>
      </trkpt>
      <trkpt lat="44.99891" lon="5.43074">
        <ele>703.7</ele>
        <time>2019-10-30T14:50:31Z</time>
      </trkpt>
      <trkpt lat="44.99897" lon="5.43135">
        <ele>703.3</ele>
        <time>2019-10-30T14:50:42Z</time>
      </trkpt>
      <trkpt lat="44.99904" lon="5.43173">
        <ele>702.6</ele>
        <time>2019-10-30T14:50:49Z</time>
      </trkpt>
      <trkpt lat="44.99901" lon="5.43198">
        <ele>709</ele>
        <time>2019-10-30T14:50:53Z</time>
      </trkpt>
      <trkpt lat="44.99905" lon="5.43226">
        <ele>712.7</ele>
        <time>2019-10-30T14:50:58Z</time>
      </trkpt>
      <trkpt lat="44.99931" lon="5.43283">
        <ele>713.7</ele>
        <time>2019-10-30T14:51:09Z</time>
      </trkpt>
      <trkpt lat="44.99933" lon="5.43293">
        <ele>715.2</ele>
        <time>2019-10-30T14:51:11Z</time>
      </trkpt>
      <trkpt lat="44.99949" lon="5.43331">
        <ele>716.4</ele>
        <time>2019-10-30T14:51:17Z</time>
      </trkpt>
      <trkpt lat="44.99949" lon="5.43337">
        <ele>717.2</ele>
        <time>2019-10-30T14:51:18Z</time>
      </trkpt>
      <trkpt lat="44.99956" lon="5.4336">
        <ele>716.5</ele>
        <time>2019-10-30T14:51:22Z</time>
      </trkpt>
      <trkpt lat="44.9996" lon="5.434">
        <ele>718.9</ele>
        <time>2019-10-30T14:51:29Z</time>
      </trkpt>
      <trkpt lat="44.99969" lon="5.4342">
        <ele>717.6</ele>
        <time>2019-10-30T14:51:32Z</time>
      </trkpt>
      <trkpt lat="45.0001" lon="5.43475">
        <ele>712.3</ele>
        <time>2019-10-30T14:51:41Z</time>
      </trkpt>
      <trkpt lat="45.00038" lon="5.43526">
        <ele>705.7</ele>
        <time>2019-10-30T14:51:46Z</time>
      </trkpt>
      <trkpt lat="45.0009" lon="5.43563">
        <ele>692.1</ele>
        <time>2019-10-30T14:51:54Z</time>
      </trkpt>
      <trkpt lat="45.00112" lon="5.43571">
        <ele>693.8</ele>
        <time>2019-10-30T14:51:58Z</time>
      </trkpt>
      <trkpt lat="45.00152" lon="5.43606">
        <ele>695.3</ele>
        <time>2019-10-30T14:52:09Z</time>
      </trkpt>
      <trkpt lat="45.00173" lon="5.4362">
        <ele>695.8</ele>
        <time>2019-10-30T14:52:14Z</time>
      </trkpt>
      <trkpt lat="45.00273" lon="5.43671">
        <ele>697.1</ele>
        <time>2019-10-30T14:52:34Z</time>
      </trkpt>
      <trkpt lat="45.00299" lon="5.43689">
        <ele>698</ele>
        <time>2019-10-30T14:52:38Z</time>
      </trkpt>
      <trkpt lat="45.00315" lon="5.43708">
        <ele>696.8</ele>
        <time>2019-10-30T14:52:41Z</time>
      </trkpt>
      <trkpt lat="45.00325" lon="5.43733">
        <ele>693.7</ele>
        <time>2019-10-30T14:52:44Z</time>
      </trkpt>
      <trkpt lat="45.00326" lon="5.4376">
        <ele>691.7</ele>
        <time>2019-10-30T14:52:47Z</time>
      </trkpt>
      <trkpt lat="45.00306" lon="5.43963">
        <ele>712.6</ele>
        <time>2019-10-30T14:53:13Z</time>
      </trkpt>
      <trkpt lat="45.00304" lon="5.44022">
        <ele>714</ele>
        <time>2019-10-30T14:53:20Z</time>
      </trkpt>
      <trkpt lat="45.00307" lon="5.44037">
        <ele>712.7</ele>
        <time>2019-10-30T14:53:22Z</time>
      </trkpt>
      <trkpt lat="45.00317" lon="5.44054">
        <ele>709.9</ele>
        <time>2019-10-30T14:53:25Z</time>
      </trkpt>
      <trkpt lat="45.00365" lon="5.44104">
        <ele>707.4</ele>
        <time>2019-10-30T14:53:36Z</time>
      </trkpt>
      <trkpt lat="45.00435" lon="5.44128">
        <ele>710</ele>
        <time>2019-10-30T14:53:50Z</time>
      </trkpt>
      <trkpt lat="45.00457" lon="5.4412">
        <ele>713.4</ele>
        <time>2019-10-30T14:53:57Z</time>
      </trkpt>
      <trkpt lat="45.00473" lon="5.44104">
        <ele>716.3</ele>
        <time>2019-10-30T14:54:05Z</time>
      </trkpt>
      <trkpt lat="45.00521" lon="5.44102">
        <ele>720.3</ele>
        <time>2019-10-30T14:54:23Z</time>
      </trkpt>
      <trkpt lat="45.0057" lon="5.44086">
        <ele>721.8</ele>
        <time>2019-10-30T14:54:42Z</time>
      </trkpt>
      <trkpt lat="45.00606" lon="5.44057">
        <ele>726.3</ele>
        <time>2019-10-30T14:54:57Z</time>
      </trkpt>
      <trkpt lat="45.00631" lon="5.44049">
        <ele>728.2</ele>
        <time>2019-10-30T14:55:06Z</time>
      </trkpt>
      <trkpt lat="45.00643" lon="5.4404">
        <ele>730.1</ele>
        <time>2019-10-30T14:55:14Z</time>
      </trkpt>
      <trkpt lat="45.00659" lon="5.44037">
        <ele>731.2</ele>
        <time>2019-10-30T14:55:22Z</time>
      </trkpt>
      <trkpt lat="45.00685" lon="5.44024">
        <ele>736.1</ele>
        <time>2019-10-30T14:55:34Z</time>
      </trkpt>
      <trkpt lat="45.00715" lon="5.44024">
        <ele>739.9</ele>
        <time>2019-10-30T14:55:45Z</time>
      </trkpt>
      <trkpt lat="45.00741" lon="5.44033">
        <ele>740.1</ele>
        <time>2019-10-30T14:55:53Z</time>
      </trkpt>
      <trkpt lat="45.00754" lon="5.44033">
        <ele>741.8</ele>
        <time>2019-10-30T14:55:57Z</time>
      </trkpt>
      <trkpt lat="45.00803" lon="5.44058">
        <ele>741.4</ele>
        <time>2019-10-30T14:56:07Z</time>
      </trkpt>
      <trkpt lat="45.00813" lon="5.44072">
        <ele>738.6</ele>
        <time>2019-10-30T14:56:09Z</time>
      </trkpt>
      <trkpt lat="45.00817" lon="5.44086">
        <ele>735.4</ele>
        <time>2019-10-30T14:56:11Z</time>
      </trkpt>
      <trkpt lat="45.00817" lon="5.44096">
        <ele>734.5</ele>
        <time>2019-10-30T14:56:13Z</time>
      </trkpt>
      <trkpt lat="45.00811" lon="5.4412">
        <ele>731.3</ele>
        <time>2019-10-30T14:56:19Z</time>
      </trkpt>
      <trkpt lat="45.00816" lon="5.44138">
        <ele>730.3</ele>
        <time>2019-10-30T14:56:24Z</time>
      </trkpt>
      <trkpt lat="45.00839" lon="5.44145">
        <ele>732.2</ele>
        <time>2019-10-30T14:56:36Z</time>
      </trkpt>
      <trkpt lat="45.00855" lon="5.44132">
        <ele>733.9</ele>
        <time>2019-10-30T14:56:49Z</time>
      </trkpt>
      <trkpt lat="45.00901" lon="5.44119">
        <ele>736.2</ele>
        <time>2019-10-30T14:57:09Z</time>
      </trkpt>
      <trkpt lat="45.00922" lon="5.44122">
        <ele>736.3</ele>
        <time>2019-10-30T14:57:14Z</time>
      </trkpt>
      <trkpt lat="45.0094" lon="5.44135">
        <ele>735.2</ele>
        <time>2019-10-30T14:57:20Z</time>
      </trkpt>
      <trkpt lat="45.00991" lon="5.44118">
        <ele>736.4</ele>
        <time>2019-10-30T14:57:35Z</time>
      </trkpt>
      <trkpt lat="45.01056" lon="5.44104">
        <ele>742.2</ele>
        <time>2019-10-30T14:58:00Z</time>
      </trkpt>
      <trkpt lat="45.01076" lon="5.44096">
        <ele>744.5</ele>
        <time>2019-10-30T14:58:09Z</time>
      </trkpt>
      <trkpt lat="45.01157" lon="5.44103">
        <ele>746.8</ele>
        <time>2019-10-30T14:58:39Z</time>
      </trkpt>
      <trkpt lat="45.01189" lon="5.44092">
        <ele>748.5</ele>
        <time>2019-10-30T14:59:37Z</time>
      </trkpt>
      <trkpt lat="45.01224" lon="5.44086">
        <ele>750.5</ele>
        <time>2019-10-30T14:59:48Z</time>
      </trkpt>
      <trkpt lat="45.01268" lon="5.44088">
        <ele>751.3</ele>
        <time>2019-10-30T15:00:01Z</time>
      </trkpt>
      <trkpt lat="45.01315" lon="5.44086">
        <ele>751.6</ele>
        <time>2019-10-30T15:00:11Z</time>
      </trkpt>
      <trkpt lat="45.01335" lon="5.44093">
        <ele>750.8</ele>
        <time>2019-10-30T15:00:15Z</time>
      </trkpt>
      <trkpt lat="45.0142" lon="5.44106">
        <ele>749.9</ele>
        <time>2019-10-30T15:00:29Z</time>
      </trkpt>
      <trkpt lat="45.0145" lon="5.44104">
        <ele>750.5</ele>
        <time>2019-10-30T15:00:35Z</time>
      </trkpt>
      <trkpt lat="45.01469" lon="5.44108">
        <ele>749.9</ele>
        <time>2019-10-30T15:00:38Z</time>
      </trkpt>
      <trkpt lat="45.01518" lon="5.44135">
        <ele>746.2</ele>
        <time>2019-10-30T15:00:48Z</time>
      </trkpt>
      <trkpt lat="45.01529" lon="5.44139">
        <ele>745.9</ele>
        <time>2019-10-30T15:00:51Z</time>
      </trkpt>
      <trkpt lat="45.0156" lon="5.44134">
        <ele>747.1</ele>
        <time>2019-10-30T15:00:57Z</time>
      </trkpt>
      <trkpt lat="45.01603" lon="5.44145">
        <ele>746.1</ele>
        <time>2019-10-30T15:01:10Z</time>
      </trkpt>
      <trkpt lat="45.01647" lon="5.44145">
        <ele>747</ele>
        <time>2019-10-30T15:01:20Z</time>
      </trkpt>
      <trkpt lat="45.01671" lon="5.44138">
        <ele>748.8</ele>
        <time>2019-10-30T15:01:26Z</time>
      </trkpt>
      <trkpt lat="45.01693" lon="5.44141">
        <ele>749.7</ele>
        <time>2019-10-30T15:01:31Z</time>
      </trkpt>
      <trkpt lat="45.01718" lon="5.44164">
        <ele>748.2</ele>
        <time>2019-10-30T15:01:37Z</time>
      </trkpt>
      <trkpt lat="45.01732" lon="5.44171">
        <ele>748.2</ele>
        <time>2019-10-30T15:01:40Z</time>
      </trkpt>
      <trkpt lat="45.01752" lon="5.44174">
        <ele>749.2</ele>
        <time>2019-10-30T15:01:45Z</time>
      </trkpt>
      <trkpt lat="45.01811" lon="5.44167">
        <ele>753.6</ele>
        <time>2019-10-30T15:02:04Z</time>
      </trkpt>
      <trkpt lat="45.01821" lon="5.44161">
        <ele>755.3</ele>
        <time>2019-10-30T15:02:07Z</time>
      </trkpt>
      <trkpt lat="45.01839" lon="5.44145">
        <ele>759.4</ele>
        <time>2019-10-30T15:02:13Z</time>
      </trkpt>
      <trkpt lat="45.01862" lon="5.44116">
        <ele>765.6</ele>
        <time>2019-10-30T15:02:21Z</time>
      </trkpt>
      <trkpt lat="45.01869" lon="5.44112">
        <ele>766.6</ele>
        <time>2019-10-30T15:02:23Z</time>
      </trkpt>
      <trkpt lat="45.01874" lon="5.44115">
        <ele>766.3</ele>
        <time>2019-10-30T15:02:25Z</time>
      </trkpt>
      <trkpt lat="45.0188" lon="5.44139">
        <ele>762.1</ele>
        <time>2019-10-30T15:02:30Z</time>
      </trkpt>
      <trkpt lat="45.01896" lon="5.4417">
        <ele>757.6</ele>
        <time>2019-10-30T15:02:36Z</time>
      </trkpt>
      <trkpt lat="45.01911" lon="5.44186">
        <ele>756.5</ele>
        <time>2019-10-30T15:02:39Z</time>
      </trkpt>
      <trkpt lat="45.01922" lon="5.44194">
        <ele>756</ele>
        <time>2019-10-30T15:02:41Z</time>
      </trkpt>
      <trkpt lat="45.01943" lon="5.442">
        <ele>755.4</ele>
        <time>2019-10-30T15:02:44Z</time>
      </trkpt>
      <trkpt lat="45.02024" lon="5.44206">
        <ele>756.4</ele>
        <time>2019-10-30T15:02:56Z</time>
      </trkpt>
      <trkpt lat="45.02065" lon="5.44223">
        <ele>757.3</ele>
        <time>2019-10-30T15:03:03Z</time>
      </trkpt>
      <trkpt lat="45.02089" lon="5.44227">
        <ele>758.6</ele>
        <time>2019-10-30T15:03:07Z</time>
      </trkpt>
      <trkpt lat="45.02135" lon="5.44221">
        <ele>762.3</ele>
        <time>2019-10-30T15:03:19Z</time>
      </trkpt>
      <trkpt lat="45.0214" lon="5.44224">
        <ele>762.4</ele>
        <time>2019-10-30T15:03:21Z</time>
      </trkpt>
      <trkpt lat="45.02166" lon="5.44268">
        <ele>759.7</ele>
        <time>2019-10-30T15:04:04Z</time>
      </trkpt>
      <trkpt lat="45.02245" lon="5.44304">
        <ele>756.4</ele>
        <time>2019-10-30T15:04:25Z</time>
      </trkpt>
      <trkpt lat="45.02303" lon="5.4432">
        <ele>756</ele>
        <time>2019-10-30T15:04:39Z</time>
      </trkpt>
      <trkpt lat="45.02425" lon="5.44361">
        <ele>758.5</ele>
        <time>2019-10-30T15:05:03Z</time>
      </trkpt>
      <trkpt lat="45.02502" lon="5.44379">
        <ele>760.1</ele>
        <time>2019-10-30T15:05:18Z</time>
      </trkpt>
      <trkpt lat="45.02579" lon="5.44385">
        <ele>760.9</ele>
        <time>2019-10-30T15:05:32Z</time>
      </trkpt>
      <trkpt lat="45.02679" lon="5.44398">
        <ele>766.8</ele>
        <time>2019-10-30T15:05:51Z</time>
      </trkpt>
      <trkpt lat="45.02702" lon="5.44398">
        <ele>768.2</ele>
        <time>2019-10-30T15:05:56Z</time>
      </trkpt>
      <trkpt lat="45.02729" lon="5.44391">
        <ele>771.7</ele>
        <time>2019-10-30T15:06:02Z</time>
      </trkpt>
      <trkpt lat="45.02759" lon="5.44372">
        <ele>779.2</ele>
        <time>2019-10-30T15:06:09Z</time>
      </trkpt>
      <trkpt lat="45.02782" lon="5.44365">
        <ele>783.8</ele>
        <time>2019-10-30T15:06:14Z</time>
      </trkpt>
      <trkpt lat="45.0283" lon="5.4436">
        <ele>790.7</ele>
        <time>2019-10-30T15:06:28Z</time>
      </trkpt>
      <trkpt lat="45.02885" lon="5.44389">
        <ele>787.5</ele>
        <time>2019-10-30T15:06:42Z</time>
      </trkpt>
      <trkpt lat="45.02917" lon="5.44399">
        <ele>788.2</ele>
        <time>2019-10-30T15:06:48Z</time>
      </trkpt>
      <trkpt lat="45.03056" lon="5.44413">
        <ele>797.5</ele>
        <time>2019-10-30T15:07:22Z</time>
      </trkpt>
      <trkpt lat="45.03078" lon="5.44401">
        <ele>803.1</ele>
        <time>2019-10-30T15:07:29Z</time>
      </trkpt>
      <trkpt lat="45.03114" lon="5.44395">
        <ele>807.1</ele>
        <time>2019-10-30T15:07:41Z</time>
      </trkpt>
      <trkpt lat="45.03159" lon="5.44398">
        <ele>809.1</ele>
        <time>2019-10-30T15:07:54Z</time>
      </trkpt>
      <trkpt lat="45.03301" lon="5.44387">
        <ele>819.8</ele>
        <time>2019-10-30T15:08:38Z</time>
      </trkpt>
      <trkpt lat="45.03314" lon="5.44378">
        <ele>822.1</ele>
        <time>2019-10-30T15:08:42Z</time>
      </trkpt>
      <trkpt lat="45.03312" lon="5.44371">
        <ele>823.2</ele>
        <time>2019-10-30T15:08:45Z</time>
      </trkpt>
      <trkpt lat="45.03283" lon="5.44353">
        <ele>825</ele>
        <time>2019-10-30T15:09:08Z</time>
      </trkpt>
      <trkpt lat="45.03229" lon="5.44334">
        <ele>826.4</ele>
        <time>2019-10-30T15:10:19Z</time>
      </trkpt>
      <trkpt lat="45.03209" lon="5.44319">
        <ele>830.4</ele>
        <time>2019-10-30T15:10:26Z</time>
      </trkpt>
      <trkpt lat="45.03196" lon="5.44313">
        <ele>831.5</ele>
        <time>2019-10-30T15:10:30Z</time>
      </trkpt>
      <trkpt lat="45.03173" lon="5.44296">
        <ele>835.7</ele>
        <time>2019-10-30T15:10:38Z</time>
      </trkpt>
      <trkpt lat="45.03161" lon="5.44291">
        <ele>836.6</ele>
        <time>2019-10-30T15:10:43Z</time>
      </trkpt>
      <trkpt lat="45.03157" lon="5.44284">
        <ele>838.3</ele>
        <time>2019-10-30T15:10:46Z</time>
      </trkpt>
      <trkpt lat="45.03161" lon="5.44276">
        <ele>840.6</ele>
        <time>2019-10-30T15:10:50Z</time>
      </trkpt>
      <trkpt lat="45.03185" lon="5.44262">
        <ele>845.9</ele>
        <time>2019-10-30T15:11:05Z</time>
      </trkpt>
      <trkpt lat="45.03217" lon="5.44249">
        <ele>851.8</ele>
        <time>2019-10-30T15:11:24Z</time>
      </trkpt>
      <trkpt lat="45.03285" lon="5.44245">
        <ele>855.8</ele>
        <time>2019-10-30T15:12:40Z</time>
      </trkpt>
      <trkpt lat="45.03288" lon="5.44241">
        <ele>856.8</ele>
        <time>2019-10-30T15:12:42Z</time>
      </trkpt>
      <trkpt lat="45.03289" lon="5.44237">
        <ele>857.8</ele>
        <time>2019-10-30T15:12:44Z</time>
      </trkpt>
      <trkpt lat="45.03274" lon="5.44218">
        <ele>862.3</ele>
        <time>2019-10-30T15:12:55Z</time>
      </trkpt>
      <trkpt lat="45.03233" lon="5.44192">
        <ele>865.7</ele>
        <time>2019-10-30T15:13:12Z</time>
      </trkpt>
      <trkpt lat="45.03216" lon="5.44173">
        <ele>868.4</ele>
        <time>2019-10-30T15:13:21Z</time>
      </trkpt>
      <trkpt lat="45.03168" lon="5.44144">
        <ele>871.1</ele>
        <time>2019-10-30T15:13:39Z</time>
      </trkpt>
      <trkpt lat="45.03143" lon="5.44126">
        <ele>874.5</ele>
        <time>2019-10-30T15:13:49Z</time>
      </trkpt>
      <trkpt lat="45.0311" lon="5.44084">
        <ele>882.1</ele>
        <time>2019-10-30T15:14:05Z</time>
      </trkpt>
      <trkpt lat="45.03096" lon="5.44077">
        <ele>882.5</ele>
        <time>2019-10-30T15:14:11Z</time>
      </trkpt>
      <trkpt lat="45.03087" lon="5.44083">
        <ele>880.4</ele>
        <time>2019-10-30T15:14:17Z</time>
      </trkpt>
      <trkpt lat="45.03076" lon="5.44084">
        <ele>880.2</ele>
        <time>2019-10-30T15:14:22Z</time>
      </trkpt>
      <trkpt lat="45.03052" lon="5.44079">
        <ele>882.7</ele>
        <time>2019-10-30T15:14:31Z</time>
      </trkpt>
      <trkpt lat="45.03044" lon="5.44073">
        <ele>884.5</ele>
        <time>2019-10-30T15:14:35Z</time>
      </trkpt>
      <trkpt lat="45.03031" lon="5.4407">
        <ele>885.9</ele>
        <time>2019-10-30T15:14:40Z</time>
      </trkpt>
      <trkpt lat="45.03011" lon="5.44055">
        <ele>889.7</ele>
        <time>2019-10-30T15:14:48Z</time>
      </trkpt>
      <trkpt lat="45.02994" lon="5.44049">
        <ele>890.8</ele>
        <time>2019-10-30T15:14:57Z</time>
      </trkpt>
      <trkpt lat="45.0296" lon="5.44021">
        <ele>894.4</ele>
        <time>2019-10-30T15:15:10Z</time>
      </trkpt>
      <trkpt lat="45.02928" lon="5.44007">
        <ele>895.9</ele>
        <time>2019-10-30T15:15:23Z</time>
      </trkpt>
      <trkpt lat="45.029" lon="5.43982">
        <ele>900.4</ele>
        <time>2019-10-30T15:15:35Z</time>
      </trkpt>
      <trkpt lat="45.02821" lon="5.4394">
        <ele>908.7</ele>
        <time>2019-10-30T15:16:04Z</time>
      </trkpt>
      <trkpt lat="45.02821" lon="5.43936">
        <ele>909.8</ele>
        <time>2019-10-30T15:16:06Z</time>
      </trkpt>
      <trkpt lat="45.02851" lon="5.43922">
        <ele>913.6</ele>
        <time>2019-10-30T15:16:29Z</time>
      </trkpt>
      <trkpt lat="45.02906" lon="5.4391">
        <ele>914.9</ele>
        <time>2019-10-30T15:16:51Z</time>
      </trkpt>
      <trkpt lat="45.02935" lon="5.43907">
        <ele>915.3</ele>
        <time>2019-10-30T15:17:02Z</time>
      </trkpt>
      <trkpt lat="45.02966" lon="5.4389">
        <ele>916.3</ele>
        <time>2019-10-30T15:17:15Z</time>
      </trkpt>
      <trkpt lat="45.0297" lon="5.43881">
        <ele>916.5</ele>
        <time>2019-10-30T15:17:19Z</time>
      </trkpt>
      <trkpt lat="45.02967" lon="5.4387">
        <ele>917.1</ele>
        <time>2019-10-30T15:17:23Z</time>
      </trkpt>
      <trkpt lat="45.0296" lon="5.43863">
        <ele>917.8</ele>
        <time>2019-10-30T15:17:28Z</time>
      </trkpt>
      <trkpt lat="45.02925" lon="5.43805">
        <ele>924.7</ele>
        <time>2019-10-30T15:17:51Z</time>
      </trkpt>
      <trkpt lat="45.02895" lon="5.43742">
        <ele>930.7</ele>
        <time>2019-10-30T15:18:06Z</time>
      </trkpt>
      <trkpt lat="45.02869" lon="5.43711">
        <ele>936.3</ele>
        <time>2019-10-30T15:18:18Z</time>
      </trkpt>
      <trkpt lat="45.02833" lon="5.43688">
        <ele>940.4</ele>
        <time>2019-10-30T15:18:33Z</time>
      </trkpt>
      <trkpt lat="45.02837" lon="5.4368">
        <ele>941.8</ele>
        <time>2019-10-30T15:18:38Z</time>
      </trkpt>
      <trkpt lat="45.02864" lon="5.4365">
        <ele>946.1</ele>
        <time>2019-10-30T15:19:01Z</time>
      </trkpt>
      <trkpt lat="45.02871" lon="5.43647">
        <ele>946.4</ele>
        <time>2019-10-30T15:19:05Z</time>
      </trkpt>
      <trkpt lat="45.02894" lon="5.43623">
        <ele>949</ele>
        <time>2019-10-30T15:19:19Z</time>
      </trkpt>
      <trkpt lat="45.02921" lon="5.43614">
        <ele>949.5</ele>
        <time>2019-10-30T15:19:30Z</time>
      </trkpt>
      <trkpt lat="45.02922" lon="5.43606">
        <ele>950.3</ele>
        <time>2019-10-30T15:19:35Z</time>
      </trkpt>
      <trkpt lat="45.02917" lon="5.43596">
        <ele>951.6</ele>
        <time>2019-10-30T15:19:41Z</time>
      </trkpt>
      <trkpt lat="45.02877" lon="5.43571">
        <ele>953.6</ele>
        <time>2019-10-30T15:20:02Z</time>
      </trkpt>
      <trkpt lat="45.02824" lon="5.43552">
        <ele>955.5</ele>
        <time>2019-10-30T15:20:20Z</time>
      </trkpt>
      <trkpt lat="45.02806" lon="5.43542">
        <ele>957.3</ele>
        <time>2019-10-30T15:20:27Z</time>
      </trkpt>
      <trkpt lat="45.02752" lon="5.43529">
        <ele>963</ele>
        <time>2019-10-30T15:20:47Z</time>
      </trkpt>
      <trkpt lat="45.02737" lon="5.43518">
        <ele>963.4</ele>
        <time>2019-10-30T15:20:52Z</time>
      </trkpt>
      <trkpt lat="45.0272" lon="5.43471">
        <ele>963.8</ele>
        <time>2019-10-30T15:21:06Z</time>
      </trkpt>
      <trkpt lat="45.0269" lon="5.43434">
        <ele>964.8</ele>
        <time>2019-10-30T15:21:17Z</time>
      </trkpt>
      <trkpt lat="45.02684" lon="5.43416">
        <ele>965.5</ele>
        <time>2019-10-30T15:21:21Z</time>
      </trkpt>
      <trkpt lat="45.02688" lon="5.43314">
        <ele>972.9</ele>
        <time>2019-10-30T15:21:46Z</time>
      </trkpt>
      <trkpt lat="45.02715" lon="5.43109">
        <ele>996.5</ele>
        <time>2019-10-30T15:22:45Z</time>
      </trkpt>
      <trkpt lat="45.02713" lon="5.43108">
        <ele>996.5</ele>
        <time>2019-10-30T15:22:47Z</time>
      </trkpt>
      <trkpt lat="45.02703" lon="5.43175">
        <ele>988</ele>
        <time>2019-10-30T15:25:13Z</time>
      </trkpt>
      <trkpt lat="45.0271" lon="5.43116">
        <ele>995.2</ele>
        <time>2019-10-30T15:27:54Z</time>
      </trkpt>
      <trkpt lat="45.02714" lon="5.43109">
        <ele>996.4</ele>
        <time>2019-10-30T15:27:58Z</time>
      </trkpt>
      <trkpt lat="45.02752" lon="5.4307">
        <ele>1004.2</ele>
        <time>2019-10-30T15:28:26Z</time>
      </trkpt>
      <trkpt lat="45.0277" lon="5.4306">
        <ele>1003.9</ele>
        <time>2019-10-30T15:28:34Z</time>
      </trkpt>
      <trkpt lat="45.02785" lon="5.43063">
        <ele>1003.3</ele>
        <time>2019-10-30T15:30:55Z</time>
      </trkpt>
      <trkpt lat="45.02805" lon="5.43074">
        <ele>1002.3</ele>
        <time>2019-10-30T15:31:01Z</time>
      </trkpt>
      <trkpt lat="45.02869" lon="5.43089">
        <ele>996</ele>
        <time>2019-10-30T15:31:12Z</time>
      </trkpt>
      <trkpt lat="45.02899" lon="5.43104">
        <ele>991.3</ele>
        <time>2019-10-30T15:31:15Z</time>
      </trkpt>
      <trkpt lat="45.02936" lon="5.43131">
        <ele>987.2</ele>
        <time>2019-10-30T15:31:19Z</time>
      </trkpt>
      <trkpt lat="45.02996" lon="5.43156">
        <ele>984.1</ele>
        <time>2019-10-30T15:31:25Z</time>
      </trkpt>
      <trkpt lat="45.03027" lon="5.43164">
        <ele>981.4</ele>
        <time>2019-10-30T15:31:28Z</time>
      </trkpt>
      <trkpt lat="45.03078" lon="5.4315">
        <ele>976.9</ele>
        <time>2019-10-30T15:31:33Z</time>
      </trkpt>
      <trkpt lat="45.03088" lon="5.4315">
        <ele>976</ele>
        <time>2019-10-30T15:31:34Z</time>
      </trkpt>
      <trkpt lat="45.03129" lon="5.43175">
        <ele>971.2</ele>
        <time>2019-10-30T15:31:38Z</time>
      </trkpt>
      <trkpt lat="45.03153" lon="5.43181">
        <ele>968.4</ele>
        <time>2019-10-30T15:31:40Z</time>
      </trkpt>
      <trkpt lat="45.032" lon="5.43172">
        <ele>966.4</ele>
        <time>2019-10-30T15:31:45Z</time>
      </trkpt>
      <trkpt lat="45.03208" lon="5.43175">
        <ele>965.5</ele>
        <time>2019-10-30T15:31:46Z</time>
      </trkpt>
      <trkpt lat="45.03228" lon="5.43208">
        <ele>960.5</ele>
        <time>2019-10-30T15:31:50Z</time>
      </trkpt>
      <trkpt lat="45.03242" lon="5.4324">
        <ele>956.4</ele>
        <time>2019-10-30T15:31:53Z</time>
      </trkpt>
      <trkpt lat="45.03278" lon="5.43286">
        <ele>950.2</ele>
        <time>2019-10-30T15:31:58Z</time>
      </trkpt>
      <trkpt lat="45.03304" lon="5.43336">
        <ele>944.3</ele>
        <time>2019-10-30T15:32:02Z</time>
      </trkpt>
      <trkpt lat="45.03321" lon="5.43353">
        <ele>942.6</ele>
        <time>2019-10-30T15:32:04Z</time>
      </trkpt>
      <trkpt lat="45.03375" lon="5.43372">
        <ele>938.5</ele>
        <time>2019-10-30T15:32:09Z</time>
      </trkpt>
      <trkpt lat="45.03482" lon="5.43433">
        <ele>932.9</ele>
        <time>2019-10-30T15:32:24Z</time>
      </trkpt>
      <trkpt lat="45.03509" lon="5.43451">
        <ele>931.2</ele>
        <time>2019-10-30T15:32:29Z</time>
      </trkpt>
      <trkpt lat="45.03567" lon="5.43471">
        <ele>927.5</ele>
        <time>2019-10-30T15:32:37Z</time>
      </trkpt>
      <trkpt lat="45.03624" lon="5.43508">
        <ele>922.4</ele>
        <time>2019-10-30T15:32:47Z</time>
      </trkpt>
      <trkpt lat="45.03651" lon="5.43515">
        <ele>921.5</ele>
        <time>2019-10-30T15:32:51Z</time>
      </trkpt>
      <trkpt lat="45.03672" lon="5.43515">
        <ele>920.9</ele>
        <time>2019-10-30T15:32:54Z</time>
      </trkpt>
      <trkpt lat="45.03732" lon="5.43502">
        <ele>919.5</ele>
        <time>2019-10-30T15:33:05Z</time>
      </trkpt>
      <trkpt lat="45.03768" lon="5.43513">
        <ele>917.8</ele>
        <time>2019-10-30T15:33:10Z</time>
      </trkpt>
      <trkpt lat="45.03833" lon="5.43519">
        <ele>912</ele>
        <time>2019-10-30T15:33:17Z</time>
      </trkpt>
      <trkpt lat="45.03876" lon="5.43529">
        <ele>909.2</ele>
        <time>2019-10-30T15:33:21Z</time>
      </trkpt>
      <trkpt lat="45.03887" lon="5.43529">
        <ele>908.5</ele>
        <time>2019-10-30T15:33:22Z</time>
      </trkpt>
      <trkpt lat="45.0397" lon="5.43508">
        <ele>905.8</ele>
        <time>2019-10-30T15:33:29Z</time>
      </trkpt>
      <trkpt lat="45.04005" lon="5.43504">
        <ele>904.8</ele>
        <time>2019-10-30T15:33:32Z</time>
      </trkpt>
      <trkpt lat="45.04026" lon="5.43512">
        <ele>904.1</ele>
        <time>2019-10-30T15:33:34Z</time>
      </trkpt>
      <trkpt lat="45.04045" lon="5.4353">
        <ele>903.4</ele>
        <time>2019-10-30T15:33:36Z</time>
      </trkpt>
      <trkpt lat="45.04118" lon="5.43636">
        <ele>902.2</ele>
        <time>2019-10-30T15:33:47Z</time>
      </trkpt>
      <trkpt lat="45.04123" lon="5.43639">
        <ele>902.4</ele>
        <time>2019-10-30T15:33:48Z</time>
      </trkpt>
      <trkpt lat="45.04147" lon="5.43627">
        <ele>901.2</ele>
        <time>2019-10-30T15:33:53Z</time>
      </trkpt>
      <trkpt lat="45.04367" lon="5.43559">
        <ele>908.1</ele>
        <time>2019-10-30T15:34:20Z</time>
      </trkpt>
      <trkpt lat="45.04378" lon="5.43552">
        <ele>907.2</ele>
        <time>2019-10-30T15:34:22Z</time>
      </trkpt>
      <trkpt lat="45.04387" lon="5.4354">
        <ele>905.9</ele>
        <time>2019-10-30T15:34:24Z</time>
      </trkpt>
      <trkpt lat="45.04397" lon="5.43518">
        <ele>903.5</ele>
        <time>2019-10-30T15:34:27Z</time>
      </trkpt>
      <trkpt lat="45.04418" lon="5.43496">
        <ele>901.6</ele>
        <time>2019-10-30T15:34:31Z</time>
      </trkpt>
      <trkpt lat="45.04436" lon="5.43484">
        <ele>899.1</ele>
        <time>2019-10-30T15:34:34Z</time>
      </trkpt>
      <trkpt lat="45.0445" lon="5.43482">
        <ele>897.7</ele>
        <time>2019-10-30T15:34:36Z</time>
      </trkpt>
      <trkpt lat="45.04491" lon="5.43499">
        <ele>893.9</ele>
        <time>2019-10-30T15:34:41Z</time>
      </trkpt>
      <trkpt lat="45.04532" lon="5.43494">
        <ele>893.1</ele>
        <time>2019-10-30T15:34:45Z</time>
      </trkpt>
      <trkpt lat="45.04548" lon="5.43502">
        <ele>893</ele>
        <time>2019-10-30T15:34:47Z</time>
      </trkpt>
      <trkpt lat="45.04574" lon="5.43558">
        <ele>891.9</ele>
        <time>2019-10-30T15:34:53Z</time>
      </trkpt>
      <trkpt lat="45.04593" lon="5.4357">
        <ele>892.2</ele>
        <time>2019-10-30T15:34:56Z</time>
      </trkpt>
      <trkpt lat="45.04642" lon="5.43589">
        <ele>895.5</ele>
        <time>2019-10-30T15:35:03Z</time>
      </trkpt>
      <trkpt lat="45.04656" lon="5.436">
        <ele>895.9</ele>
        <time>2019-10-30T15:35:05Z</time>
      </trkpt>
      <trkpt lat="45.04667" lon="5.43614">
        <ele>895.4</ele>
        <time>2019-10-30T15:35:07Z</time>
      </trkpt>
      <trkpt lat="45.04687" lon="5.43658">
        <ele>892.6</ele>
        <time>2019-10-30T15:35:12Z</time>
      </trkpt>
      <trkpt lat="45.04699" lon="5.43692">
        <ele>891.5</ele>
        <time>2019-10-30T15:35:16Z</time>
      </trkpt>
      <trkpt lat="45.04706" lon="5.43704">
        <ele>891.3</ele>
        <time>2019-10-30T15:35:19Z</time>
      </trkpt>
      <trkpt lat="45.04711" lon="5.43705">
        <ele>891.5</ele>
        <time>2019-10-30T15:35:21Z</time>
      </trkpt>
      <trkpt lat="45.04721" lon="5.43698">
        <ele>892.2</ele>
        <time>2019-10-30T15:35:26Z</time>
      </trkpt>
      <trkpt lat="45.04729" lon="5.43689">
        <ele>893</ele>
        <time>2019-10-30T15:35:30Z</time>
      </trkpt>
      <trkpt lat="45.04744" lon="5.43678">
        <ele>894.2</ele>
        <time>2019-10-30T15:35:36Z</time>
      </trkpt>
      <trkpt lat="45.04754" lon="5.43679">
        <ele>894.3</ele>
        <time>2019-10-30T15:35:39Z</time>
      </trkpt>
      <trkpt lat="45.04774" lon="5.4369">
        <ele>893</ele>
        <time>2019-10-30T15:35:45Z</time>
      </trkpt>
      <trkpt lat="45.04815" lon="5.43688">
        <ele>891.5</ele>
        <time>2019-10-30T15:35:54Z</time>
      </trkpt>
      <trkpt lat="45.04862" lon="5.4371">
        <ele>888.6</ele>
        <time>2019-10-30T15:36:02Z</time>
      </trkpt>
      <trkpt lat="45.049" lon="5.43714">
        <ele>887.1</ele>
        <time>2019-10-30T15:36:08Z</time>
      </trkpt>
      <trkpt lat="45.04961" lon="5.43734">
        <ele>887.1</ele>
        <time>2019-10-30T15:36:16Z</time>
      </trkpt>
      <trkpt lat="45.04975" lon="5.43746">
        <ele>887.1</ele>
        <time>2019-10-30T15:36:18Z</time>
      </trkpt>
      <trkpt lat="45.04984" lon="5.43761">
        <ele>887.1</ele>
        <time>2019-10-30T15:36:20Z</time>
      </trkpt>
      <trkpt lat="45.04996" lon="5.43805">
        <ele>887.1</ele>
        <time>2019-10-30T15:36:25Z</time>
      </trkpt>
      <trkpt lat="45.05001" lon="5.4385">
        <ele>887</ele>
        <time>2019-10-30T15:36:30Z</time>
      </trkpt>
      <trkpt lat="45.05007" lon="5.43866">
        <ele>887.1</ele>
        <time>2019-10-30T15:36:32Z</time>
      </trkpt>
      <trkpt lat="45.05018" lon="5.43885">
        <ele>887</ele>
        <time>2019-10-30T15:36:35Z</time>
      </trkpt>
      <trkpt lat="45.05041" lon="5.43912">
        <ele>886.6</ele>
        <time>2019-10-30T15:36:40Z</time>
      </trkpt>
      <trkpt lat="45.05059" lon="5.43922">
        <ele>886.1</ele>
        <time>2019-10-30T15:36:43Z</time>
      </trkpt>
      <trkpt lat="45.05107" lon="5.43938">
        <ele>885.4</ele>
        <time>2019-10-30T15:36:50Z</time>
      </trkpt>
      <trkpt lat="45.05138" lon="5.43937">
        <ele>886</ele>
        <time>2019-10-30T15:36:55Z</time>
      </trkpt>
      <trkpt lat="45.05147" lon="5.43942">
        <ele>886</ele>
        <time>2019-10-30T15:36:57Z</time>
      </trkpt>
      <trkpt lat="45.05162" lon="5.43967">
        <ele>885.7</ele>
        <time>2019-10-30T15:37:02Z</time>
      </trkpt>
      <trkpt lat="45.05168" lon="5.43983">
        <ele>885.3</ele>
        <time>2019-10-30T15:37:05Z</time>
      </trkpt>
      <trkpt lat="45.05175" lon="5.44029">
        <ele>886</ele>
        <time>2019-10-30T15:37:13Z</time>
      </trkpt>
      <trkpt lat="45.05177" lon="5.44082">
        <ele>888.1</ele>
        <time>2019-10-30T15:37:21Z</time>
      </trkpt>
      <trkpt lat="45.0518" lon="5.441">
        <ele>888.6</ele>
        <time>2019-10-30T15:37:25Z</time>
      </trkpt>
      <trkpt lat="45.05191" lon="5.44129">
        <ele>889.4</ele>
        <time>2019-10-30T15:37:32Z</time>
      </trkpt>
      <trkpt lat="45.05194" lon="5.44144">
        <ele>889.8</ele>
        <time>2019-10-30T15:37:35Z</time>
      </trkpt>
      <trkpt lat="45.05192" lon="5.44168">
        <ele>890.3</ele>
        <time>2019-10-30T15:37:42Z</time>
      </trkpt>
      <trkpt lat="45.05176" lon="5.44212">
        <ele>891.3</ele>
        <time>2019-10-30T15:37:52Z</time>
      </trkpt>
      <trkpt lat="45.0516" lon="5.44233">
        <ele>892</ele>
        <time>2019-10-30T15:37:57Z</time>
      </trkpt>
      <trkpt lat="45.05132" lon="5.44246">
        <ele>894.6</ele>
        <time>2019-10-30T15:38:05Z</time>
      </trkpt>
      <trkpt lat="45.0512" lon="5.44247">
        <ele>895.6</ele>
        <time>2019-10-30T15:38:09Z</time>
      </trkpt>
      <trkpt lat="45.05107" lon="5.44255">
        <ele>897.1</ele>
        <time>2019-10-30T15:38:14Z</time>
      </trkpt>
      <trkpt lat="45.05088" lon="5.44282">
        <ele>899.1</ele>
        <time>2019-10-30T15:38:23Z</time>
      </trkpt>
      <trkpt lat="45.0508" lon="5.44316">
        <ele>899.9</ele>
        <time>2019-10-30T15:38:29Z</time>
      </trkpt>
      <trkpt lat="45.05069" lon="5.44332">
        <ele>900.5</ele>
        <time>2019-10-30T15:38:35Z</time>
      </trkpt>
      <trkpt lat="45.05068" lon="5.44345">
        <ele>900</ele>
        <time>2019-10-30T15:38:51Z</time>
      </trkpt>
      <trkpt lat="45.05042" lon="5.44432">
        <ele>897.1</ele>
        <time>2019-10-30T15:39:02Z</time>
      </trkpt>
      <trkpt lat="45.05033" lon="5.44508">
        <ele>897.8</ele>
        <time>2019-10-30T15:39:11Z</time>
      </trkpt>
      <trkpt lat="45.05019" lon="5.44573">
        <ele>900.2</ele>
        <time>2019-10-30T15:39:23Z</time>
      </trkpt>
      <trkpt lat="45.0502" lon="5.44585">
        <ele>900.5</ele>
        <time>2019-10-30T15:39:25Z</time>
      </trkpt>
      <trkpt lat="45.05038" lon="5.44611">
        <ele>900.2</ele>
        <time>2019-10-30T15:39:31Z</time>
      </trkpt>
      <trkpt lat="45.05059" lon="5.44634">
        <ele>900.3</ele>
        <time>2019-10-30T15:39:37Z</time>
      </trkpt>
      <trkpt lat="45.05064" lon="5.44645">
        <ele>900.4</ele>
        <time>2019-10-30T15:39:39Z</time>
      </trkpt>
      <trkpt lat="45.05065" lon="5.44659">
        <ele>900.7</ele>
        <time>2019-10-30T15:39:41Z</time>
      </trkpt>
      <trkpt lat="45.0506" lon="5.44698">
        <ele>901.9</ele>
        <time>2019-10-30T15:39:47Z</time>
      </trkpt>
      <trkpt lat="45.05062" lon="5.4473">
        <ele>903</ele>
        <time>2019-10-30T15:39:52Z</time>
      </trkpt>
      <trkpt lat="45.0506" lon="5.44768">
        <ele>904.9</ele>
        <time>2019-10-30T15:40:00Z</time>
      </trkpt>
      <trkpt lat="45.05053" lon="5.44794">
        <ele>906.7</ele>
        <time>2019-10-30T15:40:07Z</time>
      </trkpt>
      <trkpt lat="45.05036" lon="5.44824">
        <ele>908.8</ele>
        <time>2019-10-30T15:40:17Z</time>
      </trkpt>
      <trkpt lat="45.05035" lon="5.44853">
        <ele>910.9</ele>
        <time>2019-10-30T15:40:25Z</time>
      </trkpt>
      <trkpt lat="45.05031" lon="5.44867">
        <ele>911.8</ele>
        <time>2019-10-30T15:40:29Z</time>
      </trkpt>
      <trkpt lat="45.05033" lon="5.4489">
        <ele>913.3</ele>
        <time>2019-10-30T15:40:39Z</time>
      </trkpt>
      <trkpt lat="45.05039" lon="5.44898">
        <ele>913.8</ele>
        <time>2019-10-30T15:40:42Z</time>
      </trkpt>
      <trkpt lat="45.05059" lon="5.44915">
        <ele>914.9</ele>
        <time>2019-10-30T15:40:50Z</time>
      </trkpt>
      <trkpt lat="45.05065" lon="5.44927">
        <ele>915</ele>
        <time>2019-10-30T15:40:54Z</time>
      </trkpt>
      <trkpt lat="45.05065" lon="5.44949">
        <ele>915.1</ele>
        <time>2019-10-30T15:41:02Z</time>
      </trkpt>
    </trkseg>
  </trk>
  <trk>
    <name><![CDATA[Crêtes de la Molière depuis Grenoble - 8384 - UtagawaVTT.com]]></name>
    <trkseg>
      <trkpt lat="45.18519" lon="5.68827">
        <ele>217.3</ele>
        <time>2014-06-22T05:10:41Z</time>
      </trkpt>
      <trkpt lat="45.1852" lon="5.68816">
        <ele>217.2</ele>
        <time>2014-06-22T05:10:43Z</time>
      </trkpt>
      <trkpt lat="45.18513" lon="5.68813">
        <ele>217.4</ele>
        <time>2014-06-22T05:10:45Z</time>
      </trkpt>
      <trkpt lat="45.18506" lon="5.68819">
        <ele>217.8</ele>
        <time>2014-06-22T05:10:47Z</time>
      </trkpt>
      <trkpt lat="45.18496" lon="5.68821">
        <ele>218.5</ele>
        <time>2014-06-22T05:10:49Z</time>
      </trkpt>
      <trkpt lat="45.18483" lon="5.6882">
        <ele>220.1</ele>
        <time>2014-06-22T05:10:52Z</time>
      </trkpt>
      <trkpt lat="45.18475" lon="5.68822">
        <ele>221.2</ele>
        <time>2014-06-22T05:10:54Z</time>
      </trkpt>
      <trkpt lat="45.18466" lon="5.68826">
        <ele>222.2</ele>
        <time>2014-06-22T05:10:56Z</time>
      </trkpt>
      <trkpt lat="45.18411" lon="5.68831">
        <ele>227.6</ele>
        <time>2014-06-22T05:11:07Z</time>
      </trkpt>
      <trkpt lat="45.18376" lon="5.68808">
        <ele>225.4</ele>
        <time>2014-06-22T05:11:15Z</time>
      </trkpt>
      <trkpt lat="45.1834" lon="5.68799">
        <ele>222.7</ele>
        <time>2014-06-22T05:11:23Z</time>
      </trkpt>
      <trkpt lat="45.18262" lon="5.68794">
        <ele>217.7</ele>
        <time>2014-06-22T05:11:42Z</time>
      </trkpt>
      <trkpt lat="45.18268" lon="5.68793">
        <ele>218.2</ele>
        <time>2014-06-22T05:12:28Z</time>
      </trkpt>
      <trkpt lat="45.18272" lon="5.68781">
        <ele>218.8</ele>
        <time>2014-06-22T05:13:24Z</time>
      </trkpt>
      <trkpt lat="45.1822" lon="5.68762">
        <ele>217.7</ele>
        <time>2014-06-22T05:13:43Z</time>
      </trkpt>
      <trkpt lat="45.18216" lon="5.68766">
        <ele>217.6</ele>
        <time>2014-06-22T05:13:45Z</time>
      </trkpt>
      <trkpt lat="45.18211" lon="5.68765">
        <ele>217.6</ele>
        <time>2014-06-22T05:13:47Z</time>
      </trkpt>
      <trkpt lat="45.18176" lon="5.68732">
        <ele>222</ele>
        <time>2014-06-22T05:13:59Z</time>
      </trkpt>
      <trkpt lat="45.1817" lon="5.68718">
        <ele>224.9</ele>
        <time>2014-06-22T05:14:02Z</time>
      </trkpt>
      <trkpt lat="45.18141" lon="5.68677">
        <ele>228.7</ele>
        <time>2014-06-22T05:14:15Z</time>
      </trkpt>
      <trkpt lat="45.18141" lon="5.68672">
        <ele>229.4</ele>
        <time>2014-06-22T05:14:17Z</time>
      </trkpt>
      <trkpt lat="45.18141" lon="5.68667">
        <ele>230.4</ele>
        <time>2014-06-22T05:14:19Z</time>
      </trkpt>
      <trkpt lat="45.18143" lon="5.68663">
        <ele>232.4</ele>
        <time>2014-06-22T05:14:21Z</time>
      </trkpt>
      <trkpt lat="45.18147" lon="5.68663">
        <ele>233.4</ele>
        <time>2014-06-22T05:14:23Z</time>
      </trkpt>
      <trkpt lat="45.1815" lon="5.68663">
        <ele>233.9</ele>
        <time>2014-06-22T05:14:25Z</time>
      </trkpt>
      <trkpt lat="45.18166" lon="5.68664">
        <ele>236.1</ele>
        <time>2014-06-22T05:14:35Z</time>
      </trkpt>
      <trkpt lat="45.18171" lon="5.68666">
        <ele>236.1</ele>
        <time>2014-06-22T05:14:39Z</time>
      </trkpt>
      <trkpt lat="45.18181" lon="5.6866">
        <ele>240.7</ele>
        <time>2014-06-22T05:14:47Z</time>
      </trkpt>
      <trkpt lat="45.18177" lon="5.68656">
        <ele>242</ele>
        <time>2014-06-22T05:14:49Z</time>
      </trkpt>
      <trkpt lat="45.18174" lon="5.68653">
        <ele>242.9</ele>
        <time>2014-06-22T05:14:51Z</time>
      </trkpt>
      <trkpt lat="45.1815" lon="5.68637">
        <ele>245.9</ele>
        <time>2014-06-22T05:15:12Z</time>
      </trkpt>
      <trkpt lat="45.18129" lon="5.6862">
        <ele>249.3</ele>
        <time>2014-06-22T05:15:30Z</time>
      </trkpt>
      <trkpt lat="45.18107" lon="5.68599">
        <ele>253.3</ele>
        <time>2014-06-22T05:15:52Z</time>
      </trkpt>
      <trkpt lat="45.18097" lon="5.68582">
        <ele>258.3</ele>
        <time>2014-06-22T05:16:16Z</time>
      </trkpt>
      <trkpt lat="45.18118" lon="5.68587">
        <ele>261.6</ele>
        <time>2014-06-22T05:16:32Z</time>
      </trkpt>
      <trkpt lat="45.18146" lon="5.68591">
        <ele>267.2</ele>
        <time>2014-06-22T05:16:55Z</time>
      </trkpt>
      <trkpt lat="45.18172" lon="5.68613">
        <ele>262.3</ele>
        <time>2014-06-22T05:17:20Z</time>
      </trkpt>
      <trkpt lat="45.18192" lon="5.68613">
        <ele>264.5</ele>
        <time>2014-06-22T05:17:35Z</time>
      </trkpt>
      <trkpt lat="45.1822" lon="5.68601">
        <ele>272.9</ele>
        <time>2014-06-22T05:17:57Z</time>
      </trkpt>
      <trkpt lat="45.18237" lon="5.68599">
        <ele>275.3</ele>
        <time>2014-06-22T05:18:12Z</time>
      </trkpt>
      <trkpt lat="45.18263" lon="5.68598">
        <ele>277.8</ele>
        <time>2014-06-22T05:18:34Z</time>
      </trkpt>
      <trkpt lat="45.18288" lon="5.68586">
        <ele>283.6</ele>
        <time>2014-06-22T05:18:55Z</time>
      </trkpt>
      <trkpt lat="45.18305" lon="5.68575">
        <ele>288.1</ele>
        <time>2014-06-22T05:19:09Z</time>
      </trkpt>
      <trkpt lat="45.18328" lon="5.68565">
        <ele>291.3</ele>
        <time>2014-06-22T05:19:23Z</time>
      </trkpt>
      <trkpt lat="45.1837" lon="5.68512">
        <ele>300.9</ele>
        <time>2014-06-22T05:19:44Z</time>
      </trkpt>
      <trkpt lat="45.1838" lon="5.68503">
        <ele>301.4</ele>
        <time>2014-06-22T05:19:51Z</time>
      </trkpt>
      <trkpt lat="45.18384" lon="5.68501">
        <ele>301.4</ele>
        <time>2014-06-22T05:19:53Z</time>
      </trkpt>
      <trkpt lat="45.18388" lon="5.68499">
        <ele>301.2</ele>
        <time>2014-06-22T05:19:55Z</time>
      </trkpt>
      <trkpt lat="45.184" lon="5.68489">
        <ele>301.1</ele>
        <time>2014-06-22T05:20:03Z</time>
      </trkpt>
      <trkpt lat="45.18404" lon="5.68484">
        <ele>301.2</ele>
        <time>2014-06-22T05:20:06Z</time>
      </trkpt>
      <trkpt lat="45.18417" lon="5.68452">
        <ele>302.4</ele>
        <time>2014-06-22T05:20:18Z</time>
      </trkpt>
      <trkpt lat="45.18443" lon="5.68388">
        <ele>305.8</ele>
        <time>2014-06-22T05:20:35Z</time>
      </trkpt>
      <trkpt lat="45.18449" lon="5.68375">
        <ele>307.9</ele>
        <time>2014-06-22T05:20:37Z</time>
      </trkpt>
      <trkpt lat="45.18455" lon="5.68362">
        <ele>310</ele>
        <time>2014-06-22T05:20:39Z</time>
      </trkpt>
      <trkpt lat="45.18481" lon="5.68312">
        <ele>314.6</ele>
        <time>2014-06-22T05:20:50Z</time>
      </trkpt>
      <trkpt lat="45.18511" lon="5.68268">
        <ele>308.1</ele>
        <time>2014-06-22T05:21:04Z</time>
      </trkpt>
      <trkpt lat="45.18529" lon="5.68211">
        <ele>305.9</ele>
        <time>2014-06-22T05:21:25Z</time>
      </trkpt>
      <trkpt lat="45.18541" lon="5.68157">
        <ele>309.2</ele>
        <time>2014-06-22T05:21:43Z</time>
      </trkpt>
      <trkpt lat="45.18545" lon="5.68143">
        <ele>309.6</ele>
        <time>2014-06-22T05:21:49Z</time>
      </trkpt>
      <trkpt lat="45.18554" lon="5.68109">
        <ele>311</ele>
        <time>2014-06-22T05:22:01Z</time>
      </trkpt>
      <trkpt lat="45.18571" lon="5.68019">
        <ele>317.7</ele>
        <time>2014-06-22T05:22:27Z</time>
      </trkpt>
      <trkpt lat="45.18564" lon="5.67943">
        <ele>324.2</ele>
        <time>2014-06-22T05:22:48Z</time>
      </trkpt>
      <trkpt lat="45.18566" lon="5.67904">
        <ele>326.5</ele>
        <time>2014-06-22T05:22:59Z</time>
      </trkpt>
      <trkpt lat="45.18567" lon="5.67898">
        <ele>327</ele>
        <time>2014-06-22T05:23:01Z</time>
      </trkpt>
      <trkpt lat="45.18568" lon="5.67893">
        <ele>327.4</ele>
        <time>2014-06-22T05:23:03Z</time>
      </trkpt>
      <trkpt lat="45.18569" lon="5.67887">
        <ele>327.9</ele>
        <time>2014-06-22T05:23:05Z</time>
      </trkpt>
      <trkpt lat="45.1857" lon="5.67881">
        <ele>328.4</ele>
        <time>2014-06-22T05:23:07Z</time>
      </trkpt>
      <trkpt lat="45.18573" lon="5.67876">
        <ele>328.6</ele>
        <time>2014-06-22T05:23:09Z</time>
      </trkpt>
      <trkpt lat="45.18575" lon="5.67871">
        <ele>328.7</ele>
        <time>2014-06-22T05:23:11Z</time>
      </trkpt>
      <trkpt lat="45.18578" lon="5.67866">
        <ele>328.9</ele>
        <time>2014-06-22T05:23:13Z</time>
      </trkpt>
      <trkpt lat="45.18604" lon="5.67816">
        <ele>332.5</ele>
        <time>2014-06-22T05:23:36Z</time>
      </trkpt>
      <trkpt lat="45.18608" lon="5.67811">
        <ele>332.9</ele>
        <time>2014-06-22T05:23:38Z</time>
      </trkpt>
      <trkpt lat="45.1861" lon="5.67805">
        <ele>333.5</ele>
        <time>2014-06-22T05:23:40Z</time>
      </trkpt>
      <trkpt lat="45.18613" lon="5.67802">
        <ele>333.7</ele>
        <time>2014-06-22T05:23:42Z</time>
      </trkpt>
      <trkpt lat="45.18632" lon="5.67769">
        <ele>337.2</ele>
        <time>2014-06-22T05:23:55Z</time>
      </trkpt>
      <trkpt lat="45.18653" lon="5.67733">
        <ele>340.9</ele>
        <time>2014-06-22T05:24:10Z</time>
      </trkpt>
      <trkpt lat="45.18707" lon="5.67688">
        <ele>341.2</ele>
        <time>2014-06-22T05:24:32Z</time>
      </trkpt>
      <trkpt lat="45.18739" lon="5.67612">
        <ele>345</ele>
        <time>2014-06-22T05:24:50Z</time>
      </trkpt>
      <trkpt lat="45.18768" lon="5.67537">
        <ele>345.7</ele>
        <time>2014-06-22T05:25:11Z</time>
      </trkpt>
      <trkpt lat="45.18737" lon="5.67469">
        <ele>354.6</ele>
        <time>2014-06-22T05:25:35Z</time>
      </trkpt>
      <trkpt lat="45.18733" lon="5.67467">
        <ele>355.5</ele>
        <time>2014-06-22T05:25:38Z</time>
      </trkpt>
      <trkpt lat="45.18729" lon="5.67465">
        <ele>356.1</ele>
        <time>2014-06-22T05:25:40Z</time>
      </trkpt>
      <trkpt lat="45.18726" lon="5.67463">
        <ele>356.7</ele>
        <time>2014-06-22T05:25:42Z</time>
      </trkpt>
      <trkpt lat="45.18724" lon="5.6746">
        <ele>357.4</ele>
        <time>2014-06-22T05:25:44Z</time>
      </trkpt>
      <trkpt lat="45.18724" lon="5.67457">
        <ele>358</ele>
        <time>2014-06-22T05:25:46Z</time>
      </trkpt>
      <trkpt lat="45.18725" lon="5.67451">
        <ele>358.6</ele>
        <time>2014-06-22T05:25:49Z</time>
      </trkpt>
      <trkpt lat="45.18744" lon="5.6741">
        <ele>363</ele>
        <time>2014-06-22T05:26:10Z</time>
      </trkpt>
      <trkpt lat="45.18753" lon="5.67392">
        <ele>364</ele>
        <time>2014-06-22T05:26:20Z</time>
      </trkpt>
      <trkpt lat="45.18755" lon="5.67388">
        <ele>364.3</ele>
        <time>2014-06-22T05:26:22Z</time>
      </trkpt>
      <trkpt lat="45.18761" lon="5.67381">
        <ele>364.8</ele>
        <time>2014-06-22T05:26:26Z</time>
      </trkpt>
      <trkpt lat="45.18764" lon="5.67373">
        <ele>365.4</ele>
        <time>2014-06-22T05:26:29Z</time>
      </trkpt>
      <trkpt lat="45.18766" lon="5.67368">
        <ele>365.9</ele>
        <time>2014-06-22T05:26:31Z</time>
      </trkpt>
      <trkpt lat="45.18775" lon="5.67333">
        <ele>369.1</ele>
        <time>2014-06-22T05:26:43Z</time>
      </trkpt>
      <trkpt lat="45.18775" lon="5.67326">
        <ele>370</ele>
        <time>2014-06-22T05:26:45Z</time>
      </trkpt>
      <trkpt lat="45.18785" lon="5.67298">
        <ele>374.4</ele>
        <time>2014-06-22T05:26:59Z</time>
      </trkpt>
      <trkpt lat="45.18796" lon="5.67283">
        <ele>377</ele>
        <time>2014-06-22T05:27:08Z</time>
      </trkpt>
      <trkpt lat="45.1881" lon="5.67263">
        <ele>381.1</ele>
        <time>2014-06-22T05:27:21Z</time>
      </trkpt>
      <trkpt lat="45.18825" lon="5.67243">
        <ele>386</ele>
        <time>2014-06-22T05:27:36Z</time>
      </trkpt>
      <trkpt lat="45.18821" lon="5.67231">
        <ele>388.3</ele>
        <time>2014-06-22T05:27:43Z</time>
      </trkpt>
      <trkpt lat="45.18819" lon="5.6723">
        <ele>388.4</ele>
        <time>2014-06-22T05:27:45Z</time>
      </trkpt>
      <trkpt lat="45.18815" lon="5.6723">
        <ele>388.2</ele>
        <time>2014-06-22T05:27:47Z</time>
      </trkpt>
      <trkpt lat="45.18811" lon="5.6723">
        <ele>387.9</ele>
        <time>2014-06-22T05:27:49Z</time>
      </trkpt>
      <trkpt lat="45.18808" lon="5.6723">
        <ele>387.8</ele>
        <time>2014-06-22T05:27:51Z</time>
      </trkpt>
      <trkpt lat="45.18805" lon="5.6723">
        <ele>387.6</ele>
        <time>2014-06-22T05:27:53Z</time>
      </trkpt>
      <trkpt lat="45.18794" lon="5.67226">
        <ele>387.7</ele>
        <time>2014-06-22T05:28:00Z</time>
      </trkpt>
      <trkpt lat="45.18791" lon="5.67227">
        <ele>387.4</ele>
        <time>2014-06-22T05:28:15Z</time>
      </trkpt>
      <trkpt lat="45.18783" lon="5.67221">
        <ele>388.4</ele>
        <time>2014-06-22T05:28:23Z</time>
      </trkpt>
      <trkpt lat="45.18761" lon="5.67204">
        <ele>391.2</ele>
        <time>2014-06-22T05:28:36Z</time>
      </trkpt>
      <trkpt lat="45.18733" lon="5.67187">
        <ele>394.6</ele>
        <time>2014-06-22T05:28:55Z</time>
      </trkpt>
      <trkpt lat="45.1873" lon="5.67186">
        <ele>394.8</ele>
        <time>2014-06-22T05:28:57Z</time>
      </trkpt>
      <trkpt lat="45.18727" lon="5.67183">
        <ele>395.3</ele>
        <time>2014-06-22T05:28:59Z</time>
      </trkpt>
      <trkpt lat="45.18698" lon="5.67171">
        <ele>397.2</ele>
        <time>2014-06-22T05:29:14Z</time>
      </trkpt>
      <trkpt lat="45.18696" lon="5.67166">
        <ele>398.1</ele>
        <time>2014-06-22T05:29:16Z</time>
      </trkpt>
      <trkpt lat="45.18695" lon="5.67161">
        <ele>398.7</ele>
        <time>2014-06-22T05:29:18Z</time>
      </trkpt>
      <trkpt lat="45.18695" lon="5.67156">
        <ele>399.4</ele>
        <time>2014-06-22T05:29:20Z</time>
      </trkpt>
      <trkpt lat="45.18696" lon="5.67152">
        <ele>400</ele>
        <time>2014-06-22T05:29:22Z</time>
      </trkpt>
      <trkpt lat="45.18698" lon="5.67107">
        <ele>405.9</ele>
        <time>2014-06-22T05:29:39Z</time>
      </trkpt>
      <trkpt lat="45.18697" lon="5.67103">
        <ele>406.4</ele>
        <time>2014-06-22T05:29:41Z</time>
      </trkpt>
      <trkpt lat="45.18697" lon="5.67098">
        <ele>407.1</ele>
        <time>2014-06-22T05:29:43Z</time>
      </trkpt>
      <trkpt lat="45.18696" lon="5.67093">
        <ele>407.8</ele>
        <time>2014-06-22T05:29:45Z</time>
      </trkpt>
      <trkpt lat="45.18695" lon="5.6708">
        <ele>409</ele>
        <time>2014-06-22T05:29:50Z</time>
      </trkpt>
      <trkpt lat="45.18694" lon="5.67076">
        <ele>409</ele>
        <time>2014-06-22T05:29:52Z</time>
      </trkpt>
      <trkpt lat="45.18691" lon="5.67071">
        <ele>409</ele>
        <time>2014-06-22T05:29:54Z</time>
      </trkpt>
      <trkpt lat="45.18688" lon="5.6707">
        <ele>409</ele>
        <time>2014-06-22T05:29:56Z</time>
      </trkpt>
      <trkpt lat="45.18685" lon="5.6707">
        <ele>409</ele>
        <time>2014-06-22T05:29:58Z</time>
      </trkpt>
      <trkpt lat="45.18683" lon="5.67072">
        <ele>409</ele>
        <time>2014-06-22T05:30:00Z</time>
      </trkpt>
      <trkpt lat="45.18645" lon="5.67114">
        <ele>407.8</ele>
        <time>2014-06-22T05:30:24Z</time>
      </trkpt>
      <trkpt lat="45.1858" lon="5.67153">
        <ele>413.3</ele>
        <time>2014-06-22T05:30:52Z</time>
      </trkpt>
      <trkpt lat="45.18516" lon="5.67208">
        <ele>413.9</ele>
        <time>2014-06-22T05:31:18Z</time>
      </trkpt>
      <trkpt lat="45.18466" lon="5.67248">
        <ele>417.7</ele>
        <time>2014-06-22T05:31:45Z</time>
      </trkpt>
      <trkpt lat="45.18405" lon="5.67266">
        <ele>423.6</ele>
        <time>2014-06-22T05:32:08Z</time>
      </trkpt>
      <trkpt lat="45.18351" lon="5.67234">
        <ele>425.8</ele>
        <time>2014-06-22T05:32:26Z</time>
      </trkpt>
      <trkpt lat="45.18303" lon="5.67209">
        <ele>424.2</ele>
        <time>2014-06-22T05:32:40Z</time>
      </trkpt>
      <trkpt lat="45.18295" lon="5.67205">
        <ele>423.7</ele>
        <time>2014-06-22T05:32:42Z</time>
      </trkpt>
      <trkpt lat="45.18287" lon="5.67203">
        <ele>423.4</ele>
        <time>2014-06-22T05:32:44Z</time>
      </trkpt>
      <trkpt lat="45.18278" lon="5.67202">
        <ele>423.3</ele>
        <time>2014-06-22T05:32:46Z</time>
      </trkpt>
      <trkpt lat="45.18269" lon="5.67202">
        <ele>423.1</ele>
        <time>2014-06-22T05:32:48Z</time>
      </trkpt>
      <trkpt lat="45.1826" lon="5.67205">
        <ele>423.3</ele>
        <time>2014-06-22T05:32:50Z</time>
      </trkpt>
      <trkpt lat="45.18252" lon="5.67208">
        <ele>423.5</ele>
        <time>2014-06-22T05:32:52Z</time>
      </trkpt>
      <trkpt lat="45.18244" lon="5.6721">
        <ele>423.8</ele>
        <time>2014-06-22T05:32:54Z</time>
      </trkpt>
      <trkpt lat="45.18225" lon="5.67215">
        <ele>424.4</ele>
        <time>2014-06-22T05:32:58Z</time>
      </trkpt>
      <trkpt lat="45.18218" lon="5.67219">
        <ele>424.8</ele>
        <time>2014-06-22T05:33:00Z</time>
      </trkpt>
      <trkpt lat="45.1821" lon="5.67225">
        <ele>425.2</ele>
        <time>2014-06-22T05:33:02Z</time>
      </trkpt>
      <trkpt lat="45.18203" lon="5.67229">
        <ele>425.5</ele>
        <time>2014-06-22T05:33:04Z</time>
      </trkpt>
      <trkpt lat="45.18195" lon="5.67232">
        <ele>425.6</ele>
        <time>2014-06-22T05:33:06Z</time>
      </trkpt>
      <trkpt lat="45.18187" lon="5.67232">
        <ele>425.5</ele>
        <time>2014-06-22T05:33:08Z</time>
      </trkpt>
      <trkpt lat="45.18169" lon="5.67221">
        <ele>424.9</ele>
        <time>2014-06-22T05:33:14Z</time>
      </trkpt>
      <trkpt lat="45.18167" lon="5.67212">
        <ele>424.6</ele>
        <time>2014-06-22T05:33:16Z</time>
      </trkpt>
      <trkpt lat="45.18161" lon="5.67204">
        <ele>424.4</ele>
        <time>2014-06-22T05:33:18Z</time>
      </trkpt>
      <trkpt lat="45.18155" lon="5.67197">
        <ele>424.3</ele>
        <time>2014-06-22T05:33:20Z</time>
      </trkpt>
      <trkpt lat="45.18111" lon="5.67152">
        <ele>423.6</ele>
        <time>2014-06-22T05:33:34Z</time>
      </trkpt>
      <trkpt lat="45.18104" lon="5.67146">
        <ele>423.5</ele>
        <time>2014-06-22T05:33:36Z</time>
      </trkpt>
      <trkpt lat="45.18096" lon="5.67141">
        <ele>423.4</ele>
        <time>2014-06-22T05:33:38Z</time>
      </trkpt>
      <trkpt lat="45.18074" lon="5.6711">
        <ele>423.3</ele>
        <time>2014-06-22T05:33:47Z</time>
      </trkpt>
      <trkpt lat="45.18062" lon="5.6704">
        <ele>421.5</ele>
        <time>2014-06-22T05:33:57Z</time>
      </trkpt>
      <trkpt lat="45.1809" lon="5.66934">
        <ele>429.6</ele>
        <time>2014-06-22T05:34:24Z</time>
      </trkpt>
      <trkpt lat="45.18138" lon="5.66879">
        <ele>431.8</ele>
        <time>2014-06-22T05:34:52Z</time>
      </trkpt>
      <trkpt lat="45.18166" lon="5.66777">
        <ele>443.1</ele>
        <time>2014-06-22T05:35:26Z</time>
      </trkpt>
      <trkpt lat="45.18208" lon="5.66694">
        <ele>450.4</ele>
        <time>2014-06-22T05:36:04Z</time>
      </trkpt>
      <trkpt lat="45.18239" lon="5.66665">
        <ele>436.3</ele>
        <time>2014-06-22T05:36:23Z</time>
      </trkpt>
      <trkpt lat="45.18293" lon="5.66556">
        <ele>460.9</ele>
        <time>2014-06-22T05:37:01Z</time>
      </trkpt>
      <trkpt lat="45.18323" lon="5.66479">
        <ele>467.4</ele>
        <time>2014-06-22T05:37:39Z</time>
      </trkpt>
      <trkpt lat="45.18365" lon="5.66406">
        <ele>476.1</ele>
        <time>2014-06-22T05:38:14Z</time>
      </trkpt>
      <trkpt lat="45.18402" lon="5.66339">
        <ele>485.5</ele>
        <time>2014-06-22T05:38:48Z</time>
      </trkpt>
      <trkpt lat="45.18452" lon="5.66271">
        <ele>491.9</ele>
        <time>2014-06-22T05:39:29Z</time>
      </trkpt>
      <trkpt lat="45.18529" lon="5.66244">
        <ele>490.4</ele>
        <time>2014-06-22T05:40:07Z</time>
      </trkpt>
      <trkpt lat="45.18594" lon="5.66309">
        <ele>488.3</ele>
        <time>2014-06-22T05:40:42Z</time>
      </trkpt>
      <trkpt lat="45.18599" lon="5.66263">
        <ele>494.2</ele>
        <time>2014-06-22T05:41:10Z</time>
      </trkpt>
      <trkpt lat="45.1857" lon="5.66184">
        <ele>501.3</ele>
        <time>2014-06-22T05:41:52Z</time>
      </trkpt>
      <trkpt lat="45.18532" lon="5.66112">
        <ele>511.3</ele>
        <time>2014-06-22T05:42:59Z</time>
      </trkpt>
      <trkpt lat="45.18527" lon="5.66102">
        <ele>513.1</ele>
        <time>2014-06-22T05:44:35Z</time>
      </trkpt>
      <trkpt lat="45.18493" lon="5.66018">
        <ele>527.7</ele>
        <time>2014-06-22T05:45:16Z</time>
      </trkpt>
      <trkpt lat="45.18457" lon="5.65961">
        <ele>545.7</ele>
        <time>2014-06-22T05:45:54Z</time>
      </trkpt>
      <trkpt lat="45.18426" lon="5.66004">
        <ele>548.4</ele>
        <time>2014-06-22T05:46:29Z</time>
      </trkpt>
      <trkpt lat="45.18421" lon="5.66061">
        <ele>548.8</ele>
        <time>2014-06-22T05:46:53Z</time>
      </trkpt>
      <trkpt lat="45.18392" lon="5.65975">
        <ele>562.4</ele>
        <time>2014-06-22T05:47:33Z</time>
      </trkpt>
      <trkpt lat="45.18394" lon="5.66005">
        <ele>558.4</ele>
        <time>2014-06-22T05:47:53Z</time>
      </trkpt>
      <trkpt lat="45.18368" lon="5.66069">
        <ele>566.4</ele>
        <time>2014-06-22T05:48:29Z</time>
      </trkpt>
      <trkpt lat="45.18354" lon="5.66108">
        <ele>570</ele>
        <time>2014-06-22T05:48:51Z</time>
      </trkpt>
      <trkpt lat="45.18329" lon="5.66162">
        <ele>578.3</ele>
        <time>2014-06-22T05:49:22Z</time>
      </trkpt>
      <trkpt lat="45.18315" lon="5.66141">
        <ele>582.2</ele>
        <time>2014-06-22T05:49:51Z</time>
      </trkpt>
      <trkpt lat="45.18296" lon="5.66087">
        <ele>587</ele>
        <time>2014-06-22T05:50:23Z</time>
      </trkpt>
      <trkpt lat="45.18249" lon="5.66023">
        <ele>598.9</ele>
        <time>2014-06-22T05:51:08Z</time>
      </trkpt>
      <trkpt lat="45.1822" lon="5.65974">
        <ele>603.9</ele>
        <time>2014-06-22T05:51:40Z</time>
      </trkpt>
      <trkpt lat="45.18188" lon="5.65938">
        <ele>608.9</ele>
        <time>2014-06-22T05:52:09Z</time>
      </trkpt>
      <trkpt lat="45.18152" lon="5.65949">
        <ele>612.9</ele>
        <time>2014-06-22T05:52:39Z</time>
      </trkpt>
      <trkpt lat="45.18064" lon="5.66013">
        <ele>617.7</ele>
        <time>2014-06-22T05:53:28Z</time>
      </trkpt>
      <trkpt lat="45.18006" lon="5.66097">
        <ele>621.3</ele>
        <time>2014-06-22T05:53:59Z</time>
      </trkpt>
      <trkpt lat="45.17988" lon="5.66216">
        <ele>626.6</ele>
        <time>2014-06-22T05:54:27Z</time>
      </trkpt>
      <trkpt lat="45.17979" lon="5.66304">
        <ele>628.6</ele>
        <time>2014-06-22T05:55:07Z</time>
      </trkpt>
      <trkpt lat="45.1795" lon="5.66277">
        <ele>633.7</ele>
        <time>2014-06-22T05:55:28Z</time>
      </trkpt>
      <trkpt lat="45.17899" lon="5.6627">
        <ele>640.9</ele>
        <time>2014-06-22T05:55:59Z</time>
      </trkpt>
      <trkpt lat="45.17821" lon="5.66331">
        <ele>646</ele>
        <time>2014-06-22T05:56:29Z</time>
      </trkpt>
      <trkpt lat="45.1775" lon="5.66286">
        <ele>646.1</ele>
        <time>2014-06-22T05:57:02Z</time>
      </trkpt>
      <trkpt lat="45.17612" lon="5.66309">
        <ele>643.2</ele>
        <time>2014-06-22T05:57:32Z</time>
      </trkpt>
      <trkpt lat="45.17517" lon="5.66403">
        <ele>640.1</ele>
        <time>2014-06-22T05:58:23Z</time>
      </trkpt>
      <trkpt lat="45.17421" lon="5.66379">
        <ele>645</ele>
        <time>2014-06-22T05:58:57Z</time>
      </trkpt>
      <trkpt lat="45.17393" lon="5.66378">
        <ele>648.8</ele>
        <time>2014-06-22T05:59:05Z</time>
      </trkpt>
      <trkpt lat="45.17348" lon="5.6641">
        <ele>647.9</ele>
        <time>2014-06-22T05:59:15Z</time>
      </trkpt>
      <trkpt lat="45.17337" lon="5.66457">
        <ele>640.7</ele>
        <time>2014-06-22T05:59:30Z</time>
      </trkpt>
      <trkpt lat="45.17292" lon="5.66468">
        <ele>645.2</ele>
        <time>2014-06-22T05:59:44Z</time>
      </trkpt>
      <trkpt lat="45.17228" lon="5.66485">
        <ele>650.1</ele>
        <time>2014-06-22T06:00:00Z</time>
      </trkpt>
      <trkpt lat="45.17206" lon="5.66517">
        <ele>647.6</ele>
        <time>2014-06-22T06:00:05Z</time>
      </trkpt>
      <trkpt lat="45.17179" lon="5.66656">
        <ele>636.9</ele>
        <time>2014-06-22T06:00:24Z</time>
      </trkpt>
      <trkpt lat="45.17168" lon="5.66685">
        <ele>640.3</ele>
        <time>2014-06-22T06:00:37Z</time>
      </trkpt>
      <trkpt lat="45.17165" lon="5.66673">
        <ele>640.3</ele>
        <time>2014-06-22T06:00:41Z</time>
      </trkpt>
      <trkpt lat="45.1716" lon="5.66671">
        <ele>640.4</ele>
        <time>2014-06-22T06:00:45Z</time>
      </trkpt>
      <trkpt lat="45.17159" lon="5.6668">
        <ele>640.6</ele>
        <time>2014-06-22T06:00:49Z</time>
      </trkpt>
      <trkpt lat="45.17155" lon="5.66687">
        <ele>640.6</ele>
        <time>2014-06-22T06:00:53Z</time>
      </trkpt>
      <trkpt lat="45.17149" lon="5.66689">
        <ele>640.5</ele>
        <time>2014-06-22T06:00:57Z</time>
      </trkpt>
      <trkpt lat="45.17133" lon="5.66658">
        <ele>642.9</ele>
        <time>2014-06-22T06:01:15Z</time>
      </trkpt>
      <trkpt lat="45.17103" lon="5.66578">
        <ele>660.9</ele>
        <time>2014-06-22T06:01:57Z</time>
      </trkpt>
      <trkpt lat="45.17113" lon="5.66556">
        <ele>663.4</ele>
        <time>2014-06-22T06:02:12Z</time>
      </trkpt>
      <trkpt lat="45.17117" lon="5.66517">
        <ele>670.8</ele>
        <time>2014-06-22T06:02:42Z</time>
      </trkpt>
      <trkpt lat="45.17109" lon="5.66475">
        <ele>682.7</ele>
        <time>2014-06-22T06:03:20Z</time>
      </trkpt>
      <trkpt lat="45.17066" lon="5.66479">
        <ele>695.7</ele>
        <time>2014-06-22T06:04:02Z</time>
      </trkpt>
      <trkpt lat="45.17124" lon="5.66447">
        <ele>685.7</ele>
        <time>2014-06-22T06:04:42Z</time>
      </trkpt>
      <trkpt lat="45.17175" lon="5.66382">
        <ele>693</ele>
        <time>2014-06-22T06:05:01Z</time>
      </trkpt>
      <trkpt lat="45.1725" lon="5.66333">
        <ele>696</ele>
        <time>2014-06-22T06:05:35Z</time>
      </trkpt>
      <trkpt lat="45.17285" lon="5.66223">
        <ele>703.7</ele>
        <time>2014-06-22T06:06:18Z</time>
      </trkpt>
      <trkpt lat="45.17284" lon="5.66211">
        <ele>704.7</ele>
        <time>2014-06-22T06:06:22Z</time>
      </trkpt>
      <trkpt lat="45.17279" lon="5.66135">
        <ele>710.5</ele>
        <time>2014-06-22T06:06:46Z</time>
      </trkpt>
      <trkpt lat="45.17278" lon="5.66087">
        <ele>713.2</ele>
        <time>2014-06-22T06:07:03Z</time>
      </trkpt>
      <trkpt lat="45.17279" lon="5.6607">
        <ele>713.1</ele>
        <time>2014-06-22T06:07:09Z</time>
      </trkpt>
      <trkpt lat="45.17279" lon="5.66055">
        <ele>713.6</ele>
        <time>2014-06-22T06:07:13Z</time>
      </trkpt>
      <trkpt lat="45.17266" lon="5.65962">
        <ele>720.2</ele>
        <time>2014-06-22T06:07:43Z</time>
      </trkpt>
      <trkpt lat="45.17258" lon="5.65889">
        <ele>726.2</ele>
        <time>2014-06-22T06:08:08Z</time>
      </trkpt>
      <trkpt lat="45.17318" lon="5.65786">
        <ele>731.1</ele>
        <time>2014-06-22T06:08:57Z</time>
      </trkpt>
      <trkpt lat="45.174" lon="5.65717">
        <ele>730.8</ele>
        <time>2014-06-22T06:09:36Z</time>
      </trkpt>
      <trkpt lat="45.17451" lon="5.65603">
        <ele>739</ele>
        <time>2014-06-22T06:10:15Z</time>
      </trkpt>
      <trkpt lat="45.17516" lon="5.65472">
        <ele>739.1</ele>
        <time>2014-06-22T06:11:03Z</time>
      </trkpt>
      <trkpt lat="45.17549" lon="5.65373">
        <ele>745.3</ele>
        <time>2014-06-22T06:11:31Z</time>
      </trkpt>
      <trkpt lat="45.1749" lon="5.65328">
        <ele>758.2</ele>
        <time>2014-06-22T06:12:20Z</time>
      </trkpt>
      <trkpt lat="45.17405" lon="5.65438">
        <ele>763.6</ele>
        <time>2014-06-22T06:13:19Z</time>
      </trkpt>
      <trkpt lat="45.17342" lon="5.65462">
        <ele>769</ele>
        <time>2014-06-22T06:13:50Z</time>
      </trkpt>
      <trkpt lat="45.17333" lon="5.65473">
        <ele>768.6</ele>
        <time>2014-06-22T06:13:55Z</time>
      </trkpt>
      <trkpt lat="45.17326" lon="5.65479">
        <ele>769.2</ele>
        <time>2014-06-22T06:13:59Z</time>
      </trkpt>
      <trkpt lat="45.17304" lon="5.65509">
        <ele>769.9</ele>
        <time>2014-06-22T06:14:13Z</time>
      </trkpt>
      <trkpt lat="45.17298" lon="5.65519">
        <ele>769.9</ele>
        <time>2014-06-22T06:14:17Z</time>
      </trkpt>
      <trkpt lat="45.17272" lon="5.65553">
        <ele>770.6</ele>
        <time>2014-06-22T06:14:33Z</time>
      </trkpt>
      <trkpt lat="45.17222" lon="5.65601">
        <ele>775.6</ele>
        <time>2014-06-22T06:15:03Z</time>
      </trkpt>
      <trkpt lat="45.17159" lon="5.6563">
        <ele>789.7</ele>
        <time>2014-06-22T06:15:36Z</time>
      </trkpt>
      <trkpt lat="45.17123" lon="5.65603">
        <ele>800.2</ele>
        <time>2014-06-22T06:16:24Z</time>
      </trkpt>
      <trkpt lat="45.17036" lon="5.65672">
        <ele>811.2</ele>
        <time>2014-06-22T06:16:29Z</time>
      </trkpt>
      <trkpt lat="45.17013" lon="5.65749">
        <ele>803.6</ele>
        <time>2014-06-22T06:17:00Z</time>
      </trkpt>
      <trkpt lat="45.16986" lon="5.6589">
        <ele>804.8</ele>
        <time>2014-06-22T06:17:45Z</time>
      </trkpt>
      <trkpt lat="45.16936" lon="5.65989">
        <ele>811</ele>
        <time>2014-06-22T06:18:33Z</time>
      </trkpt>
      <trkpt lat="45.16846" lon="5.65981">
        <ele>808.5</ele>
        <time>2014-06-22T06:19:13Z</time>
      </trkpt>
      <trkpt lat="45.16779" lon="5.65892">
        <ele>816.6</ele>
        <time>2014-06-22T06:19:55Z</time>
      </trkpt>
      <trkpt lat="45.16727" lon="5.6579">
        <ele>833.2</ele>
        <time>2014-06-22T06:20:36Z</time>
      </trkpt>
      <trkpt lat="45.16665" lon="5.65728">
        <ele>837.6</ele>
        <time>2014-06-22T06:21:10Z</time>
      </trkpt>
      <trkpt lat="45.16615" lon="5.65687">
        <ele>846.8</ele>
        <time>2014-06-22T06:21:37Z</time>
      </trkpt>
      <trkpt lat="45.16496" lon="5.65724">
        <ele>844</ele>
        <time>2014-06-22T06:22:31Z</time>
      </trkpt>
      <trkpt lat="45.16452" lon="5.65736">
        <ele>846.8</ele>
        <time>2014-06-22T06:22:52Z</time>
      </trkpt>
      <trkpt lat="45.16393" lon="5.65746">
        <ele>850.2</ele>
        <time>2014-06-22T06:23:20Z</time>
      </trkpt>
      <trkpt lat="45.16397" lon="5.65708">
        <ele>857.8</ele>
        <time>2014-06-22T06:23:59Z</time>
      </trkpt>
      <trkpt lat="45.16433" lon="5.65668">
        <ele>861.7</ele>
        <time>2014-06-22T06:24:30Z</time>
      </trkpt>
      <trkpt lat="45.16448" lon="5.65643">
        <ele>868.8</ele>
        <time>2014-06-22T06:24:50Z</time>
      </trkpt>
      <trkpt lat="45.16508" lon="5.65626">
        <ele>868.6</ele>
        <time>2014-06-22T06:25:21Z</time>
      </trkpt>
      <trkpt lat="45.16567" lon="5.65564">
        <ele>879.7</ele>
        <time>2014-06-22T06:25:58Z</time>
      </trkpt>
      <trkpt lat="45.16607" lon="5.65516">
        <ele>887.8</ele>
        <time>2014-06-22T06:26:23Z</time>
      </trkpt>
      <trkpt lat="45.16637" lon="5.65471">
        <ele>899.2</ele>
        <time>2014-06-22T06:26:52Z</time>
      </trkpt>
      <trkpt lat="45.16672" lon="5.6544">
        <ele>905.8</ele>
        <time>2014-06-22T06:27:18Z</time>
      </trkpt>
      <trkpt lat="45.16716" lon="5.6539">
        <ele>911.2</ele>
        <time>2014-06-22T06:27:54Z</time>
      </trkpt>
      <trkpt lat="45.167" lon="5.65348">
        <ele>921.3</ele>
        <time>2014-06-22T06:28:27Z</time>
      </trkpt>
      <trkpt lat="45.16678" lon="5.65343">
        <ele>926.7</ele>
        <time>2014-06-22T06:29:05Z</time>
      </trkpt>
      <trkpt lat="45.16663" lon="5.6528">
        <ele>935.4</ele>
        <time>2014-06-22T06:29:36Z</time>
      </trkpt>
      <trkpt lat="45.1667" lon="5.65204">
        <ele>944.9</ele>
        <time>2014-06-22T06:30:01Z</time>
      </trkpt>
      <trkpt lat="45.16687" lon="5.65149">
        <ele>948</ele>
        <time>2014-06-22T06:30:17Z</time>
      </trkpt>
      <trkpt lat="45.1674" lon="5.65011">
        <ele>947.3</ele>
        <time>2014-06-22T06:31:02Z</time>
      </trkpt>
      <trkpt lat="45.16745" lon="5.64996">
        <ele>947.7</ele>
        <time>2014-06-22T06:31:07Z</time>
      </trkpt>
      <trkpt lat="45.16759" lon="5.64917">
        <ele>952.8</ele>
        <time>2014-06-22T06:31:35Z</time>
      </trkpt>
      <trkpt lat="45.16762" lon="5.64889">
        <ele>956</ele>
        <time>2014-06-22T06:31:44Z</time>
      </trkpt>
      <trkpt lat="45.16758" lon="5.64871">
        <ele>960.4</ele>
        <time>2014-06-22T06:31:48Z</time>
      </trkpt>
      <trkpt lat="45.16773" lon="5.64842">
        <ele>959</ele>
        <time>2014-06-22T06:31:59Z</time>
      </trkpt>
      <trkpt lat="45.16851" lon="5.64721">
        <ele>955</ele>
        <time>2014-06-22T06:32:45Z</time>
      </trkpt>
      <trkpt lat="45.16875" lon="5.64686">
        <ele>957.9</ele>
        <time>2014-06-22T06:33:01Z</time>
      </trkpt>
      <trkpt lat="45.16884" lon="5.64682">
        <ele>957.4</ele>
        <time>2014-06-22T06:33:05Z</time>
      </trkpt>
      <trkpt lat="45.1692" lon="5.64667">
        <ele>956.2</ele>
        <time>2014-06-22T06:33:21Z</time>
      </trkpt>
      <trkpt lat="45.16996" lon="5.64671">
        <ele>959.7</ele>
        <time>2014-06-22T06:33:57Z</time>
      </trkpt>
      <trkpt lat="45.17056" lon="5.64674">
        <ele>959.4</ele>
        <time>2014-06-22T06:34:21Z</time>
      </trkpt>
      <trkpt lat="45.17062" lon="5.64667">
        <ele>961</ele>
        <time>2014-06-22T06:34:25Z</time>
      </trkpt>
      <trkpt lat="45.17063" lon="5.64657">
        <ele>963.1</ele>
        <time>2014-06-22T06:34:29Z</time>
      </trkpt>
      <trkpt lat="45.17052" lon="5.64659">
        <ele>962.7</ele>
        <time>2014-06-22T06:34:35Z</time>
      </trkpt>
      <trkpt lat="45.17038" lon="5.64665">
        <ele>961.4</ele>
        <time>2014-06-22T06:34:44Z</time>
      </trkpt>
      <trkpt lat="45.17032" lon="5.64659">
        <ele>962.7</ele>
        <time>2014-06-22T06:34:49Z</time>
      </trkpt>
      <trkpt lat="45.17029" lon="5.64648">
        <ele>965.4</ele>
        <time>2014-06-22T06:34:56Z</time>
      </trkpt>
      <trkpt lat="45.1702" lon="5.6461">
        <ele>974.2</ele>
        <time>2014-06-22T06:35:15Z</time>
      </trkpt>
      <trkpt lat="45.17005" lon="5.64574">
        <ele>982.9</ele>
        <time>2014-06-22T06:35:46Z</time>
      </trkpt>
      <trkpt lat="45.16945" lon="5.64488">
        <ele>998.3</ele>
        <time>2014-06-22T06:36:38Z</time>
      </trkpt>
      <trkpt lat="45.16888" lon="5.64468">
        <ele>1003.4</ele>
        <time>2014-06-22T06:37:16Z</time>
      </trkpt>
      <trkpt lat="45.16838" lon="5.64455">
        <ele>1010.7</ele>
        <time>2014-06-22T06:37:55Z</time>
      </trkpt>
      <trkpt lat="45.16865" lon="5.64416">
        <ele>1017.1</ele>
        <time>2014-06-22T06:38:21Z</time>
      </trkpt>
      <trkpt lat="45.16909" lon="5.64373">
        <ele>1024.4</ele>
        <time>2014-06-22T06:39:04Z</time>
      </trkpt>
      <trkpt lat="45.16973" lon="5.64417">
        <ele>1016</ele>
        <time>2014-06-22T06:39:47Z</time>
      </trkpt>
      <trkpt lat="45.17032" lon="5.64377">
        <ele>1025.4</ele>
        <time>2014-06-22T06:40:26Z</time>
      </trkpt>
      <trkpt lat="45.17022" lon="5.64354">
        <ele>1029.9</ele>
        <time>2014-06-22T06:41:06Z</time>
      </trkpt>
      <trkpt lat="45.16982" lon="5.64334">
        <ele>1034.8</ele>
        <time>2014-06-22T06:41:38Z</time>
      </trkpt>
      <trkpt lat="45.1692" lon="5.6429">
        <ele>1044.7</ele>
        <time>2014-06-22T06:42:29Z</time>
      </trkpt>
      <trkpt lat="45.16911" lon="5.64205">
        <ele>1063</ele>
        <time>2014-06-22T06:43:10Z</time>
      </trkpt>
      <trkpt lat="45.16926" lon="5.64156">
        <ele>1070.4</ele>
        <time>2014-06-22T06:43:49Z</time>
      </trkpt>
      <trkpt lat="45.16893" lon="5.64107">
        <ele>1078.7</ele>
        <time>2014-06-22T06:44:39Z</time>
      </trkpt>
      <trkpt lat="45.16866" lon="5.64053">
        <ele>1087</ele>
        <time>2014-06-22T06:45:24Z</time>
      </trkpt>
      <trkpt lat="45.16816" lon="5.64027">
        <ele>1096</ele>
        <time>2014-06-22T06:45:54Z</time>
      </trkpt>
      <trkpt lat="45.16814" lon="5.6398">
        <ele>1102.3</ele>
        <time>2014-06-22T06:46:15Z</time>
      </trkpt>
      <trkpt lat="45.16813" lon="5.63968">
        <ele>1103.8</ele>
        <time>2014-06-22T06:46:19Z</time>
      </trkpt>
      <trkpt lat="45.16833" lon="5.63943">
        <ele>1104.2</ele>
        <time>2014-06-22T06:46:43Z</time>
      </trkpt>
      <trkpt lat="45.16827" lon="5.63939">
        <ele>1105.6</ele>
        <time>2014-06-22T06:46:47Z</time>
      </trkpt>
      <trkpt lat="45.16821" lon="5.63938">
        <ele>1106.5</ele>
        <time>2014-06-22T06:46:51Z</time>
      </trkpt>
      <trkpt lat="45.16811" lon="5.63926">
        <ele>1109.3</ele>
        <time>2014-06-22T06:47:03Z</time>
      </trkpt>
      <trkpt lat="45.16809" lon="5.63919">
        <ele>1110.3</ele>
        <time>2014-06-22T06:47:07Z</time>
      </trkpt>
      <trkpt lat="45.16807" lon="5.63911">
        <ele>1111.5</ele>
        <time>2014-06-22T06:47:12Z</time>
      </trkpt>
      <trkpt lat="45.16801" lon="5.63888">
        <ele>1114.5</ele>
        <time>2014-06-22T06:47:24Z</time>
      </trkpt>
      <trkpt lat="45.16774" lon="5.63834">
        <ele>1122.2</ele>
        <time>2014-06-22T06:48:01Z</time>
      </trkpt>
      <trkpt lat="45.16747" lon="5.63787">
        <ele>1126.8</ele>
        <time>2014-06-22T06:48:35Z</time>
      </trkpt>
      <trkpt lat="45.1672" lon="5.63762">
        <ele>1129</ele>
        <time>2014-06-22T06:49:00Z</time>
      </trkpt>
      <trkpt lat="45.16712" lon="5.63732">
        <ele>1134.3</ele>
        <time>2014-06-22T06:49:22Z</time>
      </trkpt>
      <trkpt lat="45.16751" lon="5.63716">
        <ele>1137.7</ele>
        <time>2014-06-22T06:49:41Z</time>
      </trkpt>
      <trkpt lat="45.16818" lon="5.6377">
        <ele>1131</ele>
        <time>2014-06-22T06:50:08Z</time>
      </trkpt>
      <trkpt lat="45.16938" lon="5.63715">
        <ele>1138.7</ele>
        <time>2014-06-22T06:50:51Z</time>
      </trkpt>
      <trkpt lat="45.17027" lon="5.63607">
        <ele>1153.3</ele>
        <time>2014-06-22T06:51:37Z</time>
      </trkpt>
      <trkpt lat="45.17058" lon="5.63578">
        <ele>1154.8</ele>
        <time>2014-06-22T06:51:54Z</time>
      </trkpt>
      <trkpt lat="45.17068" lon="5.63578">
        <ele>1153.2</ele>
        <time>2014-06-22T06:51:58Z</time>
      </trkpt>
      <trkpt lat="45.1711" lon="5.63569">
        <ele>1150.6</ele>
        <time>2014-06-22T06:52:15Z</time>
      </trkpt>
      <trkpt lat="45.172" lon="5.63458">
        <ele>1154.5</ele>
        <time>2014-06-22T06:53:01Z</time>
      </trkpt>
      <trkpt lat="45.17178" lon="5.63346">
        <ele>1161.7</ele>
        <time>2014-06-22T06:53:31Z</time>
      </trkpt>
      <trkpt lat="45.17178" lon="5.63143">
        <ele>1161.6</ele>
        <time>2014-06-22T06:54:20Z</time>
      </trkpt>
      <trkpt lat="45.1712" lon="5.63049">
        <ele>1161.7</ele>
        <time>2014-06-22T06:54:43Z</time>
      </trkpt>
      <trkpt lat="45.17067" lon="5.6294">
        <ele>1165</ele>
        <time>2014-06-22T06:55:03Z</time>
      </trkpt>
      <trkpt lat="45.17066" lon="5.62918">
        <ele>1165.6</ele>
        <time>2014-06-22T06:55:07Z</time>
      </trkpt>
      <trkpt lat="45.17032" lon="5.62725">
        <ele>1169.2</ele>
        <time>2014-06-22T06:55:54Z</time>
      </trkpt>
      <trkpt lat="45.16972" lon="5.62684">
        <ele>1172</ele>
        <time>2014-06-22T06:56:08Z</time>
      </trkpt>
      <trkpt lat="45.16947" lon="5.62659">
        <ele>1176.4</ele>
        <time>2014-06-22T06:56:13Z</time>
      </trkpt>
      <trkpt lat="45.16931" lon="5.6263">
        <ele>1178.7</ele>
        <time>2014-06-22T06:56:17Z</time>
      </trkpt>
      <trkpt lat="45.16929" lon="5.62594">
        <ele>1177.3</ele>
        <time>2014-06-22T06:56:21Z</time>
      </trkpt>
      <trkpt lat="45.16924" lon="5.62483">
        <ele>1168.7</ele>
        <time>2014-06-22T06:56:36Z</time>
      </trkpt>
      <trkpt lat="45.16848" lon="5.62433">
        <ele>1162.6</ele>
        <time>2014-06-22T06:56:56Z</time>
      </trkpt>
      <trkpt lat="45.16763" lon="5.62451">
        <ele>1165.2</ele>
        <time>2014-06-22T06:57:08Z</time>
      </trkpt>
      <trkpt lat="45.16731" lon="5.62433">
        <ele>1162.1</ele>
        <time>2014-06-22T06:57:12Z</time>
      </trkpt>
      <trkpt lat="45.16662" lon="5.62387">
        <ele>1161.2</ele>
        <time>2014-06-22T06:57:26Z</time>
      </trkpt>
      <trkpt lat="45.16632" lon="5.62393">
        <ele>1158.3</ele>
        <time>2014-06-22T06:57:33Z</time>
      </trkpt>
      <trkpt lat="45.16592" lon="5.62441">
        <ele>1157.8</ele>
        <time>2014-06-22T06:57:40Z</time>
      </trkpt>
      <trkpt lat="45.16565" lon="5.62515">
        <ele>1163.7</ele>
        <time>2014-06-22T06:57:48Z</time>
      </trkpt>
      <trkpt lat="45.16559" lon="5.62559">
        <ele>1170.5</ele>
        <time>2014-06-22T06:57:54Z</time>
      </trkpt>
      <trkpt lat="45.16533" lon="5.62607">
        <ele>1170.7</ele>
        <time>2014-06-22T06:58:09Z</time>
      </trkpt>
      <trkpt lat="45.16474" lon="5.62662">
        <ele>1165</ele>
        <time>2014-06-22T06:58:26Z</time>
      </trkpt>
      <trkpt lat="45.16457" lon="5.62662">
        <ele>1164</ele>
        <time>2014-06-22T06:58:30Z</time>
      </trkpt>
      <trkpt lat="45.16407" lon="5.62645">
        <ele>1161.7</ele>
        <time>2014-06-22T06:58:43Z</time>
      </trkpt>
      <trkpt lat="45.16304" lon="5.62552">
        <ele>1160.6</ele>
        <time>2014-06-22T06:59:16Z</time>
      </trkpt>
      <trkpt lat="45.16323" lon="5.62482">
        <ele>1149.3</ele>
        <time>2014-06-22T06:59:29Z</time>
      </trkpt>
      <trkpt lat="45.16275" lon="5.62427">
        <ele>1149.6</ele>
        <time>2014-06-22T06:59:39Z</time>
      </trkpt>
      <trkpt lat="45.16217" lon="5.62358">
        <ele>1157.5</ele>
        <time>2014-06-22T06:59:55Z</time>
      </trkpt>
      <trkpt lat="45.1621" lon="5.62263">
        <ele>1153.1</ele>
        <time>2014-06-22T07:00:11Z</time>
      </trkpt>
      <trkpt lat="45.16207" lon="5.62241">
        <ele>1152.4</ele>
        <time>2014-06-22T07:00:15Z</time>
      </trkpt>
      <trkpt lat="45.16191" lon="5.62217">
        <ele>1154.3</ele>
        <time>2014-06-22T07:00:21Z</time>
      </trkpt>
      <trkpt lat="45.16164" lon="5.6219">
        <ele>1157.8</ele>
        <time>2014-06-22T07:00:27Z</time>
      </trkpt>
      <trkpt lat="45.16146" lon="5.62158">
        <ele>1159.3</ele>
        <time>2014-06-22T07:00:31Z</time>
      </trkpt>
      <trkpt lat="45.16138" lon="5.62128">
        <ele>1159</ele>
        <time>2014-06-22T07:00:35Z</time>
      </trkpt>
      <trkpt lat="45.16129" lon="5.62032">
        <ele>1154.8</ele>
        <time>2014-06-22T07:00:52Z</time>
      </trkpt>
      <trkpt lat="45.16119" lon="5.62009">
        <ele>1154.6</ele>
        <time>2014-06-22T07:00:56Z</time>
      </trkpt>
      <trkpt lat="45.16104" lon="5.61972">
        <ele>1155.4</ele>
        <time>2014-06-22T07:01:02Z</time>
      </trkpt>
      <trkpt lat="45.16097" lon="5.61846">
        <ele>1159.4</ele>
        <time>2014-06-22T07:01:27Z</time>
      </trkpt>
      <trkpt lat="45.1604" lon="5.6177">
        <ele>1152</ele>
        <time>2014-06-22T07:01:55Z</time>
      </trkpt>
      <trkpt lat="45.15927" lon="5.61793">
        <ele>1148.7</ele>
        <time>2014-06-22T07:02:10Z</time>
      </trkpt>
      <trkpt lat="45.15867" lon="5.61812">
        <ele>1141</ele>
        <time>2014-06-22T07:02:18Z</time>
      </trkpt>
      <trkpt lat="45.15845" lon="5.61847">
        <ele>1141.9</ele>
        <time>2014-06-22T07:02:23Z</time>
      </trkpt>
      <trkpt lat="45.15799" lon="5.61946">
        <ele>1153</ele>
        <time>2014-06-22T07:02:34Z</time>
      </trkpt>
      <trkpt lat="45.15775" lon="5.61941">
        <ele>1148.2</ele>
        <time>2014-06-22T07:02:38Z</time>
      </trkpt>
      <trkpt lat="45.15742" lon="5.6193">
        <ele>1140.8</ele>
        <time>2014-06-22T07:02:44Z</time>
      </trkpt>
      <trkpt lat="45.15626" lon="5.6191">
        <ele>1134.7</ele>
        <time>2014-06-22T07:03:08Z</time>
      </trkpt>
      <trkpt lat="45.1557" lon="5.61905">
        <ele>1131.5</ele>
        <time>2014-06-22T07:03:15Z</time>
      </trkpt>
      <trkpt lat="45.15484" lon="5.61939">
        <ele>1123.7</ele>
        <time>2014-06-22T07:03:25Z</time>
      </trkpt>
      <trkpt lat="45.15449" lon="5.61939">
        <ele>1120</ele>
        <time>2014-06-22T07:03:29Z</time>
      </trkpt>
      <trkpt lat="45.15392" lon="5.61912">
        <ele>1111.6</ele>
        <time>2014-06-22T07:03:36Z</time>
      </trkpt>
      <trkpt lat="45.1536" lon="5.61876">
        <ele>1104.9</ele>
        <time>2014-06-22T07:03:41Z</time>
      </trkpt>
      <trkpt lat="45.153" lon="5.61859">
        <ele>1098.9</ele>
        <time>2014-06-22T07:03:48Z</time>
      </trkpt>
      <trkpt lat="45.15168" lon="5.61899">
        <ele>1088.2</ele>
        <time>2014-06-22T07:04:01Z</time>
      </trkpt>
      <trkpt lat="45.15099" lon="5.61932">
        <ele>1083.1</ele>
        <time>2014-06-22T07:04:09Z</time>
      </trkpt>
      <trkpt lat="45.15026" lon="5.6198">
        <ele>1084.8</ele>
        <time>2014-06-22T07:04:18Z</time>
      </trkpt>
      <trkpt lat="45.14998" lon="5.61974">
        <ele>1080.3</ele>
        <time>2014-06-22T07:04:22Z</time>
      </trkpt>
      <trkpt lat="45.14957" lon="5.6197">
        <ele>1073.6</ele>
        <time>2014-06-22T07:04:28Z</time>
      </trkpt>
      <trkpt lat="45.14898" lon="5.61977">
        <ele>1068.1</ele>
        <time>2014-06-22T07:04:36Z</time>
      </trkpt>
      <trkpt lat="45.14806" lon="5.61989">
        <ele>1062.7</ele>
        <time>2014-06-22T07:04:51Z</time>
      </trkpt>
      <trkpt lat="45.14753" lon="5.62003">
        <ele>1063.2</ele>
        <time>2014-06-22T07:05:00Z</time>
      </trkpt>
      <trkpt lat="45.14727" lon="5.61984">
        <ele>1059.3</ele>
        <time>2014-06-22T07:05:04Z</time>
      </trkpt>
      <trkpt lat="45.14706" lon="5.61961">
        <ele>1054.4</ele>
        <time>2014-06-22T07:05:08Z</time>
      </trkpt>
      <trkpt lat="45.14636" lon="5.61939">
        <ele>1054</ele>
        <time>2014-06-22T07:05:17Z</time>
      </trkpt>
      <trkpt lat="45.14579" lon="5.61927">
        <ele>1057</ele>
        <time>2014-06-22T07:05:23Z</time>
      </trkpt>
      <trkpt lat="45.14557" lon="5.619">
        <ele>1056.5</ele>
        <time>2014-06-22T07:05:27Z</time>
      </trkpt>
      <trkpt lat="45.14535" lon="5.61828">
        <ele>1053.4</ele>
        <time>2014-06-22T07:05:35Z</time>
      </trkpt>
      <trkpt lat="45.14542" lon="5.61779">
        <ele>1049.3</ele>
        <time>2014-06-22T07:05:39Z</time>
      </trkpt>
      <trkpt lat="45.1455" lon="5.61681">
        <ele>1043.2</ele>
        <time>2014-06-22T07:05:50Z</time>
      </trkpt>
      <trkpt lat="45.14504" lon="5.61591">
        <ele>1046.4</ele>
        <time>2014-06-22T07:06:03Z</time>
      </trkpt>
      <trkpt lat="45.14488" lon="5.61546">
        <ele>1045.1</ele>
        <time>2014-06-22T07:06:10Z</time>
      </trkpt>
      <trkpt lat="45.14483" lon="5.61528">
        <ele>1045.1</ele>
        <time>2014-06-22T07:06:14Z</time>
      </trkpt>
      <trkpt lat="45.14474" lon="5.61496">
        <ele>1046.7</ele>
        <time>2014-06-22T07:06:26Z</time>
      </trkpt>
      <trkpt lat="45.1446" lon="5.61444">
        <ele>1060.8</ele>
        <time>2014-06-22T07:06:44Z</time>
      </trkpt>
      <trkpt lat="45.14465" lon="5.61426">
        <ele>1061.8</ele>
        <time>2014-06-22T07:06:49Z</time>
      </trkpt>
      <trkpt lat="45.14472" lon="5.61413">
        <ele>1061.8</ele>
        <time>2014-06-22T07:06:53Z</time>
      </trkpt>
      <trkpt lat="45.14481" lon="5.61403">
        <ele>1060.5</ele>
        <time>2014-06-22T07:06:57Z</time>
      </trkpt>
      <trkpt lat="45.14495" lon="5.6138">
        <ele>1059.4</ele>
        <time>2014-06-22T07:07:07Z</time>
      </trkpt>
      <trkpt lat="45.14498" lon="5.61372">
        <ele>1059.7</ele>
        <time>2014-06-22T07:07:11Z</time>
      </trkpt>
      <trkpt lat="45.14538" lon="5.61324">
        <ele>1062.5</ele>
        <time>2014-06-22T07:07:36Z</time>
      </trkpt>
      <trkpt lat="45.14585" lon="5.61212">
        <ele>1071.5</ele>
        <time>2014-06-22T07:08:15Z</time>
      </trkpt>
      <trkpt lat="45.14585" lon="5.61202">
        <ele>1073.4</ele>
        <time>2014-06-22T07:08:19Z</time>
      </trkpt>
      <trkpt lat="45.14597" lon="5.61151">
        <ele>1078.3</ele>
        <time>2014-06-22T07:08:49Z</time>
      </trkpt>
      <trkpt lat="45.14624" lon="5.61112">
        <ele>1075</ele>
        <time>2014-06-22T07:09:10Z</time>
      </trkpt>
      <trkpt lat="45.14633" lon="5.61077">
        <ele>1074.3</ele>
        <time>2014-06-22T07:09:25Z</time>
      </trkpt>
      <trkpt lat="45.14627" lon="5.6107">
        <ele>1075.2</ele>
        <time>2014-06-22T07:09:29Z</time>
      </trkpt>
      <trkpt lat="45.14561" lon="5.61047">
        <ele>1086.7</ele>
        <time>2014-06-22T07:09:57Z</time>
      </trkpt>
      <trkpt lat="45.14435" lon="5.61009">
        <ele>1104.1</ele>
        <time>2014-06-22T07:10:44Z</time>
      </trkpt>
      <trkpt lat="45.144" lon="5.60997">
        <ele>1111.2</ele>
        <time>2014-06-22T07:11:05Z</time>
      </trkpt>
      <trkpt lat="45.14442" lon="5.60899">
        <ele>1116</ele>
        <time>2014-06-22T07:11:49Z</time>
      </trkpt>
      <trkpt lat="45.1452" lon="5.60808">
        <ele>1110.1</ele>
        <time>2014-06-22T07:12:39Z</time>
      </trkpt>
      <trkpt lat="45.14544" lon="5.6075">
        <ele>1112.8</ele>
        <time>2014-06-22T07:13:06Z</time>
      </trkpt>
      <trkpt lat="45.14535" lon="5.60742">
        <ele>1111.1</ele>
        <time>2014-06-22T07:13:10Z</time>
      </trkpt>
      <trkpt lat="45.14504" lon="5.60732">
        <ele>1106.2</ele>
        <time>2014-06-22T07:13:18Z</time>
      </trkpt>
      <trkpt lat="45.14457" lon="5.60701">
        <ele>1106.5</ele>
        <time>2014-06-22T07:13:27Z</time>
      </trkpt>
      <trkpt lat="45.14398" lon="5.6066">
        <ele>1101.8</ele>
        <time>2014-06-22T07:13:36Z</time>
      </trkpt>
      <trkpt lat="45.14324" lon="5.60681">
        <ele>1102.9</ele>
        <time>2014-06-22T07:13:51Z</time>
      </trkpt>
      <trkpt lat="45.14227" lon="5.60707">
        <ele>1105.9</ele>
        <time>2014-06-22T07:14:17Z</time>
      </trkpt>
      <trkpt lat="45.14175" lon="5.60694">
        <ele>1105</ele>
        <time>2014-06-22T07:14:30Z</time>
      </trkpt>
      <trkpt lat="45.14164" lon="5.60624">
        <ele>1092.9</ele>
        <time>2014-06-22T07:14:44Z</time>
      </trkpt>
      <trkpt lat="45.14167" lon="5.60567">
        <ele>1085.4</ele>
        <time>2014-06-22T07:14:51Z</time>
      </trkpt>
      <trkpt lat="45.14157" lon="5.60531">
        <ele>1082.3</ele>
        <time>2014-06-22T07:14:55Z</time>
      </trkpt>
      <trkpt lat="45.14133" lon="5.60478">
        <ele>1078.9</ele>
        <time>2014-06-22T07:15:01Z</time>
      </trkpt>
      <trkpt lat="45.14078" lon="5.60398">
        <ele>1072.4</ele>
        <time>2014-06-22T07:15:15Z</time>
      </trkpt>
      <trkpt lat="45.14038" lon="5.60336">
        <ele>1066.6</ele>
        <time>2014-06-22T07:15:26Z</time>
      </trkpt>
      <trkpt lat="45.14021" lon="5.60302">
        <ele>1062.4</ele>
        <time>2014-06-22T07:15:32Z</time>
      </trkpt>
      <trkpt lat="45.13998" lon="5.60233">
        <ele>1054.9</ele>
        <time>2014-06-22T07:15:40Z</time>
      </trkpt>
      <trkpt lat="45.13962" lon="5.60175">
        <ele>1052.4</ele>
        <time>2014-06-22T07:15:47Z</time>
      </trkpt>
      <trkpt lat="45.13929" lon="5.60126">
        <ele>1045.9</ele>
        <time>2014-06-22T07:15:53Z</time>
      </trkpt>
      <trkpt lat="45.13881" lon="5.601">
        <ele>1036.3</ele>
        <time>2014-06-22T07:15:59Z</time>
      </trkpt>
      <trkpt lat="45.13752" lon="5.60055">
        <ele>1021.8</ele>
        <time>2014-06-22T07:16:15Z</time>
      </trkpt>
      <trkpt lat="45.13712" lon="5.60051">
        <ele>1020.9</ele>
        <time>2014-06-22T07:16:23Z</time>
      </trkpt>
      <trkpt lat="45.13677" lon="5.59988">
        <ele>1018.4</ele>
        <time>2014-06-22T07:16:32Z</time>
      </trkpt>
      <trkpt lat="45.13663" lon="5.59953">
        <ele>1020.7</ele>
        <time>2014-06-22T07:16:39Z</time>
      </trkpt>
      <trkpt lat="45.13646" lon="5.59921">
        <ele>1024</ele>
        <time>2014-06-22T07:16:47Z</time>
      </trkpt>
      <trkpt lat="45.13634" lon="5.59914">
        <ele>1025.5</ele>
        <time>2014-06-22T07:16:51Z</time>
      </trkpt>
      <trkpt lat="45.13611" lon="5.5988">
        <ele>1027.5</ele>
        <time>2014-06-22T07:17:15Z</time>
      </trkpt>
      <trkpt lat="45.13574" lon="5.5982">
        <ele>1028.1</ele>
        <time>2014-06-22T07:17:40Z</time>
      </trkpt>
      <trkpt lat="45.1343" lon="5.59691">
        <ele>1020.5</ele>
        <time>2014-06-22T07:18:09Z</time>
      </trkpt>
      <trkpt lat="45.13376" lon="5.59676">
        <ele>1018.4</ele>
        <time>2014-06-22T07:18:16Z</time>
      </trkpt>
      <trkpt lat="45.13331" lon="5.59669">
        <ele>1017.1</ele>
        <time>2014-06-22T07:18:21Z</time>
      </trkpt>
      <trkpt lat="45.13271" lon="5.59604">
        <ele>1022</ele>
        <time>2014-06-22T07:18:34Z</time>
      </trkpt>
      <trkpt lat="45.13171" lon="5.59559">
        <ele>1023.3</ele>
        <time>2014-06-22T07:19:04Z</time>
      </trkpt>
      <trkpt lat="45.13145" lon="5.59553">
        <ele>1022</ele>
        <time>2014-06-22T07:19:11Z</time>
      </trkpt>
      <trkpt lat="45.13078" lon="5.59544">
        <ele>1019.1</ele>
        <time>2014-06-22T07:19:27Z</time>
      </trkpt>
      <trkpt lat="45.13013" lon="5.59538">
        <ele>1019.9</ele>
        <time>2014-06-22T07:19:39Z</time>
      </trkpt>
      <trkpt lat="45.12954" lon="5.59511">
        <ele>1023.1</ele>
        <time>2014-06-22T07:19:54Z</time>
      </trkpt>
      <trkpt lat="45.12914" lon="5.59481">
        <ele>1022.1</ele>
        <time>2014-06-22T07:20:07Z</time>
      </trkpt>
      <trkpt lat="45.12921" lon="5.59459">
        <ele>1020.1</ele>
        <time>2014-06-22T07:20:11Z</time>
      </trkpt>
      <trkpt lat="45.12964" lon="5.59344">
        <ele>1016</ele>
        <time>2014-06-22T07:20:29Z</time>
      </trkpt>
      <trkpt lat="45.12965" lon="5.59314">
        <ele>1014.9</ele>
        <time>2014-06-22T07:20:35Z</time>
      </trkpt>
      <trkpt lat="45.12954" lon="5.59275">
        <ele>1011.7</ele>
        <time>2014-06-22T07:20:49Z</time>
      </trkpt>
      <trkpt lat="45.12928" lon="5.59294">
        <ele>1009.5</ele>
        <time>2014-06-22T07:21:00Z</time>
      </trkpt>
      <trkpt lat="45.12911" lon="5.59272">
        <ele>1008</ele>
        <time>2014-06-22T07:21:04Z</time>
      </trkpt>
      <trkpt lat="45.12883" lon="5.5922">
        <ele>1013.1</ele>
        <time>2014-06-22T07:21:19Z</time>
      </trkpt>
      <trkpt lat="45.12875" lon="5.59149">
        <ele>1015.8</ele>
        <time>2014-06-22T07:21:53Z</time>
      </trkpt>
      <trkpt lat="45.12846" lon="5.59102">
        <ele>1018.2</ele>
        <time>2014-06-22T07:22:14Z</time>
      </trkpt>
      <trkpt lat="45.12819" lon="5.59074">
        <ele>1019.1</ele>
        <time>2014-06-22T07:22:30Z</time>
      </trkpt>
      <trkpt lat="45.12809" lon="5.59061">
        <ele>1019.3</ele>
        <time>2014-06-22T07:22:35Z</time>
      </trkpt>
      <trkpt lat="45.12802" lon="5.59039">
        <ele>1019.4</ele>
        <time>2014-06-22T07:22:42Z</time>
      </trkpt>
      <trkpt lat="45.1282" lon="5.58889">
        <ele>1016.6</ele>
        <time>2014-06-22T07:23:07Z</time>
      </trkpt>
      <trkpt lat="45.12812" lon="5.58874">
        <ele>1016.9</ele>
        <time>2014-06-22T07:23:11Z</time>
      </trkpt>
      <trkpt lat="45.1279" lon="5.58874">
        <ele>1017.8</ele>
        <time>2014-06-22T07:24:13Z</time>
      </trkpt>
      <trkpt lat="45.12787" lon="5.58859">
        <ele>1017.8</ele>
        <time>2014-06-22T07:25:38Z</time>
      </trkpt>
      <trkpt lat="45.1277" lon="5.5886">
        <ele>1018.5</ele>
        <time>2014-06-22T07:25:56Z</time>
      </trkpt>
      <trkpt lat="45.12771" lon="5.58825">
        <ele>1018.1</ele>
        <time>2014-06-22T07:26:23Z</time>
      </trkpt>
      <trkpt lat="45.12895" lon="5.58681">
        <ele>1014.5</ele>
        <time>2014-06-22T07:26:47Z</time>
      </trkpt>
      <trkpt lat="45.12917" lon="5.58593">
        <ele>1011.3</ele>
        <time>2014-06-22T07:26:56Z</time>
      </trkpt>
      <trkpt lat="45.1296" lon="5.58424">
        <ele>1010.1</ele>
        <time>2014-06-22T07:27:13Z</time>
      </trkpt>
      <trkpt lat="45.12991" lon="5.5832">
        <ele>1007</ele>
        <time>2014-06-22T07:27:26Z</time>
      </trkpt>
      <trkpt lat="45.13019" lon="5.58241">
        <ele>1005.7</ele>
        <time>2014-06-22T07:27:36Z</time>
      </trkpt>
      <trkpt lat="45.13038" lon="5.58217">
        <ele>1005.2</ele>
        <time>2014-06-22T07:27:40Z</time>
      </trkpt>
      <trkpt lat="45.13062" lon="5.58207">
        <ele>1004.5</ele>
        <time>2014-06-22T07:27:44Z</time>
      </trkpt>
      <trkpt lat="45.13101" lon="5.58179">
        <ele>1003.2</ele>
        <time>2014-06-22T07:27:51Z</time>
      </trkpt>
      <trkpt lat="45.13109" lon="5.58147">
        <ele>1004.3</ele>
        <time>2014-06-22T07:27:55Z</time>
      </trkpt>
      <trkpt lat="45.13087" lon="5.58124">
        <ele>1004.8</ele>
        <time>2014-06-22T07:27:59Z</time>
      </trkpt>
      <trkpt lat="45.13063" lon="5.58094">
        <ele>1005.7</ele>
        <time>2014-06-22T07:28:04Z</time>
      </trkpt>
      <trkpt lat="45.13063" lon="5.58058">
        <ele>1008.6</ele>
        <time>2014-06-22T07:28:08Z</time>
      </trkpt>
      <trkpt lat="45.13063" lon="5.58027">
        <ele>1011.8</ele>
        <time>2014-06-22T07:28:12Z</time>
      </trkpt>
      <trkpt lat="45.13056" lon="5.58003">
        <ele>1013.4</ele>
        <time>2014-06-22T07:28:16Z</time>
      </trkpt>
      <trkpt lat="45.12939" lon="5.57861">
        <ele>1024.7</ele>
        <time>2014-06-22T07:29:05Z</time>
      </trkpt>
      <trkpt lat="45.12832" lon="5.57737">
        <ele>1033.3</ele>
        <time>2014-06-22T07:29:52Z</time>
      </trkpt>
      <trkpt lat="45.12754" lon="5.57624">
        <ele>1043</ele>
        <time>2014-06-22T07:30:33Z</time>
      </trkpt>
      <trkpt lat="45.12711" lon="5.57573">
        <ele>1052.9</ele>
        <time>2014-06-22T07:30:54Z</time>
      </trkpt>
      <trkpt lat="45.12702" lon="5.57568">
        <ele>1051.8</ele>
        <time>2014-06-22T07:30:58Z</time>
      </trkpt>
      <trkpt lat="45.12678" lon="5.57554">
        <ele>1050.2</ele>
        <time>2014-06-22T07:31:08Z</time>
      </trkpt>
      <trkpt lat="45.12669" lon="5.57547">
        <ele>1049.8</ele>
        <time>2014-06-22T07:31:12Z</time>
      </trkpt>
      <trkpt lat="45.12613" lon="5.57461">
        <ele>1056.4</ele>
        <time>2014-06-22T07:31:43Z</time>
      </trkpt>
      <trkpt lat="45.12564" lon="5.57414">
        <ele>1057.2</ele>
        <time>2014-06-22T07:32:08Z</time>
      </trkpt>
      <trkpt lat="45.12561" lon="5.57404">
        <ele>1060.1</ele>
        <time>2014-06-22T07:32:12Z</time>
      </trkpt>
      <trkpt lat="45.12558" lon="5.57391">
        <ele>1063.7</ele>
        <time>2014-06-22T07:32:16Z</time>
      </trkpt>
      <trkpt lat="45.12541" lon="5.57372">
        <ele>1065.8</ele>
        <time>2014-06-22T07:32:29Z</time>
      </trkpt>
      <trkpt lat="45.12532" lon="5.57372">
        <ele>1063.5</ele>
        <time>2014-06-22T07:32:33Z</time>
      </trkpt>
      <trkpt lat="45.12524" lon="5.5737">
        <ele>1062</ele>
        <time>2014-06-22T07:32:37Z</time>
      </trkpt>
      <trkpt lat="45.12513" lon="5.57363">
        <ele>1061.7</ele>
        <time>2014-06-22T07:32:44Z</time>
      </trkpt>
      <trkpt lat="45.12472" lon="5.57314">
        <ele>1070.5</ele>
        <time>2014-06-22T07:33:20Z</time>
      </trkpt>
      <trkpt lat="45.12448" lon="5.57262">
        <ele>1085.6</ele>
        <time>2014-06-22T07:33:49Z</time>
      </trkpt>
      <trkpt lat="45.12436" lon="5.57222">
        <ele>1099</ele>
        <time>2014-06-22T07:34:06Z</time>
      </trkpt>
      <trkpt lat="45.124" lon="5.57149">
        <ele>1119.8</ele>
        <time>2014-06-22T07:34:43Z</time>
      </trkpt>
      <trkpt lat="45.12346" lon="5.5715">
        <ele>1104.5</ele>
        <time>2014-06-22T07:35:04Z</time>
      </trkpt>
      <trkpt lat="45.12344" lon="5.5716">
        <ele>1098.1</ele>
        <time>2014-06-22T07:35:41Z</time>
      </trkpt>
      <trkpt lat="45.12371" lon="5.57157">
        <ele>1108</ele>
        <time>2014-06-22T07:35:58Z</time>
      </trkpt>
      <trkpt lat="45.12435" lon="5.57186">
        <ele>1112.9</ele>
        <time>2014-06-22T07:36:42Z</time>
      </trkpt>
      <trkpt lat="45.12404" lon="5.57151">
        <ele>1120.3</ele>
        <time>2014-06-22T07:37:13Z</time>
      </trkpt>
      <trkpt lat="45.1235" lon="5.57117">
        <ele>1124.1</ele>
        <time>2014-06-22T07:37:42Z</time>
      </trkpt>
      <trkpt lat="45.12297" lon="5.57104">
        <ele>1117.8</ele>
        <time>2014-06-22T07:38:22Z</time>
      </trkpt>
      <trkpt lat="45.12281" lon="5.57092">
        <ele>1118.9</ele>
        <time>2014-06-22T07:38:39Z</time>
      </trkpt>
      <trkpt lat="45.12243" lon="5.5705">
        <ele>1128.7</ele>
        <time>2014-06-22T07:39:18Z</time>
      </trkpt>
      <trkpt lat="45.12214" lon="5.57054">
        <ele>1122.3</ele>
        <time>2014-06-22T07:40:03Z</time>
      </trkpt>
      <trkpt lat="45.12199" lon="5.57033">
        <ele>1130.3</ele>
        <time>2014-06-22T07:40:45Z</time>
      </trkpt>
      <trkpt lat="45.12168" lon="5.5701">
        <ele>1137</ele>
        <time>2014-06-22T07:41:18Z</time>
      </trkpt>
      <trkpt lat="45.12122" lon="5.56975">
        <ele>1144</ele>
        <time>2014-06-22T07:41:58Z</time>
      </trkpt>
      <trkpt lat="45.12106" lon="5.56955">
        <ele>1150.3</ele>
        <time>2014-06-22T07:42:21Z</time>
      </trkpt>
      <trkpt lat="45.1209" lon="5.56921">
        <ele>1162.5</ele>
        <time>2014-06-22T07:42:45Z</time>
      </trkpt>
      <trkpt lat="45.12053" lon="5.5689">
        <ele>1163.5</ele>
        <time>2014-06-22T07:43:17Z</time>
      </trkpt>
      <trkpt lat="45.12033" lon="5.56841">
        <ele>1171.2</ele>
        <time>2014-06-22T07:43:59Z</time>
      </trkpt>
      <trkpt lat="45.12074" lon="5.56825">
        <ele>1181.8</ele>
        <time>2014-06-22T07:44:54Z</time>
      </trkpt>
      <trkpt lat="45.12109" lon="5.56805">
        <ele>1189.5</ele>
        <time>2014-06-22T07:45:31Z</time>
      </trkpt>
      <trkpt lat="45.12148" lon="5.568">
        <ele>1199</ele>
        <time>2014-06-22T07:46:34Z</time>
      </trkpt>
      <trkpt lat="45.12184" lon="5.56791">
        <ele>1207.3</ele>
        <time>2014-06-22T07:47:34Z</time>
      </trkpt>
      <trkpt lat="45.12225" lon="5.56792">
        <ele>1216.5</ele>
        <time>2014-06-22T07:48:11Z</time>
      </trkpt>
      <trkpt lat="45.12275" lon="5.56784">
        <ele>1227.1</ele>
        <time>2014-06-22T07:49:02Z</time>
      </trkpt>
      <trkpt lat="45.12315" lon="5.56778">
        <ele>1235.4</ele>
        <time>2014-06-22T07:49:46Z</time>
      </trkpt>
      <trkpt lat="45.12344" lon="5.56803">
        <ele>1242.7</ele>
        <time>2014-06-22T07:50:53Z</time>
      </trkpt>
      <trkpt lat="45.12368" lon="5.56826">
        <ele>1248.6</ele>
        <time>2014-06-22T07:51:26Z</time>
      </trkpt>
      <trkpt lat="45.12393" lon="5.5685">
        <ele>1249.1</ele>
        <time>2014-06-22T07:51:51Z</time>
      </trkpt>
      <trkpt lat="45.12427" lon="5.56857">
        <ele>1254.2</ele>
        <time>2014-06-22T07:52:19Z</time>
      </trkpt>
      <trkpt lat="45.12486" lon="5.56876">
        <ele>1262.5</ele>
        <time>2014-06-22T07:53:13Z</time>
      </trkpt>
      <trkpt lat="45.12518" lon="5.56877">
        <ele>1270.1</ele>
        <time>2014-06-22T07:53:44Z</time>
      </trkpt>
      <trkpt lat="45.12567" lon="5.56897">
        <ele>1282.5</ele>
        <time>2014-06-22T07:54:31Z</time>
      </trkpt>
      <trkpt lat="45.12612" lon="5.56924">
        <ele>1291.4</ele>
        <time>2014-06-22T07:55:14Z</time>
      </trkpt>
      <trkpt lat="45.12626" lon="5.56935">
        <ele>1291</ele>
        <time>2014-06-22T07:55:29Z</time>
      </trkpt>
      <trkpt lat="45.12648" lon="5.5694">
        <ele>1294.8</ele>
        <time>2014-06-22T07:56:33Z</time>
      </trkpt>
      <trkpt lat="45.1269" lon="5.56951">
        <ele>1302</ele>
        <time>2014-06-22T07:57:11Z</time>
      </trkpt>
      <trkpt lat="45.12753" lon="5.56934">
        <ele>1318</ele>
        <time>2014-06-22T07:58:12Z</time>
      </trkpt>
      <trkpt lat="45.1278" lon="5.56933">
        <ele>1322.9</ele>
        <time>2014-06-22T07:58:33Z</time>
      </trkpt>
      <trkpt lat="45.12809" lon="5.56936">
        <ele>1327.9</ele>
        <time>2014-06-22T07:58:57Z</time>
      </trkpt>
      <trkpt lat="45.12867" lon="5.56956">
        <ele>1337.8</ele>
        <time>2014-06-22T07:59:44Z</time>
      </trkpt>
      <trkpt lat="45.12918" lon="5.56962">
        <ele>1346.6</ele>
        <time>2014-06-22T08:00:22Z</time>
      </trkpt>
      <trkpt lat="45.12962" lon="5.56979">
        <ele>1354.3</ele>
        <time>2014-06-22T08:01:00Z</time>
      </trkpt>
      <trkpt lat="45.13" lon="5.57002">
        <ele>1362</ele>
        <time>2014-06-22T08:01:57Z</time>
      </trkpt>
      <trkpt lat="45.13024" lon="5.5702">
        <ele>1364.2</ele>
        <time>2014-06-22T08:02:24Z</time>
      </trkpt>
      <trkpt lat="45.13034" lon="5.57026">
        <ele>1365.7</ele>
        <time>2014-06-22T08:02:35Z</time>
      </trkpt>
      <trkpt lat="45.13052" lon="5.57031">
        <ele>1368.5</ele>
        <time>2014-06-22T08:03:00Z</time>
      </trkpt>
      <trkpt lat="45.13068" lon="5.57042">
        <ele>1371.8</ele>
        <time>2014-06-22T08:03:16Z</time>
      </trkpt>
      <trkpt lat="45.13099" lon="5.57052">
        <ele>1377.5</ele>
        <time>2014-06-22T08:03:41Z</time>
      </trkpt>
      <trkpt lat="45.13116" lon="5.57055">
        <ele>1380</ele>
        <time>2014-06-22T08:03:52Z</time>
      </trkpt>
      <trkpt lat="45.13123" lon="5.57058">
        <ele>1381.3</ele>
        <time>2014-06-22T08:03:56Z</time>
      </trkpt>
      <trkpt lat="45.13138" lon="5.57066">
        <ele>1384.1</ele>
        <time>2014-06-22T08:04:23Z</time>
      </trkpt>
      <trkpt lat="45.13148" lon="5.57074">
        <ele>1386.4</ele>
        <time>2014-06-22T08:04:33Z</time>
      </trkpt>
      <trkpt lat="45.1316" lon="5.57078">
        <ele>1388.3</ele>
        <time>2014-06-22T08:04:43Z</time>
      </trkpt>
      <trkpt lat="45.13162" lon="5.57078">
        <ele>1388.6</ele>
        <time>2014-06-22T08:05:24Z</time>
      </trkpt>
      <trkpt lat="45.13178" lon="5.57084">
        <ele>1390.7</ele>
        <time>2014-06-22T08:06:49Z</time>
      </trkpt>
      <trkpt lat="45.13211" lon="5.5709">
        <ele>1392.6</ele>
        <time>2014-06-22T08:08:37Z</time>
      </trkpt>
      <trkpt lat="45.13241" lon="5.57116">
        <ele>1394.9</ele>
        <time>2014-06-22T08:09:08Z</time>
      </trkpt>
      <trkpt lat="45.13271" lon="5.57142">
        <ele>1397.3</ele>
        <time>2014-06-22T08:09:27Z</time>
      </trkpt>
      <trkpt lat="45.13276" lon="5.57146">
        <ele>1397.7</ele>
        <time>2014-06-22T08:09:31Z</time>
      </trkpt>
      <trkpt lat="45.13281" lon="5.57152">
        <ele>1398.2</ele>
        <time>2014-06-22T08:09:35Z</time>
      </trkpt>
      <trkpt lat="45.13287" lon="5.57156">
        <ele>1398.8</ele>
        <time>2014-06-22T08:09:39Z</time>
      </trkpt>
      <trkpt lat="45.1336" lon="5.57216">
        <ele>1402</ele>
        <time>2014-06-22T08:10:27Z</time>
      </trkpt>
      <trkpt lat="45.13367" lon="5.5722">
        <ele>1402.5</ele>
        <time>2014-06-22T08:10:31Z</time>
      </trkpt>
      <trkpt lat="45.1341" lon="5.57261">
        <ele>1404.2</ele>
        <time>2014-06-22T08:11:02Z</time>
      </trkpt>
      <trkpt lat="45.13417" lon="5.57264">
        <ele>1403.9</ele>
        <time>2014-06-22T08:11:06Z</time>
      </trkpt>
      <trkpt lat="45.13436" lon="5.57278">
        <ele>1401.7</ele>
        <time>2014-06-22T08:11:24Z</time>
      </trkpt>
      <trkpt lat="45.13447" lon="5.57283">
        <ele>1402</ele>
        <time>2014-06-22T08:11:33Z</time>
      </trkpt>
      <trkpt lat="45.13461" lon="5.57289">
        <ele>1403.2</ele>
        <time>2014-06-22T08:11:44Z</time>
      </trkpt>
      <trkpt lat="45.13524" lon="5.57309">
        <ele>1412.9</ele>
        <time>2014-06-22T08:12:22Z</time>
      </trkpt>
      <trkpt lat="45.13544" lon="5.5732">
        <ele>1416.2</ele>
        <time>2014-06-22T08:12:40Z</time>
      </trkpt>
      <trkpt lat="45.13553" lon="5.57325">
        <ele>1417.9</ele>
        <time>2014-06-22T08:12:48Z</time>
      </trkpt>
      <trkpt lat="45.1362" lon="5.57347">
        <ele>1422.3</ele>
        <time>2014-06-22T08:13:24Z</time>
      </trkpt>
      <trkpt lat="45.1367" lon="5.57378">
        <ele>1422.2</ele>
        <time>2014-06-22T08:13:49Z</time>
      </trkpt>
      <trkpt lat="45.13756" lon="5.57415">
        <ele>1432.4</ele>
        <time>2014-06-22T08:14:33Z</time>
      </trkpt>
      <trkpt lat="45.13816" lon="5.57406">
        <ele>1446.2</ele>
        <time>2014-06-22T08:15:27Z</time>
      </trkpt>
      <trkpt lat="45.13876" lon="5.57414">
        <ele>1458.9</ele>
        <time>2014-06-22T08:16:27Z</time>
      </trkpt>
      <trkpt lat="45.13927" lon="5.57431">
        <ele>1465.4</ele>
        <time>2014-06-22T08:17:49Z</time>
      </trkpt>
      <trkpt lat="45.13954" lon="5.57433">
        <ele>1471.4</ele>
        <time>2014-06-22T08:18:28Z</time>
      </trkpt>
      <trkpt lat="45.13996" lon="5.57437">
        <ele>1481.2</ele>
        <time>2014-06-22T08:19:17Z</time>
      </trkpt>
      <trkpt lat="45.14036" lon="5.57452">
        <ele>1485</ele>
        <time>2014-06-22T08:20:01Z</time>
      </trkpt>
      <trkpt lat="45.1407" lon="5.57462">
        <ele>1490</ele>
        <time>2014-06-22T08:20:33Z</time>
      </trkpt>
      <trkpt lat="45.14077" lon="5.57464">
        <ele>1491</ele>
        <time>2014-06-22T08:20:38Z</time>
      </trkpt>
      <trkpt lat="45.14084" lon="5.57466">
        <ele>1492.2</ele>
        <time>2014-06-22T08:20:43Z</time>
      </trkpt>
      <trkpt lat="45.14104" lon="5.57478">
        <ele>1494</ele>
        <time>2014-06-22T08:21:00Z</time>
      </trkpt>
      <trkpt lat="45.14189" lon="5.57496">
        <ele>1501.8</ele>
        <time>2014-06-22T08:21:52Z</time>
      </trkpt>
      <trkpt lat="45.14212" lon="5.5751">
        <ele>1503</ele>
        <time>2014-06-22T08:22:16Z</time>
      </trkpt>
      <trkpt lat="45.14216" lon="5.57515">
        <ele>1502.7</ele>
        <time>2014-06-22T08:22:20Z</time>
      </trkpt>
      <trkpt lat="45.14227" lon="5.57523">
        <ele>1503.2</ele>
        <time>2014-06-22T08:22:30Z</time>
      </trkpt>
      <trkpt lat="45.14229" lon="5.57528">
        <ele>1502.9</ele>
        <time>2014-06-22T08:22:34Z</time>
      </trkpt>
      <trkpt lat="45.14235" lon="5.57535">
        <ele>1502.9</ele>
        <time>2014-06-22T08:22:41Z</time>
      </trkpt>
      <trkpt lat="45.14258" lon="5.57549">
        <ele>1505.7</ele>
        <time>2014-06-22T08:23:04Z</time>
      </trkpt>
      <trkpt lat="45.14265" lon="5.57552">
        <ele>1506.6</ele>
        <time>2014-06-22T08:23:10Z</time>
      </trkpt>
      <trkpt lat="45.14278" lon="5.57557">
        <ele>1508.4</ele>
        <time>2014-06-22T08:23:22Z</time>
      </trkpt>
      <trkpt lat="45.14293" lon="5.5756">
        <ele>1510.7</ele>
        <time>2014-06-22T08:23:34Z</time>
      </trkpt>
      <trkpt lat="45.14321" lon="5.57568">
        <ele>1515.5</ele>
        <time>2014-06-22T08:23:52Z</time>
      </trkpt>
      <trkpt lat="45.1442" lon="5.5754">
        <ele>1529.4</ele>
        <time>2014-06-22T08:24:33Z</time>
      </trkpt>
      <trkpt lat="45.14483" lon="5.57527">
        <ele>1537.8</ele>
        <time>2014-06-22T08:25:16Z</time>
      </trkpt>
      <trkpt lat="45.14552" lon="5.57527">
        <ele>1544.9</ele>
        <time>2014-06-22T08:25:57Z</time>
      </trkpt>
      <trkpt lat="45.14576" lon="5.57558">
        <ele>1549.3</ele>
        <time>2014-06-22T08:26:19Z</time>
      </trkpt>
      <trkpt lat="45.14646" lon="5.57565">
        <ele>1555.9</ele>
        <time>2014-06-22T08:27:14Z</time>
      </trkpt>
      <trkpt lat="45.14683" lon="5.5757">
        <ele>1558.3</ele>
        <time>2014-06-22T08:27:44Z</time>
      </trkpt>
      <trkpt lat="45.14705" lon="5.57572">
        <ele>1558.9</ele>
        <time>2014-06-22T08:28:02Z</time>
      </trkpt>
      <trkpt lat="45.14781" lon="5.57579">
        <ele>1562.7</ele>
        <time>2014-06-22T08:28:49Z</time>
      </trkpt>
      <trkpt lat="45.14835" lon="5.5759">
        <ele>1567.9</ele>
        <time>2014-06-22T08:29:32Z</time>
      </trkpt>
      <trkpt lat="45.14842" lon="5.57595">
        <ele>1568.3</ele>
        <time>2014-06-22T08:30:02Z</time>
      </trkpt>
      <trkpt lat="45.14848" lon="5.57601">
        <ele>1568.7</ele>
        <time>2014-06-22T08:30:07Z</time>
      </trkpt>
      <trkpt lat="45.1486" lon="5.57621">
        <ele>1569.6</ele>
        <time>2014-06-22T08:30:22Z</time>
      </trkpt>
      <trkpt lat="45.14865" lon="5.57628">
        <ele>1570.1</ele>
        <time>2014-06-22T08:30:27Z</time>
      </trkpt>
      <trkpt lat="45.14871" lon="5.57637">
        <ele>1570.7</ele>
        <time>2014-06-22T08:30:31Z</time>
      </trkpt>
      <trkpt lat="45.14887" lon="5.57643">
        <ele>1572.5</ele>
        <time>2014-06-22T08:30:44Z</time>
      </trkpt>
      <trkpt lat="45.14935" lon="5.5766">
        <ele>1577.4</ele>
        <time>2014-06-22T08:31:14Z</time>
      </trkpt>
      <trkpt lat="45.15012" lon="5.57689">
        <ele>1578.9</ele>
        <time>2014-06-22T08:32:11Z</time>
      </trkpt>
      <trkpt lat="45.15043" lon="5.57687">
        <ele>1581.8</ele>
        <time>2014-06-22T08:32:29Z</time>
      </trkpt>
      <trkpt lat="45.15088" lon="5.57677">
        <ele>1586.5</ele>
        <time>2014-06-22T08:33:08Z</time>
      </trkpt>
      <trkpt lat="45.15161" lon="5.577">
        <ele>1599.8</ele>
        <time>2014-06-22T08:34:04Z</time>
      </trkpt>
      <trkpt lat="45.1523" lon="5.57729">
        <ele>1610.6</ele>
        <time>2014-06-22T08:34:49Z</time>
      </trkpt>
      <trkpt lat="45.15235" lon="5.57732">
        <ele>1611.4</ele>
        <time>2014-06-22T08:34:53Z</time>
      </trkpt>
      <trkpt lat="45.15269" lon="5.57751">
        <ele>1616.7</ele>
        <time>2014-06-22T08:35:19Z</time>
      </trkpt>
      <trkpt lat="45.153" lon="5.57757">
        <ele>1619.1</ele>
        <time>2014-06-22T08:35:44Z</time>
      </trkpt>
      <trkpt lat="45.15308" lon="5.57757">
        <ele>1619.8</ele>
        <time>2014-06-22T08:35:50Z</time>
      </trkpt>
      <trkpt lat="45.15342" lon="5.57774">
        <ele>1622.5</ele>
        <time>2014-06-22T08:36:16Z</time>
      </trkpt>
      <trkpt lat="45.154" lon="5.57794">
        <ele>1627.6</ele>
        <time>2014-06-22T08:37:00Z</time>
      </trkpt>
      <trkpt lat="45.15496" lon="5.57791">
        <ele>1631.4</ele>
        <time>2014-06-22T08:37:56Z</time>
      </trkpt>
      <trkpt lat="45.15565" lon="5.5786">
        <ele>1629.4</ele>
        <time>2014-06-22T08:39:19Z</time>
      </trkpt>
      <trkpt lat="45.15626" lon="5.57874">
        <ele>1634.1</ele>
        <time>2014-06-22T08:39:59Z</time>
      </trkpt>
      <trkpt lat="45.15678" lon="5.57864">
        <ele>1639.7</ele>
        <time>2014-06-22T08:40:58Z</time>
      </trkpt>
      <trkpt lat="45.15763" lon="5.57864">
        <ele>1643.3</ele>
        <time>2014-06-22T08:41:43Z</time>
      </trkpt>
      <trkpt lat="45.15814" lon="5.57889">
        <ele>1648.1</ele>
        <time>2014-06-22T08:42:23Z</time>
      </trkpt>
      <trkpt lat="45.15898" lon="5.57936">
        <ele>1651.7</ele>
        <time>2014-06-22T08:43:00Z</time>
      </trkpt>
      <trkpt lat="45.15973" lon="5.58003">
        <ele>1653.1</ele>
        <time>2014-06-22T08:43:41Z</time>
      </trkpt>
      <trkpt lat="45.16023" lon="5.58025">
        <ele>1654.9</ele>
        <time>2014-06-22T08:43:52Z</time>
      </trkpt>
      <trkpt lat="45.16098" lon="5.58038">
        <ele>1657.8</ele>
        <time>2014-06-22T08:44:15Z</time>
      </trkpt>
      <trkpt lat="45.16133" lon="5.58041">
        <ele>1658.4</ele>
        <time>2014-06-22T08:44:38Z</time>
      </trkpt>
      <trkpt lat="45.16214" lon="5.58054">
        <ele>1659</ele>
        <time>2014-06-22T08:45:16Z</time>
      </trkpt>
      <trkpt lat="45.16305" lon="5.5807">
        <ele>1658</ele>
        <time>2014-06-22T08:45:50Z</time>
      </trkpt>
      <trkpt lat="45.16387" lon="5.58117">
        <ele>1645.5</ele>
        <time>2014-06-22T08:46:22Z</time>
      </trkpt>
      <trkpt lat="45.16432" lon="5.58198">
        <ele>1645.4</ele>
        <time>2014-06-22T08:46:52Z</time>
      </trkpt>
      <trkpt lat="45.16566" lon="5.58276">
        <ele>1644.9</ele>
        <time>2014-06-22T08:47:45Z</time>
      </trkpt>
      <trkpt lat="45.16683" lon="5.58306">
        <ele>1640.6</ele>
        <time>2014-06-22T08:48:21Z</time>
      </trkpt>
      <trkpt lat="45.16759" lon="5.58319">
        <ele>1640.6</ele>
        <time>2014-06-22T08:48:44Z</time>
      </trkpt>
      <trkpt lat="45.16801" lon="5.58337">
        <ele>1644.6</ele>
        <time>2014-06-22T08:49:07Z</time>
      </trkpt>
      <trkpt lat="45.16896" lon="5.58356">
        <ele>1649.5</ele>
        <time>2014-06-22T08:50:07Z</time>
      </trkpt>
      <trkpt lat="45.16988" lon="5.58375">
        <ele>1646.9</ele>
        <time>2014-06-22T08:50:51Z</time>
      </trkpt>
      <trkpt lat="45.1704" lon="5.58352">
        <ele>1640.6</ele>
        <time>2014-06-22T08:51:17Z</time>
      </trkpt>
      <trkpt lat="45.17105" lon="5.5837">
        <ele>1626.8</ele>
        <time>2014-06-22T08:51:41Z</time>
      </trkpt>
      <trkpt lat="45.17171" lon="5.58395">
        <ele>1626</ele>
        <time>2014-06-22T08:52:21Z</time>
      </trkpt>
      <trkpt lat="45.17228" lon="5.58392">
        <ele>1637.9</ele>
        <time>2014-06-22T08:53:13Z</time>
      </trkpt>
      <trkpt lat="45.17255" lon="5.58394">
        <ele>1643.9</ele>
        <time>2014-06-22T08:55:03Z</time>
      </trkpt>
      <trkpt lat="45.17297" lon="5.58408">
        <ele>1653.5</ele>
        <time>2014-06-22T08:55:35Z</time>
      </trkpt>
      <trkpt lat="45.17335" lon="5.58454">
        <ele>1654.3</ele>
        <time>2014-06-22T08:56:33Z</time>
      </trkpt>
      <trkpt lat="45.17376" lon="5.58477">
        <ele>1662.9</ele>
        <time>2014-06-22T08:57:48Z</time>
      </trkpt>
      <trkpt lat="45.17411" lon="5.58509">
        <ele>1670.5</ele>
        <time>2014-06-22T08:58:30Z</time>
      </trkpt>
      <trkpt lat="45.17429" lon="5.58532">
        <ele>1668.2</ele>
        <time>2014-06-22T08:58:48Z</time>
      </trkpt>
      <trkpt lat="45.17451" lon="5.58546">
        <ele>1668.5</ele>
        <time>2014-06-22T08:59:04Z</time>
      </trkpt>
      <trkpt lat="45.17497" lon="5.58547">
        <ele>1676.5</ele>
        <time>2014-06-22T08:59:27Z</time>
      </trkpt>
      <trkpt lat="45.17563" lon="5.58586">
        <ele>1681.5</ele>
        <time>2014-06-22T09:00:02Z</time>
      </trkpt>
      <trkpt lat="45.17667" lon="5.58647">
        <ele>1671.5</ele>
        <time>2014-06-22T09:00:32Z</time>
      </trkpt>
      <trkpt lat="45.17769" lon="5.58641">
        <ele>1660.4</ele>
        <time>2014-06-22T09:00:54Z</time>
      </trkpt>
      <trkpt lat="45.1784" lon="5.58616">
        <ele>1658.1</ele>
        <time>2014-06-22T09:01:13Z</time>
      </trkpt>
      <trkpt lat="45.1788" lon="5.58582">
        <ele>1663.4</ele>
        <time>2014-06-22T09:01:28Z</time>
      </trkpt>
      <trkpt lat="45.17951" lon="5.58588">
        <ele>1656.9</ele>
        <time>2014-06-22T09:01:50Z</time>
      </trkpt>
      <trkpt lat="45.17992" lon="5.58599">
        <ele>1655.2</ele>
        <time>2014-06-22T09:02:09Z</time>
      </trkpt>
      <trkpt lat="45.18035" lon="5.58623">
        <ele>1658</ele>
        <time>2014-06-22T09:03:16Z</time>
      </trkpt>
      <trkpt lat="45.18063" lon="5.58648">
        <ele>1661.9</ele>
        <time>2014-06-22T09:03:38Z</time>
      </trkpt>
      <trkpt lat="45.18129" lon="5.58689">
        <ele>1658.5</ele>
        <time>2014-06-22T09:04:09Z</time>
      </trkpt>
      <trkpt lat="45.18228" lon="5.58748">
        <ele>1663.7</ele>
        <time>2014-06-22T09:04:50Z</time>
      </trkpt>
      <trkpt lat="45.18257" lon="5.5878">
        <ele>1661.7</ele>
        <time>2014-06-22T09:05:13Z</time>
      </trkpt>
      <trkpt lat="45.183" lon="5.58809">
        <ele>1667.2</ele>
        <time>2014-06-22T09:06:06Z</time>
      </trkpt>
      <trkpt lat="45.18305" lon="5.58809">
        <ele>1668.9</ele>
        <time>2014-06-22T09:08:20Z</time>
      </trkpt>
      <trkpt lat="45.18342" lon="5.58829">
        <ele>1677.5</ele>
        <time>2014-06-22T09:08:57Z</time>
      </trkpt>
      <trkpt lat="45.18372" lon="5.58874">
        <ele>1675.7</ele>
        <time>2014-06-22T09:09:27Z</time>
      </trkpt>
      <trkpt lat="45.18399" lon="5.5891">
        <ele>1679.9</ele>
        <time>2014-06-22T09:09:51Z</time>
      </trkpt>
      <trkpt lat="45.18447" lon="5.58958">
        <ele>1686.2</ele>
        <time>2014-06-22T09:10:34Z</time>
      </trkpt>
      <trkpt lat="45.18482" lon="5.59025">
        <ele>1690</ele>
        <time>2014-06-22T09:11:21Z</time>
      </trkpt>
      <trkpt lat="45.18508" lon="5.59054">
        <ele>1695.5</ele>
        <time>2014-06-22T09:12:00Z</time>
      </trkpt>
      <trkpt lat="45.18565" lon="5.59141">
        <ele>1698.5</ele>
        <time>2014-06-22T09:12:38Z</time>
      </trkpt>
      <trkpt lat="45.18644" lon="5.59243">
        <ele>1690.4</ele>
        <time>2014-06-22T09:13:24Z</time>
      </trkpt>
      <trkpt lat="45.18714" lon="5.59239">
        <ele>1691.8</ele>
        <time>2014-06-22T09:14:33Z</time>
      </trkpt>
      <trkpt lat="45.18802" lon="5.59171">
        <ele>1690.8</ele>
        <time>2014-06-22T09:15:09Z</time>
      </trkpt>
      <trkpt lat="45.18907" lon="5.59143">
        <ele>1685.1</ele>
        <time>2014-06-22T09:15:41Z</time>
      </trkpt>
      <trkpt lat="45.19009" lon="5.5914">
        <ele>1677.5</ele>
        <time>2014-06-22T09:16:01Z</time>
      </trkpt>
      <trkpt lat="45.19082" lon="5.59163">
        <ele>1669.2</ele>
        <time>2014-06-22T09:16:20Z</time>
      </trkpt>
      <trkpt lat="45.19164" lon="5.59195">
        <ele>1649.5</ele>
        <time>2014-06-22T09:16:38Z</time>
      </trkpt>
      <trkpt lat="45.19221" lon="5.59209">
        <ele>1641.7</ele>
        <time>2014-06-22T09:16:52Z</time>
      </trkpt>
      <trkpt lat="45.19234" lon="5.59232">
        <ele>1640.4</ele>
        <time>2014-06-22T09:17:45Z</time>
      </trkpt>
      <trkpt lat="45.19287" lon="5.59281">
        <ele>1635.1</ele>
        <time>2014-06-22T09:18:20Z</time>
      </trkpt>
      <trkpt lat="45.19325" lon="5.5934">
        <ele>1624.4</ele>
        <time>2014-06-22T09:18:33Z</time>
      </trkpt>
      <trkpt lat="45.19335" lon="5.59381">
        <ele>1619.2</ele>
        <time>2014-06-22T09:19:51Z</time>
      </trkpt>
      <trkpt lat="45.19234" lon="5.5937">
        <ele>1613</ele>
        <time>2014-06-22T09:20:33Z</time>
      </trkpt>
      <trkpt lat="45.19107" lon="5.59389">
        <ele>1598.2</ele>
        <time>2014-06-22T09:20:51Z</time>
      </trkpt>
      <trkpt lat="45.19044" lon="5.59386">
        <ele>1598.4</ele>
        <time>2014-06-22T09:21:03Z</time>
      </trkpt>
      <trkpt lat="45.18917" lon="5.59448">
        <ele>1592.4</ele>
        <time>2014-06-22T09:21:25Z</time>
      </trkpt>
      <trkpt lat="45.18833" lon="5.59544">
        <ele>1579.9</ele>
        <time>2014-06-22T09:21:46Z</time>
      </trkpt>
      <trkpt lat="45.18717" lon="5.59539">
        <ele>1573.8</ele>
        <time>2014-06-22T09:22:07Z</time>
      </trkpt>
      <trkpt lat="45.18572" lon="5.59517">
        <ele>1563.1</ele>
        <time>2014-06-22T09:22:26Z</time>
      </trkpt>
      <trkpt lat="45.1846" lon="5.59431">
        <ele>1559.1</ele>
        <time>2014-06-22T09:22:53Z</time>
      </trkpt>
      <trkpt lat="45.18372" lon="5.59298">
        <ele>1565</ele>
        <time>2014-06-22T09:23:23Z</time>
      </trkpt>
      <trkpt lat="45.18292" lon="5.59253">
        <ele>1561.6</ele>
        <time>2014-06-22T09:23:43Z</time>
      </trkpt>
      <trkpt lat="45.18236" lon="5.59192">
        <ele>1564.6</ele>
        <time>2014-06-22T09:24:00Z</time>
      </trkpt>
      <trkpt lat="45.18094" lon="5.59116">
        <ele>1558.2</ele>
        <time>2014-06-22T09:24:39Z</time>
      </trkpt>
      <trkpt lat="45.17987" lon="5.59025">
        <ele>1559.9</ele>
        <time>2014-06-22T09:25:09Z</time>
      </trkpt>
      <trkpt lat="45.17918" lon="5.59005">
        <ele>1570.6</ele>
        <time>2014-06-22T09:26:12Z</time>
      </trkpt>
      <trkpt lat="45.17845" lon="5.58986">
        <ele>1574.4</ele>
        <time>2014-06-22T09:27:05Z</time>
      </trkpt>
      <trkpt lat="45.17734" lon="5.58988">
        <ele>1581.2</ele>
        <time>2014-06-22T09:28:01Z</time>
      </trkpt>
      <trkpt lat="45.17632" lon="5.58932">
        <ele>1589.3</ele>
        <time>2014-06-22T09:28:49Z</time>
      </trkpt>
      <trkpt lat="45.17569" lon="5.58903">
        <ele>1588.9</ele>
        <time>2014-06-22T09:29:22Z</time>
      </trkpt>
      <trkpt lat="45.17455" lon="5.58835">
        <ele>1593</ele>
        <time>2014-06-22T09:29:59Z</time>
      </trkpt>
      <trkpt lat="45.17371" lon="5.58794">
        <ele>1593.6</ele>
        <time>2014-06-22T09:30:21Z</time>
      </trkpt>
      <trkpt lat="45.17248" lon="5.5873">
        <ele>1590.3</ele>
        <time>2014-06-22T09:30:58Z</time>
      </trkpt>
      <trkpt lat="45.17175" lon="5.58664">
        <ele>1586.5</ele>
        <time>2014-06-22T09:31:21Z</time>
      </trkpt>
      <trkpt lat="45.17139" lon="5.58672">
        <ele>1582.5</ele>
        <time>2014-06-22T09:31:58Z</time>
      </trkpt>
      <trkpt lat="45.17037" lon="5.58693">
        <ele>1572.9</ele>
        <time>2014-06-22T09:32:16Z</time>
      </trkpt>
      <trkpt lat="45.1694" lon="5.5867">
        <ele>1565.1</ele>
        <time>2014-06-22T09:32:33Z</time>
      </trkpt>
      <trkpt lat="45.16861" lon="5.58667">
        <ele>1555.1</ele>
        <time>2014-06-22T09:32:49Z</time>
      </trkpt>
      <trkpt lat="45.16821" lon="5.58656">
        <ele>1551.5</ele>
        <time>2014-06-22T09:33:04Z</time>
      </trkpt>
      <trkpt lat="45.16728" lon="5.5864">
        <ele>1542.7</ele>
        <time>2014-06-22T09:33:34Z</time>
      </trkpt>
      <trkpt lat="45.16687" lon="5.58644">
        <ele>1537.5</ele>
        <time>2014-06-22T09:33:44Z</time>
      </trkpt>
      <trkpt lat="45.16657" lon="5.58644">
        <ele>1533.6</ele>
        <time>2014-06-22T09:33:49Z</time>
      </trkpt>
      <trkpt lat="45.16635" lon="5.5865">
        <ele>1528.4</ele>
        <time>2014-06-22T09:33:53Z</time>
      </trkpt>
      <trkpt lat="45.16605" lon="5.58649">
        <ele>1523</ele>
        <time>2014-06-22T09:34:05Z</time>
      </trkpt>
      <trkpt lat="45.16583" lon="5.58656">
        <ele>1517.9</ele>
        <time>2014-06-22T09:34:21Z</time>
      </trkpt>
      <trkpt lat="45.16474" lon="5.58678">
        <ele>1498</ele>
        <time>2014-06-22T09:34:45Z</time>
      </trkpt>
      <trkpt lat="45.1643" lon="5.58701">
        <ele>1484.3</ele>
        <time>2014-06-22T09:35:00Z</time>
      </trkpt>
      <trkpt lat="45.16381" lon="5.58714">
        <ele>1472.7</ele>
        <time>2014-06-22T09:35:19Z</time>
      </trkpt>
      <trkpt lat="45.16325" lon="5.58724">
        <ele>1460.4</ele>
        <time>2014-06-22T09:35:34Z</time>
      </trkpt>
      <trkpt lat="45.1631" lon="5.58771">
        <ele>1449.1</ele>
        <time>2014-06-22T09:35:51Z</time>
      </trkpt>
      <trkpt lat="45.16349" lon="5.58834">
        <ele>1446.7</ele>
        <time>2014-06-22T09:36:26Z</time>
      </trkpt>
      <trkpt lat="45.16414" lon="5.58948">
        <ele>1432.3</ele>
        <time>2014-06-22T09:36:44Z</time>
      </trkpt>
      <trkpt lat="45.16487" lon="5.59067">
        <ele>1414.3</ele>
        <time>2014-06-22T09:36:59Z</time>
      </trkpt>
      <trkpt lat="45.16481" lon="5.59161">
        <ele>1410.7</ele>
        <time>2014-06-22T09:37:10Z</time>
      </trkpt>
      <trkpt lat="45.16426" lon="5.59292">
        <ele>1392.3</ele>
        <time>2014-06-22T09:37:26Z</time>
      </trkpt>
      <trkpt lat="45.16318" lon="5.59315">
        <ele>1375.1</ele>
        <time>2014-06-22T09:37:47Z</time>
      </trkpt>
      <trkpt lat="45.16263" lon="5.59291">
        <ele>1370.9</ele>
        <time>2014-06-22T09:37:58Z</time>
      </trkpt>
      <trkpt lat="45.16213" lon="5.59278">
        <ele>1361.3</ele>
        <time>2014-06-22T09:38:08Z</time>
      </trkpt>
      <trkpt lat="45.16151" lon="5.59237">
        <ele>1357.5</ele>
        <time>2014-06-22T09:38:21Z</time>
      </trkpt>
      <trkpt lat="45.16063" lon="5.59242">
        <ele>1329.4</ele>
        <time>2014-06-22T09:38:39Z</time>
      </trkpt>
      <trkpt lat="45.1601" lon="5.59233">
        <ele>1315.4</ele>
        <time>2014-06-22T09:39:02Z</time>
      </trkpt>
      <trkpt lat="45.16107" lon="5.5931">
        <ele>1319.1</ele>
        <time>2014-06-22T09:39:35Z</time>
      </trkpt>
      <trkpt lat="45.16169" lon="5.59422">
        <ele>1299.3</ele>
        <time>2014-06-22T09:39:51Z</time>
      </trkpt>
      <trkpt lat="45.16205" lon="5.59488">
        <ele>1289.8</ele>
        <time>2014-06-22T09:40:05Z</time>
      </trkpt>
      <trkpt lat="45.16308" lon="5.59593">
        <ele>1273.3</ele>
        <time>2014-06-22T09:40:24Z</time>
      </trkpt>
      <trkpt lat="45.16377" lon="5.5971">
        <ele>1255.8</ele>
        <time>2014-06-22T09:40:43Z</time>
      </trkpt>
      <trkpt lat="45.16384" lon="5.59722">
        <ele>1254.3</ele>
        <time>2014-06-22T09:41:29Z</time>
      </trkpt>
      <trkpt lat="45.1639" lon="5.59704">
        <ele>1259</ele>
        <time>2014-06-22T09:42:31Z</time>
      </trkpt>
      <trkpt lat="45.16396" lon="5.59678">
        <ele>1265.4</ele>
        <time>2014-06-22T09:42:37Z</time>
      </trkpt>
      <trkpt lat="45.16418" lon="5.59686">
        <ele>1266.8</ele>
        <time>2014-06-22T09:42:51Z</time>
      </trkpt>
      <trkpt lat="45.16492" lon="5.59815">
        <ele>1251.4</ele>
        <time>2014-06-22T09:43:23Z</time>
      </trkpt>
      <trkpt lat="45.16644" lon="5.59844">
        <ele>1264.1</ele>
        <time>2014-06-22T09:44:14Z</time>
      </trkpt>
      <trkpt lat="45.16692" lon="5.59842">
        <ele>1269</ele>
        <time>2014-06-22T09:44:22Z</time>
      </trkpt>
      <trkpt lat="45.16711" lon="5.59883">
        <ele>1256.5</ele>
        <time>2014-06-22T09:44:27Z</time>
      </trkpt>
      <trkpt lat="45.16735" lon="5.599">
        <ele>1252.4</ele>
        <time>2014-06-22T09:44:31Z</time>
      </trkpt>
      <trkpt lat="45.16771" lon="5.59918">
        <ele>1246.3</ele>
        <time>2014-06-22T09:44:36Z</time>
      </trkpt>
      <trkpt lat="45.16801" lon="5.59935">
        <ele>1241</ele>
        <time>2014-06-22T09:44:40Z</time>
      </trkpt>
      <trkpt lat="45.16833" lon="5.59937">
        <ele>1241.9</ele>
        <time>2014-06-22T09:44:44Z</time>
      </trkpt>
      <trkpt lat="45.16889" lon="5.59919">
        <ele>1254.6</ele>
        <time>2014-06-22T09:44:54Z</time>
      </trkpt>
      <trkpt lat="45.16883" lon="5.59951">
        <ele>1251.4</ele>
        <time>2014-06-22T09:44:58Z</time>
      </trkpt>
      <trkpt lat="45.16866" lon="5.59977">
        <ele>1244.3</ele>
        <time>2014-06-22T09:45:03Z</time>
      </trkpt>
      <trkpt lat="45.16814" lon="5.60102">
        <ele>1229.2</ele>
        <time>2014-06-22T09:45:54Z</time>
      </trkpt>
      <trkpt lat="45.1683" lon="5.60128">
        <ele>1233.3</ele>
        <time>2014-06-22T09:46:06Z</time>
      </trkpt>
      <trkpt lat="45.16838" lon="5.60135">
        <ele>1234.6</ele>
        <time>2014-06-22T09:46:10Z</time>
      </trkpt>
      <trkpt lat="45.16844" lon="5.60138">
        <ele>1235.8</ele>
        <time>2014-06-22T09:46:14Z</time>
      </trkpt>
      <trkpt lat="45.16887" lon="5.60153">
        <ele>1242.3</ele>
        <time>2014-06-22T09:46:37Z</time>
      </trkpt>
      <trkpt lat="45.16893" lon="5.60151">
        <ele>1243.7</ele>
        <time>2014-06-22T09:46:41Z</time>
      </trkpt>
      <trkpt lat="45.16973" lon="5.60181">
        <ele>1252.2</ele>
        <time>2014-06-22T09:47:24Z</time>
      </trkpt>
      <trkpt lat="45.16999" lon="5.60242">
        <ele>1241.8</ele>
        <time>2014-06-22T09:47:38Z</time>
      </trkpt>
      <trkpt lat="45.17018" lon="5.60293">
        <ele>1233.5</ele>
        <time>2014-06-22T09:47:49Z</time>
      </trkpt>
      <trkpt lat="45.17031" lon="5.60379">
        <ele>1222.5</ele>
        <time>2014-06-22T09:48:05Z</time>
      </trkpt>
      <trkpt lat="45.17049" lon="5.60408">
        <ele>1220.7</ele>
        <time>2014-06-22T09:48:12Z</time>
      </trkpt>
      <trkpt lat="45.17076" lon="5.60439">
        <ele>1215.9</ele>
        <time>2014-06-22T09:48:22Z</time>
      </trkpt>
      <trkpt lat="45.17156" lon="5.60489">
        <ele>1201.6</ele>
        <time>2014-06-22T09:48:43Z</time>
      </trkpt>
      <trkpt lat="45.17172" lon="5.60483">
        <ele>1202.1</ele>
        <time>2014-06-22T09:48:47Z</time>
      </trkpt>
      <trkpt lat="45.17197" lon="5.60476">
        <ele>1198.8</ele>
        <time>2014-06-22T09:49:01Z</time>
      </trkpt>
      <trkpt lat="45.17232" lon="5.60464">
        <ele>1196.1</ele>
        <time>2014-06-22T09:49:22Z</time>
      </trkpt>
      <trkpt lat="45.17265" lon="5.60474">
        <ele>1185</ele>
        <time>2014-06-22T09:49:32Z</time>
      </trkpt>
      <trkpt lat="45.17284" lon="5.60479">
        <ele>1179.7</ele>
        <time>2014-06-22T09:49:36Z</time>
      </trkpt>
      <trkpt lat="45.17329" lon="5.60481">
        <ele>1170.9</ele>
        <time>2014-06-22T09:49:45Z</time>
      </trkpt>
      <trkpt lat="45.17369" lon="5.60512">
        <ele>1162.4</ele>
        <time>2014-06-22T09:49:54Z</time>
      </trkpt>
      <trkpt lat="45.17378" lon="5.60549">
        <ele>1150.7</ele>
        <time>2014-06-22T09:50:00Z</time>
      </trkpt>
      <trkpt lat="45.17379" lon="5.6061">
        <ele>1131.8</ele>
        <time>2014-06-22T09:50:12Z</time>
      </trkpt>
      <trkpt lat="45.17382" lon="5.60647">
        <ele>1123.1</ele>
        <time>2014-06-22T09:50:24Z</time>
      </trkpt>
      <trkpt lat="45.17382" lon="5.60655">
        <ele>1121</ele>
        <time>2014-06-22T09:50:28Z</time>
      </trkpt>
      <trkpt lat="45.17407" lon="5.60711">
        <ele>1110.6</ele>
        <time>2014-06-22T09:50:49Z</time>
      </trkpt>
      <trkpt lat="45.17422" lon="5.6075">
        <ele>1101</ele>
        <time>2014-06-22T09:51:02Z</time>
      </trkpt>
      <trkpt lat="45.17439" lon="5.60794">
        <ele>1090.2</ele>
        <time>2014-06-22T09:51:26Z</time>
      </trkpt>
      <trkpt lat="45.17446" lon="5.60832">
        <ele>1079.4</ele>
        <time>2014-06-22T09:51:36Z</time>
      </trkpt>
      <trkpt lat="45.17451" lon="5.60865">
        <ele>1071.7</ele>
        <time>2014-06-22T09:51:45Z</time>
      </trkpt>
      <trkpt lat="45.17467" lon="5.60913">
        <ele>1061.5</ele>
        <time>2014-06-22T09:52:03Z</time>
      </trkpt>
      <trkpt lat="45.17464" lon="5.60927">
        <ele>1057.9</ele>
        <time>2014-06-22T09:52:28Z</time>
      </trkpt>
      <trkpt lat="45.17485" lon="5.61008">
        <ele>1042.9</ele>
        <time>2014-06-22T09:52:48Z</time>
      </trkpt>
      <trkpt lat="45.17503" lon="5.61035">
        <ele>1038.1</ele>
        <time>2014-06-22T09:52:52Z</time>
      </trkpt>
      <trkpt lat="45.1752" lon="5.61063">
        <ele>1022.5</ele>
        <time>2014-06-22T09:52:56Z</time>
      </trkpt>
      <trkpt lat="45.17532" lon="5.61097">
        <ele>1009.3</ele>
        <time>2014-06-22T09:53:02Z</time>
      </trkpt>
      <trkpt lat="45.17533" lon="5.61125">
        <ele>1004.6</ele>
        <time>2014-06-22T09:53:07Z</time>
      </trkpt>
      <trkpt lat="45.17534" lon="5.61133">
        <ele>1002.8</ele>
        <time>2014-06-22T09:53:11Z</time>
      </trkpt>
      <trkpt lat="45.17527" lon="5.61183">
        <ele>998.6</ele>
        <time>2014-06-22T09:53:26Z</time>
      </trkpt>
      <trkpt lat="45.17524" lon="5.61234">
        <ele>990</ele>
        <time>2014-06-22T09:53:57Z</time>
      </trkpt>
      <trkpt lat="45.17509" lon="5.61299">
        <ele>981.9</ele>
        <time>2014-06-22T09:54:13Z</time>
      </trkpt>
      <trkpt lat="45.17497" lon="5.61333">
        <ele>977.6</ele>
        <time>2014-06-22T09:54:21Z</time>
      </trkpt>
      <trkpt lat="45.17494" lon="5.61349">
        <ele>971.9</ele>
        <time>2014-06-22T09:54:25Z</time>
      </trkpt>
      <trkpt lat="45.175" lon="5.61348">
        <ele>973.1</ele>
        <time>2014-06-22T09:55:05Z</time>
      </trkpt>
      <trkpt lat="45.17508" lon="5.61343">
        <ele>971.1</ele>
        <time>2014-06-22T09:55:09Z</time>
      </trkpt>
      <trkpt lat="45.17529" lon="5.61327">
        <ele>965.3</ele>
        <time>2014-06-22T09:55:15Z</time>
      </trkpt>
      <trkpt lat="45.17564" lon="5.61289">
        <ele>956.9</ele>
        <time>2014-06-22T09:55:24Z</time>
      </trkpt>
      <trkpt lat="45.17578" lon="5.61253">
        <ele>958.1</ele>
        <time>2014-06-22T09:55:28Z</time>
      </trkpt>
      <trkpt lat="45.1758" lon="5.61214">
        <ele>963.4</ele>
        <time>2014-06-22T09:55:32Z</time>
      </trkpt>
      <trkpt lat="45.1759" lon="5.61193">
        <ele>963</ele>
        <time>2014-06-22T09:55:36Z</time>
      </trkpt>
      <trkpt lat="45.17632" lon="5.6109">
        <ele>963.7</ele>
        <time>2014-06-22T09:55:47Z</time>
      </trkpt>
      <trkpt lat="45.17656" lon="5.61071">
        <ele>957.6</ele>
        <time>2014-06-22T09:55:54Z</time>
      </trkpt>
      <trkpt lat="45.17627" lon="5.61129">
        <ele>960.4</ele>
        <time>2014-06-22T09:56:02Z</time>
      </trkpt>
      <trkpt lat="45.17624" lon="5.61222">
        <ele>949.1</ele>
        <time>2014-06-22T09:56:09Z</time>
      </trkpt>
      <trkpt lat="45.17629" lon="5.61298">
        <ele>936.5</ele>
        <time>2014-06-22T09:56:15Z</time>
      </trkpt>
      <trkpt lat="45.17627" lon="5.61392">
        <ele>925.9</ele>
        <time>2014-06-22T09:56:23Z</time>
      </trkpt>
      <trkpt lat="45.17633" lon="5.61515">
        <ele>912.9</ele>
        <time>2014-06-22T09:56:32Z</time>
      </trkpt>
      <trkpt lat="45.17631" lon="5.6167">
        <ele>882.3</ele>
        <time>2014-06-22T09:56:43Z</time>
      </trkpt>
      <trkpt lat="45.17598" lon="5.61752">
        <ele>869.2</ele>
        <time>2014-06-22T09:56:51Z</time>
      </trkpt>
      <trkpt lat="45.17594" lon="5.61787">
        <ele>864.3</ele>
        <time>2014-06-22T09:56:55Z</time>
      </trkpt>
      <trkpt lat="45.17584" lon="5.61818">
        <ele>859.8</ele>
        <time>2014-06-22T09:56:59Z</time>
      </trkpt>
      <trkpt lat="45.17588" lon="5.6184">
        <ele>858.2</ele>
        <time>2014-06-22T09:57:07Z</time>
      </trkpt>
      <trkpt lat="45.17612" lon="5.61841">
        <ele>858.7</ele>
        <time>2014-06-22T09:57:41Z</time>
      </trkpt>
      <trkpt lat="45.17646" lon="5.61829">
        <ele>860.9</ele>
        <time>2014-06-22T09:57:48Z</time>
      </trkpt>
      <trkpt lat="45.17659" lon="5.61843">
        <ele>859.4</ele>
        <time>2014-06-22T09:57:52Z</time>
      </trkpt>
      <trkpt lat="45.1772" lon="5.61895">
        <ele>855.3</ele>
        <time>2014-06-22T09:58:09Z</time>
      </trkpt>
      <trkpt lat="45.17796" lon="5.6189">
        <ele>860</ele>
        <time>2014-06-22T09:58:24Z</time>
      </trkpt>
      <trkpt lat="45.17897" lon="5.61937">
        <ele>857.7</ele>
        <time>2014-06-22T09:58:40Z</time>
      </trkpt>
      <trkpt lat="45.18034" lon="5.61961">
        <ele>851.1</ele>
        <time>2014-06-22T09:58:58Z</time>
      </trkpt>
      <trkpt lat="45.18069" lon="5.61985">
        <ele>846.3</ele>
        <time>2014-06-22T09:59:02Z</time>
      </trkpt>
      <trkpt lat="45.1815" lon="5.62049">
        <ele>842.8</ele>
        <time>2014-06-22T09:59:12Z</time>
      </trkpt>
      <trkpt lat="45.18184" lon="5.62038">
        <ele>844.5</ele>
        <time>2014-06-22T09:59:16Z</time>
      </trkpt>
      <trkpt lat="45.18216" lon="5.62043">
        <ele>846.1</ele>
        <time>2014-06-22T09:59:20Z</time>
      </trkpt>
      <trkpt lat="45.18235" lon="5.62091">
        <ele>838.6</ele>
        <time>2014-06-22T09:59:24Z</time>
      </trkpt>
      <trkpt lat="45.18306" lon="5.62157">
        <ele>826.8</ele>
        <time>2014-06-22T09:59:33Z</time>
      </trkpt>
      <trkpt lat="45.18341" lon="5.62144">
        <ele>829.8</ele>
        <time>2014-06-22T09:59:37Z</time>
      </trkpt>
      <trkpt lat="45.18369" lon="5.62104">
        <ele>842.4</ele>
        <time>2014-06-22T09:59:42Z</time>
      </trkpt>
      <trkpt lat="45.18404" lon="5.62133">
        <ele>829.2</ele>
        <time>2014-06-22T09:59:46Z</time>
      </trkpt>
      <trkpt lat="45.1844" lon="5.62148">
        <ele>821.3</ele>
        <time>2014-06-22T09:59:50Z</time>
      </trkpt>
      <trkpt lat="45.185" lon="5.62163">
        <ele>817</ele>
        <time>2014-06-22T09:59:56Z</time>
      </trkpt>
      <trkpt lat="45.18561" lon="5.6219">
        <ele>810.1</ele>
        <time>2014-06-22T10:00:02Z</time>
      </trkpt>
      <trkpt lat="45.18663" lon="5.6218">
        <ele>809.4</ele>
        <time>2014-06-22T10:00:12Z</time>
      </trkpt>
      <trkpt lat="45.18691" lon="5.62228">
        <ele>800.7</ele>
        <time>2014-06-22T10:00:16Z</time>
      </trkpt>
      <trkpt lat="45.18723" lon="5.62269">
        <ele>795.1</ele>
        <time>2014-06-22T10:00:20Z</time>
      </trkpt>
      <trkpt lat="45.18859" lon="5.62395">
        <ele>785.6</ele>
        <time>2014-06-22T10:00:35Z</time>
      </trkpt>
      <trkpt lat="45.1899" lon="5.62522">
        <ele>771.8</ele>
        <time>2014-06-22T10:00:51Z</time>
      </trkpt>
      <trkpt lat="45.19028" lon="5.62531">
        <ele>769</ele>
        <time>2014-06-22T10:00:55Z</time>
      </trkpt>
      <trkpt lat="45.19082" lon="5.62507">
        <ele>769.6</ele>
        <time>2014-06-22T10:01:01Z</time>
      </trkpt>
      <trkpt lat="45.19111" lon="5.62507">
        <ele>772</ele>
        <time>2014-06-22T10:01:05Z</time>
      </trkpt>
      <trkpt lat="45.19149" lon="5.62544">
        <ele>765.3</ele>
        <time>2014-06-22T10:01:12Z</time>
      </trkpt>
      <trkpt lat="45.19172" lon="5.62575">
        <ele>757.2</ele>
        <time>2014-06-22T10:01:19Z</time>
      </trkpt>
      <trkpt lat="45.1919" lon="5.62577">
        <ele>755.7</ele>
        <time>2014-06-22T10:01:23Z</time>
      </trkpt>
      <trkpt lat="45.19257" lon="5.62595">
        <ele>747.6</ele>
        <time>2014-06-22T10:01:34Z</time>
      </trkpt>
      <trkpt lat="45.19296" lon="5.62582">
        <ele>749.8</ele>
        <time>2014-06-22T10:01:40Z</time>
      </trkpt>
      <trkpt lat="45.19313" lon="5.62588">
        <ele>747.4</ele>
        <time>2014-06-22T10:01:44Z</time>
      </trkpt>
      <trkpt lat="45.19326" lon="5.62614">
        <ele>740</ele>
        <time>2014-06-22T10:01:48Z</time>
      </trkpt>
      <trkpt lat="45.19378" lon="5.62666">
        <ele>727.4</ele>
        <time>2014-06-22T10:01:58Z</time>
      </trkpt>
      <trkpt lat="45.19409" lon="5.62673">
        <ele>726</ele>
        <time>2014-06-22T10:02:02Z</time>
      </trkpt>
      <trkpt lat="45.19476" lon="5.62693">
        <ele>722.2</ele>
        <time>2014-06-22T10:02:11Z</time>
      </trkpt>
      <trkpt lat="45.19533" lon="5.62734">
        <ele>713.5</ele>
        <time>2014-06-22T10:02:20Z</time>
      </trkpt>
      <trkpt lat="45.19564" lon="5.62768">
        <ele>706.8</ele>
        <time>2014-06-22T10:02:27Z</time>
      </trkpt>
      <trkpt lat="45.196" lon="5.62798">
        <ele>699.3</ele>
        <time>2014-06-22T10:02:34Z</time>
      </trkpt>
      <trkpt lat="45.19658" lon="5.62825">
        <ele>694</ele>
        <time>2014-06-22T10:02:42Z</time>
      </trkpt>
      <trkpt lat="45.19686" lon="5.62847">
        <ele>689.9</ele>
        <time>2014-06-22T10:02:48Z</time>
      </trkpt>
      <trkpt lat="45.19709" lon="5.62848">
        <ele>690.7</ele>
        <time>2014-06-22T10:02:52Z</time>
      </trkpt>
      <trkpt lat="45.19783" lon="5.62912">
        <ele>678.2</ele>
        <time>2014-06-22T10:03:11Z</time>
      </trkpt>
      <trkpt lat="45.19793" lon="5.62932">
        <ele>674.6</ele>
        <time>2014-06-22T10:03:16Z</time>
      </trkpt>
      <trkpt lat="45.19803" lon="5.62946">
        <ele>672</ele>
        <time>2014-06-22T10:03:20Z</time>
      </trkpt>
      <trkpt lat="45.1982" lon="5.62972">
        <ele>666.6</ele>
        <time>2014-06-22T10:03:29Z</time>
      </trkpt>
      <trkpt lat="45.19864" lon="5.63001">
        <ele>663.3</ele>
        <time>2014-06-22T10:03:42Z</time>
      </trkpt>
      <trkpt lat="45.19922" lon="5.62999">
        <ele>672.8</ele>
        <time>2014-06-22T10:04:19Z</time>
      </trkpt>
      <trkpt lat="45.19953" lon="5.6305">
        <ele>657.8</ele>
        <time>2014-06-22T10:04:30Z</time>
      </trkpt>
      <trkpt lat="45.20003" lon="5.6312">
        <ele>643</ele>
        <time>2014-06-22T10:04:39Z</time>
      </trkpt>
      <trkpt lat="45.20042" lon="5.63138">
        <ele>640.1</ele>
        <time>2014-06-22T10:04:43Z</time>
      </trkpt>
      <trkpt lat="45.20115" lon="5.63166">
        <ele>632.9</ele>
        <time>2014-06-22T10:04:51Z</time>
      </trkpt>
      <trkpt lat="45.20145" lon="5.63194">
        <ele>626.6</ele>
        <time>2014-06-22T10:04:56Z</time>
      </trkpt>
      <trkpt lat="45.20152" lon="5.63196">
        <ele>626.2</ele>
        <time>2014-06-22T10:05:00Z</time>
      </trkpt>
      <trkpt lat="45.2009" lon="5.6318">
        <ele>628.7</ele>
        <time>2014-06-22T10:05:12Z</time>
      </trkpt>
      <trkpt lat="45.20001" lon="5.6319">
        <ele>623.2</ele>
        <time>2014-06-22T10:05:23Z</time>
      </trkpt>
      <trkpt lat="45.19969" lon="5.63169">
        <ele>625.9</ele>
        <time>2014-06-22T10:05:27Z</time>
      </trkpt>
      <trkpt lat="45.19902" lon="5.63162">
        <ele>621.6</ele>
        <time>2014-06-22T10:05:36Z</time>
      </trkpt>
      <trkpt lat="45.19913" lon="5.63201">
        <ele>611.7</ele>
        <time>2014-06-22T10:05:40Z</time>
      </trkpt>
      <trkpt lat="45.19959" lon="5.63207">
        <ele>613.6</ele>
        <time>2014-06-22T10:05:45Z</time>
      </trkpt>
      <trkpt lat="45.19986" lon="5.63217">
        <ele>613</ele>
        <time>2014-06-22T10:05:49Z</time>
      </trkpt>
      <trkpt lat="45.20022" lon="5.63237">
        <ele>608.9</ele>
        <time>2014-06-22T10:05:56Z</time>
      </trkpt>
      <trkpt lat="45.20086" lon="5.63257">
        <ele>607.2</ele>
        <time>2014-06-22T10:06:07Z</time>
      </trkpt>
      <trkpt lat="45.20138" lon="5.63274">
        <ele>603.4</ele>
        <time>2014-06-22T10:06:18Z</time>
      </trkpt>
      <trkpt lat="45.20152" lon="5.6328">
        <ele>602.1</ele>
        <time>2014-06-22T10:06:22Z</time>
      </trkpt>
      <trkpt lat="45.20164" lon="5.63289">
        <ele>600.2</ele>
        <time>2014-06-22T10:06:26Z</time>
      </trkpt>
      <trkpt lat="45.20173" lon="5.63307">
        <ele>595.7</ele>
        <time>2014-06-22T10:06:30Z</time>
      </trkpt>
      <trkpt lat="45.20203" lon="5.63323">
        <ele>596.5</ele>
        <time>2014-06-22T10:06:36Z</time>
      </trkpt>
      <trkpt lat="45.20221" lon="5.63334">
        <ele>596.1</ele>
        <time>2014-06-22T10:06:40Z</time>
      </trkpt>
      <trkpt lat="45.20243" lon="5.63354">
        <ele>595.9</ele>
        <time>2014-06-22T10:06:45Z</time>
      </trkpt>
      <trkpt lat="45.20245" lon="5.63392">
        <ele>587.4</ele>
        <time>2014-06-22T10:06:49Z</time>
      </trkpt>
      <trkpt lat="45.20249" lon="5.63464">
        <ele>571.1</ele>
        <time>2014-06-22T10:06:57Z</time>
      </trkpt>
      <trkpt lat="45.20294" lon="5.63561">
        <ele>569.3</ele>
        <time>2014-06-22T10:07:08Z</time>
      </trkpt>
      <trkpt lat="45.20323" lon="5.63601">
        <ele>569.9</ele>
        <time>2014-06-22T10:07:15Z</time>
      </trkpt>
      <trkpt lat="45.2033" lon="5.63614">
        <ele>568.9</ele>
        <time>2014-06-22T10:07:26Z</time>
      </trkpt>
      <trkpt lat="45.20333" lon="5.63685">
        <ele>556.9</ele>
        <time>2014-06-22T10:07:39Z</time>
      </trkpt>
      <trkpt lat="45.20346" lon="5.63718">
        <ele>554.2</ele>
        <time>2014-06-22T10:07:44Z</time>
      </trkpt>
      <trkpt lat="45.2036" lon="5.6374">
        <ele>553</ele>
        <time>2014-06-22T10:07:48Z</time>
      </trkpt>
      <trkpt lat="45.20392" lon="5.63782">
        <ele>550.6</ele>
        <time>2014-06-22T10:07:59Z</time>
      </trkpt>
      <trkpt lat="45.20427" lon="5.63818">
        <ele>546.7</ele>
        <time>2014-06-22T10:08:09Z</time>
      </trkpt>
      <trkpt lat="45.20443" lon="5.63836">
        <ele>545.6</ele>
        <time>2014-06-22T10:08:13Z</time>
      </trkpt>
      <trkpt lat="45.20488" lon="5.63925">
        <ele>539.7</ele>
        <time>2014-06-22T10:08:26Z</time>
      </trkpt>
      <trkpt lat="45.20547" lon="5.64038">
        <ele>538.1</ele>
        <time>2014-06-22T10:08:42Z</time>
      </trkpt>
      <trkpt lat="45.20593" lon="5.64144">
        <ele>530.3</ele>
        <time>2014-06-22T10:08:56Z</time>
      </trkpt>
      <trkpt lat="45.2064" lon="5.64183">
        <ele>532.2</ele>
        <time>2014-06-22T10:09:05Z</time>
      </trkpt>
      <trkpt lat="45.20712" lon="5.64195">
        <ele>529</ele>
        <time>2014-06-22T10:09:15Z</time>
      </trkpt>
      <trkpt lat="45.20749" lon="5.64197">
        <ele>526.8</ele>
        <time>2014-06-22T10:09:22Z</time>
      </trkpt>
      <trkpt lat="45.20782" lon="5.64245">
        <ele>510.4</ele>
        <time>2014-06-22T10:09:54Z</time>
      </trkpt>
      <trkpt lat="45.20828" lon="5.64258">
        <ele>491.1</ele>
        <time>2014-06-22T10:10:05Z</time>
      </trkpt>
      <trkpt lat="45.20859" lon="5.64276">
        <ele>479.5</ele>
        <time>2014-06-22T10:10:11Z</time>
      </trkpt>
      <trkpt lat="45.20899" lon="5.64269">
        <ele>465.9</ele>
        <time>2014-06-22T10:10:20Z</time>
      </trkpt>
      <trkpt lat="45.20957" lon="5.64245">
        <ele>459.3</ele>
        <time>2014-06-22T10:10:32Z</time>
      </trkpt>
      <trkpt lat="45.20986" lon="5.64237">
        <ele>456.5</ele>
        <time>2014-06-22T10:10:50Z</time>
      </trkpt>
      <trkpt lat="45.21007" lon="5.64237">
        <ele>451.9</ele>
        <time>2014-06-22T10:10:54Z</time>
      </trkpt>
      <trkpt lat="45.21045" lon="5.64245">
        <ele>443.2</ele>
        <time>2014-06-22T10:11:02Z</time>
      </trkpt>
      <trkpt lat="45.21068" lon="5.64248">
        <ele>438.7</ele>
        <time>2014-06-22T10:11:08Z</time>
      </trkpt>
      <trkpt lat="45.21086" lon="5.64261">
        <ele>434.1</ele>
        <time>2014-06-22T10:11:13Z</time>
      </trkpt>
      <trkpt lat="45.21084" lon="5.64287">
        <ele>429.7</ele>
        <time>2014-06-22T10:11:17Z</time>
      </trkpt>
      <trkpt lat="45.21057" lon="5.64321">
        <ele>426</ele>
        <time>2014-06-22T10:11:23Z</time>
      </trkpt>
      <trkpt lat="45.21061" lon="5.64369">
        <ele>415.1</ele>
        <time>2014-06-22T10:11:28Z</time>
      </trkpt>
      <trkpt lat="45.21066" lon="5.64418">
        <ele>404.1</ele>
        <time>2014-06-22T10:11:34Z</time>
      </trkpt>
      <trkpt lat="45.21059" lon="5.6449">
        <ele>394.2</ele>
        <time>2014-06-22T10:11:47Z</time>
      </trkpt>
      <trkpt lat="45.21039" lon="5.64544">
        <ele>385.4</ele>
        <time>2014-06-22T10:11:57Z</time>
      </trkpt>
      <trkpt lat="45.21018" lon="5.64571">
        <ele>381.5</ele>
        <time>2014-06-22T10:12:01Z</time>
      </trkpt>
      <trkpt lat="45.21013" lon="5.64618">
        <ele>377.1</ele>
        <time>2014-06-22T10:12:05Z</time>
      </trkpt>
      <trkpt lat="45.21017" lon="5.64722">
        <ele>367.1</ele>
        <time>2014-06-22T10:12:15Z</time>
      </trkpt>
      <trkpt lat="45.21016" lon="5.64747">
        <ele>364.4</ele>
        <time>2014-06-22T10:12:19Z</time>
      </trkpt>
      <trkpt lat="45.20986" lon="5.64816">
        <ele>356.8</ele>
        <time>2014-06-22T10:12:27Z</time>
      </trkpt>
      <trkpt lat="45.20986" lon="5.64861">
        <ele>354</ele>
        <time>2014-06-22T10:12:31Z</time>
      </trkpt>
      <trkpt lat="45.21014" lon="5.64884">
        <ele>351.1</ele>
        <time>2014-06-22T10:12:35Z</time>
      </trkpt>
      <trkpt lat="45.21043" lon="5.64905">
        <ele>349</ele>
        <time>2014-06-22T10:12:40Z</time>
      </trkpt>
      <trkpt lat="45.21088" lon="5.6495">
        <ele>347.6</ele>
        <time>2014-06-22T10:12:50Z</time>
      </trkpt>
      <trkpt lat="45.21118" lon="5.64995">
        <ele>343.5</ele>
        <time>2014-06-22T10:12:56Z</time>
      </trkpt>
      <trkpt lat="45.21174" lon="5.65">
        <ele>332.2</ele>
        <time>2014-06-22T10:13:02Z</time>
      </trkpt>
      <trkpt lat="45.21191" lon="5.65044">
        <ele>326.4</ele>
        <time>2014-06-22T10:13:06Z</time>
      </trkpt>
      <trkpt lat="45.2121" lon="5.65198">
        <ele>310.5</ele>
        <time>2014-06-22T10:13:17Z</time>
      </trkpt>
      <trkpt lat="45.21212" lon="5.65237">
        <ele>308</ele>
        <time>2014-06-22T10:13:25Z</time>
      </trkpt>
      <trkpt lat="45.212" lon="5.65279">
        <ele>304.5</ele>
        <time>2014-06-22T10:13:38Z</time>
      </trkpt>
      <trkpt lat="45.21176" lon="5.65352">
        <ele>297.1</ele>
        <time>2014-06-22T10:13:49Z</time>
      </trkpt>
      <trkpt lat="45.21153" lon="5.6545">
        <ele>281.4</ele>
        <time>2014-06-22T10:14:07Z</time>
      </trkpt>
      <trkpt lat="45.21142" lon="5.65499">
        <ele>270.6</ele>
        <time>2014-06-22T10:14:14Z</time>
      </trkpt>
      <trkpt lat="45.21126" lon="5.65509">
        <ele>271.6</ele>
        <time>2014-06-22T10:14:18Z</time>
      </trkpt>
      <trkpt lat="45.21087" lon="5.65554">
        <ele>261.6</ele>
        <time>2014-06-22T10:14:27Z</time>
      </trkpt>
      <trkpt lat="45.21058" lon="5.6562">
        <ele>241.1</ele>
        <time>2014-06-22T10:14:37Z</time>
      </trkpt>
      <trkpt lat="45.21005" lon="5.6566">
        <ele>236.1</ele>
        <time>2014-06-22T10:14:54Z</time>
      </trkpt>
      <trkpt lat="45.20946" lon="5.65673">
        <ele>227.6</ele>
        <time>2014-06-22T10:15:07Z</time>
      </trkpt>
      <trkpt lat="45.20912" lon="5.65665">
        <ele>225.2</ele>
        <time>2014-06-22T10:15:18Z</time>
      </trkpt>
      <trkpt lat="45.20897" lon="5.65676">
        <ele>223</ele>
        <time>2014-06-22T10:15:29Z</time>
      </trkpt>
      <trkpt lat="45.20894" lon="5.65696">
        <ele>222.1</ele>
        <time>2014-06-22T10:15:33Z</time>
      </trkpt>
      <trkpt lat="45.20911" lon="5.65762">
        <ele>222</ele>
        <time>2014-06-22T10:15:59Z</time>
      </trkpt>
      <trkpt lat="45.20908" lon="5.65753">
        <ele>221.5</ele>
        <time>2014-06-22T10:16:57Z</time>
      </trkpt>
      <trkpt lat="45.20888" lon="5.65758">
        <ele>220.1</ele>
        <time>2014-06-22T10:17:14Z</time>
      </trkpt>
      <trkpt lat="45.20876" lon="5.65769">
        <ele>219.3</ele>
        <time>2014-06-22T10:17:18Z</time>
      </trkpt>
      <trkpt lat="45.20857" lon="5.65795">
        <ele>217.8</ele>
        <time>2014-06-22T10:17:22Z</time>
      </trkpt>
      <trkpt lat="45.20838" lon="5.65794">
        <ele>216</ele>
        <time>2014-06-22T10:17:26Z</time>
      </trkpt>
      <trkpt lat="45.20791" lon="5.6578">
        <ele>215.8</ele>
        <time>2014-06-22T10:17:44Z</time>
      </trkpt>
      <trkpt lat="45.20794" lon="5.65786">
        <ele>215.8</ele>
        <time>2014-06-22T10:17:48Z</time>
      </trkpt>
      <trkpt lat="45.20788" lon="5.65797">
        <ele>215.7</ele>
        <time>2014-06-22T10:17:52Z</time>
      </trkpt>
      <trkpt lat="45.20774" lon="5.65806">
        <ele>215.8</ele>
        <time>2014-06-22T10:17:56Z</time>
      </trkpt>
      <trkpt lat="45.20723" lon="5.65841">
        <ele>215.2</ele>
        <time>2014-06-22T10:18:11Z</time>
      </trkpt>
      <trkpt lat="45.20694" lon="5.65865">
        <ele>214.2</ele>
        <time>2014-06-22T10:18:17Z</time>
      </trkpt>
      <trkpt lat="45.20626" lon="5.65933">
        <ele>211.2</ele>
        <time>2014-06-22T10:18:33Z</time>
      </trkpt>
      <trkpt lat="45.2046" lon="5.66058">
        <ele>212.8</ele>
        <time>2014-06-22T10:19:14Z</time>
      </trkpt>
      <trkpt lat="45.20357" lon="5.66155">
        <ele>209.9</ele>
        <time>2014-06-22T10:19:37Z</time>
      </trkpt>
      <trkpt lat="45.20261" lon="5.66249">
        <ele>209</ele>
        <time>2014-06-22T10:19:58Z</time>
      </trkpt>
      <trkpt lat="45.2004" lon="5.66395">
        <ele>222.4</ele>
        <time>2014-06-22T10:20:44Z</time>
      </trkpt>
      <trkpt lat="45.19821" lon="5.66518">
        <ele>212.9</ele>
        <time>2014-06-22T10:21:33Z</time>
      </trkpt>
      <trkpt lat="45.19731" lon="5.66577">
        <ele>212.1</ele>
        <time>2014-06-22T10:21:53Z</time>
      </trkpt>
      <trkpt lat="45.1971" lon="5.66597">
        <ele>211.5</ele>
        <time>2014-06-22T10:21:58Z</time>
      </trkpt>
      <trkpt lat="45.19691" lon="5.66605">
        <ele>211.2</ele>
        <time>2014-06-22T10:22:02Z</time>
      </trkpt>
      <trkpt lat="45.19667" lon="5.6662">
        <ele>210.7</ele>
        <time>2014-06-22T10:22:07Z</time>
      </trkpt>
      <trkpt lat="45.19637" lon="5.66654">
        <ele>212.7</ele>
        <time>2014-06-22T10:22:14Z</time>
      </trkpt>
      <trkpt lat="45.19599" lon="5.6668">
        <ele>215.9</ele>
        <time>2014-06-22T10:22:21Z</time>
      </trkpt>
      <trkpt lat="45.19525" lon="5.66707">
        <ele>220.2</ele>
        <time>2014-06-22T10:22:34Z</time>
      </trkpt>
      <trkpt lat="45.19484" lon="5.66747">
        <ele>221.6</ele>
        <time>2014-06-22T10:22:47Z</time>
      </trkpt>
      <trkpt lat="45.19368" lon="5.66798">
        <ele>228.9</ele>
        <time>2014-06-22T10:23:12Z</time>
      </trkpt>
      <trkpt lat="45.19308" lon="5.66846">
        <ele>233.2</ele>
        <time>2014-06-22T10:23:28Z</time>
      </trkpt>
      <trkpt lat="45.19299" lon="5.66865">
        <ele>232.5</ele>
        <time>2014-06-22T10:23:32Z</time>
      </trkpt>
      <trkpt lat="45.1929" lon="5.66884">
        <ele>230.9</ele>
        <time>2014-06-22T10:23:38Z</time>
      </trkpt>
      <trkpt lat="45.19289" lon="5.66908">
        <ele>225.8</ele>
        <time>2014-06-22T10:23:42Z</time>
      </trkpt>
      <trkpt lat="45.19276" lon="5.66982">
        <ele>222.3</ele>
        <time>2014-06-22T10:23:54Z</time>
      </trkpt>
      <trkpt lat="45.19257" lon="5.6707">
        <ele>219.1</ele>
        <time>2014-06-22T10:24:04Z</time>
      </trkpt>
      <trkpt lat="45.19222" lon="5.67137">
        <ele>226.2</ele>
        <time>2014-06-22T10:24:15Z</time>
      </trkpt>
      <trkpt lat="45.19182" lon="5.67191">
        <ele>230</ele>
        <time>2014-06-22T10:24:26Z</time>
      </trkpt>
      <trkpt lat="45.1917" lon="5.67383">
        <ele>210.5</ele>
        <time>2014-06-22T10:24:59Z</time>
      </trkpt>
      <trkpt lat="45.19169" lon="5.67605">
        <ele>207.7</ele>
        <time>2014-06-22T10:25:25Z</time>
      </trkpt>
      <trkpt lat="45.19156" lon="5.67665">
        <ele>207.4</ele>
        <time>2014-06-22T10:25:33Z</time>
      </trkpt>
      <trkpt lat="45.19051" lon="5.67892">
        <ele>219.6</ele>
        <time>2014-06-22T10:25:58Z</time>
      </trkpt>
      <trkpt lat="45.18972" lon="5.67992">
        <ele>222.1</ele>
        <time>2014-06-22T10:26:10Z</time>
      </trkpt>
      <trkpt lat="45.18917" lon="5.68043">
        <ele>229.6</ele>
        <time>2014-06-22T10:26:20Z</time>
      </trkpt>
      <trkpt lat="45.18764" lon="5.68199">
        <ele>225.6</ele>
        <time>2014-06-22T10:26:52Z</time>
      </trkpt>
      <trkpt lat="45.18697" lon="5.68296">
        <ele>219.7</ele>
        <time>2014-06-22T10:27:10Z</time>
      </trkpt>
      <trkpt lat="45.18617" lon="5.68434">
        <ele>215.5</ele>
        <time>2014-06-22T10:27:31Z</time>
      </trkpt>
      <trkpt lat="45.18555" lon="5.68538">
        <ele>225.5</ele>
        <time>2014-06-22T10:27:46Z</time>
      </trkpt>
      <trkpt lat="45.18541" lon="5.68557">
        <ele>230.6</ele>
        <time>2014-06-22T10:27:50Z</time>
      </trkpt>
      <trkpt lat="45.18484" lon="5.68748">
        <ele>220.9</ele>
        <time>2014-06-22T10:28:15Z</time>
      </trkpt>
      <trkpt lat="45.18527" lon="5.68848">
        <ele>217.1</ele>
        <time>2014-06-22T10:28:30Z</time>
      </trkpt>
      <trkpt lat="45.18512" lon="5.68861">
        <ele>217.8</ele>
        <time>2014-06-22T10:28:34Z</time>
      </trkpt>
      <trkpt lat="45.18504" lon="5.68853">
        <ele>218.1</ele>
        <time>2014-06-22T10:29:34Z</time>
      </trkpt>
    </trkseg>
  </trk>
  <trk>
    <name><![CDATA[Crêtes de La Molière et Plateau de Gève - 6931 - UtagawaVTT.com]]></name>
    <trkseg>
      <trkpt lat="45.13021" lon="5.55982">
        <ele>1228.2</ele>
        <time>2007-05-21T06:00:05Z</time>
      </trkpt>
      <trkpt lat="45.1305" lon="5.5604">
        <ele>1230.8</ele>
        <time>2007-05-21T06:00:30Z</time>
      </trkpt>
      <trkpt lat="45.13061" lon="5.56079">
        <ele>1234.2</ele>
        <time>2007-05-21T06:00:42Z</time>
      </trkpt>
      <trkpt lat="45.13074" lon="5.56109">
        <ele>1236</ele>
        <time>2007-05-21T06:00:53Z</time>
      </trkpt>
      <trkpt lat="45.13086" lon="5.56136">
        <ele>1237.1</ele>
        <time>2007-05-21T06:01:02Z</time>
      </trkpt>
      <trkpt lat="45.13099" lon="5.56184">
        <ele>1241.4</ele>
        <time>2007-05-21T06:01:16Z</time>
      </trkpt>
      <trkpt lat="45.13109" lon="5.56205">
        <ele>1244.3</ele>
        <time>2007-05-21T06:01:26Z</time>
      </trkpt>
      <trkpt lat="45.13166" lon="5.56167">
        <ele>1240</ele>
        <time>2007-05-21T06:01:52Z</time>
      </trkpt>
      <trkpt lat="45.13203" lon="5.56156">
        <ele>1242.9</ele>
        <time>2007-05-21T06:02:07Z</time>
      </trkpt>
      <trkpt lat="45.13226" lon="5.5615">
        <ele>1244.7</ele>
        <time>2007-05-21T06:02:17Z</time>
      </trkpt>
      <trkpt lat="45.13257" lon="5.56154">
        <ele>1248.5</ele>
        <time>2007-05-21T06:02:29Z</time>
      </trkpt>
      <trkpt lat="45.13272" lon="5.56167">
        <ele>1251.4</ele>
        <time>2007-05-21T06:02:37Z</time>
      </trkpt>
      <trkpt lat="45.13292" lon="5.56177">
        <ele>1254.1</ele>
        <time>2007-05-21T06:02:45Z</time>
      </trkpt>
      <trkpt lat="45.13321" lon="5.56126">
        <ele>1249.1</ele>
        <time>2007-05-21T06:03:05Z</time>
      </trkpt>
      <trkpt lat="45.13363" lon="5.56091">
        <ele>1250.6</ele>
        <time>2007-05-21T06:03:25Z</time>
      </trkpt>
      <trkpt lat="45.13385" lon="5.56083">
        <ele>1253</ele>
        <time>2007-05-21T06:03:35Z</time>
      </trkpt>
      <trkpt lat="45.13414" lon="5.56084">
        <ele>1257.7</ele>
        <time>2007-05-21T06:03:46Z</time>
      </trkpt>
      <trkpt lat="45.13448" lon="5.56094">
        <ele>1257.7</ele>
        <time>2007-05-21T06:04:00Z</time>
      </trkpt>
      <trkpt lat="45.13469" lon="5.56102">
        <ele>1258.1</ele>
        <time>2007-05-21T06:04:09Z</time>
      </trkpt>
      <trkpt lat="45.13522" lon="5.56141">
        <ele>1265.7</ele>
        <time>2007-05-21T06:04:33Z</time>
      </trkpt>
      <trkpt lat="45.13536" lon="5.56168">
        <ele>1271.8</ele>
        <time>2007-05-21T06:04:43Z</time>
      </trkpt>
      <trkpt lat="45.1356" lon="5.56168">
        <ele>1271.5</ele>
        <time>2007-05-21T06:04:54Z</time>
      </trkpt>
      <trkpt lat="45.13571" lon="5.56139">
        <ele>1265.1</ele>
        <time>2007-05-21T06:05:03Z</time>
      </trkpt>
      <trkpt lat="45.1359" lon="5.56126">
        <ele>1263.1</ele>
        <time>2007-05-21T06:05:13Z</time>
      </trkpt>
      <trkpt lat="45.13617" lon="5.56123">
        <ele>1266.1</ele>
        <time>2007-05-21T06:05:24Z</time>
      </trkpt>
      <trkpt lat="45.13681" lon="5.56109">
        <ele>1270.4</ele>
        <time>2007-05-21T06:05:50Z</time>
      </trkpt>
      <trkpt lat="45.13716" lon="5.56097">
        <ele>1271.8</ele>
        <time>2007-05-21T06:06:05Z</time>
      </trkpt>
      <trkpt lat="45.13751" lon="5.56085">
        <ele>1273.6</ele>
        <time>2007-05-21T06:06:19Z</time>
      </trkpt>
      <trkpt lat="45.13779" lon="5.56076">
        <ele>1275.9</ele>
        <time>2007-05-21T06:06:31Z</time>
      </trkpt>
      <trkpt lat="45.13799" lon="5.56067">
        <ele>1276.5</ele>
        <time>2007-05-21T06:06:39Z</time>
      </trkpt>
      <trkpt lat="45.1382" lon="5.56063">
        <ele>1278.8</ele>
        <time>2007-05-21T06:06:48Z</time>
      </trkpt>
      <trkpt lat="45.1389" lon="5.56059">
        <ele>1275.2</ele>
        <time>2007-05-21T06:07:17Z</time>
      </trkpt>
      <trkpt lat="45.13907" lon="5.5608">
        <ele>1278.4</ele>
        <time>2007-05-21T06:07:26Z</time>
      </trkpt>
      <trkpt lat="45.13908" lon="5.56129">
        <ele>1287</ele>
        <time>2007-05-21T06:07:41Z</time>
      </trkpt>
      <trkpt lat="45.13909" lon="5.56157">
        <ele>1291.7</ele>
        <time>2007-05-21T06:07:49Z</time>
      </trkpt>
      <trkpt lat="45.13914" lon="5.56184">
        <ele>1294.8</ele>
        <time>2007-05-21T06:07:57Z</time>
      </trkpt>
      <trkpt lat="45.13919" lon="5.56225">
        <ele>1299.7</ele>
        <time>2007-05-21T06:08:09Z</time>
      </trkpt>
      <trkpt lat="45.13953" lon="5.56249">
        <ele>1304.2</ele>
        <time>2007-05-21T06:08:27Z</time>
      </trkpt>
      <trkpt lat="45.13967" lon="5.56227">
        <ele>1301.3</ele>
        <time>2007-05-21T06:08:36Z</time>
      </trkpt>
      <trkpt lat="45.13979" lon="5.56204">
        <ele>1297.9</ele>
        <time>2007-05-21T06:08:45Z</time>
      </trkpt>
      <trkpt lat="45.14" lon="5.56192">
        <ele>1296.2</ele>
        <time>2007-05-21T06:08:54Z</time>
      </trkpt>
      <trkpt lat="45.14023" lon="5.56205">
        <ele>1297.1</ele>
        <time>2007-05-21T06:09:05Z</time>
      </trkpt>
      <trkpt lat="45.14045" lon="5.56236">
        <ele>1302.1</ele>
        <time>2007-05-21T06:09:17Z</time>
      </trkpt>
      <trkpt lat="45.14083" lon="5.56286">
        <ele>1312.6</ele>
        <time>2007-05-21T06:09:40Z</time>
      </trkpt>
      <trkpt lat="45.141" lon="5.56263">
        <ele>1310.6</ele>
        <time>2007-05-21T06:09:50Z</time>
      </trkpt>
      <trkpt lat="45.14116" lon="5.56238">
        <ele>1308.2</ele>
        <time>2007-05-21T06:09:59Z</time>
      </trkpt>
      <trkpt lat="45.14141" lon="5.56225">
        <ele>1310.3</ele>
        <time>2007-05-21T06:10:10Z</time>
      </trkpt>
      <trkpt lat="45.14205" lon="5.56225">
        <ele>1317.3</ele>
        <time>2007-05-21T06:10:36Z</time>
      </trkpt>
      <trkpt lat="45.1424" lon="5.56234">
        <ele>1320.9</ele>
        <time>2007-05-21T06:10:50Z</time>
      </trkpt>
      <trkpt lat="45.14277" lon="5.56253">
        <ele>1326.2</ele>
        <time>2007-05-21T06:11:06Z</time>
      </trkpt>
      <trkpt lat="45.14304" lon="5.56258">
        <ele>1328.1</ele>
        <time>2007-05-21T06:11:17Z</time>
      </trkpt>
      <trkpt lat="45.14342" lon="5.5625">
        <ele>1327.1</ele>
        <time>2007-05-21T06:11:33Z</time>
      </trkpt>
      <trkpt lat="45.14362" lon="5.56243">
        <ele>1328</ele>
        <time>2007-05-21T06:11:41Z</time>
      </trkpt>
      <trkpt lat="45.14386" lon="5.56245">
        <ele>1331.7</ele>
        <time>2007-05-21T06:11:51Z</time>
      </trkpt>
      <trkpt lat="45.14408" lon="5.56259">
        <ele>1338.3</ele>
        <time>2007-05-21T06:12:01Z</time>
      </trkpt>
      <trkpt lat="45.14444" lon="5.56224">
        <ele>1333.9</ele>
        <time>2007-05-21T06:12:21Z</time>
      </trkpt>
      <trkpt lat="45.14463" lon="5.56213">
        <ele>1333.4</ele>
        <time>2007-05-21T06:12:29Z</time>
      </trkpt>
      <trkpt lat="45.14483" lon="5.56218">
        <ele>1336.9</ele>
        <time>2007-05-21T06:12:37Z</time>
      </trkpt>
      <trkpt lat="45.1451" lon="5.56229">
        <ele>1340.6</ele>
        <time>2007-05-21T06:12:49Z</time>
      </trkpt>
      <trkpt lat="45.14537" lon="5.56231">
        <ele>1338.1</ele>
        <time>2007-05-21T06:13:00Z</time>
      </trkpt>
      <trkpt lat="45.14556" lon="5.56239">
        <ele>1338.1</ele>
        <time>2007-05-21T06:13:08Z</time>
      </trkpt>
      <trkpt lat="45.14596" lon="5.56297">
        <ele>1346.5</ele>
        <time>2007-05-21T06:13:31Z</time>
      </trkpt>
      <trkpt lat="45.14608" lon="5.56325">
        <ele>1350.4</ele>
        <time>2007-05-21T06:13:40Z</time>
      </trkpt>
      <trkpt lat="45.14629" lon="5.56354">
        <ele>1353.4</ele>
        <time>2007-05-21T06:13:53Z</time>
      </trkpt>
      <trkpt lat="45.14647" lon="5.564">
        <ele>1358.3</ele>
        <time>2007-05-21T06:14:07Z</time>
      </trkpt>
      <trkpt lat="45.14655" lon="5.56428">
        <ele>1361.1</ele>
        <time>2007-05-21T06:14:16Z</time>
      </trkpt>
      <trkpt lat="45.14666" lon="5.56451">
        <ele>1362.6</ele>
        <time>2007-05-21T06:14:24Z</time>
      </trkpt>
      <trkpt lat="45.14674" lon="5.56417">
        <ele>1359.4</ele>
        <time>2007-05-21T06:14:43Z</time>
      </trkpt>
      <trkpt lat="45.14682" lon="5.5638">
        <ele>1356.8</ele>
        <time>2007-05-21T06:14:55Z</time>
      </trkpt>
      <trkpt lat="45.14702" lon="5.56373">
        <ele>1360.2</ele>
        <time>2007-05-21T06:15:03Z</time>
      </trkpt>
      <trkpt lat="45.14722" lon="5.5636">
        <ele>1363.1</ele>
        <time>2007-05-21T06:15:12Z</time>
      </trkpt>
      <trkpt lat="45.14729" lon="5.56333">
        <ele>1362.2</ele>
        <time>2007-05-21T06:15:21Z</time>
      </trkpt>
      <trkpt lat="45.14737" lon="5.56303">
        <ele>1361.7</ele>
        <time>2007-05-21T06:15:30Z</time>
      </trkpt>
      <trkpt lat="45.14772" lon="5.56268">
        <ele>1361.7</ele>
        <time>2007-05-21T06:15:48Z</time>
      </trkpt>
      <trkpt lat="45.14795" lon="5.56252">
        <ele>1360.2</ele>
        <time>2007-05-21T06:15:58Z</time>
      </trkpt>
      <trkpt lat="45.14819" lon="5.56259">
        <ele>1361</ele>
        <time>2007-05-21T06:16:08Z</time>
      </trkpt>
      <trkpt lat="45.14845" lon="5.56294">
        <ele>1363.6</ele>
        <time>2007-05-21T06:16:22Z</time>
      </trkpt>
      <trkpt lat="45.14857" lon="5.56324">
        <ele>1366.3</ele>
        <time>2007-05-21T06:16:33Z</time>
      </trkpt>
      <trkpt lat="45.1487" lon="5.56355">
        <ele>1369.3</ele>
        <time>2007-05-21T06:16:43Z</time>
      </trkpt>
      <trkpt lat="45.14895" lon="5.5641">
        <ele>1375.1</ele>
        <time>2007-05-21T06:17:02Z</time>
      </trkpt>
      <trkpt lat="45.14912" lon="5.56433">
        <ele>1378.4</ele>
        <time>2007-05-21T06:17:11Z</time>
      </trkpt>
      <trkpt lat="45.14956" lon="5.56434">
        <ele>1368</ele>
        <time>2007-05-21T06:17:29Z</time>
      </trkpt>
      <trkpt lat="45.1498" lon="5.56453">
        <ele>1367</ele>
        <time>2007-05-21T06:17:41Z</time>
      </trkpt>
      <trkpt lat="45.14996" lon="5.5649">
        <ele>1374.6</ele>
        <time>2007-05-21T06:17:53Z</time>
      </trkpt>
      <trkpt lat="45.15031" lon="5.56536">
        <ele>1378.6</ele>
        <time>2007-05-21T06:18:13Z</time>
      </trkpt>
      <trkpt lat="45.15068" lon="5.56606">
        <ele>1387.2</ele>
        <time>2007-05-21T06:18:39Z</time>
      </trkpt>
      <trkpt lat="45.15106" lon="5.56603">
        <ele>1388.4</ele>
        <time>2007-05-21T06:18:54Z</time>
      </trkpt>
      <trkpt lat="45.15133" lon="5.56599">
        <ele>1392.1</ele>
        <time>2007-05-21T06:19:05Z</time>
      </trkpt>
      <trkpt lat="45.15138" lon="5.5657">
        <ele>1388.5</ele>
        <time>2007-05-21T06:19:14Z</time>
      </trkpt>
      <trkpt lat="45.15124" lon="5.56533">
        <ele>1380.3</ele>
        <time>2007-05-21T06:19:26Z</time>
      </trkpt>
      <trkpt lat="45.1514" lon="5.56498">
        <ele>1379.7</ele>
        <time>2007-05-21T06:19:39Z</time>
      </trkpt>
      <trkpt lat="45.15208" lon="5.56479">
        <ele>1385.3</ele>
        <time>2007-05-21T06:20:07Z</time>
      </trkpt>
      <trkpt lat="45.15244" lon="5.56488">
        <ele>1390.9</ele>
        <time>2007-05-21T06:20:22Z</time>
      </trkpt>
      <trkpt lat="45.15262" lon="5.5648">
        <ele>1391.6</ele>
        <time>2007-05-21T06:20:30Z</time>
      </trkpt>
      <trkpt lat="45.15278" lon="5.56445">
        <ele>1387.4</ele>
        <time>2007-05-21T06:20:42Z</time>
      </trkpt>
      <trkpt lat="45.1529" lon="5.56409">
        <ele>1382.4</ele>
        <time>2007-05-21T06:20:53Z</time>
      </trkpt>
      <trkpt lat="45.15305" lon="5.56383">
        <ele>1378.4</ele>
        <time>2007-05-21T06:21:03Z</time>
      </trkpt>
      <trkpt lat="45.1535" lon="5.56345">
        <ele>1374.6</ele>
        <time>2007-05-21T06:21:24Z</time>
      </trkpt>
      <trkpt lat="45.15372" lon="5.56342">
        <ele>1374.2</ele>
        <time>2007-05-21T06:21:33Z</time>
      </trkpt>
      <trkpt lat="45.15399" lon="5.5635">
        <ele>1376.8</ele>
        <time>2007-05-21T06:21:45Z</time>
      </trkpt>
      <trkpt lat="45.15416" lon="5.56371">
        <ele>1382.5</ele>
        <time>2007-05-21T06:21:54Z</time>
      </trkpt>
      <trkpt lat="45.15445" lon="5.56403">
        <ele>1380.1</ele>
        <time>2007-05-21T06:22:09Z</time>
      </trkpt>
      <trkpt lat="45.15463" lon="5.5643">
        <ele>1381.1</ele>
        <time>2007-05-21T06:22:20Z</time>
      </trkpt>
      <trkpt lat="45.1549" lon="5.56469">
        <ele>1382.4</ele>
        <time>2007-05-21T06:22:35Z</time>
      </trkpt>
      <trkpt lat="45.1552" lon="5.56494">
        <ele>1377.7</ele>
        <time>2007-05-21T06:22:49Z</time>
      </trkpt>
      <trkpt lat="45.15536" lon="5.56535">
        <ele>1378.7</ele>
        <time>2007-05-21T06:23:03Z</time>
      </trkpt>
      <trkpt lat="45.15549" lon="5.56599">
        <ele>1384.8</ele>
        <time>2007-05-21T06:23:22Z</time>
      </trkpt>
      <trkpt lat="45.15541" lon="5.56635">
        <ele>1390.3</ele>
        <time>2007-05-21T06:23:33Z</time>
      </trkpt>
      <trkpt lat="45.15525" lon="5.56695">
        <ele>1396.6</ele>
        <time>2007-05-21T06:23:52Z</time>
      </trkpt>
      <trkpt lat="45.15559" lon="5.56724">
        <ele>1398.7</ele>
        <time>2007-05-21T06:24:13Z</time>
      </trkpt>
      <trkpt lat="45.1558" lon="5.56704">
        <ele>1395.3</ele>
        <time>2007-05-21T06:24:23Z</time>
      </trkpt>
      <trkpt lat="45.15601" lon="5.56677">
        <ele>1393.5</ele>
        <time>2007-05-21T06:24:35Z</time>
      </trkpt>
      <trkpt lat="45.15617" lon="5.56637">
        <ele>1387.6</ele>
        <time>2007-05-21T06:24:48Z</time>
      </trkpt>
      <trkpt lat="45.15631" lon="5.56605">
        <ele>1381.9</ele>
        <time>2007-05-21T06:24:58Z</time>
      </trkpt>
      <trkpt lat="45.15643" lon="5.56583">
        <ele>1377.6</ele>
        <time>2007-05-21T06:25:06Z</time>
      </trkpt>
      <trkpt lat="45.1569" lon="5.56615">
        <ele>1386.9</ele>
        <time>2007-05-21T06:25:30Z</time>
      </trkpt>
      <trkpt lat="45.15713" lon="5.56643">
        <ele>1391</ele>
        <time>2007-05-21T06:25:42Z</time>
      </trkpt>
      <trkpt lat="45.15748" lon="5.56665">
        <ele>1390</ele>
        <time>2007-05-21T06:25:58Z</time>
      </trkpt>
      <trkpt lat="45.15772" lon="5.5668">
        <ele>1395.1</ele>
        <time>2007-05-21T06:26:09Z</time>
      </trkpt>
      <trkpt lat="45.15789" lon="5.56722">
        <ele>1403.5</ele>
        <time>2007-05-21T06:26:23Z</time>
      </trkpt>
      <trkpt lat="45.15806" lon="5.56754">
        <ele>1407.4</ele>
        <time>2007-05-21T06:26:34Z</time>
      </trkpt>
      <trkpt lat="45.15837" lon="5.567">
        <ele>1402.6</ele>
        <time>2007-05-21T06:26:57Z</time>
      </trkpt>
      <trkpt lat="45.15836" lon="5.56658">
        <ele>1399.8</ele>
        <time>2007-05-21T06:27:09Z</time>
      </trkpt>
      <trkpt lat="45.15826" lon="5.56632">
        <ele>1397.7</ele>
        <time>2007-05-21T06:27:17Z</time>
      </trkpt>
      <trkpt lat="45.15817" lon="5.56594">
        <ele>1394.8</ele>
        <time>2007-05-21T06:27:28Z</time>
      </trkpt>
      <trkpt lat="45.15825" lon="5.56545">
        <ele>1392.9</ele>
        <time>2007-05-21T06:27:43Z</time>
      </trkpt>
      <trkpt lat="45.15845" lon="5.56506">
        <ele>1392.5</ele>
        <time>2007-05-21T06:27:57Z</time>
      </trkpt>
      <trkpt lat="45.15893" lon="5.56489">
        <ele>1393.4</ele>
        <time>2007-05-21T06:28:17Z</time>
      </trkpt>
      <trkpt lat="45.15915" lon="5.565">
        <ele>1396.9</ele>
        <time>2007-05-21T06:28:27Z</time>
      </trkpt>
      <trkpt lat="45.15937" lon="5.56518">
        <ele>1398.2</ele>
        <time>2007-05-21T06:28:38Z</time>
      </trkpt>
      <trkpt lat="45.15952" lon="5.56539">
        <ele>1400.9</ele>
        <time>2007-05-21T06:28:46Z</time>
      </trkpt>
      <trkpt lat="45.15965" lon="5.56564">
        <ele>1405</ele>
        <time>2007-05-21T06:28:55Z</time>
      </trkpt>
      <trkpt lat="45.15988" lon="5.56592">
        <ele>1409.1</ele>
        <time>2007-05-21T06:29:08Z</time>
      </trkpt>
      <trkpt lat="45.16056" lon="5.56584">
        <ele>1411.5</ele>
        <time>2007-05-21T06:29:36Z</time>
      </trkpt>
      <trkpt lat="45.16082" lon="5.56589">
        <ele>1415</ele>
        <time>2007-05-21T06:29:46Z</time>
      </trkpt>
      <trkpt lat="45.16122" lon="5.56593">
        <ele>1414.8</ele>
        <time>2007-05-21T06:30:02Z</time>
      </trkpt>
      <trkpt lat="45.16147" lon="5.56587">
        <ele>1412.6</ele>
        <time>2007-05-21T06:30:13Z</time>
      </trkpt>
      <trkpt lat="45.16168" lon="5.56591">
        <ele>1412.6</ele>
        <time>2007-05-21T06:30:21Z</time>
      </trkpt>
      <trkpt lat="45.16188" lon="5.56603">
        <ele>1411.1</ele>
        <time>2007-05-21T06:30:30Z</time>
      </trkpt>
      <trkpt lat="45.16224" lon="5.56638">
        <ele>1413.2</ele>
        <time>2007-05-21T06:30:48Z</time>
      </trkpt>
      <trkpt lat="45.16233" lon="5.56667">
        <ele>1420.2</ele>
        <time>2007-05-21T06:30:57Z</time>
      </trkpt>
      <trkpt lat="45.16245" lon="5.56689">
        <ele>1424.5</ele>
        <time>2007-05-21T06:31:06Z</time>
      </trkpt>
      <trkpt lat="45.16277" lon="5.56687">
        <ele>1426.4</ele>
        <time>2007-05-21T06:31:19Z</time>
      </trkpt>
      <trkpt lat="45.16295" lon="5.56668">
        <ele>1422.3</ele>
        <time>2007-05-21T06:31:28Z</time>
      </trkpt>
      <trkpt lat="45.16325" lon="5.56628">
        <ele>1413.4</ele>
        <time>2007-05-21T06:31:44Z</time>
      </trkpt>
      <trkpt lat="45.16396" lon="5.5662">
        <ele>1419.4</ele>
        <time>2007-05-21T06:32:14Z</time>
      </trkpt>
      <trkpt lat="45.16439" lon="5.56627">
        <ele>1423.2</ele>
        <time>2007-05-21T06:32:32Z</time>
      </trkpt>
      <trkpt lat="45.16462" lon="5.56626">
        <ele>1421.9</ele>
        <time>2007-05-21T06:32:41Z</time>
      </trkpt>
      <trkpt lat="45.16492" lon="5.56631">
        <ele>1422.4</ele>
        <time>2007-05-21T06:32:53Z</time>
      </trkpt>
      <trkpt lat="45.1652" lon="5.56637">
        <ele>1422</ele>
        <time>2007-05-21T06:33:05Z</time>
      </trkpt>
      <trkpt lat="45.16554" lon="5.56644">
        <ele>1420.4</ele>
        <time>2007-05-21T06:33:19Z</time>
      </trkpt>
      <trkpt lat="45.16613" lon="5.56696">
        <ele>1408.2</ele>
        <time>2007-05-21T06:33:49Z</time>
      </trkpt>
      <trkpt lat="45.16605" lon="5.56723">
        <ele>1414.2</ele>
        <time>2007-05-21T06:33:57Z</time>
      </trkpt>
      <trkpt lat="45.16596" lon="5.56751">
        <ele>1422.2</ele>
        <time>2007-05-21T06:34:06Z</time>
      </trkpt>
      <trkpt lat="45.16588" lon="5.56791">
        <ele>1418.3</ele>
        <time>2007-05-21T06:34:18Z</time>
      </trkpt>
      <trkpt lat="45.16578" lon="5.56826">
        <ele>1417</ele>
        <time>2007-05-21T06:34:29Z</time>
      </trkpt>
      <trkpt lat="45.16574" lon="5.56854">
        <ele>1412.3</ele>
        <time>2007-05-21T06:34:37Z</time>
      </trkpt>
      <trkpt lat="45.16529" lon="5.56916">
        <ele>1441.5</ele>
        <time>2007-05-21T06:35:03Z</time>
      </trkpt>
      <trkpt lat="45.16513" lon="5.56932">
        <ele>1455.6</ele>
        <time>2007-05-21T06:35:14Z</time>
      </trkpt>
      <trkpt lat="45.16524" lon="5.56943">
        <ele>1442.1</ele>
        <time>2007-05-21T06:35:23Z</time>
      </trkpt>
      <trkpt lat="45.16524" lon="5.56941">
        <ele>1442.4</ele>
        <time>2007-05-21T06:35:31Z</time>
      </trkpt>
      <trkpt lat="45.16516" lon="5.56954">
        <ele>1448.7</ele>
        <time>2007-05-21T06:35:39Z</time>
      </trkpt>
      <trkpt lat="45.16507" lon="5.56984">
        <ele>1453.2</ele>
        <time>2007-05-21T06:35:48Z</time>
      </trkpt>
      <trkpt lat="45.16504" lon="5.57095">
        <ele>1442.5</ele>
        <time>2007-05-21T06:36:21Z</time>
      </trkpt>
      <trkpt lat="45.16509" lon="5.57146">
        <ele>1435.1</ele>
        <time>2007-05-21T06:36:35Z</time>
      </trkpt>
      <trkpt lat="45.16516" lon="5.57178">
        <ele>1428.2</ele>
        <time>2007-05-21T06:36:45Z</time>
      </trkpt>
      <trkpt lat="45.16514" lon="5.57226">
        <ele>1428.9</ele>
        <time>2007-05-21T06:36:59Z</time>
      </trkpt>
      <trkpt lat="45.16505" lon="5.57269">
        <ele>1435.3</ele>
        <time>2007-05-21T06:37:11Z</time>
      </trkpt>
      <trkpt lat="45.16508" lon="5.57321">
        <ele>1435.1</ele>
        <time>2007-05-21T06:37:26Z</time>
      </trkpt>
      <trkpt lat="45.16512" lon="5.57422">
        <ele>1434.7</ele>
        <time>2007-05-21T06:37:55Z</time>
      </trkpt>
      <trkpt lat="45.16506" lon="5.5746">
        <ele>1440.2</ele>
        <time>2007-05-21T06:38:06Z</time>
      </trkpt>
      <trkpt lat="45.1651" lon="5.57502">
        <ele>1440.4</ele>
        <time>2007-05-21T06:38:18Z</time>
      </trkpt>
      <trkpt lat="45.16507" lon="5.57553">
        <ele>1446</ele>
        <time>2007-05-21T06:38:33Z</time>
      </trkpt>
      <trkpt lat="45.16506" lon="5.57599">
        <ele>1451.8</ele>
        <time>2007-05-21T06:38:50Z</time>
      </trkpt>
      <trkpt lat="45.16524" lon="5.57638">
        <ele>1453.2</ele>
        <time>2007-05-21T06:39:03Z</time>
      </trkpt>
      <trkpt lat="45.16566" lon="5.57697">
        <ele>1455.2</ele>
        <time>2007-05-21T06:39:27Z</time>
      </trkpt>
      <trkpt lat="45.16582" lon="5.57718">
        <ele>1457.3</ele>
        <time>2007-05-21T06:39:36Z</time>
      </trkpt>
      <trkpt lat="45.16623" lon="5.57708">
        <ele>1455.8</ele>
        <time>2007-05-21T06:39:53Z</time>
      </trkpt>
      <trkpt lat="45.16679" lon="5.57689">
        <ele>1451.5</ele>
        <time>2007-05-21T06:40:16Z</time>
      </trkpt>
      <trkpt lat="45.16727" lon="5.57689">
        <ele>1451.4</ele>
        <time>2007-05-21T06:40:35Z</time>
      </trkpt>
      <trkpt lat="45.16756" lon="5.57707">
        <ele>1456.1</ele>
        <time>2007-05-21T06:40:48Z</time>
      </trkpt>
      <trkpt lat="45.16799" lon="5.57722">
        <ele>1457</ele>
        <time>2007-05-21T06:41:06Z</time>
      </trkpt>
      <trkpt lat="45.16818" lon="5.5774">
        <ele>1461.6</ele>
        <time>2007-05-21T06:41:16Z</time>
      </trkpt>
      <trkpt lat="45.16839" lon="5.57764">
        <ele>1467</ele>
        <time>2007-05-21T06:41:27Z</time>
      </trkpt>
      <trkpt lat="45.1686" lon="5.57795">
        <ele>1473.6</ele>
        <time>2007-05-21T06:41:39Z</time>
      </trkpt>
      <trkpt lat="45.16892" lon="5.578">
        <ele>1471.5</ele>
        <time>2007-05-21T06:41:52Z</time>
      </trkpt>
      <trkpt lat="45.16914" lon="5.57805">
        <ele>1471.1</ele>
        <time>2007-05-21T06:42:01Z</time>
      </trkpt>
      <trkpt lat="45.16961" lon="5.57806">
        <ele>1471.7</ele>
        <time>2007-05-21T06:42:21Z</time>
      </trkpt>
      <trkpt lat="45.17005" lon="5.57801">
        <ele>1469.4</ele>
        <time>2007-05-21T06:42:39Z</time>
      </trkpt>
      <trkpt lat="45.17038" lon="5.57806">
        <ele>1467.2</ele>
        <time>2007-05-21T06:42:52Z</time>
      </trkpt>
      <trkpt lat="45.17065" lon="5.57814">
        <ele>1466.6</ele>
        <time>2007-05-21T06:43:03Z</time>
      </trkpt>
      <trkpt lat="45.17093" lon="5.57826">
        <ele>1467.4</ele>
        <time>2007-05-21T06:43:15Z</time>
      </trkpt>
      <trkpt lat="45.17122" lon="5.57835">
        <ele>1467.9</ele>
        <time>2007-05-21T06:43:27Z</time>
      </trkpt>
      <trkpt lat="45.17213" lon="5.57832">
        <ele>1464.2</ele>
        <time>2007-05-21T06:44:04Z</time>
      </trkpt>
      <trkpt lat="45.17257" lon="5.57835">
        <ele>1467.8</ele>
        <time>2007-05-21T06:44:22Z</time>
      </trkpt>
      <trkpt lat="45.17286" lon="5.57821">
        <ele>1469.3</ele>
        <time>2007-05-21T06:44:34Z</time>
      </trkpt>
      <trkpt lat="45.17316" lon="5.57795">
        <ele>1468.2</ele>
        <time>2007-05-21T06:44:49Z</time>
      </trkpt>
      <trkpt lat="45.17349" lon="5.5776">
        <ele>1472.1</ele>
        <time>2007-05-21T06:45:05Z</time>
      </trkpt>
      <trkpt lat="45.1736" lon="5.57724">
        <ele>1474.2</ele>
        <time>2007-05-21T06:45:17Z</time>
      </trkpt>
      <trkpt lat="45.17357" lon="5.57645">
        <ele>1465.6</ele>
        <time>2007-05-21T06:45:39Z</time>
      </trkpt>
      <trkpt lat="45.1736" lon="5.5761">
        <ele>1464.1</ele>
        <time>2007-05-21T06:45:49Z</time>
      </trkpt>
      <trkpt lat="45.17368" lon="5.57568">
        <ele>1464.8</ele>
        <time>2007-05-21T06:46:01Z</time>
      </trkpt>
      <trkpt lat="45.17379" lon="5.57527">
        <ele>1467.2</ele>
        <time>2007-05-21T06:46:13Z</time>
      </trkpt>
      <trkpt lat="45.17393" lon="5.57473">
        <ele>1472.5</ele>
        <time>2007-05-21T06:46:30Z</time>
      </trkpt>
      <trkpt lat="45.17397" lon="5.57437">
        <ele>1473</ele>
        <time>2007-05-21T06:46:40Z</time>
      </trkpt>
      <trkpt lat="45.17398" lon="5.57272">
        <ele>1460</ele>
        <time>2007-05-21T06:47:27Z</time>
      </trkpt>
      <trkpt lat="45.17415" lon="5.57259">
        <ele>1466</ele>
        <time>2007-05-21T06:47:36Z</time>
      </trkpt>
      <trkpt lat="45.17444" lon="5.57274">
        <ele>1466</ele>
        <time>2007-05-21T06:47:48Z</time>
      </trkpt>
      <trkpt lat="45.17456" lon="5.57295">
        <ele>1468.2</ele>
        <time>2007-05-21T06:47:56Z</time>
      </trkpt>
      <trkpt lat="45.17465" lon="5.57329">
        <ele>1473.1</ele>
        <time>2007-05-21T06:48:06Z</time>
      </trkpt>
      <trkpt lat="45.1748" lon="5.57376">
        <ele>1481.4</ele>
        <time>2007-05-21T06:48:21Z</time>
      </trkpt>
      <trkpt lat="45.17512" lon="5.57468">
        <ele>1498.6</ele>
        <time>2007-05-21T06:48:50Z</time>
      </trkpt>
      <trkpt lat="45.17523" lon="5.57493">
        <ele>1500.6</ele>
        <time>2007-05-21T06:48:59Z</time>
      </trkpt>
      <trkpt lat="45.17537" lon="5.57514">
        <ele>1501.2</ele>
        <time>2007-05-21T06:49:07Z</time>
      </trkpt>
      <trkpt lat="45.17554" lon="5.57544">
        <ele>1504.1</ele>
        <time>2007-05-21T06:49:18Z</time>
      </trkpt>
      <trkpt lat="45.17568" lon="5.57568">
        <ele>1507.2</ele>
        <time>2007-05-21T06:49:27Z</time>
      </trkpt>
      <trkpt lat="45.17592" lon="5.57583">
        <ele>1507.8</ele>
        <time>2007-05-21T06:49:38Z</time>
      </trkpt>
      <trkpt lat="45.17652" lon="5.57553">
        <ele>1494.7</ele>
        <time>2007-05-21T06:50:04Z</time>
      </trkpt>
      <trkpt lat="45.17681" lon="5.57554">
        <ele>1494.5</ele>
        <time>2007-05-21T06:50:16Z</time>
      </trkpt>
      <trkpt lat="45.1772" lon="5.57559">
        <ele>1497.3</ele>
        <time>2007-05-21T06:50:32Z</time>
      </trkpt>
      <trkpt lat="45.17763" lon="5.5756">
        <ele>1495.9</ele>
        <time>2007-05-21T06:50:49Z</time>
      </trkpt>
      <trkpt lat="45.17797" lon="5.5757">
        <ele>1493.6</ele>
        <time>2007-05-21T06:51:03Z</time>
      </trkpt>
      <trkpt lat="45.17825" lon="5.57588">
        <ele>1494.2</ele>
        <time>2007-05-21T06:51:15Z</time>
      </trkpt>
      <trkpt lat="45.17853" lon="5.57662">
        <ele>1515.2</ele>
        <time>2007-05-21T06:51:40Z</time>
      </trkpt>
      <trkpt lat="45.17878" lon="5.57668">
        <ele>1516.8</ele>
        <time>2007-05-21T06:51:51Z</time>
      </trkpt>
      <trkpt lat="45.17897" lon="5.57646">
        <ele>1509.4</ele>
        <time>2007-05-21T06:52:02Z</time>
      </trkpt>
      <trkpt lat="45.17921" lon="5.57603">
        <ele>1494.4</ele>
        <time>2007-05-21T06:52:17Z</time>
      </trkpt>
      <trkpt lat="45.1796" lon="5.57584">
        <ele>1487.6</ele>
        <time>2007-05-21T06:52:34Z</time>
      </trkpt>
      <trkpt lat="45.17981" lon="5.57618">
        <ele>1496.3</ele>
        <time>2007-05-21T06:52:48Z</time>
      </trkpt>
      <trkpt lat="45.17996" lon="5.57688">
        <ele>1511.8</ele>
        <time>2007-05-21T06:53:09Z</time>
      </trkpt>
      <trkpt lat="45.18018" lon="5.57684">
        <ele>1508.5</ele>
        <time>2007-05-21T06:53:19Z</time>
      </trkpt>
      <trkpt lat="45.18039" lon="5.57677">
        <ele>1504.6</ele>
        <time>2007-05-21T06:53:28Z</time>
      </trkpt>
      <trkpt lat="45.18061" lon="5.57689">
        <ele>1504.8</ele>
        <time>2007-05-21T06:53:38Z</time>
      </trkpt>
      <trkpt lat="45.1808" lon="5.57708">
        <ele>1507.2</ele>
        <time>2007-05-21T06:53:47Z</time>
      </trkpt>
      <trkpt lat="45.18096" lon="5.57732">
        <ele>1511.9</ele>
        <time>2007-05-21T06:53:57Z</time>
      </trkpt>
      <trkpt lat="45.1811" lon="5.57814">
        <ele>1522.4</ele>
        <time>2007-05-21T06:54:21Z</time>
      </trkpt>
      <trkpt lat="45.18115" lon="5.5784">
        <ele>1525.5</ele>
        <time>2007-05-21T06:54:29Z</time>
      </trkpt>
      <trkpt lat="45.18122" lon="5.57866">
        <ele>1529.4</ele>
        <time>2007-05-21T06:54:37Z</time>
      </trkpt>
      <trkpt lat="45.18137" lon="5.57884">
        <ele>1531.9</ele>
        <time>2007-05-21T06:54:45Z</time>
      </trkpt>
      <trkpt lat="45.18146" lon="5.57858">
        <ele>1527.2</ele>
        <time>2007-05-21T06:54:54Z</time>
      </trkpt>
      <trkpt lat="45.18162" lon="5.5783">
        <ele>1521.7</ele>
        <time>2007-05-21T06:55:05Z</time>
      </trkpt>
      <trkpt lat="45.18196" lon="5.57778">
        <ele>1513.9</ele>
        <time>2007-05-21T06:55:25Z</time>
      </trkpt>
      <trkpt lat="45.18207" lon="5.57755">
        <ele>1510.3</ele>
        <time>2007-05-21T06:55:33Z</time>
      </trkpt>
      <trkpt lat="45.18228" lon="5.57759">
        <ele>1510.7</ele>
        <time>2007-05-21T06:55:43Z</time>
      </trkpt>
      <trkpt lat="45.18244" lon="5.5781">
        <ele>1519</ele>
        <time>2007-05-21T06:55:59Z</time>
      </trkpt>
      <trkpt lat="45.18256" lon="5.57843">
        <ele>1522.2</ele>
        <time>2007-05-21T06:56:10Z</time>
      </trkpt>
      <trkpt lat="45.18269" lon="5.57874">
        <ele>1521.9</ele>
        <time>2007-05-21T06:56:20Z</time>
      </trkpt>
      <trkpt lat="45.18312" lon="5.5797">
        <ele>1520.1</ele>
        <time>2007-05-21T06:56:52Z</time>
      </trkpt>
      <trkpt lat="45.18332" lon="5.58012">
        <ele>1519.4</ele>
        <time>2007-05-21T06:57:07Z</time>
      </trkpt>
      <trkpt lat="45.18361" lon="5.58037">
        <ele>1522.3</ele>
        <time>2007-05-21T06:57:21Z</time>
      </trkpt>
      <trkpt lat="45.18411" lon="5.58028">
        <ele>1519.2</ele>
        <time>2007-05-21T06:57:41Z</time>
      </trkpt>
      <trkpt lat="45.18452" lon="5.5801">
        <ele>1516.7</ele>
        <time>2007-05-21T06:57:58Z</time>
      </trkpt>
      <trkpt lat="45.18502" lon="5.58009">
        <ele>1519.5</ele>
        <time>2007-05-21T06:58:18Z</time>
      </trkpt>
      <trkpt lat="45.18579" lon="5.58006">
        <ele>1517.7</ele>
        <time>2007-05-21T06:58:50Z</time>
      </trkpt>
      <trkpt lat="45.18609" lon="5.58008">
        <ele>1511</ele>
        <time>2007-05-21T06:59:02Z</time>
      </trkpt>
      <trkpt lat="45.1863" lon="5.58026">
        <ele>1508.2</ele>
        <time>2007-05-21T06:59:12Z</time>
      </trkpt>
      <trkpt lat="45.18641" lon="5.58058">
        <ele>1509.6</ele>
        <time>2007-05-21T06:59:23Z</time>
      </trkpt>
      <trkpt lat="45.18645" lon="5.58102">
        <ele>1515.6</ele>
        <time>2007-05-21T06:59:35Z</time>
      </trkpt>
      <trkpt lat="45.18651" lon="5.58171">
        <ele>1526.6</ele>
        <time>2007-05-21T06:59:55Z</time>
      </trkpt>
      <trkpt lat="45.18665" lon="5.58267">
        <ele>1529.3</ele>
        <time>2007-05-21T07:00:23Z</time>
      </trkpt>
      <trkpt lat="45.1867" lon="5.58334">
        <ele>1532.3</ele>
        <time>2007-05-21T07:00:43Z</time>
      </trkpt>
      <trkpt lat="45.18694" lon="5.58357">
        <ele>1529.9</ele>
        <time>2007-05-21T07:00:54Z</time>
      </trkpt>
      <trkpt lat="45.18727" lon="5.58372">
        <ele>1526.1</ele>
        <time>2007-05-21T07:01:09Z</time>
      </trkpt>
      <trkpt lat="45.18759" lon="5.58393">
        <ele>1525.8</ele>
        <time>2007-05-21T07:01:23Z</time>
      </trkpt>
      <trkpt lat="45.18805" lon="5.58426">
        <ele>1528.6</ele>
        <time>2007-05-21T07:01:44Z</time>
      </trkpt>
      <trkpt lat="45.18862" lon="5.58431">
        <ele>1525.7</ele>
        <time>2007-05-21T07:02:08Z</time>
      </trkpt>
      <trkpt lat="45.18896" lon="5.58428">
        <ele>1523.7</ele>
        <time>2007-05-21T07:02:21Z</time>
      </trkpt>
      <trkpt lat="45.1893" lon="5.58431">
        <ele>1524.7</ele>
        <time>2007-05-21T07:02:35Z</time>
      </trkpt>
      <trkpt lat="45.18969" lon="5.58436">
        <ele>1529.2</ele>
        <time>2007-05-21T07:02:51Z</time>
      </trkpt>
      <trkpt lat="45.18986" lon="5.58451">
        <ele>1532</ele>
        <time>2007-05-21T07:02:59Z</time>
      </trkpt>
      <trkpt lat="45.19009" lon="5.58471">
        <ele>1534.3</ele>
        <time>2007-05-21T07:03:10Z</time>
      </trkpt>
      <trkpt lat="45.19052" lon="5.58533">
        <ele>1543.6</ele>
        <time>2007-05-21T07:03:35Z</time>
      </trkpt>
      <trkpt lat="45.19066" lon="5.58552">
        <ele>1546.7</ele>
        <time>2007-05-21T07:03:43Z</time>
      </trkpt>
      <trkpt lat="45.19085" lon="5.5858">
        <ele>1550.5</ele>
        <time>2007-05-21T07:03:54Z</time>
      </trkpt>
      <trkpt lat="45.191" lon="5.586">
        <ele>1553.5</ele>
        <time>2007-05-21T07:04:03Z</time>
      </trkpt>
      <trkpt lat="45.19113" lon="5.58622">
        <ele>1556.3</ele>
        <time>2007-05-21T07:04:11Z</time>
      </trkpt>
      <trkpt lat="45.19128" lon="5.58661">
        <ele>1560.4</ele>
        <time>2007-05-21T07:04:23Z</time>
      </trkpt>
      <trkpt lat="45.19158" lon="5.58717">
        <ele>1565.2</ele>
        <time>2007-05-21T07:04:43Z</time>
      </trkpt>
      <trkpt lat="45.19174" lon="5.58735">
        <ele>1565.4</ele>
        <time>2007-05-21T07:04:52Z</time>
      </trkpt>
      <trkpt lat="45.19192" lon="5.5876">
        <ele>1567.7</ele>
        <time>2007-05-21T07:05:02Z</time>
      </trkpt>
      <trkpt lat="45.1921" lon="5.58792">
        <ele>1571.9</ele>
        <time>2007-05-21T07:05:14Z</time>
      </trkpt>
      <trkpt lat="45.19241" lon="5.58814">
        <ele>1573.3</ele>
        <time>2007-05-21T07:05:28Z</time>
      </trkpt>
      <trkpt lat="45.19273" lon="5.58842">
        <ele>1575.8</ele>
        <time>2007-05-21T07:05:43Z</time>
      </trkpt>
      <trkpt lat="45.19318" lon="5.58893">
        <ele>1580.2</ele>
        <time>2007-05-21T07:06:07Z</time>
      </trkpt>
      <trkpt lat="45.19338" lon="5.58901">
        <ele>1581.6</ele>
        <time>2007-05-21T07:06:15Z</time>
      </trkpt>
      <trkpt lat="45.19369" lon="5.58885">
        <ele>1584.1</ele>
        <time>2007-05-21T07:06:29Z</time>
      </trkpt>
      <trkpt lat="45.19384" lon="5.58867">
        <ele>1583.6</ele>
        <time>2007-05-21T07:06:37Z</time>
      </trkpt>
      <trkpt lat="45.19399" lon="5.58849">
        <ele>1583</ele>
        <time>2007-05-21T07:06:45Z</time>
      </trkpt>
      <trkpt lat="45.19418" lon="5.58834">
        <ele>1583.2</ele>
        <time>2007-05-21T07:06:54Z</time>
      </trkpt>
      <trkpt lat="45.19466" lon="5.5884">
        <ele>1589.5</ele>
        <time>2007-05-21T07:07:13Z</time>
      </trkpt>
      <trkpt lat="45.19486" lon="5.58848">
        <ele>1593.3</ele>
        <time>2007-05-21T07:07:22Z</time>
      </trkpt>
      <trkpt lat="45.19508" lon="5.58858">
        <ele>1597.5</ele>
        <time>2007-05-21T07:07:31Z</time>
      </trkpt>
      <trkpt lat="45.1954" lon="5.58865">
        <ele>1600.6</ele>
        <time>2007-05-21T07:07:45Z</time>
      </trkpt>
      <trkpt lat="45.19561" lon="5.5887">
        <ele>1602.6</ele>
        <time>2007-05-21T07:07:53Z</time>
      </trkpt>
      <trkpt lat="45.19586" lon="5.5888">
        <ele>1605.4</ele>
        <time>2007-05-21T07:08:04Z</time>
      </trkpt>
      <trkpt lat="45.19631" lon="5.58902">
        <ele>1612</ele>
        <time>2007-05-21T07:08:23Z</time>
      </trkpt>
      <trkpt lat="45.19653" lon="5.58916">
        <ele>1615.9</ele>
        <time>2007-05-21T07:08:33Z</time>
      </trkpt>
      <trkpt lat="45.19691" lon="5.58941">
        <ele>1618.9</ele>
        <time>2007-05-21T07:08:50Z</time>
      </trkpt>
      <trkpt lat="45.19713" lon="5.5897">
        <ele>1622.1</ele>
        <time>2007-05-21T07:09:02Z</time>
      </trkpt>
      <trkpt lat="45.19731" lon="5.58997">
        <ele>1625.4</ele>
        <time>2007-05-21T07:09:13Z</time>
      </trkpt>
      <trkpt lat="45.19745" lon="5.59016">
        <ele>1627.4</ele>
        <time>2007-05-21T07:09:21Z</time>
      </trkpt>
      <trkpt lat="45.19769" lon="5.59058">
        <ele>1631.2</ele>
        <time>2007-05-21T07:09:36Z</time>
      </trkpt>
      <trkpt lat="45.19781" lon="5.59082">
        <ele>1633.2</ele>
        <time>2007-05-21T07:09:45Z</time>
      </trkpt>
      <trkpt lat="45.19788" lon="5.5911">
        <ele>1633.7</ele>
        <time>2007-05-21T07:09:54Z</time>
      </trkpt>
      <trkpt lat="45.1979" lon="5.59147">
        <ele>1634.9</ele>
        <time>2007-05-21T07:10:04Z</time>
      </trkpt>
      <trkpt lat="45.19792" lon="5.59177">
        <ele>1634.8</ele>
        <time>2007-05-21T07:10:13Z</time>
      </trkpt>
      <trkpt lat="45.19791" lon="5.59195">
        <ele>1633.7</ele>
        <time>2007-05-21T07:10:22Z</time>
      </trkpt>
      <trkpt lat="45.1973" lon="5.59184">
        <ele>1639.5</ele>
        <time>2007-05-21T07:10:46Z</time>
      </trkpt>
      <trkpt lat="45.19707" lon="5.59175">
        <ele>1644</ele>
        <time>2007-05-21T07:10:56Z</time>
      </trkpt>
      <trkpt lat="45.19688" lon="5.59166">
        <ele>1648.4</ele>
        <time>2007-05-21T07:11:04Z</time>
      </trkpt>
      <trkpt lat="45.19668" lon="5.59163">
        <ele>1651.5</ele>
        <time>2007-05-21T07:11:12Z</time>
      </trkpt>
      <trkpt lat="45.19645" lon="5.59165">
        <ele>1653.1</ele>
        <time>2007-05-21T07:11:21Z</time>
      </trkpt>
      <trkpt lat="45.1961" lon="5.59173">
        <ele>1654</ele>
        <time>2007-05-21T07:11:36Z</time>
      </trkpt>
      <trkpt lat="45.19555" lon="5.59188">
        <ele>1654.4</ele>
        <time>2007-05-21T07:11:58Z</time>
      </trkpt>
      <trkpt lat="45.19528" lon="5.59198">
        <ele>1655.4</ele>
        <time>2007-05-21T07:12:10Z</time>
      </trkpt>
      <trkpt lat="45.19488" lon="5.59212">
        <ele>1656.6</ele>
        <time>2007-05-21T07:12:26Z</time>
      </trkpt>
      <trkpt lat="45.1946" lon="5.59228">
        <ele>1654.9</ele>
        <time>2007-05-21T07:12:38Z</time>
      </trkpt>
      <trkpt lat="45.1941" lon="5.59244">
        <ele>1653.7</ele>
        <time>2007-05-21T07:12:59Z</time>
      </trkpt>
      <trkpt lat="45.19367" lon="5.59245">
        <ele>1648.6</ele>
        <time>2007-05-21T07:13:16Z</time>
      </trkpt>
      <trkpt lat="45.19301" lon="5.5923">
        <ele>1642.1</ele>
        <time>2007-05-21T07:13:43Z</time>
      </trkpt>
      <trkpt lat="45.1926" lon="5.59222">
        <ele>1640.3</ele>
        <time>2007-05-21T07:14:00Z</time>
      </trkpt>
      <trkpt lat="45.19236" lon="5.59215">
        <ele>1640.5</ele>
        <time>2007-05-21T07:14:09Z</time>
      </trkpt>
      <trkpt lat="45.19201" lon="5.59203">
        <ele>1644</ele>
        <time>2007-05-21T07:14:24Z</time>
      </trkpt>
      <trkpt lat="45.19178" lon="5.59196">
        <ele>1647.6</ele>
        <time>2007-05-21T07:14:33Z</time>
      </trkpt>
      <trkpt lat="45.1915" lon="5.59188">
        <ele>1652.8</ele>
        <time>2007-05-21T07:14:45Z</time>
      </trkpt>
      <trkpt lat="45.19095" lon="5.59167">
        <ele>1667.1</ele>
        <time>2007-05-21T07:15:08Z</time>
      </trkpt>
      <trkpt lat="45.19076" lon="5.5916">
        <ele>1669.6</ele>
        <time>2007-05-21T07:15:16Z</time>
      </trkpt>
      <trkpt lat="45.19059" lon="5.59149">
        <ele>1671.5</ele>
        <time>2007-05-21T07:15:23Z</time>
      </trkpt>
      <trkpt lat="45.19035" lon="5.5914">
        <ele>1674.8</ele>
        <time>2007-05-21T07:15:33Z</time>
      </trkpt>
      <trkpt lat="45.19012" lon="5.59138">
        <ele>1677.5</ele>
        <time>2007-05-21T07:15:42Z</time>
      </trkpt>
      <trkpt lat="45.18989" lon="5.59137">
        <ele>1679.9</ele>
        <time>2007-05-21T07:15:52Z</time>
      </trkpt>
      <trkpt lat="45.18924" lon="5.5914">
        <ele>1684.3</ele>
        <time>2007-05-21T07:16:18Z</time>
      </trkpt>
      <trkpt lat="45.18892" lon="5.59143">
        <ele>1686.1</ele>
        <time>2007-05-21T07:16:31Z</time>
      </trkpt>
      <trkpt lat="45.18872" lon="5.59134">
        <ele>1689.1</ele>
        <time>2007-05-21T07:16:39Z</time>
      </trkpt>
      <trkpt lat="45.18853" lon="5.5914">
        <ele>1689.4</ele>
        <time>2007-05-21T07:16:47Z</time>
      </trkpt>
      <trkpt lat="45.18834" lon="5.59143">
        <ele>1690.1</ele>
        <time>2007-05-21T07:16:55Z</time>
      </trkpt>
      <trkpt lat="45.18812" lon="5.59156">
        <ele>1691.7</ele>
        <time>2007-05-21T07:17:05Z</time>
      </trkpt>
      <trkpt lat="45.1878" lon="5.59191">
        <ele>1689.7</ele>
        <time>2007-05-21T07:17:24Z</time>
      </trkpt>
      <trkpt lat="45.18759" lon="5.59193">
        <ele>1695.1</ele>
        <time>2007-05-21T07:17:33Z</time>
      </trkpt>
      <trkpt lat="45.18741" lon="5.59211">
        <ele>1694.6</ele>
        <time>2007-05-21T07:17:41Z</time>
      </trkpt>
      <trkpt lat="45.18723" lon="5.59227">
        <ele>1693.3</ele>
        <time>2007-05-21T07:17:50Z</time>
      </trkpt>
      <trkpt lat="45.18709" lon="5.59247">
        <ele>1690.6</ele>
        <time>2007-05-21T07:17:58Z</time>
      </trkpt>
      <trkpt lat="45.18678" lon="5.59258">
        <ele>1690.4</ele>
        <time>2007-05-21T07:18:12Z</time>
      </trkpt>
      <trkpt lat="45.18638" lon="5.59233">
        <ele>1691.7</ele>
        <time>2007-05-21T07:18:30Z</time>
      </trkpt>
      <trkpt lat="45.18635" lon="5.59225">
        <ele>1693.3</ele>
        <time>2007-05-21T07:18:46Z</time>
      </trkpt>
      <trkpt lat="45.18619" lon="5.59199">
        <ele>1697.8</ele>
        <time>2007-05-21T07:18:55Z</time>
      </trkpt>
      <trkpt lat="45.18602" lon="5.59172">
        <ele>1704.5</ele>
        <time>2007-05-21T07:19:06Z</time>
      </trkpt>
      <trkpt lat="45.18578" lon="5.59151">
        <ele>1703.4</ele>
        <time>2007-05-21T07:19:17Z</time>
      </trkpt>
      <trkpt lat="45.18568" lon="5.59124">
        <ele>1703.1</ele>
        <time>2007-05-21T07:19:26Z</time>
      </trkpt>
      <trkpt lat="45.18534" lon="5.59086">
        <ele>1698.8</ele>
        <time>2007-05-21T07:19:43Z</time>
      </trkpt>
      <trkpt lat="45.1851" lon="5.5906">
        <ele>1695.1</ele>
        <time>2007-05-21T07:19:56Z</time>
      </trkpt>
      <trkpt lat="45.18491" lon="5.5904">
        <ele>1691.3</ele>
        <time>2007-05-21T07:20:05Z</time>
      </trkpt>
      <trkpt lat="45.1848" lon="5.59005">
        <ele>1693.1</ele>
        <time>2007-05-21T07:20:16Z</time>
      </trkpt>
      <trkpt lat="45.18455" lon="5.5897">
        <ele>1687.1</ele>
        <time>2007-05-21T07:20:30Z</time>
      </trkpt>
      <trkpt lat="45.18432" lon="5.58946">
        <ele>1683.8</ele>
        <time>2007-05-21T07:20:42Z</time>
      </trkpt>
      <trkpt lat="45.1838" lon="5.58893">
        <ele>1675.1</ele>
        <time>2007-05-21T07:21:08Z</time>
      </trkpt>
      <trkpt lat="45.18342" lon="5.58848">
        <ele>1673.9</ele>
        <time>2007-05-21T07:21:28Z</time>
      </trkpt>
      <trkpt lat="45.18294" lon="5.58814">
        <ele>1664.7</ele>
        <time>2007-05-21T07:21:50Z</time>
      </trkpt>
      <trkpt lat="45.18267" lon="5.58801">
        <ele>1659.3</ele>
        <time>2007-05-21T07:22:01Z</time>
      </trkpt>
      <trkpt lat="45.18251" lon="5.58783">
        <ele>1659.5</ele>
        <time>2007-05-21T07:22:09Z</time>
      </trkpt>
      <trkpt lat="45.1821" lon="5.58758">
        <ele>1657.7</ele>
        <time>2007-05-21T07:22:28Z</time>
      </trkpt>
      <trkpt lat="45.1815" lon="5.58717">
        <ele>1654.1</ele>
        <time>2007-05-21T07:22:54Z</time>
      </trkpt>
      <trkpt lat="45.18109" lon="5.58691">
        <ele>1657.4</ele>
        <time>2007-05-21T07:23:12Z</time>
      </trkpt>
      <trkpt lat="45.1808" lon="5.5867">
        <ele>1664</ele>
        <time>2007-05-21T07:23:25Z</time>
      </trkpt>
      <trkpt lat="45.18037" lon="5.58641">
        <ele>1657.4</ele>
        <time>2007-05-21T07:23:44Z</time>
      </trkpt>
      <trkpt lat="45.18012" lon="5.58626">
        <ele>1654.3</ele>
        <time>2007-05-21T07:23:55Z</time>
      </trkpt>
      <trkpt lat="45.17985" lon="5.58607">
        <ele>1653.7</ele>
        <time>2007-05-21T07:24:07Z</time>
      </trkpt>
      <trkpt lat="45.17933" lon="5.5858">
        <ele>1658.6</ele>
        <time>2007-05-21T07:24:31Z</time>
      </trkpt>
      <trkpt lat="45.17896" lon="5.58578">
        <ele>1661.6</ele>
        <time>2007-05-21T07:24:46Z</time>
      </trkpt>
      <trkpt lat="45.17868" lon="5.58583">
        <ele>1664.9</ele>
        <time>2007-05-21T07:24:58Z</time>
      </trkpt>
      <trkpt lat="45.17848" lon="5.58605">
        <ele>1660.5</ele>
        <time>2007-05-21T07:25:09Z</time>
      </trkpt>
      <trkpt lat="45.1783" lon="5.58614">
        <ele>1660.2</ele>
        <time>2007-05-21T07:25:17Z</time>
      </trkpt>
      <trkpt lat="45.17795" lon="5.58626">
        <ele>1660.6</ele>
        <time>2007-05-21T07:25:31Z</time>
      </trkpt>
      <trkpt lat="45.17741" lon="5.5864">
        <ele>1664.2</ele>
        <time>2007-05-21T07:25:54Z</time>
      </trkpt>
      <trkpt lat="45.17721" lon="5.58646">
        <ele>1665.4</ele>
        <time>2007-05-21T07:26:04Z</time>
      </trkpt>
      <trkpt lat="45.1769" lon="5.5865">
        <ele>1668.3</ele>
        <time>2007-05-21T07:26:17Z</time>
      </trkpt>
      <trkpt lat="45.17661" lon="5.58638">
        <ele>1672.8</ele>
        <time>2007-05-21T07:26:29Z</time>
      </trkpt>
      <trkpt lat="45.1764" lon="5.58629">
        <ele>1673.6</ele>
        <time>2007-05-21T07:26:38Z</time>
      </trkpt>
      <trkpt lat="45.17618" lon="5.58619">
        <ele>1675.3</ele>
        <time>2007-05-21T07:26:47Z</time>
      </trkpt>
      <trkpt lat="45.17565" lon="5.58584">
        <ele>1682.5</ele>
        <time>2007-05-21T07:27:11Z</time>
      </trkpt>
      <trkpt lat="45.17543" lon="5.58584">
        <ele>1678.5</ele>
        <time>2007-05-21T07:27:20Z</time>
      </trkpt>
      <trkpt lat="45.17525" lon="5.58563">
        <ele>1677.8</ele>
        <time>2007-05-21T07:27:29Z</time>
      </trkpt>
      <trkpt lat="45.17498" lon="5.58552">
        <ele>1675.9</ele>
        <time>2007-05-21T07:27:41Z</time>
      </trkpt>
      <trkpt lat="45.17459" lon="5.58545">
        <ele>1670.2</ele>
        <time>2007-05-21T07:27:57Z</time>
      </trkpt>
      <trkpt lat="45.17436" lon="5.58533">
        <ele>1669.1</ele>
        <time>2007-05-21T07:28:07Z</time>
      </trkpt>
      <trkpt lat="45.17389" lon="5.58498">
        <ele>1664.9</ele>
        <time>2007-05-21T07:28:28Z</time>
      </trkpt>
      <trkpt lat="45.1737" lon="5.58482">
        <ele>1660.3</ele>
        <time>2007-05-21T07:28:37Z</time>
      </trkpt>
      <trkpt lat="45.17345" lon="5.58471">
        <ele>1653.9</ele>
        <time>2007-05-21T07:28:48Z</time>
      </trkpt>
      <trkpt lat="45.17323" lon="5.58463">
        <ele>1649.4</ele>
        <time>2007-05-21T07:28:57Z</time>
      </trkpt>
      <trkpt lat="45.17295" lon="5.58435">
        <ele>1648.9</ele>
        <time>2007-05-21T07:29:11Z</time>
      </trkpt>
      <trkpt lat="45.17277" lon="5.5842">
        <ele>1648.3</ele>
        <time>2007-05-21T07:29:19Z</time>
      </trkpt>
      <trkpt lat="45.17222" lon="5.58404">
        <ele>1636.9</ele>
        <time>2007-05-21T07:29:42Z</time>
      </trkpt>
      <trkpt lat="45.17203" lon="5.58394">
        <ele>1632.7</ele>
        <time>2007-05-21T07:29:50Z</time>
      </trkpt>
      <trkpt lat="45.17176" lon="5.58396">
        <ele>1627</ele>
        <time>2007-05-21T07:30:01Z</time>
      </trkpt>
      <trkpt lat="45.17153" lon="5.58393">
        <ele>1624.6</ele>
        <time>2007-05-21T07:30:10Z</time>
      </trkpt>
      <trkpt lat="45.1712" lon="5.58379">
        <ele>1625.4</ele>
        <time>2007-05-21T07:30:24Z</time>
      </trkpt>
      <trkpt lat="45.17104" lon="5.58373">
        <ele>1626.4</ele>
        <time>2007-05-21T07:30:35Z</time>
      </trkpt>
      <trkpt lat="45.17138" lon="5.58407">
        <ele>1623.3</ele>
        <time>2007-05-21T07:30:51Z</time>
      </trkpt>
      <trkpt lat="45.17158" lon="5.5843">
        <ele>1620.3</ele>
        <time>2007-05-21T07:31:02Z</time>
      </trkpt>
      <trkpt lat="45.17181" lon="5.5845">
        <ele>1618.6</ele>
        <time>2007-05-21T07:31:13Z</time>
      </trkpt>
      <trkpt lat="45.17206" lon="5.58461">
        <ele>1621.2</ele>
        <time>2007-05-21T07:31:24Z</time>
      </trkpt>
      <trkpt lat="45.17235" lon="5.58482">
        <ele>1622.2</ele>
        <time>2007-05-21T07:31:37Z</time>
      </trkpt>
      <trkpt lat="45.17262" lon="5.5852">
        <ele>1618.8</ele>
        <time>2007-05-21T07:31:52Z</time>
      </trkpt>
      <trkpt lat="45.17287" lon="5.58588">
        <ele>1607</ele>
        <time>2007-05-21T07:32:14Z</time>
      </trkpt>
      <trkpt lat="45.17337" lon="5.58632">
        <ele>1608.2</ele>
        <time>2007-05-21T07:32:38Z</time>
      </trkpt>
      <trkpt lat="45.17358" lon="5.5865">
        <ele>1608.8</ele>
        <time>2007-05-21T07:32:48Z</time>
      </trkpt>
      <trkpt lat="45.17387" lon="5.58667">
        <ele>1610.2</ele>
        <time>2007-05-21T07:33:01Z</time>
      </trkpt>
      <trkpt lat="45.17406" lon="5.58679">
        <ele>1611.7</ele>
        <time>2007-05-21T07:33:10Z</time>
      </trkpt>
      <trkpt lat="45.17424" lon="5.58692">
        <ele>1611.9</ele>
        <time>2007-05-21T07:33:18Z</time>
      </trkpt>
      <trkpt lat="45.17462" lon="5.58723">
        <ele>1609.7</ele>
        <time>2007-05-21T07:33:36Z</time>
      </trkpt>
      <trkpt lat="45.17488" lon="5.5874">
        <ele>1607.4</ele>
        <time>2007-05-21T07:33:48Z</time>
      </trkpt>
      <trkpt lat="45.17508" lon="5.58758">
        <ele>1604.8</ele>
        <time>2007-05-21T07:33:58Z</time>
      </trkpt>
      <trkpt lat="45.17512" lon="5.58789">
        <ele>1600.1</ele>
        <time>2007-05-21T07:34:07Z</time>
      </trkpt>
      <trkpt lat="45.17538" lon="5.58821">
        <ele>1595.9</ele>
        <time>2007-05-21T07:34:21Z</time>
      </trkpt>
      <trkpt lat="45.17558" lon="5.58851">
        <ele>1592.7</ele>
        <time>2007-05-21T07:34:33Z</time>
      </trkpt>
      <trkpt lat="45.17588" lon="5.58909">
        <ele>1588.9</ele>
        <time>2007-05-21T07:34:54Z</time>
      </trkpt>
      <trkpt lat="45.17614" lon="5.58929">
        <ele>1588.8</ele>
        <time>2007-05-21T07:35:06Z</time>
      </trkpt>
      <trkpt lat="45.17647" lon="5.58941">
        <ele>1589.1</ele>
        <time>2007-05-21T07:35:20Z</time>
      </trkpt>
      <trkpt lat="45.17679" lon="5.58958">
        <ele>1587.4</ele>
        <time>2007-05-21T07:35:34Z</time>
      </trkpt>
      <trkpt lat="45.17718" lon="5.58981">
        <ele>1582.9</ele>
        <time>2007-05-21T07:35:51Z</time>
      </trkpt>
      <trkpt lat="45.17758" lon="5.58994">
        <ele>1579.1</ele>
        <time>2007-05-21T07:36:07Z</time>
      </trkpt>
      <trkpt lat="45.17808" lon="5.58992">
        <ele>1575.8</ele>
        <time>2007-05-21T07:36:28Z</time>
      </trkpt>
      <trkpt lat="45.17854" lon="5.58986">
        <ele>1574.1</ele>
        <time>2007-05-21T07:36:46Z</time>
      </trkpt>
      <trkpt lat="45.1789" lon="5.58986">
        <ele>1573</ele>
        <time>2007-05-21T07:37:01Z</time>
      </trkpt>
      <trkpt lat="45.17922" lon="5.5901">
        <ele>1569.8</ele>
        <time>2007-05-21T07:37:16Z</time>
      </trkpt>
      <trkpt lat="45.17944" lon="5.59017">
        <ele>1566.5</ele>
        <time>2007-05-21T07:37:25Z</time>
      </trkpt>
      <trkpt lat="45.17989" lon="5.59026">
        <ele>1559.5</ele>
        <time>2007-05-21T07:37:43Z</time>
      </trkpt>
      <trkpt lat="45.18023" lon="5.5906">
        <ele>1554.7</ele>
        <time>2007-05-21T07:38:00Z</time>
      </trkpt>
      <trkpt lat="45.18049" lon="5.59072">
        <ele>1555.9</ele>
        <time>2007-05-21T07:38:11Z</time>
      </trkpt>
      <trkpt lat="45.18067" lon="5.59087">
        <ele>1556.8</ele>
        <time>2007-05-21T07:38:20Z</time>
      </trkpt>
      <trkpt lat="45.18087" lon="5.59106">
        <ele>1557.9</ele>
        <time>2007-05-21T07:38:30Z</time>
      </trkpt>
      <trkpt lat="45.18109" lon="5.59128">
        <ele>1559.4</ele>
        <time>2007-05-21T07:38:41Z</time>
      </trkpt>
      <trkpt lat="45.18132" lon="5.59136">
        <ele>1561.9</ele>
        <time>2007-05-21T07:38:50Z</time>
      </trkpt>
      <trkpt lat="45.18203" lon="5.59173">
        <ele>1565.1</ele>
        <time>2007-05-21T07:39:21Z</time>
      </trkpt>
      <trkpt lat="45.18271" lon="5.5923">
        <ele>1561.6</ele>
        <time>2007-05-21T07:39:53Z</time>
      </trkpt>
      <trkpt lat="45.18288" lon="5.59249">
        <ele>1561.1</ele>
        <time>2007-05-21T07:40:02Z</time>
      </trkpt>
      <trkpt lat="45.18302" lon="5.59275">
        <ele>1563.3</ele>
        <time>2007-05-21T07:40:11Z</time>
      </trkpt>
      <trkpt lat="45.18331" lon="5.59287">
        <ele>1567.2</ele>
        <time>2007-05-21T07:40:24Z</time>
      </trkpt>
      <trkpt lat="45.18365" lon="5.59291">
        <ele>1566.7</ele>
        <time>2007-05-21T07:40:38Z</time>
      </trkpt>
      <trkpt lat="45.18409" lon="5.59355">
        <ele>1548.2</ele>
        <time>2007-05-21T07:41:03Z</time>
      </trkpt>
      <trkpt lat="45.18432" lon="5.5939">
        <ele>1552.7</ele>
        <time>2007-05-21T07:41:17Z</time>
      </trkpt>
      <trkpt lat="45.18451" lon="5.59419">
        <ele>1557.3</ele>
        <time>2007-05-21T07:41:28Z</time>
      </trkpt>
      <trkpt lat="45.18476" lon="5.59454">
        <ele>1562.1</ele>
        <time>2007-05-21T07:41:42Z</time>
      </trkpt>
      <trkpt lat="45.18523" lon="5.59494">
        <ele>1566.4</ele>
        <time>2007-05-21T07:42:05Z</time>
      </trkpt>
      <trkpt lat="45.18543" lon="5.59509">
        <ele>1564</ele>
        <time>2007-05-21T07:42:14Z</time>
      </trkpt>
      <trkpt lat="45.18626" lon="5.59528">
        <ele>1569</ele>
        <time>2007-05-21T07:42:48Z</time>
      </trkpt>
      <trkpt lat="45.18688" lon="5.59533">
        <ele>1574.8</ele>
        <time>2007-05-21T07:43:13Z</time>
      </trkpt>
      <trkpt lat="45.18715" lon="5.59538">
        <ele>1573.9</ele>
        <time>2007-05-21T07:43:24Z</time>
      </trkpt>
      <trkpt lat="45.18759" lon="5.59541">
        <ele>1573.8</ele>
        <time>2007-05-21T07:43:42Z</time>
      </trkpt>
      <trkpt lat="45.18802" lon="5.59532">
        <ele>1577.8</ele>
        <time>2007-05-21T07:43:59Z</time>
      </trkpt>
      <trkpt lat="45.18825" lon="5.59537">
        <ele>1579.6</ele>
        <time>2007-05-21T07:44:09Z</time>
      </trkpt>
      <trkpt lat="45.18847" lon="5.59489">
        <ele>1585.1</ele>
        <time>2007-05-21T07:44:30Z</time>
      </trkpt>
      <trkpt lat="45.18859" lon="5.59462">
        <ele>1588.7</ele>
        <time>2007-05-21T07:44:40Z</time>
      </trkpt>
      <trkpt lat="45.18898" lon="5.59449">
        <ele>1591.6</ele>
        <time>2007-05-21T07:44:56Z</time>
      </trkpt>
      <trkpt lat="45.18935" lon="5.59438">
        <ele>1593.8</ele>
        <time>2007-05-21T07:45:12Z</time>
      </trkpt>
      <trkpt lat="45.18958" lon="5.59423">
        <ele>1595.9</ele>
        <time>2007-05-21T07:45:22Z</time>
      </trkpt>
      <trkpt lat="45.1898" lon="5.59404">
        <ele>1598.3</ele>
        <time>2007-05-21T07:45:32Z</time>
      </trkpt>
      <trkpt lat="45.19033" lon="5.59384">
        <ele>1599.1</ele>
        <time>2007-05-21T07:45:55Z</time>
      </trkpt>
      <trkpt lat="45.19081" lon="5.59388">
        <ele>1596.6</ele>
        <time>2007-05-21T07:46:15Z</time>
      </trkpt>
      <trkpt lat="45.19108" lon="5.5939">
        <ele>1598</ele>
        <time>2007-05-21T07:46:26Z</time>
      </trkpt>
      <trkpt lat="45.19139" lon="5.59383">
        <ele>1601.7</ele>
        <time>2007-05-21T07:46:38Z</time>
      </trkpt>
      <trkpt lat="45.19177" lon="5.5938">
        <ele>1605.6</ele>
        <time>2007-05-21T07:46:54Z</time>
      </trkpt>
      <trkpt lat="45.19213" lon="5.59377">
        <ele>1609.9</ele>
        <time>2007-05-21T07:47:09Z</time>
      </trkpt>
      <trkpt lat="45.19274" lon="5.59373">
        <ele>1616</ele>
        <time>2007-05-21T07:47:33Z</time>
      </trkpt>
      <trkpt lat="45.19318" lon="5.59375">
        <ele>1618.9</ele>
        <time>2007-05-21T07:47:51Z</time>
      </trkpt>
      <trkpt lat="45.19344" lon="5.59379">
        <ele>1619.8</ele>
        <time>2007-05-21T07:48:02Z</time>
      </trkpt>
      <trkpt lat="45.19375" lon="5.5938">
        <ele>1620.5</ele>
        <time>2007-05-21T07:48:14Z</time>
      </trkpt>
      <trkpt lat="45.19398" lon="5.59382">
        <ele>1620.8</ele>
        <time>2007-05-21T07:48:24Z</time>
      </trkpt>
      <trkpt lat="45.1943" lon="5.59379">
        <ele>1622</ele>
        <time>2007-05-21T07:48:36Z</time>
      </trkpt>
      <trkpt lat="45.19502" lon="5.59378">
        <ele>1621.6</ele>
        <time>2007-05-21T07:49:06Z</time>
      </trkpt>
      <trkpt lat="45.19531" lon="5.59366">
        <ele>1620.7</ele>
        <time>2007-05-21T07:49:18Z</time>
      </trkpt>
      <trkpt lat="45.1956" lon="5.59339">
        <ele>1620.6</ele>
        <time>2007-05-21T07:49:32Z</time>
      </trkpt>
      <trkpt lat="45.19595" lon="5.59328">
        <ele>1620.7</ele>
        <time>2007-05-21T07:49:47Z</time>
      </trkpt>
      <trkpt lat="45.19627" lon="5.59319">
        <ele>1623.5</ele>
        <time>2007-05-21T07:50:00Z</time>
      </trkpt>
      <trkpt lat="45.19658" lon="5.59308">
        <ele>1625.9</ele>
        <time>2007-05-21T07:50:13Z</time>
      </trkpt>
      <trkpt lat="45.19702" lon="5.59322">
        <ele>1624.7</ele>
        <time>2007-05-21T07:50:31Z</time>
      </trkpt>
      <trkpt lat="45.19721" lon="5.5932">
        <ele>1625.1</ele>
        <time>2007-05-21T07:50:39Z</time>
      </trkpt>
      <trkpt lat="45.19754" lon="5.59302">
        <ele>1626.8</ele>
        <time>2007-05-21T07:50:53Z</time>
      </trkpt>
      <trkpt lat="45.19768" lon="5.59279">
        <ele>1628.2</ele>
        <time>2007-05-21T07:51:02Z</time>
      </trkpt>
      <trkpt lat="45.19788" lon="5.59251">
        <ele>1630.1</ele>
        <time>2007-05-21T07:51:13Z</time>
      </trkpt>
      <trkpt lat="45.19813" lon="5.59236">
        <ele>1629.9</ele>
        <time>2007-05-21T07:51:24Z</time>
      </trkpt>
      <trkpt lat="45.19837" lon="5.59211">
        <ele>1630.3</ele>
        <time>2007-05-21T07:51:43Z</time>
      </trkpt>
      <trkpt lat="45.19849" lon="5.59189">
        <ele>1631.3</ele>
        <time>2007-05-21T07:51:51Z</time>
      </trkpt>
      <trkpt lat="45.19868" lon="5.5918">
        <ele>1631.4</ele>
        <time>2007-05-21T07:52:00Z</time>
      </trkpt>
      <trkpt lat="45.19894" lon="5.59179">
        <ele>1630.9</ele>
        <time>2007-05-21T07:52:10Z</time>
      </trkpt>
      <trkpt lat="45.19931" lon="5.59188">
        <ele>1630.2</ele>
        <time>2007-05-21T07:52:25Z</time>
      </trkpt>
      <trkpt lat="45.19993" lon="5.59191">
        <ele>1631</ele>
        <time>2007-05-21T07:52:50Z</time>
      </trkpt>
      <trkpt lat="45.20068" lon="5.59216">
        <ele>1630.6</ele>
        <time>2007-05-21T07:53:21Z</time>
      </trkpt>
      <trkpt lat="45.20126" lon="5.59222">
        <ele>1633.1</ele>
        <time>2007-05-21T07:53:45Z</time>
      </trkpt>
      <trkpt lat="45.20152" lon="5.59229">
        <ele>1634.1</ele>
        <time>2007-05-21T07:53:55Z</time>
      </trkpt>
      <trkpt lat="45.20176" lon="5.59235">
        <ele>1634.5</ele>
        <time>2007-05-21T07:54:05Z</time>
      </trkpt>
      <trkpt lat="45.20233" lon="5.59252">
        <ele>1633.8</ele>
        <time>2007-05-21T07:54:29Z</time>
      </trkpt>
      <trkpt lat="45.20268" lon="5.59266">
        <ele>1631.8</ele>
        <time>2007-05-21T07:54:44Z</time>
      </trkpt>
      <trkpt lat="45.20336" lon="5.59286">
        <ele>1628.2</ele>
        <time>2007-05-21T07:55:12Z</time>
      </trkpt>
      <trkpt lat="45.20359" lon="5.59296">
        <ele>1627.3</ele>
        <time>2007-05-21T07:55:21Z</time>
      </trkpt>
      <trkpt lat="45.20395" lon="5.59308">
        <ele>1626.3</ele>
        <time>2007-05-21T07:55:36Z</time>
      </trkpt>
      <trkpt lat="45.20443" lon="5.5931">
        <ele>1625.9</ele>
        <time>2007-05-21T07:55:56Z</time>
      </trkpt>
      <trkpt lat="45.20475" lon="5.59321">
        <ele>1625.5</ele>
        <time>2007-05-21T07:56:09Z</time>
      </trkpt>
      <trkpt lat="45.205" lon="5.59298">
        <ele>1626.7</ele>
        <time>2007-05-21T07:56:21Z</time>
      </trkpt>
      <trkpt lat="45.20562" lon="5.59251">
        <ele>1626.7</ele>
        <time>2007-05-21T07:56:50Z</time>
      </trkpt>
      <trkpt lat="45.20587" lon="5.59234">
        <ele>1626</ele>
        <time>2007-05-21T07:57:01Z</time>
      </trkpt>
      <trkpt lat="45.20611" lon="5.5922">
        <ele>1624.8</ele>
        <time>2007-05-21T07:57:12Z</time>
      </trkpt>
      <trkpt lat="45.20653" lon="5.59222">
        <ele>1622.4</ele>
        <time>2007-05-21T07:57:28Z</time>
      </trkpt>
      <trkpt lat="45.207" lon="5.5921">
        <ele>1621.5</ele>
        <time>2007-05-21T07:57:49Z</time>
      </trkpt>
      <trkpt lat="45.20713" lon="5.59178">
        <ele>1622.6</ele>
        <time>2007-05-21T07:57:59Z</time>
      </trkpt>
      <trkpt lat="45.20762" lon="5.59143">
        <ele>1623.4</ele>
        <time>2007-05-21T07:58:22Z</time>
      </trkpt>
      <trkpt lat="45.2079" lon="5.59128">
        <ele>1623.2</ele>
        <time>2007-05-21T07:58:34Z</time>
      </trkpt>
      <trkpt lat="45.20821" lon="5.59112">
        <ele>1622.9</ele>
        <time>2007-05-21T07:58:48Z</time>
      </trkpt>
      <trkpt lat="45.20845" lon="5.5911">
        <ele>1622.9</ele>
        <time>2007-05-21T07:58:58Z</time>
      </trkpt>
      <trkpt lat="45.20868" lon="5.59117">
        <ele>1623.1</ele>
        <time>2007-05-21T07:59:07Z</time>
      </trkpt>
      <trkpt lat="45.20891" lon="5.59141">
        <ele>1622.7</ele>
        <time>2007-05-21T07:59:19Z</time>
      </trkpt>
      <trkpt lat="45.20936" lon="5.59173">
        <ele>1622</ele>
        <time>2007-05-21T07:59:40Z</time>
      </trkpt>
      <trkpt lat="45.20962" lon="5.59171">
        <ele>1622.8</ele>
        <time>2007-05-21T07:59:50Z</time>
      </trkpt>
      <trkpt lat="45.20987" lon="5.59158">
        <ele>1624</ele>
        <time>2007-05-21T08:00:02Z</time>
      </trkpt>
      <trkpt lat="45.2099" lon="5.59118">
        <ele>1625.5</ele>
        <time>2007-05-21T08:00:13Z</time>
      </trkpt>
      <trkpt lat="45.21002" lon="5.59083">
        <ele>1627</ele>
        <time>2007-05-21T08:00:24Z</time>
      </trkpt>
      <trkpt lat="45.21018" lon="5.59061">
        <ele>1625.2</ele>
        <time>2007-05-21T08:00:34Z</time>
      </trkpt>
      <trkpt lat="45.21062" lon="5.59024">
        <ele>1626.4</ele>
        <time>2007-05-21T08:00:55Z</time>
      </trkpt>
      <trkpt lat="45.21073" lon="5.58995">
        <ele>1627.4</ele>
        <time>2007-05-21T08:01:05Z</time>
      </trkpt>
      <trkpt lat="45.21088" lon="5.58962">
        <ele>1629.6</ele>
        <time>2007-05-21T08:01:16Z</time>
      </trkpt>
      <trkpt lat="45.21111" lon="5.58957">
        <ele>1632.6</ele>
        <time>2007-05-21T08:01:27Z</time>
      </trkpt>
      <trkpt lat="45.21124" lon="5.58992">
        <ele>1634</ele>
        <time>2007-05-21T08:01:39Z</time>
      </trkpt>
      <trkpt lat="45.21147" lon="5.59012">
        <ele>1635.9</ele>
        <time>2007-05-21T08:01:50Z</time>
      </trkpt>
      <trkpt lat="45.21215" lon="5.59027">
        <ele>1636.6</ele>
        <time>2007-05-21T08:02:18Z</time>
      </trkpt>
      <trkpt lat="45.21239" lon="5.59029">
        <ele>1636.4</ele>
        <time>2007-05-21T08:02:28Z</time>
      </trkpt>
      <trkpt lat="45.21258" lon="5.59014">
        <ele>1636.2</ele>
        <time>2007-05-21T08:02:37Z</time>
      </trkpt>
      <trkpt lat="45.21286" lon="5.58999">
        <ele>1634.9</ele>
        <time>2007-05-21T08:02:49Z</time>
      </trkpt>
      <trkpt lat="45.21312" lon="5.58991">
        <ele>1633.6</ele>
        <time>2007-05-21T08:03:00Z</time>
      </trkpt>
      <trkpt lat="45.21337" lon="5.59007">
        <ele>1631.7</ele>
        <time>2007-05-21T08:03:11Z</time>
      </trkpt>
      <trkpt lat="45.21395" lon="5.59058">
        <ele>1628.2</ele>
        <time>2007-05-21T08:03:39Z</time>
      </trkpt>
      <trkpt lat="45.21441" lon="5.59089">
        <ele>1627</ele>
        <time>2007-05-21T08:04:00Z</time>
      </trkpt>
      <trkpt lat="45.2146" lon="5.59121">
        <ele>1626.3</ele>
        <time>2007-05-21T08:04:12Z</time>
      </trkpt>
      <trkpt lat="45.21488" lon="5.59154">
        <ele>1623.6</ele>
        <time>2007-05-21T08:04:26Z</time>
      </trkpt>
      <trkpt lat="45.21515" lon="5.59144">
        <ele>1621.8</ele>
        <time>2007-05-21T08:04:39Z</time>
      </trkpt>
      <trkpt lat="45.21544" lon="5.59152">
        <ele>1618.1</ele>
        <time>2007-05-21T08:04:51Z</time>
      </trkpt>
      <trkpt lat="45.21591" lon="5.59176">
        <ele>1612.8</ele>
        <time>2007-05-21T08:05:11Z</time>
      </trkpt>
      <trkpt lat="45.21612" lon="5.59196">
        <ele>1610.8</ele>
        <time>2007-05-21T08:05:22Z</time>
      </trkpt>
      <trkpt lat="45.2163" lon="5.5922">
        <ele>1608.4</ele>
        <time>2007-05-21T08:05:32Z</time>
      </trkpt>
      <trkpt lat="45.21647" lon="5.59255">
        <ele>1605</ele>
        <time>2007-05-21T08:05:44Z</time>
      </trkpt>
      <trkpt lat="45.21661" lon="5.59294">
        <ele>1602</ele>
        <time>2007-05-21T08:05:57Z</time>
      </trkpt>
      <trkpt lat="45.21661" lon="5.59334">
        <ele>1602.4</ele>
        <time>2007-05-21T08:06:08Z</time>
      </trkpt>
      <trkpt lat="45.21719" lon="5.59422">
        <ele>1590.6</ele>
        <time>2007-05-21T08:06:47Z</time>
      </trkpt>
      <trkpt lat="45.21739" lon="5.59398">
        <ele>1590</ele>
        <time>2007-05-21T08:06:59Z</time>
      </trkpt>
      <trkpt lat="45.21752" lon="5.59375">
        <ele>1590.2</ele>
        <time>2007-05-21T08:07:07Z</time>
      </trkpt>
      <trkpt lat="45.21768" lon="5.59345">
        <ele>1593.4</ele>
        <time>2007-05-21T08:07:18Z</time>
      </trkpt>
      <trkpt lat="45.21782" lon="5.59305">
        <ele>1595.5</ele>
        <time>2007-05-21T08:07:31Z</time>
      </trkpt>
      <trkpt lat="45.21799" lon="5.5928">
        <ele>1596.6</ele>
        <time>2007-05-21T08:07:42Z</time>
      </trkpt>
      <trkpt lat="45.21844" lon="5.59272">
        <ele>1599.2</ele>
        <time>2007-05-21T08:08:01Z</time>
      </trkpt>
      <trkpt lat="45.21874" lon="5.59264">
        <ele>1599</ele>
        <time>2007-05-21T08:08:13Z</time>
      </trkpt>
      <trkpt lat="45.21901" lon="5.59267">
        <ele>1599.5</ele>
        <time>2007-05-21T08:08:24Z</time>
      </trkpt>
      <trkpt lat="45.21931" lon="5.59253">
        <ele>1599.5</ele>
        <time>2007-05-21T08:08:37Z</time>
      </trkpt>
      <trkpt lat="45.21957" lon="5.59256">
        <ele>1602.1</ele>
        <time>2007-05-21T08:08:47Z</time>
      </trkpt>
      <trkpt lat="45.21981" lon="5.59253">
        <ele>1603.8</ele>
        <time>2007-05-21T08:08:57Z</time>
      </trkpt>
      <trkpt lat="45.22044" lon="5.5923">
        <ele>1604.4</ele>
        <time>2007-05-21T08:09:24Z</time>
      </trkpt>
      <trkpt lat="45.22067" lon="5.59236">
        <ele>1607.1</ele>
        <time>2007-05-21T08:09:33Z</time>
      </trkpt>
      <trkpt lat="45.22096" lon="5.59236">
        <ele>1608.1</ele>
        <time>2007-05-21T08:09:45Z</time>
      </trkpt>
      <trkpt lat="45.22122" lon="5.59228">
        <ele>1606.7</ele>
        <time>2007-05-21T08:09:56Z</time>
      </trkpt>
      <trkpt lat="45.2215" lon="5.59219">
        <ele>1605.7</ele>
        <time>2007-05-21T08:10:07Z</time>
      </trkpt>
      <trkpt lat="45.22177" lon="5.59229">
        <ele>1607.6</ele>
        <time>2007-05-21T08:10:20Z</time>
      </trkpt>
      <trkpt lat="45.22233" lon="5.59296">
        <ele>1617.8</ele>
        <time>2007-05-21T08:10:49Z</time>
      </trkpt>
      <trkpt lat="45.22251" lon="5.59318">
        <ele>1620.3</ele>
        <time>2007-05-21T08:10:59Z</time>
      </trkpt>
      <trkpt lat="45.22278" lon="5.5934">
        <ele>1621.4</ele>
        <time>2007-05-21T08:11:11Z</time>
      </trkpt>
      <trkpt lat="45.223" lon="5.59356">
        <ele>1620.7</ele>
        <time>2007-05-21T08:11:21Z</time>
      </trkpt>
      <trkpt lat="45.22343" lon="5.59373">
        <ele>1619.3</ele>
        <time>2007-05-21T08:11:39Z</time>
      </trkpt>
      <trkpt lat="45.22365" lon="5.59367">
        <ele>1618.8</ele>
        <time>2007-05-21T08:11:48Z</time>
      </trkpt>
      <trkpt lat="45.22428" lon="5.59373">
        <ele>1617.1</ele>
        <time>2007-05-21T08:12:15Z</time>
      </trkpt>
      <trkpt lat="45.22451" lon="5.59377">
        <ele>1616.2</ele>
        <time>2007-05-21T08:12:24Z</time>
      </trkpt>
      <trkpt lat="45.22477" lon="5.59376">
        <ele>1615.3</ele>
        <time>2007-05-21T08:12:35Z</time>
      </trkpt>
      <trkpt lat="45.22523" lon="5.59385">
        <ele>1613.6</ele>
        <time>2007-05-21T08:12:53Z</time>
      </trkpt>
      <trkpt lat="45.22554" lon="5.59386">
        <ele>1612.7</ele>
        <time>2007-05-21T08:13:06Z</time>
      </trkpt>
      <trkpt lat="45.22577" lon="5.59381">
        <ele>1612.2</ele>
        <time>2007-05-21T08:13:15Z</time>
      </trkpt>
      <trkpt lat="45.22625" lon="5.59386">
        <ele>1611</ele>
        <time>2007-05-21T08:13:35Z</time>
      </trkpt>
      <trkpt lat="45.22656" lon="5.5938">
        <ele>1610.3</ele>
        <time>2007-05-21T08:13:48Z</time>
      </trkpt>
      <trkpt lat="45.22679" lon="5.59378">
        <ele>1610.1</ele>
        <time>2007-05-21T08:13:58Z</time>
      </trkpt>
      <trkpt lat="45.22717" lon="5.59403">
        <ele>1610.1</ele>
        <time>2007-05-21T08:14:15Z</time>
      </trkpt>
      <trkpt lat="45.22743" lon="5.59388">
        <ele>1610.3</ele>
        <time>2007-05-21T08:14:27Z</time>
      </trkpt>
      <trkpt lat="45.22765" lon="5.59372">
        <ele>1611.1</ele>
        <time>2007-05-21T08:14:37Z</time>
      </trkpt>
      <trkpt lat="45.22816" lon="5.59361">
        <ele>1613</ele>
        <time>2007-05-21T08:14:58Z</time>
      </trkpt>
      <trkpt lat="45.22844" lon="5.59379">
        <ele>1613.2</ele>
        <time>2007-05-21T08:15:10Z</time>
      </trkpt>
      <trkpt lat="45.22863" lon="5.59385">
        <ele>1612.8</ele>
        <time>2007-05-21T08:15:19Z</time>
      </trkpt>
      <trkpt lat="45.22892" lon="5.59378">
        <ele>1612.1</ele>
        <time>2007-05-21T08:15:31Z</time>
      </trkpt>
      <trkpt lat="45.22918" lon="5.5936">
        <ele>1611.3</ele>
        <time>2007-05-21T08:15:43Z</time>
      </trkpt>
      <trkpt lat="45.22941" lon="5.59346">
        <ele>1610.9</ele>
        <time>2007-05-21T08:15:53Z</time>
      </trkpt>
      <trkpt lat="45.22996" lon="5.59361">
        <ele>1610.7</ele>
        <time>2007-05-21T08:16:16Z</time>
      </trkpt>
      <trkpt lat="45.23022" lon="5.5938">
        <ele>1609.6</ele>
        <time>2007-05-21T08:16:29Z</time>
      </trkpt>
      <trkpt lat="45.23045" lon="5.594">
        <ele>1609.3</ele>
        <time>2007-05-21T08:16:40Z</time>
      </trkpt>
      <trkpt lat="45.23065" lon="5.594">
        <ele>1608.3</ele>
        <time>2007-05-21T08:16:48Z</time>
      </trkpt>
      <trkpt lat="45.23093" lon="5.59412">
        <ele>1608.5</ele>
        <time>2007-05-21T08:17:00Z</time>
      </trkpt>
      <trkpt lat="45.23124" lon="5.59444">
        <ele>1610.3</ele>
        <time>2007-05-21T08:17:15Z</time>
      </trkpt>
      <trkpt lat="45.23151" lon="5.59505">
        <ele>1615.9</ele>
        <time>2007-05-21T08:17:36Z</time>
      </trkpt>
      <trkpt lat="45.23168" lon="5.59523">
        <ele>1617.2</ele>
        <time>2007-05-21T08:17:45Z</time>
      </trkpt>
      <trkpt lat="45.23191" lon="5.59542">
        <ele>1617.1</ele>
        <time>2007-05-21T08:17:55Z</time>
      </trkpt>
      <trkpt lat="45.23215" lon="5.5957">
        <ele>1617.8</ele>
        <time>2007-05-21T08:18:09Z</time>
      </trkpt>
      <trkpt lat="45.23233" lon="5.59585">
        <ele>1618.9</ele>
        <time>2007-05-21T08:18:17Z</time>
      </trkpt>
      <trkpt lat="45.23251" lon="5.59607">
        <ele>1619.5</ele>
        <time>2007-05-21T08:18:27Z</time>
      </trkpt>
      <trkpt lat="45.23287" lon="5.59641">
        <ele>1622.2</ele>
        <time>2007-05-21T08:18:45Z</time>
      </trkpt>
      <trkpt lat="45.23306" lon="5.59658">
        <ele>1624.5</ele>
        <time>2007-05-21T08:18:54Z</time>
      </trkpt>
      <trkpt lat="45.23319" lon="5.59685">
        <ele>1625.8</ele>
        <time>2007-05-21T08:19:03Z</time>
      </trkpt>
      <trkpt lat="45.23332" lon="5.59716">
        <ele>1626.6</ele>
        <time>2007-05-21T08:19:14Z</time>
      </trkpt>
      <trkpt lat="45.23353" lon="5.59749">
        <ele>1627.9</ele>
        <time>2007-05-21T08:19:27Z</time>
      </trkpt>
      <trkpt lat="45.23378" lon="5.5979">
        <ele>1625.5</ele>
        <time>2007-05-21T08:19:42Z</time>
      </trkpt>
      <trkpt lat="45.23402" lon="5.5984">
        <ele>1604.5</ele>
        <time>2007-05-21T08:20:00Z</time>
      </trkpt>
      <trkpt lat="45.23454" lon="5.59874">
        <ele>1444.6</ele>
        <time>2007-05-21T08:20:30Z</time>
      </trkpt>
      <trkpt lat="45.23527" lon="5.59681">
        <ele>1579.2</ele>
        <time>2007-05-21T08:21:35Z</time>
      </trkpt>
      <trkpt lat="45.23526" lon="5.59654">
        <ele>1596.5</ele>
        <time>2007-05-21T08:21:44Z</time>
      </trkpt>
      <trkpt lat="45.23541" lon="5.59631">
        <ele>1588</ele>
        <time>2007-05-21T08:21:53Z</time>
      </trkpt>
      <trkpt lat="45.23542" lon="5.59597">
        <ele>1604.9</ele>
        <time>2007-05-21T08:22:03Z</time>
      </trkpt>
      <trkpt lat="45.23533" lon="5.59535">
        <ele>1606.3</ele>
        <time>2007-05-21T08:22:22Z</time>
      </trkpt>
      <trkpt lat="45.23518" lon="5.59511">
        <ele>1604.9</ele>
        <time>2007-05-21T08:22:31Z</time>
      </trkpt>
      <trkpt lat="45.23518" lon="5.5949">
        <ele>1601.4</ele>
        <time>2007-05-21T08:22:42Z</time>
      </trkpt>
      <trkpt lat="45.23557" lon="5.59471">
        <ele>1593.9</ele>
        <time>2007-05-21T08:22:58Z</time>
      </trkpt>
      <trkpt lat="45.23553" lon="5.59441">
        <ele>1590.8</ele>
        <time>2007-05-21T08:23:08Z</time>
      </trkpt>
      <trkpt lat="45.23538" lon="5.59413">
        <ele>1587.6</ele>
        <time>2007-05-21T08:23:18Z</time>
      </trkpt>
      <trkpt lat="45.23488" lon="5.5936">
        <ele>1583.1</ele>
        <time>2007-05-21T08:23:43Z</time>
      </trkpt>
      <trkpt lat="45.23455" lon="5.5932">
        <ele>1580.2</ele>
        <time>2007-05-21T08:24:00Z</time>
      </trkpt>
      <trkpt lat="45.23443" lon="5.5929">
        <ele>1578.6</ele>
        <time>2007-05-21T08:24:10Z</time>
      </trkpt>
      <trkpt lat="45.23452" lon="5.59261">
        <ele>1576.4</ele>
        <time>2007-05-21T08:24:19Z</time>
      </trkpt>
      <trkpt lat="45.23471" lon="5.59256">
        <ele>1575.5</ele>
        <time>2007-05-21T08:24:29Z</time>
      </trkpt>
      <trkpt lat="45.23493" lon="5.59264">
        <ele>1575.2</ele>
        <time>2007-05-21T08:24:38Z</time>
      </trkpt>
      <trkpt lat="45.23553" lon="5.5924">
        <ele>1571.2</ele>
        <time>2007-05-21T08:25:04Z</time>
      </trkpt>
      <trkpt lat="45.2358" lon="5.59219">
        <ele>1567.9</ele>
        <time>2007-05-21T08:25:17Z</time>
      </trkpt>
      <trkpt lat="45.23584" lon="5.59188">
        <ele>1563.7</ele>
        <time>2007-05-21T08:25:27Z</time>
      </trkpt>
      <trkpt lat="45.23578" lon="5.59167">
        <ele>1560.9</ele>
        <time>2007-05-21T08:25:37Z</time>
      </trkpt>
      <trkpt lat="45.23613" lon="5.59127">
        <ele>1552.8</ele>
        <time>2007-05-21T08:25:55Z</time>
      </trkpt>
      <trkpt lat="45.23636" lon="5.59114">
        <ele>1551</ele>
        <time>2007-05-21T08:26:05Z</time>
      </trkpt>
      <trkpt lat="45.236" lon="5.59087">
        <ele>1547.3</ele>
        <time>2007-05-21T08:26:33Z</time>
      </trkpt>
      <trkpt lat="45.23598" lon="5.59061">
        <ele>1540.8</ele>
        <time>2007-05-21T08:26:44Z</time>
      </trkpt>
      <trkpt lat="45.23618" lon="5.59039">
        <ele>1537.5</ele>
        <time>2007-05-21T08:26:54Z</time>
      </trkpt>
      <trkpt lat="45.23638" lon="5.5903">
        <ele>1538.3</ele>
        <time>2007-05-21T08:27:03Z</time>
      </trkpt>
      <trkpt lat="45.23657" lon="5.59003">
        <ele>1536.6</ele>
        <time>2007-05-21T08:27:14Z</time>
      </trkpt>
      <trkpt lat="45.23696" lon="5.58967">
        <ele>1534.4</ele>
        <time>2007-05-21T08:27:32Z</time>
      </trkpt>
      <trkpt lat="45.23742" lon="5.58915">
        <ele>1536.1</ele>
        <time>2007-05-21T08:27:56Z</time>
      </trkpt>
      <trkpt lat="45.23762" lon="5.5889">
        <ele>1536.5</ele>
        <time>2007-05-21T08:28:07Z</time>
      </trkpt>
      <trkpt lat="45.2377" lon="5.58853">
        <ele>1534.4</ele>
        <time>2007-05-21T08:28:18Z</time>
      </trkpt>
      <trkpt lat="45.23762" lon="5.58813">
        <ele>1529.6</ele>
        <time>2007-05-21T08:28:30Z</time>
      </trkpt>
      <trkpt lat="45.2376" lon="5.5877">
        <ele>1525.5</ele>
        <time>2007-05-21T08:28:42Z</time>
      </trkpt>
      <trkpt lat="45.23768" lon="5.58706">
        <ele>1517.6</ele>
        <time>2007-05-21T08:29:00Z</time>
      </trkpt>
      <trkpt lat="45.23817" lon="5.58622">
        <ele>1506.7</ele>
        <time>2007-05-21T08:29:32Z</time>
      </trkpt>
      <trkpt lat="45.2386" lon="5.58591">
        <ele>1503.3</ele>
        <time>2007-05-21T08:29:51Z</time>
      </trkpt>
      <trkpt lat="45.23904" lon="5.58575">
        <ele>1504.2</ele>
        <time>2007-05-21T08:30:10Z</time>
      </trkpt>
      <trkpt lat="45.23934" lon="5.58551">
        <ele>1501.3</ele>
        <time>2007-05-21T08:30:23Z</time>
      </trkpt>
      <trkpt lat="45.23984" lon="5.58505">
        <ele>1497.7</ele>
        <time>2007-05-21T08:30:48Z</time>
      </trkpt>
      <trkpt lat="45.24017" lon="5.5849">
        <ele>1498.5</ele>
        <time>2007-05-21T08:31:02Z</time>
      </trkpt>
      <trkpt lat="45.24086" lon="5.58493">
        <ele>1505.9</ele>
        <time>2007-05-21T08:31:30Z</time>
      </trkpt>
      <trkpt lat="45.24107" lon="5.58483">
        <ele>1511.3</ele>
        <time>2007-05-21T08:31:39Z</time>
      </trkpt>
      <trkpt lat="45.24126" lon="5.58455">
        <ele>1514.2</ele>
        <time>2007-05-21T08:31:50Z</time>
      </trkpt>
      <trkpt lat="45.24142" lon="5.58425">
        <ele>1516.1</ele>
        <time>2007-05-21T08:32:01Z</time>
      </trkpt>
      <trkpt lat="45.2414" lon="5.58387">
        <ele>1516.1</ele>
        <time>2007-05-21T08:32:12Z</time>
      </trkpt>
      <trkpt lat="45.24129" lon="5.58351">
        <ele>1513.5</ele>
        <time>2007-05-21T08:32:23Z</time>
      </trkpt>
      <trkpt lat="45.24122" lon="5.58281">
        <ele>1512</ele>
        <time>2007-05-21T08:32:43Z</time>
      </trkpt>
      <trkpt lat="45.24127" lon="5.5825">
        <ele>1514.9</ele>
        <time>2007-05-21T08:32:52Z</time>
      </trkpt>
      <trkpt lat="45.24124" lon="5.58212">
        <ele>1512.3</ele>
        <time>2007-05-21T08:33:03Z</time>
      </trkpt>
      <trkpt lat="45.24134" lon="5.5816">
        <ele>1514.9</ele>
        <time>2007-05-21T08:33:19Z</time>
      </trkpt>
      <trkpt lat="45.24142" lon="5.58128">
        <ele>1514.6</ele>
        <time>2007-05-21T08:33:28Z</time>
      </trkpt>
      <trkpt lat="45.24149" lon="5.58098">
        <ele>1513.7</ele>
        <time>2007-05-21T08:33:37Z</time>
      </trkpt>
      <trkpt lat="45.24167" lon="5.5804">
        <ele>1513.9</ele>
        <time>2007-05-21T08:33:56Z</time>
      </trkpt>
      <trkpt lat="45.2417" lon="5.58008">
        <ele>1511.4</ele>
        <time>2007-05-21T08:34:05Z</time>
      </trkpt>
      <trkpt lat="45.24182" lon="5.57957">
        <ele>1514.1</ele>
        <time>2007-05-21T08:34:20Z</time>
      </trkpt>
      <trkpt lat="45.24181" lon="5.57916">
        <ele>1512.5</ele>
        <time>2007-05-21T08:34:32Z</time>
      </trkpt>
      <trkpt lat="45.24158" lon="5.57886">
        <ele>1510.5</ele>
        <time>2007-05-21T08:34:45Z</time>
      </trkpt>
      <trkpt lat="45.2412" lon="5.57841">
        <ele>1509.5</ele>
        <time>2007-05-21T08:35:05Z</time>
      </trkpt>
      <trkpt lat="45.24062" lon="5.57786">
        <ele>1515.2</ele>
        <time>2007-05-21T08:35:33Z</time>
      </trkpt>
      <trkpt lat="45.24033" lon="5.57766">
        <ele>1519</ele>
        <time>2007-05-21T08:35:46Z</time>
      </trkpt>
      <trkpt lat="45.24011" lon="5.5775">
        <ele>1521.9</ele>
        <time>2007-05-21T08:35:56Z</time>
      </trkpt>
      <trkpt lat="45.2399" lon="5.57763">
        <ele>1518.1</ele>
        <time>2007-05-21T08:36:05Z</time>
      </trkpt>
      <trkpt lat="45.23972" lon="5.57784">
        <ele>1513.9</ele>
        <time>2007-05-21T08:36:14Z</time>
      </trkpt>
      <trkpt lat="45.2394" lon="5.57808">
        <ele>1510.3</ele>
        <time>2007-05-21T08:36:29Z</time>
      </trkpt>
      <trkpt lat="45.2389" lon="5.57774">
        <ele>1520.2</ele>
        <time>2007-05-21T08:36:55Z</time>
      </trkpt>
      <trkpt lat="45.2387" lon="5.57762">
        <ele>1522.1</ele>
        <time>2007-05-21T08:37:03Z</time>
      </trkpt>
      <trkpt lat="45.23849" lon="5.57757">
        <ele>1522.2</ele>
        <time>2007-05-21T08:37:12Z</time>
      </trkpt>
      <trkpt lat="45.23826" lon="5.57746">
        <ele>1523.6</ele>
        <time>2007-05-21T08:37:22Z</time>
      </trkpt>
      <trkpt lat="45.23805" lon="5.57738">
        <ele>1524.1</ele>
        <time>2007-05-21T08:37:30Z</time>
      </trkpt>
      <trkpt lat="45.2378" lon="5.57736">
        <ele>1523</ele>
        <time>2007-05-21T08:37:40Z</time>
      </trkpt>
      <trkpt lat="45.23727" lon="5.57716">
        <ele>1520.6</ele>
        <time>2007-05-21T08:38:02Z</time>
      </trkpt>
      <trkpt lat="45.23687" lon="5.57704">
        <ele>1516.7</ele>
        <time>2007-05-21T08:38:19Z</time>
      </trkpt>
      <trkpt lat="45.23659" lon="5.57704">
        <ele>1512.7</ele>
        <time>2007-05-21T08:38:30Z</time>
      </trkpt>
      <trkpt lat="45.23634" lon="5.5771">
        <ele>1507.2</ele>
        <time>2007-05-21T08:38:41Z</time>
      </trkpt>
      <trkpt lat="45.23596" lon="5.57684">
        <ele>1503.2</ele>
        <time>2007-05-21T08:38:58Z</time>
      </trkpt>
      <trkpt lat="45.2355" lon="5.57659">
        <ele>1499.9</ele>
        <time>2007-05-21T08:39:18Z</time>
      </trkpt>
      <trkpt lat="45.23518" lon="5.57613">
        <ele>1499.9</ele>
        <time>2007-05-21T08:39:37Z</time>
      </trkpt>
      <trkpt lat="45.23474" lon="5.57594">
        <ele>1493.6</ele>
        <time>2007-05-21T08:39:56Z</time>
      </trkpt>
      <trkpt lat="45.23429" lon="5.5757">
        <ele>1487.4</ele>
        <time>2007-05-21T08:40:16Z</time>
      </trkpt>
      <trkpt lat="45.23397" lon="5.57556">
        <ele>1484.6</ele>
        <time>2007-05-21T08:40:29Z</time>
      </trkpt>
      <trkpt lat="45.23362" lon="5.57548">
        <ele>1482.5</ele>
        <time>2007-05-21T08:40:43Z</time>
      </trkpt>
      <trkpt lat="45.23335" lon="5.57535">
        <ele>1480.7</ele>
        <time>2007-05-21T08:40:55Z</time>
      </trkpt>
      <trkpt lat="45.23264" lon="5.57493">
        <ele>1475.6</ele>
        <time>2007-05-21T08:41:26Z</time>
      </trkpt>
      <trkpt lat="45.23238" lon="5.57482">
        <ele>1473.2</ele>
        <time>2007-05-21T08:41:37Z</time>
      </trkpt>
      <trkpt lat="45.23204" lon="5.57503">
        <ele>1468.2</ele>
        <time>2007-05-21T08:41:51Z</time>
      </trkpt>
      <trkpt lat="45.23168" lon="5.57532">
        <ele>1465.5</ele>
        <time>2007-05-21T08:42:08Z</time>
      </trkpt>
      <trkpt lat="45.23148" lon="5.57565">
        <ele>1464</ele>
        <time>2007-05-21T08:42:20Z</time>
      </trkpt>
      <trkpt lat="45.23136" lon="5.57596">
        <ele>1463.8</ele>
        <time>2007-05-21T08:42:30Z</time>
      </trkpt>
      <trkpt lat="45.23101" lon="5.57609">
        <ele>1458.1</ele>
        <time>2007-05-21T08:42:50Z</time>
      </trkpt>
      <trkpt lat="45.23101" lon="5.57558">
        <ele>1454.3</ele>
        <time>2007-05-21T08:43:04Z</time>
      </trkpt>
      <trkpt lat="45.23099" lon="5.57513">
        <ele>1450.2</ele>
        <time>2007-05-21T08:43:17Z</time>
      </trkpt>
      <trkpt lat="45.23086" lon="5.57468">
        <ele>1448.4</ele>
        <time>2007-05-21T08:43:31Z</time>
      </trkpt>
      <trkpt lat="45.23062" lon="5.57428">
        <ele>1446.5</ele>
        <time>2007-05-21T08:43:45Z</time>
      </trkpt>
      <trkpt lat="45.23028" lon="5.57415">
        <ele>1441.3</ele>
        <time>2007-05-21T08:44:00Z</time>
      </trkpt>
      <trkpt lat="45.22939" lon="5.57424">
        <ele>1430.5</ele>
        <time>2007-05-21T08:44:36Z</time>
      </trkpt>
      <trkpt lat="45.22873" lon="5.57436">
        <ele>1423.6</ele>
        <time>2007-05-21T08:45:02Z</time>
      </trkpt>
      <trkpt lat="45.22818" lon="5.57428">
        <ele>1419.4</ele>
        <time>2007-05-21T08:45:24Z</time>
      </trkpt>
      <trkpt lat="45.22752" lon="5.57401">
        <ele>1420.1</ele>
        <time>2007-05-21T08:45:52Z</time>
      </trkpt>
      <trkpt lat="45.22715" lon="5.57373">
        <ele>1425.5</ele>
        <time>2007-05-21T08:46:09Z</time>
      </trkpt>
      <trkpt lat="45.22687" lon="5.57358">
        <ele>1427.6</ele>
        <time>2007-05-21T08:46:21Z</time>
      </trkpt>
      <trkpt lat="45.22662" lon="5.57321">
        <ele>1429.8</ele>
        <time>2007-05-21T08:46:40Z</time>
      </trkpt>
      <trkpt lat="45.22643" lon="5.57306">
        <ele>1429.3</ele>
        <time>2007-05-21T08:46:49Z</time>
      </trkpt>
      <trkpt lat="45.22622" lon="5.57296">
        <ele>1428.4</ele>
        <time>2007-05-21T08:46:58Z</time>
      </trkpt>
      <trkpt lat="45.22598" lon="5.57265">
        <ele>1425.3</ele>
        <time>2007-05-21T08:47:11Z</time>
      </trkpt>
      <trkpt lat="45.22588" lon="5.57228">
        <ele>1420.2</ele>
        <time>2007-05-21T08:47:22Z</time>
      </trkpt>
      <trkpt lat="45.22575" lon="5.57192">
        <ele>1414.1</ele>
        <time>2007-05-21T08:47:34Z</time>
      </trkpt>
      <trkpt lat="45.22487" lon="5.57167">
        <ele>1404.5</ele>
        <time>2007-05-21T08:48:10Z</time>
      </trkpt>
      <trkpt lat="45.22458" lon="5.57183">
        <ele>1402.9</ele>
        <time>2007-05-21T08:48:23Z</time>
      </trkpt>
      <trkpt lat="45.22434" lon="5.5722">
        <ele>1403.7</ele>
        <time>2007-05-21T08:48:37Z</time>
      </trkpt>
      <trkpt lat="45.22408" lon="5.57237">
        <ele>1401.3</ele>
        <time>2007-05-21T08:48:49Z</time>
      </trkpt>
      <trkpt lat="45.22382" lon="5.57229">
        <ele>1396.4</ele>
        <time>2007-05-21T08:49:00Z</time>
      </trkpt>
      <trkpt lat="45.22352" lon="5.5724">
        <ele>1392.3</ele>
        <time>2007-05-21T08:49:13Z</time>
      </trkpt>
      <trkpt lat="45.22309" lon="5.57269">
        <ele>1391.2</ele>
        <time>2007-05-21T08:49:32Z</time>
      </trkpt>
      <trkpt lat="45.22274" lon="5.57288">
        <ele>1391.9</ele>
        <time>2007-05-21T08:49:47Z</time>
      </trkpt>
      <trkpt lat="45.22246" lon="5.5729">
        <ele>1391.1</ele>
        <time>2007-05-21T08:49:58Z</time>
      </trkpt>
      <trkpt lat="45.22211" lon="5.57293">
        <ele>1389</ele>
        <time>2007-05-21T08:50:12Z</time>
      </trkpt>
      <trkpt lat="45.22171" lon="5.57281">
        <ele>1386</ele>
        <time>2007-05-21T08:50:29Z</time>
      </trkpt>
      <trkpt lat="45.22146" lon="5.57261">
        <ele>1382.4</ele>
        <time>2007-05-21T08:50:40Z</time>
      </trkpt>
      <trkpt lat="45.22089" lon="5.57198">
        <ele>1376.4</ele>
        <time>2007-05-21T08:51:10Z</time>
      </trkpt>
      <trkpt lat="45.22067" lon="5.57227">
        <ele>1370.9</ele>
        <time>2007-05-21T08:51:22Z</time>
      </trkpt>
      <trkpt lat="45.22049" lon="5.57245">
        <ele>1365.3</ele>
        <time>2007-05-21T08:51:31Z</time>
      </trkpt>
      <trkpt lat="45.22029" lon="5.57231">
        <ele>1361.4</ele>
        <time>2007-05-21T08:51:40Z</time>
      </trkpt>
      <trkpt lat="45.22008" lon="5.57189">
        <ele>1361</ele>
        <time>2007-05-21T08:51:55Z</time>
      </trkpt>
      <trkpt lat="45.21997" lon="5.57145">
        <ele>1362.7</ele>
        <time>2007-05-21T08:52:08Z</time>
      </trkpt>
      <trkpt lat="45.22001" lon="5.57058">
        <ele>1366.2</ele>
        <time>2007-05-21T08:52:35Z</time>
      </trkpt>
      <trkpt lat="45.21999" lon="5.57025">
        <ele>1364.8</ele>
        <time>2007-05-21T08:52:45Z</time>
      </trkpt>
      <trkpt lat="45.22008" lon="5.56986">
        <ele>1362.7</ele>
        <time>2007-05-21T08:52:57Z</time>
      </trkpt>
      <trkpt lat="45.22002" lon="5.56952">
        <ele>1358.2</ele>
        <time>2007-05-21T08:53:07Z</time>
      </trkpt>
      <trkpt lat="45.21976" lon="5.56938">
        <ele>1355.4</ele>
        <time>2007-05-21T08:53:18Z</time>
      </trkpt>
      <trkpt lat="45.21926" lon="5.5694">
        <ele>1353.1</ele>
        <time>2007-05-21T08:53:38Z</time>
      </trkpt>
      <trkpt lat="45.21938" lon="5.5688">
        <ele>1349.8</ele>
        <time>2007-05-21T08:54:01Z</time>
      </trkpt>
      <trkpt lat="45.21979" lon="5.56868">
        <ele>1348.9</ele>
        <time>2007-05-21T08:54:18Z</time>
      </trkpt>
      <trkpt lat="45.2199" lon="5.5686">
        <ele>1348</ele>
        <time>2007-05-21T08:54:26Z</time>
      </trkpt>
      <trkpt lat="45.21999" lon="5.56842">
        <ele>1346</ele>
        <time>2007-05-21T08:54:33Z</time>
      </trkpt>
      <trkpt lat="45.22019" lon="5.56802">
        <ele>1342.4</ele>
        <time>2007-05-21T08:54:48Z</time>
      </trkpt>
      <trkpt lat="45.2203" lon="5.56762">
        <ele>1339.5</ele>
        <time>2007-05-21T08:54:59Z</time>
      </trkpt>
      <trkpt lat="45.22074" lon="5.56643">
        <ele>1328.5</ele>
        <time>2007-05-21T08:55:38Z</time>
      </trkpt>
      <trkpt lat="45.22076" lon="5.56591">
        <ele>1327</ele>
        <time>2007-05-21T08:55:53Z</time>
      </trkpt>
      <trkpt lat="45.22072" lon="5.56548">
        <ele>1325.1</ele>
        <time>2007-05-21T08:56:05Z</time>
      </trkpt>
      <trkpt lat="45.22057" lon="5.56501">
        <ele>1323.6</ele>
        <time>2007-05-21T08:56:19Z</time>
      </trkpt>
      <trkpt lat="45.22038" lon="5.56455">
        <ele>1321.8</ele>
        <time>2007-05-21T08:56:34Z</time>
      </trkpt>
      <trkpt lat="45.21999" lon="5.56396">
        <ele>1318.9</ele>
        <time>2007-05-21T08:56:57Z</time>
      </trkpt>
      <trkpt lat="45.21932" lon="5.56245">
        <ele>1307</ele>
        <time>2007-05-21T08:57:48Z</time>
      </trkpt>
      <trkpt lat="45.21898" lon="5.56184">
        <ele>1305</ele>
        <time>2007-05-21T08:58:09Z</time>
      </trkpt>
      <trkpt lat="45.21882" lon="5.56154">
        <ele>1304</ele>
        <time>2007-05-21T08:58:20Z</time>
      </trkpt>
      <trkpt lat="45.21851" lon="5.56104">
        <ele>1300.6</ele>
        <time>2007-05-21T08:58:39Z</time>
      </trkpt>
      <trkpt lat="45.21836" lon="5.56068">
        <ele>1298.2</ele>
        <time>2007-05-21T08:58:51Z</time>
      </trkpt>
      <trkpt lat="45.2182" lon="5.56032">
        <ele>1298.6</ele>
        <time>2007-05-21T08:59:02Z</time>
      </trkpt>
      <trkpt lat="45.2175" lon="5.56011">
        <ele>1300.5</ele>
        <time>2007-05-21T08:59:32Z</time>
      </trkpt>
      <trkpt lat="45.21688" lon="5.56002">
        <ele>1303.1</ele>
        <time>2007-05-21T08:59:57Z</time>
      </trkpt>
      <trkpt lat="45.21621" lon="5.55995">
        <ele>1300.9</ele>
        <time>2007-05-21T09:00:23Z</time>
      </trkpt>
      <trkpt lat="45.21576" lon="5.55998">
        <ele>1298.2</ele>
        <time>2007-05-21T09:00:41Z</time>
      </trkpt>
      <trkpt lat="45.21536" lon="5.55999">
        <ele>1298.6</ele>
        <time>2007-05-21T09:00:58Z</time>
      </trkpt>
      <trkpt lat="45.21483" lon="5.56001">
        <ele>1298.5</ele>
        <time>2007-05-21T09:01:19Z</time>
      </trkpt>
      <trkpt lat="45.21398" lon="5.56006">
        <ele>1297.9</ele>
        <time>2007-05-21T09:01:53Z</time>
      </trkpt>
      <trkpt lat="45.21363" lon="5.56008">
        <ele>1299.7</ele>
        <time>2007-05-21T09:02:07Z</time>
      </trkpt>
      <trkpt lat="45.21339" lon="5.56006">
        <ele>1300.9</ele>
        <time>2007-05-21T09:02:16Z</time>
      </trkpt>
      <trkpt lat="45.21311" lon="5.55995">
        <ele>1301.3</ele>
        <time>2007-05-21T09:02:28Z</time>
      </trkpt>
      <trkpt lat="45.21287" lon="5.55987">
        <ele>1301.3</ele>
        <time>2007-05-21T09:02:38Z</time>
      </trkpt>
      <trkpt lat="45.2125" lon="5.55971">
        <ele>1300.7</ele>
        <time>2007-05-21T09:02:53Z</time>
      </trkpt>
      <trkpt lat="45.21199" lon="5.55953">
        <ele>1300.5</ele>
        <time>2007-05-21T09:03:14Z</time>
      </trkpt>
      <trkpt lat="45.21167" lon="5.55935">
        <ele>1299.3</ele>
        <time>2007-05-21T09:03:28Z</time>
      </trkpt>
      <trkpt lat="45.21144" lon="5.55928">
        <ele>1299</ele>
        <time>2007-05-21T09:03:37Z</time>
      </trkpt>
      <trkpt lat="45.21111" lon="5.55914">
        <ele>1298.1</ele>
        <time>2007-05-21T09:03:51Z</time>
      </trkpt>
      <trkpt lat="45.21073" lon="5.5592">
        <ele>1298.4</ele>
        <time>2007-05-21T09:04:06Z</time>
      </trkpt>
      <trkpt lat="45.21038" lon="5.55938">
        <ele>1300.7</ele>
        <time>2007-05-21T09:04:21Z</time>
      </trkpt>
      <trkpt lat="45.20965" lon="5.55915">
        <ele>1297.1</ele>
        <time>2007-05-21T09:04:52Z</time>
      </trkpt>
      <trkpt lat="45.20914" lon="5.55889">
        <ele>1294.8</ele>
        <time>2007-05-21T09:05:13Z</time>
      </trkpt>
      <trkpt lat="45.20862" lon="5.55883">
        <ele>1291.1</ele>
        <time>2007-05-21T09:05:34Z</time>
      </trkpt>
      <trkpt lat="45.20804" lon="5.55877">
        <ele>1288.5</ele>
        <time>2007-05-21T09:05:57Z</time>
      </trkpt>
      <trkpt lat="45.20755" lon="5.5587">
        <ele>1287.5</ele>
        <time>2007-05-21T09:06:17Z</time>
      </trkpt>
      <trkpt lat="45.20705" lon="5.55871">
        <ele>1285.9</ele>
        <time>2007-05-21T09:06:37Z</time>
      </trkpt>
      <trkpt lat="45.20637" lon="5.55935">
        <ele>1286.5</ele>
        <time>2007-05-21T09:07:10Z</time>
      </trkpt>
      <trkpt lat="45.20605" lon="5.55948">
        <ele>1285.8</ele>
        <time>2007-05-21T09:07:24Z</time>
      </trkpt>
      <trkpt lat="45.2057" lon="5.55958">
        <ele>1283.9</ele>
        <time>2007-05-21T09:07:38Z</time>
      </trkpt>
      <trkpt lat="45.20546" lon="5.55977">
        <ele>1282.3</ele>
        <time>2007-05-21T09:07:53Z</time>
      </trkpt>
      <trkpt lat="45.20522" lon="5.55993">
        <ele>1280.5</ele>
        <time>2007-05-21T09:08:04Z</time>
      </trkpt>
      <trkpt lat="45.20495" lon="5.56004">
        <ele>1279.9</ele>
        <time>2007-05-21T09:08:15Z</time>
      </trkpt>
      <trkpt lat="45.20423" lon="5.5602">
        <ele>1282.2</ele>
        <time>2007-05-21T09:08:45Z</time>
      </trkpt>
      <trkpt lat="45.20379" lon="5.56029">
        <ele>1280.6</ele>
        <time>2007-05-21T09:09:02Z</time>
      </trkpt>
      <trkpt lat="45.20344" lon="5.56041">
        <ele>1279.8</ele>
        <time>2007-05-21T09:09:17Z</time>
      </trkpt>
      <trkpt lat="45.20302" lon="5.56053">
        <ele>1279.5</ele>
        <time>2007-05-21T09:09:34Z</time>
      </trkpt>
      <trkpt lat="45.20249" lon="5.56057">
        <ele>1277.6</ele>
        <time>2007-05-21T09:09:55Z</time>
      </trkpt>
      <trkpt lat="45.20219" lon="5.56053">
        <ele>1277.7</ele>
        <time>2007-05-21T09:10:07Z</time>
      </trkpt>
      <trkpt lat="45.20143" lon="5.56073">
        <ele>1282.3</ele>
        <time>2007-05-21T09:10:38Z</time>
      </trkpt>
      <trkpt lat="45.20116" lon="5.56082">
        <ele>1282.7</ele>
        <time>2007-05-21T09:10:49Z</time>
      </trkpt>
      <trkpt lat="45.20092" lon="5.56091">
        <ele>1282.4</ele>
        <time>2007-05-21T09:11:00Z</time>
      </trkpt>
      <trkpt lat="45.20059" lon="5.5611">
        <ele>1281.8</ele>
        <time>2007-05-21T09:11:14Z</time>
      </trkpt>
      <trkpt lat="45.20022" lon="5.56083">
        <ele>1277.3</ele>
        <time>2007-05-21T09:11:32Z</time>
      </trkpt>
      <trkpt lat="45.19987" lon="5.56086">
        <ele>1275.4</ele>
        <time>2007-05-21T09:11:46Z</time>
      </trkpt>
      <trkpt lat="45.19921" lon="5.56117">
        <ele>1271.9</ele>
        <time>2007-05-21T09:12:14Z</time>
      </trkpt>
      <trkpt lat="45.19897" lon="5.56132">
        <ele>1271.5</ele>
        <time>2007-05-21T09:12:25Z</time>
      </trkpt>
      <trkpt lat="45.19864" lon="5.56148">
        <ele>1272.8</ele>
        <time>2007-05-21T09:12:39Z</time>
      </trkpt>
      <trkpt lat="45.19827" lon="5.56173">
        <ele>1275.7</ele>
        <time>2007-05-21T09:12:55Z</time>
      </trkpt>
      <trkpt lat="45.19782" lon="5.56207">
        <ele>1274.4</ele>
        <time>2007-05-21T09:13:16Z</time>
      </trkpt>
      <trkpt lat="45.19743" lon="5.56239">
        <ele>1273.9</ele>
        <time>2007-05-21T09:13:34Z</time>
      </trkpt>
      <trkpt lat="45.19663" lon="5.56251">
        <ele>1265.1</ele>
        <time>2007-05-21T09:14:07Z</time>
      </trkpt>
      <trkpt lat="45.19618" lon="5.56236">
        <ele>1256.9</ele>
        <time>2007-05-21T09:14:26Z</time>
      </trkpt>
      <trkpt lat="45.19577" lon="5.56226">
        <ele>1249.2</ele>
        <time>2007-05-21T09:14:43Z</time>
      </trkpt>
      <trkpt lat="45.19546" lon="5.56229">
        <ele>1243.3</ele>
        <time>2007-05-21T09:14:56Z</time>
      </trkpt>
      <trkpt lat="45.19515" lon="5.56226">
        <ele>1237.6</ele>
        <time>2007-05-21T09:15:08Z</time>
      </trkpt>
      <trkpt lat="45.19472" lon="5.56222">
        <ele>1232.1</ele>
        <time>2007-05-21T09:15:25Z</time>
      </trkpt>
      <trkpt lat="45.19388" lon="5.56192">
        <ele>1225.4</ele>
        <time>2007-05-21T09:16:00Z</time>
      </trkpt>
      <trkpt lat="45.19357" lon="5.56175">
        <ele>1224.1</ele>
        <time>2007-05-21T09:16:13Z</time>
      </trkpt>
      <trkpt lat="45.19326" lon="5.56154">
        <ele>1221.5</ele>
        <time>2007-05-21T09:16:27Z</time>
      </trkpt>
      <trkpt lat="45.19298" lon="5.56139">
        <ele>1218</ele>
        <time>2007-05-21T09:16:39Z</time>
      </trkpt>
      <trkpt lat="45.19268" lon="5.56113">
        <ele>1216.4</ele>
        <time>2007-05-21T09:16:53Z</time>
      </trkpt>
      <trkpt lat="45.19243" lon="5.56088">
        <ele>1216.6</ele>
        <time>2007-05-21T09:17:06Z</time>
      </trkpt>
      <trkpt lat="45.19168" lon="5.56059">
        <ele>1206.6</ele>
        <time>2007-05-21T09:17:37Z</time>
      </trkpt>
      <trkpt lat="45.19131" lon="5.5604">
        <ele>1201.1</ele>
        <time>2007-05-21T09:17:52Z</time>
      </trkpt>
      <trkpt lat="45.19114" lon="5.56027">
        <ele>1199.8</ele>
        <time>2007-05-21T09:18:00Z</time>
      </trkpt>
      <trkpt lat="45.19088" lon="5.5601">
        <ele>1199</ele>
        <time>2007-05-21T09:18:12Z</time>
      </trkpt>
      <trkpt lat="45.19055" lon="5.5599">
        <ele>1193.6</ele>
        <time>2007-05-21T09:18:26Z</time>
      </trkpt>
      <trkpt lat="45.19022" lon="5.5597">
        <ele>1187.5</ele>
        <time>2007-05-21T09:18:40Z</time>
      </trkpt>
      <trkpt lat="45.18966" lon="5.55917">
        <ele>1180.8</ele>
        <time>2007-05-21T09:19:07Z</time>
      </trkpt>
      <trkpt lat="45.18947" lon="5.55873">
        <ele>1175.6</ele>
        <time>2007-05-21T09:19:22Z</time>
      </trkpt>
      <trkpt lat="45.18932" lon="5.55849">
        <ele>1172.5</ele>
        <time>2007-05-21T09:19:31Z</time>
      </trkpt>
      <trkpt lat="45.18907" lon="5.55818">
        <ele>1167.7</ele>
        <time>2007-05-21T09:19:44Z</time>
      </trkpt>
      <trkpt lat="45.18883" lon="5.55786">
        <ele>1164.8</ele>
        <time>2007-05-21T09:19:58Z</time>
      </trkpt>
      <trkpt lat="45.18858" lon="5.55748">
        <ele>1165.8</ele>
        <time>2007-05-21T09:20:12Z</time>
      </trkpt>
      <trkpt lat="45.18797" lon="5.55654">
        <ele>1166.3</ele>
        <time>2007-05-21T09:20:48Z</time>
      </trkpt>
      <trkpt lat="45.18755" lon="5.55612">
        <ele>1162.2</ele>
        <time>2007-05-21T09:21:09Z</time>
      </trkpt>
      <trkpt lat="45.18703" lon="5.55569">
        <ele>1155.3</ele>
        <time>2007-05-21T09:21:33Z</time>
      </trkpt>
      <trkpt lat="45.18662" lon="5.55528">
        <ele>1148.8</ele>
        <time>2007-05-21T09:21:53Z</time>
      </trkpt>
      <trkpt lat="45.18638" lon="5.55515">
        <ele>1144.4</ele>
        <time>2007-05-21T09:22:04Z</time>
      </trkpt>
      <trkpt lat="45.18604" lon="5.55486">
        <ele>1140.1</ele>
        <time>2007-05-21T09:22:20Z</time>
      </trkpt>
      <trkpt lat="45.18606" lon="5.55371">
        <ele>1142.4</ele>
        <time>2007-05-21T09:22:57Z</time>
      </trkpt>
      <trkpt lat="45.18578" lon="5.55336">
        <ele>1142.7</ele>
        <time>2007-05-21T09:23:12Z</time>
      </trkpt>
      <trkpt lat="45.18556" lon="5.55296">
        <ele>1138</ele>
        <time>2007-05-21T09:23:26Z</time>
      </trkpt>
      <trkpt lat="45.18544" lon="5.55268">
        <ele>1136</ele>
        <time>2007-05-21T09:23:36Z</time>
      </trkpt>
      <trkpt lat="45.18525" lon="5.55222">
        <ele>1132.1</ele>
        <time>2007-05-21T09:23:50Z</time>
      </trkpt>
      <trkpt lat="45.18515" lon="5.55177">
        <ele>1130.4</ele>
        <time>2007-05-21T09:24:04Z</time>
      </trkpt>
      <trkpt lat="45.18471" lon="5.55136">
        <ele>1120.6</ele>
        <time>2007-05-21T09:24:26Z</time>
      </trkpt>
      <trkpt lat="45.18438" lon="5.55103">
        <ele>1112.2</ele>
        <time>2007-05-21T09:24:44Z</time>
      </trkpt>
      <trkpt lat="45.18424" lon="5.5507">
        <ele>1108.6</ele>
        <time>2007-05-21T09:24:55Z</time>
      </trkpt>
      <trkpt lat="45.18415" lon="5.55039">
        <ele>1105.9</ele>
        <time>2007-05-21T09:25:04Z</time>
      </trkpt>
      <trkpt lat="45.18411" lon="5.54991">
        <ele>1102.5</ele>
        <time>2007-05-21T09:25:18Z</time>
      </trkpt>
      <trkpt lat="45.18401" lon="5.5495">
        <ele>1095.7</ele>
        <time>2007-05-21T09:25:31Z</time>
      </trkpt>
      <trkpt lat="45.18376" lon="5.54898">
        <ele>1085.3</ele>
        <time>2007-05-21T09:25:49Z</time>
      </trkpt>
      <trkpt lat="45.18355" lon="5.54884">
        <ele>1081</ele>
        <time>2007-05-21T09:25:59Z</time>
      </trkpt>
      <trkpt lat="45.18332" lon="5.54878">
        <ele>1078</ele>
        <time>2007-05-21T09:26:08Z</time>
      </trkpt>
      <trkpt lat="45.1832" lon="5.54852">
        <ele>1075.7</ele>
        <time>2007-05-21T09:26:17Z</time>
      </trkpt>
      <trkpt lat="45.183" lon="5.54838">
        <ele>1073.3</ele>
        <time>2007-05-21T09:26:26Z</time>
      </trkpt>
      <trkpt lat="45.18271" lon="5.5483">
        <ele>1070.9</ele>
        <time>2007-05-21T09:26:38Z</time>
      </trkpt>
      <trkpt lat="45.18238" lon="5.54779">
        <ele>1070.5</ele>
        <time>2007-05-21T09:26:58Z</time>
      </trkpt>
      <trkpt lat="45.18218" lon="5.54794">
        <ele>1068</ele>
        <time>2007-05-21T09:27:10Z</time>
      </trkpt>
      <trkpt lat="45.18194" lon="5.54836">
        <ele>1064.4</ele>
        <time>2007-05-21T09:27:25Z</time>
      </trkpt>
      <trkpt lat="45.18168" lon="5.54877">
        <ele>1064.7</ele>
        <time>2007-05-21T09:27:40Z</time>
      </trkpt>
      <trkpt lat="45.18153" lon="5.54906">
        <ele>1066.2</ele>
        <time>2007-05-21T09:27:51Z</time>
      </trkpt>
      <trkpt lat="45.18138" lon="5.54941">
        <ele>1067.4</ele>
        <time>2007-05-21T09:28:02Z</time>
      </trkpt>
      <trkpt lat="45.18121" lon="5.54968">
        <ele>1067.6</ele>
        <time>2007-05-21T09:28:30Z</time>
      </trkpt>
      <trkpt lat="45.18131" lon="5.54938">
        <ele>1067.2</ele>
        <time>2007-05-21T09:28:40Z</time>
      </trkpt>
      <trkpt lat="45.18108" lon="5.54909">
        <ele>1065.8</ele>
        <time>2007-05-21T09:28:53Z</time>
      </trkpt>
      <trkpt lat="45.18088" lon="5.54881">
        <ele>1063.5</ele>
        <time>2007-05-21T09:29:05Z</time>
      </trkpt>
      <trkpt lat="45.18059" lon="5.54881">
        <ele>1061.4</ele>
        <time>2007-05-21T09:29:17Z</time>
      </trkpt>
      <trkpt lat="45.18034" lon="5.54839">
        <ele>1057.8</ele>
        <time>2007-05-21T09:29:33Z</time>
      </trkpt>
      <trkpt lat="45.18025" lon="5.5482">
        <ele>1056.9</ele>
        <time>2007-05-21T09:29:54Z</time>
      </trkpt>
      <trkpt lat="45.18004" lon="5.54862">
        <ele>1056.6</ele>
        <time>2007-05-21T09:30:08Z</time>
      </trkpt>
      <trkpt lat="45.17976" lon="5.54915">
        <ele>1056.4</ele>
        <time>2007-05-21T09:30:27Z</time>
      </trkpt>
      <trkpt lat="45.17957" lon="5.54953">
        <ele>1057.3</ele>
        <time>2007-05-21T09:30:40Z</time>
      </trkpt>
      <trkpt lat="45.1793" lon="5.55004">
        <ele>1058.3</ele>
        <time>2007-05-21T09:30:58Z</time>
      </trkpt>
      <trkpt lat="45.17915" lon="5.55028">
        <ele>1057.9</ele>
        <time>2007-05-21T09:31:07Z</time>
      </trkpt>
      <trkpt lat="45.17879" lon="5.55092">
        <ele>1057</ele>
        <time>2007-05-21T09:31:31Z</time>
      </trkpt>
      <trkpt lat="45.1786" lon="5.55128">
        <ele>1055.9</ele>
        <time>2007-05-21T09:31:44Z</time>
      </trkpt>
      <trkpt lat="45.17829" lon="5.55148">
        <ele>1054.6</ele>
        <time>2007-05-21T09:31:58Z</time>
      </trkpt>
      <trkpt lat="45.17793" lon="5.5516">
        <ele>1055.6</ele>
        <time>2007-05-21T09:32:12Z</time>
      </trkpt>
      <trkpt lat="45.1777" lon="5.55165">
        <ele>1056.3</ele>
        <time>2007-05-21T09:32:22Z</time>
      </trkpt>
      <trkpt lat="45.1775" lon="5.55152">
        <ele>1057.4</ele>
        <time>2007-05-21T09:32:31Z</time>
      </trkpt>
      <trkpt lat="45.17701" lon="5.55137">
        <ele>1058.2</ele>
        <time>2007-05-21T09:32:55Z</time>
      </trkpt>
      <trkpt lat="45.17669" lon="5.55108">
        <ele>1057.2</ele>
        <time>2007-05-21T09:33:10Z</time>
      </trkpt>
      <trkpt lat="45.17639" lon="5.55084">
        <ele>1057</ele>
        <time>2007-05-21T09:33:23Z</time>
      </trkpt>
      <trkpt lat="45.17621" lon="5.55068">
        <ele>1056.6</ele>
        <time>2007-05-21T09:33:32Z</time>
      </trkpt>
      <trkpt lat="45.17599" lon="5.5505">
        <ele>1056.4</ele>
        <time>2007-05-21T09:33:42Z</time>
      </trkpt>
      <trkpt lat="45.17581" lon="5.55038">
        <ele>1056.4</ele>
        <time>2007-05-21T09:33:50Z</time>
      </trkpt>
      <trkpt lat="45.17538" lon="5.54955">
        <ele>1054.5</ele>
        <time>2007-05-21T09:34:19Z</time>
      </trkpt>
      <trkpt lat="45.17519" lon="5.54921">
        <ele>1054.6</ele>
        <time>2007-05-21T09:34:31Z</time>
      </trkpt>
      <trkpt lat="45.17506" lon="5.54888">
        <ele>1054.1</ele>
        <time>2007-05-21T09:34:42Z</time>
      </trkpt>
      <trkpt lat="45.17508" lon="5.54826">
        <ele>1052.5</ele>
        <time>2007-05-21T09:35:00Z</time>
      </trkpt>
      <trkpt lat="45.17511" lon="5.54782">
        <ele>1051.3</ele>
        <time>2007-05-21T09:35:12Z</time>
      </trkpt>
      <trkpt lat="45.17514" lon="5.54737">
        <ele>1050.1</ele>
        <time>2007-05-21T09:35:25Z</time>
      </trkpt>
      <trkpt lat="45.17487" lon="5.54651">
        <ele>1048.5</ele>
        <time>2007-05-21T09:35:53Z</time>
      </trkpt>
      <trkpt lat="45.17463" lon="5.54618">
        <ele>1047.9</ele>
        <time>2007-05-21T09:36:06Z</time>
      </trkpt>
      <trkpt lat="45.17425" lon="5.54569">
        <ele>1047.5</ele>
        <time>2007-05-21T09:36:27Z</time>
      </trkpt>
      <trkpt lat="45.17399" lon="5.5453">
        <ele>1046.3</ele>
        <time>2007-05-21T09:36:42Z</time>
      </trkpt>
      <trkpt lat="45.17371" lon="5.54489">
        <ele>1044.7</ele>
        <time>2007-05-21T09:36:58Z</time>
      </trkpt>
      <trkpt lat="45.17351" lon="5.54484">
        <ele>1044.2</ele>
        <time>2007-05-21T09:37:08Z</time>
      </trkpt>
      <trkpt lat="45.17325" lon="5.54556">
        <ele>1046.2</ele>
        <time>2007-05-21T09:37:32Z</time>
      </trkpt>
      <trkpt lat="45.17318" lon="5.54585">
        <ele>1047.9</ele>
        <time>2007-05-21T09:37:41Z</time>
      </trkpt>
      <trkpt lat="45.17296" lon="5.54636">
        <ele>1050.4</ele>
        <time>2007-05-21T09:37:58Z</time>
      </trkpt>
      <trkpt lat="45.17284" lon="5.54665">
        <ele>1050.8</ele>
        <time>2007-05-21T09:38:07Z</time>
      </trkpt>
      <trkpt lat="45.17268" lon="5.54697">
        <ele>1052.3</ele>
        <time>2007-05-21T09:38:19Z</time>
      </trkpt>
      <trkpt lat="45.17248" lon="5.54739">
        <ele>1055.1</ele>
        <time>2007-05-21T09:38:33Z</time>
      </trkpt>
      <trkpt lat="45.17211" lon="5.54823">
        <ele>1061.3</ele>
        <time>2007-05-21T09:39:01Z</time>
      </trkpt>
      <trkpt lat="45.17202" lon="5.54847">
        <ele>1061.2</ele>
        <time>2007-05-21T09:39:09Z</time>
      </trkpt>
      <trkpt lat="45.17189" lon="5.54872">
        <ele>1061.7</ele>
        <time>2007-05-21T09:39:18Z</time>
      </trkpt>
      <trkpt lat="45.17174" lon="5.54898">
        <ele>1062.2</ele>
        <time>2007-05-21T09:39:27Z</time>
      </trkpt>
      <trkpt lat="45.17154" lon="5.54938">
        <ele>1063.7</ele>
        <time>2007-05-21T09:39:41Z</time>
      </trkpt>
      <trkpt lat="45.17144" lon="5.54964">
        <ele>1064.6</ele>
        <time>2007-05-21T09:39:50Z</time>
      </trkpt>
      <trkpt lat="45.1712" lon="5.55018">
        <ele>1066</ele>
        <time>2007-05-21T09:40:08Z</time>
      </trkpt>
      <trkpt lat="45.17108" lon="5.55043">
        <ele>1067.7</ele>
        <time>2007-05-21T09:40:17Z</time>
      </trkpt>
      <trkpt lat="45.17096" lon="5.55066">
        <ele>1070.1</ele>
        <time>2007-05-21T09:40:25Z</time>
      </trkpt>
      <trkpt lat="45.17084" lon="5.55091">
        <ele>1072.7</ele>
        <time>2007-05-21T09:40:33Z</time>
      </trkpt>
      <trkpt lat="45.17074" lon="5.55119">
        <ele>1072.9</ele>
        <time>2007-05-21T09:40:42Z</time>
      </trkpt>
      <trkpt lat="45.1706" lon="5.5515">
        <ele>1072.7</ele>
        <time>2007-05-21T09:40:53Z</time>
      </trkpt>
      <trkpt lat="45.17025" lon="5.5519">
        <ele>1071.8</ele>
        <time>2007-05-21T09:41:11Z</time>
      </trkpt>
      <trkpt lat="45.17007" lon="5.55206">
        <ele>1071</ele>
        <time>2007-05-21T09:41:19Z</time>
      </trkpt>
      <trkpt lat="45.16982" lon="5.55222">
        <ele>1071.4</ele>
        <time>2007-05-21T09:41:30Z</time>
      </trkpt>
      <trkpt lat="45.16962" lon="5.55233">
        <ele>1072.7</ele>
        <time>2007-05-21T09:41:39Z</time>
      </trkpt>
      <trkpt lat="45.16931" lon="5.55239">
        <ele>1075.7</ele>
        <time>2007-05-21T09:41:51Z</time>
      </trkpt>
      <trkpt lat="45.16893" lon="5.55248">
        <ele>1077.3</ele>
        <time>2007-05-21T09:42:07Z</time>
      </trkpt>
      <trkpt lat="45.16845" lon="5.55262">
        <ele>1078.5</ele>
        <time>2007-05-21T09:42:27Z</time>
      </trkpt>
      <trkpt lat="45.16812" lon="5.5527">
        <ele>1079.4</ele>
        <time>2007-05-21T09:42:40Z</time>
      </trkpt>
      <trkpt lat="45.16775" lon="5.55279">
        <ele>1080.7</ele>
        <time>2007-05-21T09:42:55Z</time>
      </trkpt>
      <trkpt lat="45.16722" lon="5.55283">
        <ele>1078.1</ele>
        <time>2007-05-21T09:43:16Z</time>
      </trkpt>
      <trkpt lat="45.16674" lon="5.55286">
        <ele>1072.6</ele>
        <time>2007-05-21T09:43:35Z</time>
      </trkpt>
      <trkpt lat="45.16623" lon="5.55289">
        <ele>1070.9</ele>
        <time>2007-05-21T09:43:56Z</time>
      </trkpt>
      <trkpt lat="45.16529" lon="5.55294">
        <ele>1067.5</ele>
        <time>2007-05-21T09:44:33Z</time>
      </trkpt>
      <trkpt lat="45.16432" lon="5.55288">
        <ele>1061.7</ele>
        <time>2007-05-21T09:45:12Z</time>
      </trkpt>
      <trkpt lat="45.16389" lon="5.55282">
        <ele>1057.7</ele>
        <time>2007-05-21T09:45:30Z</time>
      </trkpt>
      <trkpt lat="45.16285" lon="5.55279">
        <ele>1052.2</ele>
        <time>2007-05-21T09:46:11Z</time>
      </trkpt>
      <trkpt lat="45.16246" lon="5.55281">
        <ele>1052.4</ele>
        <time>2007-05-21T09:46:27Z</time>
      </trkpt>
      <trkpt lat="45.16189" lon="5.55283">
        <ele>1051.1</ele>
        <time>2007-05-21T09:46:49Z</time>
      </trkpt>
      <trkpt lat="45.16098" lon="5.55288">
        <ele>1049.9</ele>
        <time>2007-05-21T09:47:26Z</time>
      </trkpt>
      <trkpt lat="45.16053" lon="5.5529">
        <ele>1048.7</ele>
        <time>2007-05-21T09:47:44Z</time>
      </trkpt>
      <trkpt lat="45.16024" lon="5.55291">
        <ele>1047.5</ele>
        <time>2007-05-21T09:47:55Z</time>
      </trkpt>
      <trkpt lat="45.15933" lon="5.55291">
        <ele>1044.1</ele>
        <time>2007-05-21T09:48:32Z</time>
      </trkpt>
      <trkpt lat="45.15846" lon="5.55291">
        <ele>1044.8</ele>
        <time>2007-05-21T09:49:07Z</time>
      </trkpt>
      <trkpt lat="45.15739" lon="5.55289">
        <ele>1046.2</ele>
        <time>2007-05-21T09:49:49Z</time>
      </trkpt>
      <trkpt lat="45.15676" lon="5.55308">
        <ele>1048</ele>
        <time>2007-05-21T09:50:15Z</time>
      </trkpt>
      <trkpt lat="45.15647" lon="5.55336">
        <ele>1050.9</ele>
        <time>2007-05-21T09:50:29Z</time>
      </trkpt>
      <trkpt lat="45.15615" lon="5.55375">
        <ele>1053.7</ele>
        <time>2007-05-21T09:50:46Z</time>
      </trkpt>
      <trkpt lat="45.15586" lon="5.55404">
        <ele>1057.5</ele>
        <time>2007-05-21T09:51:00Z</time>
      </trkpt>
      <trkpt lat="45.15563" lon="5.55429">
        <ele>1065.9</ele>
        <time>2007-05-21T09:51:12Z</time>
      </trkpt>
      <trkpt lat="45.1554" lon="5.5544">
        <ele>1073.1</ele>
        <time>2007-05-21T09:51:22Z</time>
      </trkpt>
      <trkpt lat="45.15463" lon="5.55428">
        <ele>1078.1</ele>
        <time>2007-05-21T09:51:53Z</time>
      </trkpt>
      <trkpt lat="45.15393" lon="5.55406">
        <ele>1076.7</ele>
        <time>2007-05-21T09:52:21Z</time>
      </trkpt>
      <trkpt lat="45.15361" lon="5.55396">
        <ele>1078.2</ele>
        <time>2007-05-21T09:52:35Z</time>
      </trkpt>
      <trkpt lat="45.15313" lon="5.55414">
        <ele>1087.2</ele>
        <time>2007-05-21T09:52:54Z</time>
      </trkpt>
      <trkpt lat="45.15281" lon="5.55427">
        <ele>1087.8</ele>
        <time>2007-05-21T09:53:08Z</time>
      </trkpt>
      <trkpt lat="45.15227" lon="5.55428">
        <ele>1089.8</ele>
        <time>2007-05-21T09:53:30Z</time>
      </trkpt>
      <trkpt lat="45.15205" lon="5.55405">
        <ele>1088.3</ele>
        <time>2007-05-21T09:53:41Z</time>
      </trkpt>
      <trkpt lat="45.15147" lon="5.5538">
        <ele>1087.2</ele>
        <time>2007-05-21T09:54:08Z</time>
      </trkpt>
      <trkpt lat="45.15127" lon="5.55396">
        <ele>1093.7</ele>
        <time>2007-05-21T09:54:17Z</time>
      </trkpt>
      <trkpt lat="45.15103" lon="5.5541">
        <ele>1100.1</ele>
        <time>2007-05-21T09:54:27Z</time>
      </trkpt>
      <trkpt lat="45.15046" lon="5.55435">
        <ele>1110.9</ele>
        <time>2007-05-21T09:54:51Z</time>
      </trkpt>
      <trkpt lat="45.14989" lon="5.55434">
        <ele>1109.5</ele>
        <time>2007-05-21T09:55:14Z</time>
      </trkpt>
      <trkpt lat="45.14958" lon="5.55434">
        <ele>1112</ele>
        <time>2007-05-21T09:55:26Z</time>
      </trkpt>
      <trkpt lat="45.14901" lon="5.55426">
        <ele>1112.7</ele>
        <time>2007-05-21T09:55:49Z</time>
      </trkpt>
      <trkpt lat="45.1488" lon="5.5542">
        <ele>1111.6</ele>
        <time>2007-05-21T09:55:58Z</time>
      </trkpt>
      <trkpt lat="45.14801" lon="5.55406">
        <ele>1109.8</ele>
        <time>2007-05-21T09:56:30Z</time>
      </trkpt>
      <trkpt lat="45.14775" lon="5.55415">
        <ele>1114</ele>
        <time>2007-05-21T09:56:40Z</time>
      </trkpt>
      <trkpt lat="45.14743" lon="5.55434">
        <ele>1118.6</ele>
        <time>2007-05-21T09:56:55Z</time>
      </trkpt>
      <trkpt lat="45.14733" lon="5.55462">
        <ele>1124.9</ele>
        <time>2007-05-21T09:57:04Z</time>
      </trkpt>
      <trkpt lat="45.14691" lon="5.55531">
        <ele>1134.4</ele>
        <time>2007-05-21T09:57:30Z</time>
      </trkpt>
      <trkpt lat="45.14647" lon="5.55533">
        <ele>1130.3</ele>
        <time>2007-05-21T09:57:48Z</time>
      </trkpt>
      <trkpt lat="45.14614" lon="5.55515">
        <ele>1126.6</ele>
        <time>2007-05-21T09:58:02Z</time>
      </trkpt>
      <trkpt lat="45.14579" lon="5.55508">
        <ele>1126</ele>
        <time>2007-05-21T09:58:16Z</time>
      </trkpt>
      <trkpt lat="45.14529" lon="5.55511">
        <ele>1126.1</ele>
        <time>2007-05-21T09:58:36Z</time>
      </trkpt>
      <trkpt lat="45.14501" lon="5.55515">
        <ele>1126.7</ele>
        <time>2007-05-21T09:58:47Z</time>
      </trkpt>
      <trkpt lat="45.1443" lon="5.55557">
        <ele>1126.2</ele>
        <time>2007-05-21T09:59:18Z</time>
      </trkpt>
      <trkpt lat="45.14405" lon="5.55578">
        <ele>1126.9</ele>
        <time>2007-05-21T09:59:30Z</time>
      </trkpt>
      <trkpt lat="45.14379" lon="5.55613">
        <ele>1130.3</ele>
        <time>2007-05-21T09:59:45Z</time>
      </trkpt>
      <trkpt lat="45.14367" lon="5.55642">
        <ele>1133.7</ele>
        <time>2007-05-21T09:59:54Z</time>
      </trkpt>
      <trkpt lat="45.14347" lon="5.55698">
        <ele>1146.8</ele>
        <time>2007-05-21T10:00:12Z</time>
      </trkpt>
      <trkpt lat="45.1433" lon="5.55717">
        <ele>1150.8</ele>
        <time>2007-05-21T10:00:21Z</time>
      </trkpt>
      <trkpt lat="45.14265" lon="5.55771">
        <ele>1160.6</ele>
        <time>2007-05-21T10:00:51Z</time>
      </trkpt>
      <trkpt lat="45.14228" lon="5.55803">
        <ele>1174.3</ele>
        <time>2007-05-21T10:01:09Z</time>
      </trkpt>
      <trkpt lat="45.142" lon="5.55813">
        <ele>1179</ele>
        <time>2007-05-21T10:01:20Z</time>
      </trkpt>
      <trkpt lat="45.14177" lon="5.55808">
        <ele>1177.3</ele>
        <time>2007-05-21T10:01:30Z</time>
      </trkpt>
      <trkpt lat="45.14152" lon="5.55799">
        <ele>1175.5</ele>
        <time>2007-05-21T10:01:40Z</time>
      </trkpt>
      <trkpt lat="45.14088" lon="5.55779">
        <ele>1174</ele>
        <time>2007-05-21T10:02:06Z</time>
      </trkpt>
      <trkpt lat="45.14001" lon="5.55774">
        <ele>1184.3</ele>
        <time>2007-05-21T10:02:41Z</time>
      </trkpt>
      <trkpt lat="45.13954" lon="5.5577">
        <ele>1189</ele>
        <time>2007-05-21T10:03:00Z</time>
      </trkpt>
      <trkpt lat="45.13855" lon="5.55778">
        <ele>1199.2</ele>
        <time>2007-05-21T10:03:40Z</time>
      </trkpt>
      <trkpt lat="45.13819" lon="5.55792">
        <ele>1203.3</ele>
        <time>2007-05-21T10:03:55Z</time>
      </trkpt>
      <trkpt lat="45.13767" lon="5.5582">
        <ele>1202</ele>
        <time>2007-05-21T10:04:17Z</time>
      </trkpt>
      <trkpt lat="45.13746" lon="5.55833">
        <ele>1199.2</ele>
        <time>2007-05-21T10:04:26Z</time>
      </trkpt>
      <trkpt lat="45.13691" lon="5.5585">
        <ele>1204.5</ele>
        <time>2007-05-21T10:04:49Z</time>
      </trkpt>
      <trkpt lat="45.13664" lon="5.55834">
        <ele>1202.2</ele>
        <time>2007-05-21T10:05:01Z</time>
      </trkpt>
      <trkpt lat="45.13638" lon="5.55823">
        <ele>1204</ele>
        <time>2007-05-21T10:05:12Z</time>
      </trkpt>
      <trkpt lat="45.13585" lon="5.55782">
        <ele>1207.1</ele>
        <time>2007-05-21T10:05:37Z</time>
      </trkpt>
      <trkpt lat="45.13566" lon="5.55783">
        <ele>1208.1</ele>
        <time>2007-05-21T10:05:44Z</time>
      </trkpt>
      <trkpt lat="45.13547" lon="5.55787">
        <ele>1209.1</ele>
        <time>2007-05-21T10:05:52Z</time>
      </trkpt>
      <trkpt lat="45.1349" lon="5.55794">
        <ele>1211.9</ele>
        <time>2007-05-21T10:06:16Z</time>
      </trkpt>
      <trkpt lat="45.1345" lon="5.55812">
        <ele>1212.2</ele>
        <time>2007-05-21T10:06:32Z</time>
      </trkpt>
      <trkpt lat="45.13397" lon="5.5583">
        <ele>1211.8</ele>
        <time>2007-05-21T10:06:54Z</time>
      </trkpt>
      <trkpt lat="45.13373" lon="5.55825">
        <ele>1213</ele>
        <time>2007-05-21T10:07:04Z</time>
      </trkpt>
      <trkpt lat="45.13346" lon="5.55833">
        <ele>1211.9</ele>
        <time>2007-05-21T10:07:15Z</time>
      </trkpt>
      <trkpt lat="45.13302" lon="5.55842">
        <ele>1216.1</ele>
        <time>2007-05-21T10:07:33Z</time>
      </trkpt>
      <trkpt lat="45.13253" lon="5.5585">
        <ele>1220.6</ele>
        <time>2007-05-21T10:07:53Z</time>
      </trkpt>
      <trkpt lat="45.13204" lon="5.55863">
        <ele>1222.6</ele>
        <time>2007-05-21T10:08:13Z</time>
      </trkpt>
      <trkpt lat="45.13181" lon="5.55874">
        <ele>1222.5</ele>
        <time>2007-05-21T10:08:23Z</time>
      </trkpt>
      <trkpt lat="45.13146" lon="5.55907">
        <ele>1220.6</ele>
        <time>2007-05-21T10:08:40Z</time>
      </trkpt>
      <trkpt lat="45.13123" lon="5.55929">
        <ele>1222.4</ele>
        <time>2007-05-21T10:08:51Z</time>
      </trkpt>
      <trkpt lat="45.13106" lon="5.55948">
        <ele>1224.8</ele>
        <time>2007-05-21T10:09:00Z</time>
      </trkpt>
      <trkpt lat="45.13046" lon="5.56008">
        <ele>1227.8</ele>
        <time>2007-05-21T10:09:30Z</time>
      </trkpt>
    </trkseg>
  </trk>
  <trk>
    <name><![CDATA[grande-traversee-du-vercors.gpx]]></name>
    <trkseg>
      <trkpt lat="45.01764" lon="5.29469">
        <ele>277</ele>
      </trkpt>
      <trkpt lat="45.01756" lon="5.29623">
        <ele>271.5</ele>
      </trkpt>
      <trkpt lat="45.01683" lon="5.2997">
        <ele>286.1</ele>
      </trkpt>
      <trkpt lat="45.01681" lon="5.30023">
        <ele>285.5</ele>
      </trkpt>
      <trkpt lat="45.0179" lon="5.30061">
        <ele>283.2</ele>
      </trkpt>
      <trkpt lat="45.0181" lon="5.30131">
        <ele>280.6</ele>
      </trkpt>
      <trkpt lat="45.01887" lon="5.30247">
        <ele>279.5</ele>
      </trkpt>
      <trkpt lat="45.01968" lon="5.30315">
        <ele>281.3</ele>
      </trkpt>
      <trkpt lat="45.02059" lon="5.30421">
        <ele>286</ele>
      </trkpt>
      <trkpt lat="45.02171" lon="5.30459">
        <ele>289.4</ele>
      </trkpt>
      <trkpt lat="45.02265" lon="5.30612">
        <ele>287.8</ele>
      </trkpt>
      <trkpt lat="45.02271" lon="5.3082">
        <ele>289.8</ele>
      </trkpt>
      <trkpt lat="45.02249" lon="5.30941">
        <ele>276.1</ele>
      </trkpt>
      <trkpt lat="45.02226" lon="5.30961">
        <ele>279.2</ele>
      </trkpt>
      <trkpt lat="45.02267" lon="5.30985">
        <ele>268.7</ele>
      </trkpt>
      <trkpt lat="45.02287" lon="5.3106">
        <ele>265.3</ele>
      </trkpt>
      <trkpt lat="45.0228" lon="5.31182">
        <ele>266.1</ele>
      </trkpt>
      <trkpt lat="45.02275" lon="5.31384">
        <ele>268.4</ele>
      </trkpt>
      <trkpt lat="45.0228" lon="5.3148">
        <ele>266.6</ele>
      </trkpt>
      <trkpt lat="45.02143" lon="5.31637">
        <ele>272.1</ele>
      </trkpt>
      <trkpt lat="45.02015" lon="5.31774">
        <ele>274.5</ele>
      </trkpt>
      <trkpt lat="45.01955" lon="5.3192">
        <ele>277.3</ele>
      </trkpt>
      <trkpt lat="45.01935" lon="5.31972">
        <ele>276.8</ele>
      </trkpt>
      <trkpt lat="45.01921" lon="5.32046">
        <ele>274.3</ele>
      </trkpt>
      <trkpt lat="45.01856" lon="5.32233">
        <ele>276.3</ele>
      </trkpt>
      <trkpt lat="45.01817" lon="5.32284">
        <ele>279.6</ele>
      </trkpt>
      <trkpt lat="45.01811" lon="5.32364">
        <ele>275.5</ele>
      </trkpt>
      <trkpt lat="45.01843" lon="5.3244">
        <ele>267.9</ele>
      </trkpt>
      <trkpt lat="45.0189" lon="5.3249">
        <ele>272.4</ele>
      </trkpt>
      <trkpt lat="45.01898" lon="5.32503">
        <ele>274.9</ele>
      </trkpt>
      <trkpt lat="45.01908" lon="5.32475">
        <ele>272.6</ele>
      </trkpt>
      <trkpt lat="45.02003" lon="5.32502">
        <ele>287.6</ele>
      </trkpt>
      <trkpt lat="45.02041" lon="5.32493">
        <ele>287.5</ele>
      </trkpt>
      <trkpt lat="45.021" lon="5.32528">
        <ele>298.6</ele>
      </trkpt>
      <trkpt lat="45.02157" lon="5.32515">
        <ele>297.8</ele>
      </trkpt>
      <trkpt lat="45.02263" lon="5.3251">
        <ele>306.5</ele>
      </trkpt>
      <trkpt lat="45.02358" lon="5.32478">
        <ele>310.5</ele>
      </trkpt>
      <trkpt lat="45.02526" lon="5.32392">
        <ele>313.1</ele>
      </trkpt>
      <trkpt lat="45.02602" lon="5.32523">
        <ele>316.7</ele>
      </trkpt>
      <trkpt lat="45.02772" lon="5.32671">
        <ele>316</ele>
      </trkpt>
      <trkpt lat="45.02813" lon="5.32673">
        <ele>314</ele>
      </trkpt>
      <trkpt lat="45.02888" lon="5.32688">
        <ele>311.7</ele>
      </trkpt>
      <trkpt lat="45.02987" lon="5.32932">
        <ele>309.3</ele>
      </trkpt>
      <trkpt lat="45.03098" lon="5.33167">
        <ele>307.1</ele>
      </trkpt>
      <trkpt lat="45.03198" lon="5.33215">
        <ele>304</ele>
      </trkpt>
      <trkpt lat="45.03424" lon="5.33222">
        <ele>297.8</ele>
      </trkpt>
      <trkpt lat="45.03687" lon="5.33284">
        <ele>292.3</ele>
      </trkpt>
      <trkpt lat="45.03832" lon="5.33467">
        <ele>290.6</ele>
      </trkpt>
      <trkpt lat="45.0394" lon="5.33675">
        <ele>288.4</ele>
      </trkpt>
      <trkpt lat="45.0419" lon="5.33757">
        <ele>290.2</ele>
      </trkpt>
      <trkpt lat="45.04297" lon="5.33838">
        <ele>291.6</ele>
      </trkpt>
      <trkpt lat="45.04484" lon="5.33901">
        <ele>294.5</ele>
      </trkpt>
      <trkpt lat="45.04764" lon="5.34068">
        <ele>296.2</ele>
      </trkpt>
      <trkpt lat="45.04836" lon="5.34086">
        <ele>289.6</ele>
      </trkpt>
      <trkpt lat="45.04909" lon="5.33993">
        <ele>286.5</ele>
      </trkpt>
      <trkpt lat="45.04981" lon="5.33991">
        <ele>279.5</ele>
      </trkpt>
      <trkpt lat="45.05058" lon="5.34094">
        <ele>273.8</ele>
      </trkpt>
      <trkpt lat="45.05135" lon="5.34208">
        <ele>269.9</ele>
      </trkpt>
      <trkpt lat="45.05192" lon="5.3427">
        <ele>262</ele>
      </trkpt>
      <trkpt lat="45.0525" lon="5.343">
        <ele>257</ele>
      </trkpt>
      <trkpt lat="45.05345" lon="5.34245">
        <ele>252.1</ele>
      </trkpt>
      <trkpt lat="45.05413" lon="5.34239">
        <ele>248.6</ele>
      </trkpt>
      <trkpt lat="45.05491" lon="5.34247">
        <ele>242.1</ele>
      </trkpt>
      <trkpt lat="45.05602" lon="5.3421">
        <ele>233.2</ele>
      </trkpt>
      <trkpt lat="45.05662" lon="5.3414">
        <ele>232.4</ele>
      </trkpt>
      <trkpt lat="45.05712" lon="5.3405">
        <ele>244.8</ele>
      </trkpt>
      <trkpt lat="45.0574" lon="5.34045">
        <ele>241.5</ele>
      </trkpt>
      <trkpt lat="45.05729" lon="5.34091">
        <ele>229.9</ele>
      </trkpt>
      <trkpt lat="45.05696" lon="5.34115">
        <ele>231.4</ele>
      </trkpt>
      <trkpt lat="45.05665" lon="5.34213">
        <ele>218.7</ele>
      </trkpt>
      <trkpt lat="45.05619" lon="5.34257">
        <ele>222.1</ele>
      </trkpt>
      <trkpt lat="45.05577" lon="5.34258">
        <ele>229.7</ele>
      </trkpt>
      <trkpt lat="45.05573" lon="5.34321">
        <ele>221.2</ele>
      </trkpt>
      <trkpt lat="45.05663" lon="5.34385">
        <ele>227.8</ele>
      </trkpt>
      <trkpt lat="45.05719" lon="5.34388">
        <ele>230.5</ele>
      </trkpt>
      <trkpt lat="45.05778" lon="5.34361">
        <ele>218.2</ele>
      </trkpt>
      <trkpt lat="45.05844" lon="5.34375">
        <ele>213.7</ele>
      </trkpt>
      <trkpt lat="45.0593" lon="5.34399">
        <ele>211.6</ele>
      </trkpt>
      <trkpt lat="45.05979" lon="5.34405">
        <ele>207.1</ele>
      </trkpt>
      <trkpt lat="45.05998" lon="5.34466">
        <ele>213.8</ele>
      </trkpt>
      <trkpt lat="45.0601" lon="5.34718">
        <ele>260.7</ele>
      </trkpt>
      <trkpt lat="45.06036" lon="5.3472">
        <ele>257.6</ele>
      </trkpt>
      <trkpt lat="45.06098" lon="5.34591">
        <ele>227.8</ele>
      </trkpt>
      <trkpt lat="45.061" lon="5.34518">
        <ele>216.8</ele>
      </trkpt>
      <trkpt lat="45.06124" lon="5.344">
        <ele>212.7</ele>
      </trkpt>
      <trkpt lat="45.06178" lon="5.34327">
        <ele>213.6</ele>
      </trkpt>
      <trkpt lat="45.06233" lon="5.34121">
        <ele>209.3</ele>
      </trkpt>
      <trkpt lat="45.06269" lon="5.34014">
        <ele>205.3</ele>
      </trkpt>
      <trkpt lat="45.06339" lon="5.33859">
        <ele>205.8</ele>
      </trkpt>
      <trkpt lat="45.0634" lon="5.33847">
        <ele>205.2</ele>
      </trkpt>
      <trkpt lat="45.0639" lon="5.33764">
        <ele>203.1</ele>
      </trkpt>
      <trkpt lat="45.06418" lon="5.33718">
        <ele>202</ele>
      </trkpt>
      <trkpt lat="45.06435" lon="5.33652">
        <ele>202.2</ele>
      </trkpt>
      <trkpt lat="45.06465" lon="5.33577">
        <ele>214.7</ele>
      </trkpt>
      <trkpt lat="45.06465" lon="5.33542">
        <ele>230.9</ele>
      </trkpt>
      <trkpt lat="45.06402" lon="5.33482">
        <ele>229.9</ele>
      </trkpt>
      <trkpt lat="45.0634" lon="5.3345">
        <ele>224.1</ele>
      </trkpt>
      <trkpt lat="45.06264" lon="5.33424">
        <ele>215.3</ele>
      </trkpt>
      <trkpt lat="45.06192" lon="5.33267">
        <ele>223.7</ele>
      </trkpt>
      <trkpt lat="45.06156" lon="5.33161">
        <ele>224.3</ele>
      </trkpt>
      <trkpt lat="45.0615" lon="5.33068">
        <ele>230.8</ele>
      </trkpt>
      <trkpt lat="45.06127" lon="5.32984">
        <ele>230.3</ele>
      </trkpt>
      <trkpt lat="45.06173" lon="5.32774">
        <ele>244</ele>
      </trkpt>
      <trkpt lat="45.06217" lon="5.32748">
        <ele>250</ele>
      </trkpt>
      <trkpt lat="45.06354" lon="5.32654">
        <ele>253.2</ele>
      </trkpt>
      <trkpt lat="45.06364" lon="5.3281">
        <ele>253.6</ele>
      </trkpt>
      <trkpt lat="45.06379" lon="5.32931">
        <ele>253.6</ele>
      </trkpt>
      <trkpt lat="45.06419" lon="5.33025">
        <ele>258.3</ele>
      </trkpt>
      <trkpt lat="45.06467" lon="5.33063">
        <ele>268</ele>
      </trkpt>
      <trkpt lat="45.06494" lon="5.33137">
        <ele>276.9</ele>
      </trkpt>
      <trkpt lat="45.06529" lon="5.33184">
        <ele>279.6</ele>
      </trkpt>
      <trkpt lat="45.06558" lon="5.33287">
        <ele>284.9</ele>
      </trkpt>
      <trkpt lat="45.06625" lon="5.33395">
        <ele>291.8</ele>
      </trkpt>
      <trkpt lat="45.06669" lon="5.3335">
        <ele>292.7</ele>
      </trkpt>
      <trkpt lat="45.06695" lon="5.33358">
        <ele>295.1</ele>
      </trkpt>
      <trkpt lat="45.06718" lon="5.33353">
        <ele>296.3</ele>
      </trkpt>
      <trkpt lat="45.06765" lon="5.33355">
        <ele>299.1</ele>
      </trkpt>
      <trkpt lat="45.06838" lon="5.33327">
        <ele>295.7</ele>
      </trkpt>
      <trkpt lat="45.06924" lon="5.333">
        <ele>297.7</ele>
      </trkpt>
      <trkpt lat="45.0701" lon="5.33292">
        <ele>294.8</ele>
      </trkpt>
      <trkpt lat="45.07069" lon="5.3327">
        <ele>289.6</ele>
      </trkpt>
      <trkpt lat="45.07119" lon="5.33254">
        <ele>286.5</ele>
      </trkpt>
      <trkpt lat="45.07163" lon="5.33228">
        <ele>285.9</ele>
      </trkpt>
      <trkpt lat="45.0721" lon="5.33224">
        <ele>292.5</ele>
      </trkpt>
      <trkpt lat="45.07267" lon="5.33281">
        <ele>298.5</ele>
      </trkpt>
      <trkpt lat="45.0731" lon="5.3327">
        <ele>303</ele>
      </trkpt>
      <trkpt lat="45.07381" lon="5.33322">
        <ele>299.5</ele>
      </trkpt>
      <trkpt lat="45.0745" lon="5.33345">
        <ele>299.7</ele>
      </trkpt>
      <trkpt lat="45.07488" lon="5.3335">
        <ele>299.6</ele>
      </trkpt>
      <trkpt lat="45.0753" lon="5.33368">
        <ele>301.8</ele>
      </trkpt>
      <trkpt lat="45.07561" lon="5.33392">
        <ele>304.9</ele>
      </trkpt>
      <trkpt lat="45.07578" lon="5.33428">
        <ele>309.8</ele>
      </trkpt>
      <trkpt lat="45.0759" lon="5.33473">
        <ele>316.1</ele>
      </trkpt>
      <trkpt lat="45.07601" lon="5.33486">
        <ele>318.1</ele>
      </trkpt>
      <trkpt lat="45.07629" lon="5.33459">
        <ele>313.8</ele>
      </trkpt>
      <trkpt lat="45.07657" lon="5.33413">
        <ele>305.6</ele>
      </trkpt>
      <trkpt lat="45.07669" lon="5.33401">
        <ele>303</ele>
      </trkpt>
      <trkpt lat="45.0769" lon="5.33446">
        <ele>309.3</ele>
      </trkpt>
      <trkpt lat="45.07698" lon="5.33482">
        <ele>315.3</ele>
      </trkpt>
      <trkpt lat="45.07742" lon="5.3351">
        <ele>318.3</ele>
      </trkpt>
      <trkpt lat="45.07821" lon="5.33587">
        <ele>324.1</ele>
      </trkpt>
      <trkpt lat="45.07874" lon="5.33644">
        <ele>323.5</ele>
      </trkpt>
      <trkpt lat="45.07892" lon="5.33718">
        <ele>326.7</ele>
      </trkpt>
      <trkpt lat="45.07909" lon="5.33757">
        <ele>327.5</ele>
      </trkpt>
      <trkpt lat="45.07955" lon="5.33651">
        <ele>322.9</ele>
      </trkpt>
      <trkpt lat="45.07982" lon="5.33634">
        <ele>324.1</ele>
      </trkpt>
      <trkpt lat="45.08023" lon="5.33636">
        <ele>325.5</ele>
      </trkpt>
      <trkpt lat="45.08056" lon="5.33638">
        <ele>324.5</ele>
      </trkpt>
      <trkpt lat="45.08098" lon="5.33681">
        <ele>327.5</ele>
      </trkpt>
      <trkpt lat="45.0814" lon="5.33718">
        <ele>331.1</ele>
      </trkpt>
      <trkpt lat="45.08222" lon="5.33758">
        <ele>335.7</ele>
      </trkpt>
      <trkpt lat="45.08294" lon="5.33813">
        <ele>343.5</ele>
      </trkpt>
      <trkpt lat="45.0837" lon="5.33836">
        <ele>347.8</ele>
      </trkpt>
      <trkpt lat="45.08384" lon="5.33827">
        <ele>348.6</ele>
      </trkpt>
      <trkpt lat="45.08395" lon="5.33777">
        <ele>349</ele>
      </trkpt>
      <trkpt lat="45.08425" lon="5.33835">
        <ele>352.7</ele>
      </trkpt>
      <trkpt lat="45.08464" lon="5.33888">
        <ele>360.6</ele>
      </trkpt>
      <trkpt lat="45.085" lon="5.33935">
        <ele>366.5</ele>
      </trkpt>
      <trkpt lat="45.08519" lon="5.33993">
        <ele>369.3</ele>
      </trkpt>
      <trkpt lat="45.08516" lon="5.34018">
        <ele>371</ele>
      </trkpt>
      <trkpt lat="45.085" lon="5.3404">
        <ele>372.3</ele>
      </trkpt>
      <trkpt lat="45.08499" lon="5.34062">
        <ele>374.6</ele>
      </trkpt>
      <trkpt lat="45.08513" lon="5.34059">
        <ele>375</ele>
      </trkpt>
      <trkpt lat="45.08534" lon="5.34035">
        <ele>373.7</ele>
      </trkpt>
      <trkpt lat="45.08566" lon="5.33999">
        <ele>372.8</ele>
      </trkpt>
      <trkpt lat="45.08587" lon="5.33974">
        <ele>374.3</ele>
      </trkpt>
      <trkpt lat="45.08586" lon="5.34025">
        <ele>375.5</ele>
      </trkpt>
      <trkpt lat="45.0858" lon="5.34149">
        <ele>387.8</ele>
      </trkpt>
      <trkpt lat="45.08565" lon="5.34227">
        <ele>398.2</ele>
      </trkpt>
      <trkpt lat="45.08536" lon="5.34283">
        <ele>409.1</ele>
      </trkpt>
      <trkpt lat="45.08529" lon="5.34365">
        <ele>426.9</ele>
      </trkpt>
      <trkpt lat="45.08519" lon="5.34416">
        <ele>438.6</ele>
      </trkpt>
      <trkpt lat="45.08493" lon="5.34455">
        <ele>449.9</ele>
      </trkpt>
      <trkpt lat="45.08543" lon="5.34461">
        <ele>447.9</ele>
      </trkpt>
      <trkpt lat="45.08581" lon="5.34463">
        <ele>445.3</ele>
      </trkpt>
      <trkpt lat="45.08643" lon="5.34502">
        <ele>447.9</ele>
      </trkpt>
      <trkpt lat="45.08703" lon="5.34508">
        <ele>446.8</ele>
      </trkpt>
      <trkpt lat="45.08796" lon="5.34491">
        <ele>438.7</ele>
      </trkpt>
      <trkpt lat="45.08882" lon="5.3447">
        <ele>432.6</ele>
      </trkpt>
      <trkpt lat="45.08961" lon="5.34481">
        <ele>439.3</ele>
      </trkpt>
      <trkpt lat="45.09015" lon="5.34461">
        <ele>440.1</ele>
      </trkpt>
      <trkpt lat="45.0905" lon="5.34435">
        <ele>437</ele>
      </trkpt>
      <trkpt lat="45.09134" lon="5.34401">
        <ele>427.3</ele>
      </trkpt>
      <trkpt lat="45.09222" lon="5.34403">
        <ele>418.4</ele>
      </trkpt>
      <trkpt lat="45.09273" lon="5.34399">
        <ele>415.4</ele>
      </trkpt>
      <trkpt lat="45.09315" lon="5.34357">
        <ele>411.8</ele>
      </trkpt>
      <trkpt lat="45.09356" lon="5.34327">
        <ele>406.2</ele>
      </trkpt>
      <trkpt lat="45.09379" lon="5.34306">
        <ele>401.3</ele>
      </trkpt>
      <trkpt lat="45.09367" lon="5.34366">
        <ele>409.5</ele>
      </trkpt>
      <trkpt lat="45.09381" lon="5.34402">
        <ele>412.8</ele>
      </trkpt>
      <trkpt lat="45.09453" lon="5.34425">
        <ele>412.5</ele>
      </trkpt>
      <trkpt lat="45.09484" lon="5.34433">
        <ele>412.7</ele>
      </trkpt>
      <trkpt lat="45.09539" lon="5.3449">
        <ele>416.6</ele>
      </trkpt>
      <trkpt lat="45.09568" lon="5.34504">
        <ele>415.9</ele>
      </trkpt>
      <trkpt lat="45.09572" lon="5.34574">
        <ele>425.8</ele>
      </trkpt>
      <trkpt lat="45.09633" lon="5.34647">
        <ele>429.9</ele>
      </trkpt>
      <trkpt lat="45.09671" lon="5.34595">
        <ele>425</ele>
      </trkpt>
      <trkpt lat="45.09735" lon="5.3457">
        <ele>428.1</ele>
      </trkpt>
      <trkpt lat="45.09757" lon="5.34565">
        <ele>428.5</ele>
      </trkpt>
      <trkpt lat="45.09786" lon="5.34598">
        <ele>428.5</ele>
      </trkpt>
      <trkpt lat="45.09828" lon="5.34623">
        <ele>426.8</ele>
      </trkpt>
      <trkpt lat="45.09851" lon="5.34669">
        <ele>426.9</ele>
      </trkpt>
      <trkpt lat="45.09872" lon="5.34717">
        <ele>429.1</ele>
      </trkpt>
      <trkpt lat="45.09909" lon="5.34758">
        <ele>429.9</ele>
      </trkpt>
      <trkpt lat="45.09961" lon="5.34782">
        <ele>427.5</ele>
      </trkpt>
      <trkpt lat="45.10003" lon="5.34807">
        <ele>426</ele>
      </trkpt>
      <trkpt lat="45.10069" lon="5.34862">
        <ele>427.6</ele>
      </trkpt>
      <trkpt lat="45.10092" lon="5.34904">
        <ele>430.3</ele>
      </trkpt>
      <trkpt lat="45.10128" lon="5.34916">
        <ele>429.7</ele>
      </trkpt>
      <trkpt lat="45.1015" lon="5.3492">
        <ele>429.1</ele>
      </trkpt>
      <trkpt lat="45.10174" lon="5.34956">
        <ele>429.8</ele>
      </trkpt>
      <trkpt lat="45.10191" lon="5.34989">
        <ele>430.1</ele>
      </trkpt>
      <trkpt lat="45.1021" lon="5.35044">
        <ele>433</ele>
      </trkpt>
      <trkpt lat="45.10255" lon="5.35116">
        <ele>435.4</ele>
      </trkpt>
      <trkpt lat="45.10297" lon="5.3516">
        <ele>437.7</ele>
      </trkpt>
      <trkpt lat="45.10345" lon="5.35204">
        <ele>440.9</ele>
      </trkpt>
      <trkpt lat="45.10385" lon="5.35231">
        <ele>445.6</ele>
      </trkpt>
      <trkpt lat="45.10425" lon="5.3524">
        <ele>448.3</ele>
      </trkpt>
      <trkpt lat="45.10448" lon="5.35238">
        <ele>451.1</ele>
      </trkpt>
      <trkpt lat="45.10473" lon="5.35211">
        <ele>452.5</ele>
      </trkpt>
      <trkpt lat="45.10515" lon="5.35159">
        <ele>453</ele>
      </trkpt>
      <trkpt lat="45.10561" lon="5.3513">
        <ele>452.9</ele>
      </trkpt>
      <trkpt lat="45.10586" lon="5.35131">
        <ele>453.8</ele>
      </trkpt>
      <trkpt lat="45.106" lon="5.35179">
        <ele>456.8</ele>
      </trkpt>
      <trkpt lat="45.10604" lon="5.35215">
        <ele>460.3</ele>
      </trkpt>
      <trkpt lat="45.10594" lon="5.3524">
        <ele>462.8</ele>
      </trkpt>
      <trkpt lat="45.10575" lon="5.35267">
        <ele>464.9</ele>
      </trkpt>
      <trkpt lat="45.10551" lon="5.35323">
        <ele>467.9</ele>
      </trkpt>
      <trkpt lat="45.10565" lon="5.35391">
        <ele>474.3</ele>
      </trkpt>
      <trkpt lat="45.10588" lon="5.35446">
        <ele>478</ele>
      </trkpt>
      <trkpt lat="45.10596" lon="5.35487">
        <ele>478.8</ele>
      </trkpt>
      <trkpt lat="45.10604" lon="5.35539">
        <ele>475.9</ele>
      </trkpt>
      <trkpt lat="45.10603" lon="5.35538">
        <ele>476.1</ele>
      </trkpt>
      <trkpt lat="45.10573" lon="5.35584">
        <ele>481.8</ele>
      </trkpt>
      <trkpt lat="45.10574" lon="5.35657">
        <ele>482</ele>
      </trkpt>
      <trkpt lat="45.10557" lon="5.35713">
        <ele>494.6</ele>
      </trkpt>
      <trkpt lat="45.1061" lon="5.35781">
        <ele>476</ele>
      </trkpt>
      <trkpt lat="45.1064" lon="5.35829">
        <ele>472.4</ele>
      </trkpt>
      <trkpt lat="45.10633" lon="5.35886">
        <ele>489.1</ele>
      </trkpt>
      <trkpt lat="45.10656" lon="5.35877">
        <ele>477.5</ele>
      </trkpt>
      <trkpt lat="45.10694" lon="5.35828">
        <ele>467</ele>
      </trkpt>
      <trkpt lat="45.10703" lon="5.358">
        <ele>464.3</ele>
      </trkpt>
      <trkpt lat="45.10723" lon="5.35745">
        <ele>457.8</ele>
      </trkpt>
      <trkpt lat="45.10815" lon="5.35704">
        <ele>462</ele>
      </trkpt>
      <trkpt lat="45.10868" lon="5.35696">
        <ele>464.1</ele>
      </trkpt>
      <trkpt lat="45.10868" lon="5.35704">
        <ele>467.3</ele>
      </trkpt>
      <trkpt lat="45.10869" lon="5.35705">
        <ele>468.1</ele>
      </trkpt>
      <trkpt lat="45.10837" lon="5.35748">
        <ele>483.6</ele>
      </trkpt>
      <trkpt lat="45.10794" lon="5.35768">
        <ele>478.5</ele>
      </trkpt>
      <trkpt lat="45.10791" lon="5.35794">
        <ele>484.4</ele>
      </trkpt>
      <trkpt lat="45.10825" lon="5.3577">
        <ele>488.1</ele>
      </trkpt>
      <trkpt lat="45.10856" lon="5.35772">
        <ele>493.2</ele>
      </trkpt>
      <trkpt lat="45.10817" lon="5.35801">
        <ele>495.4</ele>
      </trkpt>
      <trkpt lat="45.10796" lon="5.35826">
        <ele>495.2</ele>
      </trkpt>
      <trkpt lat="45.10778" lon="5.3591">
        <ele>510</ele>
      </trkpt>
      <trkpt lat="45.10766" lon="5.35948">
        <ele>521.2</ele>
      </trkpt>
      <trkpt lat="45.10736" lon="5.35959">
        <ele>519.1</ele>
      </trkpt>
      <trkpt lat="45.107" lon="5.35976">
        <ele>518.2</ele>
      </trkpt>
      <trkpt lat="45.10677" lon="5.35985">
        <ele>516.5</ele>
      </trkpt>
      <trkpt lat="45.1067" lon="5.36006">
        <ele>522.5</ele>
      </trkpt>
      <trkpt lat="45.10676" lon="5.36048">
        <ele>528.8</ele>
      </trkpt>
      <trkpt lat="45.10698" lon="5.36062">
        <ele>539.1</ele>
      </trkpt>
      <trkpt lat="45.1071" lon="5.36091">
        <ele>548.2</ele>
      </trkpt>
      <trkpt lat="45.10725" lon="5.3614">
        <ele>553.8</ele>
      </trkpt>
      <trkpt lat="45.10732" lon="5.36219">
        <ele>557.2</ele>
      </trkpt>
      <trkpt lat="45.10732" lon="5.36286">
        <ele>563.1</ele>
      </trkpt>
      <trkpt lat="45.10729" lon="5.36318">
        <ele>566.4</ele>
      </trkpt>
      <trkpt lat="45.1075" lon="5.36297">
        <ele>572.6</ele>
      </trkpt>
      <trkpt lat="45.10761" lon="5.36234">
        <ele>570.8</ele>
      </trkpt>
      <trkpt lat="45.10756" lon="5.36154">
        <ele>568.3</ele>
      </trkpt>
      <trkpt lat="45.10749" lon="5.3609">
        <ele>565.3</ele>
      </trkpt>
      <trkpt lat="45.10776" lon="5.36155">
        <ele>579.1</ele>
      </trkpt>
      <trkpt lat="45.10791" lon="5.36204">
        <ele>586.5</ele>
      </trkpt>
      <trkpt lat="45.10804" lon="5.36281">
        <ele>589</ele>
      </trkpt>
      <trkpt lat="45.10821" lon="5.36345">
        <ele>591.1</ele>
      </trkpt>
      <trkpt lat="45.10803" lon="5.36398">
        <ele>597.5</ele>
      </trkpt>
      <trkpt lat="45.10786" lon="5.36445">
        <ele>607.9</ele>
      </trkpt>
      <trkpt lat="45.10774" lon="5.36479">
        <ele>618</ele>
      </trkpt>
      <trkpt lat="45.10726" lon="5.36524">
        <ele>629.5</ele>
      </trkpt>
      <trkpt lat="45.10705" lon="5.36618">
        <ele>649.2</ele>
      </trkpt>
      <trkpt lat="45.10679" lon="5.36674">
        <ele>661.7</ele>
      </trkpt>
      <trkpt lat="45.10648" lon="5.3673">
        <ele>668.4</ele>
      </trkpt>
      <trkpt lat="45.10626" lon="5.36786">
        <ele>669.9</ele>
      </trkpt>
      <trkpt lat="45.1062" lon="5.36849">
        <ele>675</ele>
      </trkpt>
      <trkpt lat="45.10612" lon="5.36884">
        <ele>679.7</ele>
      </trkpt>
      <trkpt lat="45.10609" lon="5.36928">
        <ele>685.9</ele>
      </trkpt>
      <trkpt lat="45.10578" lon="5.36971">
        <ele>700.3</ele>
      </trkpt>
      <trkpt lat="45.10557" lon="5.37011">
        <ele>709.3</ele>
      </trkpt>
      <trkpt lat="45.10558" lon="5.37059">
        <ele>714.5</ele>
      </trkpt>
      <trkpt lat="45.10528" lon="5.37095">
        <ele>727.5</ele>
      </trkpt>
      <trkpt lat="45.10505" lon="5.37105">
        <ele>736</ele>
      </trkpt>
      <trkpt lat="45.10508" lon="5.37145">
        <ele>741.2</ele>
      </trkpt>
      <trkpt lat="45.10507" lon="5.37186">
        <ele>746.6</ele>
      </trkpt>
      <trkpt lat="45.10507" lon="5.37251">
        <ele>751.8</ele>
      </trkpt>
      <trkpt lat="45.10506" lon="5.37303">
        <ele>756.4</ele>
      </trkpt>
      <trkpt lat="45.105" lon="5.3736">
        <ele>764.2</ele>
      </trkpt>
      <trkpt lat="45.105" lon="5.37383">
        <ele>767</ele>
      </trkpt>
      <trkpt lat="45.10487" lon="5.37415">
        <ele>773.4</ele>
      </trkpt>
      <trkpt lat="45.10483" lon="5.37442">
        <ele>776.3</ele>
      </trkpt>
      <trkpt lat="45.1048" lon="5.37482">
        <ele>780</ele>
      </trkpt>
      <trkpt lat="45.10479" lon="5.37518">
        <ele>783.1</ele>
      </trkpt>
      <trkpt lat="45.10463" lon="5.37501">
        <ele>784.4</ele>
      </trkpt>
      <trkpt lat="45.10409" lon="5.37433">
        <ele>790.4</ele>
      </trkpt>
      <trkpt lat="45.10379" lon="5.37401">
        <ele>795</ele>
      </trkpt>
      <trkpt lat="45.10368" lon="5.3738">
        <ele>796.2</ele>
      </trkpt>
      <trkpt lat="45.10358" lon="5.37324">
        <ele>795.1</ele>
      </trkpt>
      <trkpt lat="45.10355" lon="5.37325">
        <ele>795.7</ele>
      </trkpt>
      <trkpt lat="45.10306" lon="5.37335">
        <ele>801.5</ele>
      </trkpt>
      <trkpt lat="45.10241" lon="5.37394">
        <ele>815</ele>
      </trkpt>
      <trkpt lat="45.10174" lon="5.37414">
        <ele>823.2</ele>
      </trkpt>
      <trkpt lat="45.10141" lon="5.37418">
        <ele>829.2</ele>
      </trkpt>
      <trkpt lat="45.10128" lon="5.37371">
        <ele>825.5</ele>
      </trkpt>
      <trkpt lat="45.101" lon="5.37316">
        <ele>824.3</ele>
      </trkpt>
      <trkpt lat="45.10078" lon="5.37293">
        <ele>825.5</ele>
      </trkpt>
      <trkpt lat="45.10029" lon="5.37293">
        <ele>833</ele>
      </trkpt>
      <trkpt lat="45.09993" lon="5.37329">
        <ele>843.7</ele>
      </trkpt>
      <trkpt lat="45.09967" lon="5.37303">
        <ele>845.1</ele>
      </trkpt>
      <trkpt lat="45.09934" lon="5.37253">
        <ele>843.3</ele>
      </trkpt>
      <trkpt lat="45.09813" lon="5.37317">
        <ele>883.6</ele>
      </trkpt>
      <trkpt lat="45.09789" lon="5.37286">
        <ele>886.1</ele>
      </trkpt>
      <trkpt lat="45.09803" lon="5.37235">
        <ele>875.6</ele>
      </trkpt>
      <trkpt lat="45.098" lon="5.37206">
        <ele>876.3</ele>
      </trkpt>
      <trkpt lat="45.098" lon="5.37168">
        <ele>876.2</ele>
      </trkpt>
      <trkpt lat="45.09802" lon="5.37138">
        <ele>874.2</ele>
      </trkpt>
      <trkpt lat="45.09802" lon="5.37074">
        <ele>871.5</ele>
      </trkpt>
      <trkpt lat="45.09782" lon="5.37043">
        <ele>875.1</ele>
      </trkpt>
      <trkpt lat="45.09764" lon="5.37021">
        <ele>878.8</ele>
      </trkpt>
      <trkpt lat="45.0972" lon="5.36943">
        <ele>876.6</ele>
      </trkpt>
      <trkpt lat="45.0969" lon="5.36941">
        <ele>884.9</ele>
      </trkpt>
      <trkpt lat="45.09685" lon="5.36954">
        <ele>889.5</ele>
      </trkpt>
      <trkpt lat="45.09713" lon="5.36994">
        <ele>891</ele>
      </trkpt>
      <trkpt lat="45.09738" lon="5.37065">
        <ele>894</ele>
      </trkpt>
      <trkpt lat="45.09736" lon="5.37113">
        <ele>899.1</ele>
      </trkpt>
      <trkpt lat="45.09706" lon="5.37187">
        <ele>921</ele>
      </trkpt>
      <trkpt lat="45.09688" lon="5.37264">
        <ele>931.1</ele>
      </trkpt>
      <trkpt lat="45.09696" lon="5.37404">
        <ele>941.8</ele>
      </trkpt>
      <trkpt lat="45.09705" lon="5.37472">
        <ele>953.7</ele>
      </trkpt>
      <trkpt lat="45.09823" lon="5.37487">
        <ele>936.3</ele>
      </trkpt>
      <trkpt lat="45.09836" lon="5.3752">
        <ele>943.6</ele>
      </trkpt>
      <trkpt lat="45.09882" lon="5.37587">
        <ele>949.3</ele>
      </trkpt>
      <trkpt lat="45.09925" lon="5.37608">
        <ele>940.7</ele>
      </trkpt>
      <trkpt lat="45.09921" lon="5.37601">
        <ele>940.5</ele>
      </trkpt>
      <trkpt lat="45.09937" lon="5.37644">
        <ele>942.8</ele>
      </trkpt>
      <trkpt lat="45.09961" lon="5.37723">
        <ele>937</ele>
      </trkpt>
      <trkpt lat="45.1002" lon="5.37763">
        <ele>936.8</ele>
      </trkpt>
      <trkpt lat="45.10043" lon="5.37768">
        <ele>939.4</ele>
      </trkpt>
      <trkpt lat="45.10068" lon="5.37794">
        <ele>941</ele>
      </trkpt>
      <trkpt lat="45.10095" lon="5.37856">
        <ele>942</ele>
      </trkpt>
      <trkpt lat="45.10101" lon="5.37882">
        <ele>941.8</ele>
      </trkpt>
      <trkpt lat="45.10082" lon="5.37935">
        <ele>940.3</ele>
      </trkpt>
      <trkpt lat="45.10065" lon="5.37975">
        <ele>943.9</ele>
      </trkpt>
      <trkpt lat="45.10052" lon="5.38025">
        <ele>949.6</ele>
      </trkpt>
      <trkpt lat="45.10006" lon="5.38055">
        <ele>948.1</ele>
      </trkpt>
      <trkpt lat="45.09957" lon="5.38116">
        <ele>953.7</ele>
      </trkpt>
      <trkpt lat="45.09866" lon="5.38184">
        <ele>952</ele>
      </trkpt>
      <trkpt lat="45.09836" lon="5.38211">
        <ele>950.2</ele>
      </trkpt>
      <trkpt lat="45.09786" lon="5.38294">
        <ele>950.6</ele>
      </trkpt>
      <trkpt lat="45.09717" lon="5.38344">
        <ele>948</ele>
      </trkpt>
      <trkpt lat="45.09691" lon="5.38378">
        <ele>945.6</ele>
      </trkpt>
      <trkpt lat="45.09684" lon="5.38409">
        <ele>944.9</ele>
      </trkpt>
      <trkpt lat="45.09696" lon="5.38441">
        <ele>943</ele>
      </trkpt>
      <trkpt lat="45.09725" lon="5.38452">
        <ele>943.1</ele>
      </trkpt>
      <trkpt lat="45.09748" lon="5.38444">
        <ele>944.9</ele>
      </trkpt>
      <trkpt lat="45.09765" lon="5.38474">
        <ele>943.2</ele>
      </trkpt>
      <trkpt lat="45.09771" lon="5.38493">
        <ele>942.2</ele>
      </trkpt>
      <trkpt lat="45.09777" lon="5.38522">
        <ele>940.4</ele>
      </trkpt>
      <trkpt lat="45.09813" lon="5.3854">
        <ele>944.4</ele>
      </trkpt>
      <trkpt lat="45.09857" lon="5.38561">
        <ele>947.5</ele>
      </trkpt>
      <trkpt lat="45.09878" lon="5.38556">
        <ele>948.2</ele>
      </trkpt>
      <trkpt lat="45.09914" lon="5.38558">
        <ele>949.2</ele>
      </trkpt>
      <trkpt lat="45.09975" lon="5.38539">
        <ele>950.5</ele>
      </trkpt>
      <trkpt lat="45.10083" lon="5.38526">
        <ele>954.3</ele>
      </trkpt>
      <trkpt lat="45.10169" lon="5.38524">
        <ele>958.6</ele>
      </trkpt>
      <trkpt lat="45.10254" lon="5.38532">
        <ele>960.9</ele>
      </trkpt>
      <trkpt lat="45.10323" lon="5.38558">
        <ele>962.5</ele>
      </trkpt>
      <trkpt lat="45.10361" lon="5.38583">
        <ele>964.3</ele>
      </trkpt>
      <trkpt lat="45.104" lon="5.38645">
        <ele>970.5</ele>
      </trkpt>
      <trkpt lat="45.10461" lon="5.38699">
        <ele>968.6</ele>
      </trkpt>
      <trkpt lat="45.1051" lon="5.38734">
        <ele>963.6</ele>
      </trkpt>
      <trkpt lat="45.10506" lon="5.38784">
        <ele>973.5</ele>
      </trkpt>
      <trkpt lat="45.10534" lon="5.38837">
        <ele>976.7</ele>
      </trkpt>
      <trkpt lat="45.10561" lon="5.38918">
        <ele>980.1</ele>
      </trkpt>
      <trkpt lat="45.1062" lon="5.38969">
        <ele>972</ele>
      </trkpt>
      <trkpt lat="45.10628" lon="5.39007">
        <ele>974</ele>
      </trkpt>
      <trkpt lat="45.10664" lon="5.39012">
        <ele>971.7</ele>
      </trkpt>
      <trkpt lat="45.10796" lon="5.39128">
        <ele>980.4</ele>
      </trkpt>
      <trkpt lat="45.1088" lon="5.39202">
        <ele>987.6</ele>
      </trkpt>
      <trkpt lat="45.10924" lon="5.39233">
        <ele>992.9</ele>
      </trkpt>
      <trkpt lat="45.10956" lon="5.39283">
        <ele>998.1</ele>
      </trkpt>
      <trkpt lat="45.10989" lon="5.39326">
        <ele>1001.8</ele>
      </trkpt>
      <trkpt lat="45.11042" lon="5.39364">
        <ele>1003.7</ele>
      </trkpt>
      <trkpt lat="45.1108" lon="5.39378">
        <ele>1004.7</ele>
      </trkpt>
      <trkpt lat="45.11134" lon="5.39448">
        <ele>1009.1</ele>
      </trkpt>
      <trkpt lat="45.11154" lon="5.39516">
        <ele>1007.8</ele>
      </trkpt>
      <trkpt lat="45.11175" lon="5.39587">
        <ele>1003.8</ele>
      </trkpt>
      <trkpt lat="45.11207" lon="5.39656">
        <ele>1004.3</ele>
      </trkpt>
      <trkpt lat="45.11262" lon="5.39684">
        <ele>1005.1</ele>
      </trkpt>
      <trkpt lat="45.11295" lon="5.39714">
        <ele>1006.4</ele>
      </trkpt>
      <trkpt lat="45.11327" lon="5.3978">
        <ele>1004.4</ele>
      </trkpt>
      <trkpt lat="45.11372" lon="5.39852">
        <ele>998.6</ele>
      </trkpt>
      <trkpt lat="45.1144" lon="5.39923">
        <ele>1000.8</ele>
      </trkpt>
      <trkpt lat="45.115" lon="5.39961">
        <ele>1001.9</ele>
      </trkpt>
      <trkpt lat="45.11559" lon="5.40012">
        <ele>1005.5</ele>
      </trkpt>
      <trkpt lat="45.11585" lon="5.40048">
        <ele>1008.3</ele>
      </trkpt>
      <trkpt lat="45.11627" lon="5.40092">
        <ele>1013.3</ele>
      </trkpt>
      <trkpt lat="45.11655" lon="5.40128">
        <ele>1015.7</ele>
      </trkpt>
      <trkpt lat="45.1172" lon="5.40161">
        <ele>1018.7</ele>
      </trkpt>
      <trkpt lat="45.11773" lon="5.40192">
        <ele>1021.4</ele>
      </trkpt>
      <trkpt lat="45.11805" lon="5.40235">
        <ele>1025.8</ele>
      </trkpt>
      <trkpt lat="45.11834" lon="5.40262">
        <ele>1031.8</ele>
      </trkpt>
      <trkpt lat="45.11894" lon="5.40278">
        <ele>1034.6</ele>
      </trkpt>
      <trkpt lat="45.11868" lon="5.40315">
        <ele>1040</ele>
      </trkpt>
      <trkpt lat="45.11873" lon="5.40391">
        <ele>1058.5</ele>
      </trkpt>
      <trkpt lat="45.11908" lon="5.40428">
        <ele>1072.5</ele>
      </trkpt>
      <trkpt lat="45.11952" lon="5.40475">
        <ele>1080.5</ele>
      </trkpt>
      <trkpt lat="45.11975" lon="5.40534">
        <ele>1087</ele>
      </trkpt>
      <trkpt lat="45.12012" lon="5.4058">
        <ele>1089.2</ele>
      </trkpt>
      <trkpt lat="45.12055" lon="5.40637">
        <ele>1089</ele>
      </trkpt>
      <trkpt lat="45.12124" lon="5.40688">
        <ele>1093.8</ele>
      </trkpt>
      <trkpt lat="45.12163" lon="5.40735">
        <ele>1102.2</ele>
      </trkpt>
      <trkpt lat="45.12253" lon="5.4081">
        <ele>1115.5</ele>
      </trkpt>
      <trkpt lat="45.12299" lon="5.40854">
        <ele>1121.8</ele>
      </trkpt>
      <trkpt lat="45.12304" lon="5.40902">
        <ele>1140</ele>
      </trkpt>
      <trkpt lat="45.12355" lon="5.40962">
        <ele>1156.1</ele>
      </trkpt>
      <trkpt lat="45.1238" lon="5.41014">
        <ele>1171.6</ele>
      </trkpt>
      <trkpt lat="45.12424" lon="5.41045">
        <ele>1179</ele>
      </trkpt>
      <trkpt lat="45.12482" lon="5.4108">
        <ele>1186.4</ele>
      </trkpt>
      <trkpt lat="45.1253" lon="5.4113">
        <ele>1192.3</ele>
      </trkpt>
      <trkpt lat="45.12552" lon="5.41138">
        <ele>1193.9</ele>
      </trkpt>
      <trkpt lat="45.12578" lon="5.41184">
        <ele>1212.1</ele>
      </trkpt>
      <trkpt lat="45.12623" lon="5.41196">
        <ele>1213.8</ele>
      </trkpt>
      <trkpt lat="45.12665" lon="5.41287">
        <ele>1239.7</ele>
      </trkpt>
      <trkpt lat="45.12758" lon="5.41334">
        <ele>1256.2</ele>
      </trkpt>
      <trkpt lat="45.12778" lon="5.41338">
        <ele>1258.8</ele>
      </trkpt>
      <trkpt lat="45.1284" lon="5.41322">
        <ele>1261.8</ele>
      </trkpt>
      <trkpt lat="45.12923" lon="5.41333">
        <ele>1273.7</ele>
      </trkpt>
      <trkpt lat="45.12952" lon="5.41335">
        <ele>1277.4</ele>
      </trkpt>
      <trkpt lat="45.12977" lon="5.41327">
        <ele>1277.5</ele>
      </trkpt>
      <trkpt lat="45.13006" lon="5.41338">
        <ele>1284.2</ele>
      </trkpt>
      <trkpt lat="45.13047" lon="5.41308">
        <ele>1280.5</ele>
      </trkpt>
      <trkpt lat="45.13118" lon="5.41344">
        <ele>1297.9</ele>
      </trkpt>
      <trkpt lat="45.13148" lon="5.4132">
        <ele>1293.5</ele>
      </trkpt>
      <trkpt lat="45.13205" lon="5.41298">
        <ele>1285.5</ele>
      </trkpt>
      <trkpt lat="45.13263" lon="5.41234">
        <ele>1264.6</ele>
      </trkpt>
      <trkpt lat="45.13324" lon="5.41216">
        <ele>1259.1</ele>
      </trkpt>
      <trkpt lat="45.13404" lon="5.41245">
        <ele>1249.1</ele>
      </trkpt>
      <trkpt lat="45.13471" lon="5.4129">
        <ele>1238.7</ele>
      </trkpt>
      <trkpt lat="45.13566" lon="5.41423">
        <ele>1222.7</ele>
      </trkpt>
      <trkpt lat="45.13622" lon="5.41506">
        <ele>1207.7</ele>
      </trkpt>
      <trkpt lat="45.13641" lon="5.41554">
        <ele>1206.5</ele>
      </trkpt>
      <trkpt lat="45.13683" lon="5.41588">
        <ele>1198.4</ele>
      </trkpt>
      <trkpt lat="45.13731" lon="5.41648">
        <ele>1196.2</ele>
      </trkpt>
      <trkpt lat="45.13764" lon="5.41679">
        <ele>1193.5</ele>
      </trkpt>
      <trkpt lat="45.13799" lon="5.417">
        <ele>1190.5</ele>
      </trkpt>
      <trkpt lat="45.13825" lon="5.41727">
        <ele>1188.6</ele>
      </trkpt>
      <trkpt lat="45.13866" lon="5.41716">
        <ele>1182.8</ele>
      </trkpt>
      <trkpt lat="45.13896" lon="5.41702">
        <ele>1178.3</ele>
      </trkpt>
      <trkpt lat="45.13923" lon="5.41707">
        <ele>1175.8</ele>
      </trkpt>
      <trkpt lat="45.13936" lon="5.41707">
        <ele>1174.8</ele>
      </trkpt>
      <trkpt lat="45.13959" lon="5.41772">
        <ele>1178.4</ele>
      </trkpt>
      <trkpt lat="45.13966" lon="5.41776">
        <ele>1178.1</ele>
      </trkpt>
      <trkpt lat="45.13985" lon="5.41754">
        <ele>1175.4</ele>
      </trkpt>
      <trkpt lat="45.14015" lon="5.41728">
        <ele>1170.5</ele>
      </trkpt>
      <trkpt lat="45.14024" lon="5.41718">
        <ele>1168.7</ele>
      </trkpt>
      <trkpt lat="45.14025" lon="5.41744">
        <ele>1171.8</ele>
      </trkpt>
      <trkpt lat="45.14036" lon="5.41767">
        <ele>1172.7</ele>
      </trkpt>
      <trkpt lat="45.14044" lon="5.41806">
        <ele>1174</ele>
      </trkpt>
      <trkpt lat="45.14056" lon="5.41838">
        <ele>1174.4</ele>
      </trkpt>
      <trkpt lat="45.14082" lon="5.41881">
        <ele>1169.7</ele>
      </trkpt>
      <trkpt lat="45.1412" lon="5.41889">
        <ele>1165.7</ele>
      </trkpt>
      <trkpt lat="45.14153" lon="5.41917">
        <ele>1161.1</ele>
      </trkpt>
      <trkpt lat="45.14178" lon="5.41937">
        <ele>1157.4</ele>
      </trkpt>
      <trkpt lat="45.14177" lon="5.41953">
        <ele>1156.1</ele>
      </trkpt>
      <trkpt lat="45.1415" lon="5.41967">
        <ele>1156.3</ele>
      </trkpt>
      <trkpt lat="45.141" lon="5.41964">
        <ele>1160.1</ele>
      </trkpt>
      <trkpt lat="45.14067" lon="5.42036">
        <ele>1151.7</ele>
      </trkpt>
      <trkpt lat="45.14039" lon="5.42063">
        <ele>1151</ele>
      </trkpt>
      <trkpt lat="45.14014" lon="5.42081">
        <ele>1152.9</ele>
      </trkpt>
      <trkpt lat="45.14039" lon="5.4213">
        <ele>1144.1</ele>
      </trkpt>
      <trkpt lat="45.14066" lon="5.42147">
        <ele>1136.5</ele>
      </trkpt>
      <trkpt lat="45.14085" lon="5.42177">
        <ele>1128.2</ele>
      </trkpt>
      <trkpt lat="45.14064" lon="5.4221">
        <ele>1129.9</ele>
      </trkpt>
      <trkpt lat="45.1405" lon="5.42242">
        <ele>1131.1</ele>
      </trkpt>
      <trkpt lat="45.14044" lon="5.42298">
        <ele>1126.1</ele>
      </trkpt>
      <trkpt lat="45.14048" lon="5.42372">
        <ele>1118</ele>
      </trkpt>
      <trkpt lat="45.14071" lon="5.42433">
        <ele>1107.3</ele>
      </trkpt>
      <trkpt lat="45.14094" lon="5.42495">
        <ele>1099.6</ele>
      </trkpt>
      <trkpt lat="45.14109" lon="5.4255">
        <ele>1091.7</ele>
      </trkpt>
      <trkpt lat="45.14093" lon="5.42648">
        <ele>1084.2</ele>
      </trkpt>
      <trkpt lat="45.1407" lon="5.4271">
        <ele>1083.1</ele>
      </trkpt>
      <trkpt lat="45.1405" lon="5.42734">
        <ele>1090.2</ele>
      </trkpt>
      <trkpt lat="45.14049" lon="5.42849">
        <ele>1072.3</ele>
      </trkpt>
      <trkpt lat="45.14041" lon="5.4288">
        <ele>1072.5</ele>
      </trkpt>
      <trkpt lat="45.14031" lon="5.42924">
        <ele>1073.2</ele>
      </trkpt>
      <trkpt lat="45.14034" lon="5.42978">
        <ele>1065.7</ele>
      </trkpt>
      <trkpt lat="45.14044" lon="5.43017">
        <ele>1054.2</ele>
      </trkpt>
      <trkpt lat="45.14033" lon="5.4308">
        <ele>1048.9</ele>
      </trkpt>
      <trkpt lat="45.13977" lon="5.4323">
        <ele>1035.8</ele>
      </trkpt>
      <trkpt lat="45.13969" lon="5.4329">
        <ele>1026.6</ele>
      </trkpt>
      <trkpt lat="45.13995" lon="5.43396">
        <ele>1006.1</ele>
      </trkpt>
      <trkpt lat="45.14013" lon="5.43333">
        <ele>1007.3</ele>
      </trkpt>
      <trkpt lat="45.14021" lon="5.43292">
        <ele>1009.2</ele>
      </trkpt>
      <trkpt lat="45.14037" lon="5.43258">
        <ele>1007.5</ele>
      </trkpt>
      <trkpt lat="45.14078" lon="5.43254">
        <ele>994.2</ele>
      </trkpt>
      <trkpt lat="45.14113" lon="5.43269">
        <ele>980.5</ele>
      </trkpt>
      <trkpt lat="45.14143" lon="5.43274">
        <ele>970.4</ele>
      </trkpt>
      <trkpt lat="45.14112" lon="5.4331">
        <ele>974.9</ele>
      </trkpt>
      <trkpt lat="45.14073" lon="5.43346">
        <ele>982</ele>
      </trkpt>
      <trkpt lat="45.14056" lon="5.4338">
        <ele>981.8</ele>
      </trkpt>
      <trkpt lat="45.14046" lon="5.43421">
        <ele>978.8</ele>
      </trkpt>
      <trkpt lat="45.14036" lon="5.43459">
        <ele>975.6</ele>
      </trkpt>
      <trkpt lat="45.14017" lon="5.43499">
        <ele>975.5</ele>
      </trkpt>
      <trkpt lat="45.14" lon="5.43536">
        <ele>976</ele>
      </trkpt>
      <trkpt lat="45.14001" lon="5.43606">
        <ele>963.1</ele>
      </trkpt>
      <trkpt lat="45.1397" lon="5.43655">
        <ele>961.3</ele>
      </trkpt>
      <trkpt lat="45.13991" lon="5.43695">
        <ele>955.6</ele>
      </trkpt>
      <trkpt lat="45.13998" lon="5.43701">
        <ele>954.3</ele>
      </trkpt>
      <trkpt lat="45.14008" lon="5.43724">
        <ele>954.7</ele>
      </trkpt>
      <trkpt lat="45.14016" lon="5.4376">
        <ele>956.6</ele>
      </trkpt>
      <trkpt lat="45.14034" lon="5.43789">
        <ele>960.8</ele>
      </trkpt>
      <trkpt lat="45.14022" lon="5.43814">
        <ele>962</ele>
      </trkpt>
      <trkpt lat="45.14036" lon="5.43859">
        <ele>969.4</ele>
      </trkpt>
      <trkpt lat="45.14074" lon="5.43811">
        <ele>967.4</ele>
      </trkpt>
      <trkpt lat="45.14099" lon="5.43783">
        <ele>966.7</ele>
      </trkpt>
      <trkpt lat="45.141" lon="5.43742">
        <ele>961</ele>
      </trkpt>
      <trkpt lat="45.14119" lon="5.43702">
        <ele>960.9</ele>
      </trkpt>
      <trkpt lat="45.14153" lon="5.43707">
        <ele>965.2</ele>
      </trkpt>
      <trkpt lat="45.14193" lon="5.43738">
        <ele>969</ele>
      </trkpt>
      <trkpt lat="45.14235" lon="5.43759">
        <ele>972.1</ele>
      </trkpt>
      <trkpt lat="45.14282" lon="5.43771">
        <ele>972</ele>
      </trkpt>
      <trkpt lat="45.14288" lon="5.43781">
        <ele>973.5</ele>
      </trkpt>
      <trkpt lat="45.143" lon="5.43775">
        <ele>971.4</ele>
      </trkpt>
      <trkpt lat="45.14367" lon="5.43763">
        <ele>963.9</ele>
      </trkpt>
      <trkpt lat="45.14426" lon="5.43754">
        <ele>957.4</ele>
      </trkpt>
      <trkpt lat="45.1448" lon="5.43779">
        <ele>955.6</ele>
      </trkpt>
      <trkpt lat="45.14506" lon="5.43787">
        <ele>954</ele>
      </trkpt>
      <trkpt lat="45.14535" lon="5.43795">
        <ele>950.9</ele>
      </trkpt>
      <trkpt lat="45.14558" lon="5.43803">
        <ele>948.6</ele>
      </trkpt>
      <trkpt lat="45.146" lon="5.43824">
        <ele>945.1</ele>
      </trkpt>
      <trkpt lat="45.14596" lon="5.43817">
        <ele>944.8</ele>
      </trkpt>
      <trkpt lat="45.14589" lon="5.43788">
        <ele>941.3</ele>
      </trkpt>
      <trkpt lat="45.14615" lon="5.4378">
        <ele>937.3</ele>
      </trkpt>
      <trkpt lat="45.14653" lon="5.43763">
        <ele>931.4</ele>
      </trkpt>
      <trkpt lat="45.14669" lon="5.43758">
        <ele>929.5</ele>
      </trkpt>
      <trkpt lat="45.14695" lon="5.43798">
        <ele>931</ele>
      </trkpt>
      <trkpt lat="45.14732" lon="5.4385">
        <ele>934.2</ele>
      </trkpt>
      <trkpt lat="45.1476" lon="5.43887">
        <ele>937</ele>
      </trkpt>
      <trkpt lat="45.1476" lon="5.43887">
        <ele>937</ele>
      </trkpt>
      <trkpt lat="45.1478" lon="5.43901">
        <ele>938.4</ele>
      </trkpt>
      <trkpt lat="45.14772" lon="5.43932">
        <ele>941.5</ele>
      </trkpt>
      <trkpt lat="45.1476" lon="5.43954">
        <ele>944.7</ele>
      </trkpt>
      <trkpt lat="45.14752" lon="5.44011">
        <ele>954.6</ele>
      </trkpt>
      <trkpt lat="45.14773" lon="5.4405">
        <ele>962</ele>
      </trkpt>
      <trkpt lat="45.14812" lon="5.44113">
        <ele>970.2</ele>
      </trkpt>
      <trkpt lat="45.14842" lon="5.44194">
        <ele>983.3</ele>
      </trkpt>
      <trkpt lat="45.14898" lon="5.44257">
        <ele>992.6</ele>
      </trkpt>
      <trkpt lat="45.14933" lon="5.4432">
        <ele>1001.5</ele>
      </trkpt>
      <trkpt lat="45.14958" lon="5.44375">
        <ele>1006.9</ele>
      </trkpt>
      <trkpt lat="45.14984" lon="5.44421">
        <ele>1010.6</ele>
      </trkpt>
      <trkpt lat="45.15011" lon="5.44486">
        <ele>1011.8</ele>
      </trkpt>
      <trkpt lat="45.15022" lon="5.44563">
        <ele>1011.5</ele>
      </trkpt>
      <trkpt lat="45.15018" lon="5.44649">
        <ele>1012.2</ele>
      </trkpt>
      <trkpt lat="45.15003" lon="5.44705">
        <ele>1022.2</ele>
      </trkpt>
      <trkpt lat="45.14988" lon="5.44762">
        <ele>1031</ele>
      </trkpt>
      <trkpt lat="45.14979" lon="5.44844">
        <ele>1035</ele>
      </trkpt>
      <trkpt lat="45.14957" lon="5.44894">
        <ele>1043.7</ele>
      </trkpt>
      <trkpt lat="45.14938" lon="5.44937">
        <ele>1047.9</ele>
      </trkpt>
      <trkpt lat="45.14928" lon="5.44959">
        <ele>1048.4</ele>
      </trkpt>
      <trkpt lat="45.1492" lon="5.45">
        <ele>1045.6</ele>
      </trkpt>
      <trkpt lat="45.14894" lon="5.45036">
        <ele>1058.5</ele>
      </trkpt>
      <trkpt lat="45.14885" lon="5.45058">
        <ele>1063</ele>
      </trkpt>
      <trkpt lat="45.14884" lon="5.45077">
        <ele>1063.6</ele>
      </trkpt>
      <trkpt lat="45.14878" lon="5.45099">
        <ele>1070.3</ele>
      </trkpt>
      <trkpt lat="45.14983" lon="5.45105">
        <ele>1066.9</ele>
      </trkpt>
      <trkpt lat="45.15031" lon="5.45061">
        <ele>1051.4</ele>
      </trkpt>
      <trkpt lat="45.15079" lon="5.45073">
        <ele>1052.6</ele>
      </trkpt>
      <trkpt lat="45.15097" lon="5.45124">
        <ele>1060.5</ele>
      </trkpt>
      <trkpt lat="45.15108" lon="5.45227">
        <ele>1070.8</ele>
      </trkpt>
      <trkpt lat="45.15068" lon="5.45399">
        <ele>1091.5</ele>
      </trkpt>
      <trkpt lat="45.15074" lon="5.45483">
        <ele>1090.4</ele>
      </trkpt>
      <trkpt lat="45.15003" lon="5.45597">
        <ele>1106.9</ele>
      </trkpt>
      <trkpt lat="45.14981" lon="5.45658">
        <ele>1106.3</ele>
      </trkpt>
      <trkpt lat="45.14993" lon="5.45706">
        <ele>1107.5</ele>
      </trkpt>
      <trkpt lat="45.15085" lon="5.45702">
        <ele>1102.6</ele>
      </trkpt>
      <trkpt lat="45.15148" lon="5.45665">
        <ele>1103.5</ele>
      </trkpt>
      <trkpt lat="45.15247" lon="5.45586">
        <ele>1105.7</ele>
      </trkpt>
      <trkpt lat="45.15308" lon="5.45521">
        <ele>1101.8</ele>
      </trkpt>
      <trkpt lat="45.15338" lon="5.4557">
        <ele>1111.1</ele>
      </trkpt>
      <trkpt lat="45.15331" lon="5.45656">
        <ele>1112.5</ele>
      </trkpt>
      <trkpt lat="45.15196" lon="5.45754">
        <ele>1111</ele>
      </trkpt>
      <trkpt lat="45.15201" lon="5.45823">
        <ele>1110.2</ele>
      </trkpt>
      <trkpt lat="45.15133" lon="5.45909">
        <ele>1118.7</ele>
      </trkpt>
      <trkpt lat="45.15144" lon="5.45972">
        <ele>1110.8</ele>
      </trkpt>
      <trkpt lat="45.15119" lon="5.46002">
        <ele>1116.3</ele>
      </trkpt>
      <trkpt lat="45.15113" lon="5.46067">
        <ele>1112.2</ele>
      </trkpt>
      <trkpt lat="45.15063" lon="5.46108">
        <ele>1122.1</ele>
      </trkpt>
      <trkpt lat="45.15063" lon="5.4612">
        <ele>1121.8</ele>
      </trkpt>
      <trkpt lat="45.15099" lon="5.46159">
        <ele>1109.5</ele>
      </trkpt>
      <trkpt lat="45.15111" lon="5.46204">
        <ele>1107.6</ele>
      </trkpt>
      <trkpt lat="45.15112" lon="5.46232">
        <ele>1108.6</ele>
      </trkpt>
      <trkpt lat="45.15184" lon="5.46254">
        <ele>1097.7</ele>
      </trkpt>
      <trkpt lat="45.15202" lon="5.46243">
        <ele>1094.7</ele>
      </trkpt>
      <trkpt lat="45.15248" lon="5.46249">
        <ele>1090.1</ele>
      </trkpt>
      <trkpt lat="45.15302" lon="5.46224">
        <ele>1085.6</ele>
      </trkpt>
      <trkpt lat="45.15316" lon="5.46252">
        <ele>1087.2</ele>
      </trkpt>
      <trkpt lat="45.15316" lon="5.4628">
        <ele>1091.4</ele>
      </trkpt>
      <trkpt lat="45.15333" lon="5.463">
        <ele>1093.2</ele>
      </trkpt>
      <trkpt lat="45.15376" lon="5.46256">
        <ele>1085.5</ele>
      </trkpt>
      <trkpt lat="45.15424" lon="5.4633">
        <ele>1100.1</ele>
      </trkpt>
      <trkpt lat="45.15462" lon="5.46363">
        <ele>1107.6</ele>
      </trkpt>
      <trkpt lat="45.15503" lon="5.46356">
        <ele>1105.5</ele>
      </trkpt>
      <trkpt lat="45.15555" lon="5.46401">
        <ele>1119.3</ele>
      </trkpt>
      <trkpt lat="45.15634" lon="5.46363">
        <ele>1115.8</ele>
      </trkpt>
      <trkpt lat="45.15742" lon="5.4635">
        <ele>1124.2</ele>
      </trkpt>
      <trkpt lat="45.15776" lon="5.46314">
        <ele>1126.3</ele>
      </trkpt>
      <trkpt lat="45.15781" lon="5.46225">
        <ele>1127.1</ele>
      </trkpt>
      <trkpt lat="45.1572" lon="5.46062">
        <ele>1131.1</ele>
      </trkpt>
      <trkpt lat="45.157" lon="5.46042">
        <ele>1130</ele>
      </trkpt>
      <trkpt lat="45.15699" lon="5.4598">
        <ele>1131.2</ele>
      </trkpt>
      <trkpt lat="45.15734" lon="5.45962">
        <ele>1135.1</ele>
      </trkpt>
      <trkpt lat="45.15792" lon="5.45982">
        <ele>1143.8</ele>
      </trkpt>
      <trkpt lat="45.15848" lon="5.45962">
        <ele>1146.4</ele>
      </trkpt>
      <trkpt lat="45.15922" lon="5.45981">
        <ele>1151.1</ele>
      </trkpt>
      <trkpt lat="45.15983" lon="5.46007">
        <ele>1158.3</ele>
      </trkpt>
      <trkpt lat="45.16051" lon="5.46079">
        <ele>1163.7</ele>
      </trkpt>
      <trkpt lat="45.16062" lon="5.46118">
        <ele>1163.6</ele>
      </trkpt>
      <trkpt lat="45.16063" lon="5.4618">
        <ele>1163.8</ele>
      </trkpt>
      <trkpt lat="45.16051" lon="5.46261">
        <ele>1170.6</ele>
      </trkpt>
      <trkpt lat="45.16037" lon="5.46317">
        <ele>1176.3</ele>
      </trkpt>
      <trkpt lat="45.16048" lon="5.46376">
        <ele>1179.6</ele>
      </trkpt>
      <trkpt lat="45.16088" lon="5.46371">
        <ele>1175.9</ele>
      </trkpt>
      <trkpt lat="45.16133" lon="5.4633">
        <ele>1170</ele>
      </trkpt>
      <trkpt lat="45.16184" lon="5.4635">
        <ele>1175.1</ele>
      </trkpt>
      <trkpt lat="45.16208" lon="5.4629">
        <ele>1173.5</ele>
      </trkpt>
      <trkpt lat="45.16261" lon="5.46237">
        <ele>1185.1</ele>
      </trkpt>
      <trkpt lat="45.16266" lon="5.4606">
        <ele>1196</ele>
      </trkpt>
      <trkpt lat="45.16282" lon="5.4608">
        <ele>1202</ele>
      </trkpt>
      <trkpt lat="45.16309" lon="5.4625">
        <ele>1206.1</ele>
      </trkpt>
      <trkpt lat="45.16354" lon="5.46427">
        <ele>1225.2</ele>
      </trkpt>
      <trkpt lat="45.16395" lon="5.46527">
        <ele>1231.3</ele>
      </trkpt>
      <trkpt lat="45.16333" lon="5.46548">
        <ele>1228.6</ele>
      </trkpt>
      <trkpt lat="45.16313" lon="5.46551">
        <ele>1225.2</ele>
      </trkpt>
      <trkpt lat="45.16254" lon="5.46603">
        <ele>1225.5</ele>
      </trkpt>
      <trkpt lat="45.16214" lon="5.46607">
        <ele>1224.8</ele>
      </trkpt>
      <trkpt lat="45.16114" lon="5.46569">
        <ele>1214</ele>
      </trkpt>
      <trkpt lat="45.15951" lon="5.4645">
        <ele>1187.6</ele>
      </trkpt>
      <trkpt lat="45.15903" lon="5.46515">
        <ele>1202.1</ele>
      </trkpt>
      <trkpt lat="45.15808" lon="5.46587">
        <ele>1217.3</ele>
      </trkpt>
      <trkpt lat="45.15665" lon="5.46613">
        <ele>1214.1</ele>
      </trkpt>
      <trkpt lat="45.1562" lon="5.46645">
        <ele>1218.7</ele>
      </trkpt>
      <trkpt lat="45.15425" lon="5.46693">
        <ele>1224.5</ele>
      </trkpt>
      <trkpt lat="45.15233" lon="5.46632">
        <ele>1209.3</ele>
      </trkpt>
      <trkpt lat="45.1501" lon="5.46596">
        <ele>1212.2</ele>
      </trkpt>
      <trkpt lat="45.14913" lon="5.46566">
        <ele>1226.1</ele>
      </trkpt>
      <trkpt lat="45.14815" lon="5.46538">
        <ele>1262.9</ele>
      </trkpt>
      <trkpt lat="45.14766" lon="5.46527">
        <ele>1283.7</ele>
      </trkpt>
      <trkpt lat="45.14666" lon="5.46434">
        <ele>1308.9</ele>
      </trkpt>
      <trkpt lat="45.14644" lon="5.46355">
        <ele>1314</ele>
      </trkpt>
      <trkpt lat="45.14629" lon="5.46355">
        <ele>1323.2</ele>
      </trkpt>
      <trkpt lat="45.1462" lon="5.46396">
        <ele>1333</ele>
      </trkpt>
      <trkpt lat="45.14596" lon="5.46362">
        <ele>1344.2</ele>
      </trkpt>
      <trkpt lat="45.14574" lon="5.46323">
        <ele>1351.5</ele>
      </trkpt>
      <trkpt lat="45.14555" lon="5.46295">
        <ele>1357.3</ele>
      </trkpt>
      <trkpt lat="45.14553" lon="5.46308">
        <ele>1356.5</ele>
      </trkpt>
      <trkpt lat="45.1456" lon="5.46361">
        <ele>1356.4</ele>
      </trkpt>
      <trkpt lat="45.14548" lon="5.46411">
        <ele>1364.2</ele>
      </trkpt>
      <trkpt lat="45.1458" lon="5.46487">
        <ele>1369.8</ele>
      </trkpt>
      <trkpt lat="45.14566" lon="5.46532">
        <ele>1376.9</ele>
      </trkpt>
      <trkpt lat="45.14615" lon="5.46564">
        <ele>1369.6</ele>
      </trkpt>
      <trkpt lat="45.14645" lon="5.46634">
        <ele>1372.8</ele>
      </trkpt>
      <trkpt lat="45.14675" lon="5.46673">
        <ele>1371.8</ele>
      </trkpt>
      <trkpt lat="45.14682" lon="5.46763">
        <ele>1366.4</ele>
      </trkpt>
      <trkpt lat="45.14713" lon="5.46805">
        <ele>1360.7</ele>
      </trkpt>
      <trkpt lat="45.14853" lon="5.46903">
        <ele>1355.5</ele>
      </trkpt>
      <trkpt lat="45.14835" lon="5.46977">
        <ele>1342.3</ele>
      </trkpt>
      <trkpt lat="45.14791" lon="5.46969">
        <ele>1338.5</ele>
      </trkpt>
      <trkpt lat="45.1473" lon="5.46951">
        <ele>1333.7</ele>
      </trkpt>
      <trkpt lat="45.14664" lon="5.46942">
        <ele>1328.6</ele>
      </trkpt>
      <trkpt lat="45.14592" lon="5.46933">
        <ele>1325.1</ele>
      </trkpt>
      <trkpt lat="45.14481" lon="5.46924">
        <ele>1318.9</ele>
      </trkpt>
      <trkpt lat="45.14364" lon="5.4693">
        <ele>1290.7</ele>
      </trkpt>
      <trkpt lat="45.14278" lon="5.4695">
        <ele>1268.9</ele>
      </trkpt>
      <trkpt lat="45.13968" lon="5.46861">
        <ele>1239.7</ele>
      </trkpt>
      <trkpt lat="45.13893" lon="5.46854">
        <ele>1231.1</ele>
      </trkpt>
      <trkpt lat="45.13795" lon="5.46766">
        <ele>1225.2</ele>
      </trkpt>
      <trkpt lat="45.13705" lon="5.46816">
        <ele>1212.9</ele>
      </trkpt>
      <trkpt lat="45.13724" lon="5.46948">
        <ele>1203.4</ele>
      </trkpt>
      <trkpt lat="45.13775" lon="5.46999">
        <ele>1207</ele>
      </trkpt>
      <trkpt lat="45.13767" lon="5.47036">
        <ele>1205.6</ele>
      </trkpt>
      <trkpt lat="45.13697" lon="5.47077">
        <ele>1194.3</ele>
      </trkpt>
      <trkpt lat="45.13583" lon="5.47053">
        <ele>1180.1</ele>
      </trkpt>
      <trkpt lat="45.13482" lon="5.4713">
        <ele>1165.9</ele>
      </trkpt>
      <trkpt lat="45.13424" lon="5.47164">
        <ele>1154.7</ele>
      </trkpt>
      <trkpt lat="45.13407" lon="5.47215">
        <ele>1150.3</ele>
      </trkpt>
      <trkpt lat="45.13586" lon="5.47431">
        <ele>1139.2</ele>
      </trkpt>
      <trkpt lat="45.13815" lon="5.47611">
        <ele>1122.4</ele>
      </trkpt>
      <trkpt lat="45.14211" lon="5.47816">
        <ele>1088.1</ele>
      </trkpt>
      <trkpt lat="45.14394" lon="5.47964">
        <ele>1071.2</ele>
      </trkpt>
      <trkpt lat="45.1453" lon="5.4796">
        <ele>1071.1</ele>
      </trkpt>
      <trkpt lat="45.1478" lon="5.48029">
        <ele>1064.7</ele>
      </trkpt>
      <trkpt lat="45.15209" lon="5.48237">
        <ele>1050.4</ele>
      </trkpt>
      <trkpt lat="45.15475" lon="5.48372">
        <ele>1034.3</ele>
      </trkpt>
      <trkpt lat="45.1596" lon="5.48555">
        <ele>1023.7</ele>
      </trkpt>
      <trkpt lat="45.16093" lon="5.48586">
        <ele>1029.1</ele>
      </trkpt>
      <trkpt lat="45.16147" lon="5.48629">
        <ele>1019.1</ele>
      </trkpt>
      <trkpt lat="45.1656" lon="5.48821">
        <ele>1000.3</ele>
      </trkpt>
      <trkpt lat="45.1681" lon="5.48968">
        <ele>994.9</ele>
      </trkpt>
      <trkpt lat="45.17297" lon="5.49427">
        <ele>949.5</ele>
      </trkpt>
      <trkpt lat="45.17706" lon="5.49785">
        <ele>909.3</ele>
      </trkpt>
      <trkpt lat="45.17745" lon="5.49802">
        <ele>909.8</ele>
      </trkpt>
      <trkpt lat="45.17742" lon="5.49801">
        <ele>909.8</ele>
      </trkpt>
      <trkpt lat="45.17766" lon="5.49831">
        <ele>905.2</ele>
      </trkpt>
      <trkpt lat="45.17835" lon="5.49869">
        <ele>917.4</ele>
      </trkpt>
      <trkpt lat="45.17919" lon="5.49919">
        <ele>924.6</ele>
      </trkpt>
      <trkpt lat="45.17977" lon="5.49938">
        <ele>934.2</ele>
      </trkpt>
      <trkpt lat="45.18018" lon="5.49979">
        <ele>936.5</ele>
      </trkpt>
      <trkpt lat="45.18064" lon="5.50032">
        <ele>939.8</ele>
      </trkpt>
      <trkpt lat="45.18084" lon="5.50049">
        <ele>941</ele>
      </trkpt>
      <trkpt lat="45.1812" lon="5.50054">
        <ele>947.3</ele>
      </trkpt>
      <trkpt lat="45.18139" lon="5.50071">
        <ele>947.8</ele>
      </trkpt>
      <trkpt lat="45.18141" lon="5.50091">
        <ele>946.7</ele>
      </trkpt>
      <trkpt lat="45.18104" lon="5.50114">
        <ele>946.8</ele>
      </trkpt>
      <trkpt lat="45.18073" lon="5.50115">
        <ele>944.6</ele>
      </trkpt>
      <trkpt lat="45.18066" lon="5.50134">
        <ele>948.2</ele>
      </trkpt>
      <trkpt lat="45.18068" lon="5.50147">
        <ele>951.1</ele>
      </trkpt>
      <trkpt lat="45.18092" lon="5.50148">
        <ele>953.1</ele>
      </trkpt>
      <trkpt lat="45.18164" lon="5.50165">
        <ele>957.8</ele>
      </trkpt>
      <trkpt lat="45.18177" lon="5.50166">
        <ele>958.4</ele>
      </trkpt>
      <trkpt lat="45.18192" lon="5.50192">
        <ele>966.3</ele>
      </trkpt>
      <trkpt lat="45.18238" lon="5.5023">
        <ele>969.8</ele>
      </trkpt>
      <trkpt lat="45.18254" lon="5.5024">
        <ele>969.7</ele>
      </trkpt>
      <trkpt lat="45.18264" lon="5.50285">
        <ele>978.7</ele>
      </trkpt>
      <trkpt lat="45.18267" lon="5.50336">
        <ele>988.7</ele>
      </trkpt>
      <trkpt lat="45.18285" lon="5.50341">
        <ele>989.4</ele>
      </trkpt>
      <trkpt lat="45.18308" lon="5.50307">
        <ele>984.5</ele>
      </trkpt>
      <trkpt lat="45.18328" lon="5.50235">
        <ele>980.8</ele>
      </trkpt>
      <trkpt lat="45.18329" lon="5.50209">
        <ele>980.2</ele>
      </trkpt>
      <trkpt lat="45.18325" lon="5.5012">
        <ele>984.5</ele>
      </trkpt>
      <trkpt lat="45.18354" lon="5.50112">
        <ele>992.3</ele>
      </trkpt>
      <trkpt lat="45.18412" lon="5.50144">
        <ele>996.2</ele>
      </trkpt>
      <trkpt lat="45.18463" lon="5.50179">
        <ele>999.1</ele>
      </trkpt>
      <trkpt lat="45.18507" lon="5.50219">
        <ele>999.9</ele>
      </trkpt>
      <trkpt lat="45.18542" lon="5.50247">
        <ele>1000.2</ele>
      </trkpt>
      <trkpt lat="45.18592" lon="5.50314">
        <ele>1000.9</ele>
      </trkpt>
      <trkpt lat="45.18697" lon="5.50418">
        <ele>1006.5</ele>
      </trkpt>
      <trkpt lat="45.18745" lon="5.50478">
        <ele>1008</ele>
      </trkpt>
      <trkpt lat="45.18804" lon="5.50539">
        <ele>1014.9</ele>
      </trkpt>
      <trkpt lat="45.18847" lon="5.50599">
        <ele>1015.6</ele>
      </trkpt>
      <trkpt lat="45.1888" lon="5.50623">
        <ele>1019.3</ele>
      </trkpt>
      <trkpt lat="45.1893" lon="5.50662">
        <ele>1019.5</ele>
      </trkpt>
      <trkpt lat="45.18933" lon="5.50664">
        <ele>1019.7</ele>
      </trkpt>
      <trkpt lat="45.19003" lon="5.50728">
        <ele>1024.4</ele>
      </trkpt>
      <trkpt lat="45.19089" lon="5.50781">
        <ele>1036.2</ele>
      </trkpt>
      <trkpt lat="45.19171" lon="5.50843">
        <ele>1039.5</ele>
      </trkpt>
      <trkpt lat="45.19246" lon="5.50901">
        <ele>1043.6</ele>
      </trkpt>
      <trkpt lat="45.19327" lon="5.5096">
        <ele>1048.3</ele>
      </trkpt>
      <trkpt lat="45.19407" lon="5.51009">
        <ele>1059</ele>
      </trkpt>
      <trkpt lat="45.19499" lon="5.51088">
        <ele>1066.1</ele>
      </trkpt>
      <trkpt lat="45.19603" lon="5.51167">
        <ele>1081.1</ele>
      </trkpt>
      <trkpt lat="45.19657" lon="5.51215">
        <ele>1090.5</ele>
      </trkpt>
      <trkpt lat="45.19708" lon="5.51259">
        <ele>1098.5</ele>
      </trkpt>
      <trkpt lat="45.19765" lon="5.51316">
        <ele>1103.3</ele>
      </trkpt>
      <trkpt lat="45.19817" lon="5.51373">
        <ele>1102.2</ele>
      </trkpt>
      <trkpt lat="45.19844" lon="5.51445">
        <ele>1096.5</ele>
      </trkpt>
      <trkpt lat="45.19897" lon="5.51499">
        <ele>1095.2</ele>
      </trkpt>
      <trkpt lat="45.19955" lon="5.51505">
        <ele>1094.7</ele>
      </trkpt>
      <trkpt lat="45.20024" lon="5.51554">
        <ele>1092.9</ele>
      </trkpt>
      <trkpt lat="45.20097" lon="5.51603">
        <ele>1084.7</ele>
      </trkpt>
      <trkpt lat="45.20211" lon="5.51679">
        <ele>1083.7</ele>
      </trkpt>
      <trkpt lat="45.20309" lon="5.51745">
        <ele>1091.4</ele>
      </trkpt>
      <trkpt lat="45.20477" lon="5.51709">
        <ele>1091.1</ele>
      </trkpt>
      <trkpt lat="45.20468" lon="5.51853">
        <ele>1100.2</ele>
      </trkpt>
      <trkpt lat="45.20477" lon="5.51927">
        <ele>1096.8</ele>
      </trkpt>
      <trkpt lat="45.20503" lon="5.52027">
        <ele>1102</ele>
      </trkpt>
      <trkpt lat="45.20458" lon="5.52104">
        <ele>1111.9</ele>
      </trkpt>
      <trkpt lat="45.20388" lon="5.52106">
        <ele>1112.1</ele>
      </trkpt>
      <trkpt lat="45.20325" lon="5.52103">
        <ele>1109.7</ele>
      </trkpt>
      <trkpt lat="45.20292" lon="5.52158">
        <ele>1122.4</ele>
      </trkpt>
      <trkpt lat="45.20282" lon="5.52269">
        <ele>1149.2</ele>
      </trkpt>
      <trkpt lat="45.20256" lon="5.52335">
        <ele>1166.1</ele>
      </trkpt>
      <trkpt lat="45.20188" lon="5.52257">
        <ele>1142.2</ele>
      </trkpt>
      <trkpt lat="45.20132" lon="5.52245">
        <ele>1148.4</ele>
      </trkpt>
      <trkpt lat="45.20049" lon="5.52253">
        <ele>1158.9</ele>
      </trkpt>
      <trkpt lat="45.20003" lon="5.52282">
        <ele>1166.3</ele>
      </trkpt>
      <trkpt lat="45.19956" lon="5.52355">
        <ele>1190.5</ele>
      </trkpt>
      <trkpt lat="45.19893" lon="5.52355">
        <ele>1194.5</ele>
      </trkpt>
      <trkpt lat="45.19846" lon="5.52324">
        <ele>1196.7</ele>
      </trkpt>
      <trkpt lat="45.19873" lon="5.52414">
        <ele>1213.6</ele>
      </trkpt>
      <trkpt lat="45.19878" lon="5.52485">
        <ele>1221.7</ele>
      </trkpt>
      <trkpt lat="45.19831" lon="5.52552">
        <ele>1240.1</ele>
      </trkpt>
      <trkpt lat="45.19894" lon="5.52607">
        <ele>1244.9</ele>
      </trkpt>
      <trkpt lat="45.19973" lon="5.52621">
        <ele>1255.8</ele>
      </trkpt>
      <trkpt lat="45.20034" lon="5.52608">
        <ele>1259.9</ele>
      </trkpt>
      <trkpt lat="45.20094" lon="5.52577">
        <ele>1260.2</ele>
      </trkpt>
      <trkpt lat="45.20149" lon="5.52618">
        <ele>1267.7</ele>
      </trkpt>
      <trkpt lat="45.20211" lon="5.52634">
        <ele>1265.7</ele>
      </trkpt>
      <trkpt lat="45.20238" lon="5.527">
        <ele>1275.9</ele>
      </trkpt>
      <trkpt lat="45.20298" lon="5.52741">
        <ele>1280.1</ele>
      </trkpt>
      <trkpt lat="45.20374" lon="5.52758">
        <ele>1275.2</ele>
      </trkpt>
      <trkpt lat="45.20489" lon="5.52825">
        <ele>1288.9</ele>
      </trkpt>
      <trkpt lat="45.20562" lon="5.52785">
        <ele>1304.7</ele>
      </trkpt>
      <trkpt lat="45.2052" lon="5.52706">
        <ele>1293.5</ele>
      </trkpt>
      <trkpt lat="45.20513" lon="5.52633">
        <ele>1295.4</ele>
      </trkpt>
      <trkpt lat="45.20486" lon="5.52555">
        <ele>1285.7</ele>
      </trkpt>
      <trkpt lat="45.20533" lon="5.52554">
        <ele>1296.3</ele>
      </trkpt>
      <trkpt lat="45.20625" lon="5.52575">
        <ele>1317</ele>
      </trkpt>
      <trkpt lat="45.20702" lon="5.52551">
        <ele>1312.2</ele>
      </trkpt>
      <trkpt lat="45.20759" lon="5.52539">
        <ele>1311.4</ele>
      </trkpt>
      <trkpt lat="45.20826" lon="5.52552">
        <ele>1320.4</ele>
      </trkpt>
      <trkpt lat="45.20911" lon="5.52557">
        <ele>1326.7</ele>
      </trkpt>
      <trkpt lat="45.2099" lon="5.52549">
        <ele>1333.4</ele>
      </trkpt>
      <trkpt lat="45.21044" lon="5.52552">
        <ele>1338</ele>
      </trkpt>
      <trkpt lat="45.21102" lon="5.52565">
        <ele>1342.2</ele>
      </trkpt>
      <trkpt lat="45.2116" lon="5.52603">
        <ele>1347.3</ele>
      </trkpt>
      <trkpt lat="45.21228" lon="5.52642">
        <ele>1363.3</ele>
      </trkpt>
      <trkpt lat="45.21286" lon="5.52652">
        <ele>1373.2</ele>
      </trkpt>
      <trkpt lat="45.21358" lon="5.52675">
        <ele>1382.8</ele>
      </trkpt>
      <trkpt lat="45.2142" lon="5.52685">
        <ele>1389.3</ele>
      </trkpt>
      <trkpt lat="45.21471" lon="5.52716">
        <ele>1392.3</ele>
      </trkpt>
      <trkpt lat="45.21501" lon="5.52782">
        <ele>1397.1</ele>
      </trkpt>
      <trkpt lat="45.21564" lon="5.52868">
        <ele>1405.9</ele>
      </trkpt>
      <trkpt lat="45.21615" lon="5.529">
        <ele>1410.8</ele>
      </trkpt>
      <trkpt lat="45.21638" lon="5.52965">
        <ele>1416.3</ele>
      </trkpt>
      <trkpt lat="45.21625" lon="5.53012">
        <ele>1420.2</ele>
      </trkpt>
      <trkpt lat="45.21584" lon="5.53035">
        <ele>1425.3</ele>
      </trkpt>
      <trkpt lat="45.21512" lon="5.53018">
        <ele>1430</ele>
      </trkpt>
      <trkpt lat="45.21436" lon="5.53081">
        <ele>1452.2</ele>
      </trkpt>
      <trkpt lat="45.21373" lon="5.53153">
        <ele>1486.8</ele>
      </trkpt>
      <trkpt lat="45.21323" lon="5.53192">
        <ele>1505.2</ele>
      </trkpt>
      <trkpt lat="45.2127" lon="5.53233">
        <ele>1530.2</ele>
      </trkpt>
      <trkpt lat="45.21168" lon="5.53259">
        <ele>1571.5</ele>
      </trkpt>
      <trkpt lat="45.21087" lon="5.53255">
        <ele>1584.9</ele>
      </trkpt>
      <trkpt lat="45.21015" lon="5.53254">
        <ele>1586.5</ele>
      </trkpt>
      <trkpt lat="45.21097" lon="5.53303">
        <ele>1600.4</ele>
      </trkpt>
      <trkpt lat="45.21163" lon="5.53358">
        <ele>1600</ele>
      </trkpt>
      <trkpt lat="45.21234" lon="5.53448">
        <ele>1593.9</ele>
      </trkpt>
      <trkpt lat="45.21328" lon="5.53565">
        <ele>1572.1</ele>
      </trkpt>
      <trkpt lat="45.21405" lon="5.53604">
        <ele>1570.5</ele>
      </trkpt>
      <trkpt lat="45.21487" lon="5.53653">
        <ele>1564.2</ele>
      </trkpt>
      <trkpt lat="45.21562" lon="5.53699">
        <ele>1551</ele>
      </trkpt>
      <trkpt lat="45.21481" lon="5.53707">
        <ele>1541.6</ele>
      </trkpt>
      <trkpt lat="45.214" lon="5.53712">
        <ele>1530.4</ele>
      </trkpt>
      <trkpt lat="45.21337" lon="5.53728">
        <ele>1520</ele>
      </trkpt>
      <trkpt lat="45.21246" lon="5.53751">
        <ele>1498.2</ele>
      </trkpt>
      <trkpt lat="45.21126" lon="5.53699">
        <ele>1498.5</ele>
      </trkpt>
      <trkpt lat="45.21043" lon="5.53669">
        <ele>1492.1</ele>
      </trkpt>
      <trkpt lat="45.20949" lon="5.53673">
        <ele>1474.9</ele>
      </trkpt>
      <trkpt lat="45.20895" lon="5.53661">
        <ele>1468.3</ele>
      </trkpt>
      <trkpt lat="45.20829" lon="5.53625">
        <ele>1463.4</ele>
      </trkpt>
      <trkpt lat="45.2078" lon="5.53603">
        <ele>1460.5</ele>
      </trkpt>
      <trkpt lat="45.20679" lon="5.53578">
        <ele>1449.1</ele>
      </trkpt>
      <trkpt lat="45.20608" lon="5.53533">
        <ele>1444.5</ele>
      </trkpt>
      <trkpt lat="45.20497" lon="5.53475">
        <ele>1431.9</ele>
      </trkpt>
      <trkpt lat="45.20436" lon="5.53421">
        <ele>1436.6</ele>
      </trkpt>
      <trkpt lat="45.20339" lon="5.53371">
        <ele>1435.7</ele>
      </trkpt>
      <trkpt lat="45.20267" lon="5.53363">
        <ele>1423.9</ele>
      </trkpt>
      <trkpt lat="45.20225" lon="5.53329">
        <ele>1423.6</ele>
      </trkpt>
      <trkpt lat="45.2017" lon="5.53294">
        <ele>1418.6</ele>
      </trkpt>
      <trkpt lat="45.20101" lon="5.53258">
        <ele>1411.3</ele>
      </trkpt>
      <trkpt lat="45.20029" lon="5.53254">
        <ele>1394.4</ele>
      </trkpt>
      <trkpt lat="45.19937" lon="5.5323">
        <ele>1383.6</ele>
      </trkpt>
      <trkpt lat="45.19851" lon="5.53193">
        <ele>1379.5</ele>
      </trkpt>
      <trkpt lat="45.19774" lon="5.53186">
        <ele>1367</ele>
      </trkpt>
      <trkpt lat="45.19682" lon="5.5318">
        <ele>1352.6</ele>
      </trkpt>
      <trkpt lat="45.19694" lon="5.53248">
        <ele>1335.5</ele>
      </trkpt>
      <trkpt lat="45.19769" lon="5.5336">
        <ele>1322.3</ele>
      </trkpt>
      <trkpt lat="45.19732" lon="5.53425">
        <ele>1304.8</ele>
      </trkpt>
      <trkpt lat="45.19672" lon="5.5339">
        <ele>1297.9</ele>
      </trkpt>
      <trkpt lat="45.19618" lon="5.53377">
        <ele>1294</ele>
      </trkpt>
      <trkpt lat="45.19495" lon="5.53415">
        <ele>1276</ele>
      </trkpt>
      <trkpt lat="45.19447" lon="5.53437">
        <ele>1268.3</ele>
      </trkpt>
      <trkpt lat="45.19389" lon="5.5345">
        <ele>1259.8</ele>
      </trkpt>
      <trkpt lat="45.19333" lon="5.53424">
        <ele>1255.8</ele>
      </trkpt>
      <trkpt lat="45.19229" lon="5.53434">
        <ele>1233.5</ele>
      </trkpt>
      <trkpt lat="45.1912" lon="5.53406">
        <ele>1212.1</ele>
      </trkpt>
      <trkpt lat="45.19055" lon="5.53396">
        <ele>1199.2</ele>
      </trkpt>
      <trkpt lat="45.18996" lon="5.53392">
        <ele>1189.9</ele>
      </trkpt>
      <trkpt lat="45.18926" lon="5.53404">
        <ele>1176.4</ele>
      </trkpt>
      <trkpt lat="45.18869" lon="5.53442">
        <ele>1164.2</ele>
      </trkpt>
      <trkpt lat="45.18845" lon="5.53504">
        <ele>1149.9</ele>
      </trkpt>
      <trkpt lat="45.18804" lon="5.53572">
        <ele>1129.8</ele>
      </trkpt>
      <trkpt lat="45.18706" lon="5.53544">
        <ele>1118.5</ele>
      </trkpt>
      <trkpt lat="45.18662" lon="5.53519">
        <ele>1114.7</ele>
      </trkpt>
      <trkpt lat="45.1861" lon="5.53513">
        <ele>1107</ele>
      </trkpt>
      <trkpt lat="45.18595" lon="5.53586">
        <ele>1095.2</ele>
      </trkpt>
      <trkpt lat="45.18533" lon="5.53617">
        <ele>1083.9</ele>
      </trkpt>
      <trkpt lat="45.18476" lon="5.53642">
        <ele>1076.8</ele>
      </trkpt>
      <trkpt lat="45.18414" lon="5.53721">
        <ele>1073.8</ele>
      </trkpt>
      <trkpt lat="45.18414" lon="5.5372">
        <ele>1073.7</ele>
      </trkpt>
      <trkpt lat="45.18406" lon="5.53741">
        <ele>1073.9</ele>
      </trkpt>
      <trkpt lat="45.18327" lon="5.5374">
        <ele>1068.2</ele>
      </trkpt>
      <trkpt lat="45.18249" lon="5.53763">
        <ele>1064.4</ele>
      </trkpt>
      <trkpt lat="45.18128" lon="5.53757">
        <ele>1061.1</ele>
      </trkpt>
      <trkpt lat="45.1804" lon="5.54001">
        <ele>1059.9</ele>
      </trkpt>
      <trkpt lat="45.18045" lon="5.54005">
        <ele>1060.2</ele>
      </trkpt>
      <trkpt lat="45.18074" lon="5.54053">
        <ele>1061.6</ele>
      </trkpt>
      <trkpt lat="45.18093" lon="5.54133">
        <ele>1061.2</ele>
      </trkpt>
      <trkpt lat="45.18156" lon="5.54171">
        <ele>1063.4</ele>
      </trkpt>
      <trkpt lat="45.18049" lon="5.54399">
        <ele>1055.8</ele>
      </trkpt>
      <trkpt lat="45.18147" lon="5.54449">
        <ele>1061.3</ele>
      </trkpt>
      <trkpt lat="45.18217" lon="5.54455">
        <ele>1066.1</ele>
      </trkpt>
      <trkpt lat="45.17875" lon="5.55119">
        <ele>1056.6</ele>
      </trkpt>
      <trkpt lat="45.17933" lon="5.55343">
        <ele>1058.5</ele>
      </trkpt>
      <trkpt lat="45.18081" lon="5.5557">
        <ele>1062.1</ele>
      </trkpt>
      <trkpt lat="45.18175" lon="5.5575">
        <ele>1067.7</ele>
      </trkpt>
      <trkpt lat="45.18362" lon="5.55879">
        <ele>1072.7</ele>
      </trkpt>
      <trkpt lat="45.18509" lon="5.5605">
        <ele>1078.6</ele>
      </trkpt>
      <trkpt lat="45.1862" lon="5.562">
        <ele>1083</ele>
      </trkpt>
      <trkpt lat="45.18784" lon="5.56224">
        <ele>1083.6</ele>
      </trkpt>
      <trkpt lat="45.18905" lon="5.5634">
        <ele>1077.8</ele>
      </trkpt>
      <trkpt lat="45.1899" lon="5.56345">
        <ele>1087.8</ele>
      </trkpt>
      <trkpt lat="45.19173" lon="5.56479">
        <ele>1093.2</ele>
      </trkpt>
      <trkpt lat="45.19474" lon="5.56672">
        <ele>1102.5</ele>
      </trkpt>
      <trkpt lat="45.1964" lon="5.56872">
        <ele>1101.1</ele>
      </trkpt>
      <trkpt lat="45.19799" lon="5.56878">
        <ele>1105</ele>
      </trkpt>
      <trkpt lat="45.20216" lon="5.57114">
        <ele>1121.2</ele>
      </trkpt>
      <trkpt lat="45.20327" lon="5.57135">
        <ele>1124.3</ele>
      </trkpt>
      <trkpt lat="45.20399" lon="5.57234">
        <ele>1127.2</ele>
      </trkpt>
      <trkpt lat="45.21009" lon="5.57512">
        <ele>1151.4</ele>
      </trkpt>
      <trkpt lat="45.21227" lon="5.57572">
        <ele>1169.6</ele>
      </trkpt>
      <trkpt lat="45.21414" lon="5.57651">
        <ele>1181.5</ele>
      </trkpt>
      <trkpt lat="45.21418" lon="5.57655">
        <ele>1181.1</ele>
      </trkpt>
      <trkpt lat="45.21233" lon="5.57579">
        <ele>1169.4</ele>
      </trkpt>
      <trkpt lat="45.21007" lon="5.5752">
        <ele>1150.9</ele>
      </trkpt>
      <trkpt lat="45.20889" lon="5.57472">
        <ele>1145.7</ele>
      </trkpt>
      <trkpt lat="45.20397" lon="5.57216">
        <ele>1127</ele>
      </trkpt>
      <trkpt lat="45.20315" lon="5.57137">
        <ele>1123.7</ele>
      </trkpt>
      <trkpt lat="45.20213" lon="5.57106">
        <ele>1121.1</ele>
      </trkpt>
      <trkpt lat="45.20059" lon="5.57015">
        <ele>1112</ele>
      </trkpt>
      <trkpt lat="45.19771" lon="5.56878">
        <ele>1103</ele>
      </trkpt>
      <trkpt lat="45.19631" lon="5.56854">
        <ele>1102.1</ele>
      </trkpt>
      <trkpt lat="45.1945" lon="5.56665">
        <ele>1099.2</ele>
      </trkpt>
      <trkpt lat="45.19195" lon="5.5648">
        <ele>1095.2</ele>
      </trkpt>
      <trkpt lat="45.19102" lon="5.5643">
        <ele>1092.6</ele>
      </trkpt>
      <trkpt lat="45.18982" lon="5.56337">
        <ele>1086.5</ele>
      </trkpt>
      <trkpt lat="45.18892" lon="5.56327">
        <ele>1078.7</ele>
      </trkpt>
      <trkpt lat="45.18776" lon="5.56217">
        <ele>1084</ele>
      </trkpt>
      <trkpt lat="45.18624" lon="5.56194">
        <ele>1083</ele>
      </trkpt>
      <trkpt lat="45.18511" lon="5.56083">
        <ele>1077.9</ele>
      </trkpt>
      <trkpt lat="45.18489" lon="5.56035">
        <ele>1077.5</ele>
      </trkpt>
      <trkpt lat="45.18359" lon="5.55878">
        <ele>1072.5</ele>
      </trkpt>
      <trkpt lat="45.18174" lon="5.55755">
        <ele>1067.7</ele>
      </trkpt>
      <trkpt lat="45.18066" lon="5.55558">
        <ele>1061.9</ele>
      </trkpt>
      <trkpt lat="45.1798" lon="5.55405">
        <ele>1061.1</ele>
      </trkpt>
      <trkpt lat="45.17862" lon="5.55136">
        <ele>1055.8</ele>
      </trkpt>
      <trkpt lat="45.17697" lon="5.54781">
        <ele>1046.5</ele>
      </trkpt>
      <trkpt lat="45.17678" lon="5.54647">
        <ele>1046.5</ele>
      </trkpt>
      <trkpt lat="45.1752" lon="5.5426">
        <ele>1044.4</ele>
      </trkpt>
      <trkpt lat="45.1746" lon="5.54244">
        <ele>1043.1</ele>
      </trkpt>
      <trkpt lat="45.17402" lon="5.5421">
        <ele>1041.2</ele>
      </trkpt>
      <trkpt lat="45.17403" lon="5.5421">
        <ele>1041.2</ele>
      </trkpt>
      <trkpt lat="45.17406" lon="5.54211">
        <ele>1041.4</ele>
      </trkpt>
      <trkpt lat="45.17406" lon="5.5421">
        <ele>1041.4</ele>
      </trkpt>
      <trkpt lat="45.17279" lon="5.54196">
        <ele>1038.9</ele>
      </trkpt>
      <trkpt lat="45.17152" lon="5.54101">
        <ele>1043.6</ele>
      </trkpt>
      <trkpt lat="45.17093" lon="5.54051">
        <ele>1039.5</ele>
      </trkpt>
      <trkpt lat="45.16999" lon="5.5394">
        <ele>1039.6</ele>
      </trkpt>
      <trkpt lat="45.1685" lon="5.53883">
        <ele>1037.2</ele>
      </trkpt>
      <trkpt lat="45.16794" lon="5.53906">
        <ele>1042.3</ele>
      </trkpt>
      <trkpt lat="45.16743" lon="5.53902">
        <ele>1045.5</ele>
      </trkpt>
      <trkpt lat="45.16662" lon="5.53818">
        <ele>1049.1</ele>
      </trkpt>
      <trkpt lat="45.16513" lon="5.53749">
        <ele>1044.3</ele>
      </trkpt>
      <trkpt lat="45.16422" lon="5.53663">
        <ele>1043.5</ele>
      </trkpt>
      <trkpt lat="45.1639" lon="5.53671">
        <ele>1046.2</ele>
      </trkpt>
      <trkpt lat="45.16317" lon="5.53602">
        <ele>1043.5</ele>
      </trkpt>
      <trkpt lat="45.16266" lon="5.5359">
        <ele>1041.8</ele>
      </trkpt>
      <trkpt lat="45.16174" lon="5.53596">
        <ele>1036.9</ele>
      </trkpt>
      <trkpt lat="45.16066" lon="5.53527">
        <ele>1037</ele>
      </trkpt>
      <trkpt lat="45.15969" lon="5.53401">
        <ele>1041.2</ele>
      </trkpt>
      <trkpt lat="45.15939" lon="5.53294">
        <ele>1032.1</ele>
      </trkpt>
      <trkpt lat="45.15783" lon="5.53084">
        <ele>1023.4</ele>
      </trkpt>
      <trkpt lat="45.15754" lon="5.52981">
        <ele>1021.9</ele>
      </trkpt>
      <trkpt lat="45.15721" lon="5.52933">
        <ele>1018.3</ele>
      </trkpt>
      <trkpt lat="45.15584" lon="5.52883">
        <ele>1014.6</ele>
      </trkpt>
      <trkpt lat="45.15468" lon="5.52807">
        <ele>1016.4</ele>
      </trkpt>
      <trkpt lat="45.15279" lon="5.52715">
        <ele>1012.4</ele>
      </trkpt>
      <trkpt lat="45.14996" lon="5.52627">
        <ele>1003.3</ele>
      </trkpt>
      <trkpt lat="45.15093" lon="5.52306">
        <ele>998.5</ele>
      </trkpt>
      <trkpt lat="45.14848" lon="5.52144">
        <ele>993</ele>
      </trkpt>
      <trkpt lat="45.14724" lon="5.52022">
        <ele>993.9</ele>
      </trkpt>
      <trkpt lat="45.14576" lon="5.51811">
        <ele>1005.6</ele>
      </trkpt>
      <trkpt lat="45.14492" lon="5.52029">
        <ele>987.9</ele>
      </trkpt>
      <trkpt lat="45.14403" lon="5.52083">
        <ele>990</ele>
      </trkpt>
      <trkpt lat="45.14344" lon="5.52079">
        <ele>990.3</ele>
      </trkpt>
      <trkpt lat="45.1432" lon="5.52098">
        <ele>990</ele>
      </trkpt>
      <trkpt lat="45.14312" lon="5.52129">
        <ele>988.7</ele>
      </trkpt>
      <trkpt lat="45.14207" lon="5.52106">
        <ele>990.2</ele>
      </trkpt>
      <trkpt lat="45.14118" lon="5.52129">
        <ele>986.9</ele>
      </trkpt>
      <trkpt lat="45.14093" lon="5.52163">
        <ele>989.6</ele>
      </trkpt>
      <trkpt lat="45.13916" lon="5.52251">
        <ele>982</ele>
      </trkpt>
      <trkpt lat="45.13732" lon="5.52278">
        <ele>979.1</ele>
      </trkpt>
      <trkpt lat="45.13695" lon="5.52316">
        <ele>980.5</ele>
      </trkpt>
      <trkpt lat="45.13627" lon="5.52316">
        <ele>979.4</ele>
      </trkpt>
      <trkpt lat="45.13506" lon="5.52373">
        <ele>980.8</ele>
      </trkpt>
      <trkpt lat="45.13457" lon="5.52369">
        <ele>979</ele>
      </trkpt>
      <trkpt lat="45.13185" lon="5.52618">
        <ele>979.2</ele>
      </trkpt>
      <trkpt lat="45.13145" lon="5.52767">
        <ele>976</ele>
      </trkpt>
      <trkpt lat="45.13088" lon="5.52801">
        <ele>976.9</ele>
      </trkpt>
      <trkpt lat="45.12943" lon="5.52797">
        <ele>985.2</ele>
      </trkpt>
      <trkpt lat="45.128" lon="5.52763">
        <ele>990.4</ele>
      </trkpt>
      <trkpt lat="45.12733" lon="5.52717">
        <ele>991.5</ele>
      </trkpt>
      <trkpt lat="45.12695" lon="5.52725">
        <ele>992.8</ele>
      </trkpt>
      <trkpt lat="45.12657" lon="5.52771">
        <ele>992.3</ele>
      </trkpt>
      <trkpt lat="45.12609" lon="5.52805">
        <ele>991.3</ele>
      </trkpt>
      <trkpt lat="45.12517" lon="5.52939">
        <ele>981</ele>
      </trkpt>
      <trkpt lat="45.12468" lon="5.52981">
        <ele>979.7</ele>
      </trkpt>
      <trkpt lat="45.12415" lon="5.52974">
        <ele>982.9</ele>
      </trkpt>
      <trkpt lat="45.12353" lon="5.52981">
        <ele>981.2</ele>
      </trkpt>
      <trkpt lat="45.12301" lon="5.52993">
        <ele>979.7</ele>
      </trkpt>
      <trkpt lat="45.12255" lon="5.53023">
        <ele>976.8</ele>
      </trkpt>
      <trkpt lat="45.12248" lon="5.53052">
        <ele>974</ele>
      </trkpt>
      <trkpt lat="45.1225" lon="5.53058">
        <ele>973.4</ele>
      </trkpt>
      <trkpt lat="45.11599" lon="5.53186">
        <ele>964.8</ele>
      </trkpt>
      <trkpt lat="45.11445" lon="5.53122">
        <ele>964.3</ele>
      </trkpt>
      <trkpt lat="45.11251" lon="5.53128">
        <ele>958.5</ele>
      </trkpt>
      <trkpt lat="45.10853" lon="5.5292">
        <ele>977.6</ele>
      </trkpt>
      <trkpt lat="45.10775" lon="5.52994">
        <ele>990.6</ele>
      </trkpt>
      <trkpt lat="45.10612" lon="5.5292">
        <ele>976.1</ele>
      </trkpt>
      <trkpt lat="45.10537" lon="5.53001">
        <ele>988.6</ele>
      </trkpt>
      <trkpt lat="45.10484" lon="5.52988">
        <ele>999.7</ele>
      </trkpt>
      <trkpt lat="45.10462" lon="5.52904">
        <ele>999.1</ele>
      </trkpt>
      <trkpt lat="45.10479" lon="5.52809">
        <ele>985.7</ele>
      </trkpt>
      <trkpt lat="45.1053" lon="5.52726">
        <ele>978</ele>
      </trkpt>
      <trkpt lat="45.105" lon="5.52693">
        <ele>976.1</ele>
      </trkpt>
      <trkpt lat="45.10398" lon="5.52674">
        <ele>980.6</ele>
      </trkpt>
      <trkpt lat="45.10341" lon="5.52705">
        <ele>984.9</ele>
      </trkpt>
      <trkpt lat="45.10249" lon="5.52693">
        <ele>983.6</ele>
      </trkpt>
      <trkpt lat="45.10188" lon="5.52789">
        <ele>992.2</ele>
      </trkpt>
      <trkpt lat="45.10122" lon="5.52798">
        <ele>994.7</ele>
      </trkpt>
      <trkpt lat="45.10069" lon="5.52755">
        <ele>993.2</ele>
      </trkpt>
      <trkpt lat="45.09973" lon="5.52554">
        <ele>963.5</ele>
      </trkpt>
      <trkpt lat="45.09931" lon="5.52526">
        <ele>961.3</ele>
      </trkpt>
      <trkpt lat="45.09863" lon="5.52565">
        <ele>961.1</ele>
      </trkpt>
      <trkpt lat="45.09813" lon="5.52736">
        <ele>982.4</ele>
      </trkpt>
      <trkpt lat="45.09772" lon="5.52756">
        <ele>992.7</ele>
      </trkpt>
      <trkpt lat="45.09735" lon="5.52722">
        <ele>978.6</ele>
      </trkpt>
      <trkpt lat="45.09692" lon="5.52613">
        <ele>954.9</ele>
      </trkpt>
      <trkpt lat="45.09637" lon="5.52616">
        <ele>952.6</ele>
      </trkpt>
      <trkpt lat="45.09561" lon="5.52658">
        <ele>954.5</ele>
      </trkpt>
      <trkpt lat="45.09492" lon="5.52642">
        <ele>951</ele>
      </trkpt>
      <trkpt lat="45.09433" lon="5.52608">
        <ele>946.9</ele>
      </trkpt>
      <trkpt lat="45.09329" lon="5.5272">
        <ele>953.1</ele>
      </trkpt>
      <trkpt lat="45.09261" lon="5.52736">
        <ele>964.7</ele>
      </trkpt>
      <trkpt lat="45.09209" lon="5.52697">
        <ele>973.6</ele>
      </trkpt>
      <trkpt lat="45.09157" lon="5.52461">
        <ele>948.9</ele>
      </trkpt>
      <trkpt lat="45.09121" lon="5.52423">
        <ele>948</ele>
      </trkpt>
      <trkpt lat="45.09076" lon="5.52434">
        <ele>944.2</ele>
      </trkpt>
      <trkpt lat="45.0897" lon="5.52537">
        <ele>948.7</ele>
      </trkpt>
      <trkpt lat="45.08905" lon="5.52527">
        <ele>961.4</ele>
      </trkpt>
      <trkpt lat="45.08807" lon="5.52415">
        <ele>943.5</ele>
      </trkpt>
      <trkpt lat="45.08757" lon="5.52398">
        <ele>944</ele>
      </trkpt>
      <trkpt lat="45.08581" lon="5.52439">
        <ele>933.5</ele>
      </trkpt>
      <trkpt lat="45.08575" lon="5.52433">
        <ele>933.3</ele>
      </trkpt>
      <trkpt lat="45.08452" lon="5.52893">
        <ele>952.5</ele>
      </trkpt>
      <trkpt lat="45.08442" lon="5.52998">
        <ele>960.1</ele>
      </trkpt>
      <trkpt lat="45.08419" lon="5.53062">
        <ele>960.5</ele>
      </trkpt>
      <trkpt lat="45.08177" lon="5.53289">
        <ele>951</ele>
      </trkpt>
      <trkpt lat="45.07968" lon="5.53403">
        <ele>950.2</ele>
      </trkpt>
      <trkpt lat="45.07781" lon="5.53693">
        <ele>967.5</ele>
      </trkpt>
      <trkpt lat="45.07625" lon="5.53704">
        <ele>961.5</ele>
      </trkpt>
      <trkpt lat="45.07585" lon="5.53848">
        <ele>952.9</ele>
      </trkpt>
      <trkpt lat="45.07298" lon="5.54042">
        <ele>963.8</ele>
      </trkpt>
      <trkpt lat="45.07388" lon="5.54122">
        <ele>965</ele>
      </trkpt>
      <trkpt lat="45.07398" lon="5.54158">
        <ele>965</ele>
      </trkpt>
      <trkpt lat="45.0735" lon="5.54341">
        <ele>972.2</ele>
      </trkpt>
      <trkpt lat="45.0731" lon="5.54389">
        <ele>979.4</ele>
      </trkpt>
      <trkpt lat="45.07386" lon="5.54589">
        <ele>975.2</ele>
      </trkpt>
      <trkpt lat="45.0738" lon="5.54639">
        <ele>967.8</ele>
      </trkpt>
      <trkpt lat="45.07352" lon="5.54681">
        <ele>963.9</ele>
      </trkpt>
      <trkpt lat="45.07346" lon="5.54698">
        <ele>964.5</ele>
      </trkpt>
      <trkpt lat="45.07354" lon="5.54742">
        <ele>966</ele>
      </trkpt>
      <trkpt lat="45.0737" lon="5.54819">
        <ele>971.8</ele>
      </trkpt>
      <trkpt lat="45.07343" lon="5.54826">
        <ele>975.1</ele>
      </trkpt>
      <trkpt lat="45.07318" lon="5.54805">
        <ele>975.7</ele>
      </trkpt>
      <trkpt lat="45.0731" lon="5.54793">
        <ele>975.1</ele>
      </trkpt>
      <trkpt lat="45.07236" lon="5.54775">
        <ele>980.6</ele>
      </trkpt>
      <trkpt lat="45.07216" lon="5.54786">
        <ele>984.6</ele>
      </trkpt>
      <trkpt lat="45.07201" lon="5.54855">
        <ele>998.7</ele>
      </trkpt>
      <trkpt lat="45.07146" lon="5.54833">
        <ele>1001.1</ele>
      </trkpt>
      <trkpt lat="45.07024" lon="5.54824">
        <ele>1005.9</ele>
      </trkpt>
      <trkpt lat="45.06927" lon="5.54848">
        <ele>1006.3</ele>
      </trkpt>
      <trkpt lat="45.06899" lon="5.54903">
        <ele>1008.2</ele>
      </trkpt>
      <trkpt lat="45.06919" lon="5.54951">
        <ele>1015</ele>
      </trkpt>
      <trkpt lat="45.06855" lon="5.55229">
        <ele>1009.8</ele>
      </trkpt>
      <trkpt lat="45.06813" lon="5.55323">
        <ele>1008.4</ele>
      </trkpt>
      <trkpt lat="45.06769" lon="5.55309">
        <ele>1004.8</ele>
      </trkpt>
      <trkpt lat="45.06688" lon="5.55552">
        <ele>1019.7</ele>
      </trkpt>
      <trkpt lat="45.06628" lon="5.55616">
        <ele>1026.3</ele>
      </trkpt>
      <trkpt lat="45.06611" lon="5.55678">
        <ele>1030.4</ele>
      </trkpt>
      <trkpt lat="45.06621" lon="5.55697">
        <ele>1031.2</ele>
      </trkpt>
      <trkpt lat="45.06584" lon="5.55731">
        <ele>1031.8</ele>
      </trkpt>
      <trkpt lat="45.06557" lon="5.55819">
        <ele>1040.1</ele>
      </trkpt>
      <trkpt lat="45.06652" lon="5.55856">
        <ele>1047.1</ele>
      </trkpt>
      <trkpt lat="45.06595" lon="5.55894">
        <ele>1049.6</ele>
      </trkpt>
      <trkpt lat="45.06511" lon="5.55891">
        <ele>1047.7</ele>
      </trkpt>
      <trkpt lat="45.06476" lon="5.55918">
        <ele>1051.8</ele>
      </trkpt>
      <trkpt lat="45.06463" lon="5.56016">
        <ele>1056</ele>
      </trkpt>
      <trkpt lat="45.06435" lon="5.56094">
        <ele>1061.6</ele>
      </trkpt>
      <trkpt lat="45.06402" lon="5.56107">
        <ele>1065.3</ele>
      </trkpt>
      <trkpt lat="45.06346" lon="5.56004">
        <ele>1071.6</ele>
      </trkpt>
      <trkpt lat="45.06265" lon="5.55795">
        <ele>1077.5</ele>
      </trkpt>
      <trkpt lat="45.06256" lon="5.55729">
        <ele>1076</ele>
      </trkpt>
      <trkpt lat="45.06152" lon="5.55562">
        <ele>1061.2</ele>
      </trkpt>
      <trkpt lat="45.06119" lon="5.55579">
        <ele>1057.5</ele>
      </trkpt>
      <trkpt lat="45.06091" lon="5.55643">
        <ele>1055.4</ele>
      </trkpt>
      <trkpt lat="45.06052" lon="5.55652">
        <ele>1057</ele>
      </trkpt>
      <trkpt lat="45.05992" lon="5.55589">
        <ele>1061.5</ele>
      </trkpt>
      <trkpt lat="45.05963" lon="5.55587">
        <ele>1066.7</ele>
      </trkpt>
      <trkpt lat="45.0592" lon="5.555">
        <ele>1061.6</ele>
      </trkpt>
      <trkpt lat="45.05879" lon="5.55496">
        <ele>1062.4</ele>
      </trkpt>
      <trkpt lat="45.05781" lon="5.55605">
        <ele>1077.8</ele>
      </trkpt>
      <trkpt lat="45.05647" lon="5.55636">
        <ele>1099.6</ele>
      </trkpt>
      <trkpt lat="45.0564" lon="5.55662">
        <ele>1106.3</ele>
      </trkpt>
      <trkpt lat="45.05654" lon="5.5569">
        <ele>1105.8</ele>
      </trkpt>
      <trkpt lat="45.05726" lon="5.55681">
        <ele>1093.7</ele>
      </trkpt>
      <trkpt lat="45.0576" lon="5.55699">
        <ele>1094.8</ele>
      </trkpt>
      <trkpt lat="45.05756" lon="5.55721">
        <ele>1099.4</ele>
      </trkpt>
      <trkpt lat="45.05745" lon="5.5573">
        <ele>1102.2</ele>
      </trkpt>
      <trkpt lat="45.05659" lon="5.55745">
        <ele>1113.4</ele>
      </trkpt>
      <trkpt lat="45.05623" lon="5.55752">
        <ele>1123.9</ele>
      </trkpt>
      <trkpt lat="45.05601" lon="5.55709">
        <ele>1124.9</ele>
      </trkpt>
      <trkpt lat="45.05573" lon="5.55652">
        <ele>1127.5</ele>
      </trkpt>
      <trkpt lat="45.05488" lon="5.55546">
        <ele>1138.3</ele>
      </trkpt>
      <trkpt lat="45.05443" lon="5.55441">
        <ele>1127.7</ele>
      </trkpt>
      <trkpt lat="45.05401" lon="5.55378">
        <ele>1130.1</ele>
      </trkpt>
      <trkpt lat="45.05387" lon="5.55354">
        <ele>1130.9</ele>
      </trkpt>
      <trkpt lat="45.05255" lon="5.55285">
        <ele>1121.9</ele>
      </trkpt>
      <trkpt lat="45.05192" lon="5.55294">
        <ele>1121.8</ele>
      </trkpt>
      <trkpt lat="45.05165" lon="5.55272">
        <ele>1119</ele>
      </trkpt>
      <trkpt lat="45.05051" lon="5.55171">
        <ele>1115.9</ele>
      </trkpt>
      <trkpt lat="45.04918" lon="5.55204">
        <ele>1128.2</ele>
      </trkpt>
      <trkpt lat="45.04845" lon="5.55214">
        <ele>1124.9</ele>
      </trkpt>
      <trkpt lat="45.04809" lon="5.55351">
        <ele>1122.7</ele>
      </trkpt>
      <trkpt lat="45.04808" lon="5.55426">
        <ele>1124.8</ele>
      </trkpt>
      <trkpt lat="45.04807" lon="5.55537">
        <ele>1129.3</ele>
      </trkpt>
      <trkpt lat="45.04785" lon="5.55557">
        <ele>1130</ele>
      </trkpt>
      <trkpt lat="45.04756" lon="5.5555">
        <ele>1128.6</ele>
      </trkpt>
      <trkpt lat="45.04728" lon="5.55527">
        <ele>1126.5</ele>
      </trkpt>
      <trkpt lat="45.04714" lon="5.55484">
        <ele>1123.4</ele>
      </trkpt>
      <trkpt lat="45.04693" lon="5.55448">
        <ele>1121.8</ele>
      </trkpt>
      <trkpt lat="45.0467" lon="5.55445">
        <ele>1123.5</ele>
      </trkpt>
      <trkpt lat="45.04662" lon="5.55509">
        <ele>1126.7</ele>
      </trkpt>
      <trkpt lat="45.0464" lon="5.55532">
        <ele>1125</ele>
      </trkpt>
      <trkpt lat="45.04596" lon="5.55547">
        <ele>1121.1</ele>
      </trkpt>
      <trkpt lat="45.04558" lon="5.55573">
        <ele>1115.8</ele>
      </trkpt>
      <trkpt lat="45.04534" lon="5.55709">
        <ele>1123.9</ele>
      </trkpt>
      <trkpt lat="45.04464" lon="5.55839">
        <ele>1133.3</ele>
      </trkpt>
      <trkpt lat="45.04411" lon="5.55769">
        <ele>1131.3</ele>
      </trkpt>
      <trkpt lat="45.04368" lon="5.55671">
        <ele>1145.8</ele>
      </trkpt>
      <trkpt lat="45.04288" lon="5.55517">
        <ele>1156.6</ele>
      </trkpt>
      <trkpt lat="45.04227" lon="5.55383">
        <ele>1165.2</ele>
      </trkpt>
      <trkpt lat="45.04135" lon="5.55199">
        <ele>1163.1</ele>
      </trkpt>
      <trkpt lat="45.0415" lon="5.55131">
        <ele>1151.7</ele>
      </trkpt>
      <trkpt lat="45.04134" lon="5.55092">
        <ele>1155</ele>
      </trkpt>
      <trkpt lat="45.04205" lon="5.54982">
        <ele>1140.8</ele>
      </trkpt>
      <trkpt lat="45.0424" lon="5.5493">
        <ele>1138.7</ele>
      </trkpt>
      <trkpt lat="45.04265" lon="5.54891">
        <ele>1135.2</ele>
      </trkpt>
      <trkpt lat="45.04269" lon="5.54847">
        <ele>1134.2</ele>
      </trkpt>
      <trkpt lat="45.04242" lon="5.54818">
        <ele>1134.1</ele>
      </trkpt>
      <trkpt lat="45.04183" lon="5.54824">
        <ele>1136.1</ele>
      </trkpt>
      <trkpt lat="45.04166" lon="5.54713">
        <ele>1134.5</ele>
      </trkpt>
      <trkpt lat="45.0423" lon="5.5463">
        <ele>1120.8</ele>
      </trkpt>
      <trkpt lat="45.0425" lon="5.54568">
        <ele>1116.8</ele>
      </trkpt>
      <trkpt lat="45.04237" lon="5.54416">
        <ele>1109.5</ele>
      </trkpt>
      <trkpt lat="45.04186" lon="5.54178">
        <ele>1087.6</ele>
      </trkpt>
      <trkpt lat="45.04145" lon="5.54155">
        <ele>1093.5</ele>
      </trkpt>
      <trkpt lat="45.04142" lon="5.54034">
        <ele>1091.2</ele>
      </trkpt>
      <trkpt lat="45.04113" lon="5.53939">
        <ele>1093.9</ele>
      </trkpt>
      <trkpt lat="45.04082" lon="5.53883">
        <ele>1095.5</ele>
      </trkpt>
      <trkpt lat="45.0392" lon="5.53733">
        <ele>1098</ele>
      </trkpt>
      <trkpt lat="45.03888" lon="5.53718">
        <ele>1099.1</ele>
      </trkpt>
      <trkpt lat="45.03663" lon="5.53459">
        <ele>1100.5</ele>
      </trkpt>
      <trkpt lat="45.03655" lon="5.53403">
        <ele>1095.3</ele>
      </trkpt>
      <trkpt lat="45.0346" lon="5.53331">
        <ele>1093.4</ele>
      </trkpt>
      <trkpt lat="45.03381" lon="5.53281">
        <ele>1099.4</ele>
      </trkpt>
      <trkpt lat="45.03329" lon="5.53134">
        <ele>1095.1</ele>
      </trkpt>
      <trkpt lat="45.03273" lon="5.53143">
        <ele>1099.3</ele>
      </trkpt>
      <trkpt lat="45.0324" lon="5.5309">
        <ele>1099.6</ele>
      </trkpt>
      <trkpt lat="45.03172" lon="5.53043">
        <ele>1104.7</ele>
      </trkpt>
      <trkpt lat="45.0318" lon="5.52993">
        <ele>1101.3</ele>
      </trkpt>
      <trkpt lat="45.03115" lon="5.5292">
        <ele>1102.4</ele>
      </trkpt>
      <trkpt lat="45.0309" lon="5.52755">
        <ele>1102.2</ele>
      </trkpt>
      <trkpt lat="45.02985" lon="5.52775">
        <ele>1106.7</ele>
      </trkpt>
      <trkpt lat="45.0293" lon="5.52775">
        <ele>1110.8</ele>
      </trkpt>
      <trkpt lat="45.02905" lon="5.52713">
        <ele>1110.4</ele>
      </trkpt>
      <trkpt lat="45.0289" lon="5.52698">
        <ele>1112</ele>
      </trkpt>
      <trkpt lat="45.02834" lon="5.52683">
        <ele>1119</ele>
      </trkpt>
      <trkpt lat="45.02807" lon="5.5265">
        <ele>1121.1</ele>
      </trkpt>
      <trkpt lat="45.02805" lon="5.52503">
        <ele>1119.4</ele>
      </trkpt>
      <trkpt lat="45.02713" lon="5.52512">
        <ele>1126</ele>
      </trkpt>
      <trkpt lat="45.02681" lon="5.52458">
        <ele>1128.2</ele>
      </trkpt>
      <trkpt lat="45.02638" lon="5.52329">
        <ele>1132.9</ele>
      </trkpt>
      <trkpt lat="45.02633" lon="5.52222">
        <ele>1131.9</ele>
      </trkpt>
      <trkpt lat="45.02619" lon="5.52152">
        <ele>1128.8</ele>
      </trkpt>
      <trkpt lat="45.02577" lon="5.52118">
        <ele>1134</ele>
      </trkpt>
      <trkpt lat="45.02615" lon="5.52057">
        <ele>1125.2</ele>
      </trkpt>
      <trkpt lat="45.02622" lon="5.5204">
        <ele>1123.9</ele>
      </trkpt>
      <trkpt lat="45.02499" lon="5.51828">
        <ele>1141.5</ele>
      </trkpt>
      <trkpt lat="45.02502" lon="5.51794">
        <ele>1144.3</ele>
      </trkpt>
      <trkpt lat="45.02397" lon="5.51698">
        <ele>1154.9</ele>
      </trkpt>
      <trkpt lat="45.02383" lon="5.51611">
        <ele>1165.7</ele>
      </trkpt>
      <trkpt lat="45.02479" lon="5.51533">
        <ele>1177.9</ele>
      </trkpt>
      <trkpt lat="45.02645" lon="5.51516">
        <ele>1190.6</ele>
      </trkpt>
      <trkpt lat="45.02662" lon="5.51497">
        <ele>1192.6</ele>
      </trkpt>
      <trkpt lat="45.02708" lon="5.51387">
        <ele>1198.3</ele>
      </trkpt>
      <trkpt lat="45.02755" lon="5.51355">
        <ele>1204.1</ele>
      </trkpt>
      <trkpt lat="45.02815" lon="5.51197">
        <ele>1206.2</ele>
      </trkpt>
      <trkpt lat="45.02923" lon="5.51136">
        <ele>1212</ele>
      </trkpt>
      <trkpt lat="45.02971" lon="5.51041">
        <ele>1214.1</ele>
      </trkpt>
      <trkpt lat="45.03002" lon="5.50934">
        <ele>1214.1</ele>
      </trkpt>
      <trkpt lat="45.03088" lon="5.50886">
        <ele>1220.2</ele>
      </trkpt>
      <trkpt lat="45.03152" lon="5.50847">
        <ele>1226</ele>
      </trkpt>
      <trkpt lat="45.03189" lon="5.5075">
        <ele>1229.3</ele>
      </trkpt>
      <trkpt lat="45.03349" lon="5.50779">
        <ele>1238.5</ele>
      </trkpt>
      <trkpt lat="45.03429" lon="5.50757">
        <ele>1238.4</ele>
      </trkpt>
      <trkpt lat="45.0352" lon="5.50808">
        <ele>1238.9</ele>
      </trkpt>
      <trkpt lat="45.03688" lon="5.50825">
        <ele>1245.2</ele>
      </trkpt>
      <trkpt lat="45.03681" lon="5.50879">
        <ele>1248.3</ele>
      </trkpt>
      <trkpt lat="45.0357" lon="5.50907">
        <ele>1246.3</ele>
      </trkpt>
      <trkpt lat="45.03527" lon="5.51024">
        <ele>1251.8</ele>
      </trkpt>
      <trkpt lat="45.0351" lon="5.51079">
        <ele>1248.9</ele>
      </trkpt>
      <trkpt lat="45.03491" lon="5.5108">
        <ele>1250.1</ele>
      </trkpt>
      <trkpt lat="45.03492" lon="5.51114">
        <ele>1249.5</ele>
      </trkpt>
      <trkpt lat="45.0346" lon="5.5117">
        <ele>1257.7</ele>
      </trkpt>
      <trkpt lat="45.03457" lon="5.5122">
        <ele>1261.2</ele>
      </trkpt>
      <trkpt lat="45.03477" lon="5.51214">
        <ele>1256.9</ele>
      </trkpt>
      <trkpt lat="45.03469" lon="5.51273">
        <ele>1262.1</ele>
      </trkpt>
      <trkpt lat="45.03477" lon="5.51303">
        <ele>1262.6</ele>
      </trkpt>
      <trkpt lat="45.03478" lon="5.51361">
        <ele>1262</ele>
      </trkpt>
      <trkpt lat="45.03504" lon="5.51374">
        <ele>1260.1</ele>
      </trkpt>
      <trkpt lat="45.03535" lon="5.51397">
        <ele>1259.5</ele>
      </trkpt>
      <trkpt lat="45.03545" lon="5.51348">
        <ele>1261.4</ele>
      </trkpt>
      <trkpt lat="45.03564" lon="5.51269">
        <ele>1259.2</ele>
      </trkpt>
      <trkpt lat="45.03586" lon="5.51218">
        <ele>1257.8</ele>
      </trkpt>
      <trkpt lat="45.03586" lon="5.51155">
        <ele>1255.2</ele>
      </trkpt>
      <trkpt lat="45.03577" lon="5.51111">
        <ele>1253.3</ele>
      </trkpt>
      <trkpt lat="45.03599" lon="5.51062">
        <ele>1254</ele>
      </trkpt>
      <trkpt lat="45.03635" lon="5.51011">
        <ele>1255</ele>
      </trkpt>
      <trkpt lat="45.03656" lon="5.50928">
        <ele>1251.3</ele>
      </trkpt>
      <trkpt lat="45.03681" lon="5.50879">
        <ele>1248.3</ele>
      </trkpt>
      <trkpt lat="45.03689" lon="5.50829">
        <ele>1245.2</ele>
      </trkpt>
      <trkpt lat="45.037" lon="5.50813">
        <ele>1244.8</ele>
      </trkpt>
      <trkpt lat="45.03669" lon="5.50727">
        <ele>1246.4</ele>
      </trkpt>
      <trkpt lat="45.03667" lon="5.50662">
        <ele>1250.3</ele>
      </trkpt>
      <trkpt lat="45.03678" lon="5.50632">
        <ele>1252.4</ele>
      </trkpt>
      <trkpt lat="45.03684" lon="5.5061">
        <ele>1253.7</ele>
      </trkpt>
      <trkpt lat="45.03691" lon="5.50539">
        <ele>1257.6</ele>
      </trkpt>
      <trkpt lat="45.03733" lon="5.50493">
        <ele>1260</ele>
      </trkpt>
      <trkpt lat="45.03764" lon="5.50473">
        <ele>1262.2</ele>
      </trkpt>
      <trkpt lat="45.03818" lon="5.5038">
        <ele>1270</ele>
      </trkpt>
      <trkpt lat="45.03887" lon="5.5029">
        <ele>1278.5</ele>
      </trkpt>
      <trkpt lat="45.03891" lon="5.50288">
        <ele>1278.8</ele>
      </trkpt>
      <trkpt lat="45.03865" lon="5.50249">
        <ele>1279.6</ele>
      </trkpt>
      <trkpt lat="45.03853" lon="5.50175">
        <ele>1284.4</ele>
      </trkpt>
      <trkpt lat="45.03882" lon="5.50083">
        <ele>1291.2</ele>
      </trkpt>
      <trkpt lat="45.03918" lon="5.50071">
        <ele>1288</ele>
      </trkpt>
      <trkpt lat="45.03995" lon="5.50066">
        <ele>1289.9</ele>
      </trkpt>
      <trkpt lat="45.04071" lon="5.5007">
        <ele>1290.3</ele>
      </trkpt>
      <trkpt lat="45.04157" lon="5.50075">
        <ele>1291.4</ele>
      </trkpt>
      <trkpt lat="45.04208" lon="5.50026">
        <ele>1289.4</ele>
      </trkpt>
      <trkpt lat="45.04253" lon="5.4995">
        <ele>1289.6</ele>
      </trkpt>
      <trkpt lat="45.04276" lon="5.49839">
        <ele>1295.6</ele>
      </trkpt>
      <trkpt lat="45.04259" lon="5.49745">
        <ele>1310.9</ele>
      </trkpt>
      <trkpt lat="45.04223" lon="5.49714">
        <ele>1318.9</ele>
      </trkpt>
      <trkpt lat="45.04151" lon="5.49696">
        <ele>1321.8</ele>
      </trkpt>
      <trkpt lat="45.04079" lon="5.49678">
        <ele>1328.1</ele>
      </trkpt>
      <trkpt lat="45.04024" lon="5.49628">
        <ele>1345.2</ele>
      </trkpt>
      <trkpt lat="45.03942" lon="5.4961">
        <ele>1349.3</ele>
      </trkpt>
      <trkpt lat="45.03912" lon="5.49589">
        <ele>1353.2</ele>
      </trkpt>
      <trkpt lat="45.03867" lon="5.49559">
        <ele>1357.9</ele>
      </trkpt>
      <trkpt lat="45.03835" lon="5.4952">
        <ele>1365.4</ele>
      </trkpt>
      <trkpt lat="45.03811" lon="5.49429">
        <ele>1387</ele>
      </trkpt>
      <trkpt lat="45.03784" lon="5.49428">
        <ele>1386.6</ele>
      </trkpt>
      <trkpt lat="45.03751" lon="5.49429">
        <ele>1385.1</ele>
      </trkpt>
      <trkpt lat="45.03701" lon="5.49403">
        <ele>1389.7</ele>
      </trkpt>
      <trkpt lat="45.03704" lon="5.49388">
        <ele>1392.5</ele>
      </trkpt>
      <trkpt lat="45.03795" lon="5.49381">
        <ele>1393.6</ele>
      </trkpt>
      <trkpt lat="45.03848" lon="5.494">
        <ele>1392.4</ele>
      </trkpt>
      <trkpt lat="45.03894" lon="5.49408">
        <ele>1392.3</ele>
      </trkpt>
      <trkpt lat="45.03922" lon="5.49412">
        <ele>1392.7</ele>
      </trkpt>
      <trkpt lat="45.04038" lon="5.49372">
        <ele>1406.4</ele>
      </trkpt>
      <trkpt lat="45.04156" lon="5.49353">
        <ele>1419.5</ele>
      </trkpt>
      <trkpt lat="45.0424" lon="5.49323">
        <ele>1429.1</ele>
      </trkpt>
      <trkpt lat="45.04307" lon="5.49337">
        <ele>1432.7</ele>
      </trkpt>
      <trkpt lat="45.04339" lon="5.49329">
        <ele>1435.8</ele>
      </trkpt>
      <trkpt lat="45.04418" lon="5.493">
        <ele>1444.1</ele>
      </trkpt>
      <trkpt lat="45.04491" lon="5.49277">
        <ele>1451</ele>
      </trkpt>
      <trkpt lat="45.04518" lon="5.4925">
        <ele>1455.6</ele>
      </trkpt>
      <trkpt lat="45.04529" lon="5.49232">
        <ele>1459</ele>
      </trkpt>
      <trkpt lat="45.04532" lon="5.49129">
        <ele>1468.9</ele>
      </trkpt>
      <trkpt lat="45.04567" lon="5.49043">
        <ele>1480.3</ele>
      </trkpt>
      <trkpt lat="45.04614" lon="5.49008">
        <ele>1487.9</ele>
      </trkpt>
      <trkpt lat="45.04655" lon="5.48987">
        <ele>1494.5</ele>
      </trkpt>
      <trkpt lat="45.04688" lon="5.48989">
        <ele>1499</ele>
      </trkpt>
      <trkpt lat="45.04739" lon="5.48935">
        <ele>1509.5</ele>
      </trkpt>
      <trkpt lat="45.04801" lon="5.48873">
        <ele>1519.3</ele>
      </trkpt>
      <trkpt lat="45.04828" lon="5.48828">
        <ele>1521.9</ele>
      </trkpt>
      <trkpt lat="45.04839" lon="5.48806">
        <ele>1522.5</ele>
      </trkpt>
      <trkpt lat="45.04847" lon="5.48759">
        <ele>1523</ele>
      </trkpt>
      <trkpt lat="45.04847" lon="5.48736">
        <ele>1522.1</ele>
      </trkpt>
      <trkpt lat="45.04872" lon="5.48691">
        <ele>1519.6</ele>
      </trkpt>
      <trkpt lat="45.04876" lon="5.48653">
        <ele>1516.4</ele>
      </trkpt>
      <trkpt lat="45.0486" lon="5.48643">
        <ele>1516</ele>
      </trkpt>
      <trkpt lat="45.04879" lon="5.48653">
        <ele>1516.4</ele>
      </trkpt>
      <trkpt lat="45.04966" lon="5.48572">
        <ele>1517.9</ele>
      </trkpt>
      <trkpt lat="45.05042" lon="5.48528">
        <ele>1526.2</ele>
      </trkpt>
      <trkpt lat="45.05077" lon="5.48502">
        <ele>1528.6</ele>
      </trkpt>
      <trkpt lat="45.05099" lon="5.48475">
        <ele>1529.1</ele>
      </trkpt>
      <trkpt lat="45.05123" lon="5.4842">
        <ele>1530.4</ele>
      </trkpt>
      <trkpt lat="45.05148" lon="5.48348">
        <ele>1529.6</ele>
      </trkpt>
      <trkpt lat="45.05063" lon="5.48331">
        <ele>1528.9</ele>
      </trkpt>
      <trkpt lat="45.04988" lon="5.48308">
        <ele>1536.2</ele>
      </trkpt>
      <trkpt lat="45.04945" lon="5.48279">
        <ele>1537.6</ele>
      </trkpt>
      <trkpt lat="45.04902" lon="5.48267">
        <ele>1539.4</ele>
      </trkpt>
      <trkpt lat="45.04878" lon="5.4823">
        <ele>1538.4</ele>
      </trkpt>
      <trkpt lat="45.04833" lon="5.48215">
        <ele>1538.6</ele>
      </trkpt>
      <trkpt lat="45.048" lon="5.48183">
        <ele>1531.6</ele>
      </trkpt>
      <trkpt lat="45.04789" lon="5.48166">
        <ele>1526.9</ele>
      </trkpt>
      <trkpt lat="45.04776" lon="5.48225">
        <ele>1543</ele>
      </trkpt>
      <trkpt lat="45.04729" lon="5.48229">
        <ele>1544.8</ele>
      </trkpt>
      <trkpt lat="45.0471" lon="5.48213">
        <ele>1539.6</ele>
      </trkpt>
      <trkpt lat="45.04675" lon="5.48238">
        <ele>1546.1</ele>
      </trkpt>
      <trkpt lat="45.0463" lon="5.48213">
        <ele>1534.2</ele>
      </trkpt>
      <trkpt lat="45.04595" lon="5.48239">
        <ele>1537</ele>
      </trkpt>
      <trkpt lat="45.04554" lon="5.48246">
        <ele>1533.6</ele>
      </trkpt>
      <trkpt lat="45.04509" lon="5.48318">
        <ele>1524.7</ele>
      </trkpt>
      <trkpt lat="45.04502" lon="5.48325">
        <ele>1523.7</ele>
      </trkpt>
      <trkpt lat="45.04486" lon="5.48304">
        <ele>1520.7</ele>
      </trkpt>
      <trkpt lat="45.04485" lon="5.48332">
        <ele>1518.7</ele>
      </trkpt>
      <trkpt lat="45.04483" lon="5.48379">
        <ele>1514.3</ele>
      </trkpt>
      <trkpt lat="45.04425" lon="5.48348">
        <ele>1498.7</ele>
      </trkpt>
      <trkpt lat="45.04397" lon="5.48285">
        <ele>1495.5</ele>
      </trkpt>
      <trkpt lat="45.04378" lon="5.48228">
        <ele>1491.8</ele>
      </trkpt>
      <trkpt lat="45.04376" lon="5.48181">
        <ele>1489.3</ele>
      </trkpt>
      <trkpt lat="45.04414" lon="5.48146">
        <ele>1489.4</ele>
      </trkpt>
      <trkpt lat="45.04451" lon="5.4813">
        <ele>1490.8</ele>
      </trkpt>
      <trkpt lat="45.04494" lon="5.48123">
        <ele>1495.6</ele>
      </trkpt>
      <trkpt lat="45.04544" lon="5.48098">
        <ele>1487.5</ele>
      </trkpt>
      <trkpt lat="45.04581" lon="5.481">
        <ele>1489.2</ele>
      </trkpt>
      <trkpt lat="45.04675" lon="5.48063">
        <ele>1470.2</ele>
      </trkpt>
      <trkpt lat="45.04711" lon="5.48055">
        <ele>1467.5</ele>
      </trkpt>
      <trkpt lat="45.04741" lon="5.48057">
        <ele>1468.7</ele>
      </trkpt>
      <trkpt lat="45.04788" lon="5.48046">
        <ele>1462.1</ele>
      </trkpt>
      <trkpt lat="45.04821" lon="5.48034">
        <ele>1455.1</ele>
      </trkpt>
      <trkpt lat="45.04851" lon="5.48035">
        <ele>1454.3</ele>
      </trkpt>
      <trkpt lat="45.04977" lon="5.48038">
        <ele>1451.9</ele>
      </trkpt>
      <trkpt lat="45.05106" lon="5.48045">
        <ele>1446.9</ele>
      </trkpt>
      <trkpt lat="45.05093" lon="5.48026">
        <ele>1438.3</ele>
      </trkpt>
      <trkpt lat="45.04994" lon="5.47992">
        <ele>1427.1</ele>
      </trkpt>
      <trkpt lat="45.04902" lon="5.47973">
        <ele>1423.3</ele>
      </trkpt>
      <trkpt lat="45.04788" lon="5.47929">
        <ele>1412.2</ele>
      </trkpt>
      <trkpt lat="45.0466" lon="5.47861">
        <ele>1401.4</ele>
      </trkpt>
      <trkpt lat="45.04536" lon="5.47793">
        <ele>1390.2</ele>
      </trkpt>
      <trkpt lat="45.04512" lon="5.47703">
        <ele>1376.2</ele>
      </trkpt>
      <trkpt lat="45.04511" lon="5.47652">
        <ele>1372.9</ele>
      </trkpt>
      <trkpt lat="45.04232" lon="5.47659">
        <ele>1372.3</ele>
      </trkpt>
      <trkpt lat="45.03794" lon="5.47808">
        <ele>1343.6</ele>
      </trkpt>
      <trkpt lat="45.0366" lon="5.47973">
        <ele>1327.6</ele>
      </trkpt>
      <trkpt lat="45.03409" lon="5.47968">
        <ele>1320.9</ele>
      </trkpt>
      <trkpt lat="45.03261" lon="5.47806">
        <ele>1304.5</ele>
      </trkpt>
      <trkpt lat="45.03265" lon="5.4778">
        <ele>1304.1</ele>
      </trkpt>
      <trkpt lat="45.03162" lon="5.47783">
        <ele>1296.8</ele>
      </trkpt>
      <trkpt lat="45.0307" lon="5.47737">
        <ele>1290.2</ele>
      </trkpt>
      <trkpt lat="45.02998" lon="5.47722">
        <ele>1288.5</ele>
      </trkpt>
      <trkpt lat="45.02907" lon="5.47717">
        <ele>1282.6</ele>
      </trkpt>
      <trkpt lat="45.02824" lon="5.47691">
        <ele>1283.7</ele>
      </trkpt>
      <trkpt lat="45.0276" lon="5.4772">
        <ele>1280.5</ele>
      </trkpt>
      <trkpt lat="45.02487" lon="5.47664">
        <ele>1285.2</ele>
      </trkpt>
      <trkpt lat="45.02412" lon="5.47659">
        <ele>1291.5</ele>
      </trkpt>
      <trkpt lat="45.02342" lon="5.47653">
        <ele>1295.6</ele>
      </trkpt>
      <trkpt lat="45.02121" lon="5.4757">
        <ele>1300.6</ele>
      </trkpt>
      <trkpt lat="45.02084" lon="5.4755">
        <ele>1302.7</ele>
      </trkpt>
      <trkpt lat="45.02016" lon="5.47521">
        <ele>1314.6</ele>
      </trkpt>
      <trkpt lat="45.02015" lon="5.4747">
        <ele>1311</ele>
      </trkpt>
      <trkpt lat="45.02005" lon="5.47413">
        <ele>1308.9</ele>
      </trkpt>
      <trkpt lat="45.01981" lon="5.47388">
        <ele>1313.2</ele>
      </trkpt>
      <trkpt lat="45.01954" lon="5.47327">
        <ele>1315.6</ele>
      </trkpt>
      <trkpt lat="45.01904" lon="5.47323">
        <ele>1316.8</ele>
      </trkpt>
      <trkpt lat="45.01822" lon="5.47272">
        <ele>1320.7</ele>
      </trkpt>
      <trkpt lat="45.01741" lon="5.47241">
        <ele>1322.1</ele>
      </trkpt>
      <trkpt lat="45.01718" lon="5.47229">
        <ele>1323.8</ele>
      </trkpt>
      <trkpt lat="45.01692" lon="5.47222">
        <ele>1324.8</ele>
      </trkpt>
      <trkpt lat="45.01633" lon="5.47262">
        <ele>1320.3</ele>
      </trkpt>
      <trkpt lat="45.01549" lon="5.47254">
        <ele>1318</ele>
      </trkpt>
      <trkpt lat="45.01516" lon="5.4718">
        <ele>1321.3</ele>
      </trkpt>
      <trkpt lat="45.01449" lon="5.47165">
        <ele>1314.6</ele>
      </trkpt>
      <trkpt lat="45.01426" lon="5.47094">
        <ele>1311.1</ele>
      </trkpt>
      <trkpt lat="45.01462" lon="5.47001">
        <ele>1309.3</ele>
      </trkpt>
      <trkpt lat="45.01534" lon="5.46912">
        <ele>1296.9</ele>
      </trkpt>
      <trkpt lat="45.01632" lon="5.46857">
        <ele>1294.6</ele>
      </trkpt>
      <trkpt lat="45.01695" lon="5.46825">
        <ele>1300.2</ele>
      </trkpt>
      <trkpt lat="45.01742" lon="5.46733">
        <ele>1276.1</ele>
      </trkpt>
      <trkpt lat="45.01788" lon="5.46648">
        <ele>1259.7</ele>
      </trkpt>
      <trkpt lat="45.0182" lon="5.46456">
        <ele>1214.8</ele>
      </trkpt>
      <trkpt lat="45.0177" lon="5.46468">
        <ele>1211</ele>
      </trkpt>
      <trkpt lat="45.01734" lon="5.46584">
        <ele>1217</ele>
      </trkpt>
      <trkpt lat="45.01496" lon="5.4671">
        <ele>1175.9</ele>
      </trkpt>
      <trkpt lat="45.01571" lon="5.46549">
        <ele>1160.1</ele>
      </trkpt>
      <trkpt lat="45.01565" lon="5.46526">
        <ele>1160.3</ele>
      </trkpt>
      <trkpt lat="45.01514" lon="5.46589">
        <ele>1140.3</ele>
      </trkpt>
      <trkpt lat="45.01403" lon="5.4667">
        <ele>1134.6</ele>
      </trkpt>
      <trkpt lat="45.01393" lon="5.46661">
        <ele>1129</ele>
      </trkpt>
      <trkpt lat="45.01441" lon="5.46577">
        <ele>1115.4</ele>
      </trkpt>
      <trkpt lat="45.01366" lon="5.46598">
        <ele>1102.7</ele>
      </trkpt>
      <trkpt lat="45.01356" lon="5.46584">
        <ele>1095.8</ele>
      </trkpt>
      <trkpt lat="45.01386" lon="5.4655">
        <ele>1098.4</ele>
      </trkpt>
      <trkpt lat="45.01119" lon="5.46617">
        <ele>1061.8</ele>
      </trkpt>
      <trkpt lat="45.00807" lon="5.46561">
        <ele>1016.9</ele>
      </trkpt>
      <trkpt lat="45.00824" lon="5.46539">
        <ele>1008.1</ele>
      </trkpt>
      <trkpt lat="45.00957" lon="5.46529">
        <ele>1001.8</ele>
      </trkpt>
      <trkpt lat="45.01046" lon="5.46505">
        <ele>997.5</ele>
      </trkpt>
      <trkpt lat="45.01086" lon="5.46482">
        <ele>997.5</ele>
      </trkpt>
      <trkpt lat="45.01093" lon="5.46462">
        <ele>997.4</ele>
      </trkpt>
      <trkpt lat="45.01048" lon="5.46462">
        <ele>986.2</ele>
      </trkpt>
      <trkpt lat="45.00997" lon="5.46447">
        <ele>970.3</ele>
      </trkpt>
      <trkpt lat="45.00808" lon="5.46382">
        <ele>936.5</ele>
      </trkpt>
      <trkpt lat="45.00618" lon="5.46354">
        <ele>918.3</ele>
      </trkpt>
      <trkpt lat="45.00383" lon="5.46164">
        <ele>869.9</ele>
      </trkpt>
      <trkpt lat="45.00319" lon="5.46155">
        <ele>869.1</ele>
      </trkpt>
      <trkpt lat="45.00288" lon="5.46092">
        <ele>849.1</ele>
      </trkpt>
      <trkpt lat="45.00192" lon="5.46087">
        <ele>849.1</ele>
      </trkpt>
      <trkpt lat="45.00141" lon="5.45997">
        <ele>836.1</ele>
      </trkpt>
      <trkpt lat="45.00129" lon="5.45765">
        <ele>818.1</ele>
      </trkpt>
      <trkpt lat="45.00235" lon="5.45649">
        <ele>794.1</ele>
      </trkpt>
      <trkpt lat="45.00302" lon="5.45468">
        <ele>778.8</ele>
      </trkpt>
      <trkpt lat="45.00341" lon="5.45224">
        <ele>751.7</ele>
      </trkpt>
      <trkpt lat="45.00326" lon="5.45171">
        <ele>748.8</ele>
      </trkpt>
      <trkpt lat="45.00367" lon="5.45173">
        <ele>742.6</ele>
      </trkpt>
      <trkpt lat="45.0041" lon="5.45135">
        <ele>733</ele>
      </trkpt>
      <trkpt lat="45.00404" lon="5.45121">
        <ele>732.3</ele>
      </trkpt>
      <trkpt lat="45.00414" lon="5.45112">
        <ele>730.1</ele>
      </trkpt>
      <trkpt lat="45.00403" lon="5.45083">
        <ele>728.8</ele>
      </trkpt>
      <trkpt lat="45.00422" lon="5.45066">
        <ele>725.3</ele>
      </trkpt>
      <trkpt lat="45.00422" lon="5.45041">
        <ele>723.4</ele>
      </trkpt>
      <trkpt lat="45.00461" lon="5.45051">
        <ele>720.8</ele>
      </trkpt>
      <trkpt lat="45.00478" lon="5.45044">
        <ele>719</ele>
      </trkpt>
      <trkpt lat="45.00485" lon="5.45018">
        <ele>717</ele>
      </trkpt>
      <trkpt lat="45.00427" lon="5.44812">
        <ele>715.1</ele>
      </trkpt>
      <trkpt lat="45.00382" lon="5.44717">
        <ele>713.5</ele>
      </trkpt>
      <trkpt lat="45.00342" lon="5.4475">
        <ele>719.3</ele>
      </trkpt>
      <trkpt lat="45.00295" lon="5.44756">
        <ele>722.7</ele>
      </trkpt>
      <trkpt lat="45.00267" lon="5.44737">
        <ele>723</ele>
      </trkpt>
      <trkpt lat="45.00205" lon="5.44736">
        <ele>729.6</ele>
      </trkpt>
      <trkpt lat="45.00149" lon="5.44684">
        <ele>730.8</ele>
      </trkpt>
      <trkpt lat="45.0006" lon="5.44701">
        <ele>742.4</ele>
      </trkpt>
      <trkpt lat="45.00031" lon="5.44666">
        <ele>744.6</ele>
      </trkpt>
      <trkpt lat="44.99996" lon="5.4452">
        <ele>746.8</ele>
      </trkpt>
      <trkpt lat="44.99962" lon="5.4446">
        <ele>742</ele>
      </trkpt>
      <trkpt lat="44.99979" lon="5.44411">
        <ele>739.7</ele>
      </trkpt>
      <trkpt lat="44.99999" lon="5.44405">
        <ele>741.7</ele>
      </trkpt>
      <trkpt lat="45.00024" lon="5.4438">
        <ele>738.6</ele>
      </trkpt>
      <trkpt lat="45.00065" lon="5.44356">
        <ele>737.7</ele>
      </trkpt>
      <trkpt lat="45.00094" lon="5.44323">
        <ele>733.9</ele>
      </trkpt>
      <trkpt lat="45.00112" lon="5.44294">
        <ele>730.2</ele>
      </trkpt>
      <trkpt lat="45.00111" lon="5.44157">
        <ele>731.3</ele>
      </trkpt>
      <trkpt lat="45.0001" lon="5.44164">
        <ele>721.7</ele>
      </trkpt>
      <trkpt lat="44.9998" lon="5.44183">
        <ele>716.1</ele>
      </trkpt>
      <trkpt lat="44.99938" lon="5.44165">
        <ele>708.1</ele>
      </trkpt>
      <trkpt lat="44.99878" lon="5.44194">
        <ele>703.6</ele>
      </trkpt>
      <trkpt lat="44.99876" lon="5.44163">
        <ele>701.6</ele>
      </trkpt>
      <trkpt lat="44.99916" lon="5.44079">
        <ele>702.4</ele>
      </trkpt>
      <trkpt lat="44.99917" lon="5.44021">
        <ele>708.2</ele>
      </trkpt>
      <trkpt lat="44.99879" lon="5.44023">
        <ele>714.6</ele>
      </trkpt>
      <trkpt lat="44.99897" lon="5.43928">
        <ele>717.8</ele>
      </trkpt>
      <trkpt lat="44.99903" lon="5.4378">
        <ele>729.7</ele>
      </trkpt>
      <trkpt lat="44.99952" lon="5.43698">
        <ele>725.3</ele>
      </trkpt>
      <trkpt lat="44.99985" lon="5.43683">
        <ele>718.7</ele>
      </trkpt>
      <trkpt lat="44.99989" lon="5.43618">
        <ele>721.3</ele>
      </trkpt>
      <trkpt lat="44.99986" lon="5.4357">
        <ele>722.1</ele>
      </trkpt>
      <trkpt lat="44.99952" lon="5.43587">
        <ele>728.7</ele>
      </trkpt>
      <trkpt lat="44.99922" lon="5.43549">
        <ele>731.7</ele>
      </trkpt>
      <trkpt lat="44.99888" lon="5.43569">
        <ele>736.7</ele>
      </trkpt>
      <trkpt lat="44.99826" lon="5.43535">
        <ele>739.6</ele>
      </trkpt>
      <trkpt lat="44.99719" lon="5.43567">
        <ele>748.1</ele>
      </trkpt>
      <trkpt lat="44.9964" lon="5.43591">
        <ele>749.4</ele>
      </trkpt>
      <trkpt lat="44.9961" lon="5.43582">
        <ele>749.5</ele>
      </trkpt>
      <trkpt lat="44.99581" lon="5.43595">
        <ele>751.3</ele>
      </trkpt>
      <trkpt lat="44.99539" lon="5.43559">
        <ele>756</ele>
      </trkpt>
      <trkpt lat="44.9947" lon="5.4357">
        <ele>759.6</ele>
      </trkpt>
      <trkpt lat="44.99313" lon="5.43468">
        <ele>793.2</ele>
      </trkpt>
      <trkpt lat="44.99241" lon="5.43476">
        <ele>801.5</ele>
      </trkpt>
      <trkpt lat="44.99118" lon="5.4343">
        <ele>824.1</ele>
      </trkpt>
      <trkpt lat="44.98988" lon="5.43452">
        <ele>837.4</ele>
      </trkpt>
      <trkpt lat="44.98723" lon="5.43387">
        <ele>853.3</ele>
      </trkpt>
      <trkpt lat="44.98679" lon="5.4339">
        <ele>856.9</ele>
      </trkpt>
      <trkpt lat="44.98495" lon="5.43357">
        <ele>868.8</ele>
      </trkpt>
      <trkpt lat="44.98416" lon="5.43337">
        <ele>872</ele>
      </trkpt>
      <trkpt lat="44.98246" lon="5.43352">
        <ele>864.2</ele>
      </trkpt>
      <trkpt lat="44.98175" lon="5.43325">
        <ele>867.9</ele>
      </trkpt>
      <trkpt lat="44.98082" lon="5.43307">
        <ele>871.9</ele>
      </trkpt>
      <trkpt lat="44.97955" lon="5.43254">
        <ele>881.6</ele>
      </trkpt>
      <trkpt lat="44.97613" lon="5.43141">
        <ele>891.5</ele>
      </trkpt>
      <trkpt lat="44.97535" lon="5.43115">
        <ele>890.1</ele>
      </trkpt>
      <trkpt lat="44.97362" lon="5.42989">
        <ele>891.9</ele>
      </trkpt>
      <trkpt lat="44.97289" lon="5.4296">
        <ele>884.6</ele>
      </trkpt>
      <trkpt lat="44.97111" lon="5.429">
        <ele>879.1</ele>
      </trkpt>
      <trkpt lat="44.97106" lon="5.429">
        <ele>878.9</ele>
      </trkpt>
      <trkpt lat="44.97033" lon="5.42865">
        <ele>876.2</ele>
      </trkpt>
      <trkpt lat="44.96905" lon="5.42886">
        <ele>876</ele>
      </trkpt>
      <trkpt lat="44.96845" lon="5.42847">
        <ele>873.6</ele>
      </trkpt>
      <trkpt lat="44.96798" lon="5.42742">
        <ele>868.9</ele>
      </trkpt>
      <trkpt lat="44.96704" lon="5.42666">
        <ele>869.7</ele>
      </trkpt>
      <trkpt lat="44.96646" lon="5.42566">
        <ele>870.3</ele>
      </trkpt>
      <trkpt lat="44.96589" lon="5.42498">
        <ele>872.1</ele>
      </trkpt>
      <trkpt lat="44.96532" lon="5.4236">
        <ele>885</ele>
      </trkpt>
      <trkpt lat="44.96538" lon="5.42341">
        <ele>887.7</ele>
      </trkpt>
      <trkpt lat="44.96531" lon="5.42296">
        <ele>893.8</ele>
      </trkpt>
      <trkpt lat="44.96515" lon="5.42259">
        <ele>898.8</ele>
      </trkpt>
      <trkpt lat="44.96479" lon="5.42198">
        <ele>905</ele>
      </trkpt>
      <trkpt lat="44.96532" lon="5.42182">
        <ele>907.1</ele>
      </trkpt>
      <trkpt lat="44.96539" lon="5.42166">
        <ele>908.6</ele>
      </trkpt>
      <trkpt lat="44.96541" lon="5.4209">
        <ele>914.1</ele>
      </trkpt>
      <trkpt lat="44.96642" lon="5.41868">
        <ele>892.4</ele>
      </trkpt>
      <trkpt lat="44.96713" lon="5.4168">
        <ele>891.2</ele>
      </trkpt>
      <trkpt lat="44.96712" lon="5.41669">
        <ele>890.7</ele>
      </trkpt>
      <trkpt lat="44.96738" lon="5.41657">
        <ele>891.1</ele>
      </trkpt>
      <trkpt lat="44.96769" lon="5.41615">
        <ele>890.6</ele>
      </trkpt>
      <trkpt lat="44.96796" lon="5.41616">
        <ele>892.2</ele>
      </trkpt>
      <trkpt lat="44.96823" lon="5.41547">
        <ele>893</ele>
      </trkpt>
      <trkpt lat="44.96878" lon="5.41521">
        <ele>897.2</ele>
      </trkpt>
      <trkpt lat="44.96987" lon="5.41573">
        <ele>903.4</ele>
      </trkpt>
      <trkpt lat="44.97068" lon="5.41569">
        <ele>906</ele>
      </trkpt>
      <trkpt lat="44.97139" lon="5.41557">
        <ele>909</ele>
      </trkpt>
      <trkpt lat="44.97193" lon="5.4158">
        <ele>913.6</ele>
      </trkpt>
      <trkpt lat="44.97236" lon="5.41638">
        <ele>918.5</ele>
      </trkpt>
      <trkpt lat="44.9728" lon="5.417">
        <ele>923.1</ele>
      </trkpt>
      <trkpt lat="44.97308" lon="5.41707">
        <ele>924.8</ele>
      </trkpt>
      <trkpt lat="44.97292" lon="5.417">
        <ele>923.5</ele>
      </trkpt>
      <trkpt lat="44.97196" lon="5.41567">
        <ele>912.2</ele>
      </trkpt>
      <trkpt lat="44.97109" lon="5.41562">
        <ele>907.7</ele>
      </trkpt>
      <trkpt lat="44.96979" lon="5.4158">
        <ele>903</ele>
      </trkpt>
      <trkpt lat="44.96871" lon="5.41517">
        <ele>896.7</ele>
      </trkpt>
      <trkpt lat="44.96802" lon="5.41542">
        <ele>891</ele>
      </trkpt>
      <trkpt lat="44.96749" lon="5.41645">
        <ele>890.9</ele>
      </trkpt>
      <trkpt lat="44.96733" lon="5.4167">
        <ele>891.5</ele>
      </trkpt>
      <trkpt lat="44.96708" lon="5.41662">
        <ele>890.2</ele>
      </trkpt>
      <trkpt lat="44.96645" lon="5.4188">
        <ele>892.7</ele>
      </trkpt>
      <trkpt lat="44.96381" lon="5.41889">
        <ele>887.9</ele>
      </trkpt>
      <trkpt lat="44.96271" lon="5.41976">
        <ele>883.2</ele>
      </trkpt>
      <trkpt lat="44.96199" lon="5.41974">
        <ele>877</ele>
      </trkpt>
      <trkpt lat="44.96061" lon="5.42049">
        <ele>869.8</ele>
      </trkpt>
      <trkpt lat="44.96034" lon="5.42173">
        <ele>869</ele>
      </trkpt>
      <trkpt lat="44.95702" lon="5.42362">
        <ele>872.1</ele>
      </trkpt>
      <trkpt lat="44.95647" lon="5.42459">
        <ele>874.6</ele>
      </trkpt>
      <trkpt lat="44.95525" lon="5.42536">
        <ele>884.9</ele>
      </trkpt>
      <trkpt lat="44.95525" lon="5.42536">
        <ele>884.9</ele>
      </trkpt>
      <trkpt lat="44.95478" lon="5.42566">
        <ele>882.4</ele>
      </trkpt>
      <trkpt lat="44.95476" lon="5.42578">
        <ele>880.2</ele>
      </trkpt>
      <trkpt lat="44.95311" lon="5.42796">
        <ele>869.3</ele>
      </trkpt>
      <trkpt lat="44.95144" lon="5.42905">
        <ele>859.2</ele>
      </trkpt>
      <trkpt lat="44.95069" lon="5.42936">
        <ele>855.8</ele>
      </trkpt>
      <trkpt lat="44.94847" lon="5.42902">
        <ele>853.2</ele>
      </trkpt>
      <trkpt lat="44.9441" lon="5.42892">
        <ele>828.5</ele>
      </trkpt>
      <trkpt lat="44.94114" lon="5.43009">
        <ele>818.2</ele>
      </trkpt>
      <trkpt lat="44.9394" lon="5.43048">
        <ele>815.2</ele>
      </trkpt>
      <trkpt lat="44.93534" lon="5.43004">
        <ele>800.4</ele>
      </trkpt>
      <trkpt lat="44.93528" lon="5.43003">
        <ele>800</ele>
      </trkpt>
      <trkpt lat="44.93529" lon="5.43006">
        <ele>800.1</ele>
      </trkpt>
      <trkpt lat="44.93525" lon="5.43004">
        <ele>799.8</ele>
      </trkpt>
      <trkpt lat="44.93516" lon="5.43004">
        <ele>799.2</ele>
      </trkpt>
      <trkpt lat="44.93483" lon="5.42995">
        <ele>797.4</ele>
      </trkpt>
      <trkpt lat="44.93404" lon="5.42958">
        <ele>796.5</ele>
      </trkpt>
      <trkpt lat="44.93398" lon="5.42951">
        <ele>797</ele>
      </trkpt>
      <trkpt lat="44.93291" lon="5.42937">
        <ele>795</ele>
      </trkpt>
      <trkpt lat="44.93191" lon="5.42887">
        <ele>792.7</ele>
      </trkpt>
      <trkpt lat="44.93055" lon="5.42779">
        <ele>799.5</ele>
      </trkpt>
      <trkpt lat="44.9258" lon="5.4273">
        <ele>807.2</ele>
      </trkpt>
      <trkpt lat="44.92346" lon="5.42787">
        <ele>810.1</ele>
      </trkpt>
      <trkpt lat="44.92173" lon="5.42815">
        <ele>814.1</ele>
      </trkpt>
      <trkpt lat="44.9207" lon="5.42809">
        <ele>816.2</ele>
      </trkpt>
      <trkpt lat="44.91978" lon="5.42834">
        <ele>813</ele>
      </trkpt>
      <trkpt lat="44.91888" lon="5.42816">
        <ele>817.5</ele>
      </trkpt>
      <trkpt lat="44.91778" lon="5.4276">
        <ele>825.8</ele>
      </trkpt>
      <trkpt lat="44.91728" lon="5.42732">
        <ele>831.4</ele>
      </trkpt>
      <trkpt lat="44.91495" lon="5.42703">
        <ele>823.6</ele>
      </trkpt>
      <trkpt lat="44.91374" lon="5.42684">
        <ele>823</ele>
      </trkpt>
      <trkpt lat="44.91142" lon="5.42669">
        <ele>826.8</ele>
      </trkpt>
      <trkpt lat="44.91012" lon="5.42635">
        <ele>830.7</ele>
      </trkpt>
      <trkpt lat="44.90878" lon="5.42657">
        <ele>830.4</ele>
      </trkpt>
      <trkpt lat="44.90844" lon="5.42657">
        <ele>829.8</ele>
      </trkpt>
      <trkpt lat="44.90738" lon="5.42596">
        <ele>834.1</ele>
      </trkpt>
      <trkpt lat="44.90684" lon="5.42574">
        <ele>838.2</ele>
      </trkpt>
      <trkpt lat="44.90523" lon="5.42563">
        <ele>840</ele>
      </trkpt>
      <trkpt lat="44.9028" lon="5.42543">
        <ele>837</ele>
      </trkpt>
      <trkpt lat="44.90088" lon="5.42531">
        <ele>836.7</ele>
      </trkpt>
      <trkpt lat="44.89664" lon="5.42333">
        <ele>847.2</ele>
      </trkpt>
      <trkpt lat="44.89574" lon="5.42333">
        <ele>851.4</ele>
      </trkpt>
      <trkpt lat="44.89172" lon="5.42124">
        <ele>861.5</ele>
      </trkpt>
      <trkpt lat="44.89039" lon="5.42142">
        <ele>865</ele>
      </trkpt>
      <trkpt lat="44.88489" lon="5.42051">
        <ele>879.5</ele>
      </trkpt>
      <trkpt lat="44.88374" lon="5.4207">
        <ele>889.4</ele>
      </trkpt>
      <trkpt lat="44.88115" lon="5.41939">
        <ele>895.4</ele>
      </trkpt>
      <trkpt lat="44.87954" lon="5.41938">
        <ele>901.1</ele>
      </trkpt>
      <trkpt lat="44.87979" lon="5.41962">
        <ele>904.7</ele>
      </trkpt>
      <trkpt lat="44.88132" lon="5.42058">
        <ele>914.2</ele>
      </trkpt>
      <trkpt lat="44.88166" lon="5.42089">
        <ele>917.3</ele>
      </trkpt>
      <trkpt lat="44.88219" lon="5.42091">
        <ele>912.9</ele>
      </trkpt>
      <trkpt lat="44.88268" lon="5.42182">
        <ele>930.6</ele>
      </trkpt>
      <trkpt lat="44.88382" lon="5.42252">
        <ele>927.4</ele>
      </trkpt>
      <trkpt lat="44.88392" lon="5.42395">
        <ele>957.6</ele>
      </trkpt>
      <trkpt lat="44.88405" lon="5.42406">
        <ele>954.7</ele>
      </trkpt>
      <trkpt lat="44.88452" lon="5.42357">
        <ele>938.3</ele>
      </trkpt>
      <trkpt lat="44.88465" lon="5.42358">
        <ele>938</ele>
      </trkpt>
      <trkpt lat="44.88481" lon="5.42438">
        <ele>960.4</ele>
      </trkpt>
      <trkpt lat="44.88535" lon="5.4241">
        <ele>958.4</ele>
      </trkpt>
      <trkpt lat="44.88564" lon="5.42358">
        <ele>945</ele>
      </trkpt>
      <trkpt lat="44.88689" lon="5.42401">
        <ele>956.8</ele>
      </trkpt>
      <trkpt lat="44.88724" lon="5.42439">
        <ele>960.1</ele>
      </trkpt>
      <trkpt lat="44.88715" lon="5.42467">
        <ele>966.6</ele>
      </trkpt>
      <trkpt lat="44.88675" lon="5.42495">
        <ele>980.2</ele>
      </trkpt>
      <trkpt lat="44.88663" lon="5.42536">
        <ele>987</ele>
      </trkpt>
      <trkpt lat="44.8869" lon="5.42566">
        <ele>984.7</ele>
      </trkpt>
      <trkpt lat="44.88738" lon="5.426">
        <ele>980.1</ele>
      </trkpt>
      <trkpt lat="44.88764" lon="5.42676">
        <ele>988.8</ele>
      </trkpt>
      <trkpt lat="44.88776" lon="5.42694">
        <ele>988.9</ele>
      </trkpt>
      <trkpt lat="44.88778" lon="5.42744">
        <ele>995.5</ele>
      </trkpt>
      <trkpt lat="44.8881" lon="5.42776">
        <ele>989.1</ele>
      </trkpt>
      <trkpt lat="44.88835" lon="5.42883">
        <ele>999.5</ele>
      </trkpt>
      <trkpt lat="44.88824" lon="5.4289">
        <ele>1006.8</ele>
      </trkpt>
      <trkpt lat="44.88796" lon="5.42817">
        <ele>1002.3</ele>
      </trkpt>
      <trkpt lat="44.88775" lon="5.42787">
        <ele>1005.2</ele>
      </trkpt>
      <trkpt lat="44.8875" lon="5.42781">
        <ele>1014</ele>
      </trkpt>
      <trkpt lat="44.88743" lon="5.4278">
        <ele>1015.8</ele>
      </trkpt>
      <trkpt lat="44.88539" lon="5.4265">
        <ele>1020</ele>
      </trkpt>
      <trkpt lat="44.88511" lon="5.42687">
        <ele>1032.4</ele>
      </trkpt>
      <trkpt lat="44.8848" lon="5.42675">
        <ele>1030.9</ele>
      </trkpt>
      <trkpt lat="44.88458" lon="5.42666">
        <ele>1029.5</ele>
      </trkpt>
      <trkpt lat="44.88363" lon="5.42664">
        <ele>1040.9</ele>
      </trkpt>
      <trkpt lat="44.88283" lon="5.42646">
        <ele>1050.5</ele>
      </trkpt>
      <trkpt lat="44.8819" lon="5.42621">
        <ele>1070.1</ele>
      </trkpt>
      <trkpt lat="44.88169" lon="5.42534">
        <ele>1053.7</ele>
      </trkpt>
      <trkpt lat="44.88074" lon="5.42583">
        <ele>1077.8</ele>
      </trkpt>
      <trkpt lat="44.88044" lon="5.42543">
        <ele>1066.8</ele>
      </trkpt>
      <trkpt lat="44.88003" lon="5.42551">
        <ele>1072.9</ele>
      </trkpt>
      <trkpt lat="44.87969" lon="5.42583">
        <ele>1085.3</ele>
      </trkpt>
      <trkpt lat="44.8794" lon="5.42581">
        <ele>1086.1</ele>
      </trkpt>
      <trkpt lat="44.87916" lon="5.42603">
        <ele>1095.7</ele>
      </trkpt>
      <trkpt lat="44.87892" lon="5.42597">
        <ele>1096.7</ele>
      </trkpt>
      <trkpt lat="44.87876" lon="5.42575">
        <ele>1090.8</ele>
      </trkpt>
      <trkpt lat="44.87839" lon="5.42581">
        <ele>1098.2</ele>
      </trkpt>
      <trkpt lat="44.87794" lon="5.42547">
        <ele>1092.7</ele>
      </trkpt>
      <trkpt lat="44.87702" lon="5.42519">
        <ele>1094.6</ele>
      </trkpt>
      <trkpt lat="44.87551" lon="5.42529">
        <ele>1112.7</ele>
      </trkpt>
      <trkpt lat="44.87495" lon="5.42562">
        <ele>1127</ele>
      </trkpt>
      <trkpt lat="44.87437" lon="5.42535">
        <ele>1122.9</ele>
      </trkpt>
      <trkpt lat="44.87371" lon="5.42539">
        <ele>1130.5</ele>
      </trkpt>
      <trkpt lat="44.87342" lon="5.42543">
        <ele>1134.1</ele>
      </trkpt>
      <trkpt lat="44.87271" lon="5.42518">
        <ele>1129.2</ele>
      </trkpt>
      <trkpt lat="44.87348" lon="5.42579">
        <ele>1145.4</ele>
      </trkpt>
      <trkpt lat="44.87414" lon="5.4258">
        <ele>1143.8</ele>
      </trkpt>
      <trkpt lat="44.87481" lon="5.42625">
        <ele>1155.6</ele>
      </trkpt>
      <trkpt lat="44.87579" lon="5.42649">
        <ele>1158</ele>
      </trkpt>
      <trkpt lat="44.8781" lon="5.42777">
        <ele>1180.6</ele>
      </trkpt>
      <trkpt lat="44.87871" lon="5.42817">
        <ele>1189</ele>
      </trkpt>
      <trkpt lat="44.87964" lon="5.42832">
        <ele>1185.6</ele>
      </trkpt>
      <trkpt lat="44.88021" lon="5.42895">
        <ele>1201.6</ele>
      </trkpt>
      <trkpt lat="44.88072" lon="5.42898">
        <ele>1193.9</ele>
      </trkpt>
      <trkpt lat="44.88129" lon="5.42976">
        <ele>1202.5</ele>
      </trkpt>
      <trkpt lat="44.88166" lon="5.43009">
        <ele>1203.7</ele>
      </trkpt>
      <trkpt lat="44.8829" lon="5.43084">
        <ele>1214.3</ele>
      </trkpt>
      <trkpt lat="44.88327" lon="5.43102">
        <ele>1217.8</ele>
      </trkpt>
      <trkpt lat="44.88348" lon="5.43118">
        <ele>1225.9</ele>
      </trkpt>
      <trkpt lat="44.88401" lon="5.43121">
        <ele>1225</ele>
      </trkpt>
      <trkpt lat="44.88454" lon="5.43106">
        <ele>1210.8</ele>
      </trkpt>
      <trkpt lat="44.88548" lon="5.43201">
        <ele>1235.4</ele>
      </trkpt>
      <trkpt lat="44.8861" lon="5.43334">
        <ele>1248.3</ele>
      </trkpt>
      <trkpt lat="44.88636" lon="5.4336">
        <ele>1239</ele>
      </trkpt>
      <trkpt lat="44.88669" lon="5.43526">
        <ele>1261.3</ele>
      </trkpt>
      <trkpt lat="44.88727" lon="5.4365">
        <ele>1271.2</ele>
      </trkpt>
      <trkpt lat="44.88739" lon="5.43684">
        <ele>1278.3</ele>
      </trkpt>
      <trkpt lat="44.88785" lon="5.43705">
        <ele>1267.6</ele>
      </trkpt>
      <trkpt lat="44.88825" lon="5.43773">
        <ele>1274.8</ele>
      </trkpt>
      <trkpt lat="44.88864" lon="5.43846">
        <ele>1288</ele>
      </trkpt>
      <trkpt lat="44.88925" lon="5.43877">
        <ele>1289</ele>
      </trkpt>
      <trkpt lat="44.8896" lon="5.43882">
        <ele>1287</ele>
      </trkpt>
      <trkpt lat="44.88949" lon="5.439">
        <ele>1295.6</ele>
      </trkpt>
      <trkpt lat="44.88903" lon="5.43891">
        <ele>1297.6</ele>
      </trkpt>
      <trkpt lat="44.8885" lon="5.4387">
        <ele>1297.6</ele>
      </trkpt>
      <trkpt lat="44.88812" lon="5.43917">
        <ele>1312.2</ele>
      </trkpt>
      <trkpt lat="44.88785" lon="5.43928">
        <ele>1315.3</ele>
      </trkpt>
      <trkpt lat="44.88701" lon="5.43849">
        <ele>1324.7</ele>
      </trkpt>
      <trkpt lat="44.887" lon="5.43828">
        <ele>1323.2</ele>
      </trkpt>
      <trkpt lat="44.8872" lon="5.43751">
        <ele>1307.6</ele>
      </trkpt>
      <trkpt lat="44.8872" lon="5.43745">
        <ele>1305.8</ele>
      </trkpt>
      <trkpt lat="44.88698" lon="5.43725">
        <ele>1306.4</ele>
      </trkpt>
      <trkpt lat="44.88613" lon="5.43702">
        <ele>1333</ele>
      </trkpt>
      <trkpt lat="44.8861" lon="5.43739">
        <ele>1341.1</ele>
      </trkpt>
      <trkpt lat="44.88646" lon="5.43791">
        <ele>1335.4</ele>
      </trkpt>
      <trkpt lat="44.8867" lon="5.43872">
        <ele>1335.8</ele>
      </trkpt>
      <trkpt lat="44.88668" lon="5.43956">
        <ele>1340.7</ele>
      </trkpt>
      <trkpt lat="44.8864" lon="5.44013">
        <ele>1352.8</ele>
      </trkpt>
      <trkpt lat="44.88643" lon="5.44044">
        <ele>1352.6</ele>
      </trkpt>
      <trkpt lat="44.8866" lon="5.44141">
        <ele>1355.1</ele>
      </trkpt>
      <trkpt lat="44.8865" lon="5.44187">
        <ele>1361.5</ele>
      </trkpt>
      <trkpt lat="44.88632" lon="5.44213">
        <ele>1364.9</ele>
      </trkpt>
      <trkpt lat="44.88559" lon="5.44222">
        <ele>1368.9</ele>
      </trkpt>
      <trkpt lat="44.88462" lon="5.44402">
        <ele>1363.7</ele>
      </trkpt>
      <trkpt lat="44.88454" lon="5.44404">
        <ele>1363.8</ele>
      </trkpt>
      <trkpt lat="44.88464" lon="5.44396">
        <ele>1364.1</ele>
      </trkpt>
      <trkpt lat="44.88445" lon="5.44416">
        <ele>1362.7</ele>
      </trkpt>
      <trkpt lat="44.88387" lon="5.44495">
        <ele>1370.8</ele>
      </trkpt>
      <trkpt lat="44.88294" lon="5.4452">
        <ele>1371.8</ele>
      </trkpt>
      <trkpt lat="44.88243" lon="5.44444">
        <ele>1377.3</ele>
      </trkpt>
      <trkpt lat="44.88161" lon="5.44419">
        <ele>1376.5</ele>
      </trkpt>
      <trkpt lat="44.88127" lon="5.44627">
        <ele>1380.4</ele>
      </trkpt>
      <trkpt lat="44.88067" lon="5.44678">
        <ele>1384.9</ele>
      </trkpt>
      <trkpt lat="44.8804" lon="5.44756">
        <ele>1386.9</ele>
      </trkpt>
      <trkpt lat="44.87985" lon="5.44789">
        <ele>1396.8</ele>
      </trkpt>
      <trkpt lat="44.87983" lon="5.44853">
        <ele>1392.4</ele>
      </trkpt>
      <trkpt lat="44.87943" lon="5.44865">
        <ele>1402.3</ele>
      </trkpt>
      <trkpt lat="44.87902" lon="5.45038">
        <ele>1403.2</ele>
      </trkpt>
      <trkpt lat="44.8785" lon="5.45043">
        <ele>1412</ele>
      </trkpt>
      <trkpt lat="44.87784" lon="5.4518">
        <ele>1422.8</ele>
      </trkpt>
      <trkpt lat="44.87809" lon="5.45299">
        <ele>1424.3</ele>
      </trkpt>
      <trkpt lat="44.87803" lon="5.45456">
        <ele>1439.2</ele>
      </trkpt>
      <trkpt lat="44.87713" lon="5.45662">
        <ele>1458.4</ele>
      </trkpt>
      <trkpt lat="44.87686" lon="5.45794">
        <ele>1462.8</ele>
      </trkpt>
      <trkpt lat="44.87454" lon="5.46216">
        <ele>1476.6</ele>
      </trkpt>
      <trkpt lat="44.87381" lon="5.46356">
        <ele>1479.9</ele>
      </trkpt>
      <trkpt lat="44.8727" lon="5.46794">
        <ele>1477</ele>
      </trkpt>
      <trkpt lat="44.87224" lon="5.46839">
        <ele>1476.6</ele>
      </trkpt>
      <trkpt lat="44.87171" lon="5.46902">
        <ele>1479</ele>
      </trkpt>
      <trkpt lat="44.87169" lon="5.46906">
        <ele>1479.1</ele>
      </trkpt>
      <trkpt lat="44.87159" lon="5.46929">
        <ele>1479.4</ele>
      </trkpt>
      <trkpt lat="44.87117" lon="5.47099">
        <ele>1481.6</ele>
      </trkpt>
      <trkpt lat="44.86995" lon="5.47238">
        <ele>1488.2</ele>
      </trkpt>
      <trkpt lat="44.86962" lon="5.47239">
        <ele>1488</ele>
      </trkpt>
      <trkpt lat="44.86915" lon="5.47334">
        <ele>1491.9</ele>
      </trkpt>
      <trkpt lat="44.86736" lon="5.4755">
        <ele>1503.2</ele>
      </trkpt>
      <trkpt lat="44.86611" lon="5.47506">
        <ele>1499.3</ele>
      </trkpt>
      <trkpt lat="44.86483" lon="5.47587">
        <ele>1504.2</ele>
      </trkpt>
      <trkpt lat="44.8641" lon="5.47577">
        <ele>1504.4</ele>
      </trkpt>
      <trkpt lat="44.86293" lon="5.47501">
        <ele>1506.5</ele>
      </trkpt>
      <trkpt lat="44.86213" lon="5.47589">
        <ele>1512</ele>
      </trkpt>
      <trkpt lat="44.86128" lon="5.476">
        <ele>1516.2</ele>
      </trkpt>
      <trkpt lat="44.86076" lon="5.47653">
        <ele>1517.8</ele>
      </trkpt>
      <trkpt lat="44.85882" lon="5.47705">
        <ele>1527.3</ele>
      </trkpt>
      <trkpt lat="44.85693" lon="5.4768">
        <ele>1530</ele>
      </trkpt>
      <trkpt lat="44.85569" lon="5.47789">
        <ele>1539.8</ele>
      </trkpt>
      <trkpt lat="44.85449" lon="5.47791">
        <ele>1549.6</ele>
      </trkpt>
      <trkpt lat="44.85375" lon="5.4784">
        <ele>1553.5</ele>
      </trkpt>
      <trkpt lat="44.85227" lon="5.47829">
        <ele>1559.2</ele>
      </trkpt>
      <trkpt lat="44.85134" lon="5.47865">
        <ele>1556.5</ele>
      </trkpt>
      <trkpt lat="44.85084" lon="5.47838">
        <ele>1553.5</ele>
      </trkpt>
      <trkpt lat="44.85014" lon="5.47806">
        <ele>1558.2</ele>
      </trkpt>
      <trkpt lat="44.84983" lon="5.47894">
        <ele>1560.7</ele>
      </trkpt>
      <trkpt lat="44.84856" lon="5.47917">
        <ele>1562.5</ele>
      </trkpt>
      <trkpt lat="44.84804" lon="5.47971">
        <ele>1564.2</ele>
      </trkpt>
      <trkpt lat="44.84658" lon="5.47958">
        <ele>1563.1</ele>
      </trkpt>
      <trkpt lat="44.84619" lon="5.48006">
        <ele>1562.9</ele>
      </trkpt>
      <trkpt lat="44.84567" lon="5.48011">
        <ele>1564</ele>
      </trkpt>
      <trkpt lat="44.84426" lon="5.48101">
        <ele>1569.9</ele>
      </trkpt>
      <trkpt lat="44.84343" lon="5.48415">
        <ele>1586</ele>
      </trkpt>
      <trkpt lat="44.84252" lon="5.48381">
        <ele>1592.9</ele>
      </trkpt>
      <trkpt lat="44.84238" lon="5.48355">
        <ele>1594.2</ele>
      </trkpt>
      <trkpt lat="44.84022" lon="5.48337">
        <ele>1617.7</ele>
      </trkpt>
      <trkpt lat="44.83811" lon="5.48197">
        <ele>1625.1</ele>
      </trkpt>
      <trkpt lat="44.83708" lon="5.48203">
        <ele>1626</ele>
      </trkpt>
      <trkpt lat="44.836" lon="5.4814">
        <ele>1626.5</ele>
      </trkpt>
      <trkpt lat="44.83389" lon="5.48172">
        <ele>1629.2</ele>
      </trkpt>
      <trkpt lat="44.83335" lon="5.48235">
        <ele>1630.3</ele>
      </trkpt>
      <trkpt lat="44.83304" lon="5.48159">
        <ele>1625.6</ele>
      </trkpt>
      <trkpt lat="44.83245" lon="5.48166">
        <ele>1624</ele>
      </trkpt>
      <trkpt lat="44.83169" lon="5.48115">
        <ele>1621.9</ele>
      </trkpt>
      <trkpt lat="44.83124" lon="5.48159">
        <ele>1623.3</ele>
      </trkpt>
      <trkpt lat="44.83039" lon="5.48489">
        <ele>1628.6</ele>
      </trkpt>
      <trkpt lat="44.82972" lon="5.48609">
        <ele>1633.4</ele>
      </trkpt>
      <trkpt lat="44.82931" lon="5.48634">
        <ele>1631</ele>
      </trkpt>
      <trkpt lat="44.82801" lon="5.48653">
        <ele>1622.5</ele>
      </trkpt>
      <trkpt lat="44.82751" lon="5.48615">
        <ele>1617.5</ele>
      </trkpt>
      <trkpt lat="44.8272" lon="5.48362">
        <ele>1610.6</ele>
      </trkpt>
      <trkpt lat="44.8268" lon="5.48267">
        <ele>1604.8</ele>
      </trkpt>
      <trkpt lat="44.82666" lon="5.4821">
        <ele>1602.5</ele>
      </trkpt>
      <trkpt lat="44.82666" lon="5.48172">
        <ele>1602.1</ele>
      </trkpt>
      <trkpt lat="44.82886" lon="5.48032">
        <ele>1619.9</ele>
      </trkpt>
      <trkpt lat="44.82913" lon="5.47874">
        <ele>1618.9</ele>
      </trkpt>
      <trkpt lat="44.82909" lon="5.47716">
        <ele>1625.1</ele>
      </trkpt>
      <trkpt lat="44.82985" lon="5.47405">
        <ele>1653.7</ele>
      </trkpt>
      <trkpt lat="44.82958" lon="5.47298">
        <ele>1660.9</ele>
      </trkpt>
      <trkpt lat="44.82962" lon="5.47241">
        <ele>1664.5</ele>
      </trkpt>
      <trkpt lat="44.83003" lon="5.4719">
        <ele>1665.4</ele>
      </trkpt>
      <trkpt lat="44.83021" lon="5.46981">
        <ele>1669.5</ele>
      </trkpt>
      <trkpt lat="44.83111" lon="5.46721">
        <ele>1650.6</ele>
      </trkpt>
      <trkpt lat="44.83138" lon="5.46443">
        <ele>1627.7</ele>
      </trkpt>
      <trkpt lat="44.83223" lon="5.46177">
        <ele>1604.4</ele>
      </trkpt>
      <trkpt lat="44.83272" lon="5.45778">
        <ele>1585.1</ele>
      </trkpt>
      <trkpt lat="44.83214" lon="5.45562">
        <ele>1567.6</ele>
      </trkpt>
      <trkpt lat="44.83039" lon="5.45429">
        <ele>1550.9</ele>
      </trkpt>
      <trkpt lat="44.82976" lon="5.4529">
        <ele>1549.7</ele>
      </trkpt>
      <trkpt lat="44.82976" lon="5.4529">
        <ele>1549.7</ele>
      </trkpt>
      <trkpt lat="44.82962" lon="5.4522">
        <ele>1569</ele>
      </trkpt>
      <trkpt lat="44.83111" lon="5.44973">
        <ele>1600.8</ele>
      </trkpt>
      <trkpt lat="44.83196" lon="5.44644">
        <ele>1619</ele>
      </trkpt>
      <trkpt lat="44.83187" lon="5.44549">
        <ele>1627.6</ele>
      </trkpt>
      <trkpt lat="44.83205" lon="5.44384">
        <ele>1631</ele>
      </trkpt>
      <trkpt lat="44.83192" lon="5.44321">
        <ele>1631.9</ele>
      </trkpt>
      <trkpt lat="44.83228" lon="5.44156">
        <ele>1631.6</ele>
      </trkpt>
      <trkpt lat="44.83228" lon="5.43953">
        <ele>1638.2</ele>
      </trkpt>
      <trkpt lat="44.83265" lon="5.43799">
        <ele>1625.5</ele>
      </trkpt>
      <trkpt lat="44.83225" lon="5.43723">
        <ele>1621.2</ele>
      </trkpt>
      <trkpt lat="44.83179" lon="5.43503">
        <ele>1602.2</ele>
      </trkpt>
      <trkpt lat="44.83106" lon="5.43381">
        <ele>1591.1</ele>
      </trkpt>
      <trkpt lat="44.83066" lon="5.43195">
        <ele>1583.8</ele>
      </trkpt>
      <trkpt lat="44.8299" lon="5.43031">
        <ele>1588</ele>
      </trkpt>
      <trkpt lat="44.82834" lon="5.42971">
        <ele>1596</ele>
      </trkpt>
      <trkpt lat="44.82764" lon="5.42826">
        <ele>1579.2</ele>
      </trkpt>
      <trkpt lat="44.82783" lon="5.4272">
        <ele>1589.8</ele>
      </trkpt>
      <trkpt lat="44.82761" lon="5.425">
        <ele>1578.9</ele>
      </trkpt>
      <trkpt lat="44.82737" lon="5.42329">
        <ele>1580.4</ele>
      </trkpt>
      <trkpt lat="44.8268" lon="5.42124">
        <ele>1559.6</ele>
      </trkpt>
      <trkpt lat="44.82705" lon="5.42003">
        <ele>1572</ele>
      </trkpt>
      <trkpt lat="44.82694" lon="5.41794">
        <ele>1595.6</ele>
      </trkpt>
      <trkpt lat="44.82821" lon="5.4163">
        <ele>1561.3</ele>
      </trkpt>
      <trkpt lat="44.83128" lon="5.41463">
        <ele>1510.1</ele>
      </trkpt>
      <trkpt lat="44.83195" lon="5.41379">
        <ele>1507.8</ele>
      </trkpt>
      <trkpt lat="44.83182" lon="5.41222">
        <ele>1501.8</ele>
      </trkpt>
      <trkpt lat="44.83281" lon="5.41218">
        <ele>1507.8</ele>
      </trkpt>
      <trkpt lat="44.83306" lon="5.4121">
        <ele>1507.8</ele>
      </trkpt>
      <trkpt lat="44.83163" lon="5.40899">
        <ele>1423.3</ele>
      </trkpt>
      <trkpt lat="44.83254" lon="5.4075">
        <ele>1385.3</ele>
      </trkpt>
      <trkpt lat="44.83281" lon="5.40728">
        <ele>1380.5</ele>
      </trkpt>
      <trkpt lat="44.8337" lon="5.4075">
        <ele>1365.4</ele>
      </trkpt>
      <trkpt lat="44.83783" lon="5.4064">
        <ele>1286.7</ele>
      </trkpt>
      <trkpt lat="44.83874" lon="5.40627">
        <ele>1273</ele>
      </trkpt>
      <trkpt lat="44.83932" lon="5.40581">
        <ele>1262.3</ele>
      </trkpt>
      <trkpt lat="44.83932" lon="5.40581">
        <ele>1262.3</ele>
      </trkpt>
      <trkpt lat="44.83985" lon="5.40633">
        <ele>1259.2</ele>
      </trkpt>
      <trkpt lat="44.84061" lon="5.40604">
        <ele>1253.6</ele>
      </trkpt>
      <trkpt lat="44.84232" lon="5.40501">
        <ele>1260.1</ele>
      </trkpt>
      <trkpt lat="44.84361" lon="5.4047">
        <ele>1262.2</ele>
      </trkpt>
      <trkpt lat="44.84601" lon="5.40373">
        <ele>1285.9</ele>
      </trkpt>
      <trkpt lat="44.84765" lon="5.4027">
        <ele>1319.7</ele>
      </trkpt>
      <trkpt lat="44.84836" lon="5.40303">
        <ele>1303.4</ele>
      </trkpt>
      <trkpt lat="44.84885" lon="5.40275">
        <ele>1323.1</ele>
      </trkpt>
      <trkpt lat="44.84968" lon="5.40311">
        <ele>1309.6</ele>
      </trkpt>
      <trkpt lat="44.85147" lon="5.40296">
        <ele>1313.1</ele>
      </trkpt>
      <trkpt lat="44.85194" lon="5.40242">
        <ele>1329.4</ele>
      </trkpt>
      <trkpt lat="44.85431" lon="5.40236">
        <ele>1332.7</ele>
      </trkpt>
      <trkpt lat="44.8553" lon="5.40173">
        <ele>1331.7</ele>
      </trkpt>
      <trkpt lat="44.8585" lon="5.40178">
        <ele>1342.4</ele>
      </trkpt>
      <trkpt lat="44.8599" lon="5.40218">
        <ele>1350.7</ele>
      </trkpt>
      <trkpt lat="44.86655" lon="5.40453">
        <ele>1324.5</ele>
      </trkpt>
      <trkpt lat="44.86876" lon="5.40541">
        <ele>1297.2</ele>
      </trkpt>
      <trkpt lat="44.87148" lon="5.40689">
        <ele>1247.6</ele>
      </trkpt>
      <trkpt lat="44.87247" lon="5.40666">
        <ele>1234.6</ele>
      </trkpt>
      <trkpt lat="44.87249" lon="5.40702">
        <ele>1232.4</ele>
      </trkpt>
      <trkpt lat="44.87343" lon="5.40621">
        <ele>1230.3</ele>
      </trkpt>
      <trkpt lat="44.87415" lon="5.40591">
        <ele>1225.3</ele>
      </trkpt>
      <trkpt lat="44.87463" lon="5.40601">
        <ele>1228.4</ele>
      </trkpt>
      <trkpt lat="44.87526" lon="5.40582">
        <ele>1218.3</ele>
      </trkpt>
      <trkpt lat="44.87627" lon="5.40621">
        <ele>1214.8</ele>
      </trkpt>
      <trkpt lat="44.87674" lon="5.40638">
        <ele>1211.8</ele>
      </trkpt>
      <trkpt lat="44.87676" lon="5.40627">
        <ele>1209.3</ele>
      </trkpt>
      <trkpt lat="44.87609" lon="5.40566">
        <ele>1203.7</ele>
      </trkpt>
      <trkpt lat="44.87567" lon="5.40556">
        <ele>1206.1</ele>
      </trkpt>
      <trkpt lat="44.87522" lon="5.40503">
        <ele>1199.6</ele>
      </trkpt>
      <trkpt lat="44.87488" lon="5.40473">
        <ele>1199.2</ele>
      </trkpt>
      <trkpt lat="44.87448" lon="5.40321">
        <ele>1196.7</ele>
      </trkpt>
      <trkpt lat="44.87477" lon="5.40161">
        <ele>1181.3</ele>
      </trkpt>
      <trkpt lat="44.87427" lon="5.40082">
        <ele>1179.7</ele>
      </trkpt>
      <trkpt lat="44.87452" lon="5.3997">
        <ele>1172.3</ele>
      </trkpt>
      <trkpt lat="44.87479" lon="5.39891">
        <ele>1170.9</ele>
      </trkpt>
      <trkpt lat="44.87495" lon="5.39929">
        <ele>1166.1</ele>
      </trkpt>
      <trkpt lat="44.87515" lon="5.39975">
        <ele>1164.8</ele>
      </trkpt>
      <trkpt lat="44.87554" lon="5.39978">
        <ele>1162.7</ele>
      </trkpt>
      <trkpt lat="44.87666" lon="5.39915">
        <ele>1146.7</ele>
      </trkpt>
      <trkpt lat="44.87804" lon="5.39904">
        <ele>1149.8</ele>
      </trkpt>
      <trkpt lat="44.87991" lon="5.39715">
        <ele>1127.2</ele>
      </trkpt>
      <trkpt lat="44.8801" lon="5.39669">
        <ele>1121.6</ele>
      </trkpt>
      <trkpt lat="44.88057" lon="5.39648">
        <ele>1127.1</ele>
      </trkpt>
      <trkpt lat="44.88097" lon="5.39583">
        <ele>1118.9</ele>
      </trkpt>
      <trkpt lat="44.88163" lon="5.39566">
        <ele>1120.1</ele>
      </trkpt>
      <trkpt lat="44.88238" lon="5.39439">
        <ele>1112.5</ele>
      </trkpt>
      <trkpt lat="44.88246" lon="5.3926">
        <ele>1100.3</ele>
      </trkpt>
      <trkpt lat="44.88329" lon="5.39081">
        <ele>1083.6</ele>
      </trkpt>
      <trkpt lat="44.88524" lon="5.38871">
        <ele>1079.9</ele>
      </trkpt>
      <trkpt lat="44.88765" lon="5.38577">
        <ele>1073.2</ele>
      </trkpt>
      <trkpt lat="44.88973" lon="5.38448">
        <ele>1070.5</ele>
      </trkpt>
      <trkpt lat="44.89009" lon="5.38387">
        <ele>1071.5</ele>
      </trkpt>
      <trkpt lat="44.89144" lon="5.38039">
        <ele>1066.6</ele>
      </trkpt>
      <trkpt lat="44.89144" lon="5.37976">
        <ele>1066.4</ele>
      </trkpt>
      <trkpt lat="44.89156" lon="5.37911">
        <ele>1064.8</ele>
      </trkpt>
      <trkpt lat="44.89206" lon="5.378">
        <ele>1059.8</ele>
      </trkpt>
      <trkpt lat="44.8921" lon="5.37698">
        <ele>1057.6</ele>
      </trkpt>
      <trkpt lat="44.89543" lon="5.37069">
        <ele>1057.7</ele>
      </trkpt>
      <trkpt lat="44.89551" lon="5.37081">
        <ele>1057.9</ele>
      </trkpt>
      <trkpt lat="44.89559" lon="5.37096">
        <ele>1058</ele>
      </trkpt>
      <trkpt lat="44.89562" lon="5.37112">
        <ele>1057.9</ele>
      </trkpt>
      <trkpt lat="44.89566" lon="5.37129">
        <ele>1057.9</ele>
      </trkpt>
      <trkpt lat="44.89598" lon="5.37273">
        <ele>1056.9</ele>
      </trkpt>
      <trkpt lat="44.8962" lon="5.37329">
        <ele>1056.8</ele>
      </trkpt>
      <trkpt lat="44.89654" lon="5.37355">
        <ele>1054.4</ele>
      </trkpt>
      <trkpt lat="44.89676" lon="5.37471">
        <ele>1054</ele>
      </trkpt>
      <trkpt lat="44.89616" lon="5.37685">
        <ele>1055.1</ele>
      </trkpt>
      <trkpt lat="44.8962" lon="5.37785">
        <ele>1054.6</ele>
      </trkpt>
      <trkpt lat="44.89659" lon="5.37867">
        <ele>1053.5</ele>
      </trkpt>
      <trkpt lat="44.89661" lon="5.38159">
        <ele>1058.3</ele>
      </trkpt>
      <trkpt lat="44.89638" lon="5.38344">
        <ele>1064.5</ele>
      </trkpt>
      <trkpt lat="44.89506" lon="5.38829">
        <ele>1057.9</ele>
      </trkpt>
      <trkpt lat="44.89822" lon="5.39177">
        <ele>1057.7</ele>
      </trkpt>
      <trkpt lat="44.89905" lon="5.39201">
        <ele>1059.7</ele>
      </trkpt>
      <trkpt lat="44.89916" lon="5.39232">
        <ele>1059.4</ele>
      </trkpt>
      <trkpt lat="44.89934" lon="5.39222">
        <ele>1060.2</ele>
      </trkpt>
      <trkpt lat="44.90046" lon="5.39078">
        <ele>1063.9</ele>
      </trkpt>
      <trkpt lat="44.90059" lon="5.39054">
        <ele>1063.6</ele>
      </trkpt>
      <trkpt lat="44.90208" lon="5.39023">
        <ele>1058.2</ele>
      </trkpt>
      <trkpt lat="44.90179" lon="5.39081">
        <ele>1059.3</ele>
      </trkpt>
      <trkpt lat="44.90173" lon="5.3919">
        <ele>1062.3</ele>
      </trkpt>
      <trkpt lat="44.90112" lon="5.39444">
        <ele>1062.2</ele>
      </trkpt>
      <trkpt lat="44.90126" lon="5.39481">
        <ele>1062.4</ele>
      </trkpt>
      <trkpt lat="44.9012" lon="5.3953">
        <ele>1062.6</ele>
      </trkpt>
      <trkpt lat="44.90098" lon="5.39566">
        <ele>1063.3</ele>
      </trkpt>
      <trkpt lat="44.90096" lon="5.39621">
        <ele>1064.6</ele>
      </trkpt>
      <trkpt lat="44.90077" lon="5.39685">
        <ele>1066.7</ele>
      </trkpt>
      <trkpt lat="44.90099" lon="5.39814">
        <ele>1071</ele>
      </trkpt>
      <trkpt lat="44.9011" lon="5.3995">
        <ele>1079.2</ele>
      </trkpt>
      <trkpt lat="44.90128" lon="5.39973">
        <ele>1080.4</ele>
      </trkpt>
      <trkpt lat="44.90127" lon="5.40011">
        <ele>1085.2</ele>
      </trkpt>
      <trkpt lat="44.90028" lon="5.40067">
        <ele>1101</ele>
      </trkpt>
      <trkpt lat="44.90042" lon="5.40093">
        <ele>1103.6</ele>
      </trkpt>
      <trkpt lat="44.90102" lon="5.40111">
        <ele>1101</ele>
      </trkpt>
      <trkpt lat="44.9019" lon="5.40253">
        <ele>1113.9</ele>
      </trkpt>
      <trkpt lat="44.90192" lon="5.40259">
        <ele>1114.3</ele>
      </trkpt>
      <trkpt lat="44.90244" lon="5.40277">
        <ele>1110.2</ele>
      </trkpt>
      <trkpt lat="44.90352" lon="5.40319">
        <ele>1104.1</ele>
      </trkpt>
      <trkpt lat="44.90361" lon="5.40317">
        <ele>1103.3</ele>
      </trkpt>
      <trkpt lat="44.90366" lon="5.40432">
        <ele>1105.2</ele>
      </trkpt>
      <trkpt lat="44.90429" lon="5.40477">
        <ele>1102.4</ele>
      </trkpt>
      <trkpt lat="44.90505" lon="5.40479">
        <ele>1095</ele>
      </trkpt>
      <trkpt lat="44.90551" lon="5.40416">
        <ele>1091</ele>
      </trkpt>
      <trkpt lat="44.90562" lon="5.4037">
        <ele>1087</ele>
      </trkpt>
      <trkpt lat="44.90577" lon="5.40347">
        <ele>1084.7</ele>
      </trkpt>
      <trkpt lat="44.90737" lon="5.40393">
        <ele>1098.8</ele>
      </trkpt>
      <trkpt lat="44.90788" lon="5.4038">
        <ele>1099.8</ele>
      </trkpt>
      <trkpt lat="44.90826" lon="5.40382">
        <ele>1101.4</ele>
      </trkpt>
      <trkpt lat="44.90826" lon="5.40382">
        <ele>1101.4</ele>
      </trkpt>
      <trkpt lat="44.90856" lon="5.40384">
        <ele>1100.5</ele>
      </trkpt>
      <trkpt lat="44.90893" lon="5.40433">
        <ele>1103.6</ele>
      </trkpt>
      <trkpt lat="44.90907" lon="5.40459">
        <ele>1104.7</ele>
      </trkpt>
      <trkpt lat="44.9093" lon="5.40508">
        <ele>1108.5</ele>
      </trkpt>
      <trkpt lat="44.90925" lon="5.40508">
        <ele>1108.2</ele>
      </trkpt>
      <trkpt lat="44.90825" lon="5.40377">
        <ele>1100.9</ele>
      </trkpt>
      <trkpt lat="44.90824" lon="5.40374">
        <ele>1100.6</ele>
      </trkpt>
      <trkpt lat="44.90828" lon="5.40377">
        <ele>1101</ele>
      </trkpt>
      <trkpt lat="44.90774" lon="5.40358">
        <ele>1097.2</ele>
      </trkpt>
      <trkpt lat="44.90735" lon="5.404">
        <ele>1099.3</ele>
      </trkpt>
      <trkpt lat="44.90557" lon="5.40346">
        <ele>1084.5</ele>
      </trkpt>
      <trkpt lat="44.90526" lon="5.40212">
        <ele>1075</ele>
      </trkpt>
      <trkpt lat="44.9057" lon="5.39866">
        <ele>1057.5</ele>
      </trkpt>
      <trkpt lat="44.90566" lon="5.3978">
        <ele>1058.1</ele>
      </trkpt>
      <trkpt lat="44.90584" lon="5.39721">
        <ele>1058.3</ele>
      </trkpt>
      <trkpt lat="44.90638" lon="5.39549">
        <ele>1054.8</ele>
      </trkpt>
      <trkpt lat="44.90641" lon="5.3938">
        <ele>1053.7</ele>
      </trkpt>
      <trkpt lat="44.90616" lon="5.39242">
        <ele>1050.9</ele>
      </trkpt>
      <trkpt lat="44.9064" lon="5.38967">
        <ele>1049</ele>
      </trkpt>
      <trkpt lat="44.90653" lon="5.38914">
        <ele>1048.9</ele>
      </trkpt>
      <trkpt lat="44.90655" lon="5.38812">
        <ele>1049.9</ele>
      </trkpt>
      <trkpt lat="44.90689" lon="5.38682">
        <ele>1051.9</ele>
      </trkpt>
      <trkpt lat="44.90664" lon="5.38608">
        <ele>1053</ele>
      </trkpt>
      <trkpt lat="44.90649" lon="5.38536">
        <ele>1055.6</ele>
      </trkpt>
      <trkpt lat="44.90732" lon="5.38375">
        <ele>1055.1</ele>
      </trkpt>
      <trkpt lat="44.90771" lon="5.38087">
        <ele>1050.4</ele>
      </trkpt>
      <trkpt lat="44.90797" lon="5.37899">
        <ele>1049</ele>
      </trkpt>
      <trkpt lat="44.90803" lon="5.37631">
        <ele>1043.9</ele>
      </trkpt>
      <trkpt lat="44.90815" lon="5.37554">
        <ele>1045</ele>
      </trkpt>
      <trkpt lat="44.90733" lon="5.3738">
        <ele>1048.3</ele>
      </trkpt>
      <trkpt lat="44.90383" lon="5.37165">
        <ele>1062.5</ele>
      </trkpt>
      <trkpt lat="44.90367" lon="5.37168">
        <ele>1062.5</ele>
      </trkpt>
      <trkpt lat="44.90708" lon="5.36684">
        <ele>1111.6</ele>
      </trkpt>
      <trkpt lat="44.90751" lon="5.36702">
        <ele>1111</ele>
      </trkpt>
      <trkpt lat="44.90877" lon="5.36833">
        <ele>1115.4</ele>
      </trkpt>
      <trkpt lat="44.90999" lon="5.36828">
        <ele>1132.2</ele>
      </trkpt>
      <trkpt lat="44.91112" lon="5.3688">
        <ele>1143</ele>
      </trkpt>
      <trkpt lat="44.912" lon="5.36914">
        <ele>1155.3</ele>
      </trkpt>
      <trkpt lat="44.91268" lon="5.37003">
        <ele>1156</ele>
      </trkpt>
      <trkpt lat="44.91393" lon="5.3698">
        <ele>1182.1</ele>
      </trkpt>
      <trkpt lat="44.91472" lon="5.37027">
        <ele>1188.6</ele>
      </trkpt>
      <trkpt lat="44.9156" lon="5.37112">
        <ele>1183.7</ele>
      </trkpt>
      <trkpt lat="44.9169" lon="5.37144">
        <ele>1197.6</ele>
      </trkpt>
      <trkpt lat="44.91759" lon="5.37166">
        <ele>1196.2</ele>
      </trkpt>
      <trkpt lat="44.91824" lon="5.37163">
        <ele>1203.9</ele>
      </trkpt>
      <trkpt lat="44.91827" lon="5.37138">
        <ele>1216</ele>
      </trkpt>
      <trkpt lat="44.91755" lon="5.37131">
        <ele>1212.6</ele>
      </trkpt>
      <trkpt lat="44.91718" lon="5.37109">
        <ele>1217</ele>
      </trkpt>
      <trkpt lat="44.91679" lon="5.37072">
        <ele>1225.6</ele>
      </trkpt>
      <trkpt lat="44.91602" lon="5.37032">
        <ele>1225.8</ele>
      </trkpt>
      <trkpt lat="44.91381" lon="5.36747">
        <ele>1260.8</ele>
      </trkpt>
      <trkpt lat="44.91056" lon="5.36431">
        <ele>1293.1</ele>
      </trkpt>
      <trkpt lat="44.90893" lon="5.36314">
        <ele>1298.5</ele>
      </trkpt>
      <trkpt lat="44.90801" lon="5.362">
        <ele>1309.7</ele>
      </trkpt>
      <trkpt lat="44.90769" lon="5.36134">
        <ele>1316</ele>
      </trkpt>
      <trkpt lat="44.90733" lon="5.3607">
        <ele>1316.7</ele>
      </trkpt>
      <trkpt lat="44.90726" lon="5.36003">
        <ele>1324.8</ele>
      </trkpt>
      <trkpt lat="44.90745" lon="5.35959">
        <ele>1332.4</ele>
      </trkpt>
      <trkpt lat="44.90749" lon="5.35815">
        <ele>1341.3</ele>
      </trkpt>
      <trkpt lat="44.9075" lon="5.35804">
        <ele>1342.1</ele>
      </trkpt>
      <trkpt lat="44.90728" lon="5.3576">
        <ele>1342.9</ele>
      </trkpt>
      <trkpt lat="44.90729" lon="5.35664">
        <ele>1346.7</ele>
      </trkpt>
      <trkpt lat="44.90708" lon="5.35627">
        <ele>1345.5</ele>
      </trkpt>
      <trkpt lat="44.90708" lon="5.3562">
        <ele>1345.5</ele>
      </trkpt>
      <trkpt lat="44.90667" lon="5.35505">
        <ele>1339.4</ele>
      </trkpt>
      <trkpt lat="44.90663" lon="5.35458">
        <ele>1334.4</ele>
      </trkpt>
      <trkpt lat="44.90501" lon="5.35199">
        <ele>1343</ele>
      </trkpt>
      <trkpt lat="44.90494" lon="5.35196">
        <ele>1343.7</ele>
      </trkpt>
      <trkpt lat="44.90517" lon="5.35111">
        <ele>1344.6</ele>
      </trkpt>
      <trkpt lat="44.90498" lon="5.34905">
        <ele>1363.7</ele>
      </trkpt>
      <trkpt lat="44.90495" lon="5.34776">
        <ele>1373.3</ele>
      </trkpt>
      <trkpt lat="44.90477" lon="5.34666">
        <ele>1377.3</ele>
      </trkpt>
      <trkpt lat="44.90474" lon="5.34532">
        <ele>1381.4</ele>
      </trkpt>
      <trkpt lat="44.90455" lon="5.34281">
        <ele>1407.6</ele>
      </trkpt>
      <trkpt lat="44.90498" lon="5.34137">
        <ele>1416.4</ele>
      </trkpt>
      <trkpt lat="44.90525" lon="5.3387">
        <ele>1427.8</ele>
      </trkpt>
      <trkpt lat="44.90586" lon="5.33624">
        <ele>1439.6</ele>
      </trkpt>
      <trkpt lat="44.90565" lon="5.33632">
        <ele>1441.4</ele>
      </trkpt>
      <trkpt lat="44.90526" lon="5.33556">
        <ele>1445.4</ele>
      </trkpt>
      <trkpt lat="44.9048" lon="5.33503">
        <ele>1447.4</ele>
      </trkpt>
      <trkpt lat="44.90436" lon="5.33491">
        <ele>1451.1</ele>
      </trkpt>
      <trkpt lat="44.9038" lon="5.33541">
        <ele>1457.1</ele>
      </trkpt>
      <trkpt lat="44.90332" lon="5.33545">
        <ele>1458.6</ele>
      </trkpt>
      <trkpt lat="44.9028" lon="5.33483">
        <ele>1460.5</ele>
      </trkpt>
      <trkpt lat="44.90266" lon="5.33432">
        <ele>1459.4</ele>
      </trkpt>
      <trkpt lat="44.90139" lon="5.33235">
        <ele>1458</ele>
      </trkpt>
      <trkpt lat="44.90084" lon="5.3304">
        <ele>1459.8</ele>
      </trkpt>
      <trkpt lat="44.90096" lon="5.32863">
        <ele>1447.9</ele>
      </trkpt>
      <trkpt lat="44.90074" lon="5.32802">
        <ele>1446.5</ele>
      </trkpt>
      <trkpt lat="44.89942" lon="5.3261">
        <ele>1446.5</ele>
      </trkpt>
      <trkpt lat="44.89903" lon="5.32555">
        <ele>1449.7</ele>
      </trkpt>
      <trkpt lat="44.89896" lon="5.32425">
        <ele>1451.4</ele>
      </trkpt>
      <trkpt lat="44.89799" lon="5.32227">
        <ele>1453.9</ele>
      </trkpt>
      <trkpt lat="44.89761" lon="5.32108">
        <ele>1451.1</ele>
      </trkpt>
      <trkpt lat="44.8978" lon="5.32058">
        <ele>1447.2</ele>
      </trkpt>
      <trkpt lat="44.8979" lon="5.32047">
        <ele>1447.2</ele>
      </trkpt>
      <trkpt lat="44.89799" lon="5.32093">
        <ele>1444.3</ele>
      </trkpt>
      <trkpt lat="44.8982" lon="5.32195">
        <ele>1445.3</ele>
      </trkpt>
      <trkpt lat="44.89864" lon="5.32281">
        <ele>1444.4</ele>
      </trkpt>
      <trkpt lat="44.89948" lon="5.32257">
        <ele>1441.1</ele>
      </trkpt>
      <trkpt lat="44.89944" lon="5.32312">
        <ele>1443.4</ele>
      </trkpt>
      <trkpt lat="44.89983" lon="5.32307">
        <ele>1443.8</ele>
      </trkpt>
      <trkpt lat="44.90027" lon="5.32328">
        <ele>1447</ele>
      </trkpt>
      <trkpt lat="44.90053" lon="5.32356">
        <ele>1448.1</ele>
      </trkpt>
      <trkpt lat="44.90074" lon="5.32458">
        <ele>1444.2</ele>
      </trkpt>
      <trkpt lat="44.90078" lon="5.32523">
        <ele>1441.6</ele>
      </trkpt>
      <trkpt lat="44.90098" lon="5.32546">
        <ele>1439.7</ele>
      </trkpt>
      <trkpt lat="44.90135" lon="5.32555">
        <ele>1436.2</ele>
      </trkpt>
      <trkpt lat="44.90159" lon="5.32542">
        <ele>1435.1</ele>
      </trkpt>
      <trkpt lat="44.90206" lon="5.32513">
        <ele>1435.8</ele>
      </trkpt>
      <trkpt lat="44.90209" lon="5.3248">
        <ele>1441.7</ele>
      </trkpt>
      <trkpt lat="44.90233" lon="5.32479">
        <ele>1441.6</ele>
      </trkpt>
      <trkpt lat="44.90264" lon="5.32519">
        <ele>1433</ele>
      </trkpt>
      <trkpt lat="44.90304" lon="5.32538">
        <ele>1427.5</ele>
      </trkpt>
      <trkpt lat="44.90325" lon="5.32546">
        <ele>1424.6</ele>
      </trkpt>
      <trkpt lat="44.90367" lon="5.32606">
        <ele>1417.6</ele>
      </trkpt>
      <trkpt lat="44.90434" lon="5.32682">
        <ele>1411.2</ele>
      </trkpt>
      <trkpt lat="44.90492" lon="5.32721">
        <ele>1410.9</ele>
      </trkpt>
      <trkpt lat="44.90526" lon="5.3278">
        <ele>1409.7</ele>
      </trkpt>
      <trkpt lat="44.90562" lon="5.32782">
        <ele>1407.4</ele>
      </trkpt>
      <trkpt lat="44.90584" lon="5.32752">
        <ele>1404.1</ele>
      </trkpt>
      <trkpt lat="44.90616" lon="5.32763">
        <ele>1401.4</ele>
      </trkpt>
      <trkpt lat="44.90623" lon="5.32793">
        <ele>1402.7</ele>
      </trkpt>
      <trkpt lat="44.9067" lon="5.32821">
        <ele>1400.9</ele>
      </trkpt>
      <trkpt lat="44.90693" lon="5.32873">
        <ele>1404.4</ele>
      </trkpt>
      <trkpt lat="44.90701" lon="5.32941">
        <ele>1406.9</ele>
      </trkpt>
      <trkpt lat="44.90722" lon="5.33048">
        <ele>1404.2</ele>
      </trkpt>
      <trkpt lat="44.90716" lon="5.33148">
        <ele>1406.9</ele>
      </trkpt>
      <trkpt lat="44.90735" lon="5.33224">
        <ele>1414.6</ele>
      </trkpt>
      <trkpt lat="44.90765" lon="5.33247">
        <ele>1416.4</ele>
      </trkpt>
      <trkpt lat="44.90755" lon="5.33282">
        <ele>1416.9</ele>
      </trkpt>
      <trkpt lat="44.90754" lon="5.33318">
        <ele>1417.7</ele>
      </trkpt>
      <trkpt lat="44.90754" lon="5.33338">
        <ele>1418.3</ele>
      </trkpt>
      <trkpt lat="44.90757" lon="5.33352">
        <ele>1419</ele>
      </trkpt>
      <trkpt lat="44.90834" lon="5.33399">
        <ele>1422.2</ele>
      </trkpt>
      <trkpt lat="44.90835" lon="5.33399">
        <ele>1422.1</ele>
      </trkpt>
      <trkpt lat="44.90878" lon="5.3333">
        <ele>1417.4</ele>
      </trkpt>
      <trkpt lat="44.909" lon="5.33322">
        <ele>1416.6</ele>
      </trkpt>
      <trkpt lat="44.91024" lon="5.3341">
        <ele>1411.3</ele>
      </trkpt>
      <trkpt lat="44.91215" lon="5.33482">
        <ele>1410.8</ele>
      </trkpt>
      <trkpt lat="44.91266" lon="5.33486">
        <ele>1407.9</ele>
      </trkpt>
      <trkpt lat="44.91323" lon="5.33459">
        <ele>1403.3</ele>
      </trkpt>
      <trkpt lat="44.91358" lon="5.33459">
        <ele>1402.4</ele>
      </trkpt>
      <trkpt lat="44.91414" lon="5.33486">
        <ele>1402.7</ele>
      </trkpt>
      <trkpt lat="44.91511" lon="5.33589">
        <ele>1393.1</ele>
      </trkpt>
      <trkpt lat="44.91517" lon="5.33657">
        <ele>1402.8</ele>
      </trkpt>
      <trkpt lat="44.91547" lon="5.33703">
        <ele>1410.8</ele>
      </trkpt>
      <trkpt lat="44.91668" lon="5.33748">
        <ele>1417.9</ele>
      </trkpt>
      <trkpt lat="44.91673" lon="5.33821">
        <ele>1422.3</ele>
      </trkpt>
      <trkpt lat="44.91662" lon="5.33939">
        <ele>1433.1</ele>
      </trkpt>
      <trkpt lat="44.91711" lon="5.34072">
        <ele>1441.6</ele>
      </trkpt>
      <trkpt lat="44.91751" lon="5.3422">
        <ele>1440.6</ele>
      </trkpt>
      <trkpt lat="44.91787" lon="5.34277">
        <ele>1444</ele>
      </trkpt>
      <trkpt lat="44.91827" lon="5.34315">
        <ele>1446.7</ele>
      </trkpt>
      <trkpt lat="44.91843" lon="5.34368">
        <ele>1449.1</ele>
      </trkpt>
      <trkpt lat="44.91876" lon="5.34398">
        <ele>1447.1</ele>
      </trkpt>
      <trkpt lat="44.91903" lon="5.34467">
        <ele>1449.5</ele>
      </trkpt>
      <trkpt lat="44.91908" lon="5.3452">
        <ele>1455.1</ele>
      </trkpt>
      <trkpt lat="44.91946" lon="5.34596">
        <ele>1461</ele>
      </trkpt>
      <trkpt lat="44.91978" lon="5.34627">
        <ele>1460.5</ele>
      </trkpt>
      <trkpt lat="44.91992" lon="5.34692">
        <ele>1469</ele>
      </trkpt>
      <trkpt lat="44.92156" lon="5.34752">
        <ele>1470.9</ele>
      </trkpt>
      <trkpt lat="44.92204" lon="5.34886">
        <ele>1483.5</ele>
      </trkpt>
      <trkpt lat="44.92186" lon="5.34969">
        <ele>1486.9</ele>
      </trkpt>
      <trkpt lat="44.92183" lon="5.35026">
        <ele>1485</ele>
      </trkpt>
      <trkpt lat="44.92167" lon="5.35065">
        <ele>1481.8</ele>
      </trkpt>
      <trkpt lat="44.92169" lon="5.35103">
        <ele>1477.5</ele>
      </trkpt>
      <trkpt lat="44.92102" lon="5.3516">
        <ele>1470.3</ele>
      </trkpt>
      <trkpt lat="44.92002" lon="5.353">
        <ele>1450.6</ele>
      </trkpt>
      <trkpt lat="44.91959" lon="5.35316">
        <ele>1449.1</ele>
      </trkpt>
      <trkpt lat="44.91948" lon="5.35396">
        <ele>1441.4</ele>
      </trkpt>
      <trkpt lat="44.91962" lon="5.35437">
        <ele>1436.4</ele>
      </trkpt>
      <trkpt lat="44.92008" lon="5.35491">
        <ele>1427.5</ele>
      </trkpt>
      <trkpt lat="44.92037" lon="5.35525">
        <ele>1421.6</ele>
      </trkpt>
      <trkpt lat="44.92107" lon="5.35559">
        <ele>1410.5</ele>
      </trkpt>
      <trkpt lat="44.92145" lon="5.35597">
        <ele>1405.8</ele>
      </trkpt>
      <trkpt lat="44.92204" lon="5.35723">
        <ele>1409.7</ele>
      </trkpt>
      <trkpt lat="44.92237" lon="5.35852">
        <ele>1405.3</ele>
      </trkpt>
      <trkpt lat="44.92328" lon="5.36065">
        <ele>1431.7</ele>
      </trkpt>
      <trkpt lat="44.92318" lon="5.36187">
        <ele>1448.5</ele>
      </trkpt>
      <trkpt lat="44.92339" lon="5.36218">
        <ele>1452.1</ele>
      </trkpt>
      <trkpt lat="44.92377" lon="5.36359">
        <ele>1462.3</ele>
      </trkpt>
      <trkpt lat="44.92487" lon="5.36606">
        <ele>1440.5</ele>
      </trkpt>
      <trkpt lat="44.92509" lon="5.36659">
        <ele>1436.4</ele>
      </trkpt>
      <trkpt lat="44.92536" lon="5.36678">
        <ele>1439.8</ele>
      </trkpt>
      <trkpt lat="44.92576" lon="5.36674">
        <ele>1444.2</ele>
      </trkpt>
      <trkpt lat="44.92609" lon="5.36636">
        <ele>1445.4</ele>
      </trkpt>
      <trkpt lat="44.9263" lon="5.36568">
        <ele>1440.9</ele>
      </trkpt>
      <trkpt lat="44.92679" lon="5.36511">
        <ele>1438.8</ele>
      </trkpt>
      <trkpt lat="44.92746" lon="5.36484">
        <ele>1449.5</ele>
      </trkpt>
      <trkpt lat="44.92778" lon="5.36423">
        <ele>1450.2</ele>
      </trkpt>
      <trkpt lat="44.92827" lon="5.3621">
        <ele>1465.2</ele>
      </trkpt>
      <trkpt lat="44.92827" lon="5.36122">
        <ele>1465.5</ele>
      </trkpt>
      <trkpt lat="44.92851" lon="5.36058">
        <ele>1468.7</ele>
      </trkpt>
      <trkpt lat="44.9284" lon="5.35982">
        <ele>1461.7</ele>
      </trkpt>
      <trkpt lat="44.92854" lon="5.35886">
        <ele>1455.8</ele>
      </trkpt>
      <trkpt lat="44.92886" lon="5.35864">
        <ele>1459.4</ele>
      </trkpt>
      <trkpt lat="44.929" lon="5.35788">
        <ele>1455.4</ele>
      </trkpt>
      <trkpt lat="44.9294" lon="5.35776">
        <ele>1457.5</ele>
      </trkpt>
      <trkpt lat="44.93002" lon="5.35784">
        <ele>1460.7</ele>
      </trkpt>
      <trkpt lat="44.93105" lon="5.35868">
        <ele>1464.1</ele>
      </trkpt>
      <trkpt lat="44.93185" lon="5.35989">
        <ele>1452.5</ele>
      </trkpt>
      <trkpt lat="44.93309" lon="5.36062">
        <ele>1443.7</ele>
      </trkpt>
      <trkpt lat="44.93433" lon="5.36025">
        <ele>1450.2</ele>
      </trkpt>
      <trkpt lat="44.9346" lon="5.36025">
        <ele>1452.2</ele>
      </trkpt>
      <trkpt lat="44.93506" lon="5.36059">
        <ele>1449</ele>
      </trkpt>
      <trkpt lat="44.93597" lon="5.36184">
        <ele>1439.7</ele>
      </trkpt>
      <trkpt lat="44.93638" lon="5.36203">
        <ele>1438.7</ele>
      </trkpt>
      <trkpt lat="44.93649" lon="5.36291">
        <ele>1438.3</ele>
      </trkpt>
      <trkpt lat="44.93713" lon="5.36352">
        <ele>1434.9</ele>
      </trkpt>
      <trkpt lat="44.9374" lon="5.36439">
        <ele>1437</ele>
      </trkpt>
      <trkpt lat="44.93748" lon="5.36508">
        <ele>1439.6</ele>
      </trkpt>
      <trkpt lat="44.93813" lon="5.36554">
        <ele>1436.1</ele>
      </trkpt>
      <trkpt lat="44.93824" lon="5.36611">
        <ele>1435.5</ele>
      </trkpt>
      <trkpt lat="44.93786" lon="5.36721">
        <ele>1434.6</ele>
      </trkpt>
      <trkpt lat="44.93783" lon="5.36763">
        <ele>1434.6</ele>
      </trkpt>
      <trkpt lat="44.93808" lon="5.36813">
        <ele>1433.3</ele>
      </trkpt>
      <trkpt lat="44.93853" lon="5.36839">
        <ele>1430</ele>
      </trkpt>
      <trkpt lat="44.9388" lon="5.36877">
        <ele>1427.8</ele>
      </trkpt>
      <trkpt lat="44.93907" lon="5.36881">
        <ele>1425.5</ele>
      </trkpt>
      <trkpt lat="44.93929" lon="5.36851">
        <ele>1422</ele>
      </trkpt>
      <trkpt lat="44.93948" lon="5.36988">
        <ele>1411.3</ele>
      </trkpt>
      <trkpt lat="44.93942" lon="5.37189">
        <ele>1398.3</ele>
      </trkpt>
      <trkpt lat="44.9403" lon="5.37428">
        <ele>1387.4</ele>
      </trkpt>
      <trkpt lat="44.94002" lon="5.3756">
        <ele>1379.4</ele>
      </trkpt>
      <trkpt lat="44.94004" lon="5.37587">
        <ele>1373.5</ele>
      </trkpt>
      <trkpt lat="44.94014" lon="5.37596">
        <ele>1370.4</ele>
      </trkpt>
      <trkpt lat="44.94062" lon="5.37508">
        <ele>1373.5</ele>
      </trkpt>
      <trkpt lat="44.94088" lon="5.37483">
        <ele>1368</ele>
      </trkpt>
      <trkpt lat="44.94117" lon="5.37412">
        <ele>1363.2</ele>
      </trkpt>
      <trkpt lat="44.94174" lon="5.37408">
        <ele>1344.7</ele>
      </trkpt>
      <trkpt lat="44.94148" lon="5.37384">
        <ele>1352.6</ele>
      </trkpt>
      <trkpt lat="44.94152" lon="5.37292">
        <ele>1342.4</ele>
      </trkpt>
      <trkpt lat="44.94126" lon="5.37211">
        <ele>1341.6</ele>
      </trkpt>
      <trkpt lat="44.94089" lon="5.37192">
        <ele>1352.2</ele>
      </trkpt>
      <trkpt lat="44.94084" lon="5.37147">
        <ele>1348.2</ele>
      </trkpt>
      <trkpt lat="44.941" lon="5.37017">
        <ele>1332</ele>
      </trkpt>
      <trkpt lat="44.94133" lon="5.37129">
        <ele>1326.1</ele>
      </trkpt>
      <trkpt lat="44.94161" lon="5.37151">
        <ele>1317.6</ele>
      </trkpt>
      <trkpt lat="44.94192" lon="5.37222">
        <ele>1312.9</ele>
      </trkpt>
      <trkpt lat="44.94228" lon="5.37375">
        <ele>1306.6</ele>
      </trkpt>
      <trkpt lat="44.94232" lon="5.37481">
        <ele>1305.6</ele>
      </trkpt>
      <trkpt lat="44.94255" lon="5.37321">
        <ele>1287.4</ele>
      </trkpt>
      <trkpt lat="44.94253" lon="5.3721">
        <ele>1274.4</ele>
      </trkpt>
      <trkpt lat="44.94215" lon="5.37078">
        <ele>1275.5</ele>
      </trkpt>
      <trkpt lat="44.9421" lon="5.37012">
        <ele>1270.1</ele>
      </trkpt>
      <trkpt lat="44.94212" lon="5.36773">
        <ele>1261</ele>
      </trkpt>
      <trkpt lat="44.94235" lon="5.36494">
        <ele>1244.3</ele>
      </trkpt>
      <trkpt lat="44.94264" lon="5.36354">
        <ele>1236.4</ele>
      </trkpt>
      <trkpt lat="44.94296" lon="5.36271">
        <ele>1231.8</ele>
      </trkpt>
      <trkpt lat="44.94408" lon="5.36253">
        <ele>1214.2</ele>
      </trkpt>
      <trkpt lat="44.94435" lon="5.36194">
        <ele>1211.7</ele>
      </trkpt>
      <trkpt lat="44.9444" lon="5.36161">
        <ele>1210.3</ele>
      </trkpt>
      <trkpt lat="44.94431" lon="5.36126">
        <ele>1212.8</ele>
      </trkpt>
      <trkpt lat="44.944" lon="5.36052">
        <ele>1219.2</ele>
      </trkpt>
      <trkpt lat="44.94373" lon="5.36024">
        <ele>1220.7</ele>
      </trkpt>
      <trkpt lat="44.94364" lon="5.35986">
        <ele>1220.6</ele>
      </trkpt>
      <trkpt lat="44.94364" lon="5.35958">
        <ele>1218.3</ele>
      </trkpt>
      <trkpt lat="44.94393" lon="5.35918">
        <ele>1215.1</ele>
      </trkpt>
      <trkpt lat="44.94436" lon="5.35783">
        <ele>1208.7</ele>
      </trkpt>
      <trkpt lat="44.94465" lon="5.35628">
        <ele>1217.7</ele>
      </trkpt>
      <trkpt lat="44.94465" lon="5.35583">
        <ele>1219.1</ele>
      </trkpt>
      <trkpt lat="44.94429" lon="5.35496">
        <ele>1224.5</ele>
      </trkpt>
      <trkpt lat="44.94426" lon="5.35453">
        <ele>1226.2</ele>
      </trkpt>
      <trkpt lat="44.94484" lon="5.35495">
        <ele>1226</ele>
      </trkpt>
      <trkpt lat="44.94514" lon="5.35545">
        <ele>1222.2</ele>
      </trkpt>
      <trkpt lat="44.94635" lon="5.35548">
        <ele>1231.9</ele>
      </trkpt>
      <trkpt lat="44.94751" lon="5.35503">
        <ele>1236.9</ele>
      </trkpt>
      <trkpt lat="44.94896" lon="5.35472">
        <ele>1235.3</ele>
      </trkpt>
      <trkpt lat="44.94958" lon="5.35423">
        <ele>1237.3</ele>
      </trkpt>
      <trkpt lat="44.95026" lon="5.35392">
        <ele>1230.9</ele>
      </trkpt>
      <trkpt lat="44.95077" lon="5.3535">
        <ele>1226.2</ele>
      </trkpt>
      <trkpt lat="44.95058" lon="5.35297">
        <ele>1227.8</ele>
      </trkpt>
      <trkpt lat="44.94953" lon="5.3519">
        <ele>1235.5</ele>
      </trkpt>
      <trkpt lat="44.94945" lon="5.35152">
        <ele>1239.6</ele>
      </trkpt>
      <trkpt lat="44.94996" lon="5.35103">
        <ele>1240.8</ele>
      </trkpt>
      <trkpt lat="44.95069" lon="5.35099">
        <ele>1233.5</ele>
      </trkpt>
      <trkpt lat="44.95166" lon="5.35031">
        <ele>1238.4</ele>
      </trkpt>
      <trkpt lat="44.95327" lon="5.34947">
        <ele>1233.4</ele>
      </trkpt>
      <trkpt lat="44.95441" lon="5.34954">
        <ele>1222.9</ele>
      </trkpt>
      <trkpt lat="44.95457" lon="5.34916">
        <ele>1229.6</ele>
      </trkpt>
      <trkpt lat="44.95449" lon="5.34844">
        <ele>1233.8</ele>
      </trkpt>
      <trkpt lat="44.95468" lon="5.34779">
        <ele>1229.4</ele>
      </trkpt>
      <trkpt lat="44.95441" lon="5.34703">
        <ele>1227.2</ele>
      </trkpt>
      <trkpt lat="44.95392" lon="5.34665">
        <ele>1231.8</ele>
      </trkpt>
      <trkpt lat="44.95373" lon="5.34596">
        <ele>1230.5</ele>
      </trkpt>
      <trkpt lat="44.95408" lon="5.34452">
        <ele>1225.3</ele>
      </trkpt>
      <trkpt lat="44.95408" lon="5.34372">
        <ele>1222.7</ele>
      </trkpt>
      <trkpt lat="44.95387" lon="5.34326">
        <ele>1220.6</ele>
      </trkpt>
      <trkpt lat="44.95317" lon="5.34303">
        <ele>1220.5</ele>
      </trkpt>
      <trkpt lat="44.95249" lon="5.34307">
        <ele>1223.3</ele>
      </trkpt>
      <trkpt lat="44.95198" lon="5.34288">
        <ele>1222.6</ele>
      </trkpt>
      <trkpt lat="44.95168" lon="5.34246">
        <ele>1217.5</ele>
      </trkpt>
      <trkpt lat="44.95139" lon="5.34246">
        <ele>1217.9</ele>
      </trkpt>
      <trkpt lat="44.95112" lon="5.34292">
        <ele>1224.2</ele>
      </trkpt>
      <trkpt lat="44.95066" lon="5.34296">
        <ele>1227.6</ele>
      </trkpt>
      <trkpt lat="44.95004" lon="5.34136">
        <ele>1219.1</ele>
      </trkpt>
      <trkpt lat="44.94961" lon="5.34105">
        <ele>1216.3</ele>
      </trkpt>
      <trkpt lat="44.94894" lon="5.34124">
        <ele>1220.9</ele>
      </trkpt>
      <trkpt lat="44.9484" lon="5.34159">
        <ele>1223.4</ele>
      </trkpt>
      <trkpt lat="44.9477" lon="5.34162">
        <ele>1227.9</ele>
      </trkpt>
      <trkpt lat="44.9467" lon="5.34052">
        <ele>1215.6</ele>
      </trkpt>
      <trkpt lat="44.94638" lon="5.34075">
        <ele>1216.2</ele>
      </trkpt>
      <trkpt lat="44.9457" lon="5.34193">
        <ele>1223.4</ele>
      </trkpt>
      <trkpt lat="44.94516" lon="5.34212">
        <ele>1228.3</ele>
      </trkpt>
      <trkpt lat="44.94462" lon="5.34079">
        <ele>1218.2</ele>
      </trkpt>
      <trkpt lat="44.94435" lon="5.34048">
        <ele>1216.9</ele>
      </trkpt>
      <trkpt lat="44.94379" lon="5.34029">
        <ele>1220.9</ele>
      </trkpt>
      <trkpt lat="44.94344" lon="5.34002">
        <ele>1220.1</ele>
      </trkpt>
      <trkpt lat="44.94301" lon="5.33999">
        <ele>1222.5</ele>
      </trkpt>
      <trkpt lat="44.94255" lon="5.33983">
        <ele>1225.3</ele>
      </trkpt>
      <trkpt lat="44.9426" lon="5.33926">
        <ele>1226.5</ele>
      </trkpt>
      <trkpt lat="44.94306" lon="5.33835">
        <ele>1219.6</ele>
      </trkpt>
      <trkpt lat="44.94274" lon="5.33785">
        <ele>1219.9</ele>
      </trkpt>
      <trkpt lat="44.9419" lon="5.33717">
        <ele>1222.7</ele>
      </trkpt>
      <trkpt lat="44.94171" lon="5.33675">
        <ele>1218.8</ele>
      </trkpt>
      <trkpt lat="44.94155" lon="5.33557">
        <ele>1207.8</ele>
      </trkpt>
      <trkpt lat="44.94131" lon="5.33507">
        <ele>1201.7</ele>
      </trkpt>
      <trkpt lat="44.94196" lon="5.33424">
        <ele>1198.2</ele>
      </trkpt>
      <trkpt lat="44.94244" lon="5.33397">
        <ele>1197.6</ele>
      </trkpt>
      <trkpt lat="44.9425" lon="5.33363">
        <ele>1194.2</ele>
      </trkpt>
      <trkpt lat="44.94347" lon="5.33208">
        <ele>1176</ele>
      </trkpt>
      <trkpt lat="44.94373" lon="5.33114">
        <ele>1159.6</ele>
      </trkpt>
      <trkpt lat="44.94425" lon="5.33045">
        <ele>1150.1</ele>
      </trkpt>
      <trkpt lat="44.94462" lon="5.32944">
        <ele>1135</ele>
      </trkpt>
      <trkpt lat="44.94462" lon="5.32893">
        <ele>1128</ele>
      </trkpt>
      <trkpt lat="44.94489" lon="5.32858">
        <ele>1125.9</ele>
      </trkpt>
      <trkpt lat="44.94482" lon="5.32769">
        <ele>1118</ele>
      </trkpt>
      <trkpt lat="44.94493" lon="5.32685">
        <ele>1109.6</ele>
      </trkpt>
      <trkpt lat="44.94511" lon="5.32634">
        <ele>1103.4</ele>
      </trkpt>
      <trkpt lat="44.94547" lon="5.32581">
        <ele>1097.6</ele>
      </trkpt>
      <trkpt lat="44.94658" lon="5.32451">
        <ele>1089.4</ele>
      </trkpt>
      <trkpt lat="44.94689" lon="5.32429">
        <ele>1088.4</ele>
      </trkpt>
      <trkpt lat="44.947" lon="5.32383">
        <ele>1085.1</ele>
      </trkpt>
      <trkpt lat="44.94762" lon="5.32309">
        <ele>1081.3</ele>
      </trkpt>
      <trkpt lat="44.94939" lon="5.32218">
        <ele>1085.8</ele>
      </trkpt>
      <trkpt lat="44.95118" lon="5.32373">
        <ele>1080</ele>
      </trkpt>
      <trkpt lat="44.95345" lon="5.32525">
        <ele>1074.5</ele>
      </trkpt>
      <trkpt lat="44.95557" lon="5.32588">
        <ele>1082.2</ele>
      </trkpt>
      <trkpt lat="44.95566" lon="5.32566">
        <ele>1084.3</ele>
      </trkpt>
      <trkpt lat="44.95594" lon="5.32555">
        <ele>1088.7</ele>
      </trkpt>
      <trkpt lat="44.95605" lon="5.32525">
        <ele>1091.8</ele>
      </trkpt>
      <trkpt lat="44.95682" lon="5.32561">
        <ele>1102.5</ele>
      </trkpt>
      <trkpt lat="44.95722" lon="5.32581">
        <ele>1109.3</ele>
      </trkpt>
      <trkpt lat="44.95783" lon="5.3254">
        <ele>1119.6</ele>
      </trkpt>
      <trkpt lat="44.95912" lon="5.32568">
        <ele>1129.8</ele>
      </trkpt>
      <trkpt lat="44.96004" lon="5.32571">
        <ele>1135.1</ele>
      </trkpt>
      <trkpt lat="44.96085" lon="5.32599">
        <ele>1132.9</ele>
      </trkpt>
      <trkpt lat="44.96124" lon="5.32627">
        <ele>1131.1</ele>
      </trkpt>
      <trkpt lat="44.96183" lon="5.32714">
        <ele>1128.2</ele>
      </trkpt>
      <trkpt lat="44.96227" lon="5.32758">
        <ele>1126.3</ele>
      </trkpt>
      <trkpt lat="44.96259" lon="5.32826">
        <ele>1123.6</ele>
      </trkpt>
      <trkpt lat="44.96262" lon="5.32886">
        <ele>1118.6</ele>
      </trkpt>
      <trkpt lat="44.96291" lon="5.32907">
        <ele>1114.6</ele>
      </trkpt>
      <trkpt lat="44.96337" lon="5.32925">
        <ele>1111.8</ele>
      </trkpt>
      <trkpt lat="44.96387" lon="5.32918">
        <ele>1108</ele>
      </trkpt>
      <trkpt lat="44.96519" lon="5.33027">
        <ele>1107.5</ele>
      </trkpt>
      <trkpt lat="44.96535" lon="5.33028">
        <ele>1107.3</ele>
      </trkpt>
      <trkpt lat="44.9656" lon="5.33001">
        <ele>1103.6</ele>
      </trkpt>
      <trkpt lat="44.96594" lon="5.3291">
        <ele>1094.2</ele>
      </trkpt>
      <trkpt lat="44.96612" lon="5.32826">
        <ele>1084.8</ele>
      </trkpt>
      <trkpt lat="44.96652" lon="5.3278">
        <ele>1084.2</ele>
      </trkpt>
      <trkpt lat="44.96693" lon="5.32754">
        <ele>1084.4</ele>
      </trkpt>
      <trkpt lat="44.96848" lon="5.32772">
        <ele>1093.8</ele>
      </trkpt>
      <trkpt lat="44.96876" lon="5.32738">
        <ele>1095</ele>
      </trkpt>
      <trkpt lat="44.96924" lon="5.32687">
        <ele>1100.1</ele>
      </trkpt>
      <trkpt lat="44.96958" lon="5.32683">
        <ele>1100.9</ele>
      </trkpt>
      <trkpt lat="44.97002" lon="5.32809">
        <ele>1090.3</ele>
      </trkpt>
      <trkpt lat="44.97091" lon="5.3294">
        <ele>1086.2</ele>
      </trkpt>
      <trkpt lat="44.97147" lon="5.32937">
        <ele>1084.4</ele>
      </trkpt>
      <trkpt lat="44.97186" lon="5.32898">
        <ele>1085.7</ele>
      </trkpt>
      <trkpt lat="44.97278" lon="5.32747">
        <ele>1097.1</ele>
      </trkpt>
      <trkpt lat="44.97414" lon="5.32723">
        <ele>1092.5</ele>
      </trkpt>
      <trkpt lat="44.97477" lon="5.32745">
        <ele>1093.3</ele>
      </trkpt>
      <trkpt lat="44.97535" lon="5.32742">
        <ele>1100.9</ele>
      </trkpt>
      <trkpt lat="44.97401" lon="5.32618">
        <ele>1116.5</ele>
      </trkpt>
      <trkpt lat="44.97491" lon="5.32626">
        <ele>1114.4</ele>
      </trkpt>
      <trkpt lat="44.9751" lon="5.32604">
        <ele>1117.1</ele>
      </trkpt>
      <trkpt lat="44.9751" lon="5.32576">
        <ele>1120.3</ele>
      </trkpt>
      <trkpt lat="44.97451" lon="5.32446">
        <ele>1134.9</ele>
      </trkpt>
      <trkpt lat="44.97459" lon="5.32405">
        <ele>1136.8</ele>
      </trkpt>
      <trkpt lat="44.97563" lon="5.32385">
        <ele>1141.8</ele>
      </trkpt>
      <trkpt lat="44.97586" lon="5.32447">
        <ele>1135</ele>
      </trkpt>
      <trkpt lat="44.9763" lon="5.3249">
        <ele>1139.8</ele>
      </trkpt>
      <trkpt lat="44.97713" lon="5.32653">
        <ele>1138.9</ele>
      </trkpt>
      <trkpt lat="44.97756" lon="5.32716">
        <ele>1138.5</ele>
      </trkpt>
      <trkpt lat="44.97785" lon="5.32724">
        <ele>1137.9</ele>
      </trkpt>
      <trkpt lat="44.9783" lon="5.32647">
        <ele>1150.8</ele>
      </trkpt>
      <trkpt lat="44.97924" lon="5.32598">
        <ele>1150.8</ele>
      </trkpt>
      <trkpt lat="44.97947" lon="5.32561">
        <ele>1151.5</ele>
      </trkpt>
      <trkpt lat="44.97953" lon="5.3253">
        <ele>1151.3</ele>
      </trkpt>
      <trkpt lat="44.98042" lon="5.32452">
        <ele>1149</ele>
      </trkpt>
      <trkpt lat="44.98089" lon="5.32395">
        <ele>1144.9</ele>
      </trkpt>
      <trkpt lat="44.98177" lon="5.32313">
        <ele>1137</ele>
      </trkpt>
      <trkpt lat="44.98441" lon="5.32118">
        <ele>1106.3</ele>
      </trkpt>
      <trkpt lat="44.98486" lon="5.32121">
        <ele>1098.8</ele>
      </trkpt>
      <trkpt lat="44.98519" lon="5.32135">
        <ele>1093.2</ele>
      </trkpt>
      <trkpt lat="44.9855" lon="5.32156">
        <ele>1087.9</ele>
      </trkpt>
      <trkpt lat="44.98573" lon="5.32138">
        <ele>1083.5</ele>
      </trkpt>
      <trkpt lat="44.98574" lon="5.32087">
        <ele>1082.7</ele>
      </trkpt>
      <trkpt lat="44.98603" lon="5.32032">
        <ele>1085.7</ele>
      </trkpt>
      <trkpt lat="44.98669" lon="5.31997">
        <ele>1090.8</ele>
      </trkpt>
      <trkpt lat="44.98808" lon="5.32008">
        <ele>1081.8</ele>
      </trkpt>
      <trkpt lat="44.98847" lon="5.31978">
        <ele>1086.1</ele>
      </trkpt>
      <trkpt lat="44.98924" lon="5.31967">
        <ele>1082.2</ele>
      </trkpt>
      <trkpt lat="44.99021" lon="5.31893">
        <ele>1083.3</ele>
      </trkpt>
      <trkpt lat="44.99033" lon="5.31849">
        <ele>1080.7</ele>
      </trkpt>
      <trkpt lat="44.99091" lon="5.31788">
        <ele>1074.9</ele>
      </trkpt>
      <trkpt lat="44.99185" lon="5.3174">
        <ele>1059</ele>
      </trkpt>
      <trkpt lat="44.99324" lon="5.31741">
        <ele>1040.9</ele>
      </trkpt>
      <trkpt lat="44.9944" lon="5.31712">
        <ele>1021.2</ele>
      </trkpt>
      <trkpt lat="44.99485" lon="5.31686">
        <ele>1011.5</ele>
      </trkpt>
      <trkpt lat="44.99535" lon="5.31603">
        <ele>995.3</ele>
      </trkpt>
      <trkpt lat="44.99529" lon="5.3158">
        <ele>994.2</ele>
      </trkpt>
      <trkpt lat="44.99424" lon="5.31457">
        <ele>990.5</ele>
      </trkpt>
      <trkpt lat="44.99415" lon="5.31305">
        <ele>976.2</ele>
      </trkpt>
      <trkpt lat="44.99425" lon="5.31232">
        <ele>965.2</ele>
      </trkpt>
      <trkpt lat="44.99455" lon="5.31142">
        <ele>952.9</ele>
      </trkpt>
      <trkpt lat="44.9956" lon="5.31091">
        <ele>938.3</ele>
      </trkpt>
      <trkpt lat="44.99686" lon="5.30923">
        <ele>908.5</ele>
      </trkpt>
      <trkpt lat="44.99703" lon="5.30974">
        <ele>907.4</ele>
      </trkpt>
      <trkpt lat="44.99751" lon="5.31028">
        <ele>899.3</ele>
      </trkpt>
      <trkpt lat="44.99792" lon="5.31097">
        <ele>896.3</ele>
      </trkpt>
      <trkpt lat="44.99858" lon="5.31122">
        <ele>890.6</ele>
      </trkpt>
      <trkpt lat="44.9991" lon="5.31201">
        <ele>885.8</ele>
      </trkpt>
      <trkpt lat="44.99934" lon="5.31231">
        <ele>882.6</ele>
      </trkpt>
      <trkpt lat="45.00007" lon="5.3121">
        <ele>875.9</ele>
      </trkpt>
      <trkpt lat="45.00031" lon="5.3122">
        <ele>873.8</ele>
      </trkpt>
      <trkpt lat="45.00311" lon="5.31438">
        <ele>862.5</ele>
      </trkpt>
      <trkpt lat="45.00301" lon="5.31476">
        <ele>860.9</ele>
      </trkpt>
      <trkpt lat="45.00261" lon="5.3148">
        <ele>861.7</ele>
      </trkpt>
      <trkpt lat="45.00205" lon="5.31525">
        <ele>866.1</ele>
      </trkpt>
      <trkpt lat="45.0023" lon="5.31694">
        <ele>873.4</ele>
      </trkpt>
      <trkpt lat="45.00287" lon="5.31745">
        <ele>868.3</ele>
      </trkpt>
      <trkpt lat="45.00237" lon="5.31847">
        <ele>868.3</ele>
      </trkpt>
      <trkpt lat="45.00249" lon="5.31898">
        <ele>865.5</ele>
      </trkpt>
      <trkpt lat="45.0026" lon="5.32007">
        <ele>858.6</ele>
      </trkpt>
      <trkpt lat="45.00275" lon="5.32042">
        <ele>856.2</ele>
      </trkpt>
      <trkpt lat="45.00288" lon="5.32049">
        <ele>854.6</ele>
      </trkpt>
      <trkpt lat="45.0036" lon="5.32063">
        <ele>845.6</ele>
      </trkpt>
      <trkpt lat="45.00524" lon="5.32059">
        <ele>820.8</ele>
      </trkpt>
      <trkpt lat="45.00552" lon="5.32016">
        <ele>819.2</ele>
      </trkpt>
      <trkpt lat="45.00572" lon="5.32014">
        <ele>816.6</ele>
      </trkpt>
      <trkpt lat="45.0059" lon="5.3204">
        <ele>813.4</ele>
      </trkpt>
      <trkpt lat="45.00661" lon="5.32066">
        <ele>807.6</ele>
      </trkpt>
      <trkpt lat="45.00698" lon="5.32103">
        <ele>802.4</ele>
      </trkpt>
      <trkpt lat="45.00721" lon="5.32104">
        <ele>798</ele>
      </trkpt>
      <trkpt lat="45.00904" lon="5.3205">
        <ele>770.2</ele>
      </trkpt>
      <trkpt lat="45.00934" lon="5.32027">
        <ele>764.6</ele>
      </trkpt>
      <trkpt lat="45.0096" lon="5.32003">
        <ele>757.8</ele>
      </trkpt>
      <trkpt lat="45.00988" lon="5.31947">
        <ele>744.6</ele>
      </trkpt>
      <trkpt lat="45.00985" lon="5.31899">
        <ele>738.6</ele>
      </trkpt>
      <trkpt lat="45.00964" lon="5.31828">
        <ele>729.3</ele>
      </trkpt>
      <trkpt lat="45.00912" lon="5.31756">
        <ele>736.3</ele>
      </trkpt>
      <trkpt lat="45.00771" lon="5.31409">
        <ele>684.6</ele>
      </trkpt>
      <trkpt lat="45.00764" lon="5.31259">
        <ele>656.9</ele>
      </trkpt>
      <trkpt lat="45.00795" lon="5.31356">
        <ele>656.8</ele>
      </trkpt>
      <trkpt lat="45.00791" lon="5.31175">
        <ele>627.2</ele>
      </trkpt>
      <trkpt lat="45.00777" lon="5.31098">
        <ele>621.8</ele>
      </trkpt>
      <trkpt lat="45.00764" lon="5.30983">
        <ele>601.1</ele>
      </trkpt>
      <trkpt lat="45.00822" lon="5.31085">
        <ele>592.6</ele>
      </trkpt>
      <trkpt lat="45.00888" lon="5.31145">
        <ele>574.4</ele>
      </trkpt>
      <trkpt lat="45.00897" lon="5.31089">
        <ele>562.5</ele>
      </trkpt>
      <trkpt lat="45.00885" lon="5.30923">
        <ele>550</ele>
      </trkpt>
      <trkpt lat="45.00912" lon="5.30757">
        <ele>534.5</ele>
      </trkpt>
      <trkpt lat="45.00932" lon="5.30678">
        <ele>528.1</ele>
      </trkpt>
      <trkpt lat="45.00922" lon="5.30659">
        <ele>527.2</ele>
      </trkpt>
      <trkpt lat="45.00861" lon="5.30665">
        <ele>519.8</ele>
      </trkpt>
      <trkpt lat="45.00835" lon="5.30689">
        <ele>521.8</ele>
      </trkpt>
      <trkpt lat="45.00772" lon="5.30714">
        <ele>520.5</ele>
      </trkpt>
      <trkpt lat="45.00605" lon="5.30629">
        <ele>488.8</ele>
      </trkpt>
      <trkpt lat="45.00572" lon="5.30602">
        <ele>488.3</ele>
      </trkpt>
      <trkpt lat="45.00549" lon="5.3056">
        <ele>488.8</ele>
      </trkpt>
      <trkpt lat="45.00549" lon="5.30534">
        <ele>483.1</ele>
      </trkpt>
      <trkpt lat="45.00571" lon="5.30485">
        <ele>464.2</ele>
      </trkpt>
      <trkpt lat="45.00567" lon="5.3044">
        <ele>460.8</ele>
      </trkpt>
      <trkpt lat="45.00528" lon="5.30393">
        <ele>477.7</ele>
      </trkpt>
      <trkpt lat="45.00599" lon="5.30375">
        <ele>451.3</ele>
      </trkpt>
      <trkpt lat="45.00638" lon="5.30339">
        <ele>435.9</ele>
      </trkpt>
      <trkpt lat="45.00655" lon="5.30264">
        <ele>430.8</ele>
      </trkpt>
      <trkpt lat="45.00643" lon="5.30216">
        <ele>440</ele>
      </trkpt>
      <trkpt lat="45.00652" lon="5.30156">
        <ele>437.2</ele>
      </trkpt>
      <trkpt lat="45.00675" lon="5.3011">
        <ele>422.8</ele>
      </trkpt>
      <trkpt lat="45.00673" lon="5.30014">
        <ele>411.9</ele>
      </trkpt>
      <trkpt lat="45.00651" lon="5.29934">
        <ele>405</ele>
      </trkpt>
      <trkpt lat="45.00582" lon="5.29803">
        <ele>397</ele>
      </trkpt>
      <trkpt lat="45.0065" lon="5.29867">
        <ele>386.2</ele>
      </trkpt>
      <trkpt lat="45.00699" lon="5.29965">
        <ele>388.9</ele>
      </trkpt>
      <trkpt lat="45.00727" lon="5.30049">
        <ele>389.4</ele>
      </trkpt>
      <trkpt lat="45.00743" lon="5.30097">
        <ele>384.6</ele>
      </trkpt>
      <trkpt lat="45.00761" lon="5.30092">
        <ele>377.9</ele>
      </trkpt>
      <trkpt lat="45.00762" lon="5.30073">
        <ele>376.5</ele>
      </trkpt>
      <trkpt lat="45.00784" lon="5.30071">
        <ele>370.2</ele>
      </trkpt>
      <trkpt lat="45.0085" lon="5.29989">
        <ele>346.4</ele>
      </trkpt>
      <trkpt lat="45.00915" lon="5.29995">
        <ele>337.6</ele>
      </trkpt>
      <trkpt lat="45.00977" lon="5.29945">
        <ele>325</ele>
      </trkpt>
      <trkpt lat="45.01005" lon="5.29991">
        <ele>326.5</ele>
      </trkpt>
      <trkpt lat="45.00967" lon="5.30062">
        <ele>338.8</ele>
      </trkpt>
      <trkpt lat="45.01085" lon="5.30192">
        <ele>341.1</ele>
      </trkpt>
      <trkpt lat="45.01127" lon="5.30222">
        <ele>340.5</ele>
      </trkpt>
      <trkpt lat="45.01169" lon="5.30329">
        <ele>356.4</ele>
      </trkpt>
      <trkpt lat="45.01221" lon="5.30411">
        <ele>361.6</ele>
      </trkpt>
      <trkpt lat="45.01259" lon="5.30429">
        <ele>354</ele>
      </trkpt>
      <trkpt lat="45.01271" lon="5.30458">
        <ele>358.2</ele>
      </trkpt>
      <trkpt lat="45.01287" lon="5.30469">
        <ele>357.1</ele>
      </trkpt>
      <trkpt lat="45.01285" lon="5.30459">
        <ele>355.3</ele>
      </trkpt>
      <trkpt lat="45.0133" lon="5.30376">
        <ele>328.8</ele>
      </trkpt>
      <trkpt lat="45.01388" lon="5.3022">
        <ele>309.1</ele>
      </trkpt>
      <trkpt lat="45.01516" lon="5.30154">
        <ele>297.3</ele>
      </trkpt>
      <trkpt lat="45.01617" lon="5.30137">
        <ele>289</ele>
      </trkpt>
      <trkpt lat="45.01666" lon="5.3">
        <ele>286</ele>
      </trkpt>
      <trkpt lat="45.01701" lon="5.29961">
        <ele>285.9</ele>
      </trkpt>
      <trkpt lat="45.01721" lon="5.29886">
        <ele>285.2</ele>
      </trkpt>
      <trkpt lat="45.01746" lon="5.29611">
        <ele>271.8</ele>
      </trkpt>
    </trkseg>
  </trk>
  <trk>
    <name><![CDATA[grande-traversee-du-vercors.gpx 001]]></name>
    <trkseg>
      <trkpt lat="45.01764" lon="5.29469">
        <ele>277</ele>
      </trkpt>
      <trkpt lat="45.01756" lon="5.29623">
        <ele>271.5</ele>
      </trkpt>
      <trkpt lat="45.01683" lon="5.2997">
        <ele>286.1</ele>
      </trkpt>
      <trkpt lat="45.01681" lon="5.30023">
        <ele>285.5</ele>
      </trkpt>
      <trkpt lat="45.0179" lon="5.30061">
        <ele>283.2</ele>
      </trkpt>
      <trkpt lat="45.0181" lon="5.30131">
        <ele>280.6</ele>
      </trkpt>
      <trkpt lat="45.01887" lon="5.30247">
        <ele>279.5</ele>
      </trkpt>
      <trkpt lat="45.01968" lon="5.30315">
        <ele>281.3</ele>
      </trkpt>
      <trkpt lat="45.02059" lon="5.30421">
        <ele>286</ele>
      </trkpt>
      <trkpt lat="45.02171" lon="5.30459">
        <ele>289.4</ele>
      </trkpt>
      <trkpt lat="45.02265" lon="5.30612">
        <ele>287.8</ele>
      </trkpt>
      <trkpt lat="45.02271" lon="5.3082">
        <ele>289.8</ele>
      </trkpt>
      <trkpt lat="45.02249" lon="5.30941">
        <ele>276.1</ele>
      </trkpt>
      <trkpt lat="45.02226" lon="5.30961">
        <ele>279.2</ele>
      </trkpt>
      <trkpt lat="45.02267" lon="5.30985">
        <ele>268.7</ele>
      </trkpt>
      <trkpt lat="45.02287" lon="5.3106">
        <ele>265.3</ele>
      </trkpt>
      <trkpt lat="45.0228" lon="5.31182">
        <ele>266.1</ele>
      </trkpt>
      <trkpt lat="45.02275" lon="5.31384">
        <ele>268.4</ele>
      </trkpt>
      <trkpt lat="45.0228" lon="5.3148">
        <ele>266.6</ele>
      </trkpt>
      <trkpt lat="45.02143" lon="5.31637">
        <ele>272.1</ele>
      </trkpt>
      <trkpt lat="45.02015" lon="5.31774">
        <ele>274.5</ele>
      </trkpt>
      <trkpt lat="45.01955" lon="5.3192">
        <ele>277.3</ele>
      </trkpt>
      <trkpt lat="45.01935" lon="5.31972">
        <ele>276.8</ele>
      </trkpt>
      <trkpt lat="45.01921" lon="5.32046">
        <ele>274.3</ele>
      </trkpt>
      <trkpt lat="45.01856" lon="5.32233">
        <ele>276.3</ele>
      </trkpt>
      <trkpt lat="45.01817" lon="5.32284">
        <ele>279.6</ele>
      </trkpt>
      <trkpt lat="45.01811" lon="5.32364">
        <ele>275.5</ele>
      </trkpt>
      <trkpt lat="45.01843" lon="5.3244">
        <ele>267.9</ele>
      </trkpt>
      <trkpt lat="45.0189" lon="5.3249">
        <ele>272.4</ele>
      </trkpt>
      <trkpt lat="45.01898" lon="5.32503">
        <ele>274.9</ele>
      </trkpt>
      <trkpt lat="45.01908" lon="5.32475">
        <ele>272.6</ele>
      </trkpt>
      <trkpt lat="45.02003" lon="5.32502">
        <ele>287.6</ele>
      </trkpt>
      <trkpt lat="45.02041" lon="5.32493">
        <ele>287.5</ele>
      </trkpt>
      <trkpt lat="45.021" lon="5.32528">
        <ele>298.6</ele>
      </trkpt>
      <trkpt lat="45.02157" lon="5.32515">
        <ele>297.8</ele>
      </trkpt>
      <trkpt lat="45.02263" lon="5.3251">
        <ele>306.5</ele>
      </trkpt>
      <trkpt lat="45.02358" lon="5.32478">
        <ele>310.5</ele>
      </trkpt>
      <trkpt lat="45.02526" lon="5.32392">
        <ele>313.1</ele>
      </trkpt>
      <trkpt lat="45.02602" lon="5.32523">
        <ele>316.7</ele>
      </trkpt>
      <trkpt lat="45.02772" lon="5.32671">
        <ele>316</ele>
      </trkpt>
      <trkpt lat="45.02813" lon="5.32673">
        <ele>314</ele>
      </trkpt>
      <trkpt lat="45.02888" lon="5.32688">
        <ele>311.7</ele>
      </trkpt>
      <trkpt lat="45.02987" lon="5.32932">
        <ele>309.3</ele>
      </trkpt>
      <trkpt lat="45.03098" lon="5.33167">
        <ele>307.1</ele>
      </trkpt>
      <trkpt lat="45.03198" lon="5.33215">
        <ele>304</ele>
      </trkpt>
      <trkpt lat="45.03424" lon="5.33222">
        <ele>297.8</ele>
      </trkpt>
      <trkpt lat="45.03687" lon="5.33284">
        <ele>292.3</ele>
      </trkpt>
      <trkpt lat="45.03832" lon="5.33467">
        <ele>290.6</ele>
      </trkpt>
      <trkpt lat="45.0394" lon="5.33675">
        <ele>288.4</ele>
      </trkpt>
      <trkpt lat="45.0419" lon="5.33757">
        <ele>290.2</ele>
      </trkpt>
      <trkpt lat="45.04297" lon="5.33838">
        <ele>291.6</ele>
      </trkpt>
      <trkpt lat="45.04484" lon="5.33901">
        <ele>294.5</ele>
      </trkpt>
      <trkpt lat="45.04764" lon="5.34068">
        <ele>296.2</ele>
      </trkpt>
      <trkpt lat="45.04836" lon="5.34086">
        <ele>289.6</ele>
      </trkpt>
      <trkpt lat="45.04909" lon="5.33993">
        <ele>286.5</ele>
      </trkpt>
      <trkpt lat="45.04981" lon="5.33991">
        <ele>279.5</ele>
      </trkpt>
      <trkpt lat="45.05058" lon="5.34094">
        <ele>273.8</ele>
      </trkpt>
      <trkpt lat="45.05135" lon="5.34208">
        <ele>269.9</ele>
      </trkpt>
      <trkpt lat="45.05192" lon="5.3427">
        <ele>262</ele>
      </trkpt>
      <trkpt lat="45.0525" lon="5.343">
        <ele>257</ele>
      </trkpt>
      <trkpt lat="45.05345" lon="5.34245">
        <ele>252.1</ele>
      </trkpt>
      <trkpt lat="45.05413" lon="5.34239">
        <ele>248.6</ele>
      </trkpt>
      <trkpt lat="45.05491" lon="5.34247">
        <ele>242.1</ele>
      </trkpt>
      <trkpt lat="45.05602" lon="5.3421">
        <ele>233.2</ele>
      </trkpt>
      <trkpt lat="45.05662" lon="5.3414">
        <ele>232.4</ele>
      </trkpt>
      <trkpt lat="45.05712" lon="5.3405">
        <ele>244.8</ele>
      </trkpt>
      <trkpt lat="45.0574" lon="5.34045">
        <ele>241.5</ele>
      </trkpt>
      <trkpt lat="45.05729" lon="5.34091">
        <ele>229.9</ele>
      </trkpt>
      <trkpt lat="45.05696" lon="5.34115">
        <ele>231.4</ele>
      </trkpt>
      <trkpt lat="45.05665" lon="5.34213">
        <ele>218.7</ele>
      </trkpt>
      <trkpt lat="45.05619" lon="5.34257">
        <ele>222.1</ele>
      </trkpt>
      <trkpt lat="45.05577" lon="5.34258">
        <ele>229.7</ele>
      </trkpt>
      <trkpt lat="45.05573" lon="5.34321">
        <ele>221.2</ele>
      </trkpt>
      <trkpt lat="45.05663" lon="5.34385">
        <ele>227.8</ele>
      </trkpt>
      <trkpt lat="45.05719" lon="5.34388">
        <ele>230.5</ele>
      </trkpt>
      <trkpt lat="45.05778" lon="5.34361">
        <ele>218.2</ele>
      </trkpt>
      <trkpt lat="45.05844" lon="5.34375">
        <ele>213.7</ele>
      </trkpt>
      <trkpt lat="45.0593" lon="5.34399">
        <ele>211.6</ele>
      </trkpt>
      <trkpt lat="45.05979" lon="5.34405">
        <ele>207.1</ele>
      </trkpt>
      <trkpt lat="45.05998" lon="5.34466">
        <ele>213.8</ele>
      </trkpt>
      <trkpt lat="45.0601" lon="5.34718">
        <ele>260.7</ele>
      </trkpt>
      <trkpt lat="45.06036" lon="5.3472">
        <ele>257.6</ele>
      </trkpt>
      <trkpt lat="45.06098" lon="5.34591">
        <ele>227.8</ele>
      </trkpt>
      <trkpt lat="45.061" lon="5.34518">
        <ele>216.8</ele>
      </trkpt>
      <trkpt lat="45.06124" lon="5.344">
        <ele>212.7</ele>
      </trkpt>
      <trkpt lat="45.06178" lon="5.34327">
        <ele>213.6</ele>
      </trkpt>
      <trkpt lat="45.06233" lon="5.34121">
        <ele>209.3</ele>
      </trkpt>
      <trkpt lat="45.06269" lon="5.34014">
        <ele>205.3</ele>
      </trkpt>
      <trkpt lat="45.06339" lon="5.33859">
        <ele>205.8</ele>
      </trkpt>
      <trkpt lat="45.0634" lon="5.33847">
        <ele>205.2</ele>
      </trkpt>
      <trkpt lat="45.0639" lon="5.33764">
        <ele>203.1</ele>
      </trkpt>
      <trkpt lat="45.06418" lon="5.33718">
        <ele>202</ele>
      </trkpt>
      <trkpt lat="45.06435" lon="5.33652">
        <ele>202.2</ele>
      </trkpt>
      <trkpt lat="45.06465" lon="5.33577">
        <ele>214.7</ele>
      </trkpt>
      <trkpt lat="45.06465" lon="5.33542">
        <ele>230.9</ele>
      </trkpt>
      <trkpt lat="45.06402" lon="5.33482">
        <ele>229.9</ele>
      </trkpt>
      <trkpt lat="45.0634" lon="5.3345">
        <ele>224.1</ele>
      </trkpt>
      <trkpt lat="45.06264" lon="5.33424">
        <ele>215.3</ele>
      </trkpt>
      <trkpt lat="45.06192" lon="5.33267">
        <ele>223.7</ele>
      </trkpt>
      <trkpt lat="45.06156" lon="5.33161">
        <ele>224.3</ele>
      </trkpt>
      <trkpt lat="45.0615" lon="5.33068">
        <ele>230.8</ele>
      </trkpt>
      <trkpt lat="45.06127" lon="5.32984">
        <ele>230.3</ele>
      </trkpt>
      <trkpt lat="45.06173" lon="5.32774">
        <ele>244</ele>
      </trkpt>
      <trkpt lat="45.06217" lon="5.32748">
        <ele>250</ele>
      </trkpt>
      <trkpt lat="45.06354" lon="5.32654">
        <ele>253.2</ele>
      </trkpt>
      <trkpt lat="45.06364" lon="5.3281">
        <ele>253.6</ele>
      </trkpt>
      <trkpt lat="45.06379" lon="5.32931">
        <ele>253.6</ele>
      </trkpt>
      <trkpt lat="45.06419" lon="5.33025">
        <ele>258.3</ele>
      </trkpt>
      <trkpt lat="45.06467" lon="5.33063">
        <ele>268</ele>
      </trkpt>
      <trkpt lat="45.06494" lon="5.33137">
        <ele>276.9</ele>
      </trkpt>
      <trkpt lat="45.06529" lon="5.33184">
        <ele>279.6</ele>
      </trkpt>
      <trkpt lat="45.06558" lon="5.33287">
        <ele>284.9</ele>
      </trkpt>
      <trkpt lat="45.06625" lon="5.33395">
        <ele>291.8</ele>
      </trkpt>
      <trkpt lat="45.06669" lon="5.3335">
        <ele>292.7</ele>
      </trkpt>
      <trkpt lat="45.06695" lon="5.33358">
        <ele>295.1</ele>
      </trkpt>
      <trkpt lat="45.06718" lon="5.33353">
        <ele>296.3</ele>
      </trkpt>
      <trkpt lat="45.06765" lon="5.33355">
        <ele>299.1</ele>
      </trkpt>
      <trkpt lat="45.06838" lon="5.33327">
        <ele>295.7</ele>
      </trkpt>
      <trkpt lat="45.06924" lon="5.333">
        <ele>297.7</ele>
      </trkpt>
      <trkpt lat="45.0701" lon="5.33292">
        <ele>294.8</ele>
      </trkpt>
      <trkpt lat="45.07069" lon="5.3327">
        <ele>289.6</ele>
      </trkpt>
      <trkpt lat="45.07119" lon="5.33254">
        <ele>286.5</ele>
      </trkpt>
      <trkpt lat="45.07163" lon="5.33228">
        <ele>285.9</ele>
      </trkpt>
      <trkpt lat="45.0721" lon="5.33224">
        <ele>292.5</ele>
      </trkpt>
      <trkpt lat="45.07267" lon="5.33281">
        <ele>298.5</ele>
      </trkpt>
      <trkpt lat="45.0731" lon="5.3327">
        <ele>303</ele>
      </trkpt>
      <trkpt lat="45.07381" lon="5.33322">
        <ele>299.5</ele>
      </trkpt>
      <trkpt lat="45.0745" lon="5.33345">
        <ele>299.7</ele>
      </trkpt>
      <trkpt lat="45.07488" lon="5.3335">
        <ele>299.6</ele>
      </trkpt>
      <trkpt lat="45.0753" lon="5.33368">
        <ele>301.8</ele>
      </trkpt>
      <trkpt lat="45.07561" lon="5.33392">
        <ele>304.9</ele>
      </trkpt>
      <trkpt lat="45.07578" lon="5.33428">
        <ele>309.8</ele>
      </trkpt>
      <trkpt lat="45.0759" lon="5.33473">
        <ele>316.1</ele>
      </trkpt>
      <trkpt lat="45.07601" lon="5.33486">
        <ele>318.1</ele>
      </trkpt>
      <trkpt lat="45.07629" lon="5.33459">
        <ele>313.8</ele>
      </trkpt>
      <trkpt lat="45.07657" lon="5.33413">
        <ele>305.6</ele>
      </trkpt>
      <trkpt lat="45.07669" lon="5.33401">
        <ele>303</ele>
      </trkpt>
      <trkpt lat="45.0769" lon="5.33446">
        <ele>309.3</ele>
      </trkpt>
      <trkpt lat="45.07698" lon="5.33482">
        <ele>315.3</ele>
      </trkpt>
      <trkpt lat="45.07742" lon="5.3351">
        <ele>318.3</ele>
      </trkpt>
      <trkpt lat="45.07821" lon="5.33587">
        <ele>324.1</ele>
      </trkpt>
      <trkpt lat="45.07874" lon="5.33644">
        <ele>323.5</ele>
      </trkpt>
      <trkpt lat="45.07892" lon="5.33718">
        <ele>326.7</ele>
      </trkpt>
      <trkpt lat="45.07909" lon="5.33757">
        <ele>327.5</ele>
      </trkpt>
      <trkpt lat="45.07955" lon="5.33651">
        <ele>322.9</ele>
      </trkpt>
      <trkpt lat="45.07982" lon="5.33634">
        <ele>324.1</ele>
      </trkpt>
      <trkpt lat="45.08023" lon="5.33636">
        <ele>325.5</ele>
      </trkpt>
      <trkpt lat="45.08056" lon="5.33638">
        <ele>324.5</ele>
      </trkpt>
      <trkpt lat="45.08098" lon="5.33681">
        <ele>327.5</ele>
      </trkpt>
      <trkpt lat="45.0814" lon="5.33718">
        <ele>331.1</ele>
      </trkpt>
      <trkpt lat="45.08222" lon="5.33758">
        <ele>335.7</ele>
      </trkpt>
      <trkpt lat="45.08294" lon="5.33813">
        <ele>343.5</ele>
      </trkpt>
      <trkpt lat="45.0837" lon="5.33836">
        <ele>347.8</ele>
      </trkpt>
      <trkpt lat="45.08384" lon="5.33827">
        <ele>348.6</ele>
      </trkpt>
      <trkpt lat="45.08395" lon="5.33777">
        <ele>349</ele>
      </trkpt>
      <trkpt lat="45.08425" lon="5.33835">
        <ele>352.7</ele>
      </trkpt>
      <trkpt lat="45.08464" lon="5.33888">
        <ele>360.6</ele>
      </trkpt>
      <trkpt lat="45.085" lon="5.33935">
        <ele>366.5</ele>
      </trkpt>
      <trkpt lat="45.08519" lon="5.33993">
        <ele>369.3</ele>
      </trkpt>
      <trkpt lat="45.08516" lon="5.34018">
        <ele>371</ele>
      </trkpt>
      <trkpt lat="45.085" lon="5.3404">
        <ele>372.3</ele>
      </trkpt>
      <trkpt lat="45.08499" lon="5.34062">
        <ele>374.6</ele>
      </trkpt>
      <trkpt lat="45.08513" lon="5.34059">
        <ele>375</ele>
      </trkpt>
      <trkpt lat="45.08534" lon="5.34035">
        <ele>373.7</ele>
      </trkpt>
      <trkpt lat="45.08566" lon="5.33999">
        <ele>372.8</ele>
      </trkpt>
      <trkpt lat="45.08587" lon="5.33974">
        <ele>374.3</ele>
      </trkpt>
      <trkpt lat="45.08586" lon="5.34025">
        <ele>375.5</ele>
      </trkpt>
      <trkpt lat="45.0858" lon="5.34149">
        <ele>387.8</ele>
      </trkpt>
      <trkpt lat="45.08565" lon="5.34227">
        <ele>398.2</ele>
      </trkpt>
      <trkpt lat="45.08536" lon="5.34283">
        <ele>409.1</ele>
      </trkpt>
      <trkpt lat="45.08529" lon="5.34365">
        <ele>426.9</ele>
      </trkpt>
      <trkpt lat="45.08519" lon="5.34416">
        <ele>438.6</ele>
      </trkpt>
      <trkpt lat="45.08493" lon="5.34455">
        <ele>449.9</ele>
      </trkpt>
      <trkpt lat="45.08543" lon="5.34461">
        <ele>447.9</ele>
      </trkpt>
      <trkpt lat="45.08581" lon="5.34463">
        <ele>445.3</ele>
      </trkpt>
      <trkpt lat="45.08643" lon="5.34502">
        <ele>447.9</ele>
      </trkpt>
      <trkpt lat="45.08703" lon="5.34508">
        <ele>446.8</ele>
      </trkpt>
      <trkpt lat="45.08796" lon="5.34491">
        <ele>438.7</ele>
      </trkpt>
      <trkpt lat="45.08882" lon="5.3447">
        <ele>432.6</ele>
      </trkpt>
      <trkpt lat="45.08961" lon="5.34481">
        <ele>439.3</ele>
      </trkpt>
      <trkpt lat="45.09015" lon="5.34461">
        <ele>440.1</ele>
      </trkpt>
      <trkpt lat="45.0905" lon="5.34435">
        <ele>437</ele>
      </trkpt>
      <trkpt lat="45.09134" lon="5.34401">
        <ele>427.3</ele>
      </trkpt>
      <trkpt lat="45.09222" lon="5.34403">
        <ele>418.4</ele>
      </trkpt>
      <trkpt lat="45.09273" lon="5.34399">
        <ele>415.4</ele>
      </trkpt>
      <trkpt lat="45.09315" lon="5.34357">
        <ele>411.8</ele>
      </trkpt>
      <trkpt lat="45.09356" lon="5.34327">
        <ele>406.2</ele>
      </trkpt>
      <trkpt lat="45.09379" lon="5.34306">
        <ele>401.3</ele>
      </trkpt>
      <trkpt lat="45.09367" lon="5.34366">
        <ele>409.5</ele>
      </trkpt>
      <trkpt lat="45.09381" lon="5.34402">
        <ele>412.8</ele>
      </trkpt>
      <trkpt lat="45.09453" lon="5.34425">
        <ele>412.5</ele>
      </trkpt>
      <trkpt lat="45.09484" lon="5.34433">
        <ele>412.7</ele>
      </trkpt>
      <trkpt lat="45.09539" lon="5.3449">
        <ele>416.6</ele>
      </trkpt>
      <trkpt lat="45.09568" lon="5.34504">
        <ele>415.9</ele>
      </trkpt>
      <trkpt lat="45.09572" lon="5.34574">
        <ele>425.8</ele>
      </trkpt>
      <trkpt lat="45.09633" lon="5.34647">
        <ele>429.9</ele>
      </trkpt>
      <trkpt lat="45.09671" lon="5.34595">
        <ele>425</ele>
      </trkpt>
      <trkpt lat="45.09735" lon="5.3457">
        <ele>428.1</ele>
      </trkpt>
      <trkpt lat="45.09757" lon="5.34565">
        <ele>428.5</ele>
      </trkpt>
      <trkpt lat="45.09786" lon="5.34598">
        <ele>428.5</ele>
      </trkpt>
      <trkpt lat="45.09828" lon="5.34623">
        <ele>426.8</ele>
      </trkpt>
      <trkpt lat="45.09851" lon="5.34669">
        <ele>426.9</ele>
      </trkpt>
      <trkpt lat="45.09872" lon="5.34717">
        <ele>429.1</ele>
      </trkpt>
      <trkpt lat="45.09909" lon="5.34758">
        <ele>429.9</ele>
      </trkpt>
      <trkpt lat="45.09961" lon="5.34782">
        <ele>427.5</ele>
      </trkpt>
      <trkpt lat="45.10003" lon="5.34807">
        <ele>426</ele>
      </trkpt>
      <trkpt lat="45.10069" lon="5.34862">
        <ele>427.6</ele>
      </trkpt>
      <trkpt lat="45.10092" lon="5.34904">
        <ele>430.3</ele>
      </trkpt>
      <trkpt lat="45.10128" lon="5.34916">
        <ele>429.7</ele>
      </trkpt>
      <trkpt lat="45.1015" lon="5.3492">
        <ele>429.1</ele>
      </trkpt>
      <trkpt lat="45.10174" lon="5.34956">
        <ele>429.8</ele>
      </trkpt>
      <trkpt lat="45.10191" lon="5.34989">
        <ele>430.1</ele>
      </trkpt>
      <trkpt lat="45.1021" lon="5.35044">
        <ele>433</ele>
      </trkpt>
      <trkpt lat="45.10255" lon="5.35116">
        <ele>435.4</ele>
      </trkpt>
      <trkpt lat="45.10297" lon="5.3516">
        <ele>437.7</ele>
      </trkpt>
      <trkpt lat="45.10345" lon="5.35204">
        <ele>440.9</ele>
      </trkpt>
      <trkpt lat="45.10385" lon="5.35231">
        <ele>445.6</ele>
      </trkpt>
      <trkpt lat="45.10425" lon="5.3524">
        <ele>448.3</ele>
      </trkpt>
      <trkpt lat="45.10448" lon="5.35238">
        <ele>451.1</ele>
      </trkpt>
      <trkpt lat="45.10473" lon="5.35211">
        <ele>452.5</ele>
      </trkpt>
      <trkpt lat="45.10515" lon="5.35159">
        <ele>453</ele>
      </trkpt>
      <trkpt lat="45.10561" lon="5.3513">
        <ele>452.9</ele>
      </trkpt>
      <trkpt lat="45.10586" lon="5.35131">
        <ele>453.8</ele>
      </trkpt>
      <trkpt lat="45.106" lon="5.35179">
        <ele>456.8</ele>
      </trkpt>
      <trkpt lat="45.10604" lon="5.35215">
        <ele>460.3</ele>
      </trkpt>
      <trkpt lat="45.10594" lon="5.3524">
        <ele>462.8</ele>
      </trkpt>
      <trkpt lat="45.10575" lon="5.35267">
        <ele>464.9</ele>
      </trkpt>
      <trkpt lat="45.10551" lon="5.35323">
        <ele>467.9</ele>
      </trkpt>
      <trkpt lat="45.10565" lon="5.35391">
        <ele>474.3</ele>
      </trkpt>
      <trkpt lat="45.10588" lon="5.35446">
        <ele>478</ele>
      </trkpt>
      <trkpt lat="45.10596" lon="5.35487">
        <ele>478.8</ele>
      </trkpt>
      <trkpt lat="45.10604" lon="5.35539">
        <ele>475.9</ele>
      </trkpt>
      <trkpt lat="45.10603" lon="5.35538">
        <ele>476.1</ele>
      </trkpt>
      <trkpt lat="45.10573" lon="5.35584">
        <ele>481.8</ele>
      </trkpt>
      <trkpt lat="45.10574" lon="5.35657">
        <ele>482</ele>
      </trkpt>
      <trkpt lat="45.10557" lon="5.35713">
        <ele>494.6</ele>
      </trkpt>
      <trkpt lat="45.1061" lon="5.35781">
        <ele>476</ele>
      </trkpt>
      <trkpt lat="45.1064" lon="5.35829">
        <ele>472.4</ele>
      </trkpt>
      <trkpt lat="45.10633" lon="5.35886">
        <ele>489.1</ele>
      </trkpt>
      <trkpt lat="45.10656" lon="5.35877">
        <ele>477.5</ele>
      </trkpt>
      <trkpt lat="45.10694" lon="5.35828">
        <ele>467</ele>
      </trkpt>
      <trkpt lat="45.10703" lon="5.358">
        <ele>464.3</ele>
      </trkpt>
      <trkpt lat="45.10723" lon="5.35745">
        <ele>457.8</ele>
      </trkpt>
      <trkpt lat="45.10815" lon="5.35704">
        <ele>462</ele>
      </trkpt>
      <trkpt lat="45.10868" lon="5.35696">
        <ele>464.1</ele>
      </trkpt>
      <trkpt lat="45.10868" lon="5.35704">
        <ele>467.3</ele>
      </trkpt>
      <trkpt lat="45.10869" lon="5.35705">
        <ele>468.1</ele>
      </trkpt>
      <trkpt lat="45.10837" lon="5.35748">
        <ele>483.6</ele>
      </trkpt>
      <trkpt lat="45.10794" lon="5.35768">
        <ele>478.5</ele>
      </trkpt>
      <trkpt lat="45.10791" lon="5.35794">
        <ele>484.4</ele>
      </trkpt>
      <trkpt lat="45.10825" lon="5.3577">
        <ele>488.1</ele>
      </trkpt>
      <trkpt lat="45.10856" lon="5.35772">
        <ele>493.2</ele>
      </trkpt>
      <trkpt lat="45.10817" lon="5.35801">
        <ele>495.4</ele>
      </trkpt>
      <trkpt lat="45.10796" lon="5.35826">
        <ele>495.2</ele>
      </trkpt>
      <trkpt lat="45.10778" lon="5.3591">
        <ele>510</ele>
      </trkpt>
      <trkpt lat="45.10766" lon="5.35948">
        <ele>521.2</ele>
      </trkpt>
      <trkpt lat="45.10736" lon="5.35959">
        <ele>519.1</ele>
      </trkpt>
      <trkpt lat="45.107" lon="5.35976">
        <ele>518.2</ele>
      </trkpt>
      <trkpt lat="45.10677" lon="5.35985">
        <ele>516.5</ele>
      </trkpt>
      <trkpt lat="45.1067" lon="5.36006">
        <ele>522.5</ele>
      </trkpt>
      <trkpt lat="45.10676" lon="5.36048">
        <ele>528.8</ele>
      </trkpt>
      <trkpt lat="45.10698" lon="5.36062">
        <ele>539.1</ele>
      </trkpt>
      <trkpt lat="45.1071" lon="5.36091">
        <ele>548.2</ele>
      </trkpt>
      <trkpt lat="45.10725" lon="5.3614">
        <ele>553.8</ele>
      </trkpt>
      <trkpt lat="45.10732" lon="5.36219">
        <ele>557.2</ele>
      </trkpt>
      <trkpt lat="45.10732" lon="5.36286">
        <ele>563.1</ele>
      </trkpt>
      <trkpt lat="45.10729" lon="5.36318">
        <ele>566.4</ele>
      </trkpt>
      <trkpt lat="45.1075" lon="5.36297">
        <ele>572.6</ele>
      </trkpt>
      <trkpt lat="45.10761" lon="5.36234">
        <ele>570.8</ele>
      </trkpt>
      <trkpt lat="45.10756" lon="5.36154">
        <ele>568.3</ele>
      </trkpt>
      <trkpt lat="45.10749" lon="5.3609">
        <ele>565.3</ele>
      </trkpt>
      <trkpt lat="45.10776" lon="5.36155">
        <ele>579.1</ele>
      </trkpt>
      <trkpt lat="45.10791" lon="5.36204">
        <ele>586.5</ele>
      </trkpt>
      <trkpt lat="45.10804" lon="5.36281">
        <ele>589</ele>
      </trkpt>
      <trkpt lat="45.10821" lon="5.36345">
        <ele>591.1</ele>
      </trkpt>
      <trkpt lat="45.10803" lon="5.36398">
        <ele>597.5</ele>
      </trkpt>
      <trkpt lat="45.10786" lon="5.36445">
        <ele>607.9</ele>
      </trkpt>
      <trkpt lat="45.10774" lon="5.36479">
        <ele>618</ele>
      </trkpt>
      <trkpt lat="45.10726" lon="5.36524">
        <ele>629.5</ele>
      </trkpt>
      <trkpt lat="45.10705" lon="5.36618">
        <ele>649.2</ele>
      </trkpt>
      <trkpt lat="45.10679" lon="5.36674">
        <ele>661.7</ele>
      </trkpt>
      <trkpt lat="45.10648" lon="5.3673">
        <ele>668.4</ele>
      </trkpt>
      <trkpt lat="45.10626" lon="5.36786">
        <ele>669.9</ele>
      </trkpt>
      <trkpt lat="45.1062" lon="5.36849">
        <ele>675</ele>
      </trkpt>
      <trkpt lat="45.10612" lon="5.36884">
        <ele>679.7</ele>
      </trkpt>
      <trkpt lat="45.10609" lon="5.36928">
        <ele>685.9</ele>
      </trkpt>
      <trkpt lat="45.10578" lon="5.36971">
        <ele>700.3</ele>
      </trkpt>
      <trkpt lat="45.10557" lon="5.37011">
        <ele>709.3</ele>
      </trkpt>
      <trkpt lat="45.10558" lon="5.37059">
        <ele>714.5</ele>
      </trkpt>
      <trkpt lat="45.10528" lon="5.37095">
        <ele>727.5</ele>
      </trkpt>
      <trkpt lat="45.10505" lon="5.37105">
        <ele>736</ele>
      </trkpt>
      <trkpt lat="45.10508" lon="5.37145">
        <ele>741.2</ele>
      </trkpt>
      <trkpt lat="45.10507" lon="5.37186">
        <ele>746.6</ele>
      </trkpt>
      <trkpt lat="45.10507" lon="5.37251">
        <ele>751.8</ele>
      </trkpt>
      <trkpt lat="45.10506" lon="5.37303">
        <ele>756.4</ele>
      </trkpt>
      <trkpt lat="45.105" lon="5.3736">
        <ele>764.2</ele>
      </trkpt>
      <trkpt lat="45.105" lon="5.37383">
        <ele>767</ele>
      </trkpt>
      <trkpt lat="45.10487" lon="5.37415">
        <ele>773.4</ele>
      </trkpt>
      <trkpt lat="45.10483" lon="5.37442">
        <ele>776.3</ele>
      </trkpt>
      <trkpt lat="45.1048" lon="5.37482">
        <ele>780</ele>
      </trkpt>
      <trkpt lat="45.10479" lon="5.37518">
        <ele>783.1</ele>
      </trkpt>
      <trkpt lat="45.10463" lon="5.37501">
        <ele>784.4</ele>
      </trkpt>
      <trkpt lat="45.10409" lon="5.37433">
        <ele>790.4</ele>
      </trkpt>
      <trkpt lat="45.10379" lon="5.37401">
        <ele>795</ele>
      </trkpt>
      <trkpt lat="45.10368" lon="5.3738">
        <ele>796.2</ele>
      </trkpt>
      <trkpt lat="45.10358" lon="5.37324">
        <ele>795.1</ele>
      </trkpt>
      <trkpt lat="45.10355" lon="5.37325">
        <ele>795.7</ele>
      </trkpt>
      <trkpt lat="45.10306" lon="5.37335">
        <ele>801.5</ele>
      </trkpt>
      <trkpt lat="45.10241" lon="5.37394">
        <ele>815</ele>
      </trkpt>
      <trkpt lat="45.10174" lon="5.37414">
        <ele>823.2</ele>
      </trkpt>
      <trkpt lat="45.10141" lon="5.37418">
        <ele>829.2</ele>
      </trkpt>
      <trkpt lat="45.10128" lon="5.37371">
        <ele>825.5</ele>
      </trkpt>
      <trkpt lat="45.101" lon="5.37316">
        <ele>824.3</ele>
      </trkpt>
      <trkpt lat="45.10078" lon="5.37293">
        <ele>825.5</ele>
      </trkpt>
      <trkpt lat="45.10029" lon="5.37293">
        <ele>833</ele>
      </trkpt>
      <trkpt lat="45.09993" lon="5.37329">
        <ele>843.7</ele>
      </trkpt>
      <trkpt lat="45.09967" lon="5.37303">
        <ele>845.1</ele>
      </trkpt>
      <trkpt lat="45.09934" lon="5.37253">
        <ele>843.3</ele>
      </trkpt>
      <trkpt lat="45.09813" lon="5.37317">
        <ele>883.6</ele>
      </trkpt>
      <trkpt lat="45.09789" lon="5.37286">
        <ele>886.1</ele>
      </trkpt>
      <trkpt lat="45.09803" lon="5.37235">
        <ele>875.6</ele>
      </trkpt>
      <trkpt lat="45.098" lon="5.37206">
        <ele>876.3</ele>
      </trkpt>
      <trkpt lat="45.098" lon="5.37168">
        <ele>876.2</ele>
      </trkpt>
      <trkpt lat="45.09802" lon="5.37138">
        <ele>874.2</ele>
      </trkpt>
      <trkpt lat="45.09802" lon="5.37074">
        <ele>871.5</ele>
      </trkpt>
      <trkpt lat="45.09782" lon="5.37043">
        <ele>875.1</ele>
      </trkpt>
      <trkpt lat="45.09764" lon="5.37021">
        <ele>878.8</ele>
      </trkpt>
      <trkpt lat="45.0972" lon="5.36943">
        <ele>876.6</ele>
      </trkpt>
      <trkpt lat="45.0969" lon="5.36941">
        <ele>884.9</ele>
      </trkpt>
      <trkpt lat="45.09685" lon="5.36954">
        <ele>889.5</ele>
      </trkpt>
      <trkpt lat="45.09713" lon="5.36994">
        <ele>891</ele>
      </trkpt>
      <trkpt lat="45.09738" lon="5.37065">
        <ele>894</ele>
      </trkpt>
      <trkpt lat="45.09736" lon="5.37113">
        <ele>899.1</ele>
      </trkpt>
      <trkpt lat="45.09706" lon="5.37187">
        <ele>921</ele>
      </trkpt>
      <trkpt lat="45.09688" lon="5.37264">
        <ele>931.1</ele>
      </trkpt>
      <trkpt lat="45.09696" lon="5.37404">
        <ele>941.8</ele>
      </trkpt>
      <trkpt lat="45.09705" lon="5.37472">
        <ele>953.7</ele>
      </trkpt>
      <trkpt lat="45.09823" lon="5.37487">
        <ele>936.3</ele>
      </trkpt>
      <trkpt lat="45.09836" lon="5.3752">
        <ele>943.6</ele>
      </trkpt>
      <trkpt lat="45.09882" lon="5.37587">
        <ele>949.3</ele>
      </trkpt>
      <trkpt lat="45.09925" lon="5.37608">
        <ele>940.7</ele>
      </trkpt>
      <trkpt lat="45.09921" lon="5.37601">
        <ele>940.5</ele>
      </trkpt>
      <trkpt lat="45.09937" lon="5.37644">
        <ele>942.8</ele>
      </trkpt>
      <trkpt lat="45.09961" lon="5.37723">
        <ele>937</ele>
      </trkpt>
      <trkpt lat="45.1002" lon="5.37763">
        <ele>936.8</ele>
      </trkpt>
      <trkpt lat="45.10043" lon="5.37768">
        <ele>939.4</ele>
      </trkpt>
      <trkpt lat="45.10068" lon="5.37794">
        <ele>941</ele>
      </trkpt>
      <trkpt lat="45.10095" lon="5.37856">
        <ele>942</ele>
      </trkpt>
      <trkpt lat="45.10101" lon="5.37882">
        <ele>941.8</ele>
      </trkpt>
      <trkpt lat="45.10082" lon="5.37935">
        <ele>940.3</ele>
      </trkpt>
      <trkpt lat="45.10065" lon="5.37975">
        <ele>943.9</ele>
      </trkpt>
      <trkpt lat="45.10052" lon="5.38025">
        <ele>949.6</ele>
      </trkpt>
      <trkpt lat="45.10006" lon="5.38055">
        <ele>948.1</ele>
      </trkpt>
      <trkpt lat="45.09957" lon="5.38116">
        <ele>953.7</ele>
      </trkpt>
      <trkpt lat="45.09866" lon="5.38184">
        <ele>952</ele>
      </trkpt>
      <trkpt lat="45.09836" lon="5.38211">
        <ele>950.2</ele>
      </trkpt>
      <trkpt lat="45.09786" lon="5.38294">
        <ele>950.6</ele>
      </trkpt>
      <trkpt lat="45.09717" lon="5.38344">
        <ele>948</ele>
      </trkpt>
      <trkpt lat="45.09691" lon="5.38378">
        <ele>945.6</ele>
      </trkpt>
      <trkpt lat="45.09684" lon="5.38409">
        <ele>944.9</ele>
      </trkpt>
      <trkpt lat="45.09696" lon="5.38441">
        <ele>943</ele>
      </trkpt>
      <trkpt lat="45.09725" lon="5.38452">
        <ele>943.1</ele>
      </trkpt>
      <trkpt lat="45.09748" lon="5.38444">
        <ele>944.9</ele>
      </trkpt>
      <trkpt lat="45.09765" lon="5.38474">
        <ele>943.2</ele>
      </trkpt>
      <trkpt lat="45.09771" lon="5.38493">
        <ele>942.2</ele>
      </trkpt>
      <trkpt lat="45.09777" lon="5.38522">
        <ele>940.4</ele>
      </trkpt>
      <trkpt lat="45.09813" lon="5.3854">
        <ele>944.4</ele>
      </trkpt>
      <trkpt lat="45.09857" lon="5.38561">
        <ele>947.5</ele>
      </trkpt>
      <trkpt lat="45.09878" lon="5.38556">
        <ele>948.2</ele>
      </trkpt>
      <trkpt lat="45.09914" lon="5.38558">
        <ele>949.2</ele>
      </trkpt>
      <trkpt lat="45.09975" lon="5.38539">
        <ele>950.5</ele>
      </trkpt>
      <trkpt lat="45.10083" lon="5.38526">
        <ele>954.3</ele>
      </trkpt>
      <trkpt lat="45.10169" lon="5.38524">
        <ele>958.6</ele>
      </trkpt>
      <trkpt lat="45.10254" lon="5.38532">
        <ele>960.9</ele>
      </trkpt>
      <trkpt lat="45.10323" lon="5.38558">
        <ele>962.5</ele>
      </trkpt>
      <trkpt lat="45.10361" lon="5.38583">
        <ele>964.3</ele>
      </trkpt>
      <trkpt lat="45.104" lon="5.38645">
        <ele>970.5</ele>
      </trkpt>
      <trkpt lat="45.10461" lon="5.38699">
        <ele>968.6</ele>
      </trkpt>
      <trkpt lat="45.1051" lon="5.38734">
        <ele>963.6</ele>
      </trkpt>
      <trkpt lat="45.10506" lon="5.38784">
        <ele>973.5</ele>
      </trkpt>
      <trkpt lat="45.10534" lon="5.38837">
        <ele>976.7</ele>
      </trkpt>
      <trkpt lat="45.10561" lon="5.38918">
        <ele>980.1</ele>
      </trkpt>
      <trkpt lat="45.1062" lon="5.38969">
        <ele>972</ele>
      </trkpt>
      <trkpt lat="45.10628" lon="5.39007">
        <ele>974</ele>
      </trkpt>
      <trkpt lat="45.10664" lon="5.39012">
        <ele>971.7</ele>
      </trkpt>
      <trkpt lat="45.10796" lon="5.39128">
        <ele>980.4</ele>
      </trkpt>
      <trkpt lat="45.1088" lon="5.39202">
        <ele>987.6</ele>
      </trkpt>
      <trkpt lat="45.10924" lon="5.39233">
        <ele>992.9</ele>
      </trkpt>
      <trkpt lat="45.10956" lon="5.39283">
        <ele>998.1</ele>
      </trkpt>
      <trkpt lat="45.10989" lon="5.39326">
        <ele>1001.8</ele>
      </trkpt>
      <trkpt lat="45.11042" lon="5.39364">
        <ele>1003.7</ele>
      </trkpt>
      <trkpt lat="45.1108" lon="5.39378">
        <ele>1004.7</ele>
      </trkpt>
      <trkpt lat="45.11134" lon="5.39448">
        <ele>1009.1</ele>
      </trkpt>
      <trkpt lat="45.11154" lon="5.39516">
        <ele>1007.8</ele>
      </trkpt>
      <trkpt lat="45.11175" lon="5.39587">
        <ele>1003.8</ele>
      </trkpt>
      <trkpt lat="45.11207" lon="5.39656">
        <ele>1004.3</ele>
      </trkpt>
      <trkpt lat="45.11262" lon="5.39684">
        <ele>1005.1</ele>
      </trkpt>
      <trkpt lat="45.11295" lon="5.39714">
        <ele>1006.4</ele>
      </trkpt>
      <trkpt lat="45.11327" lon="5.3978">
        <ele>1004.4</ele>
      </trkpt>
      <trkpt lat="45.11372" lon="5.39852">
        <ele>998.6</ele>
      </trkpt>
      <trkpt lat="45.1144" lon="5.39923">
        <ele>1000.8</ele>
      </trkpt>
      <trkpt lat="45.115" lon="5.39961">
        <ele>1001.9</ele>
      </trkpt>
      <trkpt lat="45.11559" lon="5.40012">
        <ele>1005.5</ele>
      </trkpt>
      <trkpt lat="45.11585" lon="5.40048">
        <ele>1008.3</ele>
      </trkpt>
      <trkpt lat="45.11627" lon="5.40092">
        <ele>1013.3</ele>
      </trkpt>
      <trkpt lat="45.11655" lon="5.40128">
        <ele>1015.7</ele>
      </trkpt>
      <trkpt lat="45.1172" lon="5.40161">
        <ele>1018.7</ele>
      </trkpt>
      <trkpt lat="45.11773" lon="5.40192">
        <ele>1021.4</ele>
      </trkpt>
      <trkpt lat="45.11805" lon="5.40235">
        <ele>1025.8</ele>
      </trkpt>
      <trkpt lat="45.11834" lon="5.40262">
        <ele>1031.8</ele>
      </trkpt>
      <trkpt lat="45.11894" lon="5.40278">
        <ele>1034.6</ele>
      </trkpt>
      <trkpt lat="45.11868" lon="5.40315">
        <ele>1040</ele>
      </trkpt>
      <trkpt lat="45.11873" lon="5.40391">
        <ele>1058.5</ele>
      </trkpt>
      <trkpt lat="45.11908" lon="5.40428">
        <ele>1072.5</ele>
      </trkpt>
      <trkpt lat="45.11952" lon="5.40475">
        <ele>1080.5</ele>
      </trkpt>
      <trkpt lat="45.11975" lon="5.40534">
        <ele>1087</ele>
      </trkpt>
      <trkpt lat="45.12012" lon="5.4058">
        <ele>1089.2</ele>
      </trkpt>
      <trkpt lat="45.12055" lon="5.40637">
        <ele>1089</ele>
      </trkpt>
      <trkpt lat="45.12124" lon="5.40688">
        <ele>1093.8</ele>
      </trkpt>
      <trkpt lat="45.12163" lon="5.40735">
        <ele>1102.2</ele>
      </trkpt>
      <trkpt lat="45.12253" lon="5.4081">
        <ele>1115.5</ele>
      </trkpt>
      <trkpt lat="45.12299" lon="5.40854">
        <ele>1121.8</ele>
      </trkpt>
      <trkpt lat="45.12304" lon="5.40902">
        <ele>1140</ele>
      </trkpt>
      <trkpt lat="45.12355" lon="5.40962">
        <ele>1156.1</ele>
      </trkpt>
      <trkpt lat="45.1238" lon="5.41014">
        <ele>1171.6</ele>
      </trkpt>
      <trkpt lat="45.12424" lon="5.41045">
        <ele>1179</ele>
      </trkpt>
      <trkpt lat="45.12482" lon="5.4108">
        <ele>1186.4</ele>
      </trkpt>
      <trkpt lat="45.1253" lon="5.4113">
        <ele>1192.3</ele>
      </trkpt>
      <trkpt lat="45.12552" lon="5.41138">
        <ele>1193.9</ele>
      </trkpt>
      <trkpt lat="45.12578" lon="5.41184">
        <ele>1212.1</ele>
      </trkpt>
      <trkpt lat="45.12623" lon="5.41196">
        <ele>1213.8</ele>
      </trkpt>
      <trkpt lat="45.12665" lon="5.41287">
        <ele>1239.7</ele>
      </trkpt>
      <trkpt lat="45.12758" lon="5.41334">
        <ele>1256.2</ele>
      </trkpt>
      <trkpt lat="45.12778" lon="5.41338">
        <ele>1258.8</ele>
      </trkpt>
      <trkpt lat="45.1284" lon="5.41322">
        <ele>1261.8</ele>
      </trkpt>
      <trkpt lat="45.12923" lon="5.41333">
        <ele>1273.7</ele>
      </trkpt>
      <trkpt lat="45.12952" lon="5.41335">
        <ele>1277.4</ele>
      </trkpt>
      <trkpt lat="45.12977" lon="5.41327">
        <ele>1277.5</ele>
      </trkpt>
      <trkpt lat="45.13006" lon="5.41338">
        <ele>1284.2</ele>
      </trkpt>
      <trkpt lat="45.13047" lon="5.41308">
        <ele>1280.5</ele>
      </trkpt>
      <trkpt lat="45.13118" lon="5.41344">
        <ele>1297.9</ele>
      </trkpt>
      <trkpt lat="45.13148" lon="5.4132">
        <ele>1293.5</ele>
      </trkpt>
      <trkpt lat="45.13205" lon="5.41298">
        <ele>1285.5</ele>
      </trkpt>
      <trkpt lat="45.13263" lon="5.41234">
        <ele>1264.6</ele>
      </trkpt>
      <trkpt lat="45.13324" lon="5.41216">
        <ele>1259.1</ele>
      </trkpt>
      <trkpt lat="45.13404" lon="5.41245">
        <ele>1249.1</ele>
      </trkpt>
      <trkpt lat="45.13471" lon="5.4129">
        <ele>1238.7</ele>
      </trkpt>
      <trkpt lat="45.13566" lon="5.41423">
        <ele>1222.7</ele>
      </trkpt>
      <trkpt lat="45.13622" lon="5.41506">
        <ele>1207.7</ele>
      </trkpt>
      <trkpt lat="45.13641" lon="5.41554">
        <ele>1206.5</ele>
      </trkpt>
      <trkpt lat="45.13683" lon="5.41588">
        <ele>1198.4</ele>
      </trkpt>
      <trkpt lat="45.13731" lon="5.41648">
        <ele>1196.2</ele>
      </trkpt>
      <trkpt lat="45.13764" lon="5.41679">
        <ele>1193.5</ele>
      </trkpt>
      <trkpt lat="45.13799" lon="5.417">
        <ele>1190.5</ele>
      </trkpt>
      <trkpt lat="45.13825" lon="5.41727">
        <ele>1188.6</ele>
      </trkpt>
      <trkpt lat="45.13866" lon="5.41716">
        <ele>1182.8</ele>
      </trkpt>
      <trkpt lat="45.13896" lon="5.41702">
        <ele>1178.3</ele>
      </trkpt>
      <trkpt lat="45.13923" lon="5.41707">
        <ele>1175.8</ele>
      </trkpt>
      <trkpt lat="45.13936" lon="5.41707">
        <ele>1174.8</ele>
      </trkpt>
      <trkpt lat="45.13959" lon="5.41772">
        <ele>1178.4</ele>
      </trkpt>
      <trkpt lat="45.13966" lon="5.41776">
        <ele>1178.1</ele>
      </trkpt>
      <trkpt lat="45.13985" lon="5.41754">
        <ele>1175.4</ele>
      </trkpt>
      <trkpt lat="45.14015" lon="5.41728">
        <ele>1170.5</ele>
      </trkpt>
      <trkpt lat="45.14024" lon="5.41718">
        <ele>1168.7</ele>
      </trkpt>
      <trkpt lat="45.14025" lon="5.41744">
        <ele>1171.8</ele>
      </trkpt>
      <trkpt lat="45.14036" lon="5.41767">
        <ele>1172.7</ele>
      </trkpt>
      <trkpt lat="45.14044" lon="5.41806">
        <ele>1174</ele>
      </trkpt>
      <trkpt lat="45.14056" lon="5.41838">
        <ele>1174.4</ele>
      </trkpt>
      <trkpt lat="45.14082" lon="5.41881">
        <ele>1169.7</ele>
      </trkpt>
      <trkpt lat="45.1412" lon="5.41889">
        <ele>1165.7</ele>
      </trkpt>
      <trkpt lat="45.14153" lon="5.41917">
        <ele>1161.1</ele>
      </trkpt>
      <trkpt lat="45.14178" lon="5.41937">
        <ele>1157.4</ele>
      </trkpt>
      <trkpt lat="45.14177" lon="5.41953">
        <ele>1156.1</ele>
      </trkpt>
      <trkpt lat="45.1415" lon="5.41967">
        <ele>1156.3</ele>
      </trkpt>
      <trkpt lat="45.141" lon="5.41964">
        <ele>1160.1</ele>
      </trkpt>
      <trkpt lat="45.14067" lon="5.42036">
        <ele>1151.7</ele>
      </trkpt>
      <trkpt lat="45.14039" lon="5.42063">
        <ele>1151</ele>
      </trkpt>
      <trkpt lat="45.14014" lon="5.42081">
        <ele>1152.9</ele>
      </trkpt>
      <trkpt lat="45.14039" lon="5.4213">
        <ele>1144.1</ele>
      </trkpt>
      <trkpt lat="45.14066" lon="5.42147">
        <ele>1136.5</ele>
      </trkpt>
      <trkpt lat="45.14085" lon="5.42177">
        <ele>1128.2</ele>
      </trkpt>
      <trkpt lat="45.14064" lon="5.4221">
        <ele>1129.9</ele>
      </trkpt>
      <trkpt lat="45.1405" lon="5.42242">
        <ele>1131.1</ele>
      </trkpt>
      <trkpt lat="45.14044" lon="5.42298">
        <ele>1126.1</ele>
      </trkpt>
      <trkpt lat="45.14048" lon="5.42372">
        <ele>1118</ele>
      </trkpt>
      <trkpt lat="45.14071" lon="5.42433">
        <ele>1107.3</ele>
      </trkpt>
      <trkpt lat="45.14094" lon="5.42495">
        <ele>1099.6</ele>
      </trkpt>
      <trkpt lat="45.14109" lon="5.4255">
        <ele>1091.7</ele>
      </trkpt>
      <trkpt lat="45.14093" lon="5.42648">
        <ele>1084.2</ele>
      </trkpt>
      <trkpt lat="45.1407" lon="5.4271">
        <ele>1083.1</ele>
      </trkpt>
      <trkpt lat="45.1405" lon="5.42734">
        <ele>1090.2</ele>
      </trkpt>
      <trkpt lat="45.14049" lon="5.42849">
        <ele>1072.3</ele>
      </trkpt>
      <trkpt lat="45.14041" lon="5.4288">
        <ele>1072.5</ele>
      </trkpt>
      <trkpt lat="45.14031" lon="5.42924">
        <ele>1073.2</ele>
      </trkpt>
      <trkpt lat="45.14034" lon="5.42978">
        <ele>1065.7</ele>
      </trkpt>
      <trkpt lat="45.14044" lon="5.43017">
        <ele>1054.2</ele>
      </trkpt>
      <trkpt lat="45.14033" lon="5.4308">
        <ele>1048.9</ele>
      </trkpt>
      <trkpt lat="45.13977" lon="5.4323">
        <ele>1035.8</ele>
      </trkpt>
      <trkpt lat="45.13969" lon="5.4329">
        <ele>1026.6</ele>
      </trkpt>
      <trkpt lat="45.13995" lon="5.43396">
        <ele>1006.1</ele>
      </trkpt>
      <trkpt lat="45.14013" lon="5.43333">
        <ele>1007.3</ele>
      </trkpt>
      <trkpt lat="45.14021" lon="5.43292">
        <ele>1009.2</ele>
      </trkpt>
      <trkpt lat="45.14037" lon="5.43258">
        <ele>1007.5</ele>
      </trkpt>
      <trkpt lat="45.14078" lon="5.43254">
        <ele>994.2</ele>
      </trkpt>
      <trkpt lat="45.14113" lon="5.43269">
        <ele>980.5</ele>
      </trkpt>
      <trkpt lat="45.14143" lon="5.43274">
        <ele>970.4</ele>
      </trkpt>
      <trkpt lat="45.14112" lon="5.4331">
        <ele>974.9</ele>
      </trkpt>
      <trkpt lat="45.14073" lon="5.43346">
        <ele>982</ele>
      </trkpt>
      <trkpt lat="45.14056" lon="5.4338">
        <ele>981.8</ele>
      </trkpt>
      <trkpt lat="45.14046" lon="5.43421">
        <ele>978.8</ele>
      </trkpt>
      <trkpt lat="45.14036" lon="5.43459">
        <ele>975.6</ele>
      </trkpt>
      <trkpt lat="45.14017" lon="5.43499">
        <ele>975.5</ele>
      </trkpt>
      <trkpt lat="45.14" lon="5.43536">
        <ele>976</ele>
      </trkpt>
      <trkpt lat="45.14001" lon="5.43606">
        <ele>963.1</ele>
      </trkpt>
      <trkpt lat="45.1397" lon="5.43655">
        <ele>961.3</ele>
      </trkpt>
      <trkpt lat="45.13991" lon="5.43695">
        <ele>955.6</ele>
      </trkpt>
      <trkpt lat="45.13998" lon="5.43701">
        <ele>954.3</ele>
      </trkpt>
      <trkpt lat="45.14008" lon="5.43724">
        <ele>954.7</ele>
      </trkpt>
      <trkpt lat="45.14016" lon="5.4376">
        <ele>956.6</ele>
      </trkpt>
      <trkpt lat="45.14034" lon="5.43789">
        <ele>960.8</ele>
      </trkpt>
      <trkpt lat="45.14022" lon="5.43814">
        <ele>962</ele>
      </trkpt>
      <trkpt lat="45.14036" lon="5.43859">
        <ele>969.4</ele>
      </trkpt>
      <trkpt lat="45.14074" lon="5.43811">
        <ele>967.4</ele>
      </trkpt>
      <trkpt lat="45.14099" lon="5.43783">
        <ele>966.7</ele>
      </trkpt>
      <trkpt lat="45.141" lon="5.43742">
        <ele>961</ele>
      </trkpt>
      <trkpt lat="45.14119" lon="5.43702">
        <ele>960.9</ele>
      </trkpt>
      <trkpt lat="45.14153" lon="5.43707">
        <ele>965.2</ele>
      </trkpt>
      <trkpt lat="45.14193" lon="5.43738">
        <ele>969</ele>
      </trkpt>
      <trkpt lat="45.14235" lon="5.43759">
        <ele>972.1</ele>
      </trkpt>
      <trkpt lat="45.14282" lon="5.43771">
        <ele>972</ele>
      </trkpt>
      <trkpt lat="45.14288" lon="5.43781">
        <ele>973.5</ele>
      </trkpt>
      <trkpt lat="45.143" lon="5.43775">
        <ele>971.4</ele>
      </trkpt>
      <trkpt lat="45.14367" lon="5.43763">
        <ele>963.9</ele>
      </trkpt>
      <trkpt lat="45.14426" lon="5.43754">
        <ele>957.4</ele>
      </trkpt>
      <trkpt lat="45.1448" lon="5.43779">
        <ele>955.6</ele>
      </trkpt>
      <trkpt lat="45.14506" lon="5.43787">
        <ele>954</ele>
      </trkpt>
      <trkpt lat="45.14535" lon="5.43795">
        <ele>950.9</ele>
      </trkpt>
      <trkpt lat="45.14558" lon="5.43803">
        <ele>948.6</ele>
      </trkpt>
      <trkpt lat="45.146" lon="5.43824">
        <ele>945.1</ele>
      </trkpt>
      <trkpt lat="45.14596" lon="5.43817">
        <ele>944.8</ele>
      </trkpt>
      <trkpt lat="45.14589" lon="5.43788">
        <ele>941.3</ele>
      </trkpt>
      <trkpt lat="45.14615" lon="5.4378">
        <ele>937.3</ele>
      </trkpt>
      <trkpt lat="45.14653" lon="5.43763">
        <ele>931.4</ele>
      </trkpt>
      <trkpt lat="45.14669" lon="5.43758">
        <ele>929.5</ele>
      </trkpt>
      <trkpt lat="45.14695" lon="5.43798">
        <ele>931</ele>
      </trkpt>
      <trkpt lat="45.14732" lon="5.4385">
        <ele>934.2</ele>
      </trkpt>
      <trkpt lat="45.1476" lon="5.43887">
        <ele>937</ele>
      </trkpt>
      <trkpt lat="45.1476" lon="5.43887">
        <ele>937</ele>
      </trkpt>
      <trkpt lat="45.1478" lon="5.43901">
        <ele>938.4</ele>
      </trkpt>
      <trkpt lat="45.14772" lon="5.43932">
        <ele>941.5</ele>
      </trkpt>
      <trkpt lat="45.1476" lon="5.43954">
        <ele>944.7</ele>
      </trkpt>
      <trkpt lat="45.14752" lon="5.44011">
        <ele>954.6</ele>
      </trkpt>
      <trkpt lat="45.14773" lon="5.4405">
        <ele>962</ele>
      </trkpt>
      <trkpt lat="45.14812" lon="5.44113">
        <ele>970.2</ele>
      </trkpt>
      <trkpt lat="45.14842" lon="5.44194">
        <ele>983.3</ele>
      </trkpt>
      <trkpt lat="45.14898" lon="5.44257">
        <ele>992.6</ele>
      </trkpt>
      <trkpt lat="45.14933" lon="5.4432">
        <ele>1001.5</ele>
      </trkpt>
      <trkpt lat="45.14958" lon="5.44375">
        <ele>1006.9</ele>
      </trkpt>
      <trkpt lat="45.14984" lon="5.44421">
        <ele>1010.6</ele>
      </trkpt>
      <trkpt lat="45.15011" lon="5.44486">
        <ele>1011.8</ele>
      </trkpt>
      <trkpt lat="45.15022" lon="5.44563">
        <ele>1011.5</ele>
      </trkpt>
      <trkpt lat="45.15018" lon="5.44649">
        <ele>1012.2</ele>
      </trkpt>
      <trkpt lat="45.15003" lon="5.44705">
        <ele>1022.2</ele>
      </trkpt>
      <trkpt lat="45.14988" lon="5.44762">
        <ele>1031</ele>
      </trkpt>
      <trkpt lat="45.14979" lon="5.44844">
        <ele>1035</ele>
      </trkpt>
      <trkpt lat="45.14957" lon="5.44894">
        <ele>1043.7</ele>
      </trkpt>
      <trkpt lat="45.14938" lon="5.44937">
        <ele>1047.9</ele>
      </trkpt>
      <trkpt lat="45.14928" lon="5.44959">
        <ele>1048.4</ele>
      </trkpt>
      <trkpt lat="45.1492" lon="5.45">
        <ele>1045.6</ele>
      </trkpt>
      <trkpt lat="45.14894" lon="5.45036">
        <ele>1058.5</ele>
      </trkpt>
      <trkpt lat="45.14885" lon="5.45058">
        <ele>1063</ele>
      </trkpt>
      <trkpt lat="45.14884" lon="5.45077">
        <ele>1063.6</ele>
      </trkpt>
      <trkpt lat="45.14878" lon="5.45099">
        <ele>1070.3</ele>
      </trkpt>
      <trkpt lat="45.14983" lon="5.45105">
        <ele>1066.9</ele>
      </trkpt>
      <trkpt lat="45.15031" lon="5.45061">
        <ele>1051.4</ele>
      </trkpt>
      <trkpt lat="45.15079" lon="5.45073">
        <ele>1052.6</ele>
      </trkpt>
      <trkpt lat="45.15097" lon="5.45124">
        <ele>1060.5</ele>
      </trkpt>
      <trkpt lat="45.15108" lon="5.45227">
        <ele>1070.8</ele>
      </trkpt>
      <trkpt lat="45.15068" lon="5.45399">
        <ele>1091.5</ele>
      </trkpt>
      <trkpt lat="45.15074" lon="5.45483">
        <ele>1090.4</ele>
      </trkpt>
      <trkpt lat="45.15003" lon="5.45597">
        <ele>1106.9</ele>
      </trkpt>
      <trkpt lat="45.14981" lon="5.45658">
        <ele>1106.3</ele>
      </trkpt>
      <trkpt lat="45.14993" lon="5.45706">
        <ele>1107.5</ele>
      </trkpt>
      <trkpt lat="45.15085" lon="5.45702">
        <ele>1102.6</ele>
      </trkpt>
      <trkpt lat="45.15148" lon="5.45665">
        <ele>1103.5</ele>
      </trkpt>
      <trkpt lat="45.15247" lon="5.45586">
        <ele>1105.7</ele>
      </trkpt>
      <trkpt lat="45.15308" lon="5.45521">
        <ele>1101.8</ele>
      </trkpt>
      <trkpt lat="45.15338" lon="5.4557">
        <ele>1111.1</ele>
      </trkpt>
      <trkpt lat="45.15331" lon="5.45656">
        <ele>1112.5</ele>
      </trkpt>
      <trkpt lat="45.15196" lon="5.45754">
        <ele>1111</ele>
      </trkpt>
      <trkpt lat="45.15201" lon="5.45823">
        <ele>1110.2</ele>
      </trkpt>
      <trkpt lat="45.15133" lon="5.45909">
        <ele>1118.7</ele>
      </trkpt>
      <trkpt lat="45.15144" lon="5.45972">
        <ele>1110.8</ele>
      </trkpt>
      <trkpt lat="45.15119" lon="5.46002">
        <ele>1116.3</ele>
      </trkpt>
      <trkpt lat="45.15113" lon="5.46067">
        <ele>1112.2</ele>
      </trkpt>
      <trkpt lat="45.15063" lon="5.46108">
        <ele>1122.1</ele>
      </trkpt>
      <trkpt lat="45.15063" lon="5.4612">
        <ele>1121.8</ele>
      </trkpt>
      <trkpt lat="45.15099" lon="5.46159">
        <ele>1109.5</ele>
      </trkpt>
      <trkpt lat="45.15111" lon="5.46204">
        <ele>1107.6</ele>
      </trkpt>
      <trkpt lat="45.15112" lon="5.46232">
        <ele>1108.6</ele>
      </trkpt>
      <trkpt lat="45.15184" lon="5.46254">
        <ele>1097.7</ele>
      </trkpt>
      <trkpt lat="45.15202" lon="5.46243">
        <ele>1094.7</ele>
      </trkpt>
      <trkpt lat="45.15248" lon="5.46249">
        <ele>1090.1</ele>
      </trkpt>
      <trkpt lat="45.15302" lon="5.46224">
        <ele>1085.6</ele>
      </trkpt>
      <trkpt lat="45.15316" lon="5.46252">
        <ele>1087.2</ele>
      </trkpt>
      <trkpt lat="45.15316" lon="5.4628">
        <ele>1091.4</ele>
      </trkpt>
      <trkpt lat="45.15333" lon="5.463">
        <ele>1093.2</ele>
      </trkpt>
      <trkpt lat="45.15376" lon="5.46256">
        <ele>1085.5</ele>
      </trkpt>
      <trkpt lat="45.15424" lon="5.4633">
        <ele>1100.1</ele>
      </trkpt>
      <trkpt lat="45.15462" lon="5.46363">
        <ele>1107.6</ele>
      </trkpt>
      <trkpt lat="45.15503" lon="5.46356">
        <ele>1105.5</ele>
      </trkpt>
      <trkpt lat="45.15555" lon="5.46401">
        <ele>1119.3</ele>
      </trkpt>
      <trkpt lat="45.15634" lon="5.46363">
        <ele>1115.8</ele>
      </trkpt>
      <trkpt lat="45.15742" lon="5.4635">
        <ele>1124.2</ele>
      </trkpt>
      <trkpt lat="45.15776" lon="5.46314">
        <ele>1126.3</ele>
      </trkpt>
      <trkpt lat="45.15781" lon="5.46225">
        <ele>1127.1</ele>
      </trkpt>
      <trkpt lat="45.1572" lon="5.46062">
        <ele>1131.1</ele>
      </trkpt>
      <trkpt lat="45.157" lon="5.46042">
        <ele>1130</ele>
      </trkpt>
      <trkpt lat="45.15699" lon="5.4598">
        <ele>1131.2</ele>
      </trkpt>
      <trkpt lat="45.15734" lon="5.45962">
        <ele>1135.1</ele>
      </trkpt>
      <trkpt lat="45.15792" lon="5.45982">
        <ele>1143.8</ele>
      </trkpt>
      <trkpt lat="45.15848" lon="5.45962">
        <ele>1146.4</ele>
      </trkpt>
      <trkpt lat="45.15922" lon="5.45981">
        <ele>1151.1</ele>
      </trkpt>
      <trkpt lat="45.15983" lon="5.46007">
        <ele>1158.3</ele>
      </trkpt>
      <trkpt lat="45.16051" lon="5.46079">
        <ele>1163.7</ele>
      </trkpt>
      <trkpt lat="45.16062" lon="5.46118">
        <ele>1163.6</ele>
      </trkpt>
      <trkpt lat="45.16063" lon="5.4618">
        <ele>1163.8</ele>
      </trkpt>
      <trkpt lat="45.16051" lon="5.46261">
        <ele>1170.6</ele>
      </trkpt>
      <trkpt lat="45.16037" lon="5.46317">
        <ele>1176.3</ele>
      </trkpt>
      <trkpt lat="45.16048" lon="5.46376">
        <ele>1179.6</ele>
      </trkpt>
      <trkpt lat="45.16088" lon="5.46371">
        <ele>1175.9</ele>
      </trkpt>
      <trkpt lat="45.16133" lon="5.4633">
        <ele>1170</ele>
      </trkpt>
      <trkpt lat="45.16184" lon="5.4635">
        <ele>1175.1</ele>
      </trkpt>
      <trkpt lat="45.16208" lon="5.4629">
        <ele>1173.5</ele>
      </trkpt>
      <trkpt lat="45.16261" lon="5.46237">
        <ele>1185.1</ele>
      </trkpt>
      <trkpt lat="45.16266" lon="5.4606">
        <ele>1196</ele>
      </trkpt>
      <trkpt lat="45.16282" lon="5.4608">
        <ele>1202</ele>
      </trkpt>
      <trkpt lat="45.16309" lon="5.4625">
        <ele>1206.1</ele>
      </trkpt>
      <trkpt lat="45.16354" lon="5.46427">
        <ele>1225.2</ele>
      </trkpt>
      <trkpt lat="45.16395" lon="5.46527">
        <ele>1231.3</ele>
      </trkpt>
      <trkpt lat="45.16333" lon="5.46548">
        <ele>1228.6</ele>
      </trkpt>
      <trkpt lat="45.16313" lon="5.46551">
        <ele>1225.2</ele>
      </trkpt>
      <trkpt lat="45.16254" lon="5.46603">
        <ele>1225.5</ele>
      </trkpt>
      <trkpt lat="45.16214" lon="5.46607">
        <ele>1224.8</ele>
      </trkpt>
      <trkpt lat="45.16114" lon="5.46569">
        <ele>1214</ele>
      </trkpt>
      <trkpt lat="45.15951" lon="5.4645">
        <ele>1187.6</ele>
      </trkpt>
      <trkpt lat="45.15903" lon="5.46515">
        <ele>1202.1</ele>
      </trkpt>
      <trkpt lat="45.15808" lon="5.46587">
        <ele>1217.3</ele>
      </trkpt>
      <trkpt lat="45.15665" lon="5.46613">
        <ele>1214.1</ele>
      </trkpt>
      <trkpt lat="45.1562" lon="5.46645">
        <ele>1218.7</ele>
      </trkpt>
      <trkpt lat="45.15425" lon="5.46693">
        <ele>1224.5</ele>
      </trkpt>
      <trkpt lat="45.15233" lon="5.46632">
        <ele>1209.3</ele>
      </trkpt>
      <trkpt lat="45.1501" lon="5.46596">
        <ele>1212.2</ele>
      </trkpt>
      <trkpt lat="45.14913" lon="5.46566">
        <ele>1226.1</ele>
      </trkpt>
      <trkpt lat="45.14815" lon="5.46538">
        <ele>1262.9</ele>
      </trkpt>
      <trkpt lat="45.14766" lon="5.46527">
        <ele>1283.7</ele>
      </trkpt>
      <trkpt lat="45.14666" lon="5.46434">
        <ele>1308.9</ele>
      </trkpt>
      <trkpt lat="45.14644" lon="5.46355">
        <ele>1314</ele>
      </trkpt>
      <trkpt lat="45.14629" lon="5.46355">
        <ele>1323.2</ele>
      </trkpt>
      <trkpt lat="45.1462" lon="5.46396">
        <ele>1333</ele>
      </trkpt>
      <trkpt lat="45.14596" lon="5.46362">
        <ele>1344.2</ele>
      </trkpt>
      <trkpt lat="45.14574" lon="5.46323">
        <ele>1351.5</ele>
      </trkpt>
      <trkpt lat="45.14555" lon="5.46295">
        <ele>1357.3</ele>
      </trkpt>
      <trkpt lat="45.14553" lon="5.46308">
        <ele>1356.5</ele>
      </trkpt>
      <trkpt lat="45.1456" lon="5.46361">
        <ele>1356.4</ele>
      </trkpt>
      <trkpt lat="45.14548" lon="5.46411">
        <ele>1364.2</ele>
      </trkpt>
      <trkpt lat="45.1458" lon="5.46487">
        <ele>1369.8</ele>
      </trkpt>
      <trkpt lat="45.14566" lon="5.46532">
        <ele>1376.9</ele>
      </trkpt>
      <trkpt lat="45.14615" lon="5.46564">
        <ele>1369.6</ele>
      </trkpt>
      <trkpt lat="45.14645" lon="5.46634">
        <ele>1372.8</ele>
      </trkpt>
      <trkpt lat="45.14675" lon="5.46673">
        <ele>1371.8</ele>
      </trkpt>
      <trkpt lat="45.14682" lon="5.46763">
        <ele>1366.4</ele>
      </trkpt>
      <trkpt lat="45.14713" lon="5.46805">
        <ele>1360.7</ele>
      </trkpt>
      <trkpt lat="45.14853" lon="5.46903">
        <ele>1355.5</ele>
      </trkpt>
      <trkpt lat="45.14835" lon="5.46977">
        <ele>1342.3</ele>
      </trkpt>
      <trkpt lat="45.14791" lon="5.46969">
        <ele>1338.5</ele>
      </trkpt>
      <trkpt lat="45.1473" lon="5.46951">
        <ele>1333.7</ele>
      </trkpt>
      <trkpt lat="45.14664" lon="5.46942">
        <ele>1328.6</ele>
      </trkpt>
      <trkpt lat="45.14592" lon="5.46933">
        <ele>1325.1</ele>
      </trkpt>
      <trkpt lat="45.14481" lon="5.46924">
        <ele>1318.9</ele>
      </trkpt>
      <trkpt lat="45.14364" lon="5.4693">
        <ele>1290.7</ele>
      </trkpt>
      <trkpt lat="45.14278" lon="5.4695">
        <ele>1268.9</ele>
      </trkpt>
      <trkpt lat="45.13968" lon="5.46861">
        <ele>1239.7</ele>
      </trkpt>
      <trkpt lat="45.13893" lon="5.46854">
        <ele>1231.1</ele>
      </trkpt>
      <trkpt lat="45.13795" lon="5.46766">
        <ele>1225.2</ele>
      </trkpt>
      <trkpt lat="45.13705" lon="5.46816">
        <ele>1212.9</ele>
      </trkpt>
      <trkpt lat="45.13724" lon="5.46948">
        <ele>1203.4</ele>
      </trkpt>
      <trkpt lat="45.13775" lon="5.46999">
        <ele>1207</ele>
      </trkpt>
      <trkpt lat="45.13767" lon="5.47036">
        <ele>1205.6</ele>
      </trkpt>
      <trkpt lat="45.13697" lon="5.47077">
        <ele>1194.3</ele>
      </trkpt>
      <trkpt lat="45.13583" lon="5.47053">
        <ele>1180.1</ele>
      </trkpt>
      <trkpt lat="45.13482" lon="5.4713">
        <ele>1165.9</ele>
      </trkpt>
      <trkpt lat="45.13424" lon="5.47164">
        <ele>1154.7</ele>
      </trkpt>
      <trkpt lat="45.13407" lon="5.47215">
        <ele>1150.3</ele>
      </trkpt>
      <trkpt lat="45.13586" lon="5.47431">
        <ele>1139.2</ele>
      </trkpt>
      <trkpt lat="45.13815" lon="5.47611">
        <ele>1122.4</ele>
      </trkpt>
      <trkpt lat="45.14211" lon="5.47816">
        <ele>1088.1</ele>
      </trkpt>
      <trkpt lat="45.14394" lon="5.47964">
        <ele>1071.2</ele>
      </trkpt>
      <trkpt lat="45.1453" lon="5.4796">
        <ele>1071.1</ele>
      </trkpt>
      <trkpt lat="45.1478" lon="5.48029">
        <ele>1064.7</ele>
      </trkpt>
      <trkpt lat="45.15209" lon="5.48237">
        <ele>1050.4</ele>
      </trkpt>
      <trkpt lat="45.15475" lon="5.48372">
        <ele>1034.3</ele>
      </trkpt>
      <trkpt lat="45.1596" lon="5.48555">
        <ele>1023.7</ele>
      </trkpt>
      <trkpt lat="45.16093" lon="5.48586">
        <ele>1029.1</ele>
      </trkpt>
      <trkpt lat="45.16147" lon="5.48629">
        <ele>1019.1</ele>
      </trkpt>
      <trkpt lat="45.1656" lon="5.48821">
        <ele>1000.3</ele>
      </trkpt>
      <trkpt lat="45.1681" lon="5.48968">
        <ele>994.9</ele>
      </trkpt>
      <trkpt lat="45.17297" lon="5.49427">
        <ele>949.5</ele>
      </trkpt>
      <trkpt lat="45.17706" lon="5.49785">
        <ele>909.3</ele>
      </trkpt>
      <trkpt lat="45.17745" lon="5.49802">
        <ele>909.8</ele>
      </trkpt>
      <trkpt lat="45.17742" lon="5.49801">
        <ele>909.8</ele>
      </trkpt>
      <trkpt lat="45.17766" lon="5.49831">
        <ele>905.2</ele>
      </trkpt>
      <trkpt lat="45.17835" lon="5.49869">
        <ele>917.4</ele>
      </trkpt>
      <trkpt lat="45.17919" lon="5.49919">
        <ele>924.6</ele>
      </trkpt>
      <trkpt lat="45.17977" lon="5.49938">
        <ele>934.2</ele>
      </trkpt>
      <trkpt lat="45.18018" lon="5.49979">
        <ele>936.5</ele>
      </trkpt>
      <trkpt lat="45.18064" lon="5.50032">
        <ele>939.8</ele>
      </trkpt>
      <trkpt lat="45.18084" lon="5.50049">
        <ele>941</ele>
      </trkpt>
      <trkpt lat="45.1812" lon="5.50054">
        <ele>947.3</ele>
      </trkpt>
      <trkpt lat="45.18139" lon="5.50071">
        <ele>947.8</ele>
      </trkpt>
      <trkpt lat="45.18141" lon="5.50091">
        <ele>946.7</ele>
      </trkpt>
      <trkpt lat="45.18104" lon="5.50114">
        <ele>946.8</ele>
      </trkpt>
      <trkpt lat="45.18073" lon="5.50115">
        <ele>944.6</ele>
      </trkpt>
      <trkpt lat="45.18066" lon="5.50134">
        <ele>948.2</ele>
      </trkpt>
      <trkpt lat="45.18068" lon="5.50147">
        <ele>951.1</ele>
      </trkpt>
      <trkpt lat="45.18092" lon="5.50148">
        <ele>953.1</ele>
      </trkpt>
      <trkpt lat="45.18164" lon="5.50165">
        <ele>957.8</ele>
      </trkpt>
      <trkpt lat="45.18177" lon="5.50166">
        <ele>958.4</ele>
      </trkpt>
      <trkpt lat="45.18192" lon="5.50192">
        <ele>966.3</ele>
      </trkpt>
      <trkpt lat="45.18238" lon="5.5023">
        <ele>969.8</ele>
      </trkpt>
      <trkpt lat="45.18254" lon="5.5024">
        <ele>969.7</ele>
      </trkpt>
      <trkpt lat="45.18264" lon="5.50285">
        <ele>978.7</ele>
      </trkpt>
      <trkpt lat="45.18267" lon="5.50336">
        <ele>988.7</ele>
      </trkpt>
      <trkpt lat="45.18285" lon="5.50341">
        <ele>989.4</ele>
      </trkpt>
      <trkpt lat="45.18308" lon="5.50307">
        <ele>984.5</ele>
      </trkpt>
      <trkpt lat="45.18328" lon="5.50235">
        <ele>980.8</ele>
      </trkpt>
      <trkpt lat="45.18329" lon="5.50209">
        <ele>980.2</ele>
      </trkpt>
      <trkpt lat="45.18325" lon="5.5012">
        <ele>984.5</ele>
      </trkpt>
      <trkpt lat="45.18354" lon="5.50112">
        <ele>992.3</ele>
      </trkpt>
      <trkpt lat="45.18412" lon="5.50144">
        <ele>996.2</ele>
      </trkpt>
      <trkpt lat="45.18463" lon="5.50179">
        <ele>999.1</ele>
      </trkpt>
      <trkpt lat="45.18507" lon="5.50219">
        <ele>999.9</ele>
      </trkpt>
      <trkpt lat="45.18542" lon="5.50247">
        <ele>1000.2</ele>
      </trkpt>
      <trkpt lat="45.18592" lon="5.50314">
        <ele>1000.9</ele>
      </trkpt>
      <trkpt lat="45.18697" lon="5.50418">
        <ele>1006.5</ele>
      </trkpt>
      <trkpt lat="45.18745" lon="5.50478">
        <ele>1008</ele>
      </trkpt>
      <trkpt lat="45.18804" lon="5.50539">
        <ele>1014.9</ele>
      </trkpt>
      <trkpt lat="45.18847" lon="5.50599">
        <ele>1015.6</ele>
      </trkpt>
      <trkpt lat="45.1888" lon="5.50623">
        <ele>1019.3</ele>
      </trkpt>
      <trkpt lat="45.1893" lon="5.50662">
        <ele>1019.5</ele>
      </trkpt>
      <trkpt lat="45.18933" lon="5.50664">
        <ele>1019.7</ele>
      </trkpt>
      <trkpt lat="45.19003" lon="5.50728">
        <ele>1024.4</ele>
      </trkpt>
      <trkpt lat="45.19089" lon="5.50781">
        <ele>1036.2</ele>
      </trkpt>
      <trkpt lat="45.19171" lon="5.50843">
        <ele>1039.5</ele>
      </trkpt>
      <trkpt lat="45.19246" lon="5.50901">
        <ele>1043.6</ele>
      </trkpt>
      <trkpt lat="45.19327" lon="5.5096">
        <ele>1048.3</ele>
      </trkpt>
      <trkpt lat="45.19407" lon="5.51009">
        <ele>1059</ele>
      </trkpt>
      <trkpt lat="45.19499" lon="5.51088">
        <ele>1066.1</ele>
      </trkpt>
      <trkpt lat="45.19603" lon="5.51167">
        <ele>1081.1</ele>
      </trkpt>
      <trkpt lat="45.19657" lon="5.51215">
        <ele>1090.5</ele>
      </trkpt>
      <trkpt lat="45.19708" lon="5.51259">
        <ele>1098.5</ele>
      </trkpt>
      <trkpt lat="45.19765" lon="5.51316">
        <ele>1103.3</ele>
      </trkpt>
      <trkpt lat="45.19817" lon="5.51373">
        <ele>1102.2</ele>
      </trkpt>
      <trkpt lat="45.19844" lon="5.51445">
        <ele>1096.5</ele>
      </trkpt>
      <trkpt lat="45.19897" lon="5.51499">
        <ele>1095.2</ele>
      </trkpt>
      <trkpt lat="45.19955" lon="5.51505">
        <ele>1094.7</ele>
      </trkpt>
      <trkpt lat="45.20024" lon="5.51554">
        <ele>1092.9</ele>
      </trkpt>
      <trkpt lat="45.20097" lon="5.51603">
        <ele>1084.7</ele>
      </trkpt>
      <trkpt lat="45.20211" lon="5.51679">
        <ele>1083.7</ele>
      </trkpt>
      <trkpt lat="45.20309" lon="5.51745">
        <ele>1091.4</ele>
      </trkpt>
      <trkpt lat="45.20477" lon="5.51709">
        <ele>1091.1</ele>
      </trkpt>
      <trkpt lat="45.20468" lon="5.51853">
        <ele>1100.2</ele>
      </trkpt>
      <trkpt lat="45.20477" lon="5.51927">
        <ele>1096.8</ele>
      </trkpt>
      <trkpt lat="45.20503" lon="5.52027">
        <ele>1102</ele>
      </trkpt>
      <trkpt lat="45.20458" lon="5.52104">
        <ele>1111.9</ele>
      </trkpt>
      <trkpt lat="45.20388" lon="5.52106">
        <ele>1112.1</ele>
      </trkpt>
      <trkpt lat="45.20325" lon="5.52103">
        <ele>1109.7</ele>
      </trkpt>
      <trkpt lat="45.20292" lon="5.52158">
        <ele>1122.4</ele>
      </trkpt>
      <trkpt lat="45.20282" lon="5.52269">
        <ele>1149.2</ele>
      </trkpt>
      <trkpt lat="45.20256" lon="5.52335">
        <ele>1166.1</ele>
      </trkpt>
      <trkpt lat="45.20188" lon="5.52257">
        <ele>1142.2</ele>
      </trkpt>
      <trkpt lat="45.20132" lon="5.52245">
        <ele>1148.4</ele>
      </trkpt>
      <trkpt lat="45.20049" lon="5.52253">
        <ele>1158.9</ele>
      </trkpt>
      <trkpt lat="45.20003" lon="5.52282">
        <ele>1166.3</ele>
      </trkpt>
      <trkpt lat="45.19956" lon="5.52355">
        <ele>1190.5</ele>
      </trkpt>
      <trkpt lat="45.19893" lon="5.52355">
        <ele>1194.5</ele>
      </trkpt>
      <trkpt lat="45.19846" lon="5.52324">
        <ele>1196.7</ele>
      </trkpt>
      <trkpt lat="45.19873" lon="5.52414">
        <ele>1213.6</ele>
      </trkpt>
      <trkpt lat="45.19878" lon="5.52485">
        <ele>1221.7</ele>
      </trkpt>
      <trkpt lat="45.19831" lon="5.52552">
        <ele>1240.1</ele>
      </trkpt>
      <trkpt lat="45.19894" lon="5.52607">
        <ele>1244.9</ele>
      </trkpt>
      <trkpt lat="45.19973" lon="5.52621">
        <ele>1255.8</ele>
      </trkpt>
      <trkpt lat="45.20034" lon="5.52608">
        <ele>1259.9</ele>
      </trkpt>
      <trkpt lat="45.20094" lon="5.52577">
        <ele>1260.2</ele>
      </trkpt>
      <trkpt lat="45.20149" lon="5.52618">
        <ele>1267.7</ele>
      </trkpt>
      <trkpt lat="45.20211" lon="5.52634">
        <ele>1265.7</ele>
      </trkpt>
      <trkpt lat="45.20238" lon="5.527">
        <ele>1275.9</ele>
      </trkpt>
      <trkpt lat="45.20298" lon="5.52741">
        <ele>1280.1</ele>
      </trkpt>
      <trkpt lat="45.20374" lon="5.52758">
        <ele>1275.2</ele>
      </trkpt>
      <trkpt lat="45.20489" lon="5.52825">
        <ele>1288.9</ele>
      </trkpt>
      <trkpt lat="45.20562" lon="5.52785">
        <ele>1304.7</ele>
      </trkpt>
      <trkpt lat="45.2052" lon="5.52706">
        <ele>1293.5</ele>
      </trkpt>
      <trkpt lat="45.20513" lon="5.52633">
        <ele>1295.4</ele>
      </trkpt>
      <trkpt lat="45.20486" lon="5.52555">
        <ele>1285.7</ele>
      </trkpt>
      <trkpt lat="45.20533" lon="5.52554">
        <ele>1296.3</ele>
      </trkpt>
      <trkpt lat="45.20625" lon="5.52575">
        <ele>1317</ele>
      </trkpt>
      <trkpt lat="45.20702" lon="5.52551">
        <ele>1312.2</ele>
      </trkpt>
      <trkpt lat="45.20759" lon="5.52539">
        <ele>1311.4</ele>
      </trkpt>
      <trkpt lat="45.20826" lon="5.52552">
        <ele>1320.4</ele>
      </trkpt>
      <trkpt lat="45.20911" lon="5.52557">
        <ele>1326.7</ele>
      </trkpt>
      <trkpt lat="45.2099" lon="5.52549">
        <ele>1333.4</ele>
      </trkpt>
      <trkpt lat="45.21044" lon="5.52552">
        <ele>1338</ele>
      </trkpt>
      <trkpt lat="45.21102" lon="5.52565">
        <ele>1342.2</ele>
      </trkpt>
      <trkpt lat="45.2116" lon="5.52603">
        <ele>1347.3</ele>
      </trkpt>
      <trkpt lat="45.21228" lon="5.52642">
        <ele>1363.3</ele>
      </trkpt>
      <trkpt lat="45.21286" lon="5.52652">
        <ele>1373.2</ele>
      </trkpt>
      <trkpt lat="45.21358" lon="5.52675">
        <ele>1382.8</ele>
      </trkpt>
      <trkpt lat="45.2142" lon="5.52685">
        <ele>1389.3</ele>
      </trkpt>
      <trkpt lat="45.21471" lon="5.52716">
        <ele>1392.3</ele>
      </trkpt>
      <trkpt lat="45.21501" lon="5.52782">
        <ele>1397.1</ele>
      </trkpt>
      <trkpt lat="45.21564" lon="5.52868">
        <ele>1405.9</ele>
      </trkpt>
      <trkpt lat="45.21615" lon="5.529">
        <ele>1410.8</ele>
      </trkpt>
      <trkpt lat="45.21638" lon="5.52965">
        <ele>1416.3</ele>
      </trkpt>
      <trkpt lat="45.21625" lon="5.53012">
        <ele>1420.2</ele>
      </trkpt>
      <trkpt lat="45.21584" lon="5.53035">
        <ele>1425.3</ele>
      </trkpt>
      <trkpt lat="45.21512" lon="5.53018">
        <ele>1430</ele>
      </trkpt>
      <trkpt lat="45.21436" lon="5.53081">
        <ele>1452.2</ele>
      </trkpt>
      <trkpt lat="45.21373" lon="5.53153">
        <ele>1486.8</ele>
      </trkpt>
      <trkpt lat="45.21323" lon="5.53192">
        <ele>1505.2</ele>
      </trkpt>
      <trkpt lat="45.2127" lon="5.53233">
        <ele>1530.2</ele>
      </trkpt>
      <trkpt lat="45.21168" lon="5.53259">
        <ele>1571.5</ele>
      </trkpt>
      <trkpt lat="45.21087" lon="5.53255">
        <ele>1584.9</ele>
      </trkpt>
      <trkpt lat="45.21015" lon="5.53254">
        <ele>1586.5</ele>
      </trkpt>
      <trkpt lat="45.21097" lon="5.53303">
        <ele>1600.4</ele>
      </trkpt>
      <trkpt lat="45.21163" lon="5.53358">
        <ele>1600</ele>
      </trkpt>
      <trkpt lat="45.21234" lon="5.53448">
        <ele>1593.9</ele>
      </trkpt>
      <trkpt lat="45.21328" lon="5.53565">
        <ele>1572.1</ele>
      </trkpt>
      <trkpt lat="45.21405" lon="5.53604">
        <ele>1570.5</ele>
      </trkpt>
      <trkpt lat="45.21487" lon="5.53653">
        <ele>1564.2</ele>
      </trkpt>
      <trkpt lat="45.21562" lon="5.53699">
        <ele>1551</ele>
      </trkpt>
      <trkpt lat="45.21481" lon="5.53707">
        <ele>1541.6</ele>
      </trkpt>
      <trkpt lat="45.214" lon="5.53712">
        <ele>1530.4</ele>
      </trkpt>
      <trkpt lat="45.21337" lon="5.53728">
        <ele>1520</ele>
      </trkpt>
      <trkpt lat="45.21246" lon="5.53751">
        <ele>1498.2</ele>
      </trkpt>
      <trkpt lat="45.21126" lon="5.53699">
        <ele>1498.5</ele>
      </trkpt>
      <trkpt lat="45.21043" lon="5.53669">
        <ele>1492.1</ele>
      </trkpt>
      <trkpt lat="45.20949" lon="5.53673">
        <ele>1474.9</ele>
      </trkpt>
      <trkpt lat="45.20895" lon="5.53661">
        <ele>1468.3</ele>
      </trkpt>
      <trkpt lat="45.20829" lon="5.53625">
        <ele>1463.4</ele>
      </trkpt>
      <trkpt lat="45.2078" lon="5.53603">
        <ele>1460.5</ele>
      </trkpt>
      <trkpt lat="45.20679" lon="5.53578">
        <ele>1449.1</ele>
      </trkpt>
      <trkpt lat="45.20608" lon="5.53533">
        <ele>1444.5</ele>
      </trkpt>
      <trkpt lat="45.20497" lon="5.53475">
        <ele>1431.9</ele>
      </trkpt>
      <trkpt lat="45.20436" lon="5.53421">
        <ele>1436.6</ele>
      </trkpt>
      <trkpt lat="45.20339" lon="5.53371">
        <ele>1435.7</ele>
      </trkpt>
      <trkpt lat="45.20267" lon="5.53363">
        <ele>1423.9</ele>
      </trkpt>
      <trkpt lat="45.20225" lon="5.53329">
        <ele>1423.6</ele>
      </trkpt>
      <trkpt lat="45.2017" lon="5.53294">
        <ele>1418.6</ele>
      </trkpt>
      <trkpt lat="45.20101" lon="5.53258">
        <ele>1411.3</ele>
      </trkpt>
      <trkpt lat="45.20029" lon="5.53254">
        <ele>1394.4</ele>
      </trkpt>
      <trkpt lat="45.19937" lon="5.5323">
        <ele>1383.6</ele>
      </trkpt>
      <trkpt lat="45.19851" lon="5.53193">
        <ele>1379.5</ele>
      </trkpt>
      <trkpt lat="45.19774" lon="5.53186">
        <ele>1367</ele>
      </trkpt>
      <trkpt lat="45.19682" lon="5.5318">
        <ele>1352.6</ele>
      </trkpt>
      <trkpt lat="45.19694" lon="5.53248">
        <ele>1335.5</ele>
      </trkpt>
      <trkpt lat="45.19769" lon="5.5336">
        <ele>1322.3</ele>
      </trkpt>
      <trkpt lat="45.19732" lon="5.53425">
        <ele>1304.8</ele>
      </trkpt>
      <trkpt lat="45.19672" lon="5.5339">
        <ele>1297.9</ele>
      </trkpt>
      <trkpt lat="45.19618" lon="5.53377">
        <ele>1294</ele>
      </trkpt>
      <trkpt lat="45.19495" lon="5.53415">
        <ele>1276</ele>
      </trkpt>
      <trkpt lat="45.19447" lon="5.53437">
        <ele>1268.3</ele>
      </trkpt>
      <trkpt lat="45.19389" lon="5.5345">
        <ele>1259.8</ele>
      </trkpt>
      <trkpt lat="45.19333" lon="5.53424">
        <ele>1255.8</ele>
      </trkpt>
      <trkpt lat="45.19229" lon="5.53434">
        <ele>1233.5</ele>
      </trkpt>
      <trkpt lat="45.1912" lon="5.53406">
        <ele>1212.1</ele>
      </trkpt>
      <trkpt lat="45.19055" lon="5.53396">
        <ele>1199.2</ele>
      </trkpt>
      <trkpt lat="45.18996" lon="5.53392">
        <ele>1189.9</ele>
      </trkpt>
      <trkpt lat="45.18926" lon="5.53404">
        <ele>1176.4</ele>
      </trkpt>
      <trkpt lat="45.18869" lon="5.53442">
        <ele>1164.2</ele>
      </trkpt>
      <trkpt lat="45.18845" lon="5.53504">
        <ele>1149.9</ele>
      </trkpt>
      <trkpt lat="45.18804" lon="5.53572">
        <ele>1129.8</ele>
      </trkpt>
      <trkpt lat="45.18706" lon="5.53544">
        <ele>1118.5</ele>
      </trkpt>
      <trkpt lat="45.18662" lon="5.53519">
        <ele>1114.7</ele>
      </trkpt>
      <trkpt lat="45.1861" lon="5.53513">
        <ele>1107</ele>
      </trkpt>
      <trkpt lat="45.18595" lon="5.53586">
        <ele>1095.2</ele>
      </trkpt>
      <trkpt lat="45.18533" lon="5.53617">
        <ele>1083.9</ele>
      </trkpt>
      <trkpt lat="45.18476" lon="5.53642">
        <ele>1076.8</ele>
      </trkpt>
      <trkpt lat="45.18414" lon="5.53721">
        <ele>1073.8</ele>
      </trkpt>
      <trkpt lat="45.18414" lon="5.5372">
        <ele>1073.7</ele>
      </trkpt>
      <trkpt lat="45.18406" lon="5.53741">
        <ele>1073.9</ele>
      </trkpt>
      <trkpt lat="45.18327" lon="5.5374">
        <ele>1068.2</ele>
      </trkpt>
      <trkpt lat="45.18249" lon="5.53763">
        <ele>1064.4</ele>
      </trkpt>
      <trkpt lat="45.18128" lon="5.53757">
        <ele>1061.1</ele>
      </trkpt>
      <trkpt lat="45.1804" lon="5.54001">
        <ele>1059.9</ele>
      </trkpt>
      <trkpt lat="45.18045" lon="5.54005">
        <ele>1060.2</ele>
      </trkpt>
      <trkpt lat="45.18074" lon="5.54053">
        <ele>1061.6</ele>
      </trkpt>
      <trkpt lat="45.18093" lon="5.54133">
        <ele>1061.2</ele>
      </trkpt>
      <trkpt lat="45.18156" lon="5.54171">
        <ele>1063.4</ele>
      </trkpt>
      <trkpt lat="45.18049" lon="5.54399">
        <ele>1055.8</ele>
      </trkpt>
      <trkpt lat="45.18147" lon="5.54449">
        <ele>1061.3</ele>
      </trkpt>
      <trkpt lat="45.18217" lon="5.54455">
        <ele>1066.1</ele>
      </trkpt>
      <trkpt lat="45.17875" lon="5.55119">
        <ele>1056.6</ele>
      </trkpt>
      <trkpt lat="45.17933" lon="5.55343">
        <ele>1058.5</ele>
      </trkpt>
      <trkpt lat="45.18081" lon="5.5557">
        <ele>1062.1</ele>
      </trkpt>
      <trkpt lat="45.18175" lon="5.5575">
        <ele>1067.7</ele>
      </trkpt>
      <trkpt lat="45.18362" lon="5.55879">
        <ele>1072.7</ele>
      </trkpt>
      <trkpt lat="45.18509" lon="5.5605">
        <ele>1078.6</ele>
      </trkpt>
      <trkpt lat="45.1862" lon="5.562">
        <ele>1083</ele>
      </trkpt>
      <trkpt lat="45.18784" lon="5.56224">
        <ele>1083.6</ele>
      </trkpt>
      <trkpt lat="45.18905" lon="5.5634">
        <ele>1077.8</ele>
      </trkpt>
      <trkpt lat="45.1899" lon="5.56345">
        <ele>1087.8</ele>
      </trkpt>
      <trkpt lat="45.19173" lon="5.56479">
        <ele>1093.2</ele>
      </trkpt>
      <trkpt lat="45.19474" lon="5.56672">
        <ele>1102.5</ele>
      </trkpt>
      <trkpt lat="45.1964" lon="5.56872">
        <ele>1101.1</ele>
      </trkpt>
      <trkpt lat="45.19799" lon="5.56878">
        <ele>1105</ele>
      </trkpt>
      <trkpt lat="45.20216" lon="5.57114">
        <ele>1121.2</ele>
      </trkpt>
      <trkpt lat="45.20327" lon="5.57135">
        <ele>1124.3</ele>
      </trkpt>
      <trkpt lat="45.20399" lon="5.57234">
        <ele>1127.2</ele>
      </trkpt>
      <trkpt lat="45.21009" lon="5.57512">
        <ele>1151.4</ele>
      </trkpt>
      <trkpt lat="45.21227" lon="5.57572">
        <ele>1169.6</ele>
      </trkpt>
      <trkpt lat="45.21414" lon="5.57651">
        <ele>1181.5</ele>
      </trkpt>
      <trkpt lat="45.21418" lon="5.57655">
        <ele>1181.1</ele>
      </trkpt>
      <trkpt lat="45.21233" lon="5.57579">
        <ele>1169.4</ele>
      </trkpt>
      <trkpt lat="45.21007" lon="5.5752">
        <ele>1150.9</ele>
      </trkpt>
      <trkpt lat="45.20889" lon="5.57472">
        <ele>1145.7</ele>
      </trkpt>
      <trkpt lat="45.20397" lon="5.57216">
        <ele>1127</ele>
      </trkpt>
      <trkpt lat="45.20315" lon="5.57137">
        <ele>1123.7</ele>
      </trkpt>
      <trkpt lat="45.20213" lon="5.57106">
        <ele>1121.1</ele>
      </trkpt>
      <trkpt lat="45.20059" lon="5.57015">
        <ele>1112</ele>
      </trkpt>
      <trkpt lat="45.19771" lon="5.56878">
        <ele>1103</ele>
      </trkpt>
      <trkpt lat="45.19631" lon="5.56854">
        <ele>1102.1</ele>
      </trkpt>
      <trkpt lat="45.1945" lon="5.56665">
        <ele>1099.2</ele>
      </trkpt>
      <trkpt lat="45.19195" lon="5.5648">
        <ele>1095.2</ele>
      </trkpt>
      <trkpt lat="45.19102" lon="5.5643">
        <ele>1092.6</ele>
      </trkpt>
      <trkpt lat="45.18982" lon="5.56337">
        <ele>1086.5</ele>
      </trkpt>
      <trkpt lat="45.18892" lon="5.56327">
        <ele>1078.7</ele>
      </trkpt>
      <trkpt lat="45.18776" lon="5.56217">
        <ele>1084</ele>
      </trkpt>
      <trkpt lat="45.18624" lon="5.56194">
        <ele>1083</ele>
      </trkpt>
      <trkpt lat="45.18511" lon="5.56083">
        <ele>1077.9</ele>
      </trkpt>
      <trkpt lat="45.18489" lon="5.56035">
        <ele>1077.5</ele>
      </trkpt>
      <trkpt lat="45.18359" lon="5.55878">
        <ele>1072.5</ele>
      </trkpt>
      <trkpt lat="45.18174" lon="5.55755">
        <ele>1067.7</ele>
      </trkpt>
      <trkpt lat="45.18066" lon="5.55558">
        <ele>1061.9</ele>
      </trkpt>
      <trkpt lat="45.1798" lon="5.55405">
        <ele>1061.1</ele>
      </trkpt>
      <trkpt lat="45.17862" lon="5.55136">
        <ele>1055.8</ele>
      </trkpt>
      <trkpt lat="45.17697" lon="5.54781">
        <ele>1046.5</ele>
      </trkpt>
      <trkpt lat="45.17678" lon="5.54647">
        <ele>1046.5</ele>
      </trkpt>
      <trkpt lat="45.1752" lon="5.5426">
        <ele>1044.4</ele>
      </trkpt>
      <trkpt lat="45.1746" lon="5.54244">
        <ele>1043.1</ele>
      </trkpt>
      <trkpt lat="45.17402" lon="5.5421">
        <ele>1041.2</ele>
      </trkpt>
      <trkpt lat="45.17403" lon="5.5421">
        <ele>1041.2</ele>
      </trkpt>
      <trkpt lat="45.17406" lon="5.54211">
        <ele>1041.4</ele>
      </trkpt>
      <trkpt lat="45.17406" lon="5.5421">
        <ele>1041.4</ele>
      </trkpt>
      <trkpt lat="45.17279" lon="5.54196">
        <ele>1038.9</ele>
      </trkpt>
      <trkpt lat="45.17152" lon="5.54101">
        <ele>1043.6</ele>
      </trkpt>
      <trkpt lat="45.17093" lon="5.54051">
        <ele>1039.5</ele>
      </trkpt>
      <trkpt lat="45.16999" lon="5.5394">
        <ele>1039.6</ele>
      </trkpt>
      <trkpt lat="45.1685" lon="5.53883">
        <ele>1037.2</ele>
      </trkpt>
      <trkpt lat="45.16794" lon="5.53906">
        <ele>1042.3</ele>
      </trkpt>
      <trkpt lat="45.16743" lon="5.53902">
        <ele>1045.5</ele>
      </trkpt>
      <trkpt lat="45.16662" lon="5.53818">
        <ele>1049.1</ele>
      </trkpt>
      <trkpt lat="45.16513" lon="5.53749">
        <ele>1044.3</ele>
      </trkpt>
      <trkpt lat="45.16422" lon="5.53663">
        <ele>1043.5</ele>
      </trkpt>
      <trkpt lat="45.1639" lon="5.53671">
        <ele>1046.2</ele>
      </trkpt>
      <trkpt lat="45.16317" lon="5.53602">
        <ele>1043.5</ele>
      </trkpt>
      <trkpt lat="45.16266" lon="5.5359">
        <ele>1041.8</ele>
      </trkpt>
      <trkpt lat="45.16174" lon="5.53596">
        <ele>1036.9</ele>
      </trkpt>
      <trkpt lat="45.16066" lon="5.53527">
        <ele>1037</ele>
      </trkpt>
      <trkpt lat="45.15969" lon="5.53401">
        <ele>1041.2</ele>
      </trkpt>
      <trkpt lat="45.15939" lon="5.53294">
        <ele>1032.1</ele>
      </trkpt>
      <trkpt lat="45.15783" lon="5.53084">
        <ele>1023.4</ele>
      </trkpt>
      <trkpt lat="45.15754" lon="5.52981">
        <ele>1021.9</ele>
      </trkpt>
      <trkpt lat="45.15721" lon="5.52933">
        <ele>1018.3</ele>
      </trkpt>
      <trkpt lat="45.15584" lon="5.52883">
        <ele>1014.6</ele>
      </trkpt>
      <trkpt lat="45.15468" lon="5.52807">
        <ele>1016.4</ele>
      </trkpt>
      <trkpt lat="45.15279" lon="5.52715">
        <ele>1012.4</ele>
      </trkpt>
      <trkpt lat="45.14996" lon="5.52627">
        <ele>1003.3</ele>
      </trkpt>
      <trkpt lat="45.15093" lon="5.52306">
        <ele>998.5</ele>
      </trkpt>
      <trkpt lat="45.14848" lon="5.52144">
        <ele>993</ele>
      </trkpt>
      <trkpt lat="45.14724" lon="5.52022">
        <ele>993.9</ele>
      </trkpt>
      <trkpt lat="45.14576" lon="5.51811">
        <ele>1005.6</ele>
      </trkpt>
      <trkpt lat="45.14492" lon="5.52029">
        <ele>987.9</ele>
      </trkpt>
      <trkpt lat="45.14403" lon="5.52083">
        <ele>990</ele>
      </trkpt>
      <trkpt lat="45.14344" lon="5.52079">
        <ele>990.3</ele>
      </trkpt>
      <trkpt lat="45.1432" lon="5.52098">
        <ele>990</ele>
      </trkpt>
      <trkpt lat="45.14312" lon="5.52129">
        <ele>988.7</ele>
      </trkpt>
      <trkpt lat="45.14207" lon="5.52106">
        <ele>990.2</ele>
      </trkpt>
      <trkpt lat="45.14118" lon="5.52129">
        <ele>986.9</ele>
      </trkpt>
      <trkpt lat="45.14093" lon="5.52163">
        <ele>989.6</ele>
      </trkpt>
      <trkpt lat="45.13916" lon="5.52251">
        <ele>982</ele>
      </trkpt>
      <trkpt lat="45.13732" lon="5.52278">
        <ele>979.1</ele>
      </trkpt>
      <trkpt lat="45.13695" lon="5.52316">
        <ele>980.5</ele>
      </trkpt>
      <trkpt lat="45.13627" lon="5.52316">
        <ele>979.4</ele>
      </trkpt>
      <trkpt lat="45.13506" lon="5.52373">
        <ele>980.8</ele>
      </trkpt>
      <trkpt lat="45.13457" lon="5.52369">
        <ele>979</ele>
      </trkpt>
      <trkpt lat="45.13185" lon="5.52618">
        <ele>979.2</ele>
      </trkpt>
      <trkpt lat="45.13145" lon="5.52767">
        <ele>976</ele>
      </trkpt>
      <trkpt lat="45.13088" lon="5.52801">
        <ele>976.9</ele>
      </trkpt>
      <trkpt lat="45.12943" lon="5.52797">
        <ele>985.2</ele>
      </trkpt>
      <trkpt lat="45.128" lon="5.52763">
        <ele>990.4</ele>
      </trkpt>
      <trkpt lat="45.12733" lon="5.52717">
        <ele>991.5</ele>
      </trkpt>
      <trkpt lat="45.12695" lon="5.52725">
        <ele>992.8</ele>
      </trkpt>
      <trkpt lat="45.12657" lon="5.52771">
        <ele>992.3</ele>
      </trkpt>
      <trkpt lat="45.12609" lon="5.52805">
        <ele>991.3</ele>
      </trkpt>
      <trkpt lat="45.12517" lon="5.52939">
        <ele>981</ele>
      </trkpt>
      <trkpt lat="45.12468" lon="5.52981">
        <ele>979.7</ele>
      </trkpt>
      <trkpt lat="45.12415" lon="5.52974">
        <ele>982.9</ele>
      </trkpt>
      <trkpt lat="45.12353" lon="5.52981">
        <ele>981.2</ele>
      </trkpt>
      <trkpt lat="45.12301" lon="5.52993">
        <ele>979.7</ele>
      </trkpt>
      <trkpt lat="45.12255" lon="5.53023">
        <ele>976.8</ele>
      </trkpt>
      <trkpt lat="45.12248" lon="5.53052">
        <ele>974</ele>
      </trkpt>
      <trkpt lat="45.1225" lon="5.53058">
        <ele>973.4</ele>
      </trkpt>
      <trkpt lat="45.11599" lon="5.53186">
        <ele>964.8</ele>
      </trkpt>
      <trkpt lat="45.11445" lon="5.53122">
        <ele>964.3</ele>
      </trkpt>
      <trkpt lat="45.11251" lon="5.53128">
        <ele>958.5</ele>
      </trkpt>
      <trkpt lat="45.10853" lon="5.5292">
        <ele>977.6</ele>
      </trkpt>
      <trkpt lat="45.10775" lon="5.52994">
        <ele>990.6</ele>
      </trkpt>
      <trkpt lat="45.10612" lon="5.5292">
        <ele>976.1</ele>
      </trkpt>
      <trkpt lat="45.10537" lon="5.53001">
        <ele>988.6</ele>
      </trkpt>
      <trkpt lat="45.10484" lon="5.52988">
        <ele>999.7</ele>
      </trkpt>
      <trkpt lat="45.10462" lon="5.52904">
        <ele>999.1</ele>
      </trkpt>
      <trkpt lat="45.10479" lon="5.52809">
        <ele>985.7</ele>
      </trkpt>
      <trkpt lat="45.1053" lon="5.52726">
        <ele>978</ele>
      </trkpt>
      <trkpt lat="45.105" lon="5.52693">
        <ele>976.1</ele>
      </trkpt>
      <trkpt lat="45.10398" lon="5.52674">
        <ele>980.6</ele>
      </trkpt>
      <trkpt lat="45.10341" lon="5.52705">
        <ele>984.9</ele>
      </trkpt>
      <trkpt lat="45.10249" lon="5.52693">
        <ele>983.6</ele>
      </trkpt>
      <trkpt lat="45.10188" lon="5.52789">
        <ele>992.2</ele>
      </trkpt>
      <trkpt lat="45.10122" lon="5.52798">
        <ele>994.7</ele>
      </trkpt>
      <trkpt lat="45.10069" lon="5.52755">
        <ele>993.2</ele>
      </trkpt>
      <trkpt lat="45.09973" lon="5.52554">
        <ele>963.5</ele>
      </trkpt>
      <trkpt lat="45.09931" lon="5.52526">
        <ele>961.3</ele>
      </trkpt>
      <trkpt lat="45.09863" lon="5.52565">
        <ele>961.1</ele>
      </trkpt>
      <trkpt lat="45.09813" lon="5.52736">
        <ele>982.4</ele>
      </trkpt>
      <trkpt lat="45.09772" lon="5.52756">
        <ele>992.7</ele>
      </trkpt>
      <trkpt lat="45.09735" lon="5.52722">
        <ele>978.6</ele>
      </trkpt>
      <trkpt lat="45.09692" lon="5.52613">
        <ele>954.9</ele>
      </trkpt>
      <trkpt lat="45.09637" lon="5.52616">
        <ele>952.6</ele>
      </trkpt>
      <trkpt lat="45.09561" lon="5.52658">
        <ele>954.5</ele>
      </trkpt>
      <trkpt lat="45.09492" lon="5.52642">
        <ele>951</ele>
      </trkpt>
      <trkpt lat="45.09433" lon="5.52608">
        <ele>946.9</ele>
      </trkpt>
      <trkpt lat="45.09329" lon="5.5272">
        <ele>953.1</ele>
      </trkpt>
      <trkpt lat="45.09261" lon="5.52736">
        <ele>964.7</ele>
      </trkpt>
      <trkpt lat="45.09209" lon="5.52697">
        <ele>973.6</ele>
      </trkpt>
      <trkpt lat="45.09157" lon="5.52461">
        <ele>948.9</ele>
      </trkpt>
      <trkpt lat="45.09121" lon="5.52423">
        <ele>948</ele>
      </trkpt>
      <trkpt lat="45.09076" lon="5.52434">
        <ele>944.2</ele>
      </trkpt>
      <trkpt lat="45.0897" lon="5.52537">
        <ele>948.7</ele>
      </trkpt>
      <trkpt lat="45.08905" lon="5.52527">
        <ele>961.4</ele>
      </trkpt>
      <trkpt lat="45.08807" lon="5.52415">
        <ele>943.5</ele>
      </trkpt>
      <trkpt lat="45.08757" lon="5.52398">
        <ele>944</ele>
      </trkpt>
      <trkpt lat="45.08581" lon="5.52439">
        <ele>933.5</ele>
      </trkpt>
      <trkpt lat="45.08575" lon="5.52433">
        <ele>933.3</ele>
      </trkpt>
      <trkpt lat="45.08452" lon="5.52893">
        <ele>952.5</ele>
      </trkpt>
      <trkpt lat="45.08442" lon="5.52998">
        <ele>960.1</ele>
      </trkpt>
      <trkpt lat="45.08419" lon="5.53062">
        <ele>960.5</ele>
      </trkpt>
      <trkpt lat="45.08177" lon="5.53289">
        <ele>951</ele>
      </trkpt>
      <trkpt lat="45.07968" lon="5.53403">
        <ele>950.2</ele>
      </trkpt>
      <trkpt lat="45.07781" lon="5.53693">
        <ele>967.5</ele>
      </trkpt>
      <trkpt lat="45.07625" lon="5.53704">
        <ele>961.5</ele>
      </trkpt>
      <trkpt lat="45.07585" lon="5.53848">
        <ele>952.9</ele>
      </trkpt>
      <trkpt lat="45.07298" lon="5.54042">
        <ele>963.8</ele>
      </trkpt>
      <trkpt lat="45.07388" lon="5.54122">
        <ele>965</ele>
      </trkpt>
      <trkpt lat="45.07398" lon="5.54158">
        <ele>965</ele>
      </trkpt>
      <trkpt lat="45.0735" lon="5.54341">
        <ele>972.2</ele>
      </trkpt>
      <trkpt lat="45.0731" lon="5.54389">
        <ele>979.4</ele>
      </trkpt>
      <trkpt lat="45.07386" lon="5.54589">
        <ele>975.2</ele>
      </trkpt>
      <trkpt lat="45.0738" lon="5.54639">
        <ele>967.8</ele>
      </trkpt>
      <trkpt lat="45.07352" lon="5.54681">
        <ele>963.9</ele>
      </trkpt>
      <trkpt lat="45.07346" lon="5.54698">
        <ele>964.5</ele>
      </trkpt>
      <trkpt lat="45.07354" lon="5.54742">
        <ele>966</ele>
      </trkpt>
      <trkpt lat="45.0737" lon="5.54819">
        <ele>971.8</ele>
      </trkpt>
      <trkpt lat="45.07343" lon="5.54826">
        <ele>975.1</ele>
      </trkpt>
      <trkpt lat="45.07318" lon="5.54805">
        <ele>975.7</ele>
      </trkpt>
      <trkpt lat="45.0731" lon="5.54793">
        <ele>975.1</ele>
      </trkpt>
      <trkpt lat="45.07236" lon="5.54775">
        <ele>980.6</ele>
      </trkpt>
      <trkpt lat="45.07216" lon="5.54786">
        <ele>984.6</ele>
      </trkpt>
      <trkpt lat="45.07201" lon="5.54855">
        <ele>998.7</ele>
      </trkpt>
      <trkpt lat="45.07146" lon="5.54833">
        <ele>1001.1</ele>
      </trkpt>
      <trkpt lat="45.07024" lon="5.54824">
        <ele>1005.9</ele>
      </trkpt>
      <trkpt lat="45.06927" lon="5.54848">
        <ele>1006.3</ele>
      </trkpt>
      <trkpt lat="45.06899" lon="5.54903">
        <ele>1008.2</ele>
      </trkpt>
      <trkpt lat="45.06919" lon="5.54951">
        <ele>1015</ele>
      </trkpt>
      <trkpt lat="45.06855" lon="5.55229">
        <ele>1009.8</ele>
      </trkpt>
      <trkpt lat="45.06813" lon="5.55323">
        <ele>1008.4</ele>
      </trkpt>
      <trkpt lat="45.06769" lon="5.55309">
        <ele>1004.8</ele>
      </trkpt>
      <trkpt lat="45.06688" lon="5.55552">
        <ele>1019.7</ele>
      </trkpt>
      <trkpt lat="45.06628" lon="5.55616">
        <ele>1026.3</ele>
      </trkpt>
      <trkpt lat="45.06611" lon="5.55678">
        <ele>1030.4</ele>
      </trkpt>
      <trkpt lat="45.06621" lon="5.55697">
        <ele>1031.2</ele>
      </trkpt>
      <trkpt lat="45.06584" lon="5.55731">
        <ele>1031.8</ele>
      </trkpt>
      <trkpt lat="45.06557" lon="5.55819">
        <ele>1040.1</ele>
      </trkpt>
      <trkpt lat="45.06652" lon="5.55856">
        <ele>1047.1</ele>
      </trkpt>
      <trkpt lat="45.06595" lon="5.55894">
        <ele>1049.6</ele>
      </trkpt>
      <trkpt lat="45.06511" lon="5.55891">
        <ele>1047.7</ele>
      </trkpt>
      <trkpt lat="45.06476" lon="5.55918">
        <ele>1051.8</ele>
      </trkpt>
      <trkpt lat="45.06463" lon="5.56016">
        <ele>1056</ele>
      </trkpt>
      <trkpt lat="45.06435" lon="5.56094">
        <ele>1061.6</ele>
      </trkpt>
      <trkpt lat="45.06402" lon="5.56107">
        <ele>1065.3</ele>
      </trkpt>
      <trkpt lat="45.06346" lon="5.56004">
        <ele>1071.6</ele>
      </trkpt>
      <trkpt lat="45.06265" lon="5.55795">
        <ele>1077.5</ele>
      </trkpt>
      <trkpt lat="45.06256" lon="5.55729">
        <ele>1076</ele>
      </trkpt>
      <trkpt lat="45.06152" lon="5.55562">
        <ele>1061.2</ele>
      </trkpt>
      <trkpt lat="45.06119" lon="5.55579">
        <ele>1057.5</ele>
      </trkpt>
      <trkpt lat="45.06091" lon="5.55643">
        <ele>1055.4</ele>
      </trkpt>
      <trkpt lat="45.06052" lon="5.55652">
        <ele>1057</ele>
      </trkpt>
      <trkpt lat="45.05992" lon="5.55589">
        <ele>1061.5</ele>
      </trkpt>
      <trkpt lat="45.05963" lon="5.55587">
        <ele>1066.7</ele>
      </trkpt>
      <trkpt lat="45.0592" lon="5.555">
        <ele>1061.6</ele>
      </trkpt>
      <trkpt lat="45.05879" lon="5.55496">
        <ele>1062.4</ele>
      </trkpt>
      <trkpt lat="45.05781" lon="5.55605">
        <ele>1077.8</ele>
      </trkpt>
      <trkpt lat="45.05647" lon="5.55636">
        <ele>1099.6</ele>
      </trkpt>
      <trkpt lat="45.0564" lon="5.55662">
        <ele>1106.3</ele>
      </trkpt>
      <trkpt lat="45.05654" lon="5.5569">
        <ele>1105.8</ele>
      </trkpt>
      <trkpt lat="45.05726" lon="5.55681">
        <ele>1093.7</ele>
      </trkpt>
      <trkpt lat="45.0576" lon="5.55699">
        <ele>1094.8</ele>
      </trkpt>
      <trkpt lat="45.05756" lon="5.55721">
        <ele>1099.4</ele>
      </trkpt>
      <trkpt lat="45.05745" lon="5.5573">
        <ele>1102.2</ele>
      </trkpt>
      <trkpt lat="45.05659" lon="5.55745">
        <ele>1113.4</ele>
      </trkpt>
      <trkpt lat="45.05623" lon="5.55752">
        <ele>1123.9</ele>
      </trkpt>
      <trkpt lat="45.05601" lon="5.55709">
        <ele>1124.9</ele>
      </trkpt>
      <trkpt lat="45.05573" lon="5.55652">
        <ele>1127.5</ele>
      </trkpt>
      <trkpt lat="45.05488" lon="5.55546">
        <ele>1138.3</ele>
      </trkpt>
      <trkpt lat="45.05443" lon="5.55441">
        <ele>1127.7</ele>
      </trkpt>
      <trkpt lat="45.05401" lon="5.55378">
        <ele>1130.1</ele>
      </trkpt>
      <trkpt lat="45.05387" lon="5.55354">
        <ele>1130.9</ele>
      </trkpt>
      <trkpt lat="45.05255" lon="5.55285">
        <ele>1121.9</ele>
      </trkpt>
      <trkpt lat="45.05192" lon="5.55294">
        <ele>1121.8</ele>
      </trkpt>
      <trkpt lat="45.05165" lon="5.55272">
        <ele>1119</ele>
      </trkpt>
      <trkpt lat="45.05051" lon="5.55171">
        <ele>1115.9</ele>
      </trkpt>
      <trkpt lat="45.04918" lon="5.55204">
        <ele>1128.2</ele>
      </trkpt>
      <trkpt lat="45.04845" lon="5.55214">
        <ele>1124.9</ele>
      </trkpt>
      <trkpt lat="45.04809" lon="5.55351">
        <ele>1122.7</ele>
      </trkpt>
      <trkpt lat="45.04808" lon="5.55426">
        <ele>1124.8</ele>
      </trkpt>
      <trkpt lat="45.04807" lon="5.55537">
        <ele>1129.3</ele>
      </trkpt>
      <trkpt lat="45.04785" lon="5.55557">
        <ele>1130</ele>
      </trkpt>
      <trkpt lat="45.04756" lon="5.5555">
        <ele>1128.6</ele>
      </trkpt>
      <trkpt lat="45.04728" lon="5.55527">
        <ele>1126.5</ele>
      </trkpt>
      <trkpt lat="45.04714" lon="5.55484">
        <ele>1123.4</ele>
      </trkpt>
      <trkpt lat="45.04693" lon="5.55448">
        <ele>1121.8</ele>
      </trkpt>
      <trkpt lat="45.0467" lon="5.55445">
        <ele>1123.5</ele>
      </trkpt>
      <trkpt lat="45.04662" lon="5.55509">
        <ele>1126.7</ele>
      </trkpt>
      <trkpt lat="45.0464" lon="5.55532">
        <ele>1125</ele>
      </trkpt>
      <trkpt lat="45.04596" lon="5.55547">
        <ele>1121.1</ele>
      </trkpt>
      <trkpt lat="45.04558" lon="5.55573">
        <ele>1115.8</ele>
      </trkpt>
      <trkpt lat="45.04534" lon="5.55709">
        <ele>1123.9</ele>
      </trkpt>
      <trkpt lat="45.04464" lon="5.55839">
        <ele>1133.3</ele>
      </trkpt>
      <trkpt lat="45.04411" lon="5.55769">
        <ele>1131.3</ele>
      </trkpt>
      <trkpt lat="45.04368" lon="5.55671">
        <ele>1145.8</ele>
      </trkpt>
      <trkpt lat="45.04288" lon="5.55517">
        <ele>1156.6</ele>
      </trkpt>
      <trkpt lat="45.04227" lon="5.55383">
        <ele>1165.2</ele>
      </trkpt>
      <trkpt lat="45.04135" lon="5.55199">
        <ele>1163.1</ele>
      </trkpt>
      <trkpt lat="45.0415" lon="5.55131">
        <ele>1151.7</ele>
      </trkpt>
      <trkpt lat="45.04134" lon="5.55092">
        <ele>1155</ele>
      </trkpt>
      <trkpt lat="45.04205" lon="5.54982">
        <ele>1140.8</ele>
      </trkpt>
      <trkpt lat="45.0424" lon="5.5493">
        <ele>1138.7</ele>
      </trkpt>
      <trkpt lat="45.04265" lon="5.54891">
        <ele>1135.2</ele>
      </trkpt>
      <trkpt lat="45.04269" lon="5.54847">
        <ele>1134.2</ele>
      </trkpt>
      <trkpt lat="45.04242" lon="5.54818">
        <ele>1134.1</ele>
      </trkpt>
      <trkpt lat="45.04183" lon="5.54824">
        <ele>1136.1</ele>
      </trkpt>
      <trkpt lat="45.04166" lon="5.54713">
        <ele>1134.5</ele>
      </trkpt>
      <trkpt lat="45.0423" lon="5.5463">
        <ele>1120.8</ele>
      </trkpt>
      <trkpt lat="45.0425" lon="5.54568">
        <ele>1116.8</ele>
      </trkpt>
      <trkpt lat="45.04237" lon="5.54416">
        <ele>1109.5</ele>
      </trkpt>
      <trkpt lat="45.04186" lon="5.54178">
        <ele>1087.6</ele>
      </trkpt>
      <trkpt lat="45.04145" lon="5.54155">
        <ele>1093.5</ele>
      </trkpt>
      <trkpt lat="45.04142" lon="5.54034">
        <ele>1091.2</ele>
      </trkpt>
      <trkpt lat="45.04113" lon="5.53939">
        <ele>1093.9</ele>
      </trkpt>
      <trkpt lat="45.04082" lon="5.53883">
        <ele>1095.5</ele>
      </trkpt>
      <trkpt lat="45.0392" lon="5.53733">
        <ele>1098</ele>
      </trkpt>
      <trkpt lat="45.03888" lon="5.53718">
        <ele>1099.1</ele>
      </trkpt>
      <trkpt lat="45.03663" lon="5.53459">
        <ele>1100.5</ele>
      </trkpt>
      <trkpt lat="45.03655" lon="5.53403">
        <ele>1095.3</ele>
      </trkpt>
      <trkpt lat="45.0346" lon="5.53331">
        <ele>1093.4</ele>
      </trkpt>
      <trkpt lat="45.03381" lon="5.53281">
        <ele>1099.4</ele>
      </trkpt>
      <trkpt lat="45.03329" lon="5.53134">
        <ele>1095.1</ele>
      </trkpt>
      <trkpt lat="45.03273" lon="5.53143">
        <ele>1099.3</ele>
      </trkpt>
      <trkpt lat="45.0324" lon="5.5309">
        <ele>1099.6</ele>
      </trkpt>
      <trkpt lat="45.03172" lon="5.53043">
        <ele>1104.7</ele>
      </trkpt>
      <trkpt lat="45.0318" lon="5.52993">
        <ele>1101.3</ele>
      </trkpt>
      <trkpt lat="45.03115" lon="5.5292">
        <ele>1102.4</ele>
      </trkpt>
      <trkpt lat="45.0309" lon="5.52755">
        <ele>1102.2</ele>
      </trkpt>
      <trkpt lat="45.02985" lon="5.52775">
        <ele>1106.7</ele>
      </trkpt>
      <trkpt lat="45.0293" lon="5.52775">
        <ele>1110.8</ele>
      </trkpt>
      <trkpt lat="45.02905" lon="5.52713">
        <ele>1110.4</ele>
      </trkpt>
      <trkpt lat="45.0289" lon="5.52698">
        <ele>1112</ele>
      </trkpt>
      <trkpt lat="45.02834" lon="5.52683">
        <ele>1119</ele>
      </trkpt>
      <trkpt lat="45.02807" lon="5.5265">
        <ele>1121.1</ele>
      </trkpt>
      <trkpt lat="45.02805" lon="5.52503">
        <ele>1119.4</ele>
      </trkpt>
      <trkpt lat="45.02713" lon="5.52512">
        <ele>1126</ele>
      </trkpt>
      <trkpt lat="45.02681" lon="5.52458">
        <ele>1128.2</ele>
      </trkpt>
      <trkpt lat="45.02638" lon="5.52329">
        <ele>1132.9</ele>
      </trkpt>
      <trkpt lat="45.02633" lon="5.52222">
        <ele>1131.9</ele>
      </trkpt>
      <trkpt lat="45.02619" lon="5.52152">
        <ele>1128.8</ele>
      </trkpt>
      <trkpt lat="45.02577" lon="5.52118">
        <ele>1134</ele>
      </trkpt>
      <trkpt lat="45.02615" lon="5.52057">
        <ele>1125.2</ele>
      </trkpt>
      <trkpt lat="45.02622" lon="5.5204">
        <ele>1123.9</ele>
      </trkpt>
      <trkpt lat="45.02499" lon="5.51828">
        <ele>1141.5</ele>
      </trkpt>
      <trkpt lat="45.02502" lon="5.51794">
        <ele>1144.3</ele>
      </trkpt>
      <trkpt lat="45.02397" lon="5.51698">
        <ele>1154.9</ele>
      </trkpt>
      <trkpt lat="45.02383" lon="5.51611">
        <ele>1165.7</ele>
      </trkpt>
      <trkpt lat="45.02479" lon="5.51533">
        <ele>1177.9</ele>
      </trkpt>
      <trkpt lat="45.02645" lon="5.51516">
        <ele>1190.6</ele>
      </trkpt>
      <trkpt lat="45.02662" lon="5.51497">
        <ele>1192.6</ele>
      </trkpt>
      <trkpt lat="45.02708" lon="5.51387">
        <ele>1198.3</ele>
      </trkpt>
      <trkpt lat="45.02755" lon="5.51355">
        <ele>1204.1</ele>
      </trkpt>
      <trkpt lat="45.02815" lon="5.51197">
        <ele>1206.2</ele>
      </trkpt>
      <trkpt lat="45.02923" lon="5.51136">
        <ele>1212</ele>
      </trkpt>
      <trkpt lat="45.02971" lon="5.51041">
        <ele>1214.1</ele>
      </trkpt>
      <trkpt lat="45.03002" lon="5.50934">
        <ele>1214.1</ele>
      </trkpt>
      <trkpt lat="45.03088" lon="5.50886">
        <ele>1220.2</ele>
      </trkpt>
      <trkpt lat="45.03152" lon="5.50847">
        <ele>1226</ele>
      </trkpt>
      <trkpt lat="45.03189" lon="5.5075">
        <ele>1229.3</ele>
      </trkpt>
      <trkpt lat="45.03349" lon="5.50779">
        <ele>1238.5</ele>
      </trkpt>
      <trkpt lat="45.03429" lon="5.50757">
        <ele>1238.4</ele>
      </trkpt>
      <trkpt lat="45.0352" lon="5.50808">
        <ele>1238.9</ele>
      </trkpt>
      <trkpt lat="45.03688" lon="5.50825">
        <ele>1245.2</ele>
      </trkpt>
      <trkpt lat="45.03681" lon="5.50879">
        <ele>1248.3</ele>
      </trkpt>
      <trkpt lat="45.0357" lon="5.50907">
        <ele>1246.3</ele>
      </trkpt>
      <trkpt lat="45.03527" lon="5.51024">
        <ele>1251.8</ele>
      </trkpt>
      <trkpt lat="45.0351" lon="5.51079">
        <ele>1248.9</ele>
      </trkpt>
      <trkpt lat="45.03491" lon="5.5108">
        <ele>1250.1</ele>
      </trkpt>
      <trkpt lat="45.03492" lon="5.51114">
        <ele>1249.5</ele>
      </trkpt>
      <trkpt lat="45.0346" lon="5.5117">
        <ele>1257.7</ele>
      </trkpt>
      <trkpt lat="45.03457" lon="5.5122">
        <ele>1261.2</ele>
      </trkpt>
      <trkpt lat="45.03477" lon="5.51214">
        <ele>1256.9</ele>
      </trkpt>
      <trkpt lat="45.03469" lon="5.51273">
        <ele>1262.1</ele>
      </trkpt>
      <trkpt lat="45.03477" lon="5.51303">
        <ele>1262.6</ele>
      </trkpt>
      <trkpt lat="45.03478" lon="5.51361">
        <ele>1262</ele>
      </trkpt>
      <trkpt lat="45.03504" lon="5.51374">
        <ele>1260.1</ele>
      </trkpt>
      <trkpt lat="45.03535" lon="5.51397">
        <ele>1259.5</ele>
      </trkpt>
      <trkpt lat="45.03545" lon="5.51348">
        <ele>1261.4</ele>
      </trkpt>
      <trkpt lat="45.03564" lon="5.51269">
        <ele>1259.2</ele>
      </trkpt>
      <trkpt lat="45.03586" lon="5.51218">
        <ele>1257.8</ele>
      </trkpt>
      <trkpt lat="45.03586" lon="5.51155">
        <ele>1255.2</ele>
      </trkpt>
      <trkpt lat="45.03577" lon="5.51111">
        <ele>1253.3</ele>
      </trkpt>
      <trkpt lat="45.03599" lon="5.51062">
        <ele>1254</ele>
      </trkpt>
      <trkpt lat="45.03635" lon="5.51011">
        <ele>1255</ele>
      </trkpt>
      <trkpt lat="45.03656" lon="5.50928">
        <ele>1251.3</ele>
      </trkpt>
      <trkpt lat="45.03681" lon="5.50879">
        <ele>1248.3</ele>
      </trkpt>
      <trkpt lat="45.03689" lon="5.50829">
        <ele>1245.2</ele>
      </trkpt>
      <trkpt lat="45.037" lon="5.50813">
        <ele>1244.8</ele>
      </trkpt>
      <trkpt lat="45.03669" lon="5.50727">
        <ele>1246.4</ele>
      </trkpt>
      <trkpt lat="45.03667" lon="5.50662">
        <ele>1250.3</ele>
      </trkpt>
      <trkpt lat="45.03678" lon="5.50632">
        <ele>1252.4</ele>
      </trkpt>
      <trkpt lat="45.03684" lon="5.5061">
        <ele>1253.7</ele>
      </trkpt>
      <trkpt lat="45.03691" lon="5.50539">
        <ele>1257.6</ele>
      </trkpt>
      <trkpt lat="45.03733" lon="5.50493">
        <ele>1260</ele>
      </trkpt>
      <trkpt lat="45.03764" lon="5.50473">
        <ele>1262.2</ele>
      </trkpt>
      <trkpt lat="45.03818" lon="5.5038">
        <ele>1270</ele>
      </trkpt>
      <trkpt lat="45.03887" lon="5.5029">
        <ele>1278.5</ele>
      </trkpt>
      <trkpt lat="45.03891" lon="5.50288">
        <ele>1278.8</ele>
      </trkpt>
      <trkpt lat="45.03865" lon="5.50249">
        <ele>1279.6</ele>
      </trkpt>
      <trkpt lat="45.03853" lon="5.50175">
        <ele>1284.4</ele>
      </trkpt>
      <trkpt lat="45.03882" lon="5.50083">
        <ele>1291.2</ele>
      </trkpt>
      <trkpt lat="45.03918" lon="5.50071">
        <ele>1288</ele>
      </trkpt>
      <trkpt lat="45.03995" lon="5.50066">
        <ele>1289.9</ele>
      </trkpt>
      <trkpt lat="45.04071" lon="5.5007">
        <ele>1290.3</ele>
      </trkpt>
      <trkpt lat="45.04157" lon="5.50075">
        <ele>1291.4</ele>
      </trkpt>
      <trkpt lat="45.04208" lon="5.50026">
        <ele>1289.4</ele>
      </trkpt>
      <trkpt lat="45.04253" lon="5.4995">
        <ele>1289.6</ele>
      </trkpt>
      <trkpt lat="45.04276" lon="5.49839">
        <ele>1295.6</ele>
      </trkpt>
      <trkpt lat="45.04259" lon="5.49745">
        <ele>1310.9</ele>
      </trkpt>
      <trkpt lat="45.04223" lon="5.49714">
        <ele>1318.9</ele>
      </trkpt>
      <trkpt lat="45.04151" lon="5.49696">
        <ele>1321.8</ele>
      </trkpt>
      <trkpt lat="45.04079" lon="5.49678">
        <ele>1328.1</ele>
      </trkpt>
      <trkpt lat="45.04024" lon="5.49628">
        <ele>1345.2</ele>
      </trkpt>
      <trkpt lat="45.03942" lon="5.4961">
        <ele>1349.3</ele>
      </trkpt>
      <trkpt lat="45.03912" lon="5.49589">
        <ele>1353.2</ele>
      </trkpt>
      <trkpt lat="45.03867" lon="5.49559">
        <ele>1357.9</ele>
      </trkpt>
      <trkpt lat="45.03835" lon="5.4952">
        <ele>1365.4</ele>
      </trkpt>
      <trkpt lat="45.03811" lon="5.49429">
        <ele>1387</ele>
      </trkpt>
      <trkpt lat="45.03784" lon="5.49428">
        <ele>1386.6</ele>
      </trkpt>
      <trkpt lat="45.03751" lon="5.49429">
        <ele>1385.1</ele>
      </trkpt>
      <trkpt lat="45.03701" lon="5.49403">
        <ele>1389.7</ele>
      </trkpt>
      <trkpt lat="45.03704" lon="5.49388">
        <ele>1392.5</ele>
      </trkpt>
      <trkpt lat="45.03795" lon="5.49381">
        <ele>1393.6</ele>
      </trkpt>
      <trkpt lat="45.03848" lon="5.494">
        <ele>1392.4</ele>
      </trkpt>
      <trkpt lat="45.03894" lon="5.49408">
        <ele>1392.3</ele>
      </trkpt>
      <trkpt lat="45.03922" lon="5.49412">
        <ele>1392.7</ele>
      </trkpt>
      <trkpt lat="45.04038" lon="5.49372">
        <ele>1406.4</ele>
      </trkpt>
      <trkpt lat="45.04156" lon="5.49353">
        <ele>1419.5</ele>
      </trkpt>
      <trkpt lat="45.0424" lon="5.49323">
        <ele>1429.1</ele>
      </trkpt>
      <trkpt lat="45.04307" lon="5.49337">
        <ele>1432.7</ele>
      </trkpt>
      <trkpt lat="45.04339" lon="5.49329">
        <ele>1435.8</ele>
      </trkpt>
      <trkpt lat="45.04418" lon="5.493">
        <ele>1444.1</ele>
      </trkpt>
      <trkpt lat="45.04491" lon="5.49277">
        <ele>1451</ele>
      </trkpt>
      <trkpt lat="45.04518" lon="5.4925">
        <ele>1455.6</ele>
      </trkpt>
      <trkpt lat="45.04529" lon="5.49232">
        <ele>1459</ele>
      </trkpt>
      <trkpt lat="45.04532" lon="5.49129">
        <ele>1468.9</ele>
      </trkpt>
      <trkpt lat="45.04567" lon="5.49043">
        <ele>1480.3</ele>
      </trkpt>
      <trkpt lat="45.04614" lon="5.49008">
        <ele>1487.9</ele>
      </trkpt>
      <trkpt lat="45.04655" lon="5.48987">
        <ele>1494.5</ele>
      </trkpt>
      <trkpt lat="45.04688" lon="5.48989">
        <ele>1499</ele>
      </trkpt>
      <trkpt lat="45.04739" lon="5.48935">
        <ele>1509.5</ele>
      </trkpt>
      <trkpt lat="45.04801" lon="5.48873">
        <ele>1519.3</ele>
      </trkpt>
      <trkpt lat="45.04828" lon="5.48828">
        <ele>1521.9</ele>
      </trkpt>
      <trkpt lat="45.04839" lon="5.48806">
        <ele>1522.5</ele>
      </trkpt>
      <trkpt lat="45.04847" lon="5.48759">
        <ele>1523</ele>
      </trkpt>
      <trkpt lat="45.04847" lon="5.48736">
        <ele>1522.1</ele>
      </trkpt>
      <trkpt lat="45.04872" lon="5.48691">
        <ele>1519.6</ele>
      </trkpt>
      <trkpt lat="45.04876" lon="5.48653">
        <ele>1516.4</ele>
      </trkpt>
      <trkpt lat="45.0486" lon="5.48643">
        <ele>1516</ele>
      </trkpt>
      <trkpt lat="45.04879" lon="5.48653">
        <ele>1516.4</ele>
      </trkpt>
      <trkpt lat="45.04966" lon="5.48572">
        <ele>1517.9</ele>
      </trkpt>
      <trkpt lat="45.05042" lon="5.48528">
        <ele>1526.2</ele>
      </trkpt>
      <trkpt lat="45.05077" lon="5.48502">
        <ele>1528.6</ele>
      </trkpt>
      <trkpt lat="45.05099" lon="5.48475">
        <ele>1529.1</ele>
      </trkpt>
      <trkpt lat="45.05123" lon="5.4842">
        <ele>1530.4</ele>
      </trkpt>
      <trkpt lat="45.05148" lon="5.48348">
        <ele>1529.6</ele>
      </trkpt>
      <trkpt lat="45.05063" lon="5.48331">
        <ele>1528.9</ele>
      </trkpt>
      <trkpt lat="45.04988" lon="5.48308">
        <ele>1536.2</ele>
      </trkpt>
      <trkpt lat="45.04945" lon="5.48279">
        <ele>1537.6</ele>
      </trkpt>
      <trkpt lat="45.04902" lon="5.48267">
        <ele>1539.4</ele>
      </trkpt>
      <trkpt lat="45.04878" lon="5.4823">
        <ele>1538.4</ele>
      </trkpt>
      <trkpt lat="45.04833" lon="5.48215">
        <ele>1538.6</ele>
      </trkpt>
      <trkpt lat="45.048" lon="5.48183">
        <ele>1531.6</ele>
      </trkpt>
      <trkpt lat="45.04789" lon="5.48166">
        <ele>1526.9</ele>
      </trkpt>
      <trkpt lat="45.04776" lon="5.48225">
        <ele>1543</ele>
      </trkpt>
      <trkpt lat="45.04729" lon="5.48229">
        <ele>1544.8</ele>
      </trkpt>
      <trkpt lat="45.0471" lon="5.48213">
        <ele>1539.6</ele>
      </trkpt>
      <trkpt lat="45.04675" lon="5.48238">
        <ele>1546.1</ele>
      </trkpt>
      <trkpt lat="45.0463" lon="5.48213">
        <ele>1534.2</ele>
      </trkpt>
      <trkpt lat="45.04595" lon="5.48239">
        <ele>1537</ele>
      </trkpt>
      <trkpt lat="45.04554" lon="5.48246">
        <ele>1533.6</ele>
      </trkpt>
      <trkpt lat="45.04509" lon="5.48318">
        <ele>1524.7</ele>
      </trkpt>
      <trkpt lat="45.04502" lon="5.48325">
        <ele>1523.7</ele>
      </trkpt>
      <trkpt lat="45.04486" lon="5.48304">
        <ele>1520.7</ele>
      </trkpt>
      <trkpt lat="45.04485" lon="5.48332">
        <ele>1518.7</ele>
      </trkpt>
      <trkpt lat="45.04483" lon="5.48379">
        <ele>1514.3</ele>
      </trkpt>
      <trkpt lat="45.04425" lon="5.48348">
        <ele>1498.7</ele>
      </trkpt>
      <trkpt lat="45.04397" lon="5.48285">
        <ele>1495.5</ele>
      </trkpt>
      <trkpt lat="45.04378" lon="5.48228">
        <ele>1491.8</ele>
      </trkpt>
      <trkpt lat="45.04376" lon="5.48181">
        <ele>1489.3</ele>
      </trkpt>
      <trkpt lat="45.04414" lon="5.48146">
        <ele>1489.4</ele>
      </trkpt>
      <trkpt lat="45.04451" lon="5.4813">
        <ele>1490.8</ele>
      </trkpt>
      <trkpt lat="45.04494" lon="5.48123">
        <ele>1495.6</ele>
      </trkpt>
      <trkpt lat="45.04544" lon="5.48098">
        <ele>1487.5</ele>
      </trkpt>
      <trkpt lat="45.04581" lon="5.481">
        <ele>1489.2</ele>
      </trkpt>
      <trkpt lat="45.04675" lon="5.48063">
        <ele>1470.2</ele>
      </trkpt>
      <trkpt lat="45.04711" lon="5.48055">
        <ele>1467.5</ele>
      </trkpt>
      <trkpt lat="45.04741" lon="5.48057">
        <ele>1468.7</ele>
      </trkpt>
      <trkpt lat="45.04788" lon="5.48046">
        <ele>1462.1</ele>
      </trkpt>
      <trkpt lat="45.04821" lon="5.48034">
        <ele>1455.1</ele>
      </trkpt>
      <trkpt lat="45.04851" lon="5.48035">
        <ele>1454.3</ele>
      </trkpt>
      <trkpt lat="45.04977" lon="5.48038">
        <ele>1451.9</ele>
      </trkpt>
      <trkpt lat="45.05106" lon="5.48045">
        <ele>1446.9</ele>
      </trkpt>
      <trkpt lat="45.05093" lon="5.48026">
        <ele>1438.3</ele>
      </trkpt>
      <trkpt lat="45.04994" lon="5.47992">
        <ele>1427.1</ele>
      </trkpt>
      <trkpt lat="45.04902" lon="5.47973">
        <ele>1423.3</ele>
      </trkpt>
      <trkpt lat="45.04788" lon="5.47929">
        <ele>1412.2</ele>
      </trkpt>
      <trkpt lat="45.0466" lon="5.47861">
        <ele>1401.4</ele>
      </trkpt>
      <trkpt lat="45.04536" lon="5.47793">
        <ele>1390.2</ele>
      </trkpt>
      <trkpt lat="45.04512" lon="5.47703">
        <ele>1376.2</ele>
      </trkpt>
      <trkpt lat="45.04511" lon="5.47652">
        <ele>1372.9</ele>
      </trkpt>
      <trkpt lat="45.04232" lon="5.47659">
        <ele>1372.3</ele>
      </trkpt>
      <trkpt lat="45.03794" lon="5.47808">
        <ele>1343.6</ele>
      </trkpt>
      <trkpt lat="45.0366" lon="5.47973">
        <ele>1327.6</ele>
      </trkpt>
      <trkpt lat="45.03409" lon="5.47968">
        <ele>1320.9</ele>
      </trkpt>
      <trkpt lat="45.03261" lon="5.47806">
        <ele>1304.5</ele>
      </trkpt>
      <trkpt lat="45.03265" lon="5.4778">
        <ele>1304.1</ele>
      </trkpt>
      <trkpt lat="45.03162" lon="5.47783">
        <ele>1296.8</ele>
      </trkpt>
      <trkpt lat="45.0307" lon="5.47737">
        <ele>1290.2</ele>
      </trkpt>
      <trkpt lat="45.02998" lon="5.47722">
        <ele>1288.5</ele>
      </trkpt>
      <trkpt lat="45.02907" lon="5.47717">
        <ele>1282.6</ele>
      </trkpt>
      <trkpt lat="45.02824" lon="5.47691">
        <ele>1283.7</ele>
      </trkpt>
      <trkpt lat="45.0276" lon="5.4772">
        <ele>1280.5</ele>
      </trkpt>
      <trkpt lat="45.02487" lon="5.47664">
        <ele>1285.2</ele>
      </trkpt>
      <trkpt lat="45.02412" lon="5.47659">
        <ele>1291.5</ele>
      </trkpt>
      <trkpt lat="45.02342" lon="5.47653">
        <ele>1295.6</ele>
      </trkpt>
      <trkpt lat="45.02121" lon="5.4757">
        <ele>1300.6</ele>
      </trkpt>
      <trkpt lat="45.02084" lon="5.4755">
        <ele>1302.7</ele>
      </trkpt>
      <trkpt lat="45.02016" lon="5.47521">
        <ele>1314.6</ele>
      </trkpt>
      <trkpt lat="45.02015" lon="5.4747">
        <ele>1311</ele>
      </trkpt>
      <trkpt lat="45.02005" lon="5.47413">
        <ele>1308.9</ele>
      </trkpt>
      <trkpt lat="45.01981" lon="5.47388">
        <ele>1313.2</ele>
      </trkpt>
      <trkpt lat="45.01954" lon="5.47327">
        <ele>1315.6</ele>
      </trkpt>
      <trkpt lat="45.01904" lon="5.47323">
        <ele>1316.8</ele>
      </trkpt>
      <trkpt lat="45.01822" lon="5.47272">
        <ele>1320.7</ele>
      </trkpt>
      <trkpt lat="45.01741" lon="5.47241">
        <ele>1322.1</ele>
      </trkpt>
      <trkpt lat="45.01718" lon="5.47229">
        <ele>1323.8</ele>
      </trkpt>
      <trkpt lat="45.01692" lon="5.47222">
        <ele>1324.8</ele>
      </trkpt>
      <trkpt lat="45.01633" lon="5.47262">
        <ele>1320.3</ele>
      </trkpt>
      <trkpt lat="45.01549" lon="5.47254">
        <ele>1318</ele>
      </trkpt>
      <trkpt lat="45.01516" lon="5.4718">
        <ele>1321.3</ele>
      </trkpt>
      <trkpt lat="45.01449" lon="5.47165">
        <ele>1314.6</ele>
      </trkpt>
      <trkpt lat="45.01426" lon="5.47094">
        <ele>1311.1</ele>
      </trkpt>
      <trkpt lat="45.01462" lon="5.47001">
        <ele>1309.3</ele>
      </trkpt>
      <trkpt lat="45.01534" lon="5.46912">
        <ele>1296.9</ele>
      </trkpt>
      <trkpt lat="45.01632" lon="5.46857">
        <ele>1294.6</ele>
      </trkpt>
      <trkpt lat="45.01695" lon="5.46825">
        <ele>1300.2</ele>
      </trkpt>
      <trkpt lat="45.01742" lon="5.46733">
        <ele>1276.1</ele>
      </trkpt>
      <trkpt lat="45.01788" lon="5.46648">
        <ele>1259.7</ele>
      </trkpt>
      <trkpt lat="45.0182" lon="5.46456">
        <ele>1214.8</ele>
      </trkpt>
      <trkpt lat="45.0177" lon="5.46468">
        <ele>1211</ele>
      </trkpt>
      <trkpt lat="45.01734" lon="5.46584">
        <ele>1217</ele>
      </trkpt>
      <trkpt lat="45.01496" lon="5.4671">
        <ele>1175.9</ele>
      </trkpt>
      <trkpt lat="45.01571" lon="5.46549">
        <ele>1160.1</ele>
      </trkpt>
      <trkpt lat="45.01565" lon="5.46526">
        <ele>1160.3</ele>
      </trkpt>
      <trkpt lat="45.01514" lon="5.46589">
        <ele>1140.3</ele>
      </trkpt>
      <trkpt lat="45.01403" lon="5.4667">
        <ele>1134.6</ele>
      </trkpt>
      <trkpt lat="45.01393" lon="5.46661">
        <ele>1129</ele>
      </trkpt>
      <trkpt lat="45.01441" lon="5.46577">
        <ele>1115.4</ele>
      </trkpt>
      <trkpt lat="45.01366" lon="5.46598">
        <ele>1102.7</ele>
      </trkpt>
      <trkpt lat="45.01356" lon="5.46584">
        <ele>1095.8</ele>
      </trkpt>
      <trkpt lat="45.01386" lon="5.4655">
        <ele>1098.4</ele>
      </trkpt>
      <trkpt lat="45.01119" lon="5.46617">
        <ele>1061.8</ele>
      </trkpt>
      <trkpt lat="45.00807" lon="5.46561">
        <ele>1016.9</ele>
      </trkpt>
      <trkpt lat="45.00824" lon="5.46539">
        <ele>1008.1</ele>
      </trkpt>
      <trkpt lat="45.00957" lon="5.46529">
        <ele>1001.8</ele>
      </trkpt>
      <trkpt lat="45.01046" lon="5.46505">
        <ele>997.5</ele>
      </trkpt>
      <trkpt lat="45.01086" lon="5.46482">
        <ele>997.5</ele>
      </trkpt>
      <trkpt lat="45.01093" lon="5.46462">
        <ele>997.4</ele>
      </trkpt>
      <trkpt lat="45.01048" lon="5.46462">
        <ele>986.2</ele>
      </trkpt>
      <trkpt lat="45.00997" lon="5.46447">
        <ele>970.3</ele>
      </trkpt>
      <trkpt lat="45.00808" lon="5.46382">
        <ele>936.5</ele>
      </trkpt>
      <trkpt lat="45.00618" lon="5.46354">
        <ele>918.3</ele>
      </trkpt>
      <trkpt lat="45.00383" lon="5.46164">
        <ele>869.9</ele>
      </trkpt>
      <trkpt lat="45.00319" lon="5.46155">
        <ele>869.1</ele>
      </trkpt>
      <trkpt lat="45.00288" lon="5.46092">
        <ele>849.1</ele>
      </trkpt>
      <trkpt lat="45.00192" lon="5.46087">
        <ele>849.1</ele>
      </trkpt>
      <trkpt lat="45.00141" lon="5.45997">
        <ele>836.1</ele>
      </trkpt>
      <trkpt lat="45.00129" lon="5.45765">
        <ele>818.1</ele>
      </trkpt>
      <trkpt lat="45.00235" lon="5.45649">
        <ele>794.1</ele>
      </trkpt>
      <trkpt lat="45.00302" lon="5.45468">
        <ele>778.8</ele>
      </trkpt>
      <trkpt lat="45.00341" lon="5.45224">
        <ele>751.7</ele>
      </trkpt>
      <trkpt lat="45.00326" lon="5.45171">
        <ele>748.8</ele>
      </trkpt>
      <trkpt lat="45.00367" lon="5.45173">
        <ele>742.6</ele>
      </trkpt>
      <trkpt lat="45.0041" lon="5.45135">
        <ele>733</ele>
      </trkpt>
      <trkpt lat="45.00404" lon="5.45121">
        <ele>732.3</ele>
      </trkpt>
      <trkpt lat="45.00414" lon="5.45112">
        <ele>730.1</ele>
      </trkpt>
      <trkpt lat="45.00403" lon="5.45083">
        <ele>728.8</ele>
      </trkpt>
      <trkpt lat="45.00422" lon="5.45066">
        <ele>725.3</ele>
      </trkpt>
      <trkpt lat="45.00422" lon="5.45041">
        <ele>723.4</ele>
      </trkpt>
      <trkpt lat="45.00461" lon="5.45051">
        <ele>720.8</ele>
      </trkpt>
      <trkpt lat="45.00478" lon="5.45044">
        <ele>719</ele>
      </trkpt>
      <trkpt lat="45.00485" lon="5.45018">
        <ele>717</ele>
      </trkpt>
      <trkpt lat="45.00427" lon="5.44812">
        <ele>715.1</ele>
      </trkpt>
      <trkpt lat="45.00382" lon="5.44717">
        <ele>713.5</ele>
      </trkpt>
      <trkpt lat="45.00342" lon="5.4475">
        <ele>719.3</ele>
      </trkpt>
      <trkpt lat="45.00295" lon="5.44756">
        <ele>722.7</ele>
      </trkpt>
      <trkpt lat="45.00267" lon="5.44737">
        <ele>723</ele>
      </trkpt>
      <trkpt lat="45.00205" lon="5.44736">
        <ele>729.6</ele>
      </trkpt>
      <trkpt lat="45.00149" lon="5.44684">
        <ele>730.8</ele>
      </trkpt>
      <trkpt lat="45.0006" lon="5.44701">
        <ele>742.4</ele>
      </trkpt>
      <trkpt lat="45.00031" lon="5.44666">
        <ele>744.6</ele>
      </trkpt>
      <trkpt lat="44.99996" lon="5.4452">
        <ele>746.8</ele>
      </trkpt>
      <trkpt lat="44.99962" lon="5.4446">
        <ele>742</ele>
      </trkpt>
      <trkpt lat="44.99979" lon="5.44411">
        <ele>739.7</ele>
      </trkpt>
      <trkpt lat="44.99999" lon="5.44405">
        <ele>741.7</ele>
      </trkpt>
      <trkpt lat="45.00024" lon="5.4438">
        <ele>738.6</ele>
      </trkpt>
      <trkpt lat="45.00065" lon="5.44356">
        <ele>737.7</ele>
      </trkpt>
      <trkpt lat="45.00094" lon="5.44323">
        <ele>733.9</ele>
      </trkpt>
      <trkpt lat="45.00112" lon="5.44294">
        <ele>730.2</ele>
      </trkpt>
      <trkpt lat="45.00111" lon="5.44157">
        <ele>731.3</ele>
      </trkpt>
      <trkpt lat="45.0001" lon="5.44164">
        <ele>721.7</ele>
      </trkpt>
      <trkpt lat="44.9998" lon="5.44183">
        <ele>716.1</ele>
      </trkpt>
      <trkpt lat="44.99938" lon="5.44165">
        <ele>708.1</ele>
      </trkpt>
      <trkpt lat="44.99878" lon="5.44194">
        <ele>703.6</ele>
      </trkpt>
      <trkpt lat="44.99876" lon="5.44163">
        <ele>701.6</ele>
      </trkpt>
      <trkpt lat="44.99916" lon="5.44079">
        <ele>702.4</ele>
      </trkpt>
      <trkpt lat="44.99917" lon="5.44021">
        <ele>708.2</ele>
      </trkpt>
      <trkpt lat="44.99879" lon="5.44023">
        <ele>714.6</ele>
      </trkpt>
      <trkpt lat="44.99897" lon="5.43928">
        <ele>717.8</ele>
      </trkpt>
      <trkpt lat="44.99903" lon="5.4378">
        <ele>729.7</ele>
      </trkpt>
      <trkpt lat="44.99952" lon="5.43698">
        <ele>725.3</ele>
      </trkpt>
      <trkpt lat="44.99985" lon="5.43683">
        <ele>718.7</ele>
      </trkpt>
      <trkpt lat="44.99989" lon="5.43618">
        <ele>721.3</ele>
      </trkpt>
      <trkpt lat="44.99986" lon="5.4357">
        <ele>722.1</ele>
      </trkpt>
      <trkpt lat="44.99952" lon="5.43587">
        <ele>728.7</ele>
      </trkpt>
      <trkpt lat="44.99922" lon="5.43549">
        <ele>731.7</ele>
      </trkpt>
      <trkpt lat="44.99888" lon="5.43569">
        <ele>736.7</ele>
      </trkpt>
      <trkpt lat="44.99826" lon="5.43535">
        <ele>739.6</ele>
      </trkpt>
      <trkpt lat="44.99719" lon="5.43567">
        <ele>748.1</ele>
      </trkpt>
      <trkpt lat="44.9964" lon="5.43591">
        <ele>749.4</ele>
      </trkpt>
      <trkpt lat="44.9961" lon="5.43582">
        <ele>749.5</ele>
      </trkpt>
      <trkpt lat="44.99581" lon="5.43595">
        <ele>751.3</ele>
      </trkpt>
      <trkpt lat="44.99539" lon="5.43559">
        <ele>756</ele>
      </trkpt>
      <trkpt lat="44.9947" lon="5.4357">
        <ele>759.6</ele>
      </trkpt>
      <trkpt lat="44.99313" lon="5.43468">
        <ele>793.2</ele>
      </trkpt>
      <trkpt lat="44.99241" lon="5.43476">
        <ele>801.5</ele>
      </trkpt>
      <trkpt lat="44.99118" lon="5.4343">
        <ele>824.1</ele>
      </trkpt>
      <trkpt lat="44.98988" lon="5.43452">
        <ele>837.4</ele>
      </trkpt>
      <trkpt lat="44.98723" lon="5.43387">
        <ele>853.3</ele>
      </trkpt>
      <trkpt lat="44.98679" lon="5.4339">
        <ele>856.9</ele>
      </trkpt>
      <trkpt lat="44.98495" lon="5.43357">
        <ele>868.8</ele>
      </trkpt>
      <trkpt lat="44.98416" lon="5.43337">
        <ele>872</ele>
      </trkpt>
      <trkpt lat="44.98246" lon="5.43352">
        <ele>864.2</ele>
      </trkpt>
      <trkpt lat="44.98175" lon="5.43325">
        <ele>867.9</ele>
      </trkpt>
      <trkpt lat="44.98082" lon="5.43307">
        <ele>871.9</ele>
      </trkpt>
      <trkpt lat="44.97955" lon="5.43254">
        <ele>881.6</ele>
      </trkpt>
      <trkpt lat="44.97613" lon="5.43141">
        <ele>891.5</ele>
      </trkpt>
      <trkpt lat="44.97535" lon="5.43115">
        <ele>890.1</ele>
      </trkpt>
      <trkpt lat="44.97362" lon="5.42989">
        <ele>891.9</ele>
      </trkpt>
      <trkpt lat="44.97289" lon="5.4296">
        <ele>884.6</ele>
      </trkpt>
      <trkpt lat="44.97111" lon="5.429">
        <ele>879.1</ele>
      </trkpt>
      <trkpt lat="44.97106" lon="5.429">
        <ele>878.9</ele>
      </trkpt>
      <trkpt lat="44.97033" lon="5.42865">
        <ele>876.2</ele>
      </trkpt>
      <trkpt lat="44.96905" lon="5.42886">
        <ele>876</ele>
      </trkpt>
      <trkpt lat="44.96845" lon="5.42847">
        <ele>873.6</ele>
      </trkpt>
      <trkpt lat="44.96798" lon="5.42742">
        <ele>868.9</ele>
      </trkpt>
      <trkpt lat="44.96704" lon="5.42666">
        <ele>869.7</ele>
      </trkpt>
      <trkpt lat="44.96646" lon="5.42566">
        <ele>870.3</ele>
      </trkpt>
      <trkpt lat="44.96589" lon="5.42498">
        <ele>872.1</ele>
      </trkpt>
      <trkpt lat="44.96532" lon="5.4236">
        <ele>885</ele>
      </trkpt>
      <trkpt lat="44.96538" lon="5.42341">
        <ele>887.7</ele>
      </trkpt>
      <trkpt lat="44.96531" lon="5.42296">
        <ele>893.8</ele>
      </trkpt>
      <trkpt lat="44.96515" lon="5.42259">
        <ele>898.8</ele>
      </trkpt>
      <trkpt lat="44.96479" lon="5.42198">
        <ele>905</ele>
      </trkpt>
      <trkpt lat="44.96532" lon="5.42182">
        <ele>907.1</ele>
      </trkpt>
      <trkpt lat="44.96539" lon="5.42166">
        <ele>908.6</ele>
      </trkpt>
      <trkpt lat="44.96541" lon="5.4209">
        <ele>914.1</ele>
      </trkpt>
      <trkpt lat="44.96642" lon="5.41868">
        <ele>892.4</ele>
      </trkpt>
      <trkpt lat="44.96713" lon="5.4168">
        <ele>891.2</ele>
      </trkpt>
      <trkpt lat="44.96712" lon="5.41669">
        <ele>890.7</ele>
      </trkpt>
      <trkpt lat="44.96738" lon="5.41657">
        <ele>891.1</ele>
      </trkpt>
      <trkpt lat="44.96769" lon="5.41615">
        <ele>890.6</ele>
      </trkpt>
      <trkpt lat="44.96796" lon="5.41616">
        <ele>892.2</ele>
      </trkpt>
      <trkpt lat="44.96823" lon="5.41547">
        <ele>893</ele>
      </trkpt>
      <trkpt lat="44.96878" lon="5.41521">
        <ele>897.2</ele>
      </trkpt>
      <trkpt lat="44.96987" lon="5.41573">
        <ele>903.4</ele>
      </trkpt>
      <trkpt lat="44.97068" lon="5.41569">
        <ele>906</ele>
      </trkpt>
      <trkpt lat="44.97139" lon="5.41557">
        <ele>909</ele>
      </trkpt>
      <trkpt lat="44.97193" lon="5.4158">
        <ele>913.6</ele>
      </trkpt>
      <trkpt lat="44.97236" lon="5.41638">
        <ele>918.5</ele>
      </trkpt>
      <trkpt lat="44.9728" lon="5.417">
        <ele>923.1</ele>
      </trkpt>
      <trkpt lat="44.97308" lon="5.41707">
        <ele>924.8</ele>
      </trkpt>
      <trkpt lat="44.97292" lon="5.417">
        <ele>923.5</ele>
      </trkpt>
      <trkpt lat="44.97196" lon="5.41567">
        <ele>912.2</ele>
      </trkpt>
      <trkpt lat="44.97109" lon="5.41562">
        <ele>907.7</ele>
      </trkpt>
      <trkpt lat="44.96979" lon="5.4158">
        <ele>903</ele>
      </trkpt>
      <trkpt lat="44.96871" lon="5.41517">
        <ele>896.7</ele>
      </trkpt>
      <trkpt lat="44.96802" lon="5.41542">
        <ele>891</ele>
      </trkpt>
      <trkpt lat="44.96749" lon="5.41645">
        <ele>890.9</ele>
      </trkpt>
      <trkpt lat="44.96733" lon="5.4167">
        <ele>891.5</ele>
      </trkpt>
      <trkpt lat="44.96708" lon="5.41662">
        <ele>890.2</ele>
      </trkpt>
      <trkpt lat="44.96645" lon="5.4188">
        <ele>892.7</ele>
      </trkpt>
      <trkpt lat="44.96381" lon="5.41889">
        <ele>887.9</ele>
      </trkpt>
      <trkpt lat="44.96271" lon="5.41976">
        <ele>883.2</ele>
      </trkpt>
      <trkpt lat="44.96199" lon="5.41974">
        <ele>877</ele>
      </trkpt>
      <trkpt lat="44.96061" lon="5.42049">
        <ele>869.8</ele>
      </trkpt>
      <trkpt lat="44.96034" lon="5.42173">
        <ele>869</ele>
      </trkpt>
      <trkpt lat="44.95702" lon="5.42362">
        <ele>872.1</ele>
      </trkpt>
      <trkpt lat="44.95647" lon="5.42459">
        <ele>874.6</ele>
      </trkpt>
      <trkpt lat="44.95525" lon="5.42536">
        <ele>884.9</ele>
      </trkpt>
      <trkpt lat="44.95525" lon="5.42536">
        <ele>884.9</ele>
      </trkpt>
      <trkpt lat="44.95478" lon="5.42566">
        <ele>882.4</ele>
      </trkpt>
      <trkpt lat="44.95476" lon="5.42578">
        <ele>880.2</ele>
      </trkpt>
      <trkpt lat="44.95311" lon="5.42796">
        <ele>869.3</ele>
      </trkpt>
      <trkpt lat="44.95144" lon="5.42905">
        <ele>859.2</ele>
      </trkpt>
      <trkpt lat="44.95069" lon="5.42936">
        <ele>855.8</ele>
      </trkpt>
      <trkpt lat="44.94847" lon="5.42902">
        <ele>853.2</ele>
      </trkpt>
      <trkpt lat="44.9441" lon="5.42892">
        <ele>828.5</ele>
      </trkpt>
      <trkpt lat="44.94114" lon="5.43009">
        <ele>818.2</ele>
      </trkpt>
      <trkpt lat="44.9394" lon="5.43048">
        <ele>815.2</ele>
      </trkpt>
      <trkpt lat="44.93534" lon="5.43004">
        <ele>800.4</ele>
      </trkpt>
      <trkpt lat="44.93528" lon="5.43003">
        <ele>800</ele>
      </trkpt>
      <trkpt lat="44.93529" lon="5.43006">
        <ele>800.1</ele>
      </trkpt>
      <trkpt lat="44.93525" lon="5.43004">
        <ele>799.8</ele>
      </trkpt>
      <trkpt lat="44.93516" lon="5.43004">
        <ele>799.2</ele>
      </trkpt>
      <trkpt lat="44.93483" lon="5.42995">
        <ele>797.4</ele>
      </trkpt>
      <trkpt lat="44.93404" lon="5.42958">
        <ele>796.5</ele>
      </trkpt>
      <trkpt lat="44.93398" lon="5.42951">
        <ele>797</ele>
      </trkpt>
      <trkpt lat="44.93291" lon="5.42937">
        <ele>795</ele>
      </trkpt>
      <trkpt lat="44.93191" lon="5.42887">
        <ele>792.7</ele>
      </trkpt>
      <trkpt lat="44.93055" lon="5.42779">
        <ele>799.5</ele>
      </trkpt>
      <trkpt lat="44.9258" lon="5.4273">
        <ele>807.2</ele>
      </trkpt>
      <trkpt lat="44.92346" lon="5.42787">
        <ele>810.1</ele>
      </trkpt>
      <trkpt lat="44.92173" lon="5.42815">
        <ele>814.1</ele>
      </trkpt>
      <trkpt lat="44.9207" lon="5.42809">
        <ele>816.2</ele>
      </trkpt>
      <trkpt lat="44.91978" lon="5.42834">
        <ele>813</ele>
      </trkpt>
      <trkpt lat="44.91888" lon="5.42816">
        <ele>817.5</ele>
      </trkpt>
      <trkpt lat="44.91778" lon="5.4276">
        <ele>825.8</ele>
      </trkpt>
      <trkpt lat="44.91728" lon="5.42732">
        <ele>831.4</ele>
      </trkpt>
      <trkpt lat="44.91495" lon="5.42703">
        <ele>823.6</ele>
      </trkpt>
      <trkpt lat="44.91374" lon="5.42684">
        <ele>823</ele>
      </trkpt>
      <trkpt lat="44.91142" lon="5.42669">
        <ele>826.8</ele>
      </trkpt>
      <trkpt lat="44.91012" lon="5.42635">
        <ele>830.7</ele>
      </trkpt>
      <trkpt lat="44.90878" lon="5.42657">
        <ele>830.4</ele>
      </trkpt>
      <trkpt lat="44.90844" lon="5.42657">
        <ele>829.8</ele>
      </trkpt>
      <trkpt lat="44.90738" lon="5.42596">
        <ele>834.1</ele>
      </trkpt>
      <trkpt lat="44.90684" lon="5.42574">
        <ele>838.2</ele>
      </trkpt>
      <trkpt lat="44.90523" lon="5.42563">
        <ele>840</ele>
      </trkpt>
      <trkpt lat="44.9028" lon="5.42543">
        <ele>837</ele>
      </trkpt>
      <trkpt lat="44.90088" lon="5.42531">
        <ele>836.7</ele>
      </trkpt>
      <trkpt lat="44.89664" lon="5.42333">
        <ele>847.2</ele>
      </trkpt>
      <trkpt lat="44.89574" lon="5.42333">
        <ele>851.4</ele>
      </trkpt>
      <trkpt lat="44.89172" lon="5.42124">
        <ele>861.5</ele>
      </trkpt>
      <trkpt lat="44.89039" lon="5.42142">
        <ele>865</ele>
      </trkpt>
      <trkpt lat="44.88489" lon="5.42051">
        <ele>879.5</ele>
      </trkpt>
      <trkpt lat="44.88374" lon="5.4207">
        <ele>889.4</ele>
      </trkpt>
      <trkpt lat="44.88115" lon="5.41939">
        <ele>895.4</ele>
      </trkpt>
      <trkpt lat="44.87954" lon="5.41938">
        <ele>901.1</ele>
      </trkpt>
      <trkpt lat="44.87979" lon="5.41962">
        <ele>904.7</ele>
      </trkpt>
      <trkpt lat="44.88132" lon="5.42058">
        <ele>914.2</ele>
      </trkpt>
      <trkpt lat="44.88166" lon="5.42089">
        <ele>917.3</ele>
      </trkpt>
      <trkpt lat="44.88219" lon="5.42091">
        <ele>912.9</ele>
      </trkpt>
      <trkpt lat="44.88268" lon="5.42182">
        <ele>930.6</ele>
      </trkpt>
      <trkpt lat="44.88382" lon="5.42252">
        <ele>927.4</ele>
      </trkpt>
      <trkpt lat="44.88392" lon="5.42395">
        <ele>957.6</ele>
      </trkpt>
      <trkpt lat="44.88405" lon="5.42406">
        <ele>954.7</ele>
      </trkpt>
      <trkpt lat="44.88452" lon="5.42357">
        <ele>938.3</ele>
      </trkpt>
      <trkpt lat="44.88465" lon="5.42358">
        <ele>938</ele>
      </trkpt>
      <trkpt lat="44.88481" lon="5.42438">
        <ele>960.4</ele>
      </trkpt>
      <trkpt lat="44.88535" lon="5.4241">
        <ele>958.4</ele>
      </trkpt>
      <trkpt lat="44.88564" lon="5.42358">
        <ele>945</ele>
      </trkpt>
      <trkpt lat="44.88689" lon="5.42401">
        <ele>956.8</ele>
      </trkpt>
      <trkpt lat="44.88724" lon="5.42439">
        <ele>960.1</ele>
      </trkpt>
      <trkpt lat="44.88715" lon="5.42467">
        <ele>966.6</ele>
      </trkpt>
      <trkpt lat="44.88675" lon="5.42495">
        <ele>980.2</ele>
      </trkpt>
      <trkpt lat="44.88663" lon="5.42536">
        <ele>987</ele>
      </trkpt>
      <trkpt lat="44.8869" lon="5.42566">
        <ele>984.7</ele>
      </trkpt>
      <trkpt lat="44.88738" lon="5.426">
        <ele>980.1</ele>
      </trkpt>
      <trkpt lat="44.88764" lon="5.42676">
        <ele>988.8</ele>
      </trkpt>
      <trkpt lat="44.88776" lon="5.42694">
        <ele>988.9</ele>
      </trkpt>
      <trkpt lat="44.88778" lon="5.42744">
        <ele>995.5</ele>
      </trkpt>
      <trkpt lat="44.8881" lon="5.42776">
        <ele>989.1</ele>
      </trkpt>
      <trkpt lat="44.88835" lon="5.42883">
        <ele>999.5</ele>
      </trkpt>
      <trkpt lat="44.88824" lon="5.4289">
        <ele>1006.8</ele>
      </trkpt>
      <trkpt lat="44.88796" lon="5.42817">
        <ele>1002.3</ele>
      </trkpt>
      <trkpt lat="44.88775" lon="5.42787">
        <ele>1005.2</ele>
      </trkpt>
      <trkpt lat="44.8875" lon="5.42781">
        <ele>1014</ele>
      </trkpt>
      <trkpt lat="44.88743" lon="5.4278">
        <ele>1015.8</ele>
      </trkpt>
      <trkpt lat="44.88539" lon="5.4265">
        <ele>1020</ele>
      </trkpt>
      <trkpt lat="44.88511" lon="5.42687">
        <ele>1032.4</ele>
      </trkpt>
      <trkpt lat="44.8848" lon="5.42675">
        <ele>1030.9</ele>
      </trkpt>
      <trkpt lat="44.88458" lon="5.42666">
        <ele>1029.5</ele>
      </trkpt>
      <trkpt lat="44.88363" lon="5.42664">
        <ele>1040.9</ele>
      </trkpt>
      <trkpt lat="44.88283" lon="5.42646">
        <ele>1050.5</ele>
      </trkpt>
      <trkpt lat="44.8819" lon="5.42621">
        <ele>1070.1</ele>
      </trkpt>
      <trkpt lat="44.88169" lon="5.42534">
        <ele>1053.7</ele>
      </trkpt>
      <trkpt lat="44.88074" lon="5.42583">
        <ele>1077.8</ele>
      </trkpt>
      <trkpt lat="44.88044" lon="5.42543">
        <ele>1066.8</ele>
      </trkpt>
      <trkpt lat="44.88003" lon="5.42551">
        <ele>1072.9</ele>
      </trkpt>
      <trkpt lat="44.87969" lon="5.42583">
        <ele>1085.3</ele>
      </trkpt>
      <trkpt lat="44.8794" lon="5.42581">
        <ele>1086.1</ele>
      </trkpt>
      <trkpt lat="44.87916" lon="5.42603">
        <ele>1095.7</ele>
      </trkpt>
      <trkpt lat="44.87892" lon="5.42597">
        <ele>1096.7</ele>
      </trkpt>
      <trkpt lat="44.87876" lon="5.42575">
        <ele>1090.8</ele>
      </trkpt>
      <trkpt lat="44.87839" lon="5.42581">
        <ele>1098.2</ele>
      </trkpt>
      <trkpt lat="44.87794" lon="5.42547">
        <ele>1092.7</ele>
      </trkpt>
      <trkpt lat="44.87702" lon="5.42519">
        <ele>1094.6</ele>
      </trkpt>
      <trkpt lat="44.87551" lon="5.42529">
        <ele>1112.7</ele>
      </trkpt>
      <trkpt lat="44.87495" lon="5.42562">
        <ele>1127</ele>
      </trkpt>
      <trkpt lat="44.87437" lon="5.42535">
        <ele>1122.9</ele>
      </trkpt>
      <trkpt lat="44.87371" lon="5.42539">
        <ele>1130.5</ele>
      </trkpt>
      <trkpt lat="44.87342" lon="5.42543">
        <ele>1134.1</ele>
      </trkpt>
      <trkpt lat="44.87271" lon="5.42518">
        <ele>1129.2</ele>
      </trkpt>
      <trkpt lat="44.87348" lon="5.42579">
        <ele>1145.4</ele>
      </trkpt>
      <trkpt lat="44.87414" lon="5.4258">
        <ele>1143.8</ele>
      </trkpt>
      <trkpt lat="44.87481" lon="5.42625">
        <ele>1155.6</ele>
      </trkpt>
      <trkpt lat="44.87579" lon="5.42649">
        <ele>1158</ele>
      </trkpt>
      <trkpt lat="44.8781" lon="5.42777">
        <ele>1180.6</ele>
      </trkpt>
      <trkpt lat="44.87871" lon="5.42817">
        <ele>1189</ele>
      </trkpt>
      <trkpt lat="44.87964" lon="5.42832">
        <ele>1185.6</ele>
      </trkpt>
      <trkpt lat="44.88021" lon="5.42895">
        <ele>1201.6</ele>
      </trkpt>
      <trkpt lat="44.88072" lon="5.42898">
        <ele>1193.9</ele>
      </trkpt>
      <trkpt lat="44.88129" lon="5.42976">
        <ele>1202.5</ele>
      </trkpt>
      <trkpt lat="44.88166" lon="5.43009">
        <ele>1203.7</ele>
      </trkpt>
      <trkpt lat="44.8829" lon="5.43084">
        <ele>1214.3</ele>
      </trkpt>
      <trkpt lat="44.88327" lon="5.43102">
        <ele>1217.8</ele>
      </trkpt>
      <trkpt lat="44.88348" lon="5.43118">
        <ele>1225.9</ele>
      </trkpt>
      <trkpt lat="44.88401" lon="5.43121">
        <ele>1225</ele>
      </trkpt>
      <trkpt lat="44.88454" lon="5.43106">
        <ele>1210.8</ele>
      </trkpt>
      <trkpt lat="44.88548" lon="5.43201">
        <ele>1235.4</ele>
      </trkpt>
      <trkpt lat="44.8861" lon="5.43334">
        <ele>1248.3</ele>
      </trkpt>
      <trkpt lat="44.88636" lon="5.4336">
        <ele>1239</ele>
      </trkpt>
      <trkpt lat="44.88669" lon="5.43526">
        <ele>1261.3</ele>
      </trkpt>
      <trkpt lat="44.88727" lon="5.4365">
        <ele>1271.2</ele>
      </trkpt>
      <trkpt lat="44.88739" lon="5.43684">
        <ele>1278.3</ele>
      </trkpt>
      <trkpt lat="44.88785" lon="5.43705">
        <ele>1267.6</ele>
      </trkpt>
      <trkpt lat="44.88825" lon="5.43773">
        <ele>1274.8</ele>
      </trkpt>
      <trkpt lat="44.88864" lon="5.43846">
        <ele>1288</ele>
      </trkpt>
      <trkpt lat="44.88925" lon="5.43877">
        <ele>1289</ele>
      </trkpt>
      <trkpt lat="44.8896" lon="5.43882">
        <ele>1287</ele>
      </trkpt>
      <trkpt lat="44.88949" lon="5.439">
        <ele>1295.6</ele>
      </trkpt>
      <trkpt lat="44.88903" lon="5.43891">
        <ele>1297.6</ele>
      </trkpt>
      <trkpt lat="44.8885" lon="5.4387">
        <ele>1297.6</ele>
      </trkpt>
      <trkpt lat="44.88812" lon="5.43917">
        <ele>1312.2</ele>
      </trkpt>
      <trkpt lat="44.88785" lon="5.43928">
        <ele>1315.3</ele>
      </trkpt>
      <trkpt lat="44.88701" lon="5.43849">
        <ele>1324.7</ele>
      </trkpt>
      <trkpt lat="44.887" lon="5.43828">
        <ele>1323.2</ele>
      </trkpt>
      <trkpt lat="44.8872" lon="5.43751">
        <ele>1307.6</ele>
      </trkpt>
      <trkpt lat="44.8872" lon="5.43745">
        <ele>1305.8</ele>
      </trkpt>
      <trkpt lat="44.88698" lon="5.43725">
        <ele>1306.4</ele>
      </trkpt>
      <trkpt lat="44.88613" lon="5.43702">
        <ele>1333</ele>
      </trkpt>
      <trkpt lat="44.8861" lon="5.43739">
        <ele>1341.1</ele>
      </trkpt>
      <trkpt lat="44.88646" lon="5.43791">
        <ele>1335.4</ele>
      </trkpt>
      <trkpt lat="44.8867" lon="5.43872">
        <ele>1335.8</ele>
      </trkpt>
      <trkpt lat="44.88668" lon="5.43956">
        <ele>1340.7</ele>
      </trkpt>
      <trkpt lat="44.8864" lon="5.44013">
        <ele>1352.8</ele>
      </trkpt>
      <trkpt lat="44.88643" lon="5.44044">
        <ele>1352.6</ele>
      </trkpt>
      <trkpt lat="44.8866" lon="5.44141">
        <ele>1355.1</ele>
      </trkpt>
      <trkpt lat="44.8865" lon="5.44187">
        <ele>1361.5</ele>
      </trkpt>
      <trkpt lat="44.88632" lon="5.44213">
        <ele>1364.9</ele>
      </trkpt>
      <trkpt lat="44.88559" lon="5.44222">
        <ele>1368.9</ele>
      </trkpt>
      <trkpt lat="44.88462" lon="5.44402">
        <ele>1363.7</ele>
      </trkpt>
      <trkpt lat="44.88454" lon="5.44404">
        <ele>1363.8</ele>
      </trkpt>
      <trkpt lat="44.88464" lon="5.44396">
        <ele>1364.1</ele>
      </trkpt>
      <trkpt lat="44.88445" lon="5.44416">
        <ele>1362.7</ele>
      </trkpt>
      <trkpt lat="44.88387" lon="5.44495">
        <ele>1370.8</ele>
      </trkpt>
      <trkpt lat="44.88294" lon="5.4452">
        <ele>1371.8</ele>
      </trkpt>
      <trkpt lat="44.88243" lon="5.44444">
        <ele>1377.3</ele>
      </trkpt>
      <trkpt lat="44.88161" lon="5.44419">
        <ele>1376.5</ele>
      </trkpt>
      <trkpt lat="44.88127" lon="5.44627">
        <ele>1380.4</ele>
      </trkpt>
      <trkpt lat="44.88067" lon="5.44678">
        <ele>1384.9</ele>
      </trkpt>
      <trkpt lat="44.8804" lon="5.44756">
        <ele>1386.9</ele>
      </trkpt>
      <trkpt lat="44.87985" lon="5.44789">
        <ele>1396.8</ele>
      </trkpt>
      <trkpt lat="44.87983" lon="5.44853">
        <ele>1392.4</ele>
      </trkpt>
      <trkpt lat="44.87943" lon="5.44865">
        <ele>1402.3</ele>
      </trkpt>
      <trkpt lat="44.87902" lon="5.45038">
        <ele>1403.2</ele>
      </trkpt>
      <trkpt lat="44.8785" lon="5.45043">
        <ele>1412</ele>
      </trkpt>
      <trkpt lat="44.87784" lon="5.4518">
        <ele>1422.8</ele>
      </trkpt>
      <trkpt lat="44.87809" lon="5.45299">
        <ele>1424.3</ele>
      </trkpt>
      <trkpt lat="44.87803" lon="5.45456">
        <ele>1439.2</ele>
      </trkpt>
      <trkpt lat="44.87713" lon="5.45662">
        <ele>1458.4</ele>
      </trkpt>
      <trkpt lat="44.87686" lon="5.45794">
        <ele>1462.8</ele>
      </trkpt>
      <trkpt lat="44.87454" lon="5.46216">
        <ele>1476.6</ele>
      </trkpt>
      <trkpt lat="44.87381" lon="5.46356">
        <ele>1479.9</ele>
      </trkpt>
      <trkpt lat="44.8727" lon="5.46794">
        <ele>1477</ele>
      </trkpt>
      <trkpt lat="44.87224" lon="5.46839">
        <ele>1476.6</ele>
      </trkpt>
      <trkpt lat="44.87171" lon="5.46902">
        <ele>1479</ele>
      </trkpt>
      <trkpt lat="44.87169" lon="5.46906">
        <ele>1479.1</ele>
      </trkpt>
      <trkpt lat="44.87159" lon="5.46929">
        <ele>1479.4</ele>
      </trkpt>
      <trkpt lat="44.87117" lon="5.47099">
        <ele>1481.6</ele>
      </trkpt>
      <trkpt lat="44.86995" lon="5.47238">
        <ele>1488.2</ele>
      </trkpt>
      <trkpt lat="44.86962" lon="5.47239">
        <ele>1488</ele>
      </trkpt>
      <trkpt lat="44.86915" lon="5.47334">
        <ele>1491.9</ele>
      </trkpt>
      <trkpt lat="44.86736" lon="5.4755">
        <ele>1503.2</ele>
      </trkpt>
      <trkpt lat="44.86611" lon="5.47506">
        <ele>1499.3</ele>
      </trkpt>
      <trkpt lat="44.86483" lon="5.47587">
        <ele>1504.2</ele>
      </trkpt>
      <trkpt lat="44.8641" lon="5.47577">
        <ele>1504.4</ele>
      </trkpt>
      <trkpt lat="44.86293" lon="5.47501">
        <ele>1506.5</ele>
      </trkpt>
      <trkpt lat="44.86213" lon="5.47589">
        <ele>1512</ele>
      </trkpt>
      <trkpt lat="44.86128" lon="5.476">
        <ele>1516.2</ele>
      </trkpt>
      <trkpt lat="44.86076" lon="5.47653">
        <ele>1517.8</ele>
      </trkpt>
      <trkpt lat="44.85882" lon="5.47705">
        <ele>1527.3</ele>
      </trkpt>
      <trkpt lat="44.85693" lon="5.4768">
        <ele>1530</ele>
      </trkpt>
      <trkpt lat="44.85569" lon="5.47789">
        <ele>1539.8</ele>
      </trkpt>
      <trkpt lat="44.85449" lon="5.47791">
        <ele>1549.6</ele>
      </trkpt>
      <trkpt lat="44.85375" lon="5.4784">
        <ele>1553.5</ele>
      </trkpt>
      <trkpt lat="44.85227" lon="5.47829">
        <ele>1559.2</ele>
      </trkpt>
      <trkpt lat="44.85134" lon="5.47865">
        <ele>1556.5</ele>
      </trkpt>
      <trkpt lat="44.85084" lon="5.47838">
        <ele>1553.5</ele>
      </trkpt>
      <trkpt lat="44.85014" lon="5.47806">
        <ele>1558.2</ele>
      </trkpt>
      <trkpt lat="44.84983" lon="5.47894">
        <ele>1560.7</ele>
      </trkpt>
      <trkpt lat="44.84856" lon="5.47917">
        <ele>1562.5</ele>
      </trkpt>
      <trkpt lat="44.84804" lon="5.47971">
        <ele>1564.2</ele>
      </trkpt>
      <trkpt lat="44.84658" lon="5.47958">
        <ele>1563.1</ele>
      </trkpt>
      <trkpt lat="44.84619" lon="5.48006">
        <ele>1562.9</ele>
      </trkpt>
      <trkpt lat="44.84567" lon="5.48011">
        <ele>1564</ele>
      </trkpt>
      <trkpt lat="44.84426" lon="5.48101">
        <ele>1569.9</ele>
      </trkpt>
      <trkpt lat="44.84343" lon="5.48415">
        <ele>1586</ele>
      </trkpt>
      <trkpt lat="44.84252" lon="5.48381">
        <ele>1592.9</ele>
      </trkpt>
      <trkpt lat="44.84238" lon="5.48355">
        <ele>1594.2</ele>
      </trkpt>
      <trkpt lat="44.84022" lon="5.48337">
        <ele>1617.7</ele>
      </trkpt>
      <trkpt lat="44.83811" lon="5.48197">
        <ele>1625.1</ele>
      </trkpt>
      <trkpt lat="44.83708" lon="5.48203">
        <ele>1626</ele>
      </trkpt>
      <trkpt lat="44.836" lon="5.4814">
        <ele>1626.5</ele>
      </trkpt>
      <trkpt lat="44.83389" lon="5.48172">
        <ele>1629.2</ele>
      </trkpt>
      <trkpt lat="44.83335" lon="5.48235">
        <ele>1630.3</ele>
      </trkpt>
      <trkpt lat="44.83304" lon="5.48159">
        <ele>1625.6</ele>
      </trkpt>
      <trkpt lat="44.83245" lon="5.48166">
        <ele>1624</ele>
      </trkpt>
      <trkpt lat="44.83169" lon="5.48115">
        <ele>1621.9</ele>
      </trkpt>
      <trkpt lat="44.83124" lon="5.48159">
        <ele>1623.3</ele>
      </trkpt>
      <trkpt lat="44.83039" lon="5.48489">
        <ele>1628.6</ele>
      </trkpt>
      <trkpt lat="44.82972" lon="5.48609">
        <ele>1633.4</ele>
      </trkpt>
      <trkpt lat="44.82931" lon="5.48634">
        <ele>1631</ele>
      </trkpt>
      <trkpt lat="44.82801" lon="5.48653">
        <ele>1622.5</ele>
      </trkpt>
      <trkpt lat="44.82751" lon="5.48615">
        <ele>1617.5</ele>
      </trkpt>
      <trkpt lat="44.8272" lon="5.48362">
        <ele>1610.6</ele>
      </trkpt>
      <trkpt lat="44.8268" lon="5.48267">
        <ele>1604.8</ele>
      </trkpt>
      <trkpt lat="44.82666" lon="5.4821">
        <ele>1602.5</ele>
      </trkpt>
      <trkpt lat="44.82666" lon="5.48172">
        <ele>1602.1</ele>
      </trkpt>
      <trkpt lat="44.82886" lon="5.48032">
        <ele>1619.9</ele>
      </trkpt>
      <trkpt lat="44.82913" lon="5.47874">
        <ele>1618.9</ele>
      </trkpt>
      <trkpt lat="44.82909" lon="5.47716">
        <ele>1625.1</ele>
      </trkpt>
      <trkpt lat="44.82985" lon="5.47405">
        <ele>1653.7</ele>
      </trkpt>
      <trkpt lat="44.82958" lon="5.47298">
        <ele>1660.9</ele>
      </trkpt>
      <trkpt lat="44.82962" lon="5.47241">
        <ele>1664.5</ele>
      </trkpt>
      <trkpt lat="44.83003" lon="5.4719">
        <ele>1665.4</ele>
      </trkpt>
      <trkpt lat="44.83021" lon="5.46981">
        <ele>1669.5</ele>
      </trkpt>
      <trkpt lat="44.83111" lon="5.46721">
        <ele>1650.6</ele>
      </trkpt>
      <trkpt lat="44.83138" lon="5.46443">
        <ele>1627.7</ele>
      </trkpt>
      <trkpt lat="44.83223" lon="5.46177">
        <ele>1604.4</ele>
      </trkpt>
      <trkpt lat="44.83272" lon="5.45778">
        <ele>1585.1</ele>
      </trkpt>
      <trkpt lat="44.83214" lon="5.45562">
        <ele>1567.6</ele>
      </trkpt>
      <trkpt lat="44.83039" lon="5.45429">
        <ele>1550.9</ele>
      </trkpt>
      <trkpt lat="44.82976" lon="5.4529">
        <ele>1549.7</ele>
      </trkpt>
      <trkpt lat="44.82976" lon="5.4529">
        <ele>1549.7</ele>
      </trkpt>
      <trkpt lat="44.82962" lon="5.4522">
        <ele>1569</ele>
      </trkpt>
      <trkpt lat="44.83111" lon="5.44973">
        <ele>1600.8</ele>
      </trkpt>
      <trkpt lat="44.83196" lon="5.44644">
        <ele>1619</ele>
      </trkpt>
      <trkpt lat="44.83187" lon="5.44549">
        <ele>1627.6</ele>
      </trkpt>
      <trkpt lat="44.83205" lon="5.44384">
        <ele>1631</ele>
      </trkpt>
      <trkpt lat="44.83192" lon="5.44321">
        <ele>1631.9</ele>
      </trkpt>
      <trkpt lat="44.83228" lon="5.44156">
        <ele>1631.6</ele>
      </trkpt>
      <trkpt lat="44.83228" lon="5.43953">
        <ele>1638.2</ele>
      </trkpt>
      <trkpt lat="44.83265" lon="5.43799">
        <ele>1625.5</ele>
      </trkpt>
      <trkpt lat="44.83225" lon="5.43723">
        <ele>1621.2</ele>
      </trkpt>
      <trkpt lat="44.83179" lon="5.43503">
        <ele>1602.2</ele>
      </trkpt>
      <trkpt lat="44.83106" lon="5.43381">
        <ele>1591.1</ele>
      </trkpt>
      <trkpt lat="44.83066" lon="5.43195">
        <ele>1583.8</ele>
      </trkpt>
      <trkpt lat="44.8299" lon="5.43031">
        <ele>1588</ele>
      </trkpt>
      <trkpt lat="44.82834" lon="5.42971">
        <ele>1596</ele>
      </trkpt>
      <trkpt lat="44.82764" lon="5.42826">
        <ele>1579.2</ele>
      </trkpt>
      <trkpt lat="44.82783" lon="5.4272">
        <ele>1589.8</ele>
      </trkpt>
      <trkpt lat="44.82761" lon="5.425">
        <ele>1578.9</ele>
      </trkpt>
      <trkpt lat="44.82737" lon="5.42329">
        <ele>1580.4</ele>
      </trkpt>
      <trkpt lat="44.8268" lon="5.42124">
        <ele>1559.6</ele>
      </trkpt>
      <trkpt lat="44.82705" lon="5.42003">
        <ele>1572</ele>
      </trkpt>
      <trkpt lat="44.82694" lon="5.41794">
        <ele>1595.6</ele>
      </trkpt>
      <trkpt lat="44.82821" lon="5.4163">
        <ele>1561.3</ele>
      </trkpt>
      <trkpt lat="44.83128" lon="5.41463">
        <ele>1510.1</ele>
      </trkpt>
      <trkpt lat="44.83195" lon="5.41379">
        <ele>1507.8</ele>
      </trkpt>
      <trkpt lat="44.83182" lon="5.41222">
        <ele>1501.8</ele>
      </trkpt>
      <trkpt lat="44.83281" lon="5.41218">
        <ele>1507.8</ele>
      </trkpt>
      <trkpt lat="44.83306" lon="5.4121">
        <ele>1507.8</ele>
      </trkpt>
      <trkpt lat="44.83163" lon="5.40899">
        <ele>1423.3</ele>
      </trkpt>
      <trkpt lat="44.83254" lon="5.4075">
        <ele>1385.3</ele>
      </trkpt>
      <trkpt lat="44.83281" lon="5.40728">
        <ele>1380.5</ele>
      </trkpt>
      <trkpt lat="44.8337" lon="5.4075">
        <ele>1365.4</ele>
      </trkpt>
      <trkpt lat="44.83783" lon="5.4064">
        <ele>1286.7</ele>
      </trkpt>
      <trkpt lat="44.83874" lon="5.40627">
        <ele>1273</ele>
      </trkpt>
      <trkpt lat="44.83932" lon="5.40581">
        <ele>1262.3</ele>
      </trkpt>
      <trkpt lat="44.83932" lon="5.40581">
        <ele>1262.3</ele>
      </trkpt>
      <trkpt lat="44.83985" lon="5.40633">
        <ele>1259.2</ele>
      </trkpt>
      <trkpt lat="44.84061" lon="5.40604">
        <ele>1253.6</ele>
      </trkpt>
      <trkpt lat="44.84232" lon="5.40501">
        <ele>1260.1</ele>
      </trkpt>
      <trkpt lat="44.84361" lon="5.4047">
        <ele>1262.2</ele>
      </trkpt>
      <trkpt lat="44.84601" lon="5.40373">
        <ele>1285.9</ele>
      </trkpt>
      <trkpt lat="44.84765" lon="5.4027">
        <ele>1319.7</ele>
      </trkpt>
      <trkpt lat="44.84836" lon="5.40303">
        <ele>1303.4</ele>
      </trkpt>
      <trkpt lat="44.84885" lon="5.40275">
        <ele>1323.1</ele>
      </trkpt>
      <trkpt lat="44.84968" lon="5.40311">
        <ele>1309.6</ele>
      </trkpt>
      <trkpt lat="44.85147" lon="5.40296">
        <ele>1313.1</ele>
      </trkpt>
      <trkpt lat="44.85194" lon="5.40242">
        <ele>1329.4</ele>
      </trkpt>
      <trkpt lat="44.85431" lon="5.40236">
        <ele>1332.7</ele>
      </trkpt>
      <trkpt lat="44.8553" lon="5.40173">
        <ele>1331.7</ele>
      </trkpt>
      <trkpt lat="44.8585" lon="5.40178">
        <ele>1342.4</ele>
      </trkpt>
      <trkpt lat="44.8599" lon="5.40218">
        <ele>1350.7</ele>
      </trkpt>
      <trkpt lat="44.86655" lon="5.40453">
        <ele>1324.5</ele>
      </trkpt>
      <trkpt lat="44.86876" lon="5.40541">
        <ele>1297.2</ele>
      </trkpt>
      <trkpt lat="44.87148" lon="5.40689">
        <ele>1247.6</ele>
      </trkpt>
      <trkpt lat="44.87247" lon="5.40666">
        <ele>1234.6</ele>
      </trkpt>
      <trkpt lat="44.87249" lon="5.40702">
        <ele>1232.4</ele>
      </trkpt>
      <trkpt lat="44.87343" lon="5.40621">
        <ele>1230.3</ele>
      </trkpt>
      <trkpt lat="44.87415" lon="5.40591">
        <ele>1225.3</ele>
      </trkpt>
      <trkpt lat="44.87463" lon="5.40601">
        <ele>1228.4</ele>
      </trkpt>
      <trkpt lat="44.87526" lon="5.40582">
        <ele>1218.3</ele>
      </trkpt>
      <trkpt lat="44.87627" lon="5.40621">
        <ele>1214.8</ele>
      </trkpt>
      <trkpt lat="44.87674" lon="5.40638">
        <ele>1211.8</ele>
      </trkpt>
      <trkpt lat="44.87676" lon="5.40627">
        <ele>1209.3</ele>
      </trkpt>
      <trkpt lat="44.87609" lon="5.40566">
        <ele>1203.7</ele>
      </trkpt>
      <trkpt lat="44.87567" lon="5.40556">
        <ele>1206.1</ele>
      </trkpt>
      <trkpt lat="44.87522" lon="5.40503">
        <ele>1199.6</ele>
      </trkpt>
      <trkpt lat="44.87488" lon="5.40473">
        <ele>1199.2</ele>
      </trkpt>
      <trkpt lat="44.87448" lon="5.40321">
        <ele>1196.7</ele>
      </trkpt>
      <trkpt lat="44.87477" lon="5.40161">
        <ele>1181.3</ele>
      </trkpt>
      <trkpt lat="44.87427" lon="5.40082">
        <ele>1179.7</ele>
      </trkpt>
      <trkpt lat="44.87452" lon="5.3997">
        <ele>1172.3</ele>
      </trkpt>
      <trkpt lat="44.87479" lon="5.39891">
        <ele>1170.9</ele>
      </trkpt>
      <trkpt lat="44.87495" lon="5.39929">
        <ele>1166.1</ele>
      </trkpt>
      <trkpt lat="44.87515" lon="5.39975">
        <ele>1164.8</ele>
      </trkpt>
      <trkpt lat="44.87554" lon="5.39978">
        <ele>1162.7</ele>
      </trkpt>
      <trkpt lat="44.87666" lon="5.39915">
        <ele>1146.7</ele>
      </trkpt>
      <trkpt lat="44.87804" lon="5.39904">
        <ele>1149.8</ele>
      </trkpt>
      <trkpt lat="44.87991" lon="5.39715">
        <ele>1127.2</ele>
      </trkpt>
      <trkpt lat="44.8801" lon="5.39669">
        <ele>1121.6</ele>
      </trkpt>
      <trkpt lat="44.88057" lon="5.39648">
        <ele>1127.1</ele>
      </trkpt>
      <trkpt lat="44.88097" lon="5.39583">
        <ele>1118.9</ele>
      </trkpt>
      <trkpt lat="44.88163" lon="5.39566">
        <ele>1120.1</ele>
      </trkpt>
      <trkpt lat="44.88238" lon="5.39439">
        <ele>1112.5</ele>
      </trkpt>
      <trkpt lat="44.88246" lon="5.3926">
        <ele>1100.3</ele>
      </trkpt>
      <trkpt lat="44.88329" lon="5.39081">
        <ele>1083.6</ele>
      </trkpt>
      <trkpt lat="44.88524" lon="5.38871">
        <ele>1079.9</ele>
      </trkpt>
      <trkpt lat="44.88765" lon="5.38577">
        <ele>1073.2</ele>
      </trkpt>
      <trkpt lat="44.88973" lon="5.38448">
        <ele>1070.5</ele>
      </trkpt>
      <trkpt lat="44.89009" lon="5.38387">
        <ele>1071.5</ele>
      </trkpt>
      <trkpt lat="44.89144" lon="5.38039">
        <ele>1066.6</ele>
      </trkpt>
      <trkpt lat="44.89144" lon="5.37976">
        <ele>1066.4</ele>
      </trkpt>
      <trkpt lat="44.89156" lon="5.37911">
        <ele>1064.8</ele>
      </trkpt>
      <trkpt lat="44.89206" lon="5.378">
        <ele>1059.8</ele>
      </trkpt>
      <trkpt lat="44.8921" lon="5.37698">
        <ele>1057.6</ele>
      </trkpt>
      <trkpt lat="44.89543" lon="5.37069">
        <ele>1057.7</ele>
      </trkpt>
      <trkpt lat="44.89551" lon="5.37081">
        <ele>1057.9</ele>
      </trkpt>
      <trkpt lat="44.89559" lon="5.37096">
        <ele>1058</ele>
      </trkpt>
      <trkpt lat="44.89562" lon="5.37112">
        <ele>1057.9</ele>
      </trkpt>
      <trkpt lat="44.89566" lon="5.37129">
        <ele>1057.9</ele>
      </trkpt>
      <trkpt lat="44.89598" lon="5.37273">
        <ele>1056.9</ele>
      </trkpt>
      <trkpt lat="44.8962" lon="5.37329">
        <ele>1056.8</ele>
      </trkpt>
      <trkpt lat="44.89654" lon="5.37355">
        <ele>1054.4</ele>
      </trkpt>
      <trkpt lat="44.89676" lon="5.37471">
        <ele>1054</ele>
      </trkpt>
      <trkpt lat="44.89616" lon="5.37685">
        <ele>1055.1</ele>
      </trkpt>
      <trkpt lat="44.8962" lon="5.37785">
        <ele>1054.6</ele>
      </trkpt>
      <trkpt lat="44.89659" lon="5.37867">
        <ele>1053.5</ele>
      </trkpt>
      <trkpt lat="44.89661" lon="5.38159">
        <ele>1058.3</ele>
      </trkpt>
      <trkpt lat="44.89638" lon="5.38344">
        <ele>1064.5</ele>
      </trkpt>
      <trkpt lat="44.89506" lon="5.38829">
        <ele>1057.9</ele>
      </trkpt>
      <trkpt lat="44.89822" lon="5.39177">
        <ele>1057.7</ele>
      </trkpt>
      <trkpt lat="44.89905" lon="5.39201">
        <ele>1059.7</ele>
      </trkpt>
      <trkpt lat="44.89916" lon="5.39232">
        <ele>1059.4</ele>
      </trkpt>
      <trkpt lat="44.89934" lon="5.39222">
        <ele>1060.2</ele>
      </trkpt>
      <trkpt lat="44.90046" lon="5.39078">
        <ele>1063.9</ele>
      </trkpt>
      <trkpt lat="44.90059" lon="5.39054">
        <ele>1063.6</ele>
      </trkpt>
      <trkpt lat="44.90208" lon="5.39023">
        <ele>1058.2</ele>
      </trkpt>
      <trkpt lat="44.90179" lon="5.39081">
        <ele>1059.3</ele>
      </trkpt>
      <trkpt lat="44.90173" lon="5.3919">
        <ele>1062.3</ele>
      </trkpt>
      <trkpt lat="44.90112" lon="5.39444">
        <ele>1062.2</ele>
      </trkpt>
      <trkpt lat="44.90126" lon="5.39481">
        <ele>1062.4</ele>
      </trkpt>
      <trkpt lat="44.9012" lon="5.3953">
        <ele>1062.6</ele>
      </trkpt>
      <trkpt lat="44.90098" lon="5.39566">
        <ele>1063.3</ele>
      </trkpt>
      <trkpt lat="44.90096" lon="5.39621">
        <ele>1064.6</ele>
      </trkpt>
      <trkpt lat="44.90077" lon="5.39685">
        <ele>1066.7</ele>
      </trkpt>
      <trkpt lat="44.90099" lon="5.39814">
        <ele>1071</ele>
      </trkpt>
      <trkpt lat="44.9011" lon="5.3995">
        <ele>1079.2</ele>
      </trkpt>
      <trkpt lat="44.90128" lon="5.39973">
        <ele>1080.4</ele>
      </trkpt>
      <trkpt lat="44.90127" lon="5.40011">
        <ele>1085.2</ele>
      </trkpt>
      <trkpt lat="44.90028" lon="5.40067">
        <ele>1101</ele>
      </trkpt>
      <trkpt lat="44.90042" lon="5.40093">
        <ele>1103.6</ele>
      </trkpt>
      <trkpt lat="44.90102" lon="5.40111">
        <ele>1101</ele>
      </trkpt>
      <trkpt lat="44.9019" lon="5.40253">
        <ele>1113.9</ele>
      </trkpt>
      <trkpt lat="44.90192" lon="5.40259">
        <ele>1114.3</ele>
      </trkpt>
      <trkpt lat="44.90244" lon="5.40277">
        <ele>1110.2</ele>
      </trkpt>
      <trkpt lat="44.90352" lon="5.40319">
        <ele>1104.1</ele>
      </trkpt>
      <trkpt lat="44.90361" lon="5.40317">
        <ele>1103.3</ele>
      </trkpt>
      <trkpt lat="44.90366" lon="5.40432">
        <ele>1105.2</ele>
      </trkpt>
      <trkpt lat="44.90429" lon="5.40477">
        <ele>1102.4</ele>
      </trkpt>
      <trkpt lat="44.90505" lon="5.40479">
        <ele>1095</ele>
      </trkpt>
      <trkpt lat="44.90551" lon="5.40416">
        <ele>1091</ele>
      </trkpt>
      <trkpt lat="44.90562" lon="5.4037">
        <ele>1087</ele>
      </trkpt>
      <trkpt lat="44.90577" lon="5.40347">
        <ele>1084.7</ele>
      </trkpt>
      <trkpt lat="44.90737" lon="5.40393">
        <ele>1098.8</ele>
      </trkpt>
      <trkpt lat="44.90788" lon="5.4038">
        <ele>1099.8</ele>
      </trkpt>
      <trkpt lat="44.90826" lon="5.40382">
        <ele>1101.4</ele>
      </trkpt>
      <trkpt lat="44.90826" lon="5.40382">
        <ele>1101.4</ele>
      </trkpt>
      <trkpt lat="44.90856" lon="5.40384">
        <ele>1100.5</ele>
      </trkpt>
      <trkpt lat="44.90893" lon="5.40433">
        <ele>1103.6</ele>
      </trkpt>
      <trkpt lat="44.90907" lon="5.40459">
        <ele>1104.7</ele>
      </trkpt>
      <trkpt lat="44.9093" lon="5.40508">
        <ele>1108.5</ele>
      </trkpt>
      <trkpt lat="44.90925" lon="5.40508">
        <ele>1108.2</ele>
      </trkpt>
      <trkpt lat="44.90825" lon="5.40377">
        <ele>1100.9</ele>
      </trkpt>
      <trkpt lat="44.90824" lon="5.40374">
        <ele>1100.6</ele>
      </trkpt>
      <trkpt lat="44.90828" lon="5.40377">
        <ele>1101</ele>
      </trkpt>
      <trkpt lat="44.90774" lon="5.40358">
        <ele>1097.2</ele>
      </trkpt>
      <trkpt lat="44.90735" lon="5.404">
        <ele>1099.3</ele>
      </trkpt>
      <trkpt lat="44.90557" lon="5.40346">
        <ele>1084.5</ele>
      </trkpt>
      <trkpt lat="44.90526" lon="5.40212">
        <ele>1075</ele>
      </trkpt>
      <trkpt lat="44.9057" lon="5.39866">
        <ele>1057.5</ele>
      </trkpt>
      <trkpt lat="44.90566" lon="5.3978">
        <ele>1058.1</ele>
      </trkpt>
      <trkpt lat="44.90584" lon="5.39721">
        <ele>1058.3</ele>
      </trkpt>
      <trkpt lat="44.90638" lon="5.39549">
        <ele>1054.8</ele>
      </trkpt>
      <trkpt lat="44.90641" lon="5.3938">
        <ele>1053.7</ele>
      </trkpt>
      <trkpt lat="44.90616" lon="5.39242">
        <ele>1050.9</ele>
      </trkpt>
      <trkpt lat="44.9064" lon="5.38967">
        <ele>1049</ele>
      </trkpt>
      <trkpt lat="44.90653" lon="5.38914">
        <ele>1048.9</ele>
      </trkpt>
      <trkpt lat="44.90655" lon="5.38812">
        <ele>1049.9</ele>
      </trkpt>
      <trkpt lat="44.90689" lon="5.38682">
        <ele>1051.9</ele>
      </trkpt>
      <trkpt lat="44.90664" lon="5.38608">
        <ele>1053</ele>
      </trkpt>
      <trkpt lat="44.90649" lon="5.38536">
        <ele>1055.6</ele>
      </trkpt>
      <trkpt lat="44.90732" lon="5.38375">
        <ele>1055.1</ele>
      </trkpt>
      <trkpt lat="44.90771" lon="5.38087">
        <ele>1050.4</ele>
      </trkpt>
      <trkpt lat="44.90797" lon="5.37899">
        <ele>1049</ele>
      </trkpt>
      <trkpt lat="44.90803" lon="5.37631">
        <ele>1043.9</ele>
      </trkpt>
      <trkpt lat="44.90815" lon="5.37554">
        <ele>1045</ele>
      </trkpt>
      <trkpt lat="44.90733" lon="5.3738">
        <ele>1048.3</ele>
      </trkpt>
      <trkpt lat="44.90383" lon="5.37165">
        <ele>1062.5</ele>
      </trkpt>
      <trkpt lat="44.90367" lon="5.37168">
        <ele>1062.5</ele>
      </trkpt>
      <trkpt lat="44.90708" lon="5.36684">
        <ele>1111.6</ele>
      </trkpt>
      <trkpt lat="44.90751" lon="5.36702">
        <ele>1111</ele>
      </trkpt>
      <trkpt lat="44.90877" lon="5.36833">
        <ele>1115.4</ele>
      </trkpt>
      <trkpt lat="44.90999" lon="5.36828">
        <ele>1132.2</ele>
      </trkpt>
      <trkpt lat="44.91112" lon="5.3688">
        <ele>1143</ele>
      </trkpt>
      <trkpt lat="44.912" lon="5.36914">
        <ele>1155.3</ele>
      </trkpt>
      <trkpt lat="44.91268" lon="5.37003">
        <ele>1156</ele>
      </trkpt>
      <trkpt lat="44.91393" lon="5.3698">
        <ele>1182.1</ele>
      </trkpt>
      <trkpt lat="44.91472" lon="5.37027">
        <ele>1188.6</ele>
      </trkpt>
      <trkpt lat="44.9156" lon="5.37112">
        <ele>1183.7</ele>
      </trkpt>
      <trkpt lat="44.9169" lon="5.37144">
        <ele>1197.6</ele>
      </trkpt>
      <trkpt lat="44.91759" lon="5.37166">
        <ele>1196.2</ele>
      </trkpt>
      <trkpt lat="44.91824" lon="5.37163">
        <ele>1203.9</ele>
      </trkpt>
      <trkpt lat="44.91827" lon="5.37138">
        <ele>1216</ele>
      </trkpt>
      <trkpt lat="44.91755" lon="5.37131">
        <ele>1212.6</ele>
      </trkpt>
      <trkpt lat="44.91718" lon="5.37109">
        <ele>1217</ele>
      </trkpt>
      <trkpt lat="44.91679" lon="5.37072">
        <ele>1225.6</ele>
      </trkpt>
      <trkpt lat="44.91602" lon="5.37032">
        <ele>1225.8</ele>
      </trkpt>
      <trkpt lat="44.91381" lon="5.36747">
        <ele>1260.8</ele>
      </trkpt>
      <trkpt lat="44.91056" lon="5.36431">
        <ele>1293.1</ele>
      </trkpt>
      <trkpt lat="44.90893" lon="5.36314">
        <ele>1298.5</ele>
      </trkpt>
      <trkpt lat="44.90801" lon="5.362">
        <ele>1309.7</ele>
      </trkpt>
      <trkpt lat="44.90769" lon="5.36134">
        <ele>1316</ele>
      </trkpt>
      <trkpt lat="44.90733" lon="5.3607">
        <ele>1316.7</ele>
      </trkpt>
      <trkpt lat="44.90726" lon="5.36003">
        <ele>1324.8</ele>
      </trkpt>
      <trkpt lat="44.90745" lon="5.35959">
        <ele>1332.4</ele>
      </trkpt>
      <trkpt lat="44.90749" lon="5.35815">
        <ele>1341.3</ele>
      </trkpt>
      <trkpt lat="44.9075" lon="5.35804">
        <ele>1342.1</ele>
      </trkpt>
      <trkpt lat="44.90728" lon="5.3576">
        <ele>1342.9</ele>
      </trkpt>
      <trkpt lat="44.90729" lon="5.35664">
        <ele>1346.7</ele>
      </trkpt>
      <trkpt lat="44.90708" lon="5.35627">
        <ele>1345.5</ele>
      </trkpt>
      <trkpt lat="44.90708" lon="5.3562">
        <ele>1345.5</ele>
      </trkpt>
      <trkpt lat="44.90667" lon="5.35505">
        <ele>1339.4</ele>
      </trkpt>
      <trkpt lat="44.90663" lon="5.35458">
        <ele>1334.4</ele>
      </trkpt>
      <trkpt lat="44.90501" lon="5.35199">
        <ele>1343</ele>
      </trkpt>
      <trkpt lat="44.90494" lon="5.35196">
        <ele>1343.7</ele>
      </trkpt>
      <trkpt lat="44.90517" lon="5.35111">
        <ele>1344.6</ele>
      </trkpt>
      <trkpt lat="44.90498" lon="5.34905">
        <ele>1363.7</ele>
      </trkpt>
      <trkpt lat="44.90495" lon="5.34776">
        <ele>1373.3</ele>
      </trkpt>
      <trkpt lat="44.90477" lon="5.34666">
        <ele>1377.3</ele>
      </trkpt>
      <trkpt lat="44.90474" lon="5.34532">
        <ele>1381.4</ele>
      </trkpt>
      <trkpt lat="44.90455" lon="5.34281">
        <ele>1407.6</ele>
      </trkpt>
      <trkpt lat="44.90498" lon="5.34137">
        <ele>1416.4</ele>
      </trkpt>
      <trkpt lat="44.90525" lon="5.3387">
        <ele>1427.8</ele>
      </trkpt>
      <trkpt lat="44.90586" lon="5.33624">
        <ele>1439.6</ele>
      </trkpt>
      <trkpt lat="44.90565" lon="5.33632">
        <ele>1441.4</ele>
      </trkpt>
      <trkpt lat="44.90526" lon="5.33556">
        <ele>1445.4</ele>
      </trkpt>
      <trkpt lat="44.9048" lon="5.33503">
        <ele>1447.4</ele>
      </trkpt>
      <trkpt lat="44.90436" lon="5.33491">
        <ele>1451.1</ele>
      </trkpt>
      <trkpt lat="44.9038" lon="5.33541">
        <ele>1457.1</ele>
      </trkpt>
      <trkpt lat="44.90332" lon="5.33545">
        <ele>1458.6</ele>
      </trkpt>
      <trkpt lat="44.9028" lon="5.33483">
        <ele>1460.5</ele>
      </trkpt>
      <trkpt lat="44.90266" lon="5.33432">
        <ele>1459.4</ele>
      </trkpt>
      <trkpt lat="44.90139" lon="5.33235">
        <ele>1458</ele>
      </trkpt>
      <trkpt lat="44.90084" lon="5.3304">
        <ele>1459.8</ele>
      </trkpt>
      <trkpt lat="44.90096" lon="5.32863">
        <ele>1447.9</ele>
      </trkpt>
      <trkpt lat="44.90074" lon="5.32802">
        <ele>1446.5</ele>
      </trkpt>
      <trkpt lat="44.89942" lon="5.3261">
        <ele>1446.5</ele>
      </trkpt>
      <trkpt lat="44.89903" lon="5.32555">
        <ele>1449.7</ele>
      </trkpt>
      <trkpt lat="44.89896" lon="5.32425">
        <ele>1451.4</ele>
      </trkpt>
      <trkpt lat="44.89799" lon="5.32227">
        <ele>1453.9</ele>
      </trkpt>
      <trkpt lat="44.89761" lon="5.32108">
        <ele>1451.1</ele>
      </trkpt>
      <trkpt lat="44.8978" lon="5.32058">
        <ele>1447.2</ele>
      </trkpt>
      <trkpt lat="44.8979" lon="5.32047">
        <ele>1447.2</ele>
      </trkpt>
      <trkpt lat="44.89799" lon="5.32093">
        <ele>1444.3</ele>
      </trkpt>
      <trkpt lat="44.8982" lon="5.32195">
        <ele>1445.3</ele>
      </trkpt>
      <trkpt lat="44.89864" lon="5.32281">
        <ele>1444.4</ele>
      </trkpt>
      <trkpt lat="44.89948" lon="5.32257">
        <ele>1441.1</ele>
      </trkpt>
      <trkpt lat="44.89944" lon="5.32312">
        <ele>1443.4</ele>
      </trkpt>
      <trkpt lat="44.89983" lon="5.32307">
        <ele>1443.8</ele>
      </trkpt>
      <trkpt lat="44.90027" lon="5.32328">
        <ele>1447</ele>
      </trkpt>
      <trkpt lat="44.90053" lon="5.32356">
        <ele>1448.1</ele>
      </trkpt>
      <trkpt lat="44.90074" lon="5.32458">
        <ele>1444.2</ele>
      </trkpt>
      <trkpt lat="44.90078" lon="5.32523">
        <ele>1441.6</ele>
      </trkpt>
      <trkpt lat="44.90098" lon="5.32546">
        <ele>1439.7</ele>
      </trkpt>
      <trkpt lat="44.90135" lon="5.32555">
        <ele>1436.2</ele>
      </trkpt>
      <trkpt lat="44.90159" lon="5.32542">
        <ele>1435.1</ele>
      </trkpt>
      <trkpt lat="44.90206" lon="5.32513">
        <ele>1435.8</ele>
      </trkpt>
      <trkpt lat="44.90209" lon="5.3248">
        <ele>1441.7</ele>
      </trkpt>
      <trkpt lat="44.90233" lon="5.32479">
        <ele>1441.6</ele>
      </trkpt>
      <trkpt lat="44.90264" lon="5.32519">
        <ele>1433</ele>
      </trkpt>
      <trkpt lat="44.90304" lon="5.32538">
        <ele>1427.5</ele>
      </trkpt>
      <trkpt lat="44.90325" lon="5.32546">
        <ele>1424.6</ele>
      </trkpt>
      <trkpt lat="44.90367" lon="5.32606">
        <ele>1417.6</ele>
      </trkpt>
      <trkpt lat="44.90434" lon="5.32682">
        <ele>1411.2</ele>
      </trkpt>
      <trkpt lat="44.90492" lon="5.32721">
        <ele>1410.9</ele>
      </trkpt>
      <trkpt lat="44.90526" lon="5.3278">
        <ele>1409.7</ele>
      </trkpt>
      <trkpt lat="44.90562" lon="5.32782">
        <ele>1407.4</ele>
      </trkpt>
      <trkpt lat="44.90584" lon="5.32752">
        <ele>1404.1</ele>
      </trkpt>
      <trkpt lat="44.90616" lon="5.32763">
        <ele>1401.4</ele>
      </trkpt>
      <trkpt lat="44.90623" lon="5.32793">
        <ele>1402.7</ele>
      </trkpt>
      <trkpt lat="44.9067" lon="5.32821">
        <ele>1400.9</ele>
      </trkpt>
      <trkpt lat="44.90693" lon="5.32873">
        <ele>1404.4</ele>
      </trkpt>
      <trkpt lat="44.90701" lon="5.32941">
        <ele>1406.9</ele>
      </trkpt>
      <trkpt lat="44.90722" lon="5.33048">
        <ele>1404.2</ele>
      </trkpt>
      <trkpt lat="44.90716" lon="5.33148">
        <ele>1406.9</ele>
      </trkpt>
      <trkpt lat="44.90735" lon="5.33224">
        <ele>1414.6</ele>
      </trkpt>
      <trkpt lat="44.90765" lon="5.33247">
        <ele>1416.4</ele>
      </trkpt>
      <trkpt lat="44.90755" lon="5.33282">
        <ele>1416.9</ele>
      </trkpt>
      <trkpt lat="44.90754" lon="5.33318">
        <ele>1417.7</ele>
      </trkpt>
      <trkpt lat="44.90754" lon="5.33338">
        <ele>1418.3</ele>
      </trkpt>
      <trkpt lat="44.90757" lon="5.33352">
        <ele>1419</ele>
      </trkpt>
      <trkpt lat="44.90834" lon="5.33399">
        <ele>1422.2</ele>
      </trkpt>
      <trkpt lat="44.90835" lon="5.33399">
        <ele>1422.1</ele>
      </trkpt>
      <trkpt lat="44.90878" lon="5.3333">
        <ele>1417.4</ele>
      </trkpt>
      <trkpt lat="44.909" lon="5.33322">
        <ele>1416.6</ele>
      </trkpt>
      <trkpt lat="44.91024" lon="5.3341">
        <ele>1411.3</ele>
      </trkpt>
      <trkpt lat="44.91215" lon="5.33482">
        <ele>1410.8</ele>
      </trkpt>
      <trkpt lat="44.91266" lon="5.33486">
        <ele>1407.9</ele>
      </trkpt>
      <trkpt lat="44.91323" lon="5.33459">
        <ele>1403.3</ele>
      </trkpt>
      <trkpt lat="44.91358" lon="5.33459">
        <ele>1402.4</ele>
      </trkpt>
      <trkpt lat="44.91414" lon="5.33486">
        <ele>1402.7</ele>
      </trkpt>
      <trkpt lat="44.91511" lon="5.33589">
        <ele>1393.1</ele>
      </trkpt>
      <trkpt lat="44.91517" lon="5.33657">
        <ele>1402.8</ele>
      </trkpt>
      <trkpt lat="44.91547" lon="5.33703">
        <ele>1410.8</ele>
      </trkpt>
      <trkpt lat="44.91668" lon="5.33748">
        <ele>1417.9</ele>
      </trkpt>
      <trkpt lat="44.91673" lon="5.33821">
        <ele>1422.3</ele>
      </trkpt>
      <trkpt lat="44.91662" lon="5.33939">
        <ele>1433.1</ele>
      </trkpt>
      <trkpt lat="44.91711" lon="5.34072">
        <ele>1441.6</ele>
      </trkpt>
      <trkpt lat="44.91751" lon="5.3422">
        <ele>1440.6</ele>
      </trkpt>
      <trkpt lat="44.91787" lon="5.34277">
        <ele>1444</ele>
      </trkpt>
      <trkpt lat="44.91827" lon="5.34315">
        <ele>1446.7</ele>
      </trkpt>
      <trkpt lat="44.91843" lon="5.34368">
        <ele>1449.1</ele>
      </trkpt>
      <trkpt lat="44.91876" lon="5.34398">
        <ele>1447.1</ele>
      </trkpt>
      <trkpt lat="44.91903" lon="5.34467">
        <ele>1449.5</ele>
      </trkpt>
      <trkpt lat="44.91908" lon="5.3452">
        <ele>1455.1</ele>
      </trkpt>
      <trkpt lat="44.91946" lon="5.34596">
        <ele>1461</ele>
      </trkpt>
      <trkpt lat="44.91978" lon="5.34627">
        <ele>1460.5</ele>
      </trkpt>
      <trkpt lat="44.91992" lon="5.34692">
        <ele>1469</ele>
      </trkpt>
      <trkpt lat="44.92156" lon="5.34752">
        <ele>1470.9</ele>
      </trkpt>
      <trkpt lat="44.92204" lon="5.34886">
        <ele>1483.5</ele>
      </trkpt>
      <trkpt lat="44.92186" lon="5.34969">
        <ele>1486.9</ele>
      </trkpt>
      <trkpt lat="44.92183" lon="5.35026">
        <ele>1485</ele>
      </trkpt>
      <trkpt lat="44.92167" lon="5.35065">
        <ele>1481.8</ele>
      </trkpt>
      <trkpt lat="44.92169" lon="5.35103">
        <ele>1477.5</ele>
      </trkpt>
      <trkpt lat="44.92102" lon="5.3516">
        <ele>1470.3</ele>
      </trkpt>
      <trkpt lat="44.92002" lon="5.353">
        <ele>1450.6</ele>
      </trkpt>
      <trkpt lat="44.91959" lon="5.35316">
        <ele>1449.1</ele>
      </trkpt>
      <trkpt lat="44.91948" lon="5.35396">
        <ele>1441.4</ele>
      </trkpt>
      <trkpt lat="44.91962" lon="5.35437">
        <ele>1436.4</ele>
      </trkpt>
      <trkpt lat="44.92008" lon="5.35491">
        <ele>1427.5</ele>
      </trkpt>
      <trkpt lat="44.92037" lon="5.35525">
        <ele>1421.6</ele>
      </trkpt>
      <trkpt lat="44.92107" lon="5.35559">
        <ele>1410.5</ele>
      </trkpt>
      <trkpt lat="44.92145" lon="5.35597">
        <ele>1405.8</ele>
      </trkpt>
      <trkpt lat="44.92204" lon="5.35723">
        <ele>1409.7</ele>
      </trkpt>
      <trkpt lat="44.92237" lon="5.35852">
        <ele>1405.3</ele>
      </trkpt>
      <trkpt lat="44.92328" lon="5.36065">
        <ele>1431.7</ele>
      </trkpt>
      <trkpt lat="44.92318" lon="5.36187">
        <ele>1448.5</ele>
      </trkpt>
      <trkpt lat="44.92339" lon="5.36218">
        <ele>1452.1</ele>
      </trkpt>
      <trkpt lat="44.92377" lon="5.36359">
        <ele>1462.3</ele>
      </trkpt>
      <trkpt lat="44.92487" lon="5.36606">
        <ele>1440.5</ele>
      </trkpt>
      <trkpt lat="44.92509" lon="5.36659">
        <ele>1436.4</ele>
      </trkpt>
      <trkpt lat="44.92536" lon="5.36678">
        <ele>1439.8</ele>
      </trkpt>
      <trkpt lat="44.92576" lon="5.36674">
        <ele>1444.2</ele>
      </trkpt>
      <trkpt lat="44.92609" lon="5.36636">
        <ele>1445.4</ele>
      </trkpt>
      <trkpt lat="44.9263" lon="5.36568">
        <ele>1440.9</ele>
      </trkpt>
      <trkpt lat="44.92679" lon="5.36511">
        <ele>1438.8</ele>
      </trkpt>
      <trkpt lat="44.92746" lon="5.36484">
        <ele>1449.5</ele>
      </trkpt>
      <trkpt lat="44.92778" lon="5.36423">
        <ele>1450.2</ele>
      </trkpt>
      <trkpt lat="44.92827" lon="5.3621">
        <ele>1465.2</ele>
      </trkpt>
      <trkpt lat="44.92827" lon="5.36122">
        <ele>1465.5</ele>
      </trkpt>
      <trkpt lat="44.92851" lon="5.36058">
        <ele>1468.7</ele>
      </trkpt>
      <trkpt lat="44.9284" lon="5.35982">
        <ele>1461.7</ele>
      </trkpt>
      <trkpt lat="44.92854" lon="5.35886">
        <ele>1455.8</ele>
      </trkpt>
      <trkpt lat="44.92886" lon="5.35864">
        <ele>1459.4</ele>
      </trkpt>
      <trkpt lat="44.929" lon="5.35788">
        <ele>1455.4</ele>
      </trkpt>
      <trkpt lat="44.9294" lon="5.35776">
        <ele>1457.5</ele>
      </trkpt>
      <trkpt lat="44.93002" lon="5.35784">
        <ele>1460.7</ele>
      </trkpt>
      <trkpt lat="44.93105" lon="5.35868">
        <ele>1464.1</ele>
      </trkpt>
      <trkpt lat="44.93185" lon="5.35989">
        <ele>1452.5</ele>
      </trkpt>
      <trkpt lat="44.93309" lon="5.36062">
        <ele>1443.7</ele>
      </trkpt>
      <trkpt lat="44.93433" lon="5.36025">
        <ele>1450.2</ele>
      </trkpt>
      <trkpt lat="44.9346" lon="5.36025">
        <ele>1452.2</ele>
      </trkpt>
      <trkpt lat="44.93506" lon="5.36059">
        <ele>1449</ele>
      </trkpt>
      <trkpt lat="44.93597" lon="5.36184">
        <ele>1439.7</ele>
      </trkpt>
      <trkpt lat="44.93638" lon="5.36203">
        <ele>1438.7</ele>
      </trkpt>
      <trkpt lat="44.93649" lon="5.36291">
        <ele>1438.3</ele>
      </trkpt>
      <trkpt lat="44.93713" lon="5.36352">
        <ele>1434.9</ele>
      </trkpt>
      <trkpt lat="44.9374" lon="5.36439">
        <ele>1437</ele>
      </trkpt>
      <trkpt lat="44.93748" lon="5.36508">
        <ele>1439.6</ele>
      </trkpt>
      <trkpt lat="44.93813" lon="5.36554">
        <ele>1436.1</ele>
      </trkpt>
      <trkpt lat="44.93824" lon="5.36611">
        <ele>1435.5</ele>
      </trkpt>
      <trkpt lat="44.93786" lon="5.36721">
        <ele>1434.6</ele>
      </trkpt>
      <trkpt lat="44.93783" lon="5.36763">
        <ele>1434.6</ele>
      </trkpt>
      <trkpt lat="44.93808" lon="5.36813">
        <ele>1433.3</ele>
      </trkpt>
      <trkpt lat="44.93853" lon="5.36839">
        <ele>1430</ele>
      </trkpt>
      <trkpt lat="44.9388" lon="5.36877">
        <ele>1427.8</ele>
      </trkpt>
      <trkpt lat="44.93907" lon="5.36881">
        <ele>1425.5</ele>
      </trkpt>
      <trkpt lat="44.93929" lon="5.36851">
        <ele>1422</ele>
      </trkpt>
      <trkpt lat="44.93948" lon="5.36988">
        <ele>1411.3</ele>
      </trkpt>
      <trkpt lat="44.93942" lon="5.37189">
        <ele>1398.3</ele>
      </trkpt>
      <trkpt lat="44.9403" lon="5.37428">
        <ele>1387.4</ele>
      </trkpt>
      <trkpt lat="44.94002" lon="5.3756">
        <ele>1379.4</ele>
      </trkpt>
      <trkpt lat="44.94004" lon="5.37587">
        <ele>1373.5</ele>
      </trkpt>
      <trkpt lat="44.94014" lon="5.37596">
        <ele>1370.4</ele>
      </trkpt>
      <trkpt lat="44.94062" lon="5.37508">
        <ele>1373.5</ele>
      </trkpt>
      <trkpt lat="44.94088" lon="5.37483">
        <ele>1368</ele>
      </trkpt>
      <trkpt lat="44.94117" lon="5.37412">
        <ele>1363.2</ele>
      </trkpt>
      <trkpt lat="44.94174" lon="5.37408">
        <ele>1344.7</ele>
      </trkpt>
      <trkpt lat="44.94148" lon="5.37384">
        <ele>1352.6</ele>
      </trkpt>
      <trkpt lat="44.94152" lon="5.37292">
        <ele>1342.4</ele>
      </trkpt>
      <trkpt lat="44.94126" lon="5.37211">
        <ele>1341.6</ele>
      </trkpt>
      <trkpt lat="44.94089" lon="5.37192">
        <ele>1352.2</ele>
      </trkpt>
      <trkpt lat="44.94084" lon="5.37147">
        <ele>1348.2</ele>
      </trkpt>
      <trkpt lat="44.941" lon="5.37017">
        <ele>1332</ele>
      </trkpt>
      <trkpt lat="44.94133" lon="5.37129">
        <ele>1326.1</ele>
      </trkpt>
      <trkpt lat="44.94161" lon="5.37151">
        <ele>1317.6</ele>
      </trkpt>
      <trkpt lat="44.94192" lon="5.37222">
        <ele>1312.9</ele>
      </trkpt>
      <trkpt lat="44.94228" lon="5.37375">
        <ele>1306.6</ele>
      </trkpt>
      <trkpt lat="44.94232" lon="5.37481">
        <ele>1305.6</ele>
      </trkpt>
      <trkpt lat="44.94255" lon="5.37321">
        <ele>1287.4</ele>
      </trkpt>
      <trkpt lat="44.94253" lon="5.3721">
        <ele>1274.4</ele>
      </trkpt>
      <trkpt lat="44.94215" lon="5.37078">
        <ele>1275.5</ele>
      </trkpt>
      <trkpt lat="44.9421" lon="5.37012">
        <ele>1270.1</ele>
      </trkpt>
      <trkpt lat="44.94212" lon="5.36773">
        <ele>1261</ele>
      </trkpt>
      <trkpt lat="44.94235" lon="5.36494">
        <ele>1244.3</ele>
      </trkpt>
      <trkpt lat="44.94264" lon="5.36354">
        <ele>1236.4</ele>
      </trkpt>
      <trkpt lat="44.94296" lon="5.36271">
        <ele>1231.8</ele>
      </trkpt>
      <trkpt lat="44.94408" lon="5.36253">
        <ele>1214.2</ele>
      </trkpt>
      <trkpt lat="44.94435" lon="5.36194">
        <ele>1211.7</ele>
      </trkpt>
      <trkpt lat="44.9444" lon="5.36161">
        <ele>1210.3</ele>
      </trkpt>
      <trkpt lat="44.94431" lon="5.36126">
        <ele>1212.8</ele>
      </trkpt>
      <trkpt lat="44.944" lon="5.36052">
        <ele>1219.2</ele>
      </trkpt>
      <trkpt lat="44.94373" lon="5.36024">
        <ele>1220.7</ele>
      </trkpt>
      <trkpt lat="44.94364" lon="5.35986">
        <ele>1220.6</ele>
      </trkpt>
      <trkpt lat="44.94364" lon="5.35958">
        <ele>1218.3</ele>
      </trkpt>
      <trkpt lat="44.94393" lon="5.35918">
        <ele>1215.1</ele>
      </trkpt>
      <trkpt lat="44.94436" lon="5.35783">
        <ele>1208.7</ele>
      </trkpt>
      <trkpt lat="44.94465" lon="5.35628">
        <ele>1217.7</ele>
      </trkpt>
      <trkpt lat="44.94465" lon="5.35583">
        <ele>1219.1</ele>
      </trkpt>
      <trkpt lat="44.94429" lon="5.35496">
        <ele>1224.5</ele>
      </trkpt>
      <trkpt lat="44.94426" lon="5.35453">
        <ele>1226.2</ele>
      </trkpt>
      <trkpt lat="44.94484" lon="5.35495">
        <ele>1226</ele>
      </trkpt>
      <trkpt lat="44.94514" lon="5.35545">
        <ele>1222.2</ele>
      </trkpt>
      <trkpt lat="44.94635" lon="5.35548">
        <ele>1231.9</ele>
      </trkpt>
      <trkpt lat="44.94751" lon="5.35503">
        <ele>1236.9</ele>
      </trkpt>
      <trkpt lat="44.94896" lon="5.35472">
        <ele>1235.3</ele>
      </trkpt>
      <trkpt lat="44.94958" lon="5.35423">
        <ele>1237.3</ele>
      </trkpt>
      <trkpt lat="44.95026" lon="5.35392">
        <ele>1230.9</ele>
      </trkpt>
      <trkpt lat="44.95077" lon="5.3535">
        <ele>1226.2</ele>
      </trkpt>
      <trkpt lat="44.95058" lon="5.35297">
        <ele>1227.8</ele>
      </trkpt>
      <trkpt lat="44.94953" lon="5.3519">
        <ele>1235.5</ele>
      </trkpt>
      <trkpt lat="44.94945" lon="5.35152">
        <ele>1239.6</ele>
      </trkpt>
      <trkpt lat="44.94996" lon="5.35103">
        <ele>1240.8</ele>
      </trkpt>
      <trkpt lat="44.95069" lon="5.35099">
        <ele>1233.5</ele>
      </trkpt>
      <trkpt lat="44.95166" lon="5.35031">
        <ele>1238.4</ele>
      </trkpt>
      <trkpt lat="44.95327" lon="5.34947">
        <ele>1233.4</ele>
      </trkpt>
      <trkpt lat="44.95441" lon="5.34954">
        <ele>1222.9</ele>
      </trkpt>
      <trkpt lat="44.95457" lon="5.34916">
        <ele>1229.6</ele>
      </trkpt>
      <trkpt lat="44.95449" lon="5.34844">
        <ele>1233.8</ele>
      </trkpt>
      <trkpt lat="44.95468" lon="5.34779">
        <ele>1229.4</ele>
      </trkpt>
      <trkpt lat="44.95441" lon="5.34703">
        <ele>1227.2</ele>
      </trkpt>
      <trkpt lat="44.95392" lon="5.34665">
        <ele>1231.8</ele>
      </trkpt>
      <trkpt lat="44.95373" lon="5.34596">
        <ele>1230.5</ele>
      </trkpt>
      <trkpt lat="44.95408" lon="5.34452">
        <ele>1225.3</ele>
      </trkpt>
      <trkpt lat="44.95408" lon="5.34372">
        <ele>1222.7</ele>
      </trkpt>
      <trkpt lat="44.95387" lon="5.34326">
        <ele>1220.6</ele>
      </trkpt>
      <trkpt lat="44.95317" lon="5.34303">
        <ele>1220.5</ele>
      </trkpt>
      <trkpt lat="44.95249" lon="5.34307">
        <ele>1223.3</ele>
      </trkpt>
      <trkpt lat="44.95198" lon="5.34288">
        <ele>1222.6</ele>
      </trkpt>
      <trkpt lat="44.95168" lon="5.34246">
        <ele>1217.5</ele>
      </trkpt>
      <trkpt lat="44.95139" lon="5.34246">
        <ele>1217.9</ele>
      </trkpt>
      <trkpt lat="44.95112" lon="5.34292">
        <ele>1224.2</ele>
      </trkpt>
      <trkpt lat="44.95066" lon="5.34296">
        <ele>1227.6</ele>
      </trkpt>
      <trkpt lat="44.95004" lon="5.34136">
        <ele>1219.1</ele>
      </trkpt>
      <trkpt lat="44.94961" lon="5.34105">
        <ele>1216.3</ele>
      </trkpt>
      <trkpt lat="44.94894" lon="5.34124">
        <ele>1220.9</ele>
      </trkpt>
      <trkpt lat="44.9484" lon="5.34159">
        <ele>1223.4</ele>
      </trkpt>
      <trkpt lat="44.9477" lon="5.34162">
        <ele>1227.9</ele>
      </trkpt>
      <trkpt lat="44.9467" lon="5.34052">
        <ele>1215.6</ele>
      </trkpt>
      <trkpt lat="44.94638" lon="5.34075">
        <ele>1216.2</ele>
      </trkpt>
      <trkpt lat="44.9457" lon="5.34193">
        <ele>1223.4</ele>
      </trkpt>
      <trkpt lat="44.94516" lon="5.34212">
        <ele>1228.3</ele>
      </trkpt>
      <trkpt lat="44.94462" lon="5.34079">
        <ele>1218.2</ele>
      </trkpt>
      <trkpt lat="44.94435" lon="5.34048">
        <ele>1216.9</ele>
      </trkpt>
      <trkpt lat="44.94379" lon="5.34029">
        <ele>1220.9</ele>
      </trkpt>
      <trkpt lat="44.94344" lon="5.34002">
        <ele>1220.1</ele>
      </trkpt>
      <trkpt lat="44.94301" lon="5.33999">
        <ele>1222.5</ele>
      </trkpt>
      <trkpt lat="44.94255" lon="5.33983">
        <ele>1225.3</ele>
      </trkpt>
      <trkpt lat="44.9426" lon="5.33926">
        <ele>1226.5</ele>
      </trkpt>
      <trkpt lat="44.94306" lon="5.33835">
        <ele>1219.6</ele>
      </trkpt>
      <trkpt lat="44.94274" lon="5.33785">
        <ele>1219.9</ele>
      </trkpt>
      <trkpt lat="44.9419" lon="5.33717">
        <ele>1222.7</ele>
      </trkpt>
      <trkpt lat="44.94171" lon="5.33675">
        <ele>1218.8</ele>
      </trkpt>
      <trkpt lat="44.94155" lon="5.33557">
        <ele>1207.8</ele>
      </trkpt>
      <trkpt lat="44.94131" lon="5.33507">
        <ele>1201.7</ele>
      </trkpt>
      <trkpt lat="44.94196" lon="5.33424">
        <ele>1198.2</ele>
      </trkpt>
      <trkpt lat="44.94244" lon="5.33397">
        <ele>1197.6</ele>
      </trkpt>
      <trkpt lat="44.9425" lon="5.33363">
        <ele>1194.2</ele>
      </trkpt>
      <trkpt lat="44.94347" lon="5.33208">
        <ele>1176</ele>
      </trkpt>
      <trkpt lat="44.94373" lon="5.33114">
        <ele>1159.6</ele>
      </trkpt>
      <trkpt lat="44.94425" lon="5.33045">
        <ele>1150.1</ele>
      </trkpt>
      <trkpt lat="44.94462" lon="5.32944">
        <ele>1135</ele>
      </trkpt>
      <trkpt lat="44.94462" lon="5.32893">
        <ele>1128</ele>
      </trkpt>
      <trkpt lat="44.94489" lon="5.32858">
        <ele>1125.9</ele>
      </trkpt>
      <trkpt lat="44.94482" lon="5.32769">
        <ele>1118</ele>
      </trkpt>
      <trkpt lat="44.94493" lon="5.32685">
        <ele>1109.6</ele>
      </trkpt>
      <trkpt lat="44.94511" lon="5.32634">
        <ele>1103.4</ele>
      </trkpt>
      <trkpt lat="44.94547" lon="5.32581">
        <ele>1097.6</ele>
      </trkpt>
      <trkpt lat="44.94658" lon="5.32451">
        <ele>1089.4</ele>
      </trkpt>
      <trkpt lat="44.94689" lon="5.32429">
        <ele>1088.4</ele>
      </trkpt>
      <trkpt lat="44.947" lon="5.32383">
        <ele>1085.1</ele>
      </trkpt>
      <trkpt lat="44.94762" lon="5.32309">
        <ele>1081.3</ele>
      </trkpt>
      <trkpt lat="44.94939" lon="5.32218">
        <ele>1085.8</ele>
      </trkpt>
      <trkpt lat="44.95118" lon="5.32373">
        <ele>1080</ele>
      </trkpt>
      <trkpt lat="44.95345" lon="5.32525">
        <ele>1074.5</ele>
      </trkpt>
      <trkpt lat="44.95557" lon="5.32588">
        <ele>1082.2</ele>
      </trkpt>
      <trkpt lat="44.95566" lon="5.32566">
        <ele>1084.3</ele>
      </trkpt>
      <trkpt lat="44.95594" lon="5.32555">
        <ele>1088.7</ele>
      </trkpt>
      <trkpt lat="44.95605" lon="5.32525">
        <ele>1091.8</ele>
      </trkpt>
      <trkpt lat="44.95682" lon="5.32561">
        <ele>1102.5</ele>
      </trkpt>
      <trkpt lat="44.95722" lon="5.32581">
        <ele>1109.3</ele>
      </trkpt>
      <trkpt lat="44.95783" lon="5.3254">
        <ele>1119.6</ele>
      </trkpt>
      <trkpt lat="44.95912" lon="5.32568">
        <ele>1129.8</ele>
      </trkpt>
      <trkpt lat="44.96004" lon="5.32571">
        <ele>1135.1</ele>
      </trkpt>
      <trkpt lat="44.96085" lon="5.32599">
        <ele>1132.9</ele>
      </trkpt>
      <trkpt lat="44.96124" lon="5.32627">
        <ele>1131.1</ele>
      </trkpt>
      <trkpt lat="44.96183" lon="5.32714">
        <ele>1128.2</ele>
      </trkpt>
      <trkpt lat="44.96227" lon="5.32758">
        <ele>1126.3</ele>
      </trkpt>
      <trkpt lat="44.96259" lon="5.32826">
        <ele>1123.6</ele>
      </trkpt>
      <trkpt lat="44.96262" lon="5.32886">
        <ele>1118.6</ele>
      </trkpt>
      <trkpt lat="44.96291" lon="5.32907">
        <ele>1114.6</ele>
      </trkpt>
      <trkpt lat="44.96337" lon="5.32925">
        <ele>1111.8</ele>
      </trkpt>
      <trkpt lat="44.96387" lon="5.32918">
        <ele>1108</ele>
      </trkpt>
      <trkpt lat="44.96519" lon="5.33027">
        <ele>1107.5</ele>
      </trkpt>
      <trkpt lat="44.96535" lon="5.33028">
        <ele>1107.3</ele>
      </trkpt>
      <trkpt lat="44.9656" lon="5.33001">
        <ele>1103.6</ele>
      </trkpt>
      <trkpt lat="44.96594" lon="5.3291">
        <ele>1094.2</ele>
      </trkpt>
      <trkpt lat="44.96612" lon="5.32826">
        <ele>1084.8</ele>
      </trkpt>
      <trkpt lat="44.96652" lon="5.3278">
        <ele>1084.2</ele>
      </trkpt>
      <trkpt lat="44.96693" lon="5.32754">
        <ele>1084.4</ele>
      </trkpt>
      <trkpt lat="44.96848" lon="5.32772">
        <ele>1093.8</ele>
      </trkpt>
      <trkpt lat="44.96876" lon="5.32738">
        <ele>1095</ele>
      </trkpt>
      <trkpt lat="44.96924" lon="5.32687">
        <ele>1100.1</ele>
      </trkpt>
      <trkpt lat="44.96958" lon="5.32683">
        <ele>1100.9</ele>
      </trkpt>
      <trkpt lat="44.97002" lon="5.32809">
        <ele>1090.3</ele>
      </trkpt>
      <trkpt lat="44.97091" lon="5.3294">
        <ele>1086.2</ele>
      </trkpt>
      <trkpt lat="44.97147" lon="5.32937">
        <ele>1084.4</ele>
      </trkpt>
      <trkpt lat="44.97186" lon="5.32898">
        <ele>1085.7</ele>
      </trkpt>
      <trkpt lat="44.97278" lon="5.32747">
        <ele>1097.1</ele>
      </trkpt>
      <trkpt lat="44.97414" lon="5.32723">
        <ele>1092.5</ele>
      </trkpt>
      <trkpt lat="44.97477" lon="5.32745">
        <ele>1093.3</ele>
      </trkpt>
      <trkpt lat="44.97535" lon="5.32742">
        <ele>1100.9</ele>
      </trkpt>
      <trkpt lat="44.97401" lon="5.32618">
        <ele>1116.5</ele>
      </trkpt>
      <trkpt lat="44.97491" lon="5.32626">
        <ele>1114.4</ele>
      </trkpt>
      <trkpt lat="44.9751" lon="5.32604">
        <ele>1117.1</ele>
      </trkpt>
      <trkpt lat="44.9751" lon="5.32576">
        <ele>1120.3</ele>
      </trkpt>
      <trkpt lat="44.97451" lon="5.32446">
        <ele>1134.9</ele>
      </trkpt>
      <trkpt lat="44.97459" lon="5.32405">
        <ele>1136.8</ele>
      </trkpt>
      <trkpt lat="44.97563" lon="5.32385">
        <ele>1141.8</ele>
      </trkpt>
      <trkpt lat="44.97586" lon="5.32447">
        <ele>1135</ele>
      </trkpt>
      <trkpt lat="44.9763" lon="5.3249">
        <ele>1139.8</ele>
      </trkpt>
      <trkpt lat="44.97713" lon="5.32653">
        <ele>1138.9</ele>
      </trkpt>
      <trkpt lat="44.97756" lon="5.32716">
        <ele>1138.5</ele>
      </trkpt>
      <trkpt lat="44.97785" lon="5.32724">
        <ele>1137.9</ele>
      </trkpt>
      <trkpt lat="44.9783" lon="5.32647">
        <ele>1150.8</ele>
      </trkpt>
      <trkpt lat="44.97924" lon="5.32598">
        <ele>1150.8</ele>
      </trkpt>
      <trkpt lat="44.97947" lon="5.32561">
        <ele>1151.5</ele>
      </trkpt>
      <trkpt lat="44.97953" lon="5.3253">
        <ele>1151.3</ele>
      </trkpt>
      <trkpt lat="44.98042" lon="5.32452">
        <ele>1149</ele>
      </trkpt>
      <trkpt lat="44.98089" lon="5.32395">
        <ele>1144.9</ele>
      </trkpt>
      <trkpt lat="44.98177" lon="5.32313">
        <ele>1137</ele>
      </trkpt>
      <trkpt lat="44.98441" lon="5.32118">
        <ele>1106.3</ele>
      </trkpt>
      <trkpt lat="44.98486" lon="5.32121">
        <ele>1098.8</ele>
      </trkpt>
      <trkpt lat="44.98519" lon="5.32135">
        <ele>1093.2</ele>
      </trkpt>
      <trkpt lat="44.9855" lon="5.32156">
        <ele>1087.9</ele>
      </trkpt>
      <trkpt lat="44.98573" lon="5.32138">
        <ele>1083.5</ele>
      </trkpt>
      <trkpt lat="44.98574" lon="5.32087">
        <ele>1082.7</ele>
      </trkpt>
      <trkpt lat="44.98603" lon="5.32032">
        <ele>1085.7</ele>
      </trkpt>
      <trkpt lat="44.98669" lon="5.31997">
        <ele>1090.8</ele>
      </trkpt>
      <trkpt lat="44.98808" lon="5.32008">
        <ele>1081.8</ele>
      </trkpt>
      <trkpt lat="44.98847" lon="5.31978">
        <ele>1086.1</ele>
      </trkpt>
      <trkpt lat="44.98924" lon="5.31967">
        <ele>1082.2</ele>
      </trkpt>
      <trkpt lat="44.99021" lon="5.31893">
        <ele>1083.3</ele>
      </trkpt>
      <trkpt lat="44.99033" lon="5.31849">
        <ele>1080.7</ele>
      </trkpt>
      <trkpt lat="44.99091" lon="5.31788">
        <ele>1074.9</ele>
      </trkpt>
      <trkpt lat="44.99185" lon="5.3174">
        <ele>1059</ele>
      </trkpt>
      <trkpt lat="44.99324" lon="5.31741">
        <ele>1040.9</ele>
      </trkpt>
      <trkpt lat="44.9944" lon="5.31712">
        <ele>1021.2</ele>
      </trkpt>
      <trkpt lat="44.99485" lon="5.31686">
        <ele>1011.5</ele>
      </trkpt>
      <trkpt lat="44.99535" lon="5.31603">
        <ele>995.3</ele>
      </trkpt>
      <trkpt lat="44.99529" lon="5.3158">
        <ele>994.2</ele>
      </trkpt>
      <trkpt lat="44.99424" lon="5.31457">
        <ele>990.5</ele>
      </trkpt>
      <trkpt lat="44.99415" lon="5.31305">
        <ele>976.2</ele>
      </trkpt>
      <trkpt lat="44.99425" lon="5.31232">
        <ele>965.2</ele>
      </trkpt>
      <trkpt lat="44.99455" lon="5.31142">
        <ele>952.9</ele>
      </trkpt>
      <trkpt lat="44.9956" lon="5.31091">
        <ele>938.3</ele>
      </trkpt>
      <trkpt lat="44.99686" lon="5.30923">
        <ele>908.5</ele>
      </trkpt>
      <trkpt lat="44.99703" lon="5.30974">
        <ele>907.4</ele>
      </trkpt>
      <trkpt lat="44.99751" lon="5.31028">
        <ele>899.3</ele>
      </trkpt>
      <trkpt lat="44.99792" lon="5.31097">
        <ele>896.3</ele>
      </trkpt>
      <trkpt lat="44.99858" lon="5.31122">
        <ele>890.6</ele>
      </trkpt>
      <trkpt lat="44.9991" lon="5.31201">
        <ele>885.8</ele>
      </trkpt>
      <trkpt lat="44.99934" lon="5.31231">
        <ele>882.6</ele>
      </trkpt>
      <trkpt lat="45.00007" lon="5.3121">
        <ele>875.9</ele>
      </trkpt>
      <trkpt lat="45.00031" lon="5.3122">
        <ele>873.8</ele>
      </trkpt>
      <trkpt lat="45.00311" lon="5.31438">
        <ele>862.5</ele>
      </trkpt>
      <trkpt lat="45.00301" lon="5.31476">
        <ele>860.9</ele>
      </trkpt>
      <trkpt lat="45.00261" lon="5.3148">
        <ele>861.7</ele>
      </trkpt>
      <trkpt lat="45.00205" lon="5.31525">
        <ele>866.1</ele>
      </trkpt>
      <trkpt lat="45.0023" lon="5.31694">
        <ele>873.4</ele>
      </trkpt>
      <trkpt lat="45.00287" lon="5.31745">
        <ele>868.3</ele>
      </trkpt>
      <trkpt lat="45.00237" lon="5.31847">
        <ele>868.3</ele>
      </trkpt>
      <trkpt lat="45.00249" lon="5.31898">
        <ele>865.5</ele>
      </trkpt>
      <trkpt lat="45.0026" lon="5.32007">
        <ele>858.6</ele>
      </trkpt>
      <trkpt lat="45.00275" lon="5.32042">
        <ele>856.2</ele>
      </trkpt>
      <trkpt lat="45.00288" lon="5.32049">
        <ele>854.6</ele>
      </trkpt>
      <trkpt lat="45.0036" lon="5.32063">
        <ele>845.6</ele>
      </trkpt>
      <trkpt lat="45.00524" lon="5.32059">
        <ele>820.8</ele>
      </trkpt>
      <trkpt lat="45.00552" lon="5.32016">
        <ele>819.2</ele>
      </trkpt>
      <trkpt lat="45.00572" lon="5.32014">
        <ele>816.6</ele>
      </trkpt>
      <trkpt lat="45.0059" lon="5.3204">
        <ele>813.4</ele>
      </trkpt>
      <trkpt lat="45.00661" lon="5.32066">
        <ele>807.6</ele>
      </trkpt>
      <trkpt lat="45.00698" lon="5.32103">
        <ele>802.4</ele>
      </trkpt>
      <trkpt lat="45.00721" lon="5.32104">
        <ele>798</ele>
      </trkpt>
      <trkpt lat="45.00904" lon="5.3205">
        <ele>770.2</ele>
      </trkpt>
      <trkpt lat="45.00934" lon="5.32027">
        <ele>764.6</ele>
      </trkpt>
      <trkpt lat="45.0096" lon="5.32003">
        <ele>757.8</ele>
      </trkpt>
      <trkpt lat="45.00988" lon="5.31947">
        <ele>744.6</ele>
      </trkpt>
      <trkpt lat="45.00985" lon="5.31899">
        <ele>738.6</ele>
      </trkpt>
      <trkpt lat="45.00964" lon="5.31828">
        <ele>729.3</ele>
      </trkpt>
      <trkpt lat="45.00912" lon="5.31756">
        <ele>736.3</ele>
      </trkpt>
      <trkpt lat="45.00771" lon="5.31409">
        <ele>684.6</ele>
      </trkpt>
      <trkpt lat="45.00764" lon="5.31259">
        <ele>656.9</ele>
      </trkpt>
      <trkpt lat="45.00795" lon="5.31356">
        <ele>656.8</ele>
      </trkpt>
      <trkpt lat="45.00791" lon="5.31175">
        <ele>627.2</ele>
      </trkpt>
      <trkpt lat="45.00777" lon="5.31098">
        <ele>621.8</ele>
      </trkpt>
      <trkpt lat="45.00764" lon="5.30983">
        <ele>601.1</ele>
      </trkpt>
      <trkpt lat="45.00822" lon="5.31085">
        <ele>592.6</ele>
      </trkpt>
      <trkpt lat="45.00888" lon="5.31145">
        <ele>574.4</ele>
      </trkpt>
      <trkpt lat="45.00897" lon="5.31089">
        <ele>562.5</ele>
      </trkpt>
      <trkpt lat="45.00885" lon="5.30923">
        <ele>550</ele>
      </trkpt>
      <trkpt lat="45.00912" lon="5.30757">
        <ele>534.5</ele>
      </trkpt>
      <trkpt lat="45.00932" lon="5.30678">
        <ele>528.1</ele>
      </trkpt>
      <trkpt lat="45.00922" lon="5.30659">
        <ele>527.2</ele>
      </trkpt>
      <trkpt lat="45.00861" lon="5.30665">
        <ele>519.8</ele>
      </trkpt>
      <trkpt lat="45.00835" lon="5.30689">
        <ele>521.8</ele>
      </trkpt>
      <trkpt lat="45.00772" lon="5.30714">
        <ele>520.5</ele>
      </trkpt>
      <trkpt lat="45.00605" lon="5.30629">
        <ele>488.8</ele>
      </trkpt>
      <trkpt lat="45.00572" lon="5.30602">
        <ele>488.3</ele>
      </trkpt>
      <trkpt lat="45.00549" lon="5.3056">
        <ele>488.8</ele>
      </trkpt>
      <trkpt lat="45.00549" lon="5.30534">
        <ele>483.1</ele>
      </trkpt>
      <trkpt lat="45.00571" lon="5.30485">
        <ele>464.2</ele>
      </trkpt>
      <trkpt lat="45.00567" lon="5.3044">
        <ele>460.8</ele>
      </trkpt>
      <trkpt lat="45.00528" lon="5.30393">
        <ele>477.7</ele>
      </trkpt>
      <trkpt lat="45.00599" lon="5.30375">
        <ele>451.3</ele>
      </trkpt>
      <trkpt lat="45.00638" lon="5.30339">
        <ele>435.9</ele>
      </trkpt>
      <trkpt lat="45.00655" lon="5.30264">
        <ele>430.8</ele>
      </trkpt>
      <trkpt lat="45.00643" lon="5.30216">
        <ele>440</ele>
      </trkpt>
      <trkpt lat="45.00652" lon="5.30156">
        <ele>437.2</ele>
      </trkpt>
      <trkpt lat="45.00675" lon="5.3011">
        <ele>422.8</ele>
      </trkpt>
      <trkpt lat="45.00673" lon="5.30014">
        <ele>411.9</ele>
      </trkpt>
      <trkpt lat="45.00651" lon="5.29934">
        <ele>405</ele>
      </trkpt>
      <trkpt lat="45.00582" lon="5.29803">
        <ele>397</ele>
      </trkpt>
      <trkpt lat="45.0065" lon="5.29867">
        <ele>386.2</ele>
      </trkpt>
      <trkpt lat="45.00699" lon="5.29965">
        <ele>388.9</ele>
      </trkpt>
      <trkpt lat="45.00727" lon="5.30049">
        <ele>389.4</ele>
      </trkpt>
      <trkpt lat="45.00743" lon="5.30097">
        <ele>384.6</ele>
      </trkpt>
      <trkpt lat="45.00761" lon="5.30092">
        <ele>377.9</ele>
      </trkpt>
      <trkpt lat="45.00762" lon="5.30073">
        <ele>376.5</ele>
      </trkpt>
      <trkpt lat="45.00784" lon="5.30071">
        <ele>370.2</ele>
      </trkpt>
      <trkpt lat="45.0085" lon="5.29989">
        <ele>346.4</ele>
      </trkpt>
      <trkpt lat="45.00915" lon="5.29995">
        <ele>337.6</ele>
      </trkpt>
      <trkpt lat="45.00977" lon="5.29945">
        <ele>325</ele>
      </trkpt>
      <trkpt lat="45.01005" lon="5.29991">
        <ele>326.5</ele>
      </trkpt>
      <trkpt lat="45.00967" lon="5.30062">
        <ele>338.8</ele>
      </trkpt>
      <trkpt lat="45.01085" lon="5.30192">
        <ele>341.1</ele>
      </trkpt>
      <trkpt lat="45.01127" lon="5.30222">
        <ele>340.5</ele>
      </trkpt>
      <trkpt lat="45.01169" lon="5.30329">
        <ele>356.4</ele>
      </trkpt>
      <trkpt lat="45.01221" lon="5.30411">
        <ele>361.6</ele>
      </trkpt>
      <trkpt lat="45.01259" lon="5.30429">
        <ele>354</ele>
      </trkpt>
      <trkpt lat="45.01271" lon="5.30458">
        <ele>358.2</ele>
      </trkpt>
      <trkpt lat="45.01287" lon="5.30469">
        <ele>357.1</ele>
      </trkpt>
      <trkpt lat="45.01285" lon="5.30459">
        <ele>355.3</ele>
      </trkpt>
      <trkpt lat="45.0133" lon="5.30376">
        <ele>328.8</ele>
      </trkpt>
      <trkpt lat="45.01388" lon="5.3022">
        <ele>309.1</ele>
      </trkpt>
      <trkpt lat="45.01516" lon="5.30154">
        <ele>297.3</ele>
      </trkpt>
      <trkpt lat="45.01617" lon="5.30137">
        <ele>289</ele>
      </trkpt>
      <trkpt lat="45.01666" lon="5.3">
        <ele>286</ele>
      </trkpt>
      <trkpt lat="45.01701" lon="5.29961">
        <ele>285.9</ele>
      </trkpt>
      <trkpt lat="45.01721" lon="5.29886">
        <ele>285.2</ele>
      </trkpt>
      <trkpt lat="45.01746" lon="5.29611">
        <ele>271.8</ele>
      </trkpt>
    </trkseg>
  </trk>
  <trk>
    <name><![CDATA[Le Moucherotte par Lans-en-Vercors - 6861 - UtagawaVTT.com]]></name>
    <trkseg>
      <trkpt lat="45.17072" lon="5.6305">
        <ele>1163.4</ele>
        <time>2012-08-14T05:43:21Z</time>
      </trkpt>
      <trkpt lat="45.17076" lon="5.63039">
        <ele>1163.3</ele>
        <time>2012-08-14T05:43:27Z</time>
      </trkpt>
      <trkpt lat="45.17073" lon="5.63017">
        <ele>1163.4</ele>
        <time>2012-08-14T05:43:36Z</time>
      </trkpt>
      <trkpt lat="45.17071" lon="5.63003">
        <ele>1163.5</ele>
        <time>2012-08-14T05:43:42Z</time>
      </trkpt>
      <trkpt lat="45.17066" lon="5.62987">
        <ele>1163.9</ele>
        <time>2012-08-14T05:44:02Z</time>
      </trkpt>
      <trkpt lat="45.17059" lon="5.62975">
        <ele>1164.5</ele>
        <time>2012-08-14T05:44:08Z</time>
      </trkpt>
      <trkpt lat="45.17065" lon="5.62943">
        <ele>1165</ele>
        <time>2012-08-14T05:44:18Z</time>
      </trkpt>
      <trkpt lat="45.17066" lon="5.62929">
        <ele>1165.3</ele>
        <time>2012-08-14T05:44:22Z</time>
      </trkpt>
      <trkpt lat="45.17062" lon="5.62862">
        <ele>1168.1</ele>
        <time>2012-08-14T05:44:41Z</time>
      </trkpt>
      <trkpt lat="45.17058" lon="5.62794">
        <ele>1169.9</ele>
        <time>2012-08-14T05:45:01Z</time>
      </trkpt>
      <trkpt lat="45.17043" lon="5.6274">
        <ele>1170.3</ele>
        <time>2012-08-14T05:45:18Z</time>
      </trkpt>
      <trkpt lat="45.17038" lon="5.62732">
        <ele>1169.7</ele>
        <time>2012-08-14T05:45:29Z</time>
      </trkpt>
      <trkpt lat="45.17018" lon="5.62717">
        <ele>1169.1</ele>
        <time>2012-08-14T05:45:54Z</time>
      </trkpt>
      <trkpt lat="45.17006" lon="5.62709">
        <ele>1168.7</ele>
        <time>2012-08-14T05:46:04Z</time>
      </trkpt>
      <trkpt lat="45.16984" lon="5.62695">
        <ele>1170.7</ele>
        <time>2012-08-14T05:46:25Z</time>
      </trkpt>
      <trkpt lat="45.16939" lon="5.62672">
        <ele>1178.8</ele>
        <time>2012-08-14T05:46:37Z</time>
      </trkpt>
      <trkpt lat="45.16919" lon="5.62619">
        <ele>1181</ele>
        <time>2012-08-14T05:46:46Z</time>
      </trkpt>
      <trkpt lat="45.16935" lon="5.62482">
        <ele>1167.5</ele>
        <time>2012-08-14T05:47:54Z</time>
      </trkpt>
      <trkpt lat="45.16909" lon="5.6246">
        <ele>1167.8</ele>
        <time>2012-08-14T05:47:57Z</time>
      </trkpt>
      <trkpt lat="45.16893" lon="5.62447">
        <ele>1166.2</ele>
        <time>2012-08-14T05:48:02Z</time>
      </trkpt>
      <trkpt lat="45.16859" lon="5.62438">
        <ele>1163.9</ele>
        <time>2012-08-14T05:48:10Z</time>
      </trkpt>
      <trkpt lat="45.1683" lon="5.62443">
        <ele>1164.3</ele>
        <time>2012-08-14T05:48:15Z</time>
      </trkpt>
      <trkpt lat="45.16808" lon="5.6245">
        <ele>1165.6</ele>
        <time>2012-08-14T05:48:18Z</time>
      </trkpt>
      <trkpt lat="45.16774" lon="5.62456">
        <ele>1166.7</ele>
        <time>2012-08-14T05:48:22Z</time>
      </trkpt>
      <trkpt lat="45.16734" lon="5.62437">
        <ele>1162.8</ele>
        <time>2012-08-14T05:48:27Z</time>
      </trkpt>
      <trkpt lat="45.16691" lon="5.62408">
        <ele>1161.6</ele>
        <time>2012-08-14T05:48:34Z</time>
      </trkpt>
      <trkpt lat="45.16652" lon="5.62391">
        <ele>1160.5</ele>
        <time>2012-08-14T05:49:15Z</time>
      </trkpt>
      <trkpt lat="45.16658" lon="5.62393">
        <ele>1161.4</ele>
        <time>2012-08-14T05:49:19Z</time>
      </trkpt>
      <trkpt lat="45.16667" lon="5.62418">
        <ele>1165.2</ele>
        <time>2012-08-14T05:49:33Z</time>
      </trkpt>
      <trkpt lat="45.16669" lon="5.62424">
        <ele>1166.1</ele>
        <time>2012-08-14T05:49:35Z</time>
      </trkpt>
      <trkpt lat="45.1667" lon="5.62426">
        <ele>1166.4</ele>
        <time>2012-08-14T05:49:52Z</time>
      </trkpt>
      <trkpt lat="45.16669" lon="5.62423">
        <ele>1165.9</ele>
        <time>2012-08-14T05:49:56Z</time>
      </trkpt>
      <trkpt lat="45.16621" lon="5.62432">
        <ele>1160.9</ele>
        <time>2012-08-14T05:50:11Z</time>
      </trkpt>
      <trkpt lat="45.1659" lon="5.62471">
        <ele>1162</ele>
        <time>2012-08-14T05:50:22Z</time>
      </trkpt>
      <trkpt lat="45.16588" lon="5.62554">
        <ele>1177.3</ele>
        <time>2012-08-14T05:50:35Z</time>
      </trkpt>
      <trkpt lat="45.16538" lon="5.62635">
        <ele>1176.2</ele>
        <time>2012-08-14T05:50:52Z</time>
      </trkpt>
      <trkpt lat="45.16503" lon="5.62678">
        <ele>1169.9</ele>
        <time>2012-08-14T05:51:03Z</time>
      </trkpt>
      <trkpt lat="45.16473" lon="5.62696">
        <ele>1169.7</ele>
        <time>2012-08-14T05:51:10Z</time>
      </trkpt>
      <trkpt lat="45.16448" lon="5.62693">
        <ele>1167.3</ele>
        <time>2012-08-14T05:51:16Z</time>
      </trkpt>
      <trkpt lat="45.16446" lon="5.62673">
        <ele>1164.6</ele>
        <time>2012-08-14T05:51:20Z</time>
      </trkpt>
      <trkpt lat="45.16432" lon="5.6268">
        <ele>1164.6</ele>
        <time>2012-08-14T05:51:24Z</time>
      </trkpt>
      <trkpt lat="45.16394" lon="5.6264">
        <ele>1162.7</ele>
        <time>2012-08-14T05:51:38Z</time>
      </trkpt>
      <trkpt lat="45.16349" lon="5.62587">
        <ele>1162.9</ele>
        <time>2012-08-14T05:51:54Z</time>
      </trkpt>
      <trkpt lat="45.16331" lon="5.62575">
        <ele>1162.7</ele>
        <time>2012-08-14T05:51:59Z</time>
      </trkpt>
      <trkpt lat="45.16308" lon="5.62564">
        <ele>1161.9</ele>
        <time>2012-08-14T05:52:05Z</time>
      </trkpt>
      <trkpt lat="45.16313" lon="5.62532">
        <ele>1157.4</ele>
        <time>2012-08-14T05:52:10Z</time>
      </trkpt>
      <trkpt lat="45.16331" lon="5.62494">
        <ele>1150.4</ele>
        <time>2012-08-14T05:52:15Z</time>
      </trkpt>
      <trkpt lat="45.16326" lon="5.62483">
        <ele>1149.2</ele>
        <time>2012-08-14T05:52:18Z</time>
      </trkpt>
      <trkpt lat="45.16323" lon="5.62476">
        <ele>1148.7</ele>
        <time>2012-08-14T05:52:19Z</time>
      </trkpt>
      <trkpt lat="45.16308" lon="5.6247">
        <ele>1149.7</ele>
        <time>2012-08-14T05:52:22Z</time>
      </trkpt>
      <trkpt lat="45.16271" lon="5.62433">
        <ele>1150.9</ele>
        <time>2012-08-14T05:52:30Z</time>
      </trkpt>
      <trkpt lat="45.1623" lon="5.6239">
        <ele>1157.7</ele>
        <time>2012-08-14T05:52:42Z</time>
      </trkpt>
      <trkpt lat="45.16216" lon="5.62339">
        <ele>1154.9</ele>
        <time>2012-08-14T05:52:51Z</time>
      </trkpt>
      <trkpt lat="45.16209" lon="5.623">
        <ele>1154.9</ele>
        <time>2012-08-14T05:52:58Z</time>
      </trkpt>
      <trkpt lat="45.16207" lon="5.62233">
        <ele>1152</ele>
        <time>2012-08-14T05:53:12Z</time>
      </trkpt>
      <trkpt lat="45.16198" lon="5.62223">
        <ele>1153.1</ele>
        <time>2012-08-14T05:53:15Z</time>
      </trkpt>
      <trkpt lat="45.1619" lon="5.62213">
        <ele>1154</ele>
        <time>2012-08-14T05:53:17Z</time>
      </trkpt>
      <trkpt lat="45.16166" lon="5.62189">
        <ele>1157.2</ele>
        <time>2012-08-14T05:53:22Z</time>
      </trkpt>
      <trkpt lat="45.16161" lon="5.62184">
        <ele>1158.1</ele>
        <time>2012-08-14T05:53:23Z</time>
      </trkpt>
      <trkpt lat="45.16153" lon="5.62173">
        <ele>1159</ele>
        <time>2012-08-14T05:53:25Z</time>
      </trkpt>
      <trkpt lat="45.16147" lon="5.62161">
        <ele>1159.4</ele>
        <time>2012-08-14T05:53:27Z</time>
      </trkpt>
      <trkpt lat="45.1614" lon="5.6209">
        <ele>1155.9</ele>
        <time>2012-08-14T05:53:39Z</time>
      </trkpt>
      <trkpt lat="45.16131" lon="5.62023">
        <ele>1154.2</ele>
        <time>2012-08-14T05:53:53Z</time>
      </trkpt>
      <trkpt lat="45.16127" lon="5.62012">
        <ele>1154</ele>
        <time>2012-08-14T05:53:55Z</time>
      </trkpt>
      <trkpt lat="45.1612" lon="5.61994">
        <ele>1154</ele>
        <time>2012-08-14T05:53:58Z</time>
      </trkpt>
      <trkpt lat="45.16111" lon="5.61979">
        <ele>1154.9</ele>
        <time>2012-08-14T05:54:01Z</time>
      </trkpt>
      <trkpt lat="45.16102" lon="5.61956">
        <ele>1155.7</ele>
        <time>2012-08-14T05:54:05Z</time>
      </trkpt>
      <trkpt lat="45.16091" lon="5.61879">
        <ele>1158.1</ele>
        <time>2012-08-14T05:54:19Z</time>
      </trkpt>
      <trkpt lat="45.16099" lon="5.61843">
        <ele>1159.5</ele>
        <time>2012-08-14T05:54:29Z</time>
      </trkpt>
      <trkpt lat="45.16095" lon="5.61807">
        <ele>1157.4</ele>
        <time>2012-08-14T05:54:42Z</time>
      </trkpt>
      <trkpt lat="45.16074" lon="5.61787">
        <ele>1154.9</ele>
        <time>2012-08-14T05:54:51Z</time>
      </trkpt>
      <trkpt lat="45.16055" lon="5.61777">
        <ele>1153.4</ele>
        <time>2012-08-14T05:54:55Z</time>
      </trkpt>
      <trkpt lat="45.16034" lon="5.61771">
        <ele>1152.1</ele>
        <time>2012-08-14T05:54:58Z</time>
      </trkpt>
      <trkpt lat="45.16027" lon="5.6177">
        <ele>1151.8</ele>
        <time>2012-08-14T05:54:59Z</time>
      </trkpt>
      <trkpt lat="45.1601" lon="5.6177">
        <ele>1151.4</ele>
        <time>2012-08-14T05:55:01Z</time>
      </trkpt>
      <trkpt lat="45.15954" lon="5.61786">
        <ele>1149.5</ele>
        <time>2012-08-14T05:55:08Z</time>
      </trkpt>
      <trkpt lat="45.15925" lon="5.61795">
        <ele>1148.8</ele>
        <time>2012-08-14T05:55:11Z</time>
      </trkpt>
      <trkpt lat="45.15915" lon="5.61796">
        <ele>1148.2</ele>
        <time>2012-08-14T05:55:12Z</time>
      </trkpt>
      <trkpt lat="45.15887" lon="5.61803">
        <ele>1143.5</ele>
        <time>2012-08-14T05:55:15Z</time>
      </trkpt>
      <trkpt lat="45.15861" lon="5.61825">
        <ele>1141.5</ele>
        <time>2012-08-14T05:55:19Z</time>
      </trkpt>
      <trkpt lat="45.15839" lon="5.6187">
        <ele>1144.8</ele>
        <time>2012-08-14T05:55:24Z</time>
      </trkpt>
      <trkpt lat="45.15805" lon="5.61945">
        <ele>1153.9</ele>
        <time>2012-08-14T05:55:32Z</time>
      </trkpt>
      <trkpt lat="45.15786" lon="5.61948">
        <ele>1151.7</ele>
        <time>2012-08-14T05:55:36Z</time>
      </trkpt>
      <trkpt lat="45.15745" lon="5.61931">
        <ele>1141.3</ele>
        <time>2012-08-14T05:55:44Z</time>
      </trkpt>
      <trkpt lat="45.1574" lon="5.61932">
        <ele>1141.4</ele>
        <time>2012-08-14T05:55:45Z</time>
      </trkpt>
      <trkpt lat="45.15718" lon="5.61936">
        <ele>1142.1</ele>
        <time>2012-08-14T05:55:50Z</time>
      </trkpt>
      <trkpt lat="45.15643" lon="5.61919">
        <ele>1136</ele>
        <time>2012-08-14T05:56:05Z</time>
      </trkpt>
      <trkpt lat="45.15615" lon="5.61916">
        <ele>1134.7</ele>
        <time>2012-08-14T05:56:10Z</time>
      </trkpt>
      <trkpt lat="45.15575" lon="5.61905">
        <ele>1132.3</ele>
        <time>2012-08-14T05:56:15Z</time>
      </trkpt>
      <trkpt lat="45.15539" lon="5.61915">
        <ele>1128.5</ele>
        <time>2012-08-14T05:56:19Z</time>
      </trkpt>
      <trkpt lat="45.15496" lon="5.61939">
        <ele>1124.9</ele>
        <time>2012-08-14T05:56:25Z</time>
      </trkpt>
      <trkpt lat="45.15461" lon="5.61944">
        <ele>1121.7</ele>
        <time>2012-08-14T05:56:31Z</time>
      </trkpt>
      <trkpt lat="45.1544" lon="5.61935">
        <ele>1118.7</ele>
        <time>2012-08-14T05:56:34Z</time>
      </trkpt>
      <trkpt lat="45.15411" lon="5.61923">
        <ele>1114.3</ele>
        <time>2012-08-14T05:56:38Z</time>
      </trkpt>
      <trkpt lat="45.15385" lon="5.61895">
        <ele>1108.9</ele>
        <time>2012-08-14T05:56:43Z</time>
      </trkpt>
      <trkpt lat="45.15364" lon="5.61881">
        <ele>1105.7</ele>
        <time>2012-08-14T05:56:46Z</time>
      </trkpt>
      <trkpt lat="45.15354" lon="5.61877">
        <ele>1104.7</ele>
        <time>2012-08-14T05:56:47Z</time>
      </trkpt>
      <trkpt lat="45.15329" lon="5.61866">
        <ele>1101.7</ele>
        <time>2012-08-14T05:56:50Z</time>
      </trkpt>
      <trkpt lat="45.15293" lon="5.61867">
        <ele>1099.4</ele>
        <time>2012-08-14T05:56:54Z</time>
      </trkpt>
      <trkpt lat="45.15272" lon="5.61871">
        <ele>1098.4</ele>
        <time>2012-08-14T05:56:56Z</time>
      </trkpt>
      <trkpt lat="45.15239" lon="5.61879">
        <ele>1096.6</ele>
        <time>2012-08-14T05:56:59Z</time>
      </trkpt>
      <trkpt lat="45.15195" lon="5.61892">
        <ele>1091.7</ele>
        <time>2012-08-14T05:57:03Z</time>
      </trkpt>
      <trkpt lat="45.15161" lon="5.61904">
        <ele>1087.4</ele>
        <time>2012-08-14T05:57:06Z</time>
      </trkpt>
      <trkpt lat="45.15126" lon="5.61918">
        <ele>1084</ele>
        <time>2012-08-14T05:57:09Z</time>
      </trkpt>
      <trkpt lat="45.15114" lon="5.61924">
        <ele>1083.4</ele>
        <time>2012-08-14T05:57:10Z</time>
      </trkpt>
      <trkpt lat="45.15081" lon="5.61938">
        <ele>1081.7</ele>
        <time>2012-08-14T05:57:15Z</time>
      </trkpt>
      <trkpt lat="45.15055" lon="5.61962">
        <ele>1083.3</ele>
        <time>2012-08-14T05:57:17Z</time>
      </trkpt>
      <trkpt lat="45.1501" lon="5.61976">
        <ele>1082.2</ele>
        <time>2012-08-14T05:57:22Z</time>
      </trkpt>
      <trkpt lat="45.14971" lon="5.6197">
        <ele>1075.6</ele>
        <time>2012-08-14T05:57:26Z</time>
      </trkpt>
      <trkpt lat="45.14943" lon="5.61968">
        <ele>1071.3</ele>
        <time>2012-08-14T05:57:29Z</time>
      </trkpt>
      <trkpt lat="45.14931" lon="5.61968">
        <ele>1069.8</ele>
        <time>2012-08-14T05:57:30Z</time>
      </trkpt>
      <trkpt lat="45.14903" lon="5.6197">
        <ele>1067</ele>
        <time>2012-08-14T05:57:33Z</time>
      </trkpt>
      <trkpt lat="45.14896" lon="5.61971">
        <ele>1066.3</ele>
        <time>2012-08-14T05:57:34Z</time>
      </trkpt>
      <trkpt lat="45.14826" lon="5.6198">
        <ele>1061.4</ele>
        <time>2012-08-14T05:57:44Z</time>
      </trkpt>
      <trkpt lat="45.14819" lon="5.61982">
        <ele>1061.4</ele>
        <time>2012-08-14T05:57:45Z</time>
      </trkpt>
      <trkpt lat="45.14787" lon="5.61991">
        <ele>1061.9</ele>
        <time>2012-08-14T05:57:50Z</time>
      </trkpt>
      <trkpt lat="45.1478" lon="5.61994">
        <ele>1062.3</ele>
        <time>2012-08-14T05:57:51Z</time>
      </trkpt>
      <trkpt lat="45.14765" lon="5.62">
        <ele>1063.1</ele>
        <time>2012-08-14T05:57:53Z</time>
      </trkpt>
      <trkpt lat="45.1475" lon="5.62002">
        <ele>1062.6</ele>
        <time>2012-08-14T05:57:55Z</time>
      </trkpt>
      <trkpt lat="45.1472" lon="5.61984">
        <ele>1059.7</ele>
        <time>2012-08-14T05:57:59Z</time>
      </trkpt>
      <trkpt lat="45.14713" lon="5.61978">
        <ele>1058.6</ele>
        <time>2012-08-14T05:58:00Z</time>
      </trkpt>
      <trkpt lat="45.14679" lon="5.61957">
        <ele>1055.3</ele>
        <time>2012-08-14T05:58:05Z</time>
      </trkpt>
      <trkpt lat="45.14656" lon="5.61953">
        <ele>1056.1</ele>
        <time>2012-08-14T05:58:08Z</time>
      </trkpt>
      <trkpt lat="45.14638" lon="5.61948">
        <ele>1056.5</ele>
        <time>2012-08-14T05:58:11Z</time>
      </trkpt>
      <trkpt lat="45.14607" lon="5.61938">
        <ele>1056.6</ele>
        <time>2012-08-14T05:58:14Z</time>
      </trkpt>
      <trkpt lat="45.14588" lon="5.61932">
        <ele>1056.8</ele>
        <time>2012-08-14T05:58:16Z</time>
      </trkpt>
      <trkpt lat="45.14572" lon="5.61924">
        <ele>1057.6</ele>
        <time>2012-08-14T05:58:18Z</time>
      </trkpt>
      <trkpt lat="45.14543" lon="5.61874">
        <ele>1056.6</ele>
        <time>2012-08-14T05:58:23Z</time>
      </trkpt>
      <trkpt lat="45.14531" lon="5.61821">
        <ele>1054.6</ele>
        <time>2012-08-14T05:58:28Z</time>
      </trkpt>
      <trkpt lat="45.14531" lon="5.61764">
        <ele>1053.3</ele>
        <time>2012-08-14T05:58:33Z</time>
      </trkpt>
      <trkpt lat="45.14531" lon="5.61756">
        <ele>1053.1</ele>
        <time>2012-08-14T05:58:34Z</time>
      </trkpt>
      <trkpt lat="45.14533" lon="5.61723">
        <ele>1050.9</ele>
        <time>2012-08-14T05:58:38Z</time>
      </trkpt>
      <trkpt lat="45.14531" lon="5.61681">
        <ele>1049.8</ele>
        <time>2012-08-14T05:58:43Z</time>
      </trkpt>
      <trkpt lat="45.14523" lon="5.61667">
        <ele>1052.1</ele>
        <time>2012-08-14T05:59:48Z</time>
      </trkpt>
      <trkpt lat="45.1452" lon="5.61657">
        <ele>1051.6</ele>
        <time>2012-08-14T05:59:52Z</time>
      </trkpt>
      <trkpt lat="45.14518" lon="5.61647">
        <ele>1051</ele>
        <time>2012-08-14T05:59:54Z</time>
      </trkpt>
      <trkpt lat="45.14513" lon="5.61606">
        <ele>1046.4</ele>
        <time>2012-08-14T06:00:00Z</time>
      </trkpt>
      <trkpt lat="45.14492" lon="5.61548">
        <ele>1044.1</ele>
        <time>2012-08-14T06:00:12Z</time>
      </trkpt>
      <trkpt lat="45.14477" lon="5.6151">
        <ele>1045.7</ele>
        <time>2012-08-14T06:00:21Z</time>
      </trkpt>
      <trkpt lat="45.14468" lon="5.61487">
        <ele>1050.4</ele>
        <time>2012-08-14T06:00:27Z</time>
      </trkpt>
      <trkpt lat="45.14461" lon="5.61466">
        <ele>1056.6</ele>
        <time>2012-08-14T06:00:33Z</time>
      </trkpt>
      <trkpt lat="45.14458" lon="5.61442">
        <ele>1061.8</ele>
        <time>2012-08-14T06:00:41Z</time>
      </trkpt>
      <trkpt lat="45.14497" lon="5.61378">
        <ele>1059.2</ele>
        <time>2012-08-14T06:00:54Z</time>
      </trkpt>
      <trkpt lat="45.14508" lon="5.61331">
        <ele>1065.5</ele>
        <time>2012-08-14T06:01:10Z</time>
      </trkpt>
      <trkpt lat="45.14527" lon="5.61297">
        <ele>1068.6</ele>
        <time>2012-08-14T06:01:23Z</time>
      </trkpt>
      <trkpt lat="45.14553" lon="5.61259">
        <ele>1069.9</ele>
        <time>2012-08-14T06:01:37Z</time>
      </trkpt>
      <trkpt lat="45.14568" lon="5.61228">
        <ele>1072.2</ele>
        <time>2012-08-14T06:01:50Z</time>
      </trkpt>
      <trkpt lat="45.14577" lon="5.61191">
        <ele>1077.1</ele>
        <time>2012-08-14T06:02:04Z</time>
      </trkpt>
      <trkpt lat="45.14579" lon="5.61181">
        <ele>1078.5</ele>
        <time>2012-08-14T06:02:08Z</time>
      </trkpt>
      <trkpt lat="45.14587" lon="5.6115">
        <ele>1080.7</ele>
        <time>2012-08-14T06:02:23Z</time>
      </trkpt>
      <trkpt lat="45.1459" lon="5.61137">
        <ele>1081.2</ele>
        <time>2012-08-14T06:02:30Z</time>
      </trkpt>
      <trkpt lat="45.14605" lon="5.61108">
        <ele>1080.3</ele>
        <time>2012-08-14T06:02:46Z</time>
      </trkpt>
      <trkpt lat="45.14612" lon="5.61095">
        <ele>1079.4</ele>
        <time>2012-08-14T06:02:55Z</time>
      </trkpt>
      <trkpt lat="45.14624" lon="5.61083">
        <ele>1077.1</ele>
        <time>2012-08-14T06:03:05Z</time>
      </trkpt>
      <trkpt lat="45.14625" lon="5.6107">
        <ele>1075.7</ele>
        <time>2012-08-14T06:03:16Z</time>
      </trkpt>
      <trkpt lat="45.1459" lon="5.6105">
        <ele>1081.7</ele>
        <time>2012-08-14T06:03:37Z</time>
      </trkpt>
      <trkpt lat="45.14553" lon="5.61048">
        <ele>1088.3</ele>
        <time>2012-08-14T06:03:51Z</time>
      </trkpt>
      <trkpt lat="45.14522" lon="5.61047">
        <ele>1093.5</ele>
        <time>2012-08-14T06:04:02Z</time>
      </trkpt>
      <trkpt lat="45.14497" lon="5.61037">
        <ele>1096.4</ele>
        <time>2012-08-14T06:04:13Z</time>
      </trkpt>
      <trkpt lat="45.14461" lon="5.61021">
        <ele>1101.2</ele>
        <time>2012-08-14T06:04:28Z</time>
      </trkpt>
      <trkpt lat="45.14449" lon="5.61016">
        <ele>1102.6</ele>
        <time>2012-08-14T06:04:38Z</time>
      </trkpt>
      <trkpt lat="45.14446" lon="5.61018">
        <ele>1103.5</ele>
        <time>2012-08-14T06:04:45Z</time>
      </trkpt>
      <trkpt lat="45.1443" lon="5.6102">
        <ele>1107.1</ele>
        <time>2012-08-14T06:05:03Z</time>
      </trkpt>
      <trkpt lat="45.14411" lon="5.61017">
        <ele>1110.9</ele>
        <time>2012-08-14T06:05:14Z</time>
      </trkpt>
      <trkpt lat="45.14406" lon="5.61014">
        <ele>1111.6</ele>
        <time>2012-08-14T06:05:19Z</time>
      </trkpt>
      <trkpt lat="45.14407" lon="5.61">
        <ele>1108.8</ele>
        <time>2012-08-14T06:05:23Z</time>
      </trkpt>
      <trkpt lat="45.14417" lon="5.60953">
        <ele>1112.8</ele>
        <time>2012-08-14T06:05:40Z</time>
      </trkpt>
      <trkpt lat="45.14423" lon="5.60931">
        <ele>1114.8</ele>
        <time>2012-08-14T06:05:52Z</time>
      </trkpt>
      <trkpt lat="45.14429" lon="5.60923">
        <ele>1114.6</ele>
        <time>2012-08-14T06:05:59Z</time>
      </trkpt>
      <trkpt lat="45.14434" lon="5.6092">
        <ele>1114.3</ele>
        <time>2012-08-14T06:06:02Z</time>
      </trkpt>
      <trkpt lat="45.1445" lon="5.60898">
        <ele>1114.6</ele>
        <time>2012-08-14T06:06:15Z</time>
      </trkpt>
      <trkpt lat="45.14474" lon="5.6087">
        <ele>1113.7</ele>
        <time>2012-08-14T06:06:30Z</time>
      </trkpt>
      <trkpt lat="45.14498" lon="5.6085">
        <ele>1111.3</ele>
        <time>2012-08-14T06:06:44Z</time>
      </trkpt>
      <trkpt lat="45.14514" lon="5.6083">
        <ele>1110.9</ele>
        <time>2012-08-14T06:06:56Z</time>
      </trkpt>
      <trkpt lat="45.14523" lon="5.60807">
        <ele>1110</ele>
        <time>2012-08-14T06:07:10Z</time>
      </trkpt>
      <trkpt lat="45.14528" lon="5.60799">
        <ele>1109.8</ele>
        <time>2012-08-14T06:07:25Z</time>
      </trkpt>
      <trkpt lat="45.14546" lon="5.60777">
        <ele>1110.9</ele>
        <time>2012-08-14T06:07:42Z</time>
      </trkpt>
      <trkpt lat="45.14546" lon="5.60757">
        <ele>1112.4</ele>
        <time>2012-08-14T06:07:52Z</time>
      </trkpt>
      <trkpt lat="45.14532" lon="5.6075">
        <ele>1111.5</ele>
        <time>2012-08-14T06:07:59Z</time>
      </trkpt>
      <trkpt lat="45.14517" lon="5.60741">
        <ele>1108.8</ele>
        <time>2012-08-14T06:08:03Z</time>
      </trkpt>
      <trkpt lat="45.14505" lon="5.60737">
        <ele>1107</ele>
        <time>2012-08-14T06:08:05Z</time>
      </trkpt>
      <trkpt lat="45.1449" lon="5.60729">
        <ele>1106.7</ele>
        <time>2012-08-14T06:08:07Z</time>
      </trkpt>
      <trkpt lat="45.14481" lon="5.60724">
        <ele>1107.2</ele>
        <time>2012-08-14T06:08:08Z</time>
      </trkpt>
      <trkpt lat="45.14472" lon="5.60717">
        <ele>1107.4</ele>
        <time>2012-08-14T06:08:09Z</time>
      </trkpt>
      <trkpt lat="45.14451" lon="5.60703">
        <ele>1107.5</ele>
        <time>2012-08-14T06:08:11Z</time>
      </trkpt>
      <trkpt lat="45.14428" lon="5.60685">
        <ele>1106.5</ele>
        <time>2012-08-14T06:08:13Z</time>
      </trkpt>
      <trkpt lat="45.14408" lon="5.60674">
        <ele>1105.1</ele>
        <time>2012-08-14T06:08:15Z</time>
      </trkpt>
      <trkpt lat="45.14375" lon="5.60667">
        <ele>1101.5</ele>
        <time>2012-08-14T06:08:19Z</time>
      </trkpt>
      <trkpt lat="45.14369" lon="5.60666">
        <ele>1100.9</ele>
        <time>2012-08-14T06:08:20Z</time>
      </trkpt>
      <trkpt lat="45.14353" lon="5.60667">
        <ele>1100.2</ele>
        <time>2012-08-14T06:08:22Z</time>
      </trkpt>
      <trkpt lat="45.14322" lon="5.60674">
        <ele>1100</ele>
        <time>2012-08-14T06:08:27Z</time>
      </trkpt>
      <trkpt lat="45.14314" lon="5.60676">
        <ele>1099.9</ele>
        <time>2012-08-14T06:08:29Z</time>
      </trkpt>
      <trkpt lat="45.14294" lon="5.60682">
        <ele>1099.8</ele>
        <time>2012-08-14T06:08:37Z</time>
      </trkpt>
      <trkpt lat="45.1425" lon="5.60701">
        <ele>1102.1</ele>
        <time>2012-08-14T06:08:45Z</time>
      </trkpt>
      <trkpt lat="45.14239" lon="5.60706">
        <ele>1104.8</ele>
        <time>2012-08-14T06:08:47Z</time>
      </trkpt>
      <trkpt lat="45.14225" lon="5.60712">
        <ele>1107.6</ele>
        <time>2012-08-14T06:08:50Z</time>
      </trkpt>
      <trkpt lat="45.14191" lon="5.6071">
        <ele>1108.6</ele>
        <time>2012-08-14T06:08:57Z</time>
      </trkpt>
      <trkpt lat="45.14169" lon="5.60683">
        <ele>1102.3</ele>
        <time>2012-08-14T06:09:04Z</time>
      </trkpt>
      <trkpt lat="45.14169" lon="5.60621">
        <ele>1091.7</ele>
        <time>2012-08-14T06:09:17Z</time>
      </trkpt>
      <trkpt lat="45.14169" lon="5.60598">
        <ele>1088.6</ele>
        <time>2012-08-14T06:09:20Z</time>
      </trkpt>
      <trkpt lat="45.14171" lon="5.60582">
        <ele>1086.4</ele>
        <time>2012-08-14T06:09:22Z</time>
      </trkpt>
      <trkpt lat="45.14162" lon="5.60541">
        <ele>1083.1</ele>
        <time>2012-08-14T06:09:27Z</time>
      </trkpt>
      <trkpt lat="45.14159" lon="5.60532">
        <ele>1082.4</ele>
        <time>2012-08-14T06:09:28Z</time>
      </trkpt>
      <trkpt lat="45.14143" lon="5.60495">
        <ele>1079.1</ele>
        <time>2012-08-14T06:09:32Z</time>
      </trkpt>
      <trkpt lat="45.14123" lon="5.60443">
        <ele>1077.8</ele>
        <time>2012-08-14T06:09:41Z</time>
      </trkpt>
      <trkpt lat="45.14121" lon="5.60423">
        <ele>1077.2</ele>
        <time>2012-08-14T06:09:43Z</time>
      </trkpt>
      <trkpt lat="45.14117" lon="5.60401">
        <ele>1077.8</ele>
        <time>2012-08-14T06:09:45Z</time>
      </trkpt>
      <trkpt lat="45.14116" lon="5.60384">
        <ele>1079.2</ele>
        <time>2012-08-14T06:09:47Z</time>
      </trkpt>
      <trkpt lat="45.14112" lon="5.60363">
        <ele>1080.3</ele>
        <time>2012-08-14T06:09:51Z</time>
      </trkpt>
      <trkpt lat="45.14054" lon="5.60361">
        <ele>1069.7</ele>
        <time>2012-08-14T06:09:55Z</time>
      </trkpt>
      <trkpt lat="45.14048" lon="5.60346">
        <ele>1068.7</ele>
        <time>2012-08-14T06:09:58Z</time>
      </trkpt>
      <trkpt lat="45.14033" lon="5.60325">
        <ele>1065.5</ele>
        <time>2012-08-14T06:10:03Z</time>
      </trkpt>
      <trkpt lat="45.14028" lon="5.6031">
        <ele>1064.3</ele>
        <time>2012-08-14T06:10:06Z</time>
      </trkpt>
      <trkpt lat="45.14023" lon="5.60297">
        <ele>1062.8</ele>
        <time>2012-08-14T06:10:08Z</time>
      </trkpt>
      <trkpt lat="45.14011" lon="5.60265">
        <ele>1058.9</ele>
        <time>2012-08-14T06:10:12Z</time>
      </trkpt>
      <trkpt lat="45.14006" lon="5.60251">
        <ele>1057</ele>
        <time>2012-08-14T06:10:14Z</time>
      </trkpt>
      <trkpt lat="45.13996" lon="5.60212">
        <ele>1054.6</ele>
        <time>2012-08-14T06:10:18Z</time>
      </trkpt>
      <trkpt lat="45.13958" lon="5.60143">
        <ele>1050.7</ele>
        <time>2012-08-14T06:10:24Z</time>
      </trkpt>
      <trkpt lat="45.13909" lon="5.60109">
        <ele>1041.2</ele>
        <time>2012-08-14T06:10:30Z</time>
      </trkpt>
      <trkpt lat="45.13891" lon="5.601">
        <ele>1037.5</ele>
        <time>2012-08-14T06:10:32Z</time>
      </trkpt>
      <trkpt lat="45.13793" lon="5.60073">
        <ele>1025.4</ele>
        <time>2012-08-14T06:10:42Z</time>
      </trkpt>
      <trkpt lat="45.13758" lon="5.6006">
        <ele>1022.6</ele>
        <time>2012-08-14T06:10:49Z</time>
      </trkpt>
      <trkpt lat="45.13724" lon="5.60057">
        <ele>1021.5</ele>
        <time>2012-08-14T06:10:54Z</time>
      </trkpt>
      <trkpt lat="45.13705" lon="5.60039">
        <ele>1020</ele>
        <time>2012-08-14T06:11:00Z</time>
      </trkpt>
      <trkpt lat="45.13682" lon="5.60001">
        <ele>1017.9</ele>
        <time>2012-08-14T06:11:07Z</time>
      </trkpt>
      <trkpt lat="45.13667" lon="5.59971">
        <ele>1019.4</ele>
        <time>2012-08-14T06:11:11Z</time>
      </trkpt>
      <trkpt lat="45.13644" lon="5.59932">
        <ele>1023.7</ele>
        <time>2012-08-14T06:11:19Z</time>
      </trkpt>
      <trkpt lat="45.13627" lon="5.59916">
        <ele>1026.2</ele>
        <time>2012-08-14T06:11:27Z</time>
      </trkpt>
      <trkpt lat="45.13618" lon="5.59904">
        <ele>1027.2</ele>
        <time>2012-08-14T06:11:36Z</time>
      </trkpt>
      <trkpt lat="45.13611" lon="5.59885">
        <ele>1027.7</ele>
        <time>2012-08-14T06:11:45Z</time>
      </trkpt>
      <trkpt lat="45.13608" lon="5.59873">
        <ele>1027.8</ele>
        <time>2012-08-14T06:11:51Z</time>
      </trkpt>
      <trkpt lat="45.13604" lon="5.59854">
        <ele>1027.8</ele>
        <time>2012-08-14T06:12:01Z</time>
      </trkpt>
      <trkpt lat="45.13571" lon="5.59825">
        <ele>1028.1</ele>
        <time>2012-08-14T06:12:17Z</time>
      </trkpt>
      <trkpt lat="45.13548" lon="5.59807">
        <ele>1026.5</ele>
        <time>2012-08-14T06:12:23Z</time>
      </trkpt>
      <trkpt lat="45.13492" lon="5.59759">
        <ele>1023.3</ele>
        <time>2012-08-14T06:12:35Z</time>
      </trkpt>
      <trkpt lat="45.13478" lon="5.59745">
        <ele>1023.1</ele>
        <time>2012-08-14T06:12:38Z</time>
      </trkpt>
      <trkpt lat="45.13452" lon="5.59717">
        <ele>1021.9</ele>
        <time>2012-08-14T06:12:44Z</time>
      </trkpt>
      <trkpt lat="45.13431" lon="5.59698">
        <ele>1020.9</ele>
        <time>2012-08-14T06:12:49Z</time>
      </trkpt>
      <trkpt lat="45.1342" lon="5.59692">
        <ele>1020.6</ele>
        <time>2012-08-14T06:12:51Z</time>
      </trkpt>
      <trkpt lat="45.1339" lon="5.59686">
        <ele>1019.2</ele>
        <time>2012-08-14T06:12:55Z</time>
      </trkpt>
      <trkpt lat="45.13357" lon="5.59684">
        <ele>1018</ele>
        <time>2012-08-14T06:12:59Z</time>
      </trkpt>
      <trkpt lat="45.13349" lon="5.59683">
        <ele>1017.7</ele>
        <time>2012-08-14T06:13:00Z</time>
      </trkpt>
      <trkpt lat="45.13313" lon="5.59654">
        <ele>1018</ele>
        <time>2012-08-14T06:13:06Z</time>
      </trkpt>
      <trkpt lat="45.13274" lon="5.59609">
        <ele>1021.6</ele>
        <time>2012-08-14T06:13:14Z</time>
      </trkpt>
      <trkpt lat="45.13258" lon="5.59598">
        <ele>1023.5</ele>
        <time>2012-08-14T06:13:19Z</time>
      </trkpt>
      <trkpt lat="45.13251" lon="5.59593">
        <ele>1024.4</ele>
        <time>2012-08-14T06:13:22Z</time>
      </trkpt>
      <trkpt lat="45.13233" lon="5.59583">
        <ele>1025</ele>
        <time>2012-08-14T06:13:30Z</time>
      </trkpt>
      <trkpt lat="45.13181" lon="5.5956">
        <ele>1023.5</ele>
        <time>2012-08-14T06:13:48Z</time>
      </trkpt>
      <trkpt lat="45.13096" lon="5.59544">
        <ele>1019.6</ele>
        <time>2012-08-14T06:14:09Z</time>
      </trkpt>
      <trkpt lat="45.1299" lon="5.59525">
        <ele>1021.3</ele>
        <time>2012-08-14T06:14:30Z</time>
      </trkpt>
      <trkpt lat="45.12924" lon="5.59483">
        <ele>1022.3</ele>
        <time>2012-08-14T06:14:47Z</time>
      </trkpt>
      <trkpt lat="45.12899" lon="5.59498">
        <ele>1022.7</ele>
        <time>2012-08-14T06:14:56Z</time>
      </trkpt>
      <trkpt lat="45.12874" lon="5.59555">
        <ele>1024.5</ele>
        <time>2012-08-14T06:15:12Z</time>
      </trkpt>
      <trkpt lat="45.12856" lon="5.59607">
        <ele>1026.7</ele>
        <time>2012-08-14T06:15:24Z</time>
      </trkpt>
      <trkpt lat="45.12834" lon="5.59695">
        <ele>1031.7</ele>
        <time>2012-08-14T06:15:45Z</time>
      </trkpt>
      <trkpt lat="45.12819" lon="5.59763">
        <ele>1035.5</ele>
        <time>2012-08-14T06:16:01Z</time>
      </trkpt>
      <trkpt lat="45.12795" lon="5.59805">
        <ele>1036.8</ele>
        <time>2012-08-14T06:16:15Z</time>
      </trkpt>
      <trkpt lat="45.12761" lon="5.59841">
        <ele>1036.1</ele>
        <time>2012-08-14T06:16:31Z</time>
      </trkpt>
      <trkpt lat="45.12736" lon="5.59896">
        <ele>1037.6</ele>
        <time>2012-08-14T06:16:50Z</time>
      </trkpt>
      <trkpt lat="45.12712" lon="5.59939">
        <ele>1040</ele>
        <time>2012-08-14T06:17:07Z</time>
      </trkpt>
      <trkpt lat="45.12689" lon="5.59984">
        <ele>1042.6</ele>
        <time>2012-08-14T06:17:26Z</time>
      </trkpt>
      <trkpt lat="45.12666" lon="5.60027">
        <ele>1049.6</ele>
        <time>2012-08-14T06:17:44Z</time>
      </trkpt>
      <trkpt lat="45.12643" lon="5.60063">
        <ele>1060.4</ele>
        <time>2012-08-14T06:18:00Z</time>
      </trkpt>
      <trkpt lat="45.12619" lon="5.601">
        <ele>1068.8</ele>
        <time>2012-08-14T06:18:17Z</time>
      </trkpt>
      <trkpt lat="45.12595" lon="5.60133">
        <ele>1072.7</ele>
        <time>2012-08-14T06:18:33Z</time>
      </trkpt>
      <trkpt lat="45.12572" lon="5.60165">
        <ele>1077.4</ele>
        <time>2012-08-14T06:18:49Z</time>
      </trkpt>
      <trkpt lat="45.12548" lon="5.60196">
        <ele>1087.9</ele>
        <time>2012-08-14T06:19:15Z</time>
      </trkpt>
      <trkpt lat="45.12558" lon="5.60183">
        <ele>1084.3</ele>
        <time>2012-08-14T06:20:00Z</time>
      </trkpt>
      <trkpt lat="45.12547" lon="5.60198">
        <ele>1088.3</ele>
        <time>2012-08-14T06:20:09Z</time>
      </trkpt>
      <trkpt lat="45.12522" lon="5.60235">
        <ele>1090.6</ele>
        <time>2012-08-14T06:20:26Z</time>
      </trkpt>
      <trkpt lat="45.12497" lon="5.60272">
        <ele>1094.2</ele>
        <time>2012-08-14T06:20:43Z</time>
      </trkpt>
      <trkpt lat="45.12462" lon="5.60294">
        <ele>1100.8</ele>
        <time>2012-08-14T06:20:59Z</time>
      </trkpt>
      <trkpt lat="45.12431" lon="5.60283">
        <ele>1099.4</ele>
        <time>2012-08-14T06:21:13Z</time>
      </trkpt>
      <trkpt lat="45.12402" lon="5.60273">
        <ele>1102.4</ele>
        <time>2012-08-14T06:21:27Z</time>
      </trkpt>
      <trkpt lat="45.12379" lon="5.60263">
        <ele>1107.4</ele>
        <time>2012-08-14T06:21:40Z</time>
      </trkpt>
      <trkpt lat="45.12351" lon="5.60269">
        <ele>1112.6</ele>
        <time>2012-08-14T06:21:55Z</time>
      </trkpt>
      <trkpt lat="45.12321" lon="5.60295">
        <ele>1114.8</ele>
        <time>2012-08-14T06:22:13Z</time>
      </trkpt>
      <trkpt lat="45.12294" lon="5.60332">
        <ele>1111.6</ele>
        <time>2012-08-14T06:22:33Z</time>
      </trkpt>
      <trkpt lat="45.12267" lon="5.60364">
        <ele>1112.6</ele>
        <time>2012-08-14T06:22:52Z</time>
      </trkpt>
      <trkpt lat="45.12234" lon="5.60378">
        <ele>1113.1</ele>
        <time>2012-08-14T06:23:12Z</time>
      </trkpt>
      <trkpt lat="45.12205" lon="5.60382">
        <ele>1114.3</ele>
        <time>2012-08-14T06:23:29Z</time>
      </trkpt>
      <trkpt lat="45.12168" lon="5.6037">
        <ele>1117.4</ele>
        <time>2012-08-14T06:23:50Z</time>
      </trkpt>
      <trkpt lat="45.1213" lon="5.60343">
        <ele>1119.8</ele>
        <time>2012-08-14T06:24:11Z</time>
      </trkpt>
      <trkpt lat="45.12092" lon="5.60315">
        <ele>1124</ele>
        <time>2012-08-14T06:24:32Z</time>
      </trkpt>
      <trkpt lat="45.12053" lon="5.60305">
        <ele>1125.6</ele>
        <time>2012-08-14T06:24:52Z</time>
      </trkpt>
      <trkpt lat="45.12053" lon="5.60339">
        <ele>1120.2</ele>
        <time>2012-08-14T06:25:06Z</time>
      </trkpt>
      <trkpt lat="45.12078" lon="5.60374">
        <ele>1121.7</ele>
        <time>2012-08-14T06:25:20Z</time>
      </trkpt>
      <trkpt lat="45.12068" lon="5.60389">
        <ele>1123.2</ele>
        <time>2012-08-14T06:25:26Z</time>
      </trkpt>
      <trkpt lat="45.12024" lon="5.60376">
        <ele>1124.4</ele>
        <time>2012-08-14T06:25:42Z</time>
      </trkpt>
      <trkpt lat="45.11967" lon="5.6036">
        <ele>1126.8</ele>
        <time>2012-08-14T06:26:04Z</time>
      </trkpt>
      <trkpt lat="45.11929" lon="5.60356">
        <ele>1129.9</ele>
        <time>2012-08-14T06:26:20Z</time>
      </trkpt>
      <trkpt lat="45.11888" lon="5.60327">
        <ele>1131.7</ele>
        <time>2012-08-14T06:26:39Z</time>
      </trkpt>
      <trkpt lat="45.11845" lon="5.60304">
        <ele>1133.3</ele>
        <time>2012-08-14T06:27:00Z</time>
      </trkpt>
      <trkpt lat="45.11822" lon="5.60289">
        <ele>1134.6</ele>
        <time>2012-08-14T06:27:14Z</time>
      </trkpt>
      <trkpt lat="45.11797" lon="5.60277">
        <ele>1137.9</ele>
        <time>2012-08-14T06:27:29Z</time>
      </trkpt>
      <trkpt lat="45.11771" lon="5.60268">
        <ele>1141.4</ele>
        <time>2012-08-14T06:27:45Z</time>
      </trkpt>
      <trkpt lat="45.1174" lon="5.60246">
        <ele>1143.8</ele>
        <time>2012-08-14T06:28:05Z</time>
      </trkpt>
      <trkpt lat="45.11716" lon="5.60228">
        <ele>1147.3</ele>
        <time>2012-08-14T06:28:20Z</time>
      </trkpt>
      <trkpt lat="45.11703" lon="5.60219">
        <ele>1148.5</ele>
        <time>2012-08-14T06:28:30Z</time>
      </trkpt>
      <trkpt lat="45.11689" lon="5.6021">
        <ele>1149.5</ele>
        <time>2012-08-14T06:28:42Z</time>
      </trkpt>
      <trkpt lat="45.11665" lon="5.60203">
        <ele>1151.7</ele>
        <time>2012-08-14T06:29:00Z</time>
      </trkpt>
      <trkpt lat="45.1164" lon="5.60196">
        <ele>1156.8</ele>
        <time>2012-08-14T06:29:16Z</time>
      </trkpt>
      <trkpt lat="45.11622" lon="5.60191">
        <ele>1160.2</ele>
        <time>2012-08-14T06:29:29Z</time>
      </trkpt>
      <trkpt lat="45.11602" lon="5.60187">
        <ele>1164</ele>
        <time>2012-08-14T06:29:44Z</time>
      </trkpt>
      <trkpt lat="45.11594" lon="5.60185">
        <ele>1165.5</ele>
        <time>2012-08-14T06:29:51Z</time>
      </trkpt>
      <trkpt lat="45.11576" lon="5.60179">
        <ele>1168.2</ele>
        <time>2012-08-14T06:30:02Z</time>
      </trkpt>
      <trkpt lat="45.11552" lon="5.60173">
        <ele>1171.8</ele>
        <time>2012-08-14T06:30:18Z</time>
      </trkpt>
      <trkpt lat="45.11526" lon="5.6017">
        <ele>1176.9</ele>
        <time>2012-08-14T06:30:35Z</time>
      </trkpt>
      <trkpt lat="45.11509" lon="5.60167">
        <ele>1180.2</ele>
        <time>2012-08-14T06:30:50Z</time>
      </trkpt>
      <trkpt lat="45.11484" lon="5.60165">
        <ele>1184.2</ele>
        <time>2012-08-14T06:31:08Z</time>
      </trkpt>
      <trkpt lat="45.11459" lon="5.60165">
        <ele>1187.4</ele>
        <time>2012-08-14T06:31:25Z</time>
      </trkpt>
      <trkpt lat="45.11438" lon="5.60165">
        <ele>1190.2</ele>
        <time>2012-08-14T06:31:41Z</time>
      </trkpt>
      <trkpt lat="45.11417" lon="5.60164">
        <ele>1193</ele>
        <time>2012-08-14T06:31:55Z</time>
      </trkpt>
      <trkpt lat="45.11392" lon="5.60163">
        <ele>1194.1</ele>
        <time>2012-08-14T06:32:13Z</time>
      </trkpt>
      <trkpt lat="45.11381" lon="5.60163">
        <ele>1194.6</ele>
        <time>2012-08-14T06:32:22Z</time>
      </trkpt>
      <trkpt lat="45.11373" lon="5.60162">
        <ele>1195</ele>
        <time>2012-08-14T06:32:29Z</time>
      </trkpt>
      <trkpt lat="45.11366" lon="5.60162">
        <ele>1195.4</ele>
        <time>2012-08-14T06:32:33Z</time>
      </trkpt>
      <trkpt lat="45.11346" lon="5.60161">
        <ele>1196.4</ele>
        <time>2012-08-14T06:32:45Z</time>
      </trkpt>
      <trkpt lat="45.1132" lon="5.60162">
        <ele>1198.5</ele>
        <time>2012-08-14T06:32:58Z</time>
      </trkpt>
      <trkpt lat="45.11299" lon="5.60164">
        <ele>1200.8</ele>
        <time>2012-08-14T06:33:07Z</time>
      </trkpt>
      <trkpt lat="45.11282" lon="5.60166">
        <ele>1202.2</ele>
        <time>2012-08-14T06:33:14Z</time>
      </trkpt>
      <trkpt lat="45.11271" lon="5.60168">
        <ele>1203.8</ele>
        <time>2012-08-14T06:33:19Z</time>
      </trkpt>
      <trkpt lat="45.11253" lon="5.60171">
        <ele>1206.4</ele>
        <time>2012-08-14T06:33:29Z</time>
      </trkpt>
      <trkpt lat="45.11233" lon="5.60173">
        <ele>1211.2</ele>
        <time>2012-08-14T06:33:40Z</time>
      </trkpt>
      <trkpt lat="45.11221" lon="5.60175">
        <ele>1214.5</ele>
        <time>2012-08-14T06:33:52Z</time>
      </trkpt>
      <trkpt lat="45.11204" lon="5.60178">
        <ele>1218.7</ele>
        <time>2012-08-14T06:34:00Z</time>
      </trkpt>
      <trkpt lat="45.11185" lon="5.6018">
        <ele>1223</ele>
        <time>2012-08-14T06:34:18Z</time>
      </trkpt>
      <trkpt lat="45.11159" lon="5.60189">
        <ele>1229.6</ele>
        <time>2012-08-14T06:34:40Z</time>
      </trkpt>
      <trkpt lat="45.11134" lon="5.60198">
        <ele>1236.3</ele>
        <time>2012-08-14T06:34:55Z</time>
      </trkpt>
      <trkpt lat="45.11123" lon="5.60203">
        <ele>1239</ele>
        <time>2012-08-14T06:35:11Z</time>
      </trkpt>
      <trkpt lat="45.11116" lon="5.60206">
        <ele>1240.2</ele>
        <time>2012-08-14T06:36:07Z</time>
      </trkpt>
      <trkpt lat="45.11064" lon="5.60177">
        <ele>1261.8</ele>
        <time>2012-08-14T06:36:22Z</time>
      </trkpt>
      <trkpt lat="45.11055" lon="5.60184">
        <ele>1263.3</ele>
        <time>2012-08-14T06:36:37Z</time>
      </trkpt>
      <trkpt lat="45.11036" lon="5.60198">
        <ele>1265.9</ele>
        <time>2012-08-14T06:36:55Z</time>
      </trkpt>
      <trkpt lat="45.11018" lon="5.60212">
        <ele>1267.4</ele>
        <time>2012-08-14T06:37:13Z</time>
      </trkpt>
      <trkpt lat="45.11007" lon="5.6022">
        <ele>1267.9</ele>
        <time>2012-08-14T06:37:21Z</time>
      </trkpt>
      <trkpt lat="45.10997" lon="5.60227">
        <ele>1268.1</ele>
        <time>2012-08-14T06:37:41Z</time>
      </trkpt>
      <trkpt lat="45.10982" lon="5.60239">
        <ele>1268.3</ele>
        <time>2012-08-14T06:37:49Z</time>
      </trkpt>
      <trkpt lat="45.10969" lon="5.6025">
        <ele>1268.1</ele>
        <time>2012-08-14T06:38:08Z</time>
      </trkpt>
      <trkpt lat="45.1096" lon="5.60257">
        <ele>1269.9</ele>
        <time>2012-08-14T06:38:19Z</time>
      </trkpt>
      <trkpt lat="45.10953" lon="5.60349">
        <ele>1267.1</ele>
        <time>2012-08-14T06:38:37Z</time>
      </trkpt>
      <trkpt lat="45.10942" lon="5.60351">
        <ele>1268.2</ele>
        <time>2012-08-14T06:38:43Z</time>
      </trkpt>
      <trkpt lat="45.10921" lon="5.60352">
        <ele>1269.6</ele>
        <time>2012-08-14T06:38:57Z</time>
      </trkpt>
      <trkpt lat="45.109" lon="5.60352">
        <ele>1271.8</ele>
        <time>2012-08-14T06:39:15Z</time>
      </trkpt>
      <trkpt lat="45.10885" lon="5.60351">
        <ele>1273.4</ele>
        <time>2012-08-14T06:39:25Z</time>
      </trkpt>
      <trkpt lat="45.10876" lon="5.60348">
        <ele>1274.2</ele>
        <time>2012-08-14T06:40:35Z</time>
      </trkpt>
      <trkpt lat="45.10836" lon="5.60342">
        <ele>1278.9</ele>
        <time>2012-08-14T06:40:50Z</time>
      </trkpt>
      <trkpt lat="45.1083" lon="5.6034">
        <ele>1280</ele>
        <time>2012-08-14T06:41:13Z</time>
      </trkpt>
      <trkpt lat="45.10803" lon="5.60338">
        <ele>1285.5</ele>
        <time>2012-08-14T06:41:23Z</time>
      </trkpt>
      <trkpt lat="45.10792" lon="5.60337">
        <ele>1287.9</ele>
        <time>2012-08-14T06:41:36Z</time>
      </trkpt>
      <trkpt lat="45.10774" lon="5.6034">
        <ele>1291.6</ele>
        <time>2012-08-14T06:41:50Z</time>
      </trkpt>
      <trkpt lat="45.10768" lon="5.6034">
        <ele>1292.8</ele>
        <time>2012-08-14T06:41:54Z</time>
      </trkpt>
      <trkpt lat="45.10761" lon="5.60341">
        <ele>1294.2</ele>
        <time>2012-08-14T06:41:59Z</time>
      </trkpt>
      <trkpt lat="45.10732" lon="5.60348">
        <ele>1298.1</ele>
        <time>2012-08-14T06:42:19Z</time>
      </trkpt>
      <trkpt lat="45.10703" lon="5.60357">
        <ele>1300.9</ele>
        <time>2012-08-14T06:42:37Z</time>
      </trkpt>
      <trkpt lat="45.10672" lon="5.60367">
        <ele>1303</ele>
        <time>2012-08-14T06:42:59Z</time>
      </trkpt>
      <trkpt lat="45.1064" lon="5.60377">
        <ele>1303.5</ele>
        <time>2012-08-14T06:43:20Z</time>
      </trkpt>
      <trkpt lat="45.10603" lon="5.6038">
        <ele>1305.7</ele>
        <time>2012-08-14T06:43:42Z</time>
      </trkpt>
      <trkpt lat="45.10569" lon="5.60378">
        <ele>1308.9</ele>
        <time>2012-08-14T06:44:05Z</time>
      </trkpt>
      <trkpt lat="45.10543" lon="5.60398">
        <ele>1308.7</ele>
        <time>2012-08-14T06:44:27Z</time>
      </trkpt>
      <trkpt lat="45.10552" lon="5.60437">
        <ele>1308.5</ele>
        <time>2012-08-14T06:44:44Z</time>
      </trkpt>
      <trkpt lat="45.10587" lon="5.60463">
        <ele>1306.2</ele>
        <time>2012-08-14T06:45:01Z</time>
      </trkpt>
      <trkpt lat="45.10618" lon="5.60489">
        <ele>1306.3</ele>
        <time>2012-08-14T06:45:18Z</time>
      </trkpt>
      <trkpt lat="45.10654" lon="5.60517">
        <ele>1310</ele>
        <time>2012-08-14T06:45:36Z</time>
      </trkpt>
      <trkpt lat="45.1068" lon="5.60536">
        <ele>1314.5</ele>
        <time>2012-08-14T06:45:52Z</time>
      </trkpt>
      <trkpt lat="45.10709" lon="5.60552">
        <ele>1318.5</ele>
        <time>2012-08-14T06:46:08Z</time>
      </trkpt>
      <trkpt lat="45.1074" lon="5.60559">
        <ele>1319.3</ele>
        <time>2012-08-14T06:46:24Z</time>
      </trkpt>
      <trkpt lat="45.10772" lon="5.60563">
        <ele>1322.6</ele>
        <time>2012-08-14T06:46:42Z</time>
      </trkpt>
      <trkpt lat="45.10812" lon="5.60565">
        <ele>1327.6</ele>
        <time>2012-08-14T06:47:03Z</time>
      </trkpt>
      <trkpt lat="45.10844" lon="5.60565">
        <ele>1330.3</ele>
        <time>2012-08-14T06:47:20Z</time>
      </trkpt>
      <trkpt lat="45.10876" lon="5.60566">
        <ele>1331.3</ele>
        <time>2012-08-14T06:47:38Z</time>
      </trkpt>
      <trkpt lat="45.10901" lon="5.60567">
        <ele>1332</ele>
        <time>2012-08-14T06:47:52Z</time>
      </trkpt>
      <trkpt lat="45.10936" lon="5.60567">
        <ele>1333.9</ele>
        <time>2012-08-14T06:48:10Z</time>
      </trkpt>
      <trkpt lat="45.10971" lon="5.60567">
        <ele>1337</ele>
        <time>2012-08-14T06:48:29Z</time>
      </trkpt>
      <trkpt lat="45.11006" lon="5.60567">
        <ele>1339.7</ele>
        <time>2012-08-14T06:48:48Z</time>
      </trkpt>
      <trkpt lat="45.11037" lon="5.60569">
        <ele>1341</ele>
        <time>2012-08-14T06:49:05Z</time>
      </trkpt>
      <trkpt lat="45.1107" lon="5.60575">
        <ele>1343.7</ele>
        <time>2012-08-14T06:49:24Z</time>
      </trkpt>
      <trkpt lat="45.11093" lon="5.6058">
        <ele>1346.3</ele>
        <time>2012-08-14T06:49:37Z</time>
      </trkpt>
      <trkpt lat="45.11121" lon="5.60583">
        <ele>1349.5</ele>
        <time>2012-08-14T06:49:52Z</time>
      </trkpt>
      <trkpt lat="45.1115" lon="5.60585">
        <ele>1352.3</ele>
        <time>2012-08-14T06:50:08Z</time>
      </trkpt>
      <trkpt lat="45.11182" lon="5.60586">
        <ele>1354.2</ele>
        <time>2012-08-14T06:50:25Z</time>
      </trkpt>
      <trkpt lat="45.11219" lon="5.60588">
        <ele>1355.5</ele>
        <time>2012-08-14T06:50:45Z</time>
      </trkpt>
      <trkpt lat="45.11253" lon="5.60589">
        <ele>1356.8</ele>
        <time>2012-08-14T06:51:02Z</time>
      </trkpt>
      <trkpt lat="45.11291" lon="5.60592">
        <ele>1360.3</ele>
        <time>2012-08-14T06:51:21Z</time>
      </trkpt>
      <trkpt lat="45.11314" lon="5.60595">
        <ele>1362.7</ele>
        <time>2012-08-14T06:51:34Z</time>
      </trkpt>
      <trkpt lat="45.11319" lon="5.60595">
        <ele>1363.1</ele>
        <time>2012-08-14T06:51:37Z</time>
      </trkpt>
      <trkpt lat="45.11324" lon="5.60598">
        <ele>1364.5</ele>
        <time>2012-08-14T06:51:41Z</time>
      </trkpt>
      <trkpt lat="45.1132" lon="5.60608">
        <ele>1366.9</ele>
        <time>2012-08-14T06:51:48Z</time>
      </trkpt>
      <trkpt lat="45.11293" lon="5.60616">
        <ele>1367.1</ele>
        <time>2012-08-14T06:52:07Z</time>
      </trkpt>
      <trkpt lat="45.11277" lon="5.60625">
        <ele>1368.5</ele>
        <time>2012-08-14T06:52:21Z</time>
      </trkpt>
      <trkpt lat="45.11275" lon="5.60627">
        <ele>1369</ele>
        <time>2012-08-14T06:52:23Z</time>
      </trkpt>
      <trkpt lat="45.11259" lon="5.60644">
        <ele>1372.4</ele>
        <time>2012-08-14T06:52:37Z</time>
      </trkpt>
      <trkpt lat="45.11222" lon="5.60654">
        <ele>1375.5</ele>
        <time>2012-08-14T06:53:00Z</time>
      </trkpt>
      <trkpt lat="45.11205" lon="5.60644">
        <ele>1373</ele>
        <time>2012-08-14T06:53:14Z</time>
      </trkpt>
      <trkpt lat="45.11201" lon="5.60653">
        <ele>1376</ele>
        <time>2012-08-14T06:53:23Z</time>
      </trkpt>
      <trkpt lat="45.11237" lon="5.60676">
        <ele>1380.5</ele>
        <time>2012-08-14T06:53:40Z</time>
      </trkpt>
      <trkpt lat="45.1128" lon="5.60677">
        <ele>1382.3</ele>
        <time>2012-08-14T06:54:00Z</time>
      </trkpt>
      <trkpt lat="45.11288" lon="5.60698">
        <ele>1387.2</ele>
        <time>2012-08-14T06:54:09Z</time>
      </trkpt>
      <trkpt lat="45.11257" lon="5.60726">
        <ele>1390.7</ele>
        <time>2012-08-14T06:54:27Z</time>
      </trkpt>
      <trkpt lat="45.11215" lon="5.60715">
        <ele>1389.9</ele>
        <time>2012-08-14T06:54:46Z</time>
      </trkpt>
      <trkpt lat="45.11168" lon="5.60693">
        <ele>1387.9</ele>
        <time>2012-08-14T06:55:09Z</time>
      </trkpt>
      <trkpt lat="45.11123" lon="5.60676">
        <ele>1392</ele>
        <time>2012-08-14T06:55:29Z</time>
      </trkpt>
      <trkpt lat="45.11106" lon="5.60685">
        <ele>1397.3</ele>
        <time>2012-08-14T06:55:38Z</time>
      </trkpt>
      <trkpt lat="45.11106" lon="5.60699">
        <ele>1400.7</ele>
        <time>2012-08-14T06:55:43Z</time>
      </trkpt>
      <trkpt lat="45.11116" lon="5.60711">
        <ele>1401.6</ele>
        <time>2012-08-14T06:55:50Z</time>
      </trkpt>
      <trkpt lat="45.11162" lon="5.60744">
        <ele>1400.6</ele>
        <time>2012-08-14T06:56:12Z</time>
      </trkpt>
      <trkpt lat="45.112" lon="5.60785">
        <ele>1402.2</ele>
        <time>2012-08-14T06:56:34Z</time>
      </trkpt>
      <trkpt lat="45.11242" lon="5.60803">
        <ele>1401.2</ele>
        <time>2012-08-14T06:56:54Z</time>
      </trkpt>
      <trkpt lat="45.11292" lon="5.60806">
        <ele>1404</ele>
        <time>2012-08-14T06:57:15Z</time>
      </trkpt>
      <trkpt lat="45.11321" lon="5.6079">
        <ele>1404.5</ele>
        <time>2012-08-14T06:57:28Z</time>
      </trkpt>
      <trkpt lat="45.11324" lon="5.60803">
        <ele>1406</ele>
        <time>2012-08-14T06:57:35Z</time>
      </trkpt>
      <trkpt lat="45.11279" lon="5.60855">
        <ele>1408.9</ele>
        <time>2012-08-14T06:58:00Z</time>
      </trkpt>
      <trkpt lat="45.11245" lon="5.60884">
        <ele>1411.5</ele>
        <time>2012-08-14T06:58:37Z</time>
      </trkpt>
      <trkpt lat="45.1128" lon="5.60897">
        <ele>1414.5</ele>
        <time>2012-08-14T06:58:52Z</time>
      </trkpt>
      <trkpt lat="45.11278" lon="5.60902">
        <ele>1415.1</ele>
        <time>2012-08-14T06:58:55Z</time>
      </trkpt>
      <trkpt lat="45.11266" lon="5.60909">
        <ele>1415.5</ele>
        <time>2012-08-14T06:59:42Z</time>
      </trkpt>
      <trkpt lat="45.11306" lon="5.609">
        <ele>1416.1</ele>
        <time>2012-08-14T06:59:57Z</time>
      </trkpt>
      <trkpt lat="45.11343" lon="5.60889">
        <ele>1416.2</ele>
        <time>2012-08-14T07:00:14Z</time>
      </trkpt>
      <trkpt lat="45.11348" lon="5.60885">
        <ele>1416</ele>
        <time>2012-08-14T07:00:58Z</time>
      </trkpt>
      <trkpt lat="45.11366" lon="5.60891">
        <ele>1417</ele>
        <time>2012-08-14T07:01:10Z</time>
      </trkpt>
      <trkpt lat="45.11382" lon="5.60892">
        <ele>1417.4</ele>
        <time>2012-08-14T07:01:18Z</time>
      </trkpt>
      <trkpt lat="45.11381" lon="5.60902">
        <ele>1418.3</ele>
        <time>2012-08-14T07:01:25Z</time>
      </trkpt>
      <trkpt lat="45.11372" lon="5.60916">
        <ele>1419.4</ele>
        <time>2012-08-14T07:01:33Z</time>
      </trkpt>
      <trkpt lat="45.11369" lon="5.60944">
        <ele>1420.8</ele>
        <time>2012-08-14T07:01:46Z</time>
      </trkpt>
      <trkpt lat="45.11388" lon="5.60965">
        <ele>1421.8</ele>
        <time>2012-08-14T07:01:56Z</time>
      </trkpt>
      <trkpt lat="45.11431" lon="5.60996">
        <ele>1421.1</ele>
        <time>2012-08-14T07:02:09Z</time>
      </trkpt>
      <trkpt lat="45.1146" lon="5.61039">
        <ele>1420.6</ele>
        <time>2012-08-14T07:02:23Z</time>
      </trkpt>
      <trkpt lat="45.11486" lon="5.61045">
        <ele>1418.7</ele>
        <time>2012-08-14T07:02:30Z</time>
      </trkpt>
      <trkpt lat="45.11495" lon="5.61045">
        <ele>1417.9</ele>
        <time>2012-08-14T07:02:32Z</time>
      </trkpt>
      <trkpt lat="45.11505" lon="5.61045">
        <ele>1416.9</ele>
        <time>2012-08-14T07:02:34Z</time>
      </trkpt>
      <trkpt lat="45.11514" lon="5.61045">
        <ele>1415.6</ele>
        <time>2012-08-14T07:02:36Z</time>
      </trkpt>
      <trkpt lat="45.11535" lon="5.61056">
        <ele>1414.4</ele>
        <time>2012-08-14T07:02:41Z</time>
      </trkpt>
      <trkpt lat="45.11558" lon="5.61093">
        <ele>1416.6</ele>
        <time>2012-08-14T07:02:56Z</time>
      </trkpt>
      <trkpt lat="45.11599" lon="5.61138">
        <ele>1419.1</ele>
        <time>2012-08-14T07:03:21Z</time>
      </trkpt>
      <trkpt lat="45.11613" lon="5.61147">
        <ele>1419.5</ele>
        <time>2012-08-14T07:03:36Z</time>
      </trkpt>
      <trkpt lat="45.11625" lon="5.61156">
        <ele>1420</ele>
        <time>2012-08-14T07:03:55Z</time>
      </trkpt>
      <trkpt lat="45.11634" lon="5.6116">
        <ele>1420.2</ele>
        <time>2012-08-14T07:04:05Z</time>
      </trkpt>
      <trkpt lat="45.11641" lon="5.61173">
        <ele>1422.2</ele>
        <time>2012-08-14T07:04:26Z</time>
      </trkpt>
      <trkpt lat="45.11646" lon="5.61177">
        <ele>1422.8</ele>
        <time>2012-08-14T07:05:03Z</time>
      </trkpt>
      <trkpt lat="45.11652" lon="5.61182">
        <ele>1423.6</ele>
        <time>2012-08-14T07:05:19Z</time>
      </trkpt>
      <trkpt lat="45.11661" lon="5.61197">
        <ele>1426.3</ele>
        <time>2012-08-14T07:05:30Z</time>
      </trkpt>
      <trkpt lat="45.11669" lon="5.61214">
        <ele>1429.5</ele>
        <time>2012-08-14T07:05:42Z</time>
      </trkpt>
      <trkpt lat="45.11673" lon="5.61224">
        <ele>1431.6</ele>
        <time>2012-08-14T07:05:56Z</time>
      </trkpt>
      <trkpt lat="45.11677" lon="5.61239">
        <ele>1435</ele>
        <time>2012-08-14T07:06:15Z</time>
      </trkpt>
      <trkpt lat="45.11676" lon="5.61248">
        <ele>1437.1</ele>
        <time>2012-08-14T07:06:40Z</time>
      </trkpt>
      <trkpt lat="45.11676" lon="5.61263">
        <ele>1440.5</ele>
        <time>2012-08-14T07:06:55Z</time>
      </trkpt>
      <trkpt lat="45.11677" lon="5.61281">
        <ele>1444.7</ele>
        <time>2012-08-14T07:07:11Z</time>
      </trkpt>
      <trkpt lat="45.11682" lon="5.61302">
        <ele>1449.1</ele>
        <time>2012-08-14T07:07:29Z</time>
      </trkpt>
      <trkpt lat="45.11686" lon="5.6132">
        <ele>1452.8</ele>
        <time>2012-08-14T07:07:46Z</time>
      </trkpt>
      <trkpt lat="45.11688" lon="5.61333">
        <ele>1455.7</ele>
        <time>2012-08-14T07:08:07Z</time>
      </trkpt>
      <trkpt lat="45.11702" lon="5.61359">
        <ele>1458.7</ele>
        <time>2012-08-14T07:08:24Z</time>
      </trkpt>
      <trkpt lat="45.11731" lon="5.61383">
        <ele>1461.9</ele>
        <time>2012-08-14T07:08:49Z</time>
      </trkpt>
      <trkpt lat="45.11749" lon="5.61399">
        <ele>1464.7</ele>
        <time>2012-08-14T07:09:03Z</time>
      </trkpt>
      <trkpt lat="45.11773" lon="5.61412">
        <ele>1464.2</ele>
        <time>2012-08-14T07:09:19Z</time>
      </trkpt>
      <trkpt lat="45.11807" lon="5.61445">
        <ele>1464.6</ele>
        <time>2012-08-14T07:09:41Z</time>
      </trkpt>
      <trkpt lat="45.11823" lon="5.61468">
        <ele>1465.4</ele>
        <time>2012-08-14T07:09:54Z</time>
      </trkpt>
      <trkpt lat="45.11832" lon="5.61485">
        <ele>1466.4</ele>
        <time>2012-08-14T07:10:02Z</time>
      </trkpt>
      <trkpt lat="45.11842" lon="5.61517">
        <ele>1468.8</ele>
        <time>2012-08-14T07:10:12Z</time>
      </trkpt>
      <trkpt lat="45.11845" lon="5.61531">
        <ele>1470.3</ele>
        <time>2012-08-14T07:10:16Z</time>
      </trkpt>
      <trkpt lat="45.11843" lon="5.6154">
        <ele>1471.9</ele>
        <time>2012-08-14T07:10:20Z</time>
      </trkpt>
      <trkpt lat="45.11841" lon="5.61564">
        <ele>1475.7</ele>
        <time>2012-08-14T07:10:31Z</time>
      </trkpt>
      <trkpt lat="45.11843" lon="5.61569">
        <ele>1476.1</ele>
        <time>2012-08-14T07:10:33Z</time>
      </trkpt>
      <trkpt lat="45.11838" lon="5.61574">
        <ele>1477.8</ele>
        <time>2012-08-14T07:10:38Z</time>
      </trkpt>
      <trkpt lat="45.11837" lon="5.61583">
        <ele>1479.4</ele>
        <time>2012-08-14T07:10:45Z</time>
      </trkpt>
      <trkpt lat="45.11841" lon="5.61598">
        <ele>1480.9</ele>
        <time>2012-08-14T07:10:52Z</time>
      </trkpt>
      <trkpt lat="45.11845" lon="5.6161">
        <ele>1482.3</ele>
        <time>2012-08-14T07:10:59Z</time>
      </trkpt>
      <trkpt lat="45.11845" lon="5.6163">
        <ele>1485.6</ele>
        <time>2012-08-14T07:11:11Z</time>
      </trkpt>
      <trkpt lat="45.1185" lon="5.61641">
        <ele>1486.6</ele>
        <time>2012-08-14T07:11:17Z</time>
      </trkpt>
      <trkpt lat="45.11869" lon="5.61671">
        <ele>1488</ele>
        <time>2012-08-14T07:11:36Z</time>
      </trkpt>
      <trkpt lat="45.1188" lon="5.61701">
        <ele>1492</ele>
        <time>2012-08-14T07:11:54Z</time>
      </trkpt>
      <trkpt lat="45.11893" lon="5.61722">
        <ele>1494.6</ele>
        <time>2012-08-14T07:12:11Z</time>
      </trkpt>
      <trkpt lat="45.11913" lon="5.6173">
        <ele>1493.7</ele>
        <time>2012-08-14T07:12:28Z</time>
      </trkpt>
      <trkpt lat="45.1193" lon="5.61739">
        <ele>1495.6</ele>
        <time>2012-08-14T07:12:44Z</time>
      </trkpt>
      <trkpt lat="45.11943" lon="5.61743">
        <ele>1496.5</ele>
        <time>2012-08-14T07:12:57Z</time>
      </trkpt>
      <trkpt lat="45.11961" lon="5.61747">
        <ele>1497.9</ele>
        <time>2012-08-14T07:13:13Z</time>
      </trkpt>
      <trkpt lat="45.11966" lon="5.61754">
        <ele>1499.2</ele>
        <time>2012-08-14T07:13:19Z</time>
      </trkpt>
      <trkpt lat="45.1197" lon="5.61769">
        <ele>1501.3</ele>
        <time>2012-08-14T07:13:28Z</time>
      </trkpt>
      <trkpt lat="45.1197" lon="5.61776">
        <ele>1502.2</ele>
        <time>2012-08-14T07:13:32Z</time>
      </trkpt>
      <trkpt lat="45.11971" lon="5.61786">
        <ele>1503.6</ele>
        <time>2012-08-14T07:13:38Z</time>
      </trkpt>
      <trkpt lat="45.1199" lon="5.61825">
        <ele>1508.9</ele>
        <time>2012-08-14T07:14:04Z</time>
      </trkpt>
      <trkpt lat="45.11996" lon="5.61832">
        <ele>1509.8</ele>
        <time>2012-08-14T07:14:10Z</time>
      </trkpt>
      <trkpt lat="45.12009" lon="5.61855">
        <ele>1512.4</ele>
        <time>2012-08-14T07:14:27Z</time>
      </trkpt>
      <trkpt lat="45.1203" lon="5.61885">
        <ele>1514.7</ele>
        <time>2012-08-14T07:14:48Z</time>
      </trkpt>
      <trkpt lat="45.12042" lon="5.61909">
        <ele>1516.6</ele>
        <time>2012-08-14T07:14:59Z</time>
      </trkpt>
      <trkpt lat="45.12051" lon="5.61937">
        <ele>1520.6</ele>
        <time>2012-08-14T07:15:11Z</time>
      </trkpt>
      <trkpt lat="45.12058" lon="5.61954">
        <ele>1523.1</ele>
        <time>2012-08-14T07:15:21Z</time>
      </trkpt>
      <trkpt lat="45.12068" lon="5.61966">
        <ele>1524.3</ele>
        <time>2012-08-14T07:15:30Z</time>
      </trkpt>
      <trkpt lat="45.12077" lon="5.61973">
        <ele>1524.7</ele>
        <time>2012-08-14T07:15:38Z</time>
      </trkpt>
      <trkpt lat="45.12092" lon="5.61983">
        <ele>1524.6</ele>
        <time>2012-08-14T07:15:51Z</time>
      </trkpt>
      <trkpt lat="45.12103" lon="5.61996">
        <ele>1525.3</ele>
        <time>2012-08-14T07:16:04Z</time>
      </trkpt>
      <trkpt lat="45.12114" lon="5.62014">
        <ele>1528.4</ele>
        <time>2012-08-14T07:16:30Z</time>
      </trkpt>
      <trkpt lat="45.12131" lon="5.62038">
        <ele>1533.3</ele>
        <time>2012-08-14T07:17:25Z</time>
      </trkpt>
      <trkpt lat="45.12145" lon="5.6205">
        <ele>1535.1</ele>
        <time>2012-08-14T07:17:39Z</time>
      </trkpt>
      <trkpt lat="45.12159" lon="5.62062">
        <ele>1537.2</ele>
        <time>2012-08-14T07:17:53Z</time>
      </trkpt>
      <trkpt lat="45.12175" lon="5.62077">
        <ele>1540.3</ele>
        <time>2012-08-14T07:18:10Z</time>
      </trkpt>
      <trkpt lat="45.12186" lon="5.6209">
        <ele>1544.3</ele>
        <time>2012-08-14T07:18:25Z</time>
      </trkpt>
      <trkpt lat="45.122" lon="5.62101">
        <ele>1547.2</ele>
        <time>2012-08-14T07:18:43Z</time>
      </trkpt>
      <trkpt lat="45.12211" lon="5.62107">
        <ele>1548.5</ele>
        <time>2012-08-14T07:19:01Z</time>
      </trkpt>
      <trkpt lat="45.12223" lon="5.62115">
        <ele>1549.9</ele>
        <time>2012-08-14T07:19:24Z</time>
      </trkpt>
      <trkpt lat="45.12229" lon="5.62125">
        <ele>1552.6</ele>
        <time>2012-08-14T07:19:47Z</time>
      </trkpt>
      <trkpt lat="45.12239" lon="5.62135">
        <ele>1554.7</ele>
        <time>2012-08-14T07:20:07Z</time>
      </trkpt>
      <trkpt lat="45.1225" lon="5.62148">
        <ele>1557.1</ele>
        <time>2012-08-14T07:20:28Z</time>
      </trkpt>
      <trkpt lat="45.12258" lon="5.62156">
        <ele>1558.8</ele>
        <time>2012-08-14T07:20:49Z</time>
      </trkpt>
      <trkpt lat="45.12264" lon="5.62171">
        <ele>1562.9</ele>
        <time>2012-08-14T07:21:11Z</time>
      </trkpt>
      <trkpt lat="45.12269" lon="5.62188">
        <ele>1567.1</ele>
        <time>2012-08-14T07:21:31Z</time>
      </trkpt>
      <trkpt lat="45.12274" lon="5.62202">
        <ele>1570.8</ele>
        <time>2012-08-14T07:21:51Z</time>
      </trkpt>
      <trkpt lat="45.12279" lon="5.62215">
        <ele>1574.3</ele>
        <time>2012-08-14T07:22:11Z</time>
      </trkpt>
      <trkpt lat="45.12284" lon="5.6223">
        <ele>1578.1</ele>
        <time>2012-08-14T07:22:30Z</time>
      </trkpt>
      <trkpt lat="45.12289" lon="5.62245">
        <ele>1582.3</ele>
        <time>2012-08-14T07:22:51Z</time>
      </trkpt>
      <trkpt lat="45.12293" lon="5.62256">
        <ele>1584.6</ele>
        <time>2012-08-14T07:23:15Z</time>
      </trkpt>
      <trkpt lat="45.123" lon="5.62282">
        <ele>1588.9</ele>
        <time>2012-08-14T07:23:37Z</time>
      </trkpt>
      <trkpt lat="45.12313" lon="5.62293">
        <ele>1590.4</ele>
        <time>2012-08-14T07:25:09Z</time>
      </trkpt>
      <trkpt lat="45.12321" lon="5.62293">
        <ele>1590</ele>
        <time>2012-08-14T07:28:01Z</time>
      </trkpt>
      <trkpt lat="45.12326" lon="5.62297">
        <ele>1590.5</ele>
        <time>2012-08-14T07:28:18Z</time>
      </trkpt>
      <trkpt lat="45.12343" lon="5.62294">
        <ele>1589.4</ele>
        <time>2012-08-14T07:28:31Z</time>
      </trkpt>
      <trkpt lat="45.12366" lon="5.62288">
        <ele>1588.5</ele>
        <time>2012-08-14T07:28:48Z</time>
      </trkpt>
      <trkpt lat="45.12385" lon="5.62281">
        <ele>1587.3</ele>
        <time>2012-08-14T07:28:55Z</time>
      </trkpt>
      <trkpt lat="45.12408" lon="5.62278">
        <ele>1586.9</ele>
        <time>2012-08-14T07:29:00Z</time>
      </trkpt>
      <trkpt lat="45.12436" lon="5.62297">
        <ele>1592.7</ele>
        <time>2012-08-14T07:29:13Z</time>
      </trkpt>
      <trkpt lat="45.1246" lon="5.62313">
        <ele>1597.5</ele>
        <time>2012-08-14T07:29:29Z</time>
      </trkpt>
      <trkpt lat="45.12485" lon="5.62324">
        <ele>1601</ele>
        <time>2012-08-14T07:29:44Z</time>
      </trkpt>
      <trkpt lat="45.12508" lon="5.62334">
        <ele>1604.1</ele>
        <time>2012-08-14T07:29:59Z</time>
      </trkpt>
      <trkpt lat="45.12532" lon="5.62341">
        <ele>1608</ele>
        <time>2012-08-14T07:30:19Z</time>
      </trkpt>
      <trkpt lat="45.12537" lon="5.62344">
        <ele>1608.8</ele>
        <time>2012-08-14T07:30:22Z</time>
      </trkpt>
      <trkpt lat="45.12559" lon="5.62344">
        <ele>1611.9</ele>
        <time>2012-08-14T07:30:38Z</time>
      </trkpt>
      <trkpt lat="45.12565" lon="5.62339">
        <ele>1612.6</ele>
        <time>2012-08-14T07:30:43Z</time>
      </trkpt>
      <trkpt lat="45.12571" lon="5.62336">
        <ele>1613.4</ele>
        <time>2012-08-14T07:30:54Z</time>
      </trkpt>
      <trkpt lat="45.12588" lon="5.62335">
        <ele>1615.3</ele>
        <time>2012-08-14T07:31:04Z</time>
      </trkpt>
      <trkpt lat="45.12611" lon="5.62337">
        <ele>1616.8</ele>
        <time>2012-08-14T07:31:22Z</time>
      </trkpt>
      <trkpt lat="45.12636" lon="5.62326">
        <ele>1617.9</ele>
        <time>2012-08-14T07:31:38Z</time>
      </trkpt>
      <trkpt lat="45.12666" lon="5.62314">
        <ele>1619.7</ele>
        <time>2012-08-14T07:31:56Z</time>
      </trkpt>
      <trkpt lat="45.12689" lon="5.62342">
        <ele>1622.3</ele>
        <time>2012-08-14T07:32:14Z</time>
      </trkpt>
      <trkpt lat="45.12703" lon="5.6236">
        <ele>1624.2</ele>
        <time>2012-08-14T07:32:24Z</time>
      </trkpt>
      <trkpt lat="45.12715" lon="5.62369">
        <ele>1625.5</ele>
        <time>2012-08-14T07:32:32Z</time>
      </trkpt>
      <trkpt lat="45.12724" lon="5.62369">
        <ele>1626.2</ele>
        <time>2012-08-14T07:32:37Z</time>
      </trkpt>
      <trkpt lat="45.12739" lon="5.62364">
        <ele>1627.2</ele>
        <time>2012-08-14T07:32:48Z</time>
      </trkpt>
      <trkpt lat="45.12744" lon="5.6236">
        <ele>1627.5</ele>
        <time>2012-08-14T07:33:44Z</time>
      </trkpt>
      <trkpt lat="45.12785" lon="5.62338">
        <ele>1634.3</ele>
        <time>2012-08-14T07:35:19Z</time>
      </trkpt>
      <trkpt lat="45.12869" lon="5.62361">
        <ele>1647.9</ele>
        <time>2012-08-14T07:36:02Z</time>
      </trkpt>
      <trkpt lat="45.12899" lon="5.62409">
        <ele>1652.4</ele>
        <time>2012-08-14T07:45:28Z</time>
      </trkpt>
      <trkpt lat="45.12911" lon="5.62437">
        <ele>1655.6</ele>
        <time>2012-08-14T07:45:34Z</time>
      </trkpt>
      <trkpt lat="45.12914" lon="5.62443">
        <ele>1656.5</ele>
        <time>2012-08-14T07:45:38Z</time>
      </trkpt>
      <trkpt lat="45.12926" lon="5.62469">
        <ele>1659.6</ele>
        <time>2012-08-14T07:45:58Z</time>
      </trkpt>
      <trkpt lat="45.12942" lon="5.62502">
        <ele>1663.5</ele>
        <time>2012-08-14T07:46:20Z</time>
      </trkpt>
      <trkpt lat="45.12961" lon="5.62532">
        <ele>1666.4</ele>
        <time>2012-08-14T07:46:40Z</time>
      </trkpt>
      <trkpt lat="45.1299" lon="5.62553">
        <ele>1669.5</ele>
        <time>2012-08-14T07:47:01Z</time>
      </trkpt>
      <trkpt lat="45.13021" lon="5.62573">
        <ele>1673.1</ele>
        <time>2012-08-14T07:47:22Z</time>
      </trkpt>
      <trkpt lat="45.13052" lon="5.62594">
        <ele>1677</ele>
        <time>2012-08-14T07:47:45Z</time>
      </trkpt>
      <trkpt lat="45.13076" lon="5.62611">
        <ele>1679.7</ele>
        <time>2012-08-14T07:48:05Z</time>
      </trkpt>
      <trkpt lat="45.13086" lon="5.62618">
        <ele>1680.8</ele>
        <time>2012-08-14T07:48:32Z</time>
      </trkpt>
      <trkpt lat="45.13098" lon="5.62629">
        <ele>1682.7</ele>
        <time>2012-08-14T07:48:47Z</time>
      </trkpt>
      <trkpt lat="45.13103" lon="5.62633">
        <ele>1683.4</ele>
        <time>2012-08-14T07:48:51Z</time>
      </trkpt>
      <trkpt lat="45.1312" lon="5.62643">
        <ele>1686</ele>
        <time>2012-08-14T07:49:10Z</time>
      </trkpt>
      <trkpt lat="45.1314" lon="5.62655">
        <ele>1689</ele>
        <time>2012-08-14T07:49:26Z</time>
      </trkpt>
      <trkpt lat="45.13146" lon="5.62658">
        <ele>1689.9</ele>
        <time>2012-08-14T07:49:31Z</time>
      </trkpt>
      <trkpt lat="45.13158" lon="5.62661">
        <ele>1691.7</ele>
        <time>2012-08-14T07:49:47Z</time>
      </trkpt>
      <trkpt lat="45.13172" lon="5.62659">
        <ele>1693.4</ele>
        <time>2012-08-14T07:49:53Z</time>
      </trkpt>
      <trkpt lat="45.13203" lon="5.62637">
        <ele>1695.3</ele>
        <time>2012-08-14T07:50:20Z</time>
      </trkpt>
      <trkpt lat="45.13224" lon="5.62625">
        <ele>1696.3</ele>
        <time>2012-08-14T07:50:43Z</time>
      </trkpt>
      <trkpt lat="45.13245" lon="5.62619">
        <ele>1697.4</ele>
        <time>2012-08-14T07:50:55Z</time>
      </trkpt>
      <trkpt lat="45.13256" lon="5.62618">
        <ele>1698</ele>
        <time>2012-08-14T07:51:04Z</time>
      </trkpt>
      <trkpt lat="45.13286" lon="5.62618">
        <ele>1699.5</ele>
        <time>2012-08-14T07:51:22Z</time>
      </trkpt>
      <trkpt lat="45.13312" lon="5.62619">
        <ele>1700.9</ele>
        <time>2012-08-14T07:51:38Z</time>
      </trkpt>
      <trkpt lat="45.13349" lon="5.62626">
        <ele>1702.4</ele>
        <time>2012-08-14T07:51:55Z</time>
      </trkpt>
      <trkpt lat="45.13395" lon="5.62645">
        <ele>1704.1</ele>
        <time>2012-08-14T07:52:16Z</time>
      </trkpt>
      <trkpt lat="45.13409" lon="5.62653">
        <ele>1705.2</ele>
        <time>2012-08-14T07:52:23Z</time>
      </trkpt>
      <trkpt lat="45.13438" lon="5.62677">
        <ele>1705.7</ele>
        <time>2012-08-14T07:52:39Z</time>
      </trkpt>
      <trkpt lat="45.13465" lon="5.62707">
        <ele>1704.6</ele>
        <time>2012-08-14T07:52:59Z</time>
      </trkpt>
      <trkpt lat="45.1348" lon="5.62754">
        <ele>1704.9</ele>
        <time>2012-08-14T07:53:20Z</time>
      </trkpt>
      <trkpt lat="45.13486" lon="5.62803">
        <ele>1705.4</ele>
        <time>2012-08-14T07:53:39Z</time>
      </trkpt>
      <trkpt lat="45.13488" lon="5.62856">
        <ele>1709.3</ele>
        <time>2012-08-14T07:53:57Z</time>
      </trkpt>
      <trkpt lat="45.1349" lon="5.62875">
        <ele>1711.5</ele>
        <time>2012-08-14T07:54:00Z</time>
      </trkpt>
      <trkpt lat="45.13496" lon="5.62909">
        <ele>1715.5</ele>
        <time>2012-08-14T07:54:05Z</time>
      </trkpt>
      <trkpt lat="45.13503" lon="5.62937">
        <ele>1714.9</ele>
        <time>2012-08-14T07:54:08Z</time>
      </trkpt>
      <trkpt lat="45.13516" lon="5.62959">
        <ele>1711</ele>
        <time>2012-08-14T07:54:14Z</time>
      </trkpt>
      <trkpt lat="45.13507" lon="5.62975">
        <ele>1714</ele>
        <time>2012-08-14T07:54:15Z</time>
      </trkpt>
      <trkpt lat="45.1351" lon="5.63011">
        <ele>1715.3</ele>
        <time>2012-08-14T07:54:31Z</time>
      </trkpt>
      <trkpt lat="45.13532" lon="5.63052">
        <ele>1717.8</ele>
        <time>2012-08-14T07:54:52Z</time>
      </trkpt>
      <trkpt lat="45.13558" lon="5.63075">
        <ele>1719.4</ele>
        <time>2012-08-14T07:55:11Z</time>
      </trkpt>
      <trkpt lat="45.13579" lon="5.63092">
        <ele>1722</ele>
        <time>2012-08-14T07:55:28Z</time>
      </trkpt>
      <trkpt lat="45.13606" lon="5.63111">
        <ele>1723.4</ele>
        <time>2012-08-14T07:55:50Z</time>
      </trkpt>
      <trkpt lat="45.13629" lon="5.63128">
        <ele>1724.4</ele>
        <time>2012-08-14T07:56:10Z</time>
      </trkpt>
      <trkpt lat="45.13646" lon="5.63143">
        <ele>1726.3</ele>
        <time>2012-08-14T07:56:27Z</time>
      </trkpt>
      <trkpt lat="45.1365" lon="5.63147">
        <ele>1726.7</ele>
        <time>2012-08-14T07:56:31Z</time>
      </trkpt>
      <trkpt lat="45.13664" lon="5.63162">
        <ele>1729.2</ele>
        <time>2012-08-14T07:56:46Z</time>
      </trkpt>
      <trkpt lat="45.1368" lon="5.63189">
        <ele>1734.7</ele>
        <time>2012-08-14T07:57:11Z</time>
      </trkpt>
      <trkpt lat="45.13702" lon="5.63227">
        <ele>1742.3</ele>
        <time>2012-08-14T07:57:36Z</time>
      </trkpt>
      <trkpt lat="45.13715" lon="5.63247">
        <ele>1744.8</ele>
        <time>2012-08-14T07:58:44Z</time>
      </trkpt>
      <trkpt lat="45.1374" lon="5.63281">
        <ele>1748.5</ele>
        <time>2012-08-14T07:59:02Z</time>
      </trkpt>
      <trkpt lat="45.13763" lon="5.63305">
        <ele>1751.3</ele>
        <time>2012-08-14T07:59:22Z</time>
      </trkpt>
      <trkpt lat="45.13778" lon="5.63323">
        <ele>1754.6</ele>
        <time>2012-08-14T07:59:38Z</time>
      </trkpt>
      <trkpt lat="45.138" lon="5.63347">
        <ele>1757.3</ele>
        <time>2012-08-14T08:00:00Z</time>
      </trkpt>
      <trkpt lat="45.13817" lon="5.63363">
        <ele>1758</ele>
        <time>2012-08-14T08:00:21Z</time>
      </trkpt>
      <trkpt lat="45.1384" lon="5.63378">
        <ele>1757.9</ele>
        <time>2012-08-14T08:00:37Z</time>
      </trkpt>
      <trkpt lat="45.13857" lon="5.63395">
        <ele>1760.1</ele>
        <time>2012-08-14T08:01:15Z</time>
      </trkpt>
      <trkpt lat="45.13867" lon="5.63404">
        <ele>1761.4</ele>
        <time>2012-08-14T08:01:28Z</time>
      </trkpt>
      <trkpt lat="45.13892" lon="5.63429">
        <ele>1764.3</ele>
        <time>2012-08-14T08:01:46Z</time>
      </trkpt>
      <trkpt lat="45.13915" lon="5.63451">
        <ele>1768.2</ele>
        <time>2012-08-14T08:02:10Z</time>
      </trkpt>
      <trkpt lat="45.13931" lon="5.63461">
        <ele>1769.4</ele>
        <time>2012-08-14T08:02:27Z</time>
      </trkpt>
      <trkpt lat="45.13958" lon="5.63477">
        <ele>1771.1</ele>
        <time>2012-08-14T08:03:28Z</time>
      </trkpt>
      <trkpt lat="45.13984" lon="5.63493">
        <ele>1773.4</ele>
        <time>2012-08-14T08:03:43Z</time>
      </trkpt>
      <trkpt lat="45.13994" lon="5.63525">
        <ele>1780.5</ele>
        <time>2012-08-14T08:04:02Z</time>
      </trkpt>
      <trkpt lat="45.1402" lon="5.63539">
        <ele>1783.5</ele>
        <time>2012-08-14T08:04:24Z</time>
      </trkpt>
      <trkpt lat="45.14045" lon="5.6356">
        <ele>1787.4</ele>
        <time>2012-08-14T08:04:45Z</time>
      </trkpt>
      <trkpt lat="45.14056" lon="5.63573">
        <ele>1789.8</ele>
        <time>2012-08-14T08:04:55Z</time>
      </trkpt>
      <trkpt lat="45.14081" lon="5.63597">
        <ele>1784.2</ele>
        <time>2012-08-14T08:05:18Z</time>
      </trkpt>
      <trkpt lat="45.14106" lon="5.63614">
        <ele>1782.2</ele>
        <time>2012-08-14T08:05:40Z</time>
      </trkpt>
      <trkpt lat="45.14139" lon="5.63627">
        <ele>1791.2</ele>
        <time>2012-08-14T08:06:06Z</time>
      </trkpt>
      <trkpt lat="45.14171" lon="5.63639">
        <ele>1805.1</ele>
        <time>2012-08-14T08:06:26Z</time>
      </trkpt>
      <trkpt lat="45.14199" lon="5.6365">
        <ele>1807.1</ele>
        <time>2012-08-14T08:06:44Z</time>
      </trkpt>
      <trkpt lat="45.1423" lon="5.63663">
        <ele>1809.8</ele>
        <time>2012-08-14T08:07:05Z</time>
      </trkpt>
      <trkpt lat="45.14248" lon="5.63673">
        <ele>1812.6</ele>
        <time>2012-08-14T08:07:21Z</time>
      </trkpt>
      <trkpt lat="45.14273" lon="5.63689">
        <ele>1815.4</ele>
        <time>2012-08-14T08:07:42Z</time>
      </trkpt>
      <trkpt lat="45.14298" lon="5.63707">
        <ele>1818.7</ele>
        <time>2012-08-14T08:08:05Z</time>
      </trkpt>
      <trkpt lat="45.14329" lon="5.63726">
        <ele>1821.2</ele>
        <time>2012-08-14T08:08:31Z</time>
      </trkpt>
      <trkpt lat="45.14356" lon="5.6374">
        <ele>1823</ele>
        <time>2012-08-14T08:08:54Z</time>
      </trkpt>
      <trkpt lat="45.14382" lon="5.63756">
        <ele>1824.4</ele>
        <time>2012-08-14T08:09:16Z</time>
      </trkpt>
      <trkpt lat="45.14408" lon="5.63774">
        <ele>1825</ele>
        <time>2012-08-14T08:09:37Z</time>
      </trkpt>
      <trkpt lat="45.14436" lon="5.63793">
        <ele>1829.2</ele>
        <time>2012-08-14T08:10:00Z</time>
      </trkpt>
      <trkpt lat="45.14457" lon="5.63811">
        <ele>1834.1</ele>
        <time>2012-08-14T08:10:17Z</time>
      </trkpt>
      <trkpt lat="45.14483" lon="5.63813">
        <ele>1836.1</ele>
        <time>2012-08-14T08:10:57Z</time>
      </trkpt>
      <trkpt lat="45.14495" lon="5.63813">
        <ele>1836.9</ele>
        <time>2012-08-14T08:11:57Z</time>
      </trkpt>
      <trkpt lat="45.14528" lon="5.63809">
        <ele>1841.5</ele>
        <time>2012-08-14T08:12:18Z</time>
      </trkpt>
      <trkpt lat="45.14563" lon="5.63796">
        <ele>1843.9</ele>
        <time>2012-08-14T08:12:44Z</time>
      </trkpt>
      <trkpt lat="45.1459" lon="5.63792">
        <ele>1846.3</ele>
        <time>2012-08-14T08:13:03Z</time>
      </trkpt>
      <trkpt lat="45.14617" lon="5.63795">
        <ele>1848.4</ele>
        <time>2012-08-14T08:13:23Z</time>
      </trkpt>
      <trkpt lat="45.14645" lon="5.63801">
        <ele>1851.8</ele>
        <time>2012-08-14T08:13:45Z</time>
      </trkpt>
      <trkpt lat="45.14673" lon="5.63809">
        <ele>1855</ele>
        <time>2012-08-14T08:14:06Z</time>
      </trkpt>
      <trkpt lat="45.14699" lon="5.63818">
        <ele>1854.8</ele>
        <time>2012-08-14T08:14:26Z</time>
      </trkpt>
      <trkpt lat="45.14722" lon="5.63831">
        <ele>1856.4</ele>
        <time>2012-08-14T08:14:46Z</time>
      </trkpt>
      <trkpt lat="45.14748" lon="5.63854">
        <ele>1859.2</ele>
        <time>2012-08-14T08:15:07Z</time>
      </trkpt>
      <trkpt lat="45.14759" lon="5.63865">
        <ele>1861.8</ele>
        <time>2012-08-14T08:17:24Z</time>
      </trkpt>
      <trkpt lat="45.14784" lon="5.63884">
        <ele>1864.6</ele>
        <time>2012-08-14T08:17:42Z</time>
      </trkpt>
      <trkpt lat="45.1481" lon="5.63902">
        <ele>1866</ele>
        <time>2012-08-14T08:20:29Z</time>
      </trkpt>
      <trkpt lat="45.14841" lon="5.6391">
        <ele>1864.1</ele>
        <time>2012-08-14T08:20:36Z</time>
      </trkpt>
      <trkpt lat="45.14848" lon="5.63917">
        <ele>1865.5</ele>
        <time>2012-08-14T08:20:38Z</time>
      </trkpt>
      <trkpt lat="45.14863" lon="5.63933">
        <ele>1865</ele>
        <time>2012-08-14T08:20:43Z</time>
      </trkpt>
      <trkpt lat="45.14874" lon="5.63944">
        <ele>1864.4</ele>
        <time>2012-08-14T08:20:52Z</time>
      </trkpt>
      <trkpt lat="45.14881" lon="5.63953">
        <ele>1863.9</ele>
        <time>2012-08-14T08:30:22Z</time>
      </trkpt>
      <trkpt lat="45.14883" lon="5.63916">
        <ele>1864.1</ele>
        <time>2012-08-14T08:31:01Z</time>
      </trkpt>
      <trkpt lat="45.14883" lon="5.63908">
        <ele>1862.8</ele>
        <time>2012-08-14T08:31:15Z</time>
      </trkpt>
      <trkpt lat="45.14881" lon="5.63896">
        <ele>1860.6</ele>
        <time>2012-08-14T08:31:46Z</time>
      </trkpt>
      <trkpt lat="45.14883" lon="5.6391">
        <ele>1863.1</ele>
        <time>2012-08-14T08:31:55Z</time>
      </trkpt>
      <trkpt lat="45.14881" lon="5.63901">
        <ele>1861.5</ele>
        <time>2012-08-14T08:32:01Z</time>
      </trkpt>
      <trkpt lat="45.14877" lon="5.63887">
        <ele>1858.9</ele>
        <time>2012-08-14T08:32:05Z</time>
      </trkpt>
      <trkpt lat="45.14875" lon="5.63881">
        <ele>1857.9</ele>
        <time>2012-08-14T08:32:08Z</time>
      </trkpt>
      <trkpt lat="45.1487" lon="5.63865">
        <ele>1854.8</ele>
        <time>2012-08-14T08:32:14Z</time>
      </trkpt>
      <trkpt lat="45.14869" lon="5.63857">
        <ele>1853.1</ele>
        <time>2012-08-14T08:32:18Z</time>
      </trkpt>
      <trkpt lat="45.14872" lon="5.63839">
        <ele>1849.9</ele>
        <time>2012-08-14T08:32:27Z</time>
      </trkpt>
      <trkpt lat="45.14874" lon="5.63837">
        <ele>1849.6</ele>
        <time>2012-08-14T08:32:28Z</time>
      </trkpt>
      <trkpt lat="45.14897" lon="5.63816">
        <ele>1847.9</ele>
        <time>2012-08-14T08:32:36Z</time>
      </trkpt>
      <trkpt lat="45.14901" lon="5.63813">
        <ele>1847.9</ele>
        <time>2012-08-14T08:32:37Z</time>
      </trkpt>
      <trkpt lat="45.1491" lon="5.63806">
        <ele>1848</ele>
        <time>2012-08-14T08:32:39Z</time>
      </trkpt>
      <trkpt lat="45.14914" lon="5.63803">
        <ele>1848.1</ele>
        <time>2012-08-14T08:32:40Z</time>
      </trkpt>
      <trkpt lat="45.14953" lon="5.63764">
        <ele>1843.2</ele>
        <time>2012-08-14T08:32:52Z</time>
      </trkpt>
      <trkpt lat="45.14958" lon="5.63764">
        <ele>1843.1</ele>
        <time>2012-08-14T08:32:54Z</time>
      </trkpt>
      <trkpt lat="45.14971" lon="5.63762">
        <ele>1843</ele>
        <time>2012-08-14T08:32:59Z</time>
      </trkpt>
      <trkpt lat="45.15003" lon="5.63751">
        <ele>1843.3</ele>
        <time>2012-08-14T08:33:10Z</time>
      </trkpt>
      <trkpt lat="45.15015" lon="5.6375">
        <ele>1840.7</ele>
        <time>2012-08-14T08:33:13Z</time>
      </trkpt>
      <trkpt lat="45.15026" lon="5.63741">
        <ele>1836.5</ele>
        <time>2012-08-14T08:33:17Z</time>
      </trkpt>
      <trkpt lat="45.15049" lon="5.6372">
        <ele>1828.8</ele>
        <time>2012-08-14T08:33:31Z</time>
      </trkpt>
      <trkpt lat="45.15064" lon="5.63712">
        <ele>1825.8</ele>
        <time>2012-08-14T08:35:52Z</time>
      </trkpt>
      <trkpt lat="45.15059" lon="5.63714">
        <ele>1826.6</ele>
        <time>2012-08-14T08:35:54Z</time>
      </trkpt>
      <trkpt lat="45.15038" lon="5.63728">
        <ele>1832</ele>
        <time>2012-08-14T08:36:07Z</time>
      </trkpt>
      <trkpt lat="45.15032" lon="5.63723">
        <ele>1832</ele>
        <time>2012-08-14T08:36:11Z</time>
      </trkpt>
      <trkpt lat="45.1503" lon="5.63726">
        <ele>1832.9</ele>
        <time>2012-08-14T08:36:23Z</time>
      </trkpt>
      <trkpt lat="45.15029" lon="5.63733">
        <ele>1834.4</ele>
        <time>2012-08-14T08:36:27Z</time>
      </trkpt>
      <trkpt lat="45.15006" lon="5.6375">
        <ele>1842.6</ele>
        <time>2012-08-14T08:36:40Z</time>
      </trkpt>
      <trkpt lat="45.14976" lon="5.63757">
        <ele>1843.1</ele>
        <time>2012-08-14T08:36:54Z</time>
      </trkpt>
      <trkpt lat="45.14959" lon="5.63769">
        <ele>1843.1</ele>
        <time>2012-08-14T08:37:01Z</time>
      </trkpt>
      <trkpt lat="45.14936" lon="5.63782">
        <ele>1844.6</ele>
        <time>2012-08-14T08:37:13Z</time>
      </trkpt>
      <trkpt lat="45.1493" lon="5.63786">
        <ele>1845.3</ele>
        <time>2012-08-14T08:37:16Z</time>
      </trkpt>
      <trkpt lat="45.14928" lon="5.6378">
        <ele>1845</ele>
        <time>2012-08-14T08:37:20Z</time>
      </trkpt>
      <trkpt lat="45.14915" lon="5.63772">
        <ele>1844.4</ele>
        <time>2012-08-14T08:37:27Z</time>
      </trkpt>
      <trkpt lat="45.14908" lon="5.63778">
        <ele>1844</ele>
        <time>2012-08-14T08:37:29Z</time>
      </trkpt>
      <trkpt lat="45.14881" lon="5.63781">
        <ele>1840.5</ele>
        <time>2012-08-14T08:37:34Z</time>
      </trkpt>
      <trkpt lat="45.14859" lon="5.63759">
        <ele>1832.8</ele>
        <time>2012-08-14T08:37:42Z</time>
      </trkpt>
      <trkpt lat="45.14851" lon="5.63749">
        <ele>1829</ele>
        <time>2012-08-14T08:37:45Z</time>
      </trkpt>
      <trkpt lat="45.1484" lon="5.63736">
        <ele>1823.1</ele>
        <time>2012-08-14T08:37:50Z</time>
      </trkpt>
      <trkpt lat="45.14827" lon="5.63733">
        <ele>1820.6</ele>
        <time>2012-08-14T08:37:54Z</time>
      </trkpt>
      <trkpt lat="45.14806" lon="5.63722">
        <ele>1816</ele>
        <time>2012-08-14T08:38:00Z</time>
      </trkpt>
      <trkpt lat="45.14806" lon="5.63718">
        <ele>1814.8</ele>
        <time>2012-08-14T08:38:01Z</time>
      </trkpt>
      <trkpt lat="45.14813" lon="5.63698">
        <ele>1809.2</ele>
        <time>2012-08-14T08:38:06Z</time>
      </trkpt>
      <trkpt lat="45.1482" lon="5.63682">
        <ele>1804.8</ele>
        <time>2012-08-14T08:38:10Z</time>
      </trkpt>
      <trkpt lat="45.14825" lon="5.63676">
        <ele>1803.4</ele>
        <time>2012-08-14T08:38:13Z</time>
      </trkpt>
      <trkpt lat="45.14831" lon="5.6367">
        <ele>1801.8</ele>
        <time>2012-08-14T08:38:16Z</time>
      </trkpt>
      <trkpt lat="45.14845" lon="5.63663">
        <ele>1801.7</ele>
        <time>2012-08-14T08:38:20Z</time>
      </trkpt>
      <trkpt lat="45.14865" lon="5.6365">
        <ele>1800.3</ele>
        <time>2012-08-14T08:38:24Z</time>
      </trkpt>
      <trkpt lat="45.14894" lon="5.63633">
        <ele>1797.3</ele>
        <time>2012-08-14T08:38:31Z</time>
      </trkpt>
      <trkpt lat="45.14914" lon="5.63619">
        <ele>1792.9</ele>
        <time>2012-08-14T08:38:37Z</time>
      </trkpt>
      <trkpt lat="45.14919" lon="5.63614">
        <ele>1791.1</ele>
        <time>2012-08-14T08:38:40Z</time>
      </trkpt>
      <trkpt lat="45.14926" lon="5.63608">
        <ele>1788</ele>
        <time>2012-08-14T08:38:44Z</time>
      </trkpt>
      <trkpt lat="45.14931" lon="5.63602">
        <ele>1785.3</ele>
        <time>2012-08-14T08:38:48Z</time>
      </trkpt>
      <trkpt lat="45.14939" lon="5.63593">
        <ele>1781.4</ele>
        <time>2012-08-14T08:38:53Z</time>
      </trkpt>
      <trkpt lat="45.1494" lon="5.63591">
        <ele>1780.6</ele>
        <time>2012-08-14T08:38:54Z</time>
      </trkpt>
      <trkpt lat="45.14944" lon="5.63587">
        <ele>1778.3</ele>
        <time>2012-08-14T08:39:26Z</time>
      </trkpt>
      <trkpt lat="45.14952" lon="5.63571">
        <ele>1772.2</ele>
        <time>2012-08-14T08:39:34Z</time>
      </trkpt>
      <trkpt lat="45.14953" lon="5.63567">
        <ele>1771</ele>
        <time>2012-08-14T08:39:36Z</time>
      </trkpt>
      <trkpt lat="45.14956" lon="5.63559">
        <ele>1768</ele>
        <time>2012-08-14T08:39:40Z</time>
      </trkpt>
      <trkpt lat="45.1496" lon="5.63553">
        <ele>1765.3</ele>
        <time>2012-08-14T08:39:45Z</time>
      </trkpt>
      <trkpt lat="45.14968" lon="5.6354">
        <ele>1760.2</ele>
        <time>2012-08-14T08:39:51Z</time>
      </trkpt>
      <trkpt lat="45.14975" lon="5.63536">
        <ele>1758.6</ele>
        <time>2012-08-14T08:39:56Z</time>
      </trkpt>
      <trkpt lat="45.15002" lon="5.63526">
        <ele>1753.2</ele>
        <time>2012-08-14T08:40:08Z</time>
      </trkpt>
      <trkpt lat="45.15009" lon="5.63526">
        <ele>1753.1</ele>
        <time>2012-08-14T08:40:11Z</time>
      </trkpt>
      <trkpt lat="45.15014" lon="5.63525">
        <ele>1752.6</ele>
        <time>2012-08-14T08:40:13Z</time>
      </trkpt>
      <trkpt lat="45.15019" lon="5.63522">
        <ele>1751.5</ele>
        <time>2012-08-14T08:40:15Z</time>
      </trkpt>
      <trkpt lat="45.1503" lon="5.63517">
        <ele>1748.8</ele>
        <time>2012-08-14T08:40:21Z</time>
      </trkpt>
      <trkpt lat="45.15037" lon="5.63513">
        <ele>1747</ele>
        <time>2012-08-14T08:40:26Z</time>
      </trkpt>
      <trkpt lat="45.15041" lon="5.63511">
        <ele>1746</ele>
        <time>2012-08-14T08:40:29Z</time>
      </trkpt>
      <trkpt lat="45.15051" lon="5.63505">
        <ele>1743.1</ele>
        <time>2012-08-14T08:40:35Z</time>
      </trkpt>
      <trkpt lat="45.15067" lon="5.63498">
        <ele>1739.3</ele>
        <time>2012-08-14T08:40:43Z</time>
      </trkpt>
      <trkpt lat="45.15074" lon="5.63496">
        <ele>1738.4</ele>
        <time>2012-08-14T08:40:47Z</time>
      </trkpt>
      <trkpt lat="45.15086" lon="5.63493">
        <ele>1736.6</ele>
        <time>2012-08-14T08:40:52Z</time>
      </trkpt>
      <trkpt lat="45.15117" lon="5.63489">
        <ele>1731.1</ele>
        <time>2012-08-14T08:41:01Z</time>
      </trkpt>
      <trkpt lat="45.15136" lon="5.63484">
        <ele>1726.6</ele>
        <time>2012-08-14T08:41:06Z</time>
      </trkpt>
      <trkpt lat="45.15152" lon="5.63482">
        <ele>1723.9</ele>
        <time>2012-08-14T08:41:10Z</time>
      </trkpt>
      <trkpt lat="45.1516" lon="5.6348">
        <ele>1722.6</ele>
        <time>2012-08-14T08:41:12Z</time>
      </trkpt>
      <trkpt lat="45.1518" lon="5.63481">
        <ele>1718.4</ele>
        <time>2012-08-14T08:41:16Z</time>
      </trkpt>
      <trkpt lat="45.1519" lon="5.63482">
        <ele>1716.3</ele>
        <time>2012-08-14T08:41:18Z</time>
      </trkpt>
      <trkpt lat="45.15228" lon="5.63494">
        <ele>1710.3</ele>
        <time>2012-08-14T08:41:25Z</time>
      </trkpt>
      <trkpt lat="45.15238" lon="5.63501">
        <ele>1709.7</ele>
        <time>2012-08-14T08:41:27Z</time>
      </trkpt>
      <trkpt lat="45.15274" lon="5.63528">
        <ele>1705.1</ele>
        <time>2012-08-14T08:41:33Z</time>
      </trkpt>
      <trkpt lat="45.15286" lon="5.63535">
        <ele>1701.8</ele>
        <time>2012-08-14T08:41:37Z</time>
      </trkpt>
      <trkpt lat="45.15297" lon="5.63539">
        <ele>1698.2</ele>
        <time>2012-08-14T08:41:46Z</time>
      </trkpt>
      <trkpt lat="45.15304" lon="5.63541">
        <ele>1695.3</ele>
        <time>2012-08-14T08:41:50Z</time>
      </trkpt>
      <trkpt lat="45.15314" lon="5.63543">
        <ele>1691.2</ele>
        <time>2012-08-14T08:41:54Z</time>
      </trkpt>
      <trkpt lat="45.15322" lon="5.63543">
        <ele>1688.1</ele>
        <time>2012-08-14T08:41:57Z</time>
      </trkpt>
      <trkpt lat="45.15328" lon="5.63543">
        <ele>1685.6</ele>
        <time>2012-08-14T08:42:00Z</time>
      </trkpt>
      <trkpt lat="45.1534" lon="5.6354">
        <ele>1681.2</ele>
        <time>2012-08-14T08:42:06Z</time>
      </trkpt>
      <trkpt lat="45.15356" lon="5.63531">
        <ele>1676.3</ele>
        <time>2012-08-14T08:42:11Z</time>
      </trkpt>
      <trkpt lat="45.15371" lon="5.63518">
        <ele>1672.9</ele>
        <time>2012-08-14T08:42:16Z</time>
      </trkpt>
      <trkpt lat="45.1538" lon="5.6351">
        <ele>1671.5</ele>
        <time>2012-08-14T08:42:19Z</time>
      </trkpt>
      <trkpt lat="45.154" lon="5.635">
        <ele>1668</ele>
        <time>2012-08-14T08:42:24Z</time>
      </trkpt>
      <trkpt lat="45.15405" lon="5.635">
        <ele>1666.8</ele>
        <time>2012-08-14T08:42:25Z</time>
      </trkpt>
      <trkpt lat="45.15416" lon="5.63497">
        <ele>1663.7</ele>
        <time>2012-08-14T08:42:27Z</time>
      </trkpt>
      <trkpt lat="45.15439" lon="5.63483">
        <ele>1658.5</ele>
        <time>2012-08-14T08:42:32Z</time>
      </trkpt>
      <trkpt lat="45.15461" lon="5.63468">
        <ele>1653.5</ele>
        <time>2012-08-14T08:42:38Z</time>
      </trkpt>
      <trkpt lat="45.15475" lon="5.63461">
        <ele>1650.8</ele>
        <time>2012-08-14T08:42:42Z</time>
      </trkpt>
      <trkpt lat="45.15488" lon="5.63459">
        <ele>1649</ele>
        <time>2012-08-14T08:42:46Z</time>
      </trkpt>
      <trkpt lat="45.15499" lon="5.63459">
        <ele>1647.7</ele>
        <time>2012-08-14T08:42:50Z</time>
      </trkpt>
      <trkpt lat="45.15508" lon="5.63459">
        <ele>1645.2</ele>
        <time>2012-08-14T08:42:53Z</time>
      </trkpt>
      <trkpt lat="45.15526" lon="5.63458">
        <ele>1639.7</ele>
        <time>2012-08-14T08:42:57Z</time>
      </trkpt>
      <trkpt lat="45.15554" lon="5.63463">
        <ele>1632.3</ele>
        <time>2012-08-14T08:43:06Z</time>
      </trkpt>
      <trkpt lat="45.15567" lon="5.63461">
        <ele>1628.3</ele>
        <time>2012-08-14T08:43:10Z</time>
      </trkpt>
      <trkpt lat="45.15574" lon="5.6346">
        <ele>1625.9</ele>
        <time>2012-08-14T08:43:12Z</time>
      </trkpt>
      <trkpt lat="45.156" lon="5.63462">
        <ele>1618.8</ele>
        <time>2012-08-14T08:43:19Z</time>
      </trkpt>
      <trkpt lat="45.1562" lon="5.63469">
        <ele>1614.9</ele>
        <time>2012-08-14T08:43:24Z</time>
      </trkpt>
      <trkpt lat="45.15636" lon="5.63485">
        <ele>1614.4</ele>
        <time>2012-08-14T08:43:28Z</time>
      </trkpt>
      <trkpt lat="45.15638" lon="5.63499">
        <ele>1617.3</ele>
        <time>2012-08-14T08:44:09Z</time>
      </trkpt>
      <trkpt lat="45.15636" lon="5.63506">
        <ele>1616.9</ele>
        <time>2012-08-14T08:44:13Z</time>
      </trkpt>
      <trkpt lat="45.1563" lon="5.63506">
        <ele>1618.4</ele>
        <time>2012-08-14T08:44:16Z</time>
      </trkpt>
      <trkpt lat="45.15625" lon="5.63505">
        <ele>1619.7</ele>
        <time>2012-08-14T08:44:18Z</time>
      </trkpt>
      <trkpt lat="45.15619" lon="5.63504">
        <ele>1621.2</ele>
        <time>2012-08-14T08:44:20Z</time>
      </trkpt>
      <trkpt lat="45.15603" lon="5.63502">
        <ele>1625.4</ele>
        <time>2012-08-14T08:44:25Z</time>
      </trkpt>
      <trkpt lat="45.15589" lon="5.63502">
        <ele>1628.5</ele>
        <time>2012-08-14T08:44:29Z</time>
      </trkpt>
      <trkpt lat="45.15577" lon="5.63507">
        <ele>1631.1</ele>
        <time>2012-08-14T08:44:33Z</time>
      </trkpt>
      <trkpt lat="45.15573" lon="5.63514">
        <ele>1631.2</ele>
        <time>2012-08-14T08:44:35Z</time>
      </trkpt>
      <trkpt lat="45.15584" lon="5.63534">
        <ele>1626.1</ele>
        <time>2012-08-14T08:44:42Z</time>
      </trkpt>
      <trkpt lat="45.15595" lon="5.63546">
        <ele>1621.7</ele>
        <time>2012-08-14T08:44:46Z</time>
      </trkpt>
      <trkpt lat="45.15603" lon="5.63562">
        <ele>1617.3</ele>
        <time>2012-08-14T08:44:49Z</time>
      </trkpt>
      <trkpt lat="45.15606" lon="5.63605">
        <ele>1611</ele>
        <time>2012-08-14T08:44:58Z</time>
      </trkpt>
      <trkpt lat="45.15609" lon="5.63625">
        <ele>1607.8</ele>
        <time>2012-08-14T08:45:03Z</time>
      </trkpt>
      <trkpt lat="45.15613" lon="5.63639">
        <ele>1604.5</ele>
        <time>2012-08-14T08:45:07Z</time>
      </trkpt>
      <trkpt lat="45.1562" lon="5.6365">
        <ele>1601.2</ele>
        <time>2012-08-14T08:45:11Z</time>
      </trkpt>
      <trkpt lat="45.15628" lon="5.63652">
        <ele>1598.4</ele>
        <time>2012-08-14T08:45:16Z</time>
      </trkpt>
      <trkpt lat="45.15635" lon="5.63647">
        <ele>1596.7</ele>
        <time>2012-08-14T08:45:21Z</time>
      </trkpt>
      <trkpt lat="45.15639" lon="5.63645">
        <ele>1595.7</ele>
        <time>2012-08-14T08:47:41Z</time>
      </trkpt>
      <trkpt lat="45.15677" lon="5.63642">
        <ele>1584</ele>
        <time>2012-08-14T08:47:54Z</time>
      </trkpt>
      <trkpt lat="45.15696" lon="5.63659">
        <ele>1576.5</ele>
        <time>2012-08-14T08:48:03Z</time>
      </trkpt>
      <trkpt lat="45.15698" lon="5.63663">
        <ele>1575.4</ele>
        <time>2012-08-14T08:48:05Z</time>
      </trkpt>
      <trkpt lat="45.15708" lon="5.63677">
        <ele>1571.3</ele>
        <time>2012-08-14T08:48:12Z</time>
      </trkpt>
      <trkpt lat="45.15717" lon="5.6368">
        <ele>1568.6</ele>
        <time>2012-08-14T08:48:16Z</time>
      </trkpt>
      <trkpt lat="45.1572" lon="5.63682">
        <ele>1567.6</ele>
        <time>2012-08-14T08:48:18Z</time>
      </trkpt>
      <trkpt lat="45.15732" lon="5.63684">
        <ele>1564.1</ele>
        <time>2012-08-14T08:48:25Z</time>
      </trkpt>
      <trkpt lat="45.15735" lon="5.63684">
        <ele>1563</ele>
        <time>2012-08-14T08:48:28Z</time>
      </trkpt>
      <trkpt lat="45.1574" lon="5.63685">
        <ele>1561.7</ele>
        <time>2012-08-14T08:48:31Z</time>
      </trkpt>
      <trkpt lat="45.15748" lon="5.63687">
        <ele>1559.3</ele>
        <time>2012-08-14T08:48:35Z</time>
      </trkpt>
      <trkpt lat="45.15766" lon="5.63687">
        <ele>1555.8</ele>
        <time>2012-08-14T08:48:42Z</time>
      </trkpt>
      <trkpt lat="45.15778" lon="5.6369">
        <ele>1553.1</ele>
        <time>2012-08-14T08:48:46Z</time>
      </trkpt>
      <trkpt lat="45.158" lon="5.63695">
        <ele>1548.1</ele>
        <time>2012-08-14T08:49:14Z</time>
      </trkpt>
      <trkpt lat="45.15808" lon="5.63695">
        <ele>1546.6</ele>
        <time>2012-08-14T08:49:18Z</time>
      </trkpt>
      <trkpt lat="45.15818" lon="5.63695">
        <ele>1544.6</ele>
        <time>2012-08-14T08:49:24Z</time>
      </trkpt>
      <trkpt lat="45.1582" lon="5.63695">
        <ele>1544.2</ele>
        <time>2012-08-14T08:49:25Z</time>
      </trkpt>
      <trkpt lat="45.15834" lon="5.63693">
        <ele>1541.9</ele>
        <time>2012-08-14T08:49:30Z</time>
      </trkpt>
      <trkpt lat="45.15853" lon="5.63692">
        <ele>1537.8</ele>
        <time>2012-08-14T08:49:35Z</time>
      </trkpt>
      <trkpt lat="45.15867" lon="5.63697">
        <ele>1533.6</ele>
        <time>2012-08-14T08:49:39Z</time>
      </trkpt>
      <trkpt lat="45.15885" lon="5.63705">
        <ele>1528</ele>
        <time>2012-08-14T08:49:44Z</time>
      </trkpt>
      <trkpt lat="45.15898" lon="5.63708">
        <ele>1524.4</ele>
        <time>2012-08-14T08:49:47Z</time>
      </trkpt>
      <trkpt lat="45.15922" lon="5.63713">
        <ele>1517.5</ele>
        <time>2012-08-14T08:49:51Z</time>
      </trkpt>
      <trkpt lat="45.1596" lon="5.63724">
        <ele>1506.4</ele>
        <time>2012-08-14T08:49:57Z</time>
      </trkpt>
      <trkpt lat="45.1598" lon="5.63726">
        <ele>1501.7</ele>
        <time>2012-08-14T08:50:01Z</time>
      </trkpt>
      <trkpt lat="45.15982" lon="5.63725">
        <ele>1501.3</ele>
        <time>2012-08-14T08:50:16Z</time>
      </trkpt>
      <trkpt lat="45.15987" lon="5.63717">
        <ele>1500.7</ele>
        <time>2012-08-14T08:50:20Z</time>
      </trkpt>
      <trkpt lat="45.15988" lon="5.63713">
        <ele>1500.8</ele>
        <time>2012-08-14T08:50:22Z</time>
      </trkpt>
      <trkpt lat="45.15989" lon="5.63702">
        <ele>1501.3</ele>
        <time>2012-08-14T08:50:26Z</time>
      </trkpt>
      <trkpt lat="45.15982" lon="5.63677">
        <ele>1505.4</ele>
        <time>2012-08-14T08:50:36Z</time>
      </trkpt>
      <trkpt lat="45.15984" lon="5.63665">
        <ele>1505.3</ele>
        <time>2012-08-14T08:50:41Z</time>
      </trkpt>
      <trkpt lat="45.15982" lon="5.63647">
        <ele>1502.4</ele>
        <time>2012-08-14T08:50:48Z</time>
      </trkpt>
      <trkpt lat="45.15981" lon="5.63645">
        <ele>1502.2</ele>
        <time>2012-08-14T08:50:49Z</time>
      </trkpt>
      <trkpt lat="45.1598" lon="5.63637">
        <ele>1501.2</ele>
        <time>2012-08-14T08:50:53Z</time>
      </trkpt>
      <trkpt lat="45.15977" lon="5.63618">
        <ele>1498.8</ele>
        <time>2012-08-14T08:51:00Z</time>
      </trkpt>
      <trkpt lat="45.15977" lon="5.63601">
        <ele>1495.6</ele>
        <time>2012-08-14T08:51:28Z</time>
      </trkpt>
      <trkpt lat="45.15977" lon="5.63575">
        <ele>1490.9</ele>
        <time>2012-08-14T08:51:35Z</time>
      </trkpt>
      <trkpt lat="45.15973" lon="5.63557">
        <ele>1488.8</ele>
        <time>2012-08-14T08:51:40Z</time>
      </trkpt>
      <trkpt lat="45.15972" lon="5.63535">
        <ele>1484.5</ele>
        <time>2012-08-14T08:51:44Z</time>
      </trkpt>
      <trkpt lat="45.15971" lon="5.6351">
        <ele>1479.8</ele>
        <time>2012-08-14T08:51:49Z</time>
      </trkpt>
      <trkpt lat="45.15971" lon="5.6349">
        <ele>1475.3</ele>
        <time>2012-08-14T08:51:54Z</time>
      </trkpt>
      <trkpt lat="45.15971" lon="5.63473">
        <ele>1471.3</ele>
        <time>2012-08-14T08:51:58Z</time>
      </trkpt>
      <trkpt lat="45.15971" lon="5.63457">
        <ele>1467.6</ele>
        <time>2012-08-14T08:52:02Z</time>
      </trkpt>
      <trkpt lat="45.15972" lon="5.63443">
        <ele>1463.9</ele>
        <time>2012-08-14T08:52:06Z</time>
      </trkpt>
      <trkpt lat="45.15974" lon="5.6343">
        <ele>1460.1</ele>
        <time>2012-08-14T08:52:10Z</time>
      </trkpt>
      <trkpt lat="45.15977" lon="5.63416">
        <ele>1456.3</ele>
        <time>2012-08-14T08:52:15Z</time>
      </trkpt>
      <trkpt lat="45.15982" lon="5.63408">
        <ele>1452.5</ele>
        <time>2012-08-14T08:52:18Z</time>
      </trkpt>
      <trkpt lat="45.15988" lon="5.63401">
        <ele>1449.3</ele>
        <time>2012-08-14T08:52:21Z</time>
      </trkpt>
      <trkpt lat="45.16" lon="5.63393">
        <ele>1444.8</ele>
        <time>2012-08-14T08:52:25Z</time>
      </trkpt>
      <trkpt lat="45.1601" lon="5.63383">
        <ele>1440.5</ele>
        <time>2012-08-14T08:52:28Z</time>
      </trkpt>
      <trkpt lat="45.16023" lon="5.63372">
        <ele>1435.8</ele>
        <time>2012-08-14T08:52:41Z</time>
      </trkpt>
      <trkpt lat="45.16015" lon="5.6336">
        <ele>1434</ele>
        <time>2012-08-14T08:53:33Z</time>
      </trkpt>
      <trkpt lat="45.1601" lon="5.6335">
        <ele>1432</ele>
        <time>2012-08-14T08:53:37Z</time>
      </trkpt>
      <trkpt lat="45.15997" lon="5.63344">
        <ele>1431.9</ele>
        <time>2012-08-14T08:53:43Z</time>
      </trkpt>
      <trkpt lat="45.15988" lon="5.63338">
        <ele>1430.6</ele>
        <time>2012-08-14T08:53:46Z</time>
      </trkpt>
      <trkpt lat="45.15975" lon="5.63327">
        <ele>1427.2</ele>
        <time>2012-08-14T08:53:50Z</time>
      </trkpt>
      <trkpt lat="45.15959" lon="5.63319">
        <ele>1424.4</ele>
        <time>2012-08-14T08:53:54Z</time>
      </trkpt>
      <trkpt lat="45.15947" lon="5.6332">
        <ele>1425.1</ele>
        <time>2012-08-14T08:53:57Z</time>
      </trkpt>
      <trkpt lat="45.15934" lon="5.63317">
        <ele>1424.2</ele>
        <time>2012-08-14T08:54:00Z</time>
      </trkpt>
      <trkpt lat="45.15917" lon="5.63307">
        <ele>1421.1</ele>
        <time>2012-08-14T08:54:05Z</time>
      </trkpt>
      <trkpt lat="45.15911" lon="5.63303">
        <ele>1421.9</ele>
        <time>2012-08-14T08:54:07Z</time>
      </trkpt>
      <trkpt lat="45.159" lon="5.63285">
        <ele>1420.2</ele>
        <time>2012-08-14T08:54:15Z</time>
      </trkpt>
      <trkpt lat="45.15924" lon="5.63253">
        <ele>1400.7</ele>
        <time>2012-08-14T08:54:33Z</time>
      </trkpt>
      <trkpt lat="45.15911" lon="5.63257">
        <ele>1405.6</ele>
        <time>2012-08-14T08:56:40Z</time>
      </trkpt>
      <trkpt lat="45.15939" lon="5.63224">
        <ele>1392.6</ele>
        <time>2012-08-14T08:56:46Z</time>
      </trkpt>
      <trkpt lat="45.15914" lon="5.63184">
        <ele>1391.8</ele>
        <time>2012-08-14T08:56:52Z</time>
      </trkpt>
      <trkpt lat="45.15919" lon="5.63166">
        <ele>1387.1</ele>
        <time>2012-08-14T08:57:12Z</time>
      </trkpt>
      <trkpt lat="45.15928" lon="5.63166">
        <ele>1384.1</ele>
        <time>2012-08-14T08:57:23Z</time>
      </trkpt>
      <trkpt lat="45.15933" lon="5.6316">
        <ele>1382.5</ele>
        <time>2012-08-14T08:57:32Z</time>
      </trkpt>
      <trkpt lat="45.15946" lon="5.63158">
        <ele>1377.2</ele>
        <time>2012-08-14T08:57:52Z</time>
      </trkpt>
      <trkpt lat="45.15951" lon="5.63154">
        <ele>1375.3</ele>
        <time>2012-08-14T08:58:03Z</time>
      </trkpt>
      <trkpt lat="45.15958" lon="5.63154">
        <ele>1372.6</ele>
        <time>2012-08-14T08:58:19Z</time>
      </trkpt>
      <trkpt lat="45.15963" lon="5.63151">
        <ele>1370</ele>
        <time>2012-08-14T08:58:32Z</time>
      </trkpt>
      <trkpt lat="45.15967" lon="5.63141">
        <ele>1367.3</ele>
        <time>2012-08-14T08:58:46Z</time>
      </trkpt>
      <trkpt lat="45.15976" lon="5.63141">
        <ele>1363.1</ele>
        <time>2012-08-14T08:59:00Z</time>
      </trkpt>
      <trkpt lat="45.15977" lon="5.63134">
        <ele>1361.5</ele>
        <time>2012-08-14T08:59:19Z</time>
      </trkpt>
      <trkpt lat="45.15981" lon="5.63128">
        <ele>1358.4</ele>
        <time>2012-08-14T08:59:40Z</time>
      </trkpt>
      <trkpt lat="45.15989" lon="5.63117">
        <ele>1352.6</ele>
        <time>2012-08-14T09:00:18Z</time>
      </trkpt>
      <trkpt lat="45.15994" lon="5.63111">
        <ele>1348.5</ele>
        <time>2012-08-14T09:00:23Z</time>
      </trkpt>
      <trkpt lat="45.16014" lon="5.63109">
        <ele>1339.5</ele>
        <time>2012-08-14T09:01:04Z</time>
      </trkpt>
      <trkpt lat="45.1603" lon="5.63111">
        <ele>1334.6</ele>
        <time>2012-08-14T09:01:11Z</time>
      </trkpt>
      <trkpt lat="45.1605" lon="5.63109">
        <ele>1327.3</ele>
        <time>2012-08-14T09:01:20Z</time>
      </trkpt>
      <trkpt lat="45.16062" lon="5.63113">
        <ele>1324.4</ele>
        <time>2012-08-14T09:01:26Z</time>
      </trkpt>
      <trkpt lat="45.16075" lon="5.63115">
        <ele>1320.8</ele>
        <time>2012-08-14T09:01:37Z</time>
      </trkpt>
      <trkpt lat="45.16088" lon="5.63116">
        <ele>1317.4</ele>
        <time>2012-08-14T09:01:44Z</time>
      </trkpt>
      <trkpt lat="45.16093" lon="5.63116">
        <ele>1316.3</ele>
        <time>2012-08-14T09:01:47Z</time>
      </trkpt>
      <trkpt lat="45.16109" lon="5.63116">
        <ele>1313</ele>
        <time>2012-08-14T09:01:53Z</time>
      </trkpt>
      <trkpt lat="45.16125" lon="5.63114">
        <ele>1309.1</ele>
        <time>2012-08-14T09:01:59Z</time>
      </trkpt>
      <trkpt lat="45.16141" lon="5.63112">
        <ele>1305.2</ele>
        <time>2012-08-14T09:02:06Z</time>
      </trkpt>
      <trkpt lat="45.16146" lon="5.6311">
        <ele>1303</ele>
        <time>2012-08-14T09:02:08Z</time>
      </trkpt>
      <trkpt lat="45.16164" lon="5.63113">
        <ele>1300.9</ele>
        <time>2012-08-14T09:02:15Z</time>
      </trkpt>
      <trkpt lat="45.1617" lon="5.63112">
        <ele>1299.2</ele>
        <time>2012-08-14T09:02:18Z</time>
      </trkpt>
      <trkpt lat="45.16184" lon="5.63114">
        <ele>1298.4</ele>
        <time>2012-08-14T09:02:23Z</time>
      </trkpt>
      <trkpt lat="45.16216" lon="5.63095">
        <ele>1287.8</ele>
        <time>2012-08-14T09:02:33Z</time>
      </trkpt>
      <trkpt lat="45.16226" lon="5.63087">
        <ele>1284.3</ele>
        <time>2012-08-14T09:02:37Z</time>
      </trkpt>
      <trkpt lat="45.1624" lon="5.63078">
        <ele>1280.3</ele>
        <time>2012-08-14T09:02:42Z</time>
      </trkpt>
      <trkpt lat="45.16246" lon="5.63076">
        <ele>1279.1</ele>
        <time>2012-08-14T09:02:44Z</time>
      </trkpt>
      <trkpt lat="45.16256" lon="5.63073">
        <ele>1276.8</ele>
        <time>2012-08-14T09:04:58Z</time>
      </trkpt>
      <trkpt lat="45.16305" lon="5.63206">
        <ele>1304.3</ele>
        <time>2012-08-14T09:05:51Z</time>
      </trkpt>
      <trkpt lat="45.16316" lon="5.6326">
        <ele>1312.4</ele>
        <time>2012-08-14T09:06:10Z</time>
      </trkpt>
      <trkpt lat="45.16321" lon="5.63276">
        <ele>1312</ele>
        <time>2012-08-14T09:06:14Z</time>
      </trkpt>
      <trkpt lat="45.16329" lon="5.63298">
        <ele>1309.8</ele>
        <time>2012-08-14T09:06:23Z</time>
      </trkpt>
      <trkpt lat="45.16337" lon="5.63315">
        <ele>1307.3</ele>
        <time>2012-08-14T09:06:31Z</time>
      </trkpt>
      <trkpt lat="45.16343" lon="5.6333">
        <ele>1306.7</ele>
        <time>2012-08-14T09:06:34Z</time>
      </trkpt>
      <trkpt lat="45.16364" lon="5.6335">
        <ele>1297.8</ele>
        <time>2012-08-14T09:06:38Z</time>
      </trkpt>
      <trkpt lat="45.16389" lon="5.63327">
        <ele>1288.1</ele>
        <time>2012-08-14T09:06:43Z</time>
      </trkpt>
      <trkpt lat="45.16405" lon="5.63299">
        <ele>1281</ele>
        <time>2012-08-14T09:07:41Z</time>
      </trkpt>
      <trkpt lat="45.16415" lon="5.63285">
        <ele>1277</ele>
        <time>2012-08-14T09:07:46Z</time>
      </trkpt>
      <trkpt lat="45.1642" lon="5.63279">
        <ele>1275.3</ele>
        <time>2012-08-14T09:07:50Z</time>
      </trkpt>
      <trkpt lat="45.16427" lon="5.63275">
        <ele>1272.6</ele>
        <time>2012-08-14T09:07:55Z</time>
      </trkpt>
      <trkpt lat="45.16438" lon="5.63278">
        <ele>1269</ele>
        <time>2012-08-14T09:10:40Z</time>
      </trkpt>
      <trkpt lat="45.16451" lon="5.63279">
        <ele>1264.5</ele>
        <time>2012-08-14T09:10:44Z</time>
      </trkpt>
      <trkpt lat="45.16465" lon="5.63277">
        <ele>1259.5</ele>
        <time>2012-08-14T09:10:50Z</time>
      </trkpt>
      <trkpt lat="45.16475" lon="5.63277">
        <ele>1256</ele>
        <time>2012-08-14T09:10:54Z</time>
      </trkpt>
      <trkpt lat="45.16486" lon="5.63287">
        <ele>1251.3</ele>
        <time>2012-08-14T09:10:58Z</time>
      </trkpt>
      <trkpt lat="45.16496" lon="5.63288">
        <ele>1247.9</ele>
        <time>2012-08-14T09:11:07Z</time>
      </trkpt>
      <trkpt lat="45.16475" lon="5.63277">
        <ele>1256</ele>
        <time>2012-08-14T09:11:12Z</time>
      </trkpt>
      <trkpt lat="45.16483" lon="5.63234">
        <ele>1252.5</ele>
        <time>2012-08-14T09:11:20Z</time>
      </trkpt>
      <trkpt lat="45.165" lon="5.63243">
        <ele>1248.6</ele>
        <time>2012-08-14T09:11:31Z</time>
      </trkpt>
      <trkpt lat="45.16515" lon="5.63246">
        <ele>1245.7</ele>
        <time>2012-08-14T09:11:35Z</time>
      </trkpt>
      <trkpt lat="45.16525" lon="5.63251">
        <ele>1243.8</ele>
        <time>2012-08-14T09:11:38Z</time>
      </trkpt>
      <trkpt lat="45.16531" lon="5.63254">
        <ele>1242</ele>
        <time>2012-08-14T09:11:40Z</time>
      </trkpt>
      <trkpt lat="45.1655" lon="5.63265">
        <ele>1237</ele>
        <time>2012-08-14T09:11:46Z</time>
      </trkpt>
      <trkpt lat="45.1656" lon="5.63269">
        <ele>1234.6</ele>
        <time>2012-08-14T09:11:48Z</time>
      </trkpt>
      <trkpt lat="45.16565" lon="5.63271">
        <ele>1233.3</ele>
        <time>2012-08-14T09:11:49Z</time>
      </trkpt>
      <trkpt lat="45.16612" lon="5.63288">
        <ele>1226</ele>
        <time>2012-08-14T09:12:00Z</time>
      </trkpt>
      <trkpt lat="45.16621" lon="5.63291">
        <ele>1225.2</ele>
        <time>2012-08-14T09:12:02Z</time>
      </trkpt>
      <trkpt lat="45.16635" lon="5.63294">
        <ele>1223.9</ele>
        <time>2012-08-14T09:12:05Z</time>
      </trkpt>
      <trkpt lat="45.16666" lon="5.63306">
        <ele>1222.2</ele>
        <time>2012-08-14T09:12:11Z</time>
      </trkpt>
      <trkpt lat="45.16697" lon="5.63321">
        <ele>1222</ele>
        <time>2012-08-14T09:12:19Z</time>
      </trkpt>
      <trkpt lat="45.16715" lon="5.63329">
        <ele>1222.2</ele>
        <time>2012-08-14T09:12:23Z</time>
      </trkpt>
      <trkpt lat="45.16731" lon="5.63334">
        <ele>1222.2</ele>
        <time>2012-08-14T09:12:30Z</time>
      </trkpt>
      <trkpt lat="45.16756" lon="5.63345">
        <ele>1220.8</ele>
        <time>2012-08-14T09:12:36Z</time>
      </trkpt>
      <trkpt lat="45.16763" lon="5.63348">
        <ele>1220.1</ele>
        <time>2012-08-14T09:12:37Z</time>
      </trkpt>
      <trkpt lat="45.16795" lon="5.6336">
        <ele>1216.8</ele>
        <time>2012-08-14T09:12:43Z</time>
      </trkpt>
      <trkpt lat="45.16812" lon="5.63365">
        <ele>1215.1</ele>
        <time>2012-08-14T09:12:46Z</time>
      </trkpt>
      <trkpt lat="45.1684" lon="5.63365">
        <ele>1211.8</ele>
        <time>2012-08-14T09:12:53Z</time>
      </trkpt>
      <trkpt lat="45.16872" lon="5.63371">
        <ele>1208</ele>
        <time>2012-08-14T09:12:58Z</time>
      </trkpt>
      <trkpt lat="45.16881" lon="5.63372">
        <ele>1207</ele>
        <time>2012-08-14T09:12:59Z</time>
      </trkpt>
      <trkpt lat="45.16921" lon="5.63381">
        <ele>1202.7</ele>
        <time>2012-08-14T09:13:03Z</time>
      </trkpt>
      <trkpt lat="45.16948" lon="5.63382">
        <ele>1200</ele>
        <time>2012-08-14T09:13:07Z</time>
      </trkpt>
      <trkpt lat="45.16985" lon="5.63396">
        <ele>1197.2</ele>
        <time>2012-08-14T09:13:15Z</time>
      </trkpt>
      <trkpt lat="45.16995" lon="5.63401">
        <ele>1196.4</ele>
        <time>2012-08-14T09:13:18Z</time>
      </trkpt>
      <trkpt lat="45.17001" lon="5.63405">
        <ele>1196</ele>
        <time>2012-08-14T09:13:23Z</time>
      </trkpt>
      <trkpt lat="45.17025" lon="5.63416">
        <ele>1191</ele>
        <time>2012-08-14T09:13:27Z</time>
      </trkpt>
      <trkpt lat="45.1704" lon="5.63422">
        <ele>1186.8</ele>
        <time>2012-08-14T09:13:31Z</time>
      </trkpt>
      <trkpt lat="45.17057" lon="5.6343">
        <ele>1181.5</ele>
        <time>2012-08-14T09:13:35Z</time>
      </trkpt>
      <trkpt lat="45.17078" lon="5.63444">
        <ele>1175</ele>
        <time>2012-08-14T09:13:39Z</time>
      </trkpt>
      <trkpt lat="45.17088" lon="5.63447">
        <ele>1172.6</ele>
        <time>2012-08-14T09:13:41Z</time>
      </trkpt>
      <trkpt lat="45.17097" lon="5.63452">
        <ele>1170.5</ele>
        <time>2012-08-14T09:18:15Z</time>
      </trkpt>
      <trkpt lat="45.17104" lon="5.63396">
        <ele>1173</ele>
        <time>2012-08-14T09:18:29Z</time>
      </trkpt>
      <trkpt lat="45.17112" lon="5.6332">
        <ele>1170.9</ele>
        <time>2012-08-14T09:18:44Z</time>
      </trkpt>
      <trkpt lat="45.17125" lon="5.63212">
        <ele>1166.6</ele>
        <time>2012-08-14T09:19:07Z</time>
      </trkpt>
      <trkpt lat="45.17125" lon="5.63201">
        <ele>1166.3</ele>
        <time>2012-08-14T09:19:09Z</time>
      </trkpt>
      <trkpt lat="45.17127" lon="5.63183">
        <ele>1165.8</ele>
        <time>2012-08-14T09:19:12Z</time>
      </trkpt>
      <trkpt lat="45.17116" lon="5.63137">
        <ele>1164.6</ele>
        <time>2012-08-14T09:19:23Z</time>
      </trkpt>
      <trkpt lat="45.17106" lon="5.63115">
        <ele>1163.9</ele>
        <time>2012-08-14T09:19:27Z</time>
      </trkpt>
      <trkpt lat="45.17095" lon="5.63085">
        <ele>1162.8</ele>
        <time>2012-08-14T09:19:32Z</time>
      </trkpt>
      <trkpt lat="45.17081" lon="5.63067">
        <ele>1163.1</ele>
        <time>2012-08-14T09:19:36Z</time>
      </trkpt>
      <trkpt lat="45.17074" lon="5.63062">
        <ele>1163.3</ele>
        <time>2012-08-14T09:20:05Z</time>
      </trkpt>
    </trkseg>
  </trk>
  <trk>
    <name><![CDATA[Noir - Légende 87]]></name>
    <trkseg>
      <trkpt lat="45.06665" lon="5.55077">
        <ele>998.3</ele>
      </trkpt>
      <trkpt lat="45.06671" lon="5.55082">
        <ele>997.8</ele>
      </trkpt>
      <trkpt lat="45.06673" lon="5.55085">
        <ele>997.7</ele>
      </trkpt>
      <trkpt lat="45.0675" lon="5.55086">
        <ele>994.1</ele>
      </trkpt>
      <trkpt lat="45.06752" lon="5.54989">
        <ele>991.8</ele>
      </trkpt>
      <trkpt lat="45.06754" lon="5.54906">
        <ele>988.8</ele>
      </trkpt>
      <trkpt lat="45.06756" lon="5.548">
        <ele>984.8</ele>
      </trkpt>
      <trkpt lat="45.06756" lon="5.54785">
        <ele>984.3</ele>
      </trkpt>
      <trkpt lat="45.0676" lon="5.54789">
        <ele>984.5</ele>
      </trkpt>
      <trkpt lat="45.06766" lon="5.54795">
        <ele>984.8</ele>
      </trkpt>
      <trkpt lat="45.0679" lon="5.54832">
        <ele>986.9</ele>
      </trkpt>
      <trkpt lat="45.06796" lon="5.54838">
        <ele>987.3</ele>
      </trkpt>
      <trkpt lat="45.06798" lon="5.54841">
        <ele>987.5</ele>
      </trkpt>
      <trkpt lat="45.06804" lon="5.54845">
        <ele>987.9</ele>
      </trkpt>
      <trkpt lat="45.06806" lon="5.54846">
        <ele>988</ele>
      </trkpt>
      <trkpt lat="45.0681" lon="5.54842">
        <ele>987.9</ele>
      </trkpt>
      <trkpt lat="45.06835" lon="5.54798">
        <ele>985.6</ele>
      </trkpt>
      <trkpt lat="45.06855" lon="5.54761">
        <ele>985.2</ele>
      </trkpt>
      <trkpt lat="45.0688" lon="5.54719">
        <ele>982.5</ele>
      </trkpt>
      <trkpt lat="45.0688" lon="5.54718">
        <ele>982.4</ele>
      </trkpt>
      <trkpt lat="45.06893" lon="5.547">
        <ele>980.5</ele>
      </trkpt>
      <trkpt lat="45.06905" lon="5.54694">
        <ele>979.7</ele>
      </trkpt>
      <trkpt lat="45.06915" lon="5.54691">
        <ele>979.4</ele>
      </trkpt>
      <trkpt lat="45.06946" lon="5.54693">
        <ele>979.6</ele>
      </trkpt>
      <trkpt lat="45.06977" lon="5.54693">
        <ele>979.5</ele>
      </trkpt>
      <trkpt lat="45.0702" lon="5.54695">
        <ele>978.6</ele>
      </trkpt>
      <trkpt lat="45.07041" lon="5.54696">
        <ele>977.6</ele>
      </trkpt>
      <trkpt lat="45.07052" lon="5.54698">
        <ele>977.4</ele>
      </trkpt>
      <trkpt lat="45.07091" lon="5.54718">
        <ele>979.9</ele>
      </trkpt>
      <trkpt lat="45.07106" lon="5.54724">
        <ele>980.5</ele>
      </trkpt>
      <trkpt lat="45.07137" lon="5.54734">
        <ele>981</ele>
      </trkpt>
      <trkpt lat="45.07165" lon="5.54748">
        <ele>981.8</ele>
      </trkpt>
      <trkpt lat="45.07207" lon="5.5477">
        <ele>982.2</ele>
      </trkpt>
      <trkpt lat="45.07235" lon="5.54775">
        <ele>980.6</ele>
      </trkpt>
      <trkpt lat="45.07263" lon="5.54765">
        <ele>975.8</ele>
      </trkpt>
      <trkpt lat="45.07283" lon="5.54764">
        <ele>973.6</ele>
      </trkpt>
      <trkpt lat="45.07299" lon="5.54766">
        <ele>972.4</ele>
      </trkpt>
      <trkpt lat="45.07324" lon="5.54779">
        <ele>971.5</ele>
      </trkpt>
      <trkpt lat="45.07368" lon="5.54824">
        <ele>972.4</ele>
      </trkpt>
      <trkpt lat="45.07374" lon="5.54824">
        <ele>971.8</ele>
      </trkpt>
      <trkpt lat="45.07382" lon="5.54816">
        <ele>970.4</ele>
      </trkpt>
      <trkpt lat="45.07377" lon="5.54803">
        <ele>969.8</ele>
      </trkpt>
      <trkpt lat="45.07373" lon="5.54788">
        <ele>968.8</ele>
      </trkpt>
      <trkpt lat="45.07379" lon="5.54783">
        <ele>968</ele>
      </trkpt>
      <trkpt lat="45.07376" lon="5.54769">
        <ele>967</ele>
      </trkpt>
      <trkpt lat="45.07376" lon="5.54744">
        <ele>965.4</ele>
      </trkpt>
      <trkpt lat="45.07382" lon="5.547">
        <ele>964.6</ele>
      </trkpt>
      <trkpt lat="45.07389" lon="5.54657">
        <ele>965.8</ele>
      </trkpt>
      <trkpt lat="45.07393" lon="5.54638">
        <ele>968.9</ele>
      </trkpt>
      <trkpt lat="45.074" lon="5.54624">
        <ele>971.9</ele>
      </trkpt>
      <trkpt lat="45.07403" lon="5.5462">
        <ele>972.9</ele>
      </trkpt>
      <trkpt lat="45.07393" lon="5.54604">
        <ele>974.2</ele>
      </trkpt>
      <trkpt lat="45.07392" lon="5.54589">
        <ele>976.4</ele>
      </trkpt>
      <trkpt lat="45.07384" lon="5.54549">
        <ele>982.5</ele>
      </trkpt>
      <trkpt lat="45.07379" lon="5.54526">
        <ele>985.5</ele>
      </trkpt>
      <trkpt lat="45.07371" lon="5.54505">
        <ele>986.6</ele>
      </trkpt>
      <trkpt lat="45.0737" lon="5.54503">
        <ele>986.7</ele>
      </trkpt>
      <trkpt lat="45.07327" lon="5.54443">
        <ele>979</ele>
      </trkpt>
      <trkpt lat="45.07315" lon="5.54424">
        <ele>982.6</ele>
      </trkpt>
      <trkpt lat="45.07309" lon="5.54406">
        <ele>982.5</ele>
      </trkpt>
      <trkpt lat="45.07311" lon="5.54384">
        <ele>978.2</ele>
      </trkpt>
      <trkpt lat="45.07316" lon="5.5437">
        <ele>974.2</ele>
      </trkpt>
      <trkpt lat="45.07325" lon="5.54359">
        <ele>969.5</ele>
      </trkpt>
      <trkpt lat="45.07346" lon="5.54338">
        <ele>969.1</ele>
      </trkpt>
      <trkpt lat="45.07358" lon="5.5432">
        <ele>973.3</ele>
      </trkpt>
      <trkpt lat="45.07367" lon="5.54296">
        <ele>974.2</ele>
      </trkpt>
      <trkpt lat="45.07372" lon="5.54282">
        <ele>973.6</ele>
      </trkpt>
      <trkpt lat="45.07374" lon="5.54275">
        <ele>973</ele>
      </trkpt>
      <trkpt lat="45.07388" lon="5.54209">
        <ele>967.5</ele>
      </trkpt>
      <trkpt lat="45.07402" lon="5.54168">
        <ele>965</ele>
      </trkpt>
      <trkpt lat="45.07405" lon="5.54147">
        <ele>966.2</ele>
      </trkpt>
      <trkpt lat="45.07406" lon="5.54128">
        <ele>967.2</ele>
      </trkpt>
      <trkpt lat="45.07403" lon="5.54115">
        <ele>967.5</ele>
      </trkpt>
      <trkpt lat="45.07399" lon="5.54105">
        <ele>967.3</ele>
      </trkpt>
      <trkpt lat="45.07393" lon="5.54093">
        <ele>966.6</ele>
      </trkpt>
      <trkpt lat="45.07387" lon="5.54087">
        <ele>965.5</ele>
      </trkpt>
      <trkpt lat="45.07377" lon="5.54081">
        <ele>963.1</ele>
      </trkpt>
      <trkpt lat="45.07364" lon="5.54077">
        <ele>959.8</ele>
      </trkpt>
      <trkpt lat="45.07341" lon="5.54072">
        <ele>954.8</ele>
      </trkpt>
      <trkpt lat="45.07331" lon="5.54066">
        <ele>954</ele>
      </trkpt>
      <trkpt lat="45.07325" lon="5.54059">
        <ele>955.8</ele>
      </trkpt>
      <trkpt lat="45.07315" lon="5.5406">
        <ele>959.1</ele>
      </trkpt>
      <trkpt lat="45.07307" lon="5.54055">
        <ele>961.5</ele>
      </trkpt>
      <trkpt lat="45.07296" lon="5.5403">
        <ele>963.8</ele>
      </trkpt>
      <trkpt lat="45.07292" lon="5.54009">
        <ele>963.8</ele>
      </trkpt>
      <trkpt lat="45.07292" lon="5.53962">
        <ele>960.5</ele>
      </trkpt>
      <trkpt lat="45.07297" lon="5.53931">
        <ele>957.2</ele>
      </trkpt>
      <trkpt lat="45.07304" lon="5.53912">
        <ele>954.7</ele>
      </trkpt>
      <trkpt lat="45.07308" lon="5.53895">
        <ele>954.1</ele>
      </trkpt>
      <trkpt lat="45.07309" lon="5.53878">
        <ele>954.2</ele>
      </trkpt>
      <trkpt lat="45.07297" lon="5.53845">
        <ele>956.6</ele>
      </trkpt>
      <trkpt lat="45.07292" lon="5.53822">
        <ele>961.8</ele>
      </trkpt>
      <trkpt lat="45.07292" lon="5.53803">
        <ele>968.8</ele>
      </trkpt>
      <trkpt lat="45.07293" lon="5.53794">
        <ele>971.8</ele>
      </trkpt>
      <trkpt lat="45.07299" lon="5.53763">
        <ele>983.3</ele>
      </trkpt>
      <trkpt lat="45.07296" lon="5.53748">
        <ele>988.8</ele>
      </trkpt>
      <trkpt lat="45.07291" lon="5.53742">
        <ele>990.6</ele>
      </trkpt>
      <trkpt lat="45.07283" lon="5.53733">
        <ele>993</ele>
      </trkpt>
      <trkpt lat="45.07263" lon="5.53662">
        <ele>1006.2</ele>
      </trkpt>
      <trkpt lat="45.07252" lon="5.53619">
        <ele>1004.7</ele>
      </trkpt>
      <trkpt lat="45.07247" lon="5.53572">
        <ele>1004.7</ele>
      </trkpt>
      <trkpt lat="45.07242" lon="5.53511">
        <ele>1005</ele>
      </trkpt>
      <trkpt lat="45.07245" lon="5.53507">
        <ele>1004.2</ele>
      </trkpt>
      <trkpt lat="45.07251" lon="5.53508">
        <ele>1003.2</ele>
      </trkpt>
      <trkpt lat="45.07255" lon="5.5351">
        <ele>1003.7</ele>
      </trkpt>
      <trkpt lat="45.07258" lon="5.53508">
        <ele>1004</ele>
      </trkpt>
      <trkpt lat="45.0726" lon="5.53509">
        <ele>1004.2</ele>
      </trkpt>
      <trkpt lat="45.07261" lon="5.53511">
        <ele>1004.4</ele>
      </trkpt>
      <trkpt lat="45.07263" lon="5.53508">
        <ele>1004.5</ele>
      </trkpt>
      <trkpt lat="45.07265" lon="5.53499">
        <ele>1004.7</ele>
      </trkpt>
      <trkpt lat="45.07269" lon="5.53494">
        <ele>1006</ele>
      </trkpt>
      <trkpt lat="45.07273" lon="5.5349">
        <ele>1007</ele>
      </trkpt>
      <trkpt lat="45.07289" lon="5.53469">
        <ele>1011.8</ele>
      </trkpt>
      <trkpt lat="45.07294" lon="5.53464">
        <ele>1013.2</ele>
      </trkpt>
      <trkpt lat="45.07293" lon="5.53448">
        <ele>1015.5</ele>
      </trkpt>
      <trkpt lat="45.07294" lon="5.53433">
        <ele>1017.8</ele>
      </trkpt>
      <trkpt lat="45.07298" lon="5.53406">
        <ele>1022.6</ele>
      </trkpt>
      <trkpt lat="45.07301" lon="5.53396">
        <ele>1024.6</ele>
      </trkpt>
      <trkpt lat="45.07304" lon="5.53389">
        <ele>1026.3</ele>
      </trkpt>
      <trkpt lat="45.07307" lon="5.53378">
        <ele>1028.6</ele>
      </trkpt>
      <trkpt lat="45.07306" lon="5.53368">
        <ele>1030.3</ele>
      </trkpt>
      <trkpt lat="45.073" lon="5.53366">
        <ele>1029.9</ele>
      </trkpt>
      <trkpt lat="45.07291" lon="5.53366">
        <ele>1029</ele>
      </trkpt>
      <trkpt lat="45.0728" lon="5.53363">
        <ele>1028.3</ele>
      </trkpt>
      <trkpt lat="45.07256" lon="5.53364">
        <ele>1025.6</ele>
      </trkpt>
      <trkpt lat="45.07254" lon="5.53363">
        <ele>1025.5</ele>
      </trkpt>
      <trkpt lat="45.07246" lon="5.53358">
        <ele>1025.8</ele>
      </trkpt>
      <trkpt lat="45.07238" lon="5.53348">
        <ele>1027.5</ele>
      </trkpt>
      <trkpt lat="45.07212" lon="5.53325">
        <ele>1031.7</ele>
      </trkpt>
      <trkpt lat="45.07173" lon="5.53265">
        <ele>1044.1</ele>
      </trkpt>
      <trkpt lat="45.07163" lon="5.53254">
        <ele>1046.3</ele>
      </trkpt>
      <trkpt lat="45.0715" lon="5.53237">
        <ele>1050.5</ele>
      </trkpt>
      <trkpt lat="45.07135" lon="5.53192">
        <ele>1060.4</ele>
      </trkpt>
      <trkpt lat="45.07128" lon="5.53179">
        <ele>1062.3</ele>
      </trkpt>
      <trkpt lat="45.0712" lon="5.53156">
        <ele>1065.7</ele>
      </trkpt>
      <trkpt lat="45.07109" lon="5.53131">
        <ele>1068.8</ele>
      </trkpt>
      <trkpt lat="45.07094" lon="5.53095">
        <ele>1072.9</ele>
      </trkpt>
      <trkpt lat="45.07089" lon="5.53084">
        <ele>1073.9</ele>
      </trkpt>
      <trkpt lat="45.07084" lon="5.53073">
        <ele>1075.3</ele>
      </trkpt>
      <trkpt lat="45.07084" lon="5.53067">
        <ele>1076.4</ele>
      </trkpt>
      <trkpt lat="45.07082" lon="5.53053">
        <ele>1079.2</ele>
      </trkpt>
      <trkpt lat="45.07079" lon="5.53042">
        <ele>1081.5</ele>
      </trkpt>
      <trkpt lat="45.07075" lon="5.53031">
        <ele>1083.7</ele>
      </trkpt>
      <trkpt lat="45.07073" lon="5.53017">
        <ele>1086.4</ele>
      </trkpt>
      <trkpt lat="45.07074" lon="5.52998">
        <ele>1090.2</ele>
      </trkpt>
      <trkpt lat="45.07075" lon="5.52985">
        <ele>1092.1</ele>
      </trkpt>
      <trkpt lat="45.07073" lon="5.52953">
        <ele>1096.7</ele>
      </trkpt>
      <trkpt lat="45.07074" lon="5.52929">
        <ele>1100.3</ele>
      </trkpt>
      <trkpt lat="45.07073" lon="5.52922">
        <ele>1101.4</ele>
      </trkpt>
      <trkpt lat="45.07071" lon="5.52914">
        <ele>1102.4</ele>
      </trkpt>
      <trkpt lat="45.07065" lon="5.52907">
        <ele>1103.1</ele>
      </trkpt>
      <trkpt lat="45.0706" lon="5.52903">
        <ele>1103.5</ele>
      </trkpt>
      <trkpt lat="45.07053" lon="5.529">
        <ele>1103.7</ele>
      </trkpt>
      <trkpt lat="45.07046" lon="5.52899">
        <ele>1103.8</ele>
      </trkpt>
      <trkpt lat="45.07021" lon="5.52902">
        <ele>1103.6</ele>
      </trkpt>
      <trkpt lat="45.06981" lon="5.52901">
        <ele>1103.3</ele>
      </trkpt>
      <trkpt lat="45.06957" lon="5.52898">
        <ele>1103.2</ele>
      </trkpt>
      <trkpt lat="45.06945" lon="5.52895">
        <ele>1103.4</ele>
      </trkpt>
      <trkpt lat="45.06921" lon="5.52878">
        <ele>1105.4</ele>
      </trkpt>
      <trkpt lat="45.06894" lon="5.52863">
        <ele>1109.1</ele>
      </trkpt>
      <trkpt lat="45.06889" lon="5.52858">
        <ele>1109.9</ele>
      </trkpt>
      <trkpt lat="45.06886" lon="5.52852">
        <ele>1110.7</ele>
      </trkpt>
      <trkpt lat="45.0688" lon="5.52809">
        <ele>1113.2</ele>
      </trkpt>
      <trkpt lat="45.06873" lon="5.52785">
        <ele>1113.6</ele>
      </trkpt>
      <trkpt lat="45.06863" lon="5.52761">
        <ele>1113.9</ele>
      </trkpt>
      <trkpt lat="45.06796" lon="5.52753">
        <ele>1117.1</ele>
      </trkpt>
      <trkpt lat="45.06747" lon="5.52751">
        <ele>1121.3</ele>
      </trkpt>
      <trkpt lat="45.06734" lon="5.52751">
        <ele>1122.7</ele>
      </trkpt>
      <trkpt lat="45.06703" lon="5.52757">
        <ele>1126</ele>
      </trkpt>
      <trkpt lat="45.06697" lon="5.52759">
        <ele>1126.8</ele>
      </trkpt>
      <trkpt lat="45.06681" lon="5.52764">
        <ele>1128.7</ele>
      </trkpt>
      <trkpt lat="45.06641" lon="5.52773">
        <ele>1132.8</ele>
      </trkpt>
      <trkpt lat="45.06607" lon="5.52756">
        <ele>1135.7</ele>
      </trkpt>
      <trkpt lat="45.06605" lon="5.52749">
        <ele>1135.8</ele>
      </trkpt>
      <trkpt lat="45.06595" lon="5.52726">
        <ele>1135.6</ele>
      </trkpt>
      <trkpt lat="45.0658" lon="5.52691">
        <ele>1135.6</ele>
      </trkpt>
      <trkpt lat="45.06567" lon="5.52664">
        <ele>1136.5</ele>
      </trkpt>
      <trkpt lat="45.06554" lon="5.52638">
        <ele>1137.5</ele>
      </trkpt>
      <trkpt lat="45.06529" lon="5.5259">
        <ele>1138.9</ele>
      </trkpt>
      <trkpt lat="45.06514" lon="5.52555">
        <ele>1140.4</ele>
      </trkpt>
      <trkpt lat="45.06502" lon="5.52506">
        <ele>1142.6</ele>
      </trkpt>
      <trkpt lat="45.06492" lon="5.52475">
        <ele>1142.8</ele>
      </trkpt>
      <trkpt lat="45.06478" lon="5.52454">
        <ele>1142.4</ele>
      </trkpt>
      <trkpt lat="45.06458" lon="5.5244">
        <ele>1141.6</ele>
      </trkpt>
      <trkpt lat="45.06439" lon="5.52437">
        <ele>1141.1</ele>
      </trkpt>
      <trkpt lat="45.06422" lon="5.52438">
        <ele>1140.9</ele>
      </trkpt>
      <trkpt lat="45.06406" lon="5.52443">
        <ele>1140.5</ele>
      </trkpt>
      <trkpt lat="45.06317" lon="5.52479">
        <ele>1138.6</ele>
      </trkpt>
      <trkpt lat="45.06312" lon="5.52481">
        <ele>1138.7</ele>
      </trkpt>
      <trkpt lat="45.06281" lon="5.52485">
        <ele>1138.5</ele>
      </trkpt>
      <trkpt lat="45.06266" lon="5.52483">
        <ele>1137.8</ele>
      </trkpt>
      <trkpt lat="45.0625" lon="5.52477">
        <ele>1136.8</ele>
      </trkpt>
      <trkpt lat="45.06229" lon="5.52464">
        <ele>1137.4</ele>
      </trkpt>
      <trkpt lat="45.06201" lon="5.52443">
        <ele>1137.1</ele>
      </trkpt>
      <trkpt lat="45.06179" lon="5.52428">
        <ele>1136.7</ele>
      </trkpt>
      <trkpt lat="45.06168" lon="5.52424">
        <ele>1137.2</ele>
      </trkpt>
      <trkpt lat="45.06121" lon="5.52417">
        <ele>1139.4</ele>
      </trkpt>
      <trkpt lat="45.06097" lon="5.52413">
        <ele>1140.7</ele>
      </trkpt>
      <trkpt lat="45.06081" lon="5.52403">
        <ele>1141.3</ele>
      </trkpt>
      <trkpt lat="45.06075" lon="5.52396">
        <ele>1141.3</ele>
      </trkpt>
      <trkpt lat="45.0607" lon="5.52385">
        <ele>1140.9</ele>
      </trkpt>
      <trkpt lat="45.06064" lon="5.52367">
        <ele>1140.2</ele>
      </trkpt>
      <trkpt lat="45.06063" lon="5.52361">
        <ele>1139.9</ele>
      </trkpt>
      <trkpt lat="45.06062" lon="5.52357">
        <ele>1139.7</ele>
      </trkpt>
      <trkpt lat="45.06058" lon="5.52336">
        <ele>1138.7</ele>
      </trkpt>
      <trkpt lat="45.06052" lon="5.52317">
        <ele>1137.9</ele>
      </trkpt>
      <trkpt lat="45.06047" lon="5.52311">
        <ele>1137.9</ele>
      </trkpt>
      <trkpt lat="45.06039" lon="5.52309">
        <ele>1138.2</ele>
      </trkpt>
      <trkpt lat="45.06028" lon="5.52306">
        <ele>1138.6</ele>
      </trkpt>
      <trkpt lat="45.06005" lon="5.52301">
        <ele>1139.5</ele>
      </trkpt>
      <trkpt lat="45.06" lon="5.52299">
        <ele>1139.5</ele>
      </trkpt>
      <trkpt lat="45.05998" lon="5.52292">
        <ele>1139</ele>
      </trkpt>
      <trkpt lat="45.05997" lon="5.52288">
        <ele>1138.7</ele>
      </trkpt>
      <trkpt lat="45.05998" lon="5.52284">
        <ele>1138.4</ele>
      </trkpt>
      <trkpt lat="45.06" lon="5.52276">
        <ele>1137.8</ele>
      </trkpt>
      <trkpt lat="45.06004" lon="5.52268">
        <ele>1137.2</ele>
      </trkpt>
      <trkpt lat="45.06012" lon="5.52267">
        <ele>1136.7</ele>
      </trkpt>
      <trkpt lat="45.05981" lon="5.52233">
        <ele>1134.8</ele>
      </trkpt>
      <trkpt lat="45.05952" lon="5.52209">
        <ele>1133</ele>
      </trkpt>
      <trkpt lat="45.05934" lon="5.52194">
        <ele>1131.9</ele>
      </trkpt>
      <trkpt lat="45.05874" lon="5.52164">
        <ele>1128.4</ele>
      </trkpt>
      <trkpt lat="45.0586" lon="5.52155">
        <ele>1127.8</ele>
      </trkpt>
      <trkpt lat="45.0585" lon="5.52148">
        <ele>1127.5</ele>
      </trkpt>
      <trkpt lat="45.05838" lon="5.52137">
        <ele>1127.1</ele>
      </trkpt>
      <trkpt lat="45.05834" lon="5.52124">
        <ele>1127</ele>
      </trkpt>
      <trkpt lat="45.05835" lon="5.52115">
        <ele>1127</ele>
      </trkpt>
      <trkpt lat="45.05835" lon="5.52109">
        <ele>1127</ele>
      </trkpt>
      <trkpt lat="45.05844" lon="5.52094">
        <ele>1127</ele>
      </trkpt>
      <trkpt lat="45.05867" lon="5.52081">
        <ele>1127</ele>
      </trkpt>
      <trkpt lat="45.05878" lon="5.52073">
        <ele>1127</ele>
      </trkpt>
      <trkpt lat="45.05886" lon="5.52065">
        <ele>1126.9</ele>
      </trkpt>
      <trkpt lat="45.05887" lon="5.52046">
        <ele>1126.8</ele>
      </trkpt>
      <trkpt lat="45.0589" lon="5.52034">
        <ele>1126.5</ele>
      </trkpt>
      <trkpt lat="45.05903" lon="5.5201">
        <ele>1125.3</ele>
      </trkpt>
      <trkpt lat="45.05907" lon="5.5199">
        <ele>1124.4</ele>
      </trkpt>
      <trkpt lat="45.05903" lon="5.51957">
        <ele>1123.5</ele>
      </trkpt>
      <trkpt lat="45.05919" lon="5.51919">
        <ele>1120.8</ele>
      </trkpt>
      <trkpt lat="45.05923" lon="5.51881">
        <ele>1117.4</ele>
      </trkpt>
      <trkpt lat="45.05928" lon="5.51859">
        <ele>1115.2</ele>
      </trkpt>
      <trkpt lat="45.0594" lon="5.51829">
        <ele>1112.4</ele>
      </trkpt>
      <trkpt lat="45.05939" lon="5.51768">
        <ele>1109</ele>
      </trkpt>
      <trkpt lat="45.05946" lon="5.51751">
        <ele>1107.6</ele>
      </trkpt>
      <trkpt lat="45.0595" lon="5.51739">
        <ele>1106.8</ele>
      </trkpt>
      <trkpt lat="45.05952" lon="5.51725">
        <ele>1105.9</ele>
      </trkpt>
      <trkpt lat="45.0593" lon="5.51639">
        <ele>1104.1</ele>
      </trkpt>
      <trkpt lat="45.05926" lon="5.51619">
        <ele>1104</ele>
      </trkpt>
      <trkpt lat="45.05923" lon="5.51583">
        <ele>1103.5</ele>
      </trkpt>
      <trkpt lat="45.05924" lon="5.51544">
        <ele>1104.5</ele>
      </trkpt>
      <trkpt lat="45.05912" lon="5.51499">
        <ele>1106.3</ele>
      </trkpt>
      <trkpt lat="45.0591" lon="5.5148">
        <ele>1107.4</ele>
      </trkpt>
      <trkpt lat="45.05909" lon="5.51453">
        <ele>1108.9</ele>
      </trkpt>
      <trkpt lat="45.05903" lon="5.51416">
        <ele>1110.9</ele>
      </trkpt>
      <trkpt lat="45.05892" lon="5.51393">
        <ele>1111.7</ele>
      </trkpt>
      <trkpt lat="45.0589" lon="5.51358">
        <ele>1113.2</ele>
      </trkpt>
      <trkpt lat="45.0589" lon="5.51346">
        <ele>1113.7</ele>
      </trkpt>
      <trkpt lat="45.05893" lon="5.51324">
        <ele>1114.7</ele>
      </trkpt>
      <trkpt lat="45.05899" lon="5.51303">
        <ele>1115.4</ele>
      </trkpt>
      <trkpt lat="45.0591" lon="5.51286">
        <ele>1115.3</ele>
      </trkpt>
      <trkpt lat="45.05923" lon="5.51273">
        <ele>1115.6</ele>
      </trkpt>
      <trkpt lat="45.05943" lon="5.51259">
        <ele>1117.2</ele>
      </trkpt>
      <trkpt lat="45.05961" lon="5.51231">
        <ele>1120.2</ele>
      </trkpt>
      <trkpt lat="45.05986" lon="5.5116">
        <ele>1126.2</ele>
      </trkpt>
      <trkpt lat="45.06009" lon="5.51117">
        <ele>1128.7</ele>
      </trkpt>
      <trkpt lat="45.0604" lon="5.51074">
        <ele>1131.9</ele>
      </trkpt>
      <trkpt lat="45.06058" lon="5.51016">
        <ele>1133.5</ele>
      </trkpt>
      <trkpt lat="45.06066" lon="5.50998">
        <ele>1133.2</ele>
      </trkpt>
      <trkpt lat="45.0608" lon="5.50985">
        <ele>1133.6</ele>
      </trkpt>
      <trkpt lat="45.06101" lon="5.50975">
        <ele>1135.5</ele>
      </trkpt>
      <trkpt lat="45.06134" lon="5.50935">
        <ele>1141.2</ele>
      </trkpt>
      <trkpt lat="45.06131" lon="5.50905">
        <ele>1144.7</ele>
      </trkpt>
      <trkpt lat="45.0613" lon="5.509">
        <ele>1145.3</ele>
      </trkpt>
      <trkpt lat="45.0613" lon="5.50875">
        <ele>1148.9</ele>
      </trkpt>
      <trkpt lat="45.06115" lon="5.50851">
        <ele>1152.8</ele>
      </trkpt>
      <trkpt lat="45.0611" lon="5.50845">
        <ele>1153.9</ele>
      </trkpt>
      <trkpt lat="45.06111" lon="5.50828">
        <ele>1157.1</ele>
      </trkpt>
      <trkpt lat="45.06118" lon="5.5081">
        <ele>1160.9</ele>
      </trkpt>
      <trkpt lat="45.0613" lon="5.50804">
        <ele>1161.7</ele>
      </trkpt>
      <trkpt lat="45.06143" lon="5.50793">
        <ele>1163.2</ele>
      </trkpt>
      <trkpt lat="45.06169" lon="5.5078">
        <ele>1164</ele>
      </trkpt>
      <trkpt lat="45.06195" lon="5.5077">
        <ele>1166.4</ele>
      </trkpt>
      <trkpt lat="45.06205" lon="5.50767">
        <ele>1167</ele>
      </trkpt>
      <trkpt lat="45.06206" lon="5.50758">
        <ele>1168.8</ele>
      </trkpt>
      <trkpt lat="45.06199" lon="5.50749">
        <ele>1170.6</ele>
      </trkpt>
      <trkpt lat="45.06167" lon="5.50734">
        <ele>1173.1</ele>
      </trkpt>
      <trkpt lat="45.06136" lon="5.50728">
        <ele>1178.8</ele>
      </trkpt>
      <trkpt lat="45.06123" lon="5.50701">
        <ele>1187.9</ele>
      </trkpt>
      <trkpt lat="45.06124" lon="5.5069">
        <ele>1190.2</ele>
      </trkpt>
      <trkpt lat="45.06131" lon="5.50671">
        <ele>1193.5</ele>
      </trkpt>
      <trkpt lat="45.06154" lon="5.5065">
        <ele>1190.8</ele>
      </trkpt>
      <trkpt lat="45.06165" lon="5.50622">
        <ele>1191.3</ele>
      </trkpt>
      <trkpt lat="45.06182" lon="5.50612">
        <ele>1190.9</ele>
      </trkpt>
      <trkpt lat="45.06198" lon="5.50602">
        <ele>1190.6</ele>
      </trkpt>
      <trkpt lat="45.06222" lon="5.5058">
        <ele>1190.2</ele>
      </trkpt>
      <trkpt lat="45.06264" lon="5.50549">
        <ele>1189.2</ele>
      </trkpt>
      <trkpt lat="45.06278" lon="5.50535">
        <ele>1188.3</ele>
      </trkpt>
      <trkpt lat="45.06347" lon="5.5047">
        <ele>1178.9</ele>
      </trkpt>
      <trkpt lat="45.06367" lon="5.50409">
        <ele>1176.8</ele>
      </trkpt>
      <trkpt lat="45.06379" lon="5.50378">
        <ele>1177.3</ele>
      </trkpt>
      <trkpt lat="45.06393" lon="5.50356">
        <ele>1175.7</ele>
      </trkpt>
      <trkpt lat="45.06405" lon="5.5034">
        <ele>1173.3</ele>
      </trkpt>
      <trkpt lat="45.06421" lon="5.5031">
        <ele>1173.2</ele>
      </trkpt>
      <trkpt lat="45.06438" lon="5.50284">
        <ele>1172.6</ele>
      </trkpt>
      <trkpt lat="45.06452" lon="5.50254">
        <ele>1172.6</ele>
      </trkpt>
      <trkpt lat="45.06462" lon="5.50219">
        <ele>1175.4</ele>
      </trkpt>
      <trkpt lat="45.06467" lon="5.50169">
        <ele>1183.2</ele>
      </trkpt>
      <trkpt lat="45.06473" lon="5.50151">
        <ele>1185.6</ele>
      </trkpt>
      <trkpt lat="45.06502" lon="5.50116">
        <ele>1186.1</ele>
      </trkpt>
      <trkpt lat="45.0657" lon="5.50067">
        <ele>1187.5</ele>
      </trkpt>
      <trkpt lat="45.06584" lon="5.50044">
        <ele>1190.8</ele>
      </trkpt>
      <trkpt lat="45.06607" lon="5.50017">
        <ele>1190.5</ele>
      </trkpt>
      <trkpt lat="45.06613" lon="5.50007">
        <ele>1191</ele>
      </trkpt>
      <trkpt lat="45.06622" lon="5.49998">
        <ele>1190</ele>
      </trkpt>
      <trkpt lat="45.06626" lon="5.49991">
        <ele>1189.4</ele>
      </trkpt>
      <trkpt lat="45.06629" lon="5.49983">
        <ele>1189.2</ele>
      </trkpt>
      <trkpt lat="45.06631" lon="5.49977">
        <ele>1189.4</ele>
      </trkpt>
      <trkpt lat="45.0663" lon="5.49972">
        <ele>1190.3</ele>
      </trkpt>
      <trkpt lat="45.06606" lon="5.49931">
        <ele>1201.7</ele>
      </trkpt>
      <trkpt lat="45.06599" lon="5.4991">
        <ele>1205.1</ele>
      </trkpt>
      <trkpt lat="45.06599" lon="5.49899">
        <ele>1205.2</ele>
      </trkpt>
      <trkpt lat="45.06601" lon="5.49887">
        <ele>1204.4</ele>
      </trkpt>
      <trkpt lat="45.06624" lon="5.49851">
        <ele>1196.9</ele>
      </trkpt>
      <trkpt lat="45.06627" lon="5.49836">
        <ele>1195.9</ele>
      </trkpt>
      <trkpt lat="45.06626" lon="5.49824">
        <ele>1196.1</ele>
      </trkpt>
      <trkpt lat="45.06613" lon="5.49781">
        <ele>1198.9</ele>
      </trkpt>
      <trkpt lat="45.06568" lon="5.49663">
        <ele>1193.4</ele>
      </trkpt>
      <trkpt lat="45.06536" lon="5.49647">
        <ele>1198.5</ele>
      </trkpt>
      <trkpt lat="45.06501" lon="5.49617">
        <ele>1198.1</ele>
      </trkpt>
      <trkpt lat="45.06478" lon="5.49583">
        <ele>1196.8</ele>
      </trkpt>
      <trkpt lat="45.06475" lon="5.49579">
        <ele>1196.4</ele>
      </trkpt>
      <trkpt lat="45.06452" lon="5.49529">
        <ele>1184</ele>
      </trkpt>
      <trkpt lat="45.06445" lon="5.49508">
        <ele>1177.3</ele>
      </trkpt>
      <trkpt lat="45.06433" lon="5.49497">
        <ele>1178.6</ele>
      </trkpt>
      <trkpt lat="45.06394" lon="5.49473">
        <ele>1189.6</ele>
      </trkpt>
      <trkpt lat="45.06376" lon="5.49461">
        <ele>1193.5</ele>
      </trkpt>
      <trkpt lat="45.06356" lon="5.49429">
        <ele>1191.3</ele>
      </trkpt>
      <trkpt lat="45.0635" lon="5.49404">
        <ele>1186.5</ele>
      </trkpt>
      <trkpt lat="45.06358" lon="5.49382">
        <ele>1178.1</ele>
      </trkpt>
      <trkpt lat="45.063" lon="5.49294">
        <ele>1189.5</ele>
      </trkpt>
      <trkpt lat="45.06293" lon="5.49281">
        <ele>1192.4</ele>
      </trkpt>
      <trkpt lat="45.06289" lon="5.49262">
        <ele>1194.1</ele>
      </trkpt>
      <trkpt lat="45.06289" lon="5.49255">
        <ele>1193.5</ele>
      </trkpt>
      <trkpt lat="45.0629" lon="5.49244">
        <ele>1193.9</ele>
      </trkpt>
      <trkpt lat="45.06291" lon="5.4924">
        <ele>1194.5</ele>
      </trkpt>
      <trkpt lat="45.06294" lon="5.49232">
        <ele>1193.8</ele>
      </trkpt>
      <trkpt lat="45.06366" lon="5.49098">
        <ele>1173.9</ele>
      </trkpt>
      <trkpt lat="45.06407" lon="5.48998">
        <ele>1170.7</ele>
      </trkpt>
      <trkpt lat="45.06424" lon="5.48906">
        <ele>1162.7</ele>
      </trkpt>
      <trkpt lat="45.06413" lon="5.48817">
        <ele>1155.4</ele>
      </trkpt>
      <trkpt lat="45.06404" lon="5.4877">
        <ele>1150.7</ele>
      </trkpt>
      <trkpt lat="45.06399" lon="5.48741">
        <ele>1148</ele>
      </trkpt>
      <trkpt lat="45.06334" lon="5.48574">
        <ele>1146.4</ele>
      </trkpt>
      <trkpt lat="45.06319" lon="5.4855">
        <ele>1150.9</ele>
      </trkpt>
      <trkpt lat="45.06276" lon="5.4844">
        <ele>1156.7</ele>
      </trkpt>
      <trkpt lat="45.06262" lon="5.48409">
        <ele>1158.3</ele>
      </trkpt>
      <trkpt lat="45.06246" lon="5.4838">
        <ele>1165.6</ele>
      </trkpt>
      <trkpt lat="45.06203" lon="5.48344">
        <ele>1174.5</ele>
      </trkpt>
      <trkpt lat="45.06193" lon="5.48336">
        <ele>1175.6</ele>
      </trkpt>
      <trkpt lat="45.06184" lon="5.4833">
        <ele>1176.9</ele>
      </trkpt>
      <trkpt lat="45.06172" lon="5.48322">
        <ele>1178.9</ele>
      </trkpt>
      <trkpt lat="45.06162" lon="5.48316">
        <ele>1180.8</ele>
      </trkpt>
      <trkpt lat="45.0612" lon="5.48287">
        <ele>1190.8</ele>
      </trkpt>
      <trkpt lat="45.06079" lon="5.48252">
        <ele>1198.3</ele>
      </trkpt>
      <trkpt lat="45.06028" lon="5.4824">
        <ele>1208.5</ele>
      </trkpt>
      <trkpt lat="45.05991" lon="5.48205">
        <ele>1219.5</ele>
      </trkpt>
      <trkpt lat="45.05943" lon="5.48165">
        <ele>1227.1</ele>
      </trkpt>
      <trkpt lat="45.0589" lon="5.48124">
        <ele>1238.9</ele>
      </trkpt>
      <trkpt lat="45.05838" lon="5.4807">
        <ele>1246.5</ele>
      </trkpt>
      <trkpt lat="45.0582" lon="5.48041">
        <ele>1251.9</ele>
      </trkpt>
      <trkpt lat="45.05799" lon="5.48003">
        <ele>1256.4</ele>
      </trkpt>
      <trkpt lat="45.05792" lon="5.47989">
        <ele>1258</ele>
      </trkpt>
      <trkpt lat="45.0578" lon="5.47964">
        <ele>1259.9</ele>
      </trkpt>
      <trkpt lat="45.05759" lon="5.4794">
        <ele>1259.2</ele>
      </trkpt>
      <trkpt lat="45.05735" lon="5.47924">
        <ele>1260</ele>
      </trkpt>
      <trkpt lat="45.05721" lon="5.47894">
        <ele>1261.8</ele>
      </trkpt>
      <trkpt lat="45.05717" lon="5.47877">
        <ele>1262.2</ele>
      </trkpt>
      <trkpt lat="45.05701" lon="5.47845">
        <ele>1262.5</ele>
      </trkpt>
      <trkpt lat="45.05696" lon="5.47838">
        <ele>1262.4</ele>
      </trkpt>
      <trkpt lat="45.0569" lon="5.47834">
        <ele>1262.3</ele>
      </trkpt>
      <trkpt lat="45.05679" lon="5.47814">
        <ele>1262.3</ele>
      </trkpt>
      <trkpt lat="45.05666" lon="5.47793">
        <ele>1262.1</ele>
      </trkpt>
      <trkpt lat="45.05619" lon="5.47737">
        <ele>1267</ele>
      </trkpt>
      <trkpt lat="45.05598" lon="5.47716">
        <ele>1268.2</ele>
      </trkpt>
      <trkpt lat="45.05578" lon="5.47696">
        <ele>1269.4</ele>
      </trkpt>
      <trkpt lat="45.05565" lon="5.47682">
        <ele>1270.9</ele>
      </trkpt>
      <trkpt lat="45.05557" lon="5.47669">
        <ele>1271.2</ele>
      </trkpt>
      <trkpt lat="45.05551" lon="5.47659">
        <ele>1272.3</ele>
      </trkpt>
      <trkpt lat="45.05547" lon="5.47655">
        <ele>1273.2</ele>
      </trkpt>
      <trkpt lat="45.05542" lon="5.47651">
        <ele>1274</ele>
      </trkpt>
      <trkpt lat="45.05535" lon="5.47649">
        <ele>1275.1</ele>
      </trkpt>
      <trkpt lat="45.05534" lon="5.47664">
        <ele>1274.8</ele>
      </trkpt>
      <trkpt lat="45.0553" lon="5.47679">
        <ele>1276.5</ele>
      </trkpt>
      <trkpt lat="45.05521" lon="5.47693">
        <ele>1279.4</ele>
      </trkpt>
      <trkpt lat="45.05507" lon="5.47702">
        <ele>1282.8</ele>
      </trkpt>
      <trkpt lat="45.055" lon="5.4771">
        <ele>1285.2</ele>
      </trkpt>
      <trkpt lat="45.05491" lon="5.4772">
        <ele>1287.8</ele>
      </trkpt>
      <trkpt lat="45.05482" lon="5.4773">
        <ele>1290.5</ele>
      </trkpt>
      <trkpt lat="45.05466" lon="5.47738">
        <ele>1294.2</ele>
      </trkpt>
      <trkpt lat="45.05456" lon="5.47742">
        <ele>1296.4</ele>
      </trkpt>
      <trkpt lat="45.05448" lon="5.47744">
        <ele>1298</ele>
      </trkpt>
      <trkpt lat="45.05433" lon="5.47731">
        <ele>1298.6</ele>
      </trkpt>
      <trkpt lat="45.0542" lon="5.47724">
        <ele>1299.8</ele>
      </trkpt>
      <trkpt lat="45.05408" lon="5.47719">
        <ele>1301.3</ele>
      </trkpt>
      <trkpt lat="45.05397" lon="5.47711">
        <ele>1302.2</ele>
      </trkpt>
      <trkpt lat="45.05377" lon="5.47705">
        <ele>1305.1</ele>
      </trkpt>
      <trkpt lat="45.05357" lon="5.47683">
        <ele>1305.4</ele>
      </trkpt>
      <trkpt lat="45.0533" lon="5.47658">
        <ele>1306.6</ele>
      </trkpt>
      <trkpt lat="45.05312" lon="5.47651">
        <ele>1309.3</ele>
      </trkpt>
      <trkpt lat="45.05297" lon="5.47648">
        <ele>1312</ele>
      </trkpt>
      <trkpt lat="45.05284" lon="5.47642">
        <ele>1313.7</ele>
      </trkpt>
      <trkpt lat="45.05267" lon="5.47631">
        <ele>1315.3</ele>
      </trkpt>
      <trkpt lat="45.05253" lon="5.47613">
        <ele>1315.2</ele>
      </trkpt>
      <trkpt lat="45.05243" lon="5.47608">
        <ele>1315.9</ele>
      </trkpt>
      <trkpt lat="45.05231" lon="5.476">
        <ele>1316.3</ele>
      </trkpt>
      <trkpt lat="45.05209" lon="5.47588">
        <ele>1318.1</ele>
      </trkpt>
      <trkpt lat="45.05189" lon="5.47592">
        <ele>1321.6</ele>
      </trkpt>
      <trkpt lat="45.0518" lon="5.4759">
        <ele>1322.8</ele>
      </trkpt>
      <trkpt lat="45.05165" lon="5.47583">
        <ele>1324.1</ele>
      </trkpt>
      <trkpt lat="45.05147" lon="5.47581">
        <ele>1325.9</ele>
      </trkpt>
      <trkpt lat="45.05128" lon="5.47589">
        <ele>1328.9</ele>
      </trkpt>
      <trkpt lat="45.05114" lon="5.4759">
        <ele>1330.5</ele>
      </trkpt>
      <trkpt lat="45.05102" lon="5.47588">
        <ele>1331.6</ele>
      </trkpt>
      <trkpt lat="45.05089" lon="5.47584">
        <ele>1332.5</ele>
      </trkpt>
      <trkpt lat="45.05083" lon="5.47581">
        <ele>1332.7</ele>
      </trkpt>
      <trkpt lat="45.05049" lon="5.476">
        <ele>1337.8</ele>
      </trkpt>
      <trkpt lat="45.04984" lon="5.47633">
        <ele>1346.3</ele>
      </trkpt>
      <trkpt lat="45.04942" lon="5.47654">
        <ele>1351.9</ele>
      </trkpt>
      <trkpt lat="45.04899" lon="5.47661">
        <ele>1356.3</ele>
      </trkpt>
      <trkpt lat="45.0479" lon="5.47674">
        <ele>1366.4</ele>
      </trkpt>
      <trkpt lat="45.04712" lon="5.4771">
        <ele>1374.5</ele>
      </trkpt>
      <trkpt lat="45.04586" lon="5.47682">
        <ele>1377.7</ele>
      </trkpt>
      <trkpt lat="45.04541" lon="5.47657">
        <ele>1373.9</ele>
      </trkpt>
      <trkpt lat="45.0454" lon="5.47657">
        <ele>1373.9</ele>
      </trkpt>
      <trkpt lat="45.04529" lon="5.47658">
        <ele>1373.4</ele>
      </trkpt>
      <trkpt lat="45.04528" lon="5.47688">
        <ele>1375.5</ele>
      </trkpt>
      <trkpt lat="45.04534" lon="5.47731">
        <ele>1380.5</ele>
      </trkpt>
      <trkpt lat="45.04594" lon="5.47813">
        <ele>1395.9</ele>
      </trkpt>
      <trkpt lat="45.04622" lon="5.47833">
        <ele>1397.2</ele>
      </trkpt>
      <trkpt lat="45.04594" lon="5.47813">
        <ele>1395.9</ele>
      </trkpt>
      <trkpt lat="45.04589" lon="5.47806">
        <ele>1395.1</ele>
      </trkpt>
      <trkpt lat="45.04594" lon="5.47813">
        <ele>1395.9</ele>
      </trkpt>
      <trkpt lat="45.04638" lon="5.47844">
        <ele>1398.7</ele>
      </trkpt>
      <trkpt lat="45.04806" lon="5.47903">
        <ele>1402.9</ele>
      </trkpt>
      <trkpt lat="45.04895" lon="5.47943">
        <ele>1412.1</ele>
      </trkpt>
      <trkpt lat="45.04949" lon="5.4797">
        <ele>1420.3</ele>
      </trkpt>
      <trkpt lat="45.05023" lon="5.47995">
        <ele>1426.8</ele>
      </trkpt>
      <trkpt lat="45.05072" lon="5.47993">
        <ele>1424.1</ele>
      </trkpt>
      <trkpt lat="45.05087" lon="5.47997">
        <ele>1424.4</ele>
      </trkpt>
      <trkpt lat="45.05094" lon="5.48">
        <ele>1425.1</ele>
      </trkpt>
      <trkpt lat="45.05097" lon="5.48007">
        <ele>1428.3</ele>
      </trkpt>
      <trkpt lat="45.05094" lon="5.48012">
        <ele>1431.1</ele>
      </trkpt>
      <trkpt lat="45.05089" lon="5.48014">
        <ele>1432.6</ele>
      </trkpt>
      <trkpt lat="45.05076" lon="5.48011">
        <ele>1432</ele>
      </trkpt>
      <trkpt lat="45.05055" lon="5.48011">
        <ele>1433.1</ele>
      </trkpt>
      <trkpt lat="45.05026" lon="5.48014">
        <ele>1436.9</ele>
      </trkpt>
      <trkpt lat="45.04983" lon="5.48011">
        <ele>1436.7</ele>
      </trkpt>
      <trkpt lat="45.04823" lon="5.48023">
        <ele>1449.5</ele>
      </trkpt>
      <trkpt lat="45.0468" lon="5.48042">
        <ele>1461.1</ele>
      </trkpt>
      <trkpt lat="45.04636" lon="5.48056">
        <ele>1467.5</ele>
      </trkpt>
      <trkpt lat="45.04557" lon="5.48072">
        <ele>1476.3</ele>
      </trkpt>
      <trkpt lat="45.045" lon="5.48088">
        <ele>1482.9</ele>
      </trkpt>
      <trkpt lat="45.04456" lon="5.48109">
        <ele>1484.6</ele>
      </trkpt>
      <trkpt lat="45.04408" lon="5.48129">
        <ele>1483.5</ele>
      </trkpt>
      <trkpt lat="45.04392" lon="5.48145">
        <ele>1485.9</ele>
      </trkpt>
      <trkpt lat="45.04385" lon="5.48168">
        <ele>1490.4</ele>
      </trkpt>
      <trkpt lat="45.04384" lon="5.48186">
        <ele>1491.2</ele>
      </trkpt>
      <trkpt lat="45.0439" lon="5.48224">
        <ele>1495.1</ele>
      </trkpt>
      <trkpt lat="45.04395" lon="5.48241">
        <ele>1498.3</ele>
      </trkpt>
      <trkpt lat="45.04438" lon="5.48302">
        <ele>1508</ele>
      </trkpt>
      <trkpt lat="45.04475" lon="5.4834">
        <ele>1515</ele>
      </trkpt>
      <trkpt lat="45.04486" lon="5.48351">
        <ele>1517.6</ele>
      </trkpt>
      <trkpt lat="45.04493" lon="5.48365">
        <ele>1518.8</ele>
      </trkpt>
      <trkpt lat="45.04496" lon="5.48368">
        <ele>1519.7</ele>
      </trkpt>
      <trkpt lat="45.04501" lon="5.48367">
        <ele>1521.1</ele>
      </trkpt>
      <trkpt lat="45.04502" lon="5.48359">
        <ele>1521.6</ele>
      </trkpt>
      <trkpt lat="45.04495" lon="5.48341">
        <ele>1521.2</ele>
      </trkpt>
      <trkpt lat="45.04483" lon="5.48309">
        <ele>1519.7</ele>
      </trkpt>
      <trkpt lat="45.04479" lon="5.48298">
        <ele>1519.5</ele>
      </trkpt>
      <trkpt lat="45.04481" lon="5.48292">
        <ele>1520.4</ele>
      </trkpt>
      <trkpt lat="45.04487" lon="5.4829">
        <ele>1522.2</ele>
      </trkpt>
      <trkpt lat="45.04496" lon="5.48295">
        <ele>1524.1</ele>
      </trkpt>
      <trkpt lat="45.04511" lon="5.48309">
        <ele>1525.4</ele>
      </trkpt>
      <trkpt lat="45.04528" lon="5.48318">
        <ele>1526.5</ele>
      </trkpt>
      <trkpt lat="45.04545" lon="5.48326">
        <ele>1527.3</ele>
      </trkpt>
      <trkpt lat="45.04563" lon="5.48317">
        <ele>1529.7</ele>
      </trkpt>
      <trkpt lat="45.04583" lon="5.48298">
        <ele>1533.3</ele>
      </trkpt>
      <trkpt lat="45.04603" lon="5.483">
        <ele>1535.6</ele>
      </trkpt>
      <trkpt lat="45.04633" lon="5.48291">
        <ele>1540.3</ele>
      </trkpt>
      <trkpt lat="45.04685" lon="5.48317">
        <ele>1541.3</ele>
      </trkpt>
      <trkpt lat="45.04709" lon="5.48313">
        <ele>1542.2</ele>
      </trkpt>
      <trkpt lat="45.04736" lon="5.48286">
        <ele>1546</ele>
      </trkpt>
      <trkpt lat="45.04757" lon="5.48269">
        <ele>1548.1</ele>
      </trkpt>
      <trkpt lat="45.04785" lon="5.48266">
        <ele>1547.3</ele>
      </trkpt>
      <trkpt lat="45.04845" lon="5.48269">
        <ele>1543.8</ele>
      </trkpt>
      <trkpt lat="45.0489" lon="5.48261">
        <ele>1540.8</ele>
      </trkpt>
      <trkpt lat="45.04913" lon="5.48254">
        <ele>1539.1</ele>
      </trkpt>
      <trkpt lat="45.04938" lon="5.48264">
        <ele>1538.3</ele>
      </trkpt>
      <trkpt lat="45.0496" lon="5.48295">
        <ele>1536.8</ele>
      </trkpt>
      <trkpt lat="45.04979" lon="5.48308">
        <ele>1536.2</ele>
      </trkpt>
      <trkpt lat="45.04989" lon="5.48324">
        <ele>1535.4</ele>
      </trkpt>
      <trkpt lat="45.05006" lon="5.48334">
        <ele>1534.4</ele>
      </trkpt>
      <trkpt lat="45.05028" lon="5.48342">
        <ele>1532.1</ele>
      </trkpt>
      <trkpt lat="45.0503" lon="5.48347">
        <ele>1531.7</ele>
      </trkpt>
      <trkpt lat="45.05032" lon="5.4835">
        <ele>1531.5</ele>
      </trkpt>
      <trkpt lat="45.05029" lon="5.48364">
        <ele>1531.4</ele>
      </trkpt>
      <trkpt lat="45.05028" lon="5.48375">
        <ele>1531.2</ele>
      </trkpt>
      <trkpt lat="45.05024" lon="5.48385">
        <ele>1531</ele>
      </trkpt>
      <trkpt lat="45.05014" lon="5.48391">
        <ele>1531.1</ele>
      </trkpt>
      <trkpt lat="45.05005" lon="5.48393">
        <ele>1531.3</ele>
      </trkpt>
      <trkpt lat="45.04996" lon="5.484">
        <ele>1531</ele>
      </trkpt>
      <trkpt lat="45.04978" lon="5.48417">
        <ele>1530</ele>
      </trkpt>
      <trkpt lat="45.04972" lon="5.48439">
        <ele>1527.7</ele>
      </trkpt>
      <trkpt lat="45.04966" lon="5.48465">
        <ele>1524.9</ele>
      </trkpt>
      <trkpt lat="45.04956" lon="5.48499">
        <ele>1521</ele>
      </trkpt>
      <trkpt lat="45.04948" lon="5.48521">
        <ele>1518.9</ele>
      </trkpt>
      <trkpt lat="45.04939" lon="5.48553">
        <ele>1515.4</ele>
      </trkpt>
      <trkpt lat="45.04934" lon="5.48579">
        <ele>1512.3</ele>
      </trkpt>
      <trkpt lat="45.04906" lon="5.48624">
        <ele>1513.2</ele>
      </trkpt>
      <trkpt lat="45.04893" lon="5.48655">
        <ele>1516.3</ele>
      </trkpt>
      <trkpt lat="45.04881" lon="5.48683">
        <ele>1519</ele>
      </trkpt>
      <trkpt lat="45.04877" lon="5.48694">
        <ele>1520</ele>
      </trkpt>
      <trkpt lat="45.04871" lon="5.48734">
        <ele>1523.3</ele>
      </trkpt>
      <trkpt lat="45.04856" lon="5.48788">
        <ele>1523.9</ele>
      </trkpt>
      <trkpt lat="45.04812" lon="5.48855">
        <ele>1520.7</ele>
      </trkpt>
      <trkpt lat="45.04787" lon="5.48881">
        <ele>1517.8</ele>
      </trkpt>
      <trkpt lat="45.04743" lon="5.48925">
        <ele>1510.3</ele>
      </trkpt>
      <trkpt lat="45.04716" lon="5.48954">
        <ele>1506.1</ele>
      </trkpt>
      <trkpt lat="45.04715" lon="5.48957">
        <ele>1505.6</ele>
      </trkpt>
      <trkpt lat="45.04697" lon="5.48983">
        <ele>1501</ele>
      </trkpt>
      <trkpt lat="45.04672" lon="5.49007">
        <ele>1494.7</ele>
      </trkpt>
      <trkpt lat="45.0466" lon="5.49035">
        <ele>1491.9</ele>
      </trkpt>
      <trkpt lat="45.0464" lon="5.49052">
        <ele>1488.4</ele>
      </trkpt>
      <trkpt lat="45.04617" lon="5.49055">
        <ele>1485</ele>
      </trkpt>
      <trkpt lat="45.04605" lon="5.49059">
        <ele>1483.1</ele>
      </trkpt>
      <trkpt lat="45.046" lon="5.49077">
        <ele>1481</ele>
      </trkpt>
      <trkpt lat="45.04602" lon="5.49092">
        <ele>1480.3</ele>
      </trkpt>
      <trkpt lat="45.04614" lon="5.49109">
        <ele>1480.9</ele>
      </trkpt>
      <trkpt lat="45.04629" lon="5.49126">
        <ele>1482</ele>
      </trkpt>
      <trkpt lat="45.04638" lon="5.49145">
        <ele>1482.4</ele>
      </trkpt>
      <trkpt lat="45.04645" lon="5.49174">
        <ele>1481.1</ele>
      </trkpt>
      <trkpt lat="45.04642" lon="5.49201">
        <ele>1477</ele>
      </trkpt>
      <trkpt lat="45.04632" lon="5.49229">
        <ele>1472.2</ele>
      </trkpt>
      <trkpt lat="45.04634" lon="5.49251">
        <ele>1469.8</ele>
      </trkpt>
      <trkpt lat="45.04645" lon="5.49264">
        <ele>1469.6</ele>
      </trkpt>
      <trkpt lat="45.04674" lon="5.49282">
        <ele>1469.5</ele>
      </trkpt>
      <trkpt lat="45.04679" lon="5.49292">
        <ele>1468.4</ele>
      </trkpt>
      <trkpt lat="45.04665" lon="5.49292">
        <ele>1468.3</ele>
      </trkpt>
      <trkpt lat="45.0464" lon="5.49294">
        <ele>1466.3</ele>
      </trkpt>
      <trkpt lat="45.04558" lon="5.49288">
        <ele>1459.2</ele>
      </trkpt>
      <trkpt lat="45.04536" lon="5.49283">
        <ele>1456.4</ele>
      </trkpt>
      <trkpt lat="45.04517" lon="5.4927">
        <ele>1454.5</ele>
      </trkpt>
      <trkpt lat="45.04502" lon="5.49254">
        <ele>1453.1</ele>
      </trkpt>
      <trkpt lat="45.0447" lon="5.49277">
        <ele>1449.4</ele>
      </trkpt>
      <trkpt lat="45.04465" lon="5.49279">
        <ele>1448.9</ele>
      </trkpt>
      <trkpt lat="45.04398" lon="5.49302">
        <ele>1442.4</ele>
      </trkpt>
      <trkpt lat="45.04369" lon="5.4932">
        <ele>1438.9</ele>
      </trkpt>
      <trkpt lat="45.0434" lon="5.49315">
        <ele>1436.9</ele>
      </trkpt>
      <trkpt lat="45.04292" lon="5.49334">
        <ele>1431.9</ele>
      </trkpt>
      <trkpt lat="45.04263" lon="5.49337">
        <ele>1429.4</ele>
      </trkpt>
      <trkpt lat="45.04231" lon="5.49335">
        <ele>1427.4</ele>
      </trkpt>
      <trkpt lat="45.04189" lon="5.49347">
        <ele>1422.8</ele>
      </trkpt>
      <trkpt lat="45.04149" lon="5.49355">
        <ele>1418.7</ele>
      </trkpt>
      <trkpt lat="45.0407" lon="5.4937">
        <ele>1409.6</ele>
      </trkpt>
      <trkpt lat="45.04033" lon="5.49378">
        <ele>1405</ele>
      </trkpt>
      <trkpt lat="45.03932" lon="5.49399">
        <ele>1394.4</ele>
      </trkpt>
      <trkpt lat="45.03841" lon="5.49391">
        <ele>1392.9</ele>
      </trkpt>
      <trkpt lat="45.03787" lon="5.49373">
        <ele>1394.5</ele>
      </trkpt>
      <trkpt lat="45.03707" lon="5.49373">
        <ele>1395.1</ele>
      </trkpt>
      <trkpt lat="45.03674" lon="5.49366">
        <ele>1396.9</ele>
      </trkpt>
      <trkpt lat="45.03662" lon="5.49363">
        <ele>1397.9</ele>
      </trkpt>
      <trkpt lat="45.03662" lon="5.49372">
        <ele>1395.8</ele>
      </trkpt>
      <trkpt lat="45.03664" lon="5.49379">
        <ele>1394.2</ele>
      </trkpt>
      <trkpt lat="45.03668" lon="5.49386">
        <ele>1392.6</ele>
      </trkpt>
      <trkpt lat="45.03673" lon="5.49393">
        <ele>1391.2</ele>
      </trkpt>
      <trkpt lat="45.03686" lon="5.49403">
        <ele>1389.3</ele>
      </trkpt>
      <trkpt lat="45.0371" lon="5.49417">
        <ele>1387.5</ele>
      </trkpt>
      <trkpt lat="45.0374" lon="5.49442">
        <ele>1380.8</ele>
      </trkpt>
      <trkpt lat="45.03753" lon="5.49448">
        <ele>1379.4</ele>
      </trkpt>
      <trkpt lat="45.03764" lon="5.49449">
        <ele>1379.6</ele>
      </trkpt>
      <trkpt lat="45.03775" lon="5.49444">
        <ele>1381.7</ele>
      </trkpt>
      <trkpt lat="45.0379" lon="5.49441">
        <ele>1383.1</ele>
      </trkpt>
      <trkpt lat="45.03803" lon="5.49446">
        <ele>1382.3</ele>
      </trkpt>
      <trkpt lat="45.03808" lon="5.4945">
        <ele>1381.3</ele>
      </trkpt>
      <trkpt lat="45.03812" lon="5.4946">
        <ele>1378.8</ele>
      </trkpt>
      <trkpt lat="45.03817" lon="5.49495">
        <ele>1370</ele>
      </trkpt>
      <trkpt lat="45.03822" lon="5.49516">
        <ele>1365.4</ele>
      </trkpt>
      <trkpt lat="45.03832" lon="5.49535">
        <ele>1361.6</ele>
      </trkpt>
      <trkpt lat="45.03842" lon="5.49543">
        <ele>1360.2</ele>
      </trkpt>
      <trkpt lat="45.03871" lon="5.49565">
        <ele>1356.7</ele>
      </trkpt>
      <trkpt lat="45.03916" lon="5.49602">
        <ele>1350.2</ele>
      </trkpt>
      <trkpt lat="45.0392" lon="5.4961">
        <ele>1348.4</ele>
      </trkpt>
      <trkpt lat="45.0393" lon="5.49617">
        <ele>1346.9</ele>
      </trkpt>
      <trkpt lat="45.03977" lon="5.49633">
        <ele>1343.4</ele>
      </trkpt>
      <trkpt lat="45.04008" lon="5.49639">
        <ele>1341.8</ele>
      </trkpt>
      <trkpt lat="45.04026" lon="5.49647">
        <ele>1339.2</ele>
      </trkpt>
      <trkpt lat="45.04048" lon="5.49663">
        <ele>1333.5</ele>
      </trkpt>
      <trkpt lat="45.04068" lon="5.4967">
        <ele>1331</ele>
      </trkpt>
      <trkpt lat="45.0414" lon="5.4969">
        <ele>1323.9</ele>
      </trkpt>
      <trkpt lat="45.04171" lon="5.49701">
        <ele>1320.2</ele>
      </trkpt>
      <trkpt lat="45.0424" lon="5.4974">
        <ele>1311.6</ele>
      </trkpt>
      <trkpt lat="45.04252" lon="5.49748">
        <ele>1309.5</ele>
      </trkpt>
      <trkpt lat="45.04257" lon="5.49759">
        <ele>1307.7</ele>
      </trkpt>
      <trkpt lat="45.04271" lon="5.49809">
        <ele>1299.9</ele>
      </trkpt>
      <trkpt lat="45.04285" lon="5.49847">
        <ele>1294.9</ele>
      </trkpt>
      <trkpt lat="45.04286" lon="5.49866">
        <ele>1293.5</ele>
      </trkpt>
      <trkpt lat="45.04275" lon="5.49891">
        <ele>1291.6</ele>
      </trkpt>
      <trkpt lat="45.04266" lon="5.49908">
        <ele>1290.5</ele>
      </trkpt>
      <trkpt lat="45.04265" lon="5.49912">
        <ele>1290.2</ele>
      </trkpt>
      <trkpt lat="45.04265" lon="5.49914">
        <ele>1290</ele>
      </trkpt>
      <trkpt lat="45.04264" lon="5.49921">
        <ele>1289.8</ele>
      </trkpt>
      <trkpt lat="45.04255" lon="5.49918">
        <ele>1289.9</ele>
      </trkpt>
      <trkpt lat="45.04242" lon="5.4991">
        <ele>1290.2</ele>
      </trkpt>
      <trkpt lat="45.04217" lon="5.49899">
        <ele>1290.2</ele>
      </trkpt>
      <trkpt lat="45.04143" lon="5.49863">
        <ele>1289.2</ele>
      </trkpt>
      <trkpt lat="45.04093" lon="5.49803">
        <ele>1294.5</ele>
      </trkpt>
      <trkpt lat="45.04074" lon="5.49783">
        <ele>1297.6</ele>
      </trkpt>
      <trkpt lat="45.04052" lon="5.49779">
        <ele>1297.3</ele>
      </trkpt>
      <trkpt lat="45.04" lon="5.49787">
        <ele>1292.9</ele>
      </trkpt>
      <trkpt lat="45.03911" lon="5.49812">
        <ele>1290.3</ele>
      </trkpt>
      <trkpt lat="45.03828" lon="5.49824">
        <ele>1287.9</ele>
      </trkpt>
      <trkpt lat="45.03732" lon="5.49834">
        <ele>1289.4</ele>
      </trkpt>
      <trkpt lat="45.03698" lon="5.49843">
        <ele>1290.3</ele>
      </trkpt>
      <trkpt lat="45.03644" lon="5.49846">
        <ele>1293.3</ele>
      </trkpt>
      <trkpt lat="45.03599" lon="5.49877">
        <ele>1298.2</ele>
      </trkpt>
      <trkpt lat="45.03562" lon="5.49909">
        <ele>1301.2</ele>
      </trkpt>
      <trkpt lat="45.03516" lon="5.49949">
        <ele>1306</ele>
      </trkpt>
      <trkpt lat="45.03486" lon="5.49978">
        <ele>1310.2</ele>
      </trkpt>
      <trkpt lat="45.03482" lon="5.4999">
        <ele>1311.3</ele>
      </trkpt>
      <trkpt lat="45.03475" lon="5.50002">
        <ele>1312.1</ele>
      </trkpt>
      <trkpt lat="45.03465" lon="5.50012">
        <ele>1312</ele>
      </trkpt>
      <trkpt lat="45.03453" lon="5.50021">
        <ele>1311.8</ele>
      </trkpt>
      <trkpt lat="45.03445" lon="5.50032">
        <ele>1311.1</ele>
      </trkpt>
      <trkpt lat="45.03439" lon="5.50048">
        <ele>1309.9</ele>
      </trkpt>
      <trkpt lat="45.03437" lon="5.5006">
        <ele>1308.8</ele>
      </trkpt>
      <trkpt lat="45.03422" lon="5.50129">
        <ele>1299.2</ele>
      </trkpt>
      <trkpt lat="45.03415" lon="5.50159">
        <ele>1294.1</ele>
      </trkpt>
      <trkpt lat="45.03412" lon="5.50198">
        <ele>1290</ele>
      </trkpt>
      <trkpt lat="45.03408" lon="5.5022">
        <ele>1287.7</ele>
      </trkpt>
      <trkpt lat="45.03402" lon="5.50252">
        <ele>1284.3</ele>
      </trkpt>
      <trkpt lat="45.03397" lon="5.50261">
        <ele>1283.4</ele>
      </trkpt>
      <trkpt lat="45.0339" lon="5.50263">
        <ele>1282.9</ele>
      </trkpt>
      <trkpt lat="45.03382" lon="5.50263">
        <ele>1282.6</ele>
      </trkpt>
      <trkpt lat="45.03372" lon="5.50265">
        <ele>1282</ele>
      </trkpt>
      <trkpt lat="45.03348" lon="5.50274">
        <ele>1280.2</ele>
      </trkpt>
      <trkpt lat="45.03322" lon="5.50291">
        <ele>1277.3</ele>
      </trkpt>
      <trkpt lat="45.03306" lon="5.50299">
        <ele>1275.2</ele>
      </trkpt>
      <trkpt lat="45.03298" lon="5.5031">
        <ele>1273.3</ele>
      </trkpt>
      <trkpt lat="45.03295" lon="5.5032">
        <ele>1271.8</ele>
      </trkpt>
      <trkpt lat="45.03295" lon="5.50333">
        <ele>1270.4</ele>
      </trkpt>
      <trkpt lat="45.03324" lon="5.5041">
        <ele>1262.9</ele>
      </trkpt>
      <trkpt lat="45.03329" lon="5.50427">
        <ele>1260.9</ele>
      </trkpt>
      <trkpt lat="45.0333" lon="5.5044">
        <ele>1259.1</ele>
      </trkpt>
      <trkpt lat="45.03328" lon="5.50445">
        <ele>1258.2</ele>
      </trkpt>
      <trkpt lat="45.03324" lon="5.50452">
        <ele>1256.8</ele>
      </trkpt>
      <trkpt lat="45.0332" lon="5.50454">
        <ele>1256.1</ele>
      </trkpt>
      <trkpt lat="45.03301" lon="5.50455">
        <ele>1254.5</ele>
      </trkpt>
      <trkpt lat="45.03291" lon="5.50457">
        <ele>1253.4</ele>
      </trkpt>
      <trkpt lat="45.03278" lon="5.50467">
        <ele>1251.2</ele>
      </trkpt>
      <trkpt lat="45.03246" lon="5.50475">
        <ele>1248</ele>
      </trkpt>
      <trkpt lat="45.03234" lon="5.50481">
        <ele>1246.2</ele>
      </trkpt>
      <trkpt lat="45.03225" lon="5.50492">
        <ele>1244.2</ele>
      </trkpt>
      <trkpt lat="45.03212" lon="5.50532">
        <ele>1239.7</ele>
      </trkpt>
      <trkpt lat="45.03204" lon="5.50543">
        <ele>1238.3</ele>
      </trkpt>
      <trkpt lat="45.03186" lon="5.50559">
        <ele>1236.2</ele>
      </trkpt>
      <trkpt lat="45.03167" lon="5.50575">
        <ele>1234.3</ele>
      </trkpt>
      <trkpt lat="45.03147" lon="5.50589">
        <ele>1232.2</ele>
      </trkpt>
      <trkpt lat="45.03144" lon="5.50592">
        <ele>1231.9</ele>
      </trkpt>
      <trkpt lat="45.03135" lon="5.50602">
        <ele>1230.9</ele>
      </trkpt>
      <trkpt lat="45.03125" lon="5.50615">
        <ele>1230</ele>
      </trkpt>
      <trkpt lat="45.03115" lon="5.50625">
        <ele>1229.1</ele>
      </trkpt>
      <trkpt lat="45.03097" lon="5.50639">
        <ele>1227.8</ele>
      </trkpt>
      <trkpt lat="45.03091" lon="5.50652">
        <ele>1227.4</ele>
      </trkpt>
      <trkpt lat="45.03083" lon="5.50677">
        <ele>1226.8</ele>
      </trkpt>
      <trkpt lat="45.03081" lon="5.50697">
        <ele>1226.4</ele>
      </trkpt>
      <trkpt lat="45.0308" lon="5.50725">
        <ele>1225.8</ele>
      </trkpt>
      <trkpt lat="45.03081" lon="5.50763">
        <ele>1224.1</ele>
      </trkpt>
      <trkpt lat="45.0308" lon="5.50781">
        <ele>1222.8</ele>
      </trkpt>
      <trkpt lat="45.03076" lon="5.50796">
        <ele>1221.8</ele>
      </trkpt>
      <trkpt lat="45.03055" lon="5.50826">
        <ele>1219.3</ele>
      </trkpt>
      <trkpt lat="45.03047" lon="5.50841">
        <ele>1218.5</ele>
      </trkpt>
      <trkpt lat="45.03036" lon="5.50869">
        <ele>1217.7</ele>
      </trkpt>
      <trkpt lat="45.03002" lon="5.50946">
        <ele>1214.2</ele>
      </trkpt>
      <trkpt lat="45.02989" lon="5.50972">
        <ele>1213.3</ele>
      </trkpt>
      <trkpt lat="45.02984" lon="5.50985">
        <ele>1213</ele>
      </trkpt>
      <trkpt lat="45.02979" lon="5.51005">
        <ele>1213</ele>
      </trkpt>
      <trkpt lat="45.02977" lon="5.51028">
        <ele>1213.8</ele>
      </trkpt>
      <trkpt lat="45.0297" lon="5.51056">
        <ele>1214.7</ele>
      </trkpt>
      <trkpt lat="45.02963" lon="5.51079">
        <ele>1215.2</ele>
      </trkpt>
      <trkpt lat="45.02956" lon="5.51099">
        <ele>1215</ele>
      </trkpt>
      <trkpt lat="45.02949" lon="5.51114">
        <ele>1214.5</ele>
      </trkpt>
      <trkpt lat="45.02941" lon="5.51123">
        <ele>1213.8</ele>
      </trkpt>
      <trkpt lat="45.02875" lon="5.51168">
        <ele>1209</ele>
      </trkpt>
      <trkpt lat="45.02864" lon="5.51174">
        <ele>1208.7</ele>
      </trkpt>
      <trkpt lat="45.02833" lon="5.51186">
        <ele>1207.4</ele>
      </trkpt>
      <trkpt lat="45.0282" lon="5.51193">
        <ele>1206.5</ele>
      </trkpt>
      <trkpt lat="45.02812" lon="5.51208">
        <ele>1206.2</ele>
      </trkpt>
      <trkpt lat="45.02801" lon="5.5125">
        <ele>1206.3</ele>
      </trkpt>
      <trkpt lat="45.02798" lon="5.51256">
        <ele>1206.2</ele>
      </trkpt>
      <trkpt lat="45.02791" lon="5.51276">
        <ele>1206</ele>
      </trkpt>
      <trkpt lat="45.02782" lon="5.51292">
        <ele>1205.7</ele>
      </trkpt>
      <trkpt lat="45.02763" lon="5.51332">
        <ele>1205.1</ele>
      </trkpt>
      <trkpt lat="45.02755" lon="5.51345">
        <ele>1204.3</ele>
      </trkpt>
      <trkpt lat="45.02731" lon="5.5137">
        <ele>1201.3</ele>
      </trkpt>
      <trkpt lat="45.02721" lon="5.51384">
        <ele>1199.9</ele>
      </trkpt>
      <trkpt lat="45.02711" lon="5.51407">
        <ele>1198.4</ele>
      </trkpt>
      <trkpt lat="45.02701" lon="5.51424">
        <ele>1197</ele>
      </trkpt>
      <trkpt lat="45.02684" lon="5.51452">
        <ele>1194.7</ele>
      </trkpt>
      <trkpt lat="45.02678" lon="5.5147">
        <ele>1194</ele>
      </trkpt>
      <trkpt lat="45.02669" lon="5.51489">
        <ele>1193.2</ele>
      </trkpt>
      <trkpt lat="45.0266" lon="5.51504">
        <ele>1192.3</ele>
      </trkpt>
      <trkpt lat="45.02653" lon="5.51511">
        <ele>1191.5</ele>
      </trkpt>
      <trkpt lat="45.02646" lon="5.51512">
        <ele>1190.9</ele>
      </trkpt>
      <trkpt lat="45.02633" lon="5.51511">
        <ele>1189.9</ele>
      </trkpt>
      <trkpt lat="45.02626" lon="5.51511">
        <ele>1189.2</ele>
      </trkpt>
      <trkpt lat="45.02558" lon="5.51534">
        <ele>1183.6</ele>
      </trkpt>
      <trkpt lat="45.02505" lon="5.51552">
        <ele>1179.3</ele>
      </trkpt>
      <trkpt lat="45.02474" lon="5.5156">
        <ele>1175.8</ele>
      </trkpt>
      <trkpt lat="45.02454" lon="5.51568">
        <ele>1173.4</ele>
      </trkpt>
      <trkpt lat="45.02445" lon="5.51572">
        <ele>1172.3</ele>
      </trkpt>
      <trkpt lat="45.02413" lon="5.51592">
        <ele>1167.9</ele>
      </trkpt>
      <trkpt lat="45.02407" lon="5.51594">
        <ele>1167.7</ele>
      </trkpt>
      <trkpt lat="45.02401" lon="5.51617">
        <ele>1165</ele>
      </trkpt>
      <trkpt lat="45.024" lon="5.51641">
        <ele>1162.3</ele>
      </trkpt>
      <trkpt lat="45.02401" lon="5.51651">
        <ele>1161.1</ele>
      </trkpt>
      <trkpt lat="45.02405" lon="5.51664">
        <ele>1159.6</ele>
      </trkpt>
      <trkpt lat="45.02405" lon="5.5167">
        <ele>1158.8</ele>
      </trkpt>
      <trkpt lat="45.02402" lon="5.51682">
        <ele>1157.1</ele>
      </trkpt>
      <trkpt lat="45.02406" lon="5.51686">
        <ele>1156.2</ele>
      </trkpt>
      <trkpt lat="45.02432" lon="5.51716">
        <ele>1151.5</ele>
      </trkpt>
      <trkpt lat="45.02445" lon="5.51729">
        <ele>1149.8</ele>
      </trkpt>
      <trkpt lat="45.0248" lon="5.51761">
        <ele>1146.7</ele>
      </trkpt>
      <trkpt lat="45.02515" lon="5.51791">
        <ele>1144.1</ele>
      </trkpt>
      <trkpt lat="45.02525" lon="5.51802">
        <ele>1142.8</ele>
      </trkpt>
      <trkpt lat="45.02524" lon="5.51805">
        <ele>1142.5</ele>
      </trkpt>
      <trkpt lat="45.02523" lon="5.51814">
        <ele>1141.5</ele>
      </trkpt>
      <trkpt lat="45.02527" lon="5.51856">
        <ele>1138.8</ele>
      </trkpt>
      <trkpt lat="45.02538" lon="5.51865">
        <ele>1137.4</ele>
      </trkpt>
      <trkpt lat="45.02558" lon="5.51887">
        <ele>1134.1</ele>
      </trkpt>
      <trkpt lat="45.0257" lon="5.51906">
        <ele>1131.1</ele>
      </trkpt>
      <trkpt lat="45.0261" lon="5.51986">
        <ele>1124.5</ele>
      </trkpt>
      <trkpt lat="45.02641" lon="5.5205">
        <ele>1121.6</ele>
      </trkpt>
      <trkpt lat="45.02653" lon="5.52064">
        <ele>1120</ele>
      </trkpt>
      <trkpt lat="45.02661" lon="5.52069">
        <ele>1118.9</ele>
      </trkpt>
      <trkpt lat="45.02667" lon="5.5207">
        <ele>1118</ele>
      </trkpt>
      <trkpt lat="45.02702" lon="5.5208">
        <ele>1117.1</ele>
      </trkpt>
      <trkpt lat="45.02723" lon="5.52094">
        <ele>1116.9</ele>
      </trkpt>
      <trkpt lat="45.02748" lon="5.52128">
        <ele>1116.6</ele>
      </trkpt>
      <trkpt lat="45.0275" lon="5.52132">
        <ele>1116.6</ele>
      </trkpt>
      <trkpt lat="45.02752" lon="5.52134">
        <ele>1116.5</ele>
      </trkpt>
      <trkpt lat="45.02769" lon="5.52153">
        <ele>1115.6</ele>
      </trkpt>
      <trkpt lat="45.02796" lon="5.52185">
        <ele>1114</ele>
      </trkpt>
      <trkpt lat="45.02811" lon="5.52208">
        <ele>1113.4</ele>
      </trkpt>
      <trkpt lat="45.02851" lon="5.52277">
        <ele>1113.3</ele>
      </trkpt>
      <trkpt lat="45.02857" lon="5.5229">
        <ele>1113.5</ele>
      </trkpt>
      <trkpt lat="45.02898" lon="5.52374">
        <ele>1112.6</ele>
      </trkpt>
      <trkpt lat="45.02905" lon="5.52388">
        <ele>1112.3</ele>
      </trkpt>
      <trkpt lat="45.0292" lon="5.52419">
        <ele>1111.8</ele>
      </trkpt>
      <trkpt lat="45.02931" lon="5.5244">
        <ele>1111.2</ele>
      </trkpt>
      <trkpt lat="45.02949" lon="5.52472">
        <ele>1109.9</ele>
      </trkpt>
      <trkpt lat="45.02969" lon="5.52506">
        <ele>1108.4</ele>
      </trkpt>
      <trkpt lat="45.02998" lon="5.52553">
        <ele>1107.1</ele>
      </trkpt>
      <trkpt lat="45.0302" lon="5.52586">
        <ele>1107.4</ele>
      </trkpt>
      <trkpt lat="45.03036" lon="5.52602">
        <ele>1107.5</ele>
      </trkpt>
      <trkpt lat="45.03064" lon="5.52625">
        <ele>1107.3</ele>
      </trkpt>
      <trkpt lat="45.03118" lon="5.5266">
        <ele>1105.7</ele>
      </trkpt>
      <trkpt lat="45.03131" lon="5.52668">
        <ele>1105.4</ele>
      </trkpt>
      <trkpt lat="45.03139" lon="5.52674">
        <ele>1105.3</ele>
      </trkpt>
      <trkpt lat="45.03148" lon="5.52682">
        <ele>1105.2</ele>
      </trkpt>
      <trkpt lat="45.03157" lon="5.52692">
        <ele>1105.2</ele>
      </trkpt>
      <trkpt lat="45.03164" lon="5.52703">
        <ele>1105.4</ele>
      </trkpt>
      <trkpt lat="45.03165" lon="5.52704">
        <ele>1105.4</ele>
      </trkpt>
      <trkpt lat="45.03179" lon="5.52718">
        <ele>1105</ele>
      </trkpt>
      <trkpt lat="45.03185" lon="5.52723">
        <ele>1104.7</ele>
      </trkpt>
      <trkpt lat="45.03189" lon="5.52727">
        <ele>1104.6</ele>
      </trkpt>
      <trkpt lat="45.03201" lon="5.52733">
        <ele>1104.1</ele>
      </trkpt>
      <trkpt lat="45.03212" lon="5.52736">
        <ele>1103.5</ele>
      </trkpt>
      <trkpt lat="45.03229" lon="5.5274">
        <ele>1102.8</ele>
      </trkpt>
      <trkpt lat="45.03254" lon="5.52741">
        <ele>1101.7</ele>
      </trkpt>
      <trkpt lat="45.03261" lon="5.52742">
        <ele>1101.4</ele>
      </trkpt>
      <trkpt lat="45.03272" lon="5.52743">
        <ele>1101.1</ele>
      </trkpt>
      <trkpt lat="45.03281" lon="5.52748">
        <ele>1100.9</ele>
      </trkpt>
      <trkpt lat="45.03288" lon="5.52754">
        <ele>1100.6</ele>
      </trkpt>
      <trkpt lat="45.03297" lon="5.52766">
        <ele>1100.3</ele>
      </trkpt>
      <trkpt lat="45.03304" lon="5.5278">
        <ele>1099.9</ele>
      </trkpt>
      <trkpt lat="45.03307" lon="5.52777">
        <ele>1099.8</ele>
      </trkpt>
      <trkpt lat="45.03312" lon="5.52773">
        <ele>1099.6</ele>
      </trkpt>
      <trkpt lat="45.03307" lon="5.52777">
        <ele>1099.8</ele>
      </trkpt>
      <trkpt lat="45.03304" lon="5.5278">
        <ele>1099.9</ele>
      </trkpt>
      <trkpt lat="45.03308" lon="5.52789">
        <ele>1099.7</ele>
      </trkpt>
      <trkpt lat="45.03311" lon="5.528">
        <ele>1099.5</ele>
      </trkpt>
      <trkpt lat="45.03315" lon="5.52826">
        <ele>1099.1</ele>
      </trkpt>
      <trkpt lat="45.03321" lon="5.52881">
        <ele>1096.9</ele>
      </trkpt>
      <trkpt lat="45.03325" lon="5.52911">
        <ele>1095.6</ele>
      </trkpt>
      <trkpt lat="45.03327" lon="5.52944">
        <ele>1095.3</ele>
      </trkpt>
      <trkpt lat="45.03328" lon="5.5297">
        <ele>1095.2</ele>
      </trkpt>
      <trkpt lat="45.03325" lon="5.53023">
        <ele>1094.8</ele>
      </trkpt>
      <trkpt lat="45.03325" lon="5.53046">
        <ele>1094.3</ele>
      </trkpt>
      <trkpt lat="45.03335" lon="5.5312">
        <ele>1094.3</ele>
      </trkpt>
      <trkpt lat="45.0334" lon="5.53146">
        <ele>1095.1</ele>
      </trkpt>
      <trkpt lat="45.03344" lon="5.53169">
        <ele>1095.8</ele>
      </trkpt>
      <trkpt lat="45.03351" lon="5.53193">
        <ele>1096.9</ele>
      </trkpt>
      <trkpt lat="45.03357" lon="5.53212">
        <ele>1097.5</ele>
      </trkpt>
      <trkpt lat="45.03367" lon="5.53232">
        <ele>1097.6</ele>
      </trkpt>
      <trkpt lat="45.03378" lon="5.53253">
        <ele>1097.5</ele>
      </trkpt>
      <trkpt lat="45.0339" lon="5.53274">
        <ele>1097.5</ele>
      </trkpt>
      <trkpt lat="45.03405" lon="5.53292">
        <ele>1096.5</ele>
      </trkpt>
      <trkpt lat="45.03415" lon="5.533">
        <ele>1095.1</ele>
      </trkpt>
      <trkpt lat="45.03445" lon="5.53323">
        <ele>1094.1</ele>
      </trkpt>
      <trkpt lat="45.03461" lon="5.53334">
        <ele>1093.4</ele>
      </trkpt>
      <trkpt lat="45.03483" lon="5.53349">
        <ele>1095.1</ele>
      </trkpt>
      <trkpt lat="45.03505" lon="5.53356">
        <ele>1094.9</ele>
      </trkpt>
      <trkpt lat="45.0358" lon="5.53373">
        <ele>1095.9</ele>
      </trkpt>
      <trkpt lat="45.036" lon="5.53389">
        <ele>1097.4</ele>
      </trkpt>
      <trkpt lat="45.03603" lon="5.53415">
        <ele>1099</ele>
      </trkpt>
      <trkpt lat="45.0359" lon="5.53439">
        <ele>1103.9</ele>
      </trkpt>
      <trkpt lat="45.03521" lon="5.53524">
        <ele>1124.7</ele>
      </trkpt>
      <trkpt lat="45.03513" lon="5.53586">
        <ele>1134</ele>
      </trkpt>
      <trkpt lat="45.0355" lon="5.53653">
        <ele>1140.8</ele>
      </trkpt>
      <trkpt lat="45.0359" lon="5.53799">
        <ele>1162.8</ele>
      </trkpt>
      <trkpt lat="45.03518" lon="5.53807">
        <ele>1175.3</ele>
      </trkpt>
      <trkpt lat="45.03484" lon="5.53795">
        <ele>1179.6</ele>
      </trkpt>
      <trkpt lat="45.03417" lon="5.53857">
        <ele>1201.1</ele>
      </trkpt>
      <trkpt lat="45.03409" lon="5.5389">
        <ele>1203.6</ele>
      </trkpt>
      <trkpt lat="45.03354" lon="5.53922">
        <ele>1209.9</ele>
      </trkpt>
      <trkpt lat="45.03327" lon="5.5395">
        <ele>1211.5</ele>
      </trkpt>
      <trkpt lat="45.03343" lon="5.53996">
        <ele>1208.9</ele>
      </trkpt>
      <trkpt lat="45.03337" lon="5.54044">
        <ele>1208.8</ele>
      </trkpt>
      <trkpt lat="45.03366" lon="5.54062">
        <ele>1206.2</ele>
      </trkpt>
      <trkpt lat="45.0337" lon="5.54096">
        <ele>1205.6</ele>
      </trkpt>
      <trkpt lat="45.03369" lon="5.54151">
        <ele>1208.1</ele>
      </trkpt>
      <trkpt lat="45.03402" lon="5.5427">
        <ele>1211.4</ele>
      </trkpt>
      <trkpt lat="45.03455" lon="5.54284">
        <ele>1207.2</ele>
      </trkpt>
      <trkpt lat="45.03488" lon="5.54324">
        <ele>1208.3</ele>
      </trkpt>
      <trkpt lat="45.03505" lon="5.54369">
        <ele>1211.5</ele>
      </trkpt>
      <trkpt lat="45.03439" lon="5.54377">
        <ele>1216.5</ele>
      </trkpt>
      <trkpt lat="45.03383" lon="5.54351">
        <ele>1220.4</ele>
      </trkpt>
      <trkpt lat="45.03221" lon="5.54372">
        <ele>1244.3</ele>
      </trkpt>
      <trkpt lat="45.03159" lon="5.54526">
        <ele>1256.6</ele>
      </trkpt>
      <trkpt lat="45.03117" lon="5.54578">
        <ele>1262.4</ele>
      </trkpt>
      <trkpt lat="45.03076" lon="5.54597">
        <ele>1264.1</ele>
      </trkpt>
      <trkpt lat="45.03038" lon="5.5467">
        <ele>1267.2</ele>
      </trkpt>
      <trkpt lat="45.03012" lon="5.54685">
        <ele>1269.1</ele>
      </trkpt>
      <trkpt lat="45.03051" lon="5.54746">
        <ele>1257.2</ele>
      </trkpt>
      <trkpt lat="45.0317" lon="5.5497">
        <ele>1241</ele>
      </trkpt>
      <trkpt lat="45.03225" lon="5.55163">
        <ele>1267</ele>
      </trkpt>
      <trkpt lat="45.03251" lon="5.5518">
        <ele>1265.6</ele>
      </trkpt>
      <trkpt lat="45.03301" lon="5.55335">
        <ele>1268.8</ele>
      </trkpt>
      <trkpt lat="45.03366" lon="5.55405">
        <ele>1267.4</ele>
      </trkpt>
      <trkpt lat="45.03401" lon="5.55498">
        <ele>1267.5</ele>
      </trkpt>
      <trkpt lat="45.03417" lon="5.55559">
        <ele>1268.1</ele>
      </trkpt>
      <trkpt lat="45.03477" lon="5.55661">
        <ele>1272.5</ele>
      </trkpt>
      <trkpt lat="45.03521" lon="5.55591">
        <ele>1269.9</ele>
      </trkpt>
      <trkpt lat="45.03593" lon="5.5563">
        <ele>1274.8</ele>
      </trkpt>
      <trkpt lat="45.03622" lon="5.55599">
        <ele>1274.7</ele>
      </trkpt>
      <trkpt lat="45.03662" lon="5.55637">
        <ele>1278.7</ele>
      </trkpt>
      <trkpt lat="45.0371" lon="5.55627">
        <ele>1275.7</ele>
      </trkpt>
      <trkpt lat="45.0375" lon="5.55657">
        <ele>1274.5</ele>
      </trkpt>
      <trkpt lat="45.03737" lon="5.55706">
        <ele>1278.2</ele>
      </trkpt>
      <trkpt lat="45.03729" lon="5.55739">
        <ele>1281</ele>
      </trkpt>
      <trkpt lat="45.03709" lon="5.55766">
        <ele>1285.6</ele>
      </trkpt>
      <trkpt lat="45.03667" lon="5.55778">
        <ele>1289.7</ele>
      </trkpt>
      <trkpt lat="45.03668" lon="5.55806">
        <ele>1292.3</ele>
      </trkpt>
      <trkpt lat="45.03649" lon="5.55805">
        <ele>1291.8</ele>
      </trkpt>
      <trkpt lat="45.03652" lon="5.55831">
        <ele>1294.6</ele>
      </trkpt>
      <trkpt lat="45.03632" lon="5.55834">
        <ele>1294.7</ele>
      </trkpt>
      <trkpt lat="45.03623" lon="5.55878">
        <ele>1301.7</ele>
      </trkpt>
      <trkpt lat="45.03601" lon="5.55897">
        <ele>1303.9</ele>
      </trkpt>
      <trkpt lat="45.03599" lon="5.55928">
        <ele>1309.3</ele>
      </trkpt>
      <trkpt lat="45.03583" lon="5.55928">
        <ele>1308.6</ele>
      </trkpt>
      <trkpt lat="45.03577" lon="5.55956">
        <ele>1315.2</ele>
      </trkpt>
      <trkpt lat="45.03589" lon="5.55971">
        <ele>1319.1</ele>
      </trkpt>
      <trkpt lat="45.0359" lon="5.55984">
        <ele>1322.4</ele>
      </trkpt>
      <trkpt lat="45.03596" lon="5.55992">
        <ele>1324.4</ele>
      </trkpt>
      <trkpt lat="45.03606" lon="5.56004">
        <ele>1327.6</ele>
      </trkpt>
      <trkpt lat="45.0362" lon="5.56008">
        <ele>1328.9</ele>
      </trkpt>
      <trkpt lat="45.03652" lon="5.56">
        <ele>1327.6</ele>
      </trkpt>
      <trkpt lat="45.03675" lon="5.55996">
        <ele>1327.9</ele>
      </trkpt>
      <trkpt lat="45.03722" lon="5.55996">
        <ele>1333</ele>
      </trkpt>
      <trkpt lat="45.03688" lon="5.56044">
        <ele>1341.6</ele>
      </trkpt>
      <trkpt lat="45.03676" lon="5.56063">
        <ele>1345.6</ele>
      </trkpt>
      <trkpt lat="45.03671" lon="5.56071">
        <ele>1347.1</ele>
      </trkpt>
      <trkpt lat="45.03668" lon="5.5608">
        <ele>1349.1</ele>
      </trkpt>
      <trkpt lat="45.03668" lon="5.56086">
        <ele>1350.8</ele>
      </trkpt>
      <trkpt lat="45.03672" lon="5.56087">
        <ele>1351.5</ele>
      </trkpt>
      <trkpt lat="45.03681" lon="5.56086">
        <ele>1351.8</ele>
      </trkpt>
      <trkpt lat="45.03702" lon="5.56078">
        <ele>1351.6</ele>
      </trkpt>
      <trkpt lat="45.03719" lon="5.56077">
        <ele>1352.8</ele>
      </trkpt>
      <trkpt lat="45.03748" lon="5.56081">
        <ele>1356.2</ele>
      </trkpt>
      <trkpt lat="45.03761" lon="5.56087">
        <ele>1357.3</ele>
      </trkpt>
      <trkpt lat="45.03766" lon="5.56092">
        <ele>1358.2</ele>
      </trkpt>
      <trkpt lat="45.03766" lon="5.56099">
        <ele>1360.1</ele>
      </trkpt>
      <trkpt lat="45.03745" lon="5.56114">
        <ele>1364</ele>
      </trkpt>
      <trkpt lat="45.03726" lon="5.56132">
        <ele>1367.2</ele>
      </trkpt>
      <trkpt lat="45.03715" lon="5.56154">
        <ele>1372</ele>
      </trkpt>
      <trkpt lat="45.03715" lon="5.56167">
        <ele>1375.5</ele>
      </trkpt>
      <trkpt lat="45.0372" lon="5.56171">
        <ele>1376.8</ele>
      </trkpt>
      <trkpt lat="45.03746" lon="5.56171">
        <ele>1378.2</ele>
      </trkpt>
      <trkpt lat="45.03766" lon="5.56178">
        <ele>1379.7</ele>
      </trkpt>
      <trkpt lat="45.03807" lon="5.5619">
        <ele>1381</ele>
      </trkpt>
      <trkpt lat="45.03818" lon="5.56198">
        <ele>1382.5</ele>
      </trkpt>
      <trkpt lat="45.03846" lon="5.5623">
        <ele>1387.1</ele>
      </trkpt>
      <trkpt lat="45.03859" lon="5.56257">
        <ele>1390.8</ele>
      </trkpt>
      <trkpt lat="45.03862" lon="5.56281">
        <ele>1396</ele>
      </trkpt>
      <trkpt lat="45.03864" lon="5.56323">
        <ele>1405.6</ele>
      </trkpt>
      <trkpt lat="45.03883" lon="5.56395">
        <ele>1417.5</ele>
      </trkpt>
      <trkpt lat="45.03884" lon="5.56403">
        <ele>1419.3</ele>
      </trkpt>
      <trkpt lat="45.03887" lon="5.56433">
        <ele>1424.7</ele>
      </trkpt>
      <trkpt lat="45.03883" lon="5.56481">
        <ele>1434.6</ele>
      </trkpt>
      <trkpt lat="45.03877" lon="5.56516">
        <ele>1442</ele>
      </trkpt>
      <trkpt lat="45.03871" lon="5.56522">
        <ele>1444</ele>
      </trkpt>
      <trkpt lat="45.03874" lon="5.56532">
        <ele>1445.4</ele>
      </trkpt>
      <trkpt lat="45.03873" lon="5.56536">
        <ele>1446.2</ele>
      </trkpt>
      <trkpt lat="45.0387" lon="5.56553">
        <ele>1450</ele>
      </trkpt>
      <trkpt lat="45.03863" lon="5.56559">
        <ele>1452.2</ele>
      </trkpt>
      <trkpt lat="45.03869" lon="5.5658">
        <ele>1455</ele>
      </trkpt>
      <trkpt lat="45.03867" lon="5.56585">
        <ele>1456.3</ele>
      </trkpt>
      <trkpt lat="45.03861" lon="5.56587">
        <ele>1457.8</ele>
      </trkpt>
      <trkpt lat="45.03859" lon="5.56592">
        <ele>1459.2</ele>
      </trkpt>
      <trkpt lat="45.03876" lon="5.56644">
        <ele>1466.7</ele>
      </trkpt>
      <trkpt lat="45.03875" lon="5.56651">
        <ele>1468.4</ele>
      </trkpt>
      <trkpt lat="45.0387" lon="5.56666">
        <ele>1472.4</ele>
      </trkpt>
      <trkpt lat="45.03862" lon="5.56666">
        <ele>1473.7</ele>
      </trkpt>
      <trkpt lat="45.0384" lon="5.56657">
        <ele>1475.9</ele>
      </trkpt>
      <trkpt lat="45.03819" lon="5.56645">
        <ele>1477.2</ele>
      </trkpt>
      <trkpt lat="45.038" lon="5.56638">
        <ele>1479.3</ele>
      </trkpt>
      <trkpt lat="45.03787" lon="5.5664">
        <ele>1481.9</ele>
      </trkpt>
      <trkpt lat="45.03778" lon="5.56642">
        <ele>1483.8</ele>
      </trkpt>
      <trkpt lat="45.03777" lon="5.56647">
        <ele>1485.1</ele>
      </trkpt>
      <trkpt lat="45.03786" lon="5.56656">
        <ele>1485</ele>
      </trkpt>
      <trkpt lat="45.03788" lon="5.56662">
        <ele>1485.7</ele>
      </trkpt>
      <trkpt lat="45.03786" lon="5.56664">
        <ele>1486.5</ele>
      </trkpt>
      <trkpt lat="45.03779" lon="5.56665">
        <ele>1487.8</ele>
      </trkpt>
      <trkpt lat="45.0376" lon="5.56678">
        <ele>1493.6</ele>
      </trkpt>
      <trkpt lat="45.03755" lon="5.5668">
        <ele>1495</ele>
      </trkpt>
      <trkpt lat="45.03773" lon="5.5673">
        <ele>1502.2</ele>
      </trkpt>
      <trkpt lat="45.03772" lon="5.56732">
        <ele>1502.9</ele>
      </trkpt>
      <trkpt lat="45.03754" lon="5.56732">
        <ele>1506.2</ele>
      </trkpt>
      <trkpt lat="45.03749" lon="5.56734">
        <ele>1507.6</ele>
      </trkpt>
      <trkpt lat="45.0375" lon="5.5674">
        <ele>1508.7</ele>
      </trkpt>
      <trkpt lat="45.03756" lon="5.56756">
        <ele>1510.7</ele>
      </trkpt>
      <trkpt lat="45.03759" lon="5.56779">
        <ele>1513.7</ele>
      </trkpt>
      <trkpt lat="45.03756" lon="5.56783">
        <ele>1514.9</ele>
      </trkpt>
      <trkpt lat="45.03737" lon="5.56791">
        <ele>1518.8</ele>
      </trkpt>
      <trkpt lat="45.03749" lon="5.56799">
        <ele>1518.7</ele>
      </trkpt>
      <trkpt lat="45.03756" lon="5.56803">
        <ele>1518.2</ele>
      </trkpt>
      <trkpt lat="45.0376" lon="5.56809">
        <ele>1518.2</ele>
      </trkpt>
      <trkpt lat="45.03763" lon="5.56817">
        <ele>1518.9</ele>
      </trkpt>
      <trkpt lat="45.03773" lon="5.56879">
        <ele>1524.8</ele>
      </trkpt>
      <trkpt lat="45.0378" lon="5.56912">
        <ele>1527.4</ele>
      </trkpt>
      <trkpt lat="45.03787" lon="5.56914">
        <ele>1526.5</ele>
      </trkpt>
      <trkpt lat="45.03806" lon="5.5693">
        <ele>1524.5</ele>
      </trkpt>
      <trkpt lat="45.03832" lon="5.56962">
        <ele>1522.4</ele>
      </trkpt>
      <trkpt lat="45.03842" lon="5.56991">
        <ele>1523.1</ele>
      </trkpt>
      <trkpt lat="45.03841" lon="5.57026">
        <ele>1524.3</ele>
      </trkpt>
      <trkpt lat="45.03831" lon="5.57128">
        <ele>1523.6</ele>
      </trkpt>
      <trkpt lat="45.0384" lon="5.57152">
        <ele>1521.6</ele>
      </trkpt>
      <trkpt lat="45.03859" lon="5.57165">
        <ele>1520.1</ele>
      </trkpt>
      <trkpt lat="45.03902" lon="5.57202">
        <ele>1520.2</ele>
      </trkpt>
      <trkpt lat="45.0391" lon="5.57181">
        <ele>1519</ele>
      </trkpt>
      <trkpt lat="45.03918" lon="5.57162">
        <ele>1517.7</ele>
      </trkpt>
      <trkpt lat="45.03923" lon="5.57156">
        <ele>1516.7</ele>
      </trkpt>
      <trkpt lat="45.03928" lon="5.57147">
        <ele>1515.7</ele>
      </trkpt>
      <trkpt lat="45.03935" lon="5.57138">
        <ele>1514.2</ele>
      </trkpt>
      <trkpt lat="45.03938" lon="5.57131">
        <ele>1513.5</ele>
      </trkpt>
      <trkpt lat="45.03942" lon="5.57108">
        <ele>1512.2</ele>
      </trkpt>
      <trkpt lat="45.03953" lon="5.57066">
        <ele>1508.4</ele>
      </trkpt>
      <trkpt lat="45.03958" lon="5.57041">
        <ele>1505.7</ele>
      </trkpt>
      <trkpt lat="45.03955" lon="5.57025">
        <ele>1505.4</ele>
      </trkpt>
      <trkpt lat="45.0395" lon="5.57007">
        <ele>1505.6</ele>
      </trkpt>
      <trkpt lat="45.03947" lon="5.56983">
        <ele>1503.4</ele>
      </trkpt>
      <trkpt lat="45.0394" lon="5.56958">
        <ele>1501.6</ele>
      </trkpt>
      <trkpt lat="45.03937" lon="5.56926">
        <ele>1497.8</ele>
      </trkpt>
      <trkpt lat="45.03941" lon="5.56889">
        <ele>1492.4</ele>
      </trkpt>
      <trkpt lat="45.03947" lon="5.56851">
        <ele>1487.3</ele>
      </trkpt>
      <trkpt lat="45.03952" lon="5.56842">
        <ele>1485.7</ele>
      </trkpt>
      <trkpt lat="45.03959" lon="5.56837">
        <ele>1484.2</ele>
      </trkpt>
      <trkpt lat="45.03973" lon="5.5684">
        <ele>1482.3</ele>
      </trkpt>
      <trkpt lat="45.03998" lon="5.56856">
        <ele>1479.5</ele>
      </trkpt>
      <trkpt lat="45.04019" lon="5.56881">
        <ele>1474.2</ele>
      </trkpt>
      <trkpt lat="45.04025" lon="5.56903">
        <ele>1473.9</ele>
      </trkpt>
      <trkpt lat="45.04033" lon="5.56924">
        <ele>1473.2</ele>
      </trkpt>
      <trkpt lat="45.04047" lon="5.56946">
        <ele>1472</ele>
      </trkpt>
      <trkpt lat="45.04063" lon="5.56954">
        <ele>1468.4</ele>
      </trkpt>
      <trkpt lat="45.04085" lon="5.56963">
        <ele>1463.2</ele>
      </trkpt>
      <trkpt lat="45.04108" lon="5.56984">
        <ele>1460.5</ele>
      </trkpt>
      <trkpt lat="45.04129" lon="5.56988">
        <ele>1456.4</ele>
      </trkpt>
      <trkpt lat="45.04152" lon="5.56979">
        <ele>1450.1</ele>
      </trkpt>
      <trkpt lat="45.04178" lon="5.56937">
        <ele>1439.8</ele>
      </trkpt>
      <trkpt lat="45.04204" lon="5.56905">
        <ele>1431.5</ele>
      </trkpt>
      <trkpt lat="45.04229" lon="5.56887">
        <ele>1424.8</ele>
      </trkpt>
      <trkpt lat="45.04262" lon="5.5687">
        <ele>1417.1</ele>
      </trkpt>
      <trkpt lat="45.04287" lon="5.56859">
        <ele>1411.2</ele>
      </trkpt>
      <trkpt lat="45.0431" lon="5.56841">
        <ele>1406.2</ele>
      </trkpt>
      <trkpt lat="45.04322" lon="5.5684">
        <ele>1404</ele>
      </trkpt>
      <trkpt lat="45.04329" lon="5.5685">
        <ele>1402.8</ele>
      </trkpt>
      <trkpt lat="45.04334" lon="5.56875">
        <ele>1401.8</ele>
      </trkpt>
      <trkpt lat="45.04331" lon="5.56899">
        <ele>1402.4</ele>
      </trkpt>
      <trkpt lat="45.04334" lon="5.56922">
        <ele>1402</ele>
      </trkpt>
      <trkpt lat="45.04346" lon="5.56933">
        <ele>1399.6</ele>
      </trkpt>
      <trkpt lat="45.04368" lon="5.5694">
        <ele>1394.7</ele>
      </trkpt>
      <trkpt lat="45.04379" lon="5.56946">
        <ele>1392.2</ele>
      </trkpt>
      <trkpt lat="45.04385" lon="5.56951">
        <ele>1391</ele>
      </trkpt>
      <trkpt lat="45.04392" lon="5.56951">
        <ele>1389.2</ele>
      </trkpt>
      <trkpt lat="45.04399" lon="5.56944">
        <ele>1387.4</ele>
      </trkpt>
      <trkpt lat="45.04406" lon="5.56924">
        <ele>1385.6</ele>
      </trkpt>
      <trkpt lat="45.04409" lon="5.56893">
        <ele>1384.4</ele>
      </trkpt>
      <trkpt lat="45.04416" lon="5.56867">
        <ele>1382.6</ele>
      </trkpt>
      <trkpt lat="45.04418" lon="5.56846">
        <ele>1381.7</ele>
      </trkpt>
      <trkpt lat="45.04417" lon="5.56826">
        <ele>1381</ele>
      </trkpt>
      <trkpt lat="45.0442" lon="5.56795">
        <ele>1376.5</ele>
      </trkpt>
      <trkpt lat="45.04433" lon="5.56765">
        <ele>1369.5</ele>
      </trkpt>
      <trkpt lat="45.04436" lon="5.56748">
        <ele>1366.6</ele>
      </trkpt>
      <trkpt lat="45.04444" lon="5.56737">
        <ele>1361.9</ele>
      </trkpt>
      <trkpt lat="45.04456" lon="5.5674">
        <ele>1359.8</ele>
      </trkpt>
      <trkpt lat="45.04465" lon="5.56751">
        <ele>1359.9</ele>
      </trkpt>
      <trkpt lat="45.04466" lon="5.56753">
        <ele>1359.8</ele>
      </trkpt>
      <trkpt lat="45.04478" lon="5.56778">
        <ele>1358.8</ele>
      </trkpt>
      <trkpt lat="45.04496" lon="5.56813">
        <ele>1356</ele>
      </trkpt>
      <trkpt lat="45.04508" lon="5.56838">
        <ele>1352.2</ele>
      </trkpt>
      <trkpt lat="45.04515" lon="5.56885">
        <ele>1351.1</ele>
      </trkpt>
      <trkpt lat="45.0453" lon="5.56951">
        <ele>1349.3</ele>
      </trkpt>
      <trkpt lat="45.04534" lon="5.56995">
        <ele>1352.7</ele>
      </trkpt>
      <trkpt lat="45.04543" lon="5.57005">
        <ele>1351.8</ele>
      </trkpt>
      <trkpt lat="45.04544" lon="5.57023">
        <ele>1353.9</ele>
      </trkpt>
      <trkpt lat="45.04546" lon="5.57041">
        <ele>1355.8</ele>
      </trkpt>
      <trkpt lat="45.04553" lon="5.57079">
        <ele>1358.9</ele>
      </trkpt>
      <trkpt lat="45.04556" lon="5.57102">
        <ele>1360.3</ele>
      </trkpt>
      <trkpt lat="45.04565" lon="5.5712">
        <ele>1359.7</ele>
      </trkpt>
      <trkpt lat="45.04589" lon="5.57134">
        <ele>1354.4</ele>
      </trkpt>
      <trkpt lat="45.04595" lon="5.57126">
        <ele>1353</ele>
      </trkpt>
      <trkpt lat="45.046" lon="5.57119">
        <ele>1351.8</ele>
      </trkpt>
      <trkpt lat="45.04616" lon="5.57096">
        <ele>1349.6</ele>
      </trkpt>
      <trkpt lat="45.04632" lon="5.57079">
        <ele>1348.5</ele>
      </trkpt>
      <trkpt lat="45.0465" lon="5.57068">
        <ele>1347.5</ele>
      </trkpt>
      <trkpt lat="45.04674" lon="5.57057">
        <ele>1346.6</ele>
      </trkpt>
      <trkpt lat="45.04688" lon="5.57049">
        <ele>1346</ele>
      </trkpt>
      <trkpt lat="45.04701" lon="5.5704">
        <ele>1345.6</ele>
      </trkpt>
      <trkpt lat="45.04737" lon="5.57007">
        <ele>1345.8</ele>
      </trkpt>
      <trkpt lat="45.04755" lon="5.56998">
        <ele>1345.2</ele>
      </trkpt>
      <trkpt lat="45.04772" lon="5.56993">
        <ele>1342.8</ele>
      </trkpt>
      <trkpt lat="45.0481" lon="5.56988">
        <ele>1338.6</ele>
      </trkpt>
      <trkpt lat="45.04827" lon="5.56988">
        <ele>1337.1</ele>
      </trkpt>
      <trkpt lat="45.04845" lon="5.5699">
        <ele>1336.1</ele>
      </trkpt>
      <trkpt lat="45.04854" lon="5.56993">
        <ele>1336.1</ele>
      </trkpt>
      <trkpt lat="45.04863" lon="5.56998">
        <ele>1336.4</ele>
      </trkpt>
      <trkpt lat="45.04865" lon="5.56999">
        <ele>1336.5</ele>
      </trkpt>
      <trkpt lat="45.04876" lon="5.57006">
        <ele>1337.1</ele>
      </trkpt>
      <trkpt lat="45.04863" lon="5.57013">
        <ele>1339.1</ele>
      </trkpt>
      <trkpt lat="45.04857" lon="5.5702">
        <ele>1340.5</ele>
      </trkpt>
      <trkpt lat="45.04836" lon="5.57049">
        <ele>1344.9</ele>
      </trkpt>
      <trkpt lat="45.04833" lon="5.57054">
        <ele>1345.4</ele>
      </trkpt>
      <trkpt lat="45.04826" lon="5.57073">
        <ele>1347.2</ele>
      </trkpt>
      <trkpt lat="45.0481" lon="5.57098">
        <ele>1347.7</ele>
      </trkpt>
      <trkpt lat="45.04805" lon="5.57113">
        <ele>1347.7</ele>
      </trkpt>
      <trkpt lat="45.04799" lon="5.57123">
        <ele>1347</ele>
      </trkpt>
      <trkpt lat="45.04794" lon="5.57134">
        <ele>1346.2</ele>
      </trkpt>
      <trkpt lat="45.04792" lon="5.57141">
        <ele>1345.8</ele>
      </trkpt>
      <trkpt lat="45.04787" lon="5.57164">
        <ele>1344.6</ele>
      </trkpt>
      <trkpt lat="45.04782" lon="5.57182">
        <ele>1343.3</ele>
      </trkpt>
      <trkpt lat="45.04775" lon="5.57207">
        <ele>1340.9</ele>
      </trkpt>
      <trkpt lat="45.04774" lon="5.57215">
        <ele>1340.7</ele>
      </trkpt>
      <trkpt lat="45.04773" lon="5.57224">
        <ele>1340.7</ele>
      </trkpt>
      <trkpt lat="45.04774" lon="5.57232">
        <ele>1341</ele>
      </trkpt>
      <trkpt lat="45.04772" lon="5.57237">
        <ele>1340.5</ele>
      </trkpt>
      <trkpt lat="45.04771" lon="5.57255">
        <ele>1340.3</ele>
      </trkpt>
      <trkpt lat="45.04775" lon="5.57281">
        <ele>1342.6</ele>
      </trkpt>
      <trkpt lat="45.04776" lon="5.57297">
        <ele>1343.3</ele>
      </trkpt>
      <trkpt lat="45.04776" lon="5.57309">
        <ele>1343.2</ele>
      </trkpt>
      <trkpt lat="45.04777" lon="5.57319">
        <ele>1343.9</ele>
      </trkpt>
      <trkpt lat="45.04779" lon="5.57342">
        <ele>1344.7</ele>
      </trkpt>
      <trkpt lat="45.04781" lon="5.57349">
        <ele>1345.2</ele>
      </trkpt>
      <trkpt lat="45.04785" lon="5.5736">
        <ele>1346.2</ele>
      </trkpt>
      <trkpt lat="45.04785" lon="5.57368">
        <ele>1346.1</ele>
      </trkpt>
      <trkpt lat="45.04784" lon="5.57373">
        <ele>1345.7</ele>
      </trkpt>
      <trkpt lat="45.04778" lon="5.57379">
        <ele>1344.6</ele>
      </trkpt>
      <trkpt lat="45.04773" lon="5.57383">
        <ele>1343.7</ele>
      </trkpt>
      <trkpt lat="45.04766" lon="5.57384">
        <ele>1342.5</ele>
      </trkpt>
      <trkpt lat="45.04762" lon="5.57387">
        <ele>1341.9</ele>
      </trkpt>
      <trkpt lat="45.04762" lon="5.57394">
        <ele>1342.2</ele>
      </trkpt>
      <trkpt lat="45.04764" lon="5.57403">
        <ele>1342.9</ele>
      </trkpt>
      <trkpt lat="45.04777" lon="5.57419">
        <ele>1344</ele>
      </trkpt>
      <trkpt lat="45.04781" lon="5.5743">
        <ele>1342</ele>
      </trkpt>
      <trkpt lat="45.04786" lon="5.57438">
        <ele>1340.2</ele>
      </trkpt>
      <trkpt lat="45.04792" lon="5.57445">
        <ele>1338.7</ele>
      </trkpt>
      <trkpt lat="45.04791" lon="5.57451">
        <ele>1337.2</ele>
      </trkpt>
      <trkpt lat="45.04783" lon="5.57463">
        <ele>1334.1</ele>
      </trkpt>
      <trkpt lat="45.04783" lon="5.57467">
        <ele>1333.1</ele>
      </trkpt>
      <trkpt lat="45.04779" lon="5.57476">
        <ele>1331.1</ele>
      </trkpt>
      <trkpt lat="45.04773" lon="5.57483">
        <ele>1329.9</ele>
      </trkpt>
      <trkpt lat="45.04758" lon="5.57498">
        <ele>1327.7</ele>
      </trkpt>
      <trkpt lat="45.04749" lon="5.57505">
        <ele>1327.5</ele>
      </trkpt>
      <trkpt lat="45.04739" lon="5.57522">
        <ele>1325.9</ele>
      </trkpt>
      <trkpt lat="45.04728" lon="5.57532">
        <ele>1325.1</ele>
      </trkpt>
      <trkpt lat="45.04708" lon="5.57555">
        <ele>1322.5</ele>
      </trkpt>
      <trkpt lat="45.04698" lon="5.57572">
        <ele>1320.3</ele>
      </trkpt>
      <trkpt lat="45.04691" lon="5.57591">
        <ele>1318.4</ele>
      </trkpt>
      <trkpt lat="45.04686" lon="5.57602">
        <ele>1318</ele>
      </trkpt>
      <trkpt lat="45.04679" lon="5.57629">
        <ele>1317.1</ele>
      </trkpt>
      <trkpt lat="45.04662" lon="5.5764">
        <ele>1317</ele>
      </trkpt>
      <trkpt lat="45.04639" lon="5.5766">
        <ele>1316.4</ele>
      </trkpt>
      <trkpt lat="45.04632" lon="5.57681">
        <ele>1317.7</ele>
      </trkpt>
      <trkpt lat="45.04625" lon="5.57692">
        <ele>1318.9</ele>
      </trkpt>
      <trkpt lat="45.04611" lon="5.5771">
        <ele>1320.6</ele>
      </trkpt>
      <trkpt lat="45.04592" lon="5.57744">
        <ele>1323.7</ele>
      </trkpt>
      <trkpt lat="45.04577" lon="5.57761">
        <ele>1325.8</ele>
      </trkpt>
      <trkpt lat="45.04562" lon="5.57773">
        <ele>1328.1</ele>
      </trkpt>
      <trkpt lat="45.04539" lon="5.57782">
        <ele>1329.8</ele>
      </trkpt>
      <trkpt lat="45.04535" lon="5.57785">
        <ele>1330.4</ele>
      </trkpt>
      <trkpt lat="45.0453" lon="5.5779">
        <ele>1331.4</ele>
      </trkpt>
      <trkpt lat="45.04523" lon="5.5781">
        <ele>1335.1</ele>
      </trkpt>
      <trkpt lat="45.0452" lon="5.57824">
        <ele>1337.8</ele>
      </trkpt>
      <trkpt lat="45.0451" lon="5.57856">
        <ele>1341.7</ele>
      </trkpt>
      <trkpt lat="45.04507" lon="5.57872">
        <ele>1343.1</ele>
      </trkpt>
      <trkpt lat="45.04506" lon="5.57896">
        <ele>1345.2</ele>
      </trkpt>
      <trkpt lat="45.0451" lon="5.57943">
        <ele>1345.2</ele>
      </trkpt>
      <trkpt lat="45.04509" lon="5.57956">
        <ele>1344.5</ele>
      </trkpt>
      <trkpt lat="45.04505" lon="5.57964">
        <ele>1344.1</ele>
      </trkpt>
      <trkpt lat="45.04498" lon="5.57972">
        <ele>1343.7</ele>
      </trkpt>
      <trkpt lat="45.04486" lon="5.57995">
        <ele>1343.1</ele>
      </trkpt>
      <trkpt lat="45.04479" lon="5.5802">
        <ele>1342.8</ele>
      </trkpt>
      <trkpt lat="45.04472" lon="5.58035">
        <ele>1343</ele>
      </trkpt>
      <trkpt lat="45.04463" lon="5.58056">
        <ele>1343.2</ele>
      </trkpt>
      <trkpt lat="45.04456" lon="5.58078">
        <ele>1343.2</ele>
      </trkpt>
      <trkpt lat="45.04458" lon="5.58082">
        <ele>1343</ele>
      </trkpt>
      <trkpt lat="45.04461" lon="5.58084">
        <ele>1342.8</ele>
      </trkpt>
      <trkpt lat="45.04466" lon="5.5809">
        <ele>1342.5</ele>
      </trkpt>
      <trkpt lat="45.04469" lon="5.58092">
        <ele>1342.3</ele>
      </trkpt>
      <trkpt lat="45.04475" lon="5.58099">
        <ele>1342</ele>
      </trkpt>
      <trkpt lat="45.04478" lon="5.58105">
        <ele>1341.9</ele>
      </trkpt>
      <trkpt lat="45.04481" lon="5.58114">
        <ele>1342</ele>
      </trkpt>
      <trkpt lat="45.04487" lon="5.58122">
        <ele>1341.9</ele>
      </trkpt>
      <trkpt lat="45.04494" lon="5.58127">
        <ele>1341.8</ele>
      </trkpt>
      <trkpt lat="45.04503" lon="5.58129">
        <ele>1341.4</ele>
      </trkpt>
      <trkpt lat="45.04514" lon="5.58126">
        <ele>1340.5</ele>
      </trkpt>
      <trkpt lat="45.0452" lon="5.58127">
        <ele>1340.1</ele>
      </trkpt>
      <trkpt lat="45.04528" lon="5.58133">
        <ele>1339.8</ele>
      </trkpt>
      <trkpt lat="45.04539" lon="5.58144">
        <ele>1339.3</ele>
      </trkpt>
      <trkpt lat="45.04558" lon="5.58145">
        <ele>1338</ele>
      </trkpt>
      <trkpt lat="45.04565" lon="5.58149">
        <ele>1337.7</ele>
      </trkpt>
      <trkpt lat="45.04574" lon="5.58159">
        <ele>1337.4</ele>
      </trkpt>
      <trkpt lat="45.04601" lon="5.58208">
        <ele>1349.5</ele>
      </trkpt>
      <trkpt lat="45.04609" lon="5.58222">
        <ele>1353.8</ele>
      </trkpt>
      <trkpt lat="45.04621" lon="5.58236">
        <ele>1358.1</ele>
      </trkpt>
      <trkpt lat="45.04627" lon="5.58241">
        <ele>1359.9</ele>
      </trkpt>
      <trkpt lat="45.04656" lon="5.58254">
        <ele>1364.9</ele>
      </trkpt>
      <trkpt lat="45.0469" lon="5.58257">
        <ele>1364.4</ele>
      </trkpt>
      <trkpt lat="45.04701" lon="5.58262">
        <ele>1365</ele>
      </trkpt>
      <trkpt lat="45.04712" lon="5.58268">
        <ele>1366.1</ele>
      </trkpt>
      <trkpt lat="45.04733" lon="5.58292">
        <ele>1371</ele>
      </trkpt>
      <trkpt lat="45.04748" lon="5.5831">
        <ele>1374.9</ele>
      </trkpt>
      <trkpt lat="45.04764" lon="5.58319">
        <ele>1375.3</ele>
      </trkpt>
      <trkpt lat="45.04774" lon="5.58325">
        <ele>1375.7</ele>
      </trkpt>
      <trkpt lat="45.04782" lon="5.58327">
        <ele>1375.2</ele>
      </trkpt>
      <trkpt lat="45.04797" lon="5.58372">
        <ele>1383.8</ele>
      </trkpt>
      <trkpt lat="45.04813" lon="5.58414">
        <ele>1391.3</ele>
      </trkpt>
      <trkpt lat="45.04816" lon="5.58422">
        <ele>1392.9</ele>
      </trkpt>
      <trkpt lat="45.04832" lon="5.58473">
        <ele>1402.3</ele>
      </trkpt>
      <trkpt lat="45.04848" lon="5.58499">
        <ele>1410.1</ele>
      </trkpt>
      <trkpt lat="45.04865" lon="5.58501">
        <ele>1413.3</ele>
      </trkpt>
      <trkpt lat="45.04885" lon="5.58485">
        <ele>1412.1</ele>
      </trkpt>
      <trkpt lat="45.04896" lon="5.58448">
        <ele>1404.1</ele>
      </trkpt>
      <trkpt lat="45.04909" lon="5.58432">
        <ele>1401.4</ele>
      </trkpt>
      <trkpt lat="45.04943" lon="5.5845">
        <ele>1411.9</ele>
      </trkpt>
      <trkpt lat="45.04975" lon="5.58454">
        <ele>1418.9</ele>
      </trkpt>
      <trkpt lat="45.05" lon="5.5844">
        <ele>1419.8</ele>
      </trkpt>
      <trkpt lat="45.05035" lon="5.58432">
        <ele>1424.5</ele>
      </trkpt>
      <trkpt lat="45.05072" lon="5.58429">
        <ele>1431.1</ele>
      </trkpt>
      <trkpt lat="45.05099" lon="5.58433">
        <ele>1434.2</ele>
      </trkpt>
      <trkpt lat="45.0512" lon="5.58442">
        <ele>1435.4</ele>
      </trkpt>
      <trkpt lat="45.05151" lon="5.58461">
        <ele>1435.7</ele>
      </trkpt>
      <trkpt lat="45.05143" lon="5.58487">
        <ele>1437.5</ele>
      </trkpt>
      <trkpt lat="45.05111" lon="5.58529">
        <ele>1441.8</ele>
      </trkpt>
      <trkpt lat="45.05103" lon="5.58557">
        <ele>1442.7</ele>
      </trkpt>
      <trkpt lat="45.05104" lon="5.58564">
        <ele>1442.6</ele>
      </trkpt>
      <trkpt lat="45.05107" lon="5.5857">
        <ele>1441.9</ele>
      </trkpt>
      <trkpt lat="45.0511" lon="5.58589">
        <ele>1441.5</ele>
      </trkpt>
      <trkpt lat="45.05115" lon="5.58599">
        <ele>1441.3</ele>
      </trkpt>
      <trkpt lat="45.05129" lon="5.58609">
        <ele>1439.9</ele>
      </trkpt>
      <trkpt lat="45.05135" lon="5.5861">
        <ele>1439</ele>
      </trkpt>
      <trkpt lat="45.05144" lon="5.58614">
        <ele>1437.9</ele>
      </trkpt>
      <trkpt lat="45.05149" lon="5.58618">
        <ele>1437.5</ele>
      </trkpt>
      <trkpt lat="45.05161" lon="5.58648">
        <ele>1438.6</ele>
      </trkpt>
      <trkpt lat="45.05176" lon="5.58664">
        <ele>1440.3</ele>
      </trkpt>
      <trkpt lat="45.05182" lon="5.58665">
        <ele>1440.8</ele>
      </trkpt>
      <trkpt lat="45.0521" lon="5.58651">
        <ele>1440.7</ele>
      </trkpt>
      <trkpt lat="45.05232" lon="5.58615">
        <ele>1435.7</ele>
      </trkpt>
      <trkpt lat="45.0524" lon="5.58609">
        <ele>1434.7</ele>
      </trkpt>
      <trkpt lat="45.05289" lon="5.58584">
        <ele>1433.3</ele>
      </trkpt>
      <trkpt lat="45.05309" lon="5.58578">
        <ele>1434.1</ele>
      </trkpt>
      <trkpt lat="45.05318" lon="5.58576">
        <ele>1434.5</ele>
      </trkpt>
      <trkpt lat="45.0532" lon="5.58576">
        <ele>1434.8</ele>
      </trkpt>
      <trkpt lat="45.05326" lon="5.58583">
        <ele>1436.4</ele>
      </trkpt>
      <trkpt lat="45.05334" lon="5.58581">
        <ele>1436.5</ele>
      </trkpt>
      <trkpt lat="45.05344" lon="5.58576">
        <ele>1435.5</ele>
      </trkpt>
      <trkpt lat="45.05348" lon="5.58571">
        <ele>1434.6</ele>
      </trkpt>
      <trkpt lat="45.05349" lon="5.58566">
        <ele>1433.7</ele>
      </trkpt>
      <trkpt lat="45.05348" lon="5.5856">
        <ele>1432.8</ele>
      </trkpt>
      <trkpt lat="45.05345" lon="5.58555">
        <ele>1432.1</ele>
      </trkpt>
      <trkpt lat="45.05333" lon="5.58542">
        <ele>1430</ele>
      </trkpt>
      <trkpt lat="45.05328" lon="5.58537">
        <ele>1428.9</ele>
      </trkpt>
      <trkpt lat="45.0532" lon="5.5853">
        <ele>1427</ele>
      </trkpt>
      <trkpt lat="45.05319" lon="5.58524">
        <ele>1425.9</ele>
      </trkpt>
      <trkpt lat="45.05319" lon="5.58518">
        <ele>1424.9</ele>
      </trkpt>
      <trkpt lat="45.05323" lon="5.5851">
        <ele>1424</ele>
      </trkpt>
      <trkpt lat="45.05331" lon="5.58507">
        <ele>1423.9</ele>
      </trkpt>
      <trkpt lat="45.05339" lon="5.58507">
        <ele>1424.4</ele>
      </trkpt>
      <trkpt lat="45.05351" lon="5.58512">
        <ele>1425.5</ele>
      </trkpt>
      <trkpt lat="45.05361" lon="5.5851">
        <ele>1425.4</ele>
      </trkpt>
      <trkpt lat="45.05375" lon="5.58501">
        <ele>1424.6</ele>
      </trkpt>
      <trkpt lat="45.05392" lon="5.58495">
        <ele>1424.4</ele>
      </trkpt>
      <trkpt lat="45.05414" lon="5.58481">
        <ele>1423.5</ele>
      </trkpt>
      <trkpt lat="45.05421" lon="5.58471">
        <ele>1422.4</ele>
      </trkpt>
      <trkpt lat="45.05435" lon="5.58446">
        <ele>1419</ele>
      </trkpt>
      <trkpt lat="45.05448" lon="5.58421">
        <ele>1415</ele>
      </trkpt>
      <trkpt lat="45.05463" lon="5.58377">
        <ele>1405.7</ele>
      </trkpt>
      <trkpt lat="45.05477" lon="5.58342">
        <ele>1397.4</ele>
      </trkpt>
      <trkpt lat="45.0549" lon="5.58328">
        <ele>1393.2</ele>
      </trkpt>
      <trkpt lat="45.05535" lon="5.58318">
        <ele>1385</ele>
      </trkpt>
      <trkpt lat="45.05568" lon="5.58316">
        <ele>1379.8</ele>
      </trkpt>
      <trkpt lat="45.05577" lon="5.58316">
        <ele>1378.6</ele>
      </trkpt>
      <trkpt lat="45.05597" lon="5.58321">
        <ele>1376.3</ele>
      </trkpt>
      <trkpt lat="45.05601" lon="5.58322">
        <ele>1375.8</ele>
      </trkpt>
      <trkpt lat="45.05672" lon="5.58322">
        <ele>1363.9</ele>
      </trkpt>
      <trkpt lat="45.05694" lon="5.5832">
        <ele>1362.4</ele>
      </trkpt>
      <trkpt lat="45.05711" lon="5.58314">
        <ele>1360.4</ele>
      </trkpt>
      <trkpt lat="45.05724" lon="5.58311">
        <ele>1359</ele>
      </trkpt>
      <trkpt lat="45.05755" lon="5.58307">
        <ele>1357</ele>
      </trkpt>
      <trkpt lat="45.05763" lon="5.58303">
        <ele>1357</ele>
      </trkpt>
      <trkpt lat="45.05766" lon="5.58302">
        <ele>1357</ele>
      </trkpt>
      <trkpt lat="45.05778" lon="5.58292">
        <ele>1355.8</ele>
      </trkpt>
      <trkpt lat="45.05809" lon="5.5827">
        <ele>1352.8</ele>
      </trkpt>
      <trkpt lat="45.05829" lon="5.58258">
        <ele>1350.9</ele>
      </trkpt>
      <trkpt lat="45.05847" lon="5.58248">
        <ele>1349.4</ele>
      </trkpt>
      <trkpt lat="45.05878" lon="5.58222">
        <ele>1345.3</ele>
      </trkpt>
      <trkpt lat="45.05901" lon="5.58197">
        <ele>1339</ele>
      </trkpt>
      <trkpt lat="45.05921" lon="5.58173">
        <ele>1332.3</ele>
      </trkpt>
      <trkpt lat="45.05926" lon="5.58168">
        <ele>1331.6</ele>
      </trkpt>
      <trkpt lat="45.05943" lon="5.58154">
        <ele>1332.4</ele>
      </trkpt>
      <trkpt lat="45.05952" lon="5.58143">
        <ele>1332</ele>
      </trkpt>
      <trkpt lat="45.05959" lon="5.58131">
        <ele>1331</ele>
      </trkpt>
      <trkpt lat="45.05969" lon="5.58123">
        <ele>1330.2</ele>
      </trkpt>
      <trkpt lat="45.05989" lon="5.58105">
        <ele>1327.1</ele>
      </trkpt>
      <trkpt lat="45.06" lon="5.58094">
        <ele>1324.5</ele>
      </trkpt>
      <trkpt lat="45.06011" lon="5.58081">
        <ele>1324.5</ele>
      </trkpt>
      <trkpt lat="45.0603" lon="5.58043">
        <ele>1324.1</ele>
      </trkpt>
      <trkpt lat="45.06033" lon="5.58034">
        <ele>1323.3</ele>
      </trkpt>
      <trkpt lat="45.0604" lon="5.58011">
        <ele>1320.6</ele>
      </trkpt>
      <trkpt lat="45.06047" lon="5.5799">
        <ele>1318</ele>
      </trkpt>
      <trkpt lat="45.06051" lon="5.57984">
        <ele>1317.1</ele>
      </trkpt>
      <trkpt lat="45.06064" lon="5.57977">
        <ele>1316.2</ele>
      </trkpt>
      <trkpt lat="45.0607" lon="5.57972">
        <ele>1315.4</ele>
      </trkpt>
      <trkpt lat="45.06093" lon="5.5795">
        <ele>1311.2</ele>
      </trkpt>
      <trkpt lat="45.06121" lon="5.57921">
        <ele>1306.8</ele>
      </trkpt>
      <trkpt lat="45.0613" lon="5.57914">
        <ele>1306.1</ele>
      </trkpt>
      <trkpt lat="45.06137" lon="5.57906">
        <ele>1305.8</ele>
      </trkpt>
      <trkpt lat="45.06145" lon="5.57897">
        <ele>1305</ele>
      </trkpt>
      <trkpt lat="45.06153" lon="5.57886">
        <ele>1303.7</ele>
      </trkpt>
      <trkpt lat="45.06164" lon="5.57864">
        <ele>1300.5</ele>
      </trkpt>
      <trkpt lat="45.06176" lon="5.57845">
        <ele>1297.4</ele>
      </trkpt>
      <trkpt lat="45.06206" lon="5.57815">
        <ele>1293.7</ele>
      </trkpt>
      <trkpt lat="45.06212" lon="5.57808">
        <ele>1292.9</ele>
      </trkpt>
      <trkpt lat="45.06215" lon="5.578">
        <ele>1292</ele>
      </trkpt>
      <trkpt lat="45.06216" lon="5.57776">
        <ele>1289.1</ele>
      </trkpt>
      <trkpt lat="45.06217" lon="5.57769">
        <ele>1288.1</ele>
      </trkpt>
      <trkpt lat="45.06218" lon="5.57768">
        <ele>1288</ele>
      </trkpt>
      <trkpt lat="45.0622" lon="5.57759">
        <ele>1286.9</ele>
      </trkpt>
      <trkpt lat="45.06226" lon="5.57747">
        <ele>1285.4</ele>
      </trkpt>
      <trkpt lat="45.06231" lon="5.57742">
        <ele>1284.9</ele>
      </trkpt>
      <trkpt lat="45.06223" lon="5.57726">
        <ele>1284.2</ele>
      </trkpt>
      <trkpt lat="45.06218" lon="5.57714">
        <ele>1283.7</ele>
      </trkpt>
      <trkpt lat="45.06217" lon="5.577">
        <ele>1283</ele>
      </trkpt>
      <trkpt lat="45.06217" lon="5.57683">
        <ele>1282.1</ele>
      </trkpt>
      <trkpt lat="45.06221" lon="5.57657">
        <ele>1280.3</ele>
      </trkpt>
      <trkpt lat="45.06231" lon="5.57621">
        <ele>1277.8</ele>
      </trkpt>
      <trkpt lat="45.0624" lon="5.57577">
        <ele>1275.7</ele>
      </trkpt>
      <trkpt lat="45.06245" lon="5.57562">
        <ele>1275.8</ele>
      </trkpt>
      <trkpt lat="45.06264" lon="5.57523">
        <ele>1275.6</ele>
      </trkpt>
      <trkpt lat="45.06272" lon="5.575">
        <ele>1275.6</ele>
      </trkpt>
      <trkpt lat="45.06278" lon="5.57475">
        <ele>1275.3</ele>
      </trkpt>
      <trkpt lat="45.06281" lon="5.57448">
        <ele>1275.3</ele>
      </trkpt>
      <trkpt lat="45.0628" lon="5.5742">
        <ele>1275.4</ele>
      </trkpt>
      <trkpt lat="45.06275" lon="5.57362">
        <ele>1274</ele>
      </trkpt>
      <trkpt lat="45.06277" lon="5.5733">
        <ele>1273.1</ele>
      </trkpt>
      <trkpt lat="45.06281" lon="5.57297">
        <ele>1270.8</ele>
      </trkpt>
      <trkpt lat="45.06288" lon="5.57259">
        <ele>1267.5</ele>
      </trkpt>
      <trkpt lat="45.0629" lon="5.57252">
        <ele>1266.7</ele>
      </trkpt>
      <trkpt lat="45.06294" lon="5.57245">
        <ele>1265.3</ele>
      </trkpt>
      <trkpt lat="45.06299" lon="5.57241">
        <ele>1264.3</ele>
      </trkpt>
      <trkpt lat="45.06309" lon="5.57242">
        <ele>1263.6</ele>
      </trkpt>
      <trkpt lat="45.06311" lon="5.57242">
        <ele>1263.3</ele>
      </trkpt>
      <trkpt lat="45.06309" lon="5.57242">
        <ele>1263.6</ele>
      </trkpt>
      <trkpt lat="45.06299" lon="5.57241">
        <ele>1264.3</ele>
      </trkpt>
      <trkpt lat="45.06312" lon="5.57286">
        <ele>1268.6</ele>
      </trkpt>
      <trkpt lat="45.06337" lon="5.57338">
        <ele>1273.6</ele>
      </trkpt>
      <trkpt lat="45.06346" lon="5.57355">
        <ele>1273.3</ele>
      </trkpt>
      <trkpt lat="45.0635" lon="5.57369">
        <ele>1273.5</ele>
      </trkpt>
      <trkpt lat="45.06353" lon="5.57403">
        <ele>1274.7</ele>
      </trkpt>
      <trkpt lat="45.06354" lon="5.57427">
        <ele>1274.7</ele>
      </trkpt>
      <trkpt lat="45.06368" lon="5.57488">
        <ele>1270.6</ele>
      </trkpt>
      <trkpt lat="45.06378" lon="5.57561">
        <ele>1266.7</ele>
      </trkpt>
      <trkpt lat="45.06393" lon="5.57628">
        <ele>1269.9</ele>
      </trkpt>
      <trkpt lat="45.06403" lon="5.57626">
        <ele>1269.1</ele>
      </trkpt>
      <trkpt lat="45.06409" lon="5.57627">
        <ele>1268.8</ele>
      </trkpt>
      <trkpt lat="45.06418" lon="5.57629">
        <ele>1268.3</ele>
      </trkpt>
      <trkpt lat="45.06423" lon="5.57631">
        <ele>1267.6</ele>
      </trkpt>
      <trkpt lat="45.06437" lon="5.57641">
        <ele>1266.5</ele>
      </trkpt>
      <trkpt lat="45.06446" lon="5.57647">
        <ele>1265.7</ele>
      </trkpt>
      <trkpt lat="45.06471" lon="5.57667">
        <ele>1264.4</ele>
      </trkpt>
      <trkpt lat="45.06487" lon="5.57679">
        <ele>1264.3</ele>
      </trkpt>
      <trkpt lat="45.06511" lon="5.57684">
        <ele>1261.9</ele>
      </trkpt>
      <trkpt lat="45.06527" lon="5.57678">
        <ele>1257.9</ele>
      </trkpt>
      <trkpt lat="45.06555" lon="5.5767">
        <ele>1251.8</ele>
      </trkpt>
      <trkpt lat="45.06572" lon="5.57658">
        <ele>1247</ele>
      </trkpt>
      <trkpt lat="45.06597" lon="5.57633">
        <ele>1239.8</ele>
      </trkpt>
      <trkpt lat="45.06615" lon="5.57617">
        <ele>1236</ele>
      </trkpt>
      <trkpt lat="45.06669" lon="5.57557">
        <ele>1221.4</ele>
      </trkpt>
      <trkpt lat="45.06697" lon="5.5754">
        <ele>1214.2</ele>
      </trkpt>
      <trkpt lat="45.06741" lon="5.57551">
        <ele>1210.8</ele>
      </trkpt>
      <trkpt lat="45.06767" lon="5.5757">
        <ele>1207</ele>
      </trkpt>
      <trkpt lat="45.06778" lon="5.57573">
        <ele>1204.7</ele>
      </trkpt>
      <trkpt lat="45.06803" lon="5.57582">
        <ele>1199.3</ele>
      </trkpt>
      <trkpt lat="45.06832" lon="5.57611">
        <ele>1193.5</ele>
      </trkpt>
      <trkpt lat="45.06863" lon="5.5763">
        <ele>1185.1</ele>
      </trkpt>
      <trkpt lat="45.06896" lon="5.57636">
        <ele>1176.1</ele>
      </trkpt>
      <trkpt lat="45.06908" lon="5.57651">
        <ele>1173.6</ele>
      </trkpt>
      <trkpt lat="45.06912" lon="5.57669">
        <ele>1173.5</ele>
      </trkpt>
      <trkpt lat="45.06918" lon="5.57684">
        <ele>1173.7</ele>
      </trkpt>
      <trkpt lat="45.06928" lon="5.57696">
        <ele>1173.9</ele>
      </trkpt>
      <trkpt lat="45.06946" lon="5.5771">
        <ele>1173.3</ele>
      </trkpt>
      <trkpt lat="45.06962" lon="5.57694">
        <ele>1169.5</ele>
      </trkpt>
      <trkpt lat="45.06971" lon="5.57682">
        <ele>1166.8</ele>
      </trkpt>
      <trkpt lat="45.0699" lon="5.57679">
        <ele>1164.1</ele>
      </trkpt>
      <trkpt lat="45.07009" lon="5.57711">
        <ele>1165.9</ele>
      </trkpt>
      <trkpt lat="45.07043" lon="5.57759">
        <ele>1168.4</ele>
      </trkpt>
      <trkpt lat="45.0706" lon="5.57775">
        <ele>1169.7</ele>
      </trkpt>
      <trkpt lat="45.0708" lon="5.57786">
        <ele>1169.5</ele>
      </trkpt>
      <trkpt lat="45.07086" lon="5.57788">
        <ele>1169.5</ele>
      </trkpt>
      <trkpt lat="45.07106" lon="5.57811">
        <ele>1173.5</ele>
      </trkpt>
      <trkpt lat="45.0711" lon="5.57814">
        <ele>1173.8</ele>
      </trkpt>
      <trkpt lat="45.07131" lon="5.57838">
        <ele>1176.5</ele>
      </trkpt>
      <trkpt lat="45.0715" lon="5.57875">
        <ele>1180</ele>
      </trkpt>
      <trkpt lat="45.07154" lon="5.57886">
        <ele>1180.9</ele>
      </trkpt>
      <trkpt lat="45.07163" lon="5.57893">
        <ele>1180.5</ele>
      </trkpt>
      <trkpt lat="45.07168" lon="5.57892">
        <ele>1179.6</ele>
      </trkpt>
      <trkpt lat="45.07175" lon="5.5789">
        <ele>1179</ele>
      </trkpt>
      <trkpt lat="45.07189" lon="5.57883">
        <ele>1177.4</ele>
      </trkpt>
      <trkpt lat="45.07201" lon="5.57881">
        <ele>1176.4</ele>
      </trkpt>
      <trkpt lat="45.07236" lon="5.57893">
        <ele>1176</ele>
      </trkpt>
      <trkpt lat="45.07262" lon="5.579">
        <ele>1175.2</ele>
      </trkpt>
      <trkpt lat="45.07279" lon="5.57907">
        <ele>1174.8</ele>
      </trkpt>
      <trkpt lat="45.07298" lon="5.57929">
        <ele>1175.5</ele>
      </trkpt>
      <trkpt lat="45.07305" lon="5.57936">
        <ele>1175.6</ele>
      </trkpt>
      <trkpt lat="45.07311" lon="5.57933">
        <ele>1175</ele>
      </trkpt>
      <trkpt lat="45.07323" lon="5.57919">
        <ele>1172.9</ele>
      </trkpt>
      <trkpt lat="45.07331" lon="5.57906">
        <ele>1170.8</ele>
      </trkpt>
      <trkpt lat="45.07333" lon="5.57898">
        <ele>1169.5</ele>
      </trkpt>
      <trkpt lat="45.07341" lon="5.57864">
        <ele>1165.4</ele>
      </trkpt>
      <trkpt lat="45.0736" lon="5.57822">
        <ele>1161.8</ele>
      </trkpt>
      <trkpt lat="45.07368" lon="5.57813">
        <ele>1161.9</ele>
      </trkpt>
      <trkpt lat="45.07378" lon="5.57809">
        <ele>1162.7</ele>
      </trkpt>
      <trkpt lat="45.0741" lon="5.57818">
        <ele>1165.6</ele>
      </trkpt>
      <trkpt lat="45.07439" lon="5.5783">
        <ele>1165.2</ele>
      </trkpt>
      <trkpt lat="45.07444" lon="5.57828">
        <ele>1165</ele>
      </trkpt>
      <trkpt lat="45.07447" lon="5.57828">
        <ele>1164.8</ele>
      </trkpt>
      <trkpt lat="45.07488" lon="5.57797">
        <ele>1162</ele>
      </trkpt>
      <trkpt lat="45.07499" lon="5.57782">
        <ele>1160.6</ele>
      </trkpt>
      <trkpt lat="45.07516" lon="5.57761">
        <ele>1156.7</ele>
      </trkpt>
      <trkpt lat="45.07557" lon="5.57723">
        <ele>1149.5</ele>
      </trkpt>
      <trkpt lat="45.07572" lon="5.57708">
        <ele>1146.5</ele>
      </trkpt>
      <trkpt lat="45.07582" lon="5.57706">
        <ele>1144.2</ele>
      </trkpt>
      <trkpt lat="45.07588" lon="5.57706">
        <ele>1143.2</ele>
      </trkpt>
      <trkpt lat="45.07594" lon="5.57703">
        <ele>1142.3</ele>
      </trkpt>
      <trkpt lat="45.07598" lon="5.57692">
        <ele>1141.5</ele>
      </trkpt>
      <trkpt lat="45.07602" lon="5.57684">
        <ele>1140.6</ele>
      </trkpt>
      <trkpt lat="45.07614" lon="5.5768">
        <ele>1138.3</ele>
      </trkpt>
      <trkpt lat="45.07625" lon="5.5768">
        <ele>1136.2</ele>
      </trkpt>
      <trkpt lat="45.07636" lon="5.57675">
        <ele>1133.9</ele>
      </trkpt>
      <trkpt lat="45.0764" lon="5.57668">
        <ele>1132.5</ele>
      </trkpt>
      <trkpt lat="45.07642" lon="5.57659">
        <ele>1130.9</ele>
      </trkpt>
      <trkpt lat="45.07642" lon="5.5763">
        <ele>1127</ele>
      </trkpt>
      <trkpt lat="45.07644" lon="5.5761">
        <ele>1124.1</ele>
      </trkpt>
      <trkpt lat="45.0765" lon="5.5759">
        <ele>1120.1</ele>
      </trkpt>
      <trkpt lat="45.07662" lon="5.57568">
        <ele>1116.1</ele>
      </trkpt>
      <trkpt lat="45.07676" lon="5.57545">
        <ele>1113.7</ele>
      </trkpt>
      <trkpt lat="45.07678" lon="5.57562">
        <ele>1114.5</ele>
      </trkpt>
      <trkpt lat="45.0768" lon="5.57589">
        <ele>1116</ele>
      </trkpt>
      <trkpt lat="45.07689" lon="5.57612">
        <ele>1118.6</ele>
      </trkpt>
      <trkpt lat="45.07694" lon="5.57624">
        <ele>1119.9</ele>
      </trkpt>
      <trkpt lat="45.07702" lon="5.57637">
        <ele>1121.1</ele>
      </trkpt>
      <trkpt lat="45.07725" lon="5.57641">
        <ele>1120.3</ele>
      </trkpt>
      <trkpt lat="45.07766" lon="5.5764">
        <ele>1119.3</ele>
      </trkpt>
      <trkpt lat="45.07816" lon="5.5764">
        <ele>1121</ele>
      </trkpt>
      <trkpt lat="45.07867" lon="5.57648">
        <ele>1122</ele>
      </trkpt>
      <trkpt lat="45.0789" lon="5.57674">
        <ele>1124.2</ele>
      </trkpt>
      <trkpt lat="45.07915" lon="5.57695">
        <ele>1124.8</ele>
      </trkpt>
      <trkpt lat="45.07936" lon="5.57713">
        <ele>1123.6</ele>
      </trkpt>
      <trkpt lat="45.07943" lon="5.57692">
        <ele>1120.9</ele>
      </trkpt>
      <trkpt lat="45.07951" lon="5.5767">
        <ele>1118.2</ele>
      </trkpt>
      <trkpt lat="45.07952" lon="5.57657">
        <ele>1117.1</ele>
      </trkpt>
      <trkpt lat="45.07945" lon="5.57649">
        <ele>1117.3</ele>
      </trkpt>
      <trkpt lat="45.07932" lon="5.57633">
        <ele>1117.9</ele>
      </trkpt>
      <trkpt lat="45.07926" lon="5.57611">
        <ele>1117.3</ele>
      </trkpt>
      <trkpt lat="45.07925" lon="5.57584">
        <ele>1115.8</ele>
      </trkpt>
      <trkpt lat="45.07919" lon="5.57566">
        <ele>1113.7</ele>
      </trkpt>
      <trkpt lat="45.07882" lon="5.57526">
        <ele>1107</ele>
      </trkpt>
      <trkpt lat="45.07869" lon="5.57517">
        <ele>1105.8</ele>
      </trkpt>
      <trkpt lat="45.07863" lon="5.57512">
        <ele>1105</ele>
      </trkpt>
      <trkpt lat="45.07857" lon="5.57501">
        <ele>1103.8</ele>
      </trkpt>
      <trkpt lat="45.0786" lon="5.57492">
        <ele>1102.9</ele>
      </trkpt>
      <trkpt lat="45.07857" lon="5.57501">
        <ele>1103.8</ele>
      </trkpt>
      <trkpt lat="45.07885" lon="5.57496">
        <ele>1102.8</ele>
      </trkpt>
      <trkpt lat="45.07905" lon="5.57483">
        <ele>1099.9</ele>
      </trkpt>
      <trkpt lat="45.07921" lon="5.5747">
        <ele>1096.3</ele>
      </trkpt>
      <trkpt lat="45.0794" lon="5.57463">
        <ele>1092.7</ele>
      </trkpt>
      <trkpt lat="45.07958" lon="5.57472">
        <ele>1091.8</ele>
      </trkpt>
      <trkpt lat="45.07974" lon="5.57486">
        <ele>1091.6</ele>
      </trkpt>
      <trkpt lat="45.07986" lon="5.57511">
        <ele>1093.4</ele>
      </trkpt>
      <trkpt lat="45.0801" lon="5.57532">
        <ele>1093.6</ele>
      </trkpt>
      <trkpt lat="45.08023" lon="5.57545">
        <ele>1094.4</ele>
      </trkpt>
      <trkpt lat="45.08038" lon="5.57558">
        <ele>1094.4</ele>
      </trkpt>
      <trkpt lat="45.08057" lon="5.5759">
        <ele>1096.4</ele>
      </trkpt>
      <trkpt lat="45.0808" lon="5.57613">
        <ele>1095.3</ele>
      </trkpt>
      <trkpt lat="45.08103" lon="5.5761">
        <ele>1093.6</ele>
      </trkpt>
      <trkpt lat="45.08178" lon="5.5759">
        <ele>1089</ele>
      </trkpt>
      <trkpt lat="45.08207" lon="5.57573">
        <ele>1086.3</ele>
      </trkpt>
      <trkpt lat="45.08229" lon="5.57556">
        <ele>1084</ele>
      </trkpt>
      <trkpt lat="45.08247" lon="5.57539">
        <ele>1082.3</ele>
      </trkpt>
      <trkpt lat="45.08252" lon="5.57537">
        <ele>1081.9</ele>
      </trkpt>
      <trkpt lat="45.08253" lon="5.5753">
        <ele>1081.3</ele>
      </trkpt>
      <trkpt lat="45.08255" lon="5.57493">
        <ele>1078.1</ele>
      </trkpt>
      <trkpt lat="45.08246" lon="5.57391">
        <ele>1068.2</ele>
      </trkpt>
      <trkpt lat="45.08254" lon="5.57329">
        <ele>1061.7</ele>
      </trkpt>
      <trkpt lat="45.08282" lon="5.57259">
        <ele>1053.9</ele>
      </trkpt>
      <trkpt lat="45.08289" lon="5.57247">
        <ele>1052.1</ele>
      </trkpt>
      <trkpt lat="45.08365" lon="5.57124">
        <ele>1041</ele>
      </trkpt>
      <trkpt lat="45.08379" lon="5.57007">
        <ele>1035.4</ele>
      </trkpt>
      <trkpt lat="45.08388" lon="5.56954">
        <ele>1033.6</ele>
      </trkpt>
      <trkpt lat="45.08391" lon="5.56932">
        <ele>1032.8</ele>
      </trkpt>
      <trkpt lat="45.084" lon="5.56912">
        <ele>1032.5</ele>
      </trkpt>
      <trkpt lat="45.0843" lon="5.56866">
        <ele>1032.7</ele>
      </trkpt>
      <trkpt lat="45.0844" lon="5.56842">
        <ele>1031.8</ele>
      </trkpt>
      <trkpt lat="45.08438" lon="5.56835">
        <ele>1032.2</ele>
      </trkpt>
      <trkpt lat="45.0844" lon="5.56842">
        <ele>1031.8</ele>
      </trkpt>
      <trkpt lat="45.08448" lon="5.56857">
        <ele>1030.7</ele>
      </trkpt>
      <trkpt lat="45.08467" lon="5.56927">
        <ele>1028.9</ele>
      </trkpt>
      <trkpt lat="45.08507" lon="5.56983">
        <ele>1024.1</ele>
      </trkpt>
      <trkpt lat="45.08524" lon="5.57003">
        <ele>1023.5</ele>
      </trkpt>
      <trkpt lat="45.08539" lon="5.57013">
        <ele>1023.7</ele>
      </trkpt>
      <trkpt lat="45.08575" lon="5.57018">
        <ele>1023.1</ele>
      </trkpt>
      <trkpt lat="45.0861" lon="5.5702">
        <ele>1025.9</ele>
      </trkpt>
      <trkpt lat="45.08625" lon="5.57016">
        <ele>1027.2</ele>
      </trkpt>
      <trkpt lat="45.08648" lon="5.57005">
        <ele>1028.6</ele>
      </trkpt>
      <trkpt lat="45.08673" lon="5.56978">
        <ele>1028.4</ele>
      </trkpt>
      <trkpt lat="45.0871" lon="5.56921">
        <ele>1028</ele>
      </trkpt>
      <trkpt lat="45.08715" lon="5.56918">
        <ele>1028.5</ele>
      </trkpt>
      <trkpt lat="45.08716" lon="5.56943">
        <ele>1030</ele>
      </trkpt>
      <trkpt lat="45.08721" lon="5.56939">
        <ele>1030.5</ele>
      </trkpt>
      <trkpt lat="45.08731" lon="5.56913">
        <ele>1030.4</ele>
      </trkpt>
      <trkpt lat="45.08739" lon="5.56897">
        <ele>1030.8</ele>
      </trkpt>
      <trkpt lat="45.08753" lon="5.56877">
        <ele>1031.5</ele>
      </trkpt>
      <trkpt lat="45.08765" lon="5.56846">
        <ele>1030.5</ele>
      </trkpt>
      <trkpt lat="45.08773" lon="5.56818">
        <ele>1029.6</ele>
      </trkpt>
      <trkpt lat="45.08779" lon="5.56818">
        <ele>1029.7</ele>
      </trkpt>
      <trkpt lat="45.08902" lon="5.56822">
        <ele>1027.8</ele>
      </trkpt>
      <trkpt lat="45.08907" lon="5.56817">
        <ele>1027.2</ele>
      </trkpt>
      <trkpt lat="45.08998" lon="5.56838">
        <ele>1025.2</ele>
      </trkpt>
      <trkpt lat="45.09051" lon="5.56758">
        <ele>1023.7</ele>
      </trkpt>
      <trkpt lat="45.09089" lon="5.56724">
        <ele>1023.7</ele>
      </trkpt>
      <trkpt lat="45.09142" lon="5.56654">
        <ele>1020.5</ele>
      </trkpt>
      <trkpt lat="45.09228" lon="5.56541">
        <ele>1010.9</ele>
      </trkpt>
      <trkpt lat="45.09262" lon="5.56468">
        <ele>1011.2</ele>
      </trkpt>
      <trkpt lat="45.09317" lon="5.56361">
        <ele>1009.1</ele>
      </trkpt>
      <trkpt lat="45.09334" lon="5.56303">
        <ele>1003</ele>
      </trkpt>
      <trkpt lat="45.09368" lon="5.56221">
        <ele>995.3</ele>
      </trkpt>
      <trkpt lat="45.09373" lon="5.56214">
        <ele>995.1</ele>
      </trkpt>
      <trkpt lat="45.0942" lon="5.56148">
        <ele>994.6</ele>
      </trkpt>
      <trkpt lat="45.09488" lon="5.56085">
        <ele>992.3</ele>
      </trkpt>
      <trkpt lat="45.09501" lon="5.56062">
        <ele>991.5</ele>
      </trkpt>
      <trkpt lat="45.09527" lon="5.5597">
        <ele>987.2</ele>
      </trkpt>
      <trkpt lat="45.09539" lon="5.55948">
        <ele>985.3</ele>
      </trkpt>
      <trkpt lat="45.09594" lon="5.55938">
        <ele>982.1</ele>
      </trkpt>
      <trkpt lat="45.09616" lon="5.55921">
        <ele>981.2</ele>
      </trkpt>
      <trkpt lat="45.09629" lon="5.55897">
        <ele>980.9</ele>
      </trkpt>
      <trkpt lat="45.09637" lon="5.55904">
        <ele>980.9</ele>
      </trkpt>
      <trkpt lat="45.09641" lon="5.55898">
        <ele>980.9</ele>
      </trkpt>
      <trkpt lat="45.09637" lon="5.55904">
        <ele>980.9</ele>
      </trkpt>
      <trkpt lat="45.09629" lon="5.55897">
        <ele>980.9</ele>
      </trkpt>
      <trkpt lat="45.09485" lon="5.55769">
        <ele>981.9</ele>
      </trkpt>
      <trkpt lat="45.09439" lon="5.55693">
        <ele>982.2</ele>
      </trkpt>
      <trkpt lat="45.09417" lon="5.55655">
        <ele>981.9</ele>
      </trkpt>
      <trkpt lat="45.09269" lon="5.55621">
        <ele>979.5</ele>
      </trkpt>
      <trkpt lat="45.09267" lon="5.55622">
        <ele>979.4</ele>
      </trkpt>
      <trkpt lat="45.09261" lon="5.55626">
        <ele>979.3</ele>
      </trkpt>
      <trkpt lat="45.09252" lon="5.5564">
        <ele>979.4</ele>
      </trkpt>
      <trkpt lat="45.09221" lon="5.55673">
        <ele>979.6</ele>
      </trkpt>
      <trkpt lat="45.092" lon="5.55692">
        <ele>979.9</ele>
      </trkpt>
      <trkpt lat="45.09174" lon="5.55711">
        <ele>980.2</ele>
      </trkpt>
      <trkpt lat="45.09161" lon="5.55723">
        <ele>980.6</ele>
      </trkpt>
      <trkpt lat="45.09152" lon="5.55736">
        <ele>981.2</ele>
      </trkpt>
      <trkpt lat="45.09118" lon="5.5572">
        <ele>980.2</ele>
      </trkpt>
      <trkpt lat="45.09094" lon="5.5571">
        <ele>979.6</ele>
      </trkpt>
      <trkpt lat="45.0908" lon="5.55706">
        <ele>979.4</ele>
      </trkpt>
      <trkpt lat="45.09068" lon="5.55705">
        <ele>979.2</ele>
      </trkpt>
      <trkpt lat="45.09055" lon="5.55709">
        <ele>979.2</ele>
      </trkpt>
      <trkpt lat="45.0902" lon="5.55734">
        <ele>978.7</ele>
      </trkpt>
      <trkpt lat="45.0901" lon="5.55735">
        <ele>978.5</ele>
      </trkpt>
      <trkpt lat="45.08999" lon="5.55732">
        <ele>978.3</ele>
      </trkpt>
      <trkpt lat="45.08994" lon="5.55727">
        <ele>978.6</ele>
      </trkpt>
      <trkpt lat="45.08958" lon="5.55699">
        <ele>980.2</ele>
      </trkpt>
      <trkpt lat="45.0892" lon="5.5567">
        <ele>981</ele>
      </trkpt>
      <trkpt lat="45.08906" lon="5.55659">
        <ele>980.8</ele>
      </trkpt>
      <trkpt lat="45.08862" lon="5.55615">
        <ele>980.4</ele>
      </trkpt>
      <trkpt lat="45.08831" lon="5.5559">
        <ele>981.1</ele>
      </trkpt>
      <trkpt lat="45.08808" lon="5.55571">
        <ele>980.9</ele>
      </trkpt>
      <trkpt lat="45.08761" lon="5.55542">
        <ele>981.4</ele>
      </trkpt>
      <trkpt lat="45.08704" lon="5.55513">
        <ele>980.4</ele>
      </trkpt>
      <trkpt lat="45.08631" lon="5.55488">
        <ele>978.8</ele>
      </trkpt>
      <trkpt lat="45.08579" lon="5.55474">
        <ele>978.4</ele>
      </trkpt>
      <trkpt lat="45.08569" lon="5.55474">
        <ele>978.5</ele>
      </trkpt>
      <trkpt lat="45.08523" lon="5.55483">
        <ele>979.2</ele>
      </trkpt>
      <trkpt lat="45.0852" lon="5.55484">
        <ele>979.2</ele>
      </trkpt>
      <trkpt lat="45.0852" lon="5.55478">
        <ele>979</ele>
      </trkpt>
      <trkpt lat="45.08515" lon="5.55428">
        <ele>977.4</ele>
      </trkpt>
      <trkpt lat="45.08516" lon="5.5542">
        <ele>977.1</ele>
      </trkpt>
      <trkpt lat="45.08517" lon="5.55414">
        <ele>977</ele>
      </trkpt>
      <trkpt lat="45.0852" lon="5.55408">
        <ele>976.9</ele>
      </trkpt>
      <trkpt lat="45.08524" lon="5.55388">
        <ele>976.6</ele>
      </trkpt>
      <trkpt lat="45.08528" lon="5.55343">
        <ele>975.8</ele>
      </trkpt>
      <trkpt lat="45.0853" lon="5.55286">
        <ele>973.9</ele>
      </trkpt>
      <trkpt lat="45.08513" lon="5.55216">
        <ele>972.2</ele>
      </trkpt>
      <trkpt lat="45.0851" lon="5.55174">
        <ele>971.4</ele>
      </trkpt>
      <trkpt lat="45.08505" lon="5.55122">
        <ele>974.3</ele>
      </trkpt>
      <trkpt lat="45.08504" lon="5.55109">
        <ele>975.2</ele>
      </trkpt>
      <trkpt lat="45.08503" lon="5.55096">
        <ele>976.2</ele>
      </trkpt>
      <trkpt lat="45.08503" lon="5.55086">
        <ele>976.9</ele>
      </trkpt>
      <trkpt lat="45.08502" lon="5.55085">
        <ele>976.9</ele>
      </trkpt>
      <trkpt lat="45.08487" lon="5.5508">
        <ele>977.2</ele>
      </trkpt>
      <trkpt lat="45.08413" lon="5.55079">
        <ele>973.8</ele>
      </trkpt>
      <trkpt lat="45.0838" lon="5.55063">
        <ele>975.5</ele>
      </trkpt>
      <trkpt lat="45.08344" lon="5.5506">
        <ele>974.5</ele>
      </trkpt>
      <trkpt lat="45.08322" lon="5.55053">
        <ele>975</ele>
      </trkpt>
      <trkpt lat="45.08296" lon="5.55035">
        <ele>976.7</ele>
      </trkpt>
      <trkpt lat="45.08241" lon="5.55009">
        <ele>976.5</ele>
      </trkpt>
      <trkpt lat="45.08212" lon="5.54998">
        <ele>976.6</ele>
      </trkpt>
      <trkpt lat="45.08173" lon="5.54971">
        <ele>983.7</ele>
      </trkpt>
      <trkpt lat="45.08147" lon="5.54957">
        <ele>985.5</ele>
      </trkpt>
      <trkpt lat="45.08122" lon="5.54936">
        <ele>988</ele>
      </trkpt>
      <trkpt lat="45.08093" lon="5.54909">
        <ele>991.3</ele>
      </trkpt>
      <trkpt lat="45.0809" lon="5.54906">
        <ele>991.7</ele>
      </trkpt>
      <trkpt lat="45.08072" lon="5.54893">
        <ele>993.8</ele>
      </trkpt>
      <trkpt lat="45.08036" lon="5.54877">
        <ele>993.4</ele>
      </trkpt>
      <trkpt lat="45.08003" lon="5.54867">
        <ele>991</ele>
      </trkpt>
      <trkpt lat="45.07965" lon="5.54863">
        <ele>989</ele>
      </trkpt>
      <trkpt lat="45.07924" lon="5.54859">
        <ele>986.3</ele>
      </trkpt>
      <trkpt lat="45.07912" lon="5.54862">
        <ele>984.1</ele>
      </trkpt>
      <trkpt lat="45.07887" lon="5.54864">
        <ele>980.3</ele>
      </trkpt>
      <trkpt lat="45.07793" lon="5.54827">
        <ele>978</ele>
      </trkpt>
      <trkpt lat="45.07587" lon="5.54725">
        <ele>983.6</ele>
      </trkpt>
      <trkpt lat="45.07568" lon="5.54719">
        <ele>982.7</ele>
      </trkpt>
      <trkpt lat="45.07552" lon="5.54715">
        <ele>981.5</ele>
      </trkpt>
      <trkpt lat="45.07525" lon="5.54708">
        <ele>978</ele>
      </trkpt>
      <trkpt lat="45.07495" lon="5.54689">
        <ele>975.4</ele>
      </trkpt>
      <trkpt lat="45.07471" lon="5.54677">
        <ele>974</ele>
      </trkpt>
      <trkpt lat="45.07452" lon="5.54666">
        <ele>972.1</ele>
      </trkpt>
      <trkpt lat="45.07408" lon="5.54628">
        <ele>972</ele>
      </trkpt>
      <trkpt lat="45.07403" lon="5.5462">
        <ele>972.9</ele>
      </trkpt>
      <trkpt lat="45.074" lon="5.54624">
        <ele>971.9</ele>
      </trkpt>
      <trkpt lat="45.07393" lon="5.54638">
        <ele>968.9</ele>
      </trkpt>
      <trkpt lat="45.07382" lon="5.547">
        <ele>964.6</ele>
      </trkpt>
      <trkpt lat="45.07379" lon="5.54724">
        <ele>965</ele>
      </trkpt>
      <trkpt lat="45.07376" lon="5.54744">
        <ele>965.4</ele>
      </trkpt>
      <trkpt lat="45.07376" lon="5.54769">
        <ele>967</ele>
      </trkpt>
      <trkpt lat="45.07379" lon="5.54783">
        <ele>968</ele>
      </trkpt>
      <trkpt lat="45.07373" lon="5.54788">
        <ele>968.8</ele>
      </trkpt>
      <trkpt lat="45.07377" lon="5.54803">
        <ele>969.8</ele>
      </trkpt>
      <trkpt lat="45.07382" lon="5.54816">
        <ele>970.4</ele>
      </trkpt>
      <trkpt lat="45.07379" lon="5.54819">
        <ele>970.9</ele>
      </trkpt>
      <trkpt lat="45.07374" lon="5.54824">
        <ele>971.8</ele>
      </trkpt>
      <trkpt lat="45.07368" lon="5.54824">
        <ele>972.4</ele>
      </trkpt>
      <trkpt lat="45.07324" lon="5.54779">
        <ele>971.5</ele>
      </trkpt>
      <trkpt lat="45.07299" lon="5.54766">
        <ele>972.4</ele>
      </trkpt>
      <trkpt lat="45.07283" lon="5.54764">
        <ele>973.6</ele>
      </trkpt>
      <trkpt lat="45.07263" lon="5.54765">
        <ele>975.8</ele>
      </trkpt>
      <trkpt lat="45.07235" lon="5.54775">
        <ele>980.6</ele>
      </trkpt>
      <trkpt lat="45.07209" lon="5.5477">
        <ele>982.1</ele>
      </trkpt>
      <trkpt lat="45.07207" lon="5.5477">
        <ele>982.2</ele>
      </trkpt>
      <trkpt lat="45.07165" lon="5.54748">
        <ele>981.8</ele>
      </trkpt>
      <trkpt lat="45.07137" lon="5.54734">
        <ele>981</ele>
      </trkpt>
      <trkpt lat="45.07106" lon="5.54724">
        <ele>980.5</ele>
      </trkpt>
      <trkpt lat="45.07091" lon="5.54718">
        <ele>979.9</ele>
      </trkpt>
      <trkpt lat="45.07052" lon="5.54698">
        <ele>977.4</ele>
      </trkpt>
      <trkpt lat="45.07041" lon="5.54696">
        <ele>977.6</ele>
      </trkpt>
      <trkpt lat="45.0704" lon="5.54696">
        <ele>977.6</ele>
      </trkpt>
      <trkpt lat="45.06977" lon="5.54693">
        <ele>979.5</ele>
      </trkpt>
      <trkpt lat="45.06946" lon="5.54693">
        <ele>979.6</ele>
      </trkpt>
      <trkpt lat="45.06915" lon="5.54691">
        <ele>979.4</ele>
      </trkpt>
      <trkpt lat="45.06905" lon="5.54694">
        <ele>979.7</ele>
      </trkpt>
      <trkpt lat="45.06893" lon="5.547">
        <ele>980.5</ele>
      </trkpt>
      <trkpt lat="45.06887" lon="5.54709">
        <ele>981.5</ele>
      </trkpt>
      <trkpt lat="45.0688" lon="5.54719">
        <ele>982.5</ele>
      </trkpt>
      <trkpt lat="45.06855" lon="5.54761">
        <ele>985.2</ele>
      </trkpt>
      <trkpt lat="45.06835" lon="5.54798">
        <ele>985.6</ele>
      </trkpt>
      <trkpt lat="45.0681" lon="5.54842">
        <ele>987.9</ele>
      </trkpt>
      <trkpt lat="45.06806" lon="5.54846">
        <ele>988</ele>
      </trkpt>
      <trkpt lat="45.06805" lon="5.54845">
        <ele>987.9</ele>
      </trkpt>
      <trkpt lat="45.06804" lon="5.54845">
        <ele>987.9</ele>
      </trkpt>
      <trkpt lat="45.06798" lon="5.54841">
        <ele>987.5</ele>
      </trkpt>
      <trkpt lat="45.06796" lon="5.54838">
        <ele>987.3</ele>
      </trkpt>
      <trkpt lat="45.06796" lon="5.54836">
        <ele>987.2</ele>
      </trkpt>
      <trkpt lat="45.06773" lon="5.54801">
        <ele>985.1</ele>
      </trkpt>
      <trkpt lat="45.06758" lon="5.54773">
        <ele>983.8</ele>
      </trkpt>
      <trkpt lat="45.06755" lon="5.54773">
        <ele>983.8</ele>
      </trkpt>
      <trkpt lat="45.06751" lon="5.54773">
        <ele>983.8</ele>
      </trkpt>
      <trkpt lat="45.06755" lon="5.54773">
        <ele>983.8</ele>
      </trkpt>
      <trkpt lat="45.06756" lon="5.54785">
        <ele>984.3</ele>
      </trkpt>
      <trkpt lat="45.06756" lon="5.548">
        <ele>984.8</ele>
      </trkpt>
      <trkpt lat="45.06752" lon="5.54989">
        <ele>991.8</ele>
      </trkpt>
      <trkpt lat="45.0675" lon="5.55086">
        <ele>994.1</ele>
      </trkpt>
      <trkpt lat="45.0675" lon="5.5509">
        <ele>994.2</ele>
      </trkpt>
      <trkpt lat="45.0675" lon="5.55093">
        <ele>994.3</ele>
      </trkpt>
      <trkpt lat="45.0675" lon="5.551">
        <ele>994.6</ele>
      </trkpt>
      <trkpt lat="45.06701" lon="5.55098">
        <ele>996.9</ele>
      </trkpt>
      <trkpt lat="45.06695" lon="5.551">
        <ele>997.2</ele>
      </trkpt>
      <trkpt lat="45.0669" lon="5.55103">
        <ele>997.6</ele>
      </trkpt>
      <trkpt lat="45.06672" lon="5.55103">
        <ele>998.5</ele>
      </trkpt>
      <trkpt lat="45.06669" lon="5.55098">
        <ele>998.4</ele>
      </trkpt>
      <trkpt lat="45.06668" lon="5.55093">
        <ele>998.3</ele>
      </trkpt>
      <trkpt lat="45.0667" lon="5.55087">
        <ele>998</ele>
      </trkpt>
      <trkpt lat="45.06673" lon="5.55085">
        <ele>997.7</ele>
      </trkpt>
      <trkpt lat="45.06671" lon="5.55082">
        <ele>997.8</ele>
      </trkpt>
      <trkpt lat="45.06669" lon="5.5508">
        <ele>997.9</ele>
      </trkpt>
    </trkseg>
  </trk>
  <trk>
    <name><![CDATA[Rouge - La Royale]]></name>
    <desc><![CDATA[<p id="docs-internal-guid-dd4530d5-7fff-1d54-8105-3a644cba987e" dir="ltr"><span>Depuis <strong>Bois Barbu</strong>, descendre en direction de <strong><em>Villard-de-Lans</em></strong> en passant par le carrefour des<em>&nbsp;</em><em>Touches<em>&nbsp;<span class="circle">1</span></em></em>. Remonter en direction du <em>col du Liorin<em>&nbsp;<span class="circle">2</span></em></em>, se diriger par un tr&egrave;s beau sentier vers<em> G&eacute;n&eacute;ty<em>&nbsp;<span class="circle">3</span></em></em>, et traverser la for&ecirc;t de la Loubi&egrave;re pour rejoindre <em>Sapin Bellier<em>&nbsp;<span class="circle">4</span></em></em>. le<em>&nbsp;Carrefour de la Glaci&egrave;re<em>&nbsp;<span class="circle">5</span></em></em>, suivre <em>Malaterre</em> <em><span class="circle">6</span>&nbsp;</em>et passer &agrave; proximit&eacute; de l'Auberge. Remonter ensuite vers<em> Pr&eacute; Pansu<em>&nbsp;<span class="circle">7</span></em></em> puis par une belle piste en for&ecirc;t, rejoindre le carrefour de <em>Pierre Copante<em>&nbsp;<span class="circle">8</span></em></em>. On d&eacute;couvre ici la piste de skis &agrave; roulettes am&eacute;nag&eacute;e pour l'entrainement des sportifs et contemplatifs. Poursuivre en direction de <em>La Fleur du Roy<em>&nbsp;<span class="circle">9</span></em></em>, passer &agrave; proximit&eacute; de l'<em>Auberge du Clariant<em>&nbsp;<span class="circle">10</span></em></em>, et rejoindre le col du <em>Pas de l'&acirc;ne<em>&nbsp;<span class="circle">11</span></em></em>. La piste foresti&egrave;re redescend ensuite en direction de <em>Roybon<em>&nbsp;<span class="circle">12</span></em></em> pour passer devant l'auberge, puis dans la plaine d'<em>Herbouilly<em>&nbsp;<span class="circle">13</span></em></em> en passant par le carrefour du<em> Pot du Loup<em>&nbsp;<span class="circle">14</span></em></em>. Remonter alors vers le <em>Col de Chalimont<em>&nbsp;<span class="circle">15</span></em>,&nbsp;</em>passer &agrave; proximit&eacute; de la Baraque de Chalimont et rejoindre le site historique de<em> Valchevri&egrave;re<em>&nbsp;<span class="circle">16</span></em></em>. Atteindre le belv&eacute;d&egrave;re de Valchevri&egrave;re, puis en longeant la route, passer au carrefour des <em>Avants Postes<em>&nbsp;<span class="circle">17</span></em></em> et rejoindre progressivement le point de d&eacute;part, <strong><em>Bois Barbu</em></strong>.</span></p>Modifié: 1 an]]></desc>
    <trkseg>
      <trkpt lat="45.05997" lon="5.52251">
        <ele>1136.1</ele>
      </trkpt>
      <trkpt lat="45.06022" lon="5.52275">
        <ele>1136.8</ele>
      </trkpt>
      <trkpt lat="45.0605" lon="5.52313">
        <ele>1137.8</ele>
      </trkpt>
      <trkpt lat="45.06054" lon="5.52325">
        <ele>1138.3</ele>
      </trkpt>
      <trkpt lat="45.06061" lon="5.52361">
        <ele>1140</ele>
      </trkpt>
      <trkpt lat="45.06047" lon="5.52385">
        <ele>1142.3</ele>
      </trkpt>
      <trkpt lat="45.06039" lon="5.52417">
        <ele>1144.7</ele>
      </trkpt>
      <trkpt lat="45.06044" lon="5.52437">
        <ele>1146.9</ele>
      </trkpt>
      <trkpt lat="45.06057" lon="5.52453">
        <ele>1148</ele>
      </trkpt>
      <trkpt lat="45.06078" lon="5.52465">
        <ele>1147.6</ele>
      </trkpt>
      <trkpt lat="45.06138" lon="5.52476">
        <ele>1147.3</ele>
      </trkpt>
      <trkpt lat="45.06156" lon="5.52485">
        <ele>1148.5</ele>
      </trkpt>
      <trkpt lat="45.06177" lon="5.52506">
        <ele>1150.7</ele>
      </trkpt>
      <trkpt lat="45.06195" lon="5.52587">
        <ele>1163.5</ele>
      </trkpt>
      <trkpt lat="45.06204" lon="5.52604">
        <ele>1165.3</ele>
      </trkpt>
      <trkpt lat="45.06282" lon="5.52628">
        <ele>1167</ele>
      </trkpt>
      <trkpt lat="45.06334" lon="5.52637">
        <ele>1169.2</ele>
      </trkpt>
      <trkpt lat="45.06332" lon="5.52661">
        <ele>1173.8</ele>
      </trkpt>
      <trkpt lat="45.06317" lon="5.52687">
        <ele>1175.7</ele>
      </trkpt>
      <trkpt lat="45.06296" lon="5.52706">
        <ele>1176.6</ele>
      </trkpt>
      <trkpt lat="45.06286" lon="5.52719">
        <ele>1177.5</ele>
      </trkpt>
      <trkpt lat="45.06274" lon="5.52744">
        <ele>1179.3</ele>
      </trkpt>
      <trkpt lat="45.06261" lon="5.52772">
        <ele>1181.4</ele>
      </trkpt>
      <trkpt lat="45.06244" lon="5.52831">
        <ele>1186.1</ele>
      </trkpt>
      <trkpt lat="45.06198" lon="5.52871">
        <ele>1191.1</ele>
      </trkpt>
      <trkpt lat="45.0616" lon="5.52874">
        <ele>1194.3</ele>
      </trkpt>
      <trkpt lat="45.06113" lon="5.52839">
        <ele>1197.9</ele>
      </trkpt>
      <trkpt lat="45.06053" lon="5.52804">
        <ele>1200.4</ele>
      </trkpt>
      <trkpt lat="45.05963" lon="5.52779">
        <ele>1199.1</ele>
      </trkpt>
      <trkpt lat="45.05925" lon="5.52739">
        <ele>1195.1</ele>
      </trkpt>
      <trkpt lat="45.05925" lon="5.52739">
        <ele>1195.1</ele>
      </trkpt>
      <trkpt lat="45.05891" lon="5.52721">
        <ele>1195.5</ele>
      </trkpt>
      <trkpt lat="45.05785" lon="5.52713">
        <ele>1203.2</ele>
      </trkpt>
      <trkpt lat="45.05762" lon="5.52704">
        <ele>1204.4</ele>
      </trkpt>
      <trkpt lat="45.05741" lon="5.52688">
        <ele>1204.8</ele>
      </trkpt>
      <trkpt lat="45.05684" lon="5.52688">
        <ele>1209.8</ele>
      </trkpt>
      <trkpt lat="45.05601" lon="5.52718">
        <ele>1214.5</ele>
      </trkpt>
      <trkpt lat="45.05578" lon="5.52719">
        <ele>1215.1</ele>
      </trkpt>
      <trkpt lat="45.05557" lon="5.52709">
        <ele>1217.1</ele>
      </trkpt>
      <trkpt lat="45.05534" lon="5.52677">
        <ele>1217.4</ele>
      </trkpt>
      <trkpt lat="45.05518" lon="5.52661">
        <ele>1217.8</ele>
      </trkpt>
      <trkpt lat="45.05484" lon="5.52651">
        <ele>1220.9</ele>
      </trkpt>
      <trkpt lat="45.0541" lon="5.52645">
        <ele>1230.5</ele>
      </trkpt>
      <trkpt lat="45.05338" lon="5.52586">
        <ele>1230.9</ele>
      </trkpt>
      <trkpt lat="45.0532" lon="5.5257">
        <ele>1230.2</ele>
      </trkpt>
      <trkpt lat="45.05205" lon="5.52434">
        <ele>1241.5</ele>
      </trkpt>
      <trkpt lat="45.05169" lon="5.52403">
        <ele>1244.9</ele>
      </trkpt>
      <trkpt lat="45.05131" lon="5.5239">
        <ele>1246.5</ele>
      </trkpt>
      <trkpt lat="45.05135" lon="5.52357">
        <ele>1249</ele>
      </trkpt>
      <trkpt lat="45.05132" lon="5.52327">
        <ele>1250.9</ele>
      </trkpt>
      <trkpt lat="45.05132" lon="5.52302">
        <ele>1251.2</ele>
      </trkpt>
      <trkpt lat="45.05131" lon="5.52286">
        <ele>1251.4</ele>
      </trkpt>
      <trkpt lat="45.05134" lon="5.5226">
        <ele>1251.7</ele>
      </trkpt>
      <trkpt lat="45.05135" lon="5.52246">
        <ele>1251.6</ele>
      </trkpt>
      <trkpt lat="45.05135" lon="5.52229">
        <ele>1250.8</ele>
      </trkpt>
      <trkpt lat="45.05134" lon="5.52223">
        <ele>1250.6</ele>
      </trkpt>
      <trkpt lat="45.05129" lon="5.52212">
        <ele>1250.4</ele>
      </trkpt>
      <trkpt lat="45.05122" lon="5.52206">
        <ele>1250.6</ele>
      </trkpt>
      <trkpt lat="45.05114" lon="5.52199">
        <ele>1250.9</ele>
      </trkpt>
      <trkpt lat="45.05109" lon="5.52195">
        <ele>1251.1</ele>
      </trkpt>
      <trkpt lat="45.05101" lon="5.52182">
        <ele>1251.6</ele>
      </trkpt>
      <trkpt lat="45.05096" lon="5.52174">
        <ele>1251.8</ele>
      </trkpt>
      <trkpt lat="45.05089" lon="5.52167">
        <ele>1252.4</ele>
      </trkpt>
      <trkpt lat="45.05078" lon="5.52163">
        <ele>1252.8</ele>
      </trkpt>
      <trkpt lat="45.05078" lon="5.52163">
        <ele>1252.8</ele>
      </trkpt>
      <trkpt lat="45.05063" lon="5.52162">
        <ele>1253.3</ele>
      </trkpt>
      <trkpt lat="45.05052" lon="5.52159">
        <ele>1253.4</ele>
      </trkpt>
      <trkpt lat="45.05042" lon="5.52152">
        <ele>1253</ele>
      </trkpt>
      <trkpt lat="45.05037" lon="5.52146">
        <ele>1252.6</ele>
      </trkpt>
      <trkpt lat="45.05031" lon="5.52141">
        <ele>1252.3</ele>
      </trkpt>
      <trkpt lat="45.05026" lon="5.52138">
        <ele>1252.2</ele>
      </trkpt>
      <trkpt lat="45.05021" lon="5.52137">
        <ele>1252.3</ele>
      </trkpt>
      <trkpt lat="45.05007" lon="5.52139">
        <ele>1253</ele>
      </trkpt>
      <trkpt lat="45.04995" lon="5.52136">
        <ele>1252.9</ele>
      </trkpt>
      <trkpt lat="45.04985" lon="5.52121">
        <ele>1251.3</ele>
      </trkpt>
      <trkpt lat="45.04981" lon="5.52106">
        <ele>1249.9</ele>
      </trkpt>
      <trkpt lat="45.04978" lon="5.52094">
        <ele>1248.9</ele>
      </trkpt>
      <trkpt lat="45.04974" lon="5.52079">
        <ele>1247.4</ele>
      </trkpt>
      <trkpt lat="45.04969" lon="5.52065">
        <ele>1245.5</ele>
      </trkpt>
      <trkpt lat="45.04963" lon="5.5207">
        <ele>1246.1</ele>
      </trkpt>
      <trkpt lat="45.04955" lon="5.52074">
        <ele>1246.7</ele>
      </trkpt>
      <trkpt lat="45.04946" lon="5.52079">
        <ele>1247.3</ele>
      </trkpt>
      <trkpt lat="45.04935" lon="5.52083">
        <ele>1248</ele>
      </trkpt>
      <trkpt lat="45.04923" lon="5.52086">
        <ele>1248.1</ele>
      </trkpt>
      <trkpt lat="45.04911" lon="5.52087">
        <ele>1248</ele>
      </trkpt>
      <trkpt lat="45.04902" lon="5.52092">
        <ele>1247.9</ele>
      </trkpt>
      <trkpt lat="45.04893" lon="5.52098">
        <ele>1248</ele>
      </trkpt>
      <trkpt lat="45.0488" lon="5.52107">
        <ele>1248.2</ele>
      </trkpt>
      <trkpt lat="45.04866" lon="5.52113">
        <ele>1248.3</ele>
      </trkpt>
      <trkpt lat="45.04854" lon="5.52116">
        <ele>1248.2</ele>
      </trkpt>
      <trkpt lat="45.04841" lon="5.52118">
        <ele>1248</ele>
      </trkpt>
      <trkpt lat="45.04826" lon="5.52113">
        <ele>1247.3</ele>
      </trkpt>
      <trkpt lat="45.04798" lon="5.52093">
        <ele>1244.9</ele>
      </trkpt>
      <trkpt lat="45.04767" lon="5.52103">
        <ele>1244.8</ele>
      </trkpt>
      <trkpt lat="45.04732" lon="5.52123">
        <ele>1246.2</ele>
      </trkpt>
      <trkpt lat="45.04702" lon="5.52147">
        <ele>1247.7</ele>
      </trkpt>
      <trkpt lat="45.04679" lon="5.52151">
        <ele>1247.8</ele>
      </trkpt>
      <trkpt lat="45.04668" lon="5.52161">
        <ele>1247.9</ele>
      </trkpt>
      <trkpt lat="45.04658" lon="5.52176">
        <ele>1248.6</ele>
      </trkpt>
      <trkpt lat="45.04649" lon="5.5218">
        <ele>1249</ele>
      </trkpt>
      <trkpt lat="45.04611" lon="5.52181">
        <ele>1251.2</ele>
      </trkpt>
      <trkpt lat="45.0458" lon="5.52188">
        <ele>1252.4</ele>
      </trkpt>
      <trkpt lat="45.04591" lon="5.52136">
        <ele>1254.1</ele>
      </trkpt>
      <trkpt lat="45.04588" lon="5.52115">
        <ele>1254.8</ele>
      </trkpt>
      <trkpt lat="45.04591" lon="5.52101">
        <ele>1254.8</ele>
      </trkpt>
      <trkpt lat="45.046" lon="5.52089">
        <ele>1254.1</ele>
      </trkpt>
      <trkpt lat="45.04605" lon="5.52066">
        <ele>1253.4</ele>
      </trkpt>
      <trkpt lat="45.04601" lon="5.52044">
        <ele>1253.4</ele>
      </trkpt>
      <trkpt lat="45.04602" lon="5.52013">
        <ele>1252.7</ele>
      </trkpt>
      <trkpt lat="45.04606" lon="5.52002">
        <ele>1252.1</ele>
      </trkpt>
      <trkpt lat="45.04603" lon="5.51996">
        <ele>1252.5</ele>
      </trkpt>
      <trkpt lat="45.04603" lon="5.51933">
        <ele>1254.3</ele>
      </trkpt>
      <trkpt lat="45.04588" lon="5.519">
        <ele>1255.5</ele>
      </trkpt>
      <trkpt lat="45.0458" lon="5.51857">
        <ele>1255.7</ele>
      </trkpt>
      <trkpt lat="45.04588" lon="5.51846">
        <ele>1254.9</ele>
      </trkpt>
      <trkpt lat="45.04592" lon="5.51827">
        <ele>1254.2</ele>
      </trkpt>
      <trkpt lat="45.04602" lon="5.51815">
        <ele>1253.2</ele>
      </trkpt>
      <trkpt lat="45.04632" lon="5.51759">
        <ele>1248.9</ele>
      </trkpt>
      <trkpt lat="45.04644" lon="5.51729">
        <ele>1246.9</ele>
      </trkpt>
      <trkpt lat="45.04667" lon="5.51702">
        <ele>1243.7</ele>
      </trkpt>
      <trkpt lat="45.04675" lon="5.51669">
        <ele>1241.8</ele>
      </trkpt>
      <trkpt lat="45.04673" lon="5.51642">
        <ele>1242.9</ele>
      </trkpt>
      <trkpt lat="45.04688" lon="5.51592">
        <ele>1243.9</ele>
      </trkpt>
      <trkpt lat="45.04677" lon="5.51551">
        <ele>1244.7</ele>
      </trkpt>
      <trkpt lat="45.04664" lon="5.51535">
        <ele>1245.7</ele>
      </trkpt>
      <trkpt lat="45.04643" lon="5.51498">
        <ele>1249</ele>
      </trkpt>
      <trkpt lat="45.04639" lon="5.51482">
        <ele>1250.4</ele>
      </trkpt>
      <trkpt lat="45.04637" lon="5.51456">
        <ele>1251.7</ele>
      </trkpt>
      <trkpt lat="45.04649" lon="5.51427">
        <ele>1251.1</ele>
      </trkpt>
      <trkpt lat="45.0467" lon="5.51394">
        <ele>1248.2</ele>
      </trkpt>
      <trkpt lat="45.04668" lon="5.51388">
        <ele>1248.5</ele>
      </trkpt>
      <trkpt lat="45.04672" lon="5.51366">
        <ele>1247.7</ele>
      </trkpt>
      <trkpt lat="45.04672" lon="5.5133">
        <ele>1247.1</ele>
      </trkpt>
      <trkpt lat="45.04676" lon="5.51311">
        <ele>1245.1</ele>
      </trkpt>
      <trkpt lat="45.04651" lon="5.51288">
        <ele>1246.7</ele>
      </trkpt>
      <trkpt lat="45.0462" lon="5.51241">
        <ele>1245.7</ele>
      </trkpt>
      <trkpt lat="45.0461" lon="5.51237">
        <ele>1246.3</ele>
      </trkpt>
      <trkpt lat="45.0461" lon="5.51229">
        <ele>1244.9</ele>
      </trkpt>
      <trkpt lat="45.04602" lon="5.5122">
        <ele>1244.5</ele>
      </trkpt>
      <trkpt lat="45.04584" lon="5.51209">
        <ele>1245.1</ele>
      </trkpt>
      <trkpt lat="45.04562" lon="5.51202">
        <ele>1246.1</ele>
      </trkpt>
      <trkpt lat="45.04562" lon="5.51202">
        <ele>1246.1</ele>
      </trkpt>
      <trkpt lat="45.04557" lon="5.51197">
        <ele>1245.6</ele>
      </trkpt>
      <trkpt lat="45.04534" lon="5.5119">
        <ele>1246.2</ele>
      </trkpt>
      <trkpt lat="45.04523" lon="5.51191">
        <ele>1247.6</ele>
      </trkpt>
      <trkpt lat="45.04507" lon="5.51183">
        <ele>1247.2</ele>
      </trkpt>
      <trkpt lat="45.04464" lon="5.51184">
        <ele>1254</ele>
      </trkpt>
      <trkpt lat="45.0445" lon="5.51178">
        <ele>1255.2</ele>
      </trkpt>
      <trkpt lat="45.04448" lon="5.51172">
        <ele>1254.1</ele>
      </trkpt>
      <trkpt lat="45.04429" lon="5.51158">
        <ele>1254.7</ele>
      </trkpt>
      <trkpt lat="45.04415" lon="5.51131">
        <ele>1252.8</ele>
      </trkpt>
      <trkpt lat="45.04401" lon="5.51125">
        <ele>1254.8</ele>
      </trkpt>
      <trkpt lat="45.04382" lon="5.51107">
        <ele>1255.3</ele>
      </trkpt>
      <trkpt lat="45.0438" lon="5.51101">
        <ele>1254.4</ele>
      </trkpt>
      <trkpt lat="45.04342" lon="5.51079">
        <ele>1256.5</ele>
      </trkpt>
      <trkpt lat="45.04328" lon="5.51075">
        <ele>1257.8</ele>
      </trkpt>
      <trkpt lat="45.04311" lon="5.51065">
        <ele>1257.3</ele>
      </trkpt>
      <trkpt lat="45.04295" lon="5.51062">
        <ele>1258.7</ele>
      </trkpt>
      <trkpt lat="45.04253" lon="5.51069">
        <ele>1265.6</ele>
      </trkpt>
      <trkpt lat="45.04222" lon="5.51061">
        <ele>1267.6</ele>
      </trkpt>
      <trkpt lat="45.04213" lon="5.51053">
        <ele>1266.5</ele>
      </trkpt>
      <trkpt lat="45.04193" lon="5.51044">
        <ele>1267.1</ele>
      </trkpt>
      <trkpt lat="45.0419" lon="5.51046">
        <ele>1267.9</ele>
      </trkpt>
      <trkpt lat="45.04177" lon="5.51044">
        <ele>1269.2</ele>
      </trkpt>
      <trkpt lat="45.0415" lon="5.51032">
        <ele>1268.7</ele>
      </trkpt>
      <trkpt lat="45.04142" lon="5.51033">
        <ele>1269.5</ele>
      </trkpt>
      <trkpt lat="45.04111" lon="5.51024">
        <ele>1269.1</ele>
      </trkpt>
      <trkpt lat="45.04035" lon="5.51025">
        <ele>1272.8</ele>
      </trkpt>
      <trkpt lat="45.0402" lon="5.51014">
        <ele>1270.7</ele>
      </trkpt>
      <trkpt lat="45.04007" lon="5.51013">
        <ele>1271</ele>
      </trkpt>
      <trkpt lat="45.03987" lon="5.51004">
        <ele>1268.8</ele>
      </trkpt>
      <trkpt lat="45.03984" lon="5.51003">
        <ele>1268.5</ele>
      </trkpt>
      <trkpt lat="45.03986" lon="5.50999">
        <ele>1267.5</ele>
      </trkpt>
      <trkpt lat="45.0398" lon="5.51">
        <ele>1267.6</ele>
      </trkpt>
      <trkpt lat="45.03982" lon="5.50995">
        <ele>1266.7</ele>
      </trkpt>
      <trkpt lat="45.03975" lon="5.50997">
        <ele>1266.9</ele>
      </trkpt>
      <trkpt lat="45.03925" lon="5.51005">
        <ele>1267.4</ele>
      </trkpt>
      <trkpt lat="45.03913" lon="5.51003">
        <ele>1266.4</ele>
      </trkpt>
      <trkpt lat="45.03896" lon="5.51006">
        <ele>1265.5</ele>
      </trkpt>
      <trkpt lat="45.03877" lon="5.51008">
        <ele>1264.3</ele>
      </trkpt>
      <trkpt lat="45.03869" lon="5.51001">
        <ele>1262.1</ele>
      </trkpt>
      <trkpt lat="45.03853" lon="5.51002">
        <ele>1261</ele>
      </trkpt>
      <trkpt lat="45.03771" lon="5.5113">
        <ele>1275.6</ele>
      </trkpt>
      <trkpt lat="45.03711" lon="5.51214">
        <ele>1273.5</ele>
      </trkpt>
      <trkpt lat="45.03696" lon="5.51276">
        <ele>1272.8</ele>
      </trkpt>
      <trkpt lat="45.03607" lon="5.5136">
        <ele>1263.2</ele>
      </trkpt>
      <trkpt lat="45.0357" lon="5.51444">
        <ele>1257.8</ele>
      </trkpt>
      <trkpt lat="45.03532" lon="5.51381">
        <ele>1260.1</ele>
      </trkpt>
      <trkpt lat="45.03585" lon="5.51229">
        <ele>1258.1</ele>
      </trkpt>
      <trkpt lat="45.03624" lon="5.51036">
        <ele>1255.3</ele>
      </trkpt>
      <trkpt lat="45.0368" lon="5.50894">
        <ele>1249.3</ele>
      </trkpt>
      <trkpt lat="45.03714" lon="5.50829">
        <ele>1244.3</ele>
      </trkpt>
      <trkpt lat="45.03706" lon="5.50815">
        <ele>1244.7</ele>
      </trkpt>
      <trkpt lat="45.03684" lon="5.50803">
        <ele>1245.2</ele>
      </trkpt>
      <trkpt lat="45.0368" lon="5.50783">
        <ele>1245.2</ele>
      </trkpt>
      <trkpt lat="45.03682" lon="5.50755">
        <ele>1245</ele>
      </trkpt>
      <trkpt lat="45.03676" lon="5.50732">
        <ele>1246.1</ele>
      </trkpt>
      <trkpt lat="45.03678" lon="5.50696">
        <ele>1248.3</ele>
      </trkpt>
      <trkpt lat="45.03685" lon="5.50678">
        <ele>1249.5</ele>
      </trkpt>
      <trkpt lat="45.03708" lon="5.50645">
        <ele>1251.5</ele>
      </trkpt>
      <trkpt lat="45.0372" lon="5.50621">
        <ele>1252.5</ele>
      </trkpt>
      <trkpt lat="45.03718" lon="5.5061">
        <ele>1253</ele>
      </trkpt>
      <trkpt lat="45.03723" lon="5.50575">
        <ele>1254.5</ele>
      </trkpt>
      <trkpt lat="45.03731" lon="5.50558">
        <ele>1255.4</ele>
      </trkpt>
      <trkpt lat="45.03736" lon="5.50531">
        <ele>1257</ele>
      </trkpt>
      <trkpt lat="45.03754" lon="5.50492">
        <ele>1260</ele>
      </trkpt>
      <trkpt lat="45.03762" lon="5.50483">
        <ele>1261.1</ele>
      </trkpt>
      <trkpt lat="45.03774" lon="5.5046">
        <ele>1263.7</ele>
      </trkpt>
      <trkpt lat="45.03792" lon="5.50443">
        <ele>1265.3</ele>
      </trkpt>
      <trkpt lat="45.03822" lon="5.50376">
        <ele>1270.2</ele>
      </trkpt>
      <trkpt lat="45.03871" lon="5.50296">
        <ele>1277.3</ele>
      </trkpt>
      <trkpt lat="45.03885" lon="5.5028">
        <ele>1278.9</ele>
      </trkpt>
      <trkpt lat="45.03894" lon="5.50249">
        <ele>1281</ele>
      </trkpt>
      <trkpt lat="45.03892" lon="5.50208">
        <ele>1283.8</ele>
      </trkpt>
      <trkpt lat="45.03903" lon="5.5017">
        <ele>1287.1</ele>
      </trkpt>
      <trkpt lat="45.03902" lon="5.50163">
        <ele>1287.5</ele>
      </trkpt>
      <trkpt lat="45.03912" lon="5.50139">
        <ele>1288.6</ele>
      </trkpt>
      <trkpt lat="45.0394" lon="5.50104">
        <ele>1290.7</ele>
      </trkpt>
      <trkpt lat="45.03944" lon="5.50103">
        <ele>1291</ele>
      </trkpt>
      <trkpt lat="45.03961" lon="5.50086">
        <ele>1291.6</ele>
      </trkpt>
      <trkpt lat="45.03988" lon="5.5008">
        <ele>1292</ele>
      </trkpt>
      <trkpt lat="45.04021" lon="5.50079">
        <ele>1292.1</ele>
      </trkpt>
      <trkpt lat="45.04052" lon="5.50084">
        <ele>1292.4</ele>
      </trkpt>
      <trkpt lat="45.04061" lon="5.5008">
        <ele>1291.8</ele>
      </trkpt>
      <trkpt lat="45.04071" lon="5.50085">
        <ele>1292.3</ele>
      </trkpt>
      <trkpt lat="45.04095" lon="5.50087">
        <ele>1292.3</ele>
      </trkpt>
      <trkpt lat="45.04104" lon="5.50081">
        <ele>1291.8</ele>
      </trkpt>
      <trkpt lat="45.0412" lon="5.50081">
        <ele>1291.8</ele>
      </trkpt>
      <trkpt lat="45.04129" lon="5.5007">
        <ele>1290.8</ele>
      </trkpt>
      <trkpt lat="45.04129" lon="5.5007">
        <ele>1290.8</ele>
      </trkpt>
      <trkpt lat="45.04148" lon="5.50066">
        <ele>1290.7</ele>
      </trkpt>
      <trkpt lat="45.04164" lon="5.50066">
        <ele>1290.9</ele>
      </trkpt>
      <trkpt lat="45.04176" lon="5.50072">
        <ele>1291.5</ele>
      </trkpt>
      <trkpt lat="45.04188" lon="5.5007">
        <ele>1291.5</ele>
      </trkpt>
      <trkpt lat="45.04191" lon="5.50073">
        <ele>1291.7</ele>
      </trkpt>
      <trkpt lat="45.04206" lon="5.50065">
        <ele>1291.5</ele>
      </trkpt>
      <trkpt lat="45.04222" lon="5.50066">
        <ele>1291.8</ele>
      </trkpt>
      <trkpt lat="45.04236" lon="5.50052">
        <ele>1291.3</ele>
      </trkpt>
      <trkpt lat="45.04258" lon="5.50048">
        <ele>1291.3</ele>
      </trkpt>
      <trkpt lat="45.04262" lon="5.5004">
        <ele>1290.9</ele>
      </trkpt>
      <trkpt lat="45.04283" lon="5.50022">
        <ele>1289.9</ele>
      </trkpt>
      <trkpt lat="45.04299" lon="5.49992">
        <ele>1288.5</ele>
      </trkpt>
      <trkpt lat="45.04276" lon="5.49956">
        <ele>1289.2</ele>
      </trkpt>
      <trkpt lat="45.04271" lon="5.49937">
        <ele>1289.5</ele>
      </trkpt>
      <trkpt lat="45.04249" lon="5.4992">
        <ele>1289.9</ele>
      </trkpt>
      <trkpt lat="45.04203" lon="5.49901">
        <ele>1289.7</ele>
      </trkpt>
      <trkpt lat="45.04159" lon="5.49876">
        <ele>1289.2</ele>
      </trkpt>
      <trkpt lat="45.04069" lon="5.49781">
        <ele>1297.8</ele>
      </trkpt>
      <trkpt lat="45.0405" lon="5.49771">
        <ele>1298.8</ele>
      </trkpt>
      <trkpt lat="45.04027" lon="5.49771">
        <ele>1297.7</ele>
      </trkpt>
      <trkpt lat="45.03949" lon="5.49795">
        <ele>1293.6</ele>
      </trkpt>
      <trkpt lat="45.03922" lon="5.49807">
        <ele>1291.3</ele>
      </trkpt>
      <trkpt lat="45.03768" lon="5.49814">
        <ele>1293</ele>
      </trkpt>
      <trkpt lat="45.03623" lon="5.49846">
        <ele>1295.1</ele>
      </trkpt>
      <trkpt lat="45.03623" lon="5.49847">
        <ele>1295.1</ele>
      </trkpt>
      <trkpt lat="45.03616" lon="5.49858">
        <ele>1296.1</ele>
      </trkpt>
      <trkpt lat="45.03614" lon="5.49879">
        <ele>1297.1</ele>
      </trkpt>
      <trkpt lat="45.03606" lon="5.49897">
        <ele>1298.4</ele>
      </trkpt>
      <trkpt lat="45.03567" lon="5.49934">
        <ele>1303.5</ele>
      </trkpt>
      <trkpt lat="45.03536" lon="5.4996">
        <ele>1307</ele>
      </trkpt>
      <trkpt lat="45.03521" lon="5.49968">
        <ele>1307.9</ele>
      </trkpt>
      <trkpt lat="45.03497" lon="5.49972">
        <ele>1308.6</ele>
      </trkpt>
      <trkpt lat="45.03485" lon="5.49978">
        <ele>1310.3</ele>
      </trkpt>
      <trkpt lat="45.03485" lon="5.49959">
        <ele>1309.1</ele>
      </trkpt>
      <trkpt lat="45.03468" lon="5.49909">
        <ele>1309.8</ele>
      </trkpt>
      <trkpt lat="45.03448" lon="5.49862">
        <ele>1310.3</ele>
      </trkpt>
      <trkpt lat="45.03425" lon="5.49828">
        <ele>1312.3</ele>
      </trkpt>
      <trkpt lat="45.03413" lon="5.49794">
        <ele>1314</ele>
      </trkpt>
      <trkpt lat="45.03409" lon="5.49727">
        <ele>1314.9</ele>
      </trkpt>
      <trkpt lat="45.03425" lon="5.49693">
        <ele>1315</ele>
      </trkpt>
      <trkpt lat="45.03425" lon="5.4968">
        <ele>1315.8</ele>
      </trkpt>
      <trkpt lat="45.0341" lon="5.49662">
        <ele>1318</ele>
      </trkpt>
      <trkpt lat="45.03381" lon="5.49632">
        <ele>1327.2</ele>
      </trkpt>
      <trkpt lat="45.03359" lon="5.49634">
        <ele>1328.5</ele>
      </trkpt>
      <trkpt lat="45.03317" lon="5.49654">
        <ele>1328.9</ele>
      </trkpt>
      <trkpt lat="45.03306" lon="5.49653">
        <ele>1329.8</ele>
      </trkpt>
      <trkpt lat="45.03283" lon="5.49642">
        <ele>1332.6</ele>
      </trkpt>
      <trkpt lat="45.03241" lon="5.49606">
        <ele>1337</ele>
      </trkpt>
      <trkpt lat="45.03189" lon="5.49591">
        <ele>1335.1</ele>
      </trkpt>
      <trkpt lat="45.03143" lon="5.49541">
        <ele>1341.7</ele>
      </trkpt>
      <trkpt lat="45.03131" lon="5.49537">
        <ele>1342.2</ele>
      </trkpt>
      <trkpt lat="45.03114" lon="5.49535">
        <ele>1342</ele>
      </trkpt>
      <trkpt lat="45.03078" lon="5.49545">
        <ele>1338.9</ele>
      </trkpt>
      <trkpt lat="45.0302" lon="5.49571">
        <ele>1334.5</ele>
      </trkpt>
      <trkpt lat="45.03001" lon="5.4957">
        <ele>1334.8</ele>
      </trkpt>
      <trkpt lat="45.02997" lon="5.49568">
        <ele>1335.2</ele>
      </trkpt>
      <trkpt lat="45.02957" lon="5.49548">
        <ele>1338.7</ele>
      </trkpt>
      <trkpt lat="45.02939" lon="5.49547">
        <ele>1338.5</ele>
      </trkpt>
      <trkpt lat="45.02901" lon="5.49559">
        <ele>1335.6</ele>
      </trkpt>
      <trkpt lat="45.0288" lon="5.49572">
        <ele>1333.2</ele>
      </trkpt>
      <trkpt lat="45.02864" lon="5.4959">
        <ele>1331.2</ele>
      </trkpt>
      <trkpt lat="45.02823" lon="5.49649">
        <ele>1332.2</ele>
      </trkpt>
      <trkpt lat="45.0279" lon="5.49659">
        <ele>1331.3</ele>
      </trkpt>
      <trkpt lat="45.02741" lon="5.49659">
        <ele>1330</ele>
      </trkpt>
      <trkpt lat="45.0272" lon="5.49666">
        <ele>1330</ele>
      </trkpt>
      <trkpt lat="45.02649" lon="5.49699">
        <ele>1330.3</ele>
      </trkpt>
      <trkpt lat="45.0263" lon="5.49718">
        <ele>1330.1</ele>
      </trkpt>
      <trkpt lat="45.02614" lon="5.49719">
        <ele>1329.6</ele>
      </trkpt>
      <trkpt lat="45.02581" lon="5.49712">
        <ele>1328.5</ele>
      </trkpt>
      <trkpt lat="45.02572" lon="5.49729">
        <ele>1328.4</ele>
      </trkpt>
      <trkpt lat="45.02535" lon="5.4976">
        <ele>1327.5</ele>
      </trkpt>
      <trkpt lat="45.0251" lon="5.4977">
        <ele>1326.7</ele>
      </trkpt>
      <trkpt lat="45.02501" lon="5.49793">
        <ele>1326</ele>
      </trkpt>
      <trkpt lat="45.02503" lon="5.49816">
        <ele>1325.5</ele>
      </trkpt>
      <trkpt lat="45.02501" lon="5.49828">
        <ele>1325.1</ele>
      </trkpt>
      <trkpt lat="45.02489" lon="5.49847">
        <ele>1323.6</ele>
      </trkpt>
      <trkpt lat="45.02476" lon="5.49883">
        <ele>1319.7</ele>
      </trkpt>
      <trkpt lat="45.0246" lon="5.49908">
        <ele>1317</ele>
      </trkpt>
      <trkpt lat="45.02455" lon="5.49942">
        <ele>1311.5</ele>
      </trkpt>
      <trkpt lat="45.02441" lon="5.49963">
        <ele>1308.2</ele>
      </trkpt>
      <trkpt lat="45.02436" lon="5.50004">
        <ele>1300.8</ele>
      </trkpt>
      <trkpt lat="45.02437" lon="5.50023">
        <ele>1297.4</ele>
      </trkpt>
      <trkpt lat="45.02443" lon="5.50029">
        <ele>1296.3</ele>
      </trkpt>
      <trkpt lat="45.02445" lon="5.50039">
        <ele>1294.6</ele>
      </trkpt>
      <trkpt lat="45.02441" lon="5.50064">
        <ele>1290.2</ele>
      </trkpt>
      <trkpt lat="45.02418" lon="5.50088">
        <ele>1285.4</ele>
      </trkpt>
      <trkpt lat="45.02363" lon="5.50117">
        <ele>1279.6</ele>
      </trkpt>
      <trkpt lat="45.02281" lon="5.50201">
        <ele>1263.4</ele>
      </trkpt>
      <trkpt lat="45.02229" lon="5.50225">
        <ele>1259.7</ele>
      </trkpt>
      <trkpt lat="45.02221" lon="5.50258">
        <ele>1256</ele>
      </trkpt>
      <trkpt lat="45.02203" lon="5.50296">
        <ele>1253.1</ele>
      </trkpt>
      <trkpt lat="45.02198" lon="5.50314">
        <ele>1251.5</ele>
      </trkpt>
      <trkpt lat="45.02179" lon="5.50337">
        <ele>1250</ele>
      </trkpt>
      <trkpt lat="45.02156" lon="5.50392">
        <ele>1244.7</ele>
      </trkpt>
      <trkpt lat="45.0215" lon="5.50442">
        <ele>1240</ele>
      </trkpt>
      <trkpt lat="45.02143" lon="5.50471">
        <ele>1237.5</ele>
      </trkpt>
      <trkpt lat="45.02137" lon="5.50536">
        <ele>1231.4</ele>
      </trkpt>
      <trkpt lat="45.02108" lon="5.50621">
        <ele>1221.2</ele>
      </trkpt>
      <trkpt lat="45.02113" lon="5.50668">
        <ele>1217.5</ele>
      </trkpt>
      <trkpt lat="45.02109" lon="5.5072">
        <ele>1213.7</ele>
      </trkpt>
      <trkpt lat="45.02113" lon="5.50738">
        <ele>1213</ele>
      </trkpt>
      <trkpt lat="45.02097" lon="5.5073">
        <ele>1211.6</ele>
      </trkpt>
      <trkpt lat="45.02076" lon="5.50742">
        <ele>1210.5</ele>
      </trkpt>
      <trkpt lat="45.02058" lon="5.50766">
        <ele>1211.7</ele>
      </trkpt>
      <trkpt lat="45.0205" lon="5.50806">
        <ele>1209.9</ele>
      </trkpt>
      <trkpt lat="45.02036" lon="5.50847">
        <ele>1209</ele>
      </trkpt>
      <trkpt lat="45.02019" lon="5.50926">
        <ele>1205.2</ele>
      </trkpt>
      <trkpt lat="45.02012" lon="5.5094">
        <ele>1204.6</ele>
      </trkpt>
      <trkpt lat="45.02006" lon="5.50992">
        <ele>1201.3</ele>
      </trkpt>
      <trkpt lat="45.01985" lon="5.50974">
        <ele>1204.6</ele>
      </trkpt>
      <trkpt lat="45.01959" lon="5.50912">
        <ele>1211.8</ele>
      </trkpt>
      <trkpt lat="45.0192" lon="5.50874">
        <ele>1218.7</ele>
      </trkpt>
      <trkpt lat="45.01879" lon="5.50885">
        <ele>1217.4</ele>
      </trkpt>
      <trkpt lat="45.01842" lon="5.5087">
        <ele>1217.6</ele>
      </trkpt>
      <trkpt lat="45.01805" lon="5.50836">
        <ele>1218.4</ele>
      </trkpt>
      <trkpt lat="45.01784" lon="5.50825">
        <ele>1218.2</ele>
      </trkpt>
      <trkpt lat="45.01737" lon="5.50822">
        <ele>1216.3</ele>
      </trkpt>
      <trkpt lat="45.01722" lon="5.50817">
        <ele>1216.1</ele>
      </trkpt>
      <trkpt lat="45.0171" lon="5.50821">
        <ele>1215.5</ele>
      </trkpt>
      <trkpt lat="45.01692" lon="5.50813">
        <ele>1215.5</ele>
      </trkpt>
      <trkpt lat="45.01665" lon="5.50812">
        <ele>1214.8</ele>
      </trkpt>
      <trkpt lat="45.01651" lon="5.50819">
        <ele>1214.2</ele>
      </trkpt>
      <trkpt lat="45.01635" lon="5.50821">
        <ele>1214.1</ele>
      </trkpt>
      <trkpt lat="45.01618" lon="5.50835">
        <ele>1212.9</ele>
      </trkpt>
      <trkpt lat="45.01599" lon="5.50819">
        <ele>1214.2</ele>
      </trkpt>
      <trkpt lat="45.01569" lon="5.5081">
        <ele>1215.2</ele>
      </trkpt>
      <trkpt lat="45.01539" lon="5.50786">
        <ele>1217.8</ele>
      </trkpt>
      <trkpt lat="45.01507" lon="5.50745">
        <ele>1221.4</ele>
      </trkpt>
      <trkpt lat="45.01506" lon="5.5073">
        <ele>1222.9</ele>
      </trkpt>
      <trkpt lat="45.01501" lon="5.50713">
        <ele>1224.6</ele>
      </trkpt>
      <trkpt lat="45.01492" lon="5.50698">
        <ele>1225.9</ele>
      </trkpt>
      <trkpt lat="45.01485" lon="5.5069">
        <ele>1226.7</ele>
      </trkpt>
      <trkpt lat="45.01462" lon="5.50682">
        <ele>1227.3</ele>
      </trkpt>
      <trkpt lat="45.01453" lon="5.50675">
        <ele>1228.1</ele>
      </trkpt>
      <trkpt lat="45.01415" lon="5.50623">
        <ele>1235.3</ele>
      </trkpt>
      <trkpt lat="45.01339" lon="5.50559">
        <ele>1249.4</ele>
      </trkpt>
      <trkpt lat="45.01298" lon="5.50535">
        <ele>1256.9</ele>
      </trkpt>
      <trkpt lat="45.01252" lon="5.50515">
        <ele>1261.3</ele>
      </trkpt>
      <trkpt lat="45.01189" lon="5.50477">
        <ele>1270.3</ele>
      </trkpt>
      <trkpt lat="45.01147" lon="5.50447">
        <ele>1278.6</ele>
      </trkpt>
      <trkpt lat="45.01123" lon="5.5044">
        <ele>1280</ele>
      </trkpt>
      <trkpt lat="45.011" lon="5.50426">
        <ele>1282.7</ele>
      </trkpt>
      <trkpt lat="45.0105" lon="5.50408">
        <ele>1285.7</ele>
      </trkpt>
      <trkpt lat="45.01009" lon="5.50398">
        <ele>1287.4</ele>
      </trkpt>
      <trkpt lat="45.00962" lon="5.50375">
        <ele>1291.8</ele>
      </trkpt>
      <trkpt lat="45.00949" lon="5.50373">
        <ele>1292.2</ele>
      </trkpt>
      <trkpt lat="45.00908" lon="5.50337">
        <ele>1298.4</ele>
      </trkpt>
      <trkpt lat="45.00878" lon="5.50318">
        <ele>1301.6</ele>
      </trkpt>
      <trkpt lat="45.00868" lon="5.50298">
        <ele>1304.6</ele>
      </trkpt>
      <trkpt lat="45.00857" lon="5.50251">
        <ele>1311.2</ele>
      </trkpt>
      <trkpt lat="45.00847" lon="5.50225">
        <ele>1313.6</ele>
      </trkpt>
      <trkpt lat="45.00843" lon="5.50195">
        <ele>1316.5</ele>
      </trkpt>
      <trkpt lat="45.00906" lon="5.50087">
        <ele>1326.4</ele>
      </trkpt>
      <trkpt lat="45.00909" lon="5.5006">
        <ele>1328.2</ele>
      </trkpt>
      <trkpt lat="45.00928" lon="5.49993">
        <ele>1333.4</ele>
      </trkpt>
      <trkpt lat="45.00932" lon="5.49957">
        <ele>1337</ele>
      </trkpt>
      <trkpt lat="45.00923" lon="5.499">
        <ele>1341.9</ele>
      </trkpt>
      <trkpt lat="45.00928" lon="5.49841">
        <ele>1347.2</ele>
      </trkpt>
      <trkpt lat="45.00878" lon="5.49812">
        <ele>1350.8</ele>
      </trkpt>
      <trkpt lat="45.00882" lon="5.49788">
        <ele>1351.8</ele>
      </trkpt>
      <trkpt lat="45.00894" lon="5.49762">
        <ele>1353.1</ele>
      </trkpt>
      <trkpt lat="45.00894" lon="5.49747">
        <ele>1353.9</ele>
      </trkpt>
      <trkpt lat="45.00904" lon="5.49712">
        <ele>1355.4</ele>
      </trkpt>
      <trkpt lat="45.00918" lon="5.49685">
        <ele>1356.4</ele>
      </trkpt>
      <trkpt lat="45.00893" lon="5.49682">
        <ele>1356.8</ele>
      </trkpt>
      <trkpt lat="45.0084" lon="5.49659">
        <ele>1360</ele>
      </trkpt>
      <trkpt lat="45.00821" lon="5.49631">
        <ele>1365.4</ele>
      </trkpt>
      <trkpt lat="45.0081" lon="5.49598">
        <ele>1370.8</ele>
      </trkpt>
      <trkpt lat="45.00774" lon="5.49551">
        <ele>1376.3</ele>
      </trkpt>
      <trkpt lat="45.00753" lon="5.49548">
        <ele>1377.1</ele>
      </trkpt>
      <trkpt lat="45.00744" lon="5.49542">
        <ele>1378.1</ele>
      </trkpt>
      <trkpt lat="45.00749" lon="5.4952">
        <ele>1378.9</ele>
      </trkpt>
      <trkpt lat="45.00793" lon="5.49467">
        <ele>1382.3</ele>
      </trkpt>
      <trkpt lat="45.00822" lon="5.49427">
        <ele>1385.2</ele>
      </trkpt>
      <trkpt lat="45.00823" lon="5.49411">
        <ele>1386.9</ele>
      </trkpt>
      <trkpt lat="45.0084" lon="5.49392">
        <ele>1388.9</ele>
      </trkpt>
      <trkpt lat="45.00846" lon="5.49365">
        <ele>1391.9</ele>
      </trkpt>
      <trkpt lat="45.00864" lon="5.4934">
        <ele>1393.7</ele>
      </trkpt>
      <trkpt lat="45.00893" lon="5.49309">
        <ele>1394.7</ele>
      </trkpt>
      <trkpt lat="45.00925" lon="5.4929">
        <ele>1395.9</ele>
      </trkpt>
      <trkpt lat="45.00963" lon="5.49285">
        <ele>1399.5</ele>
      </trkpt>
      <trkpt lat="45.01009" lon="5.49265">
        <ele>1404.8</ele>
      </trkpt>
      <trkpt lat="45.01035" lon="5.49205">
        <ele>1411.4</ele>
      </trkpt>
      <trkpt lat="45.01043" lon="5.49173">
        <ele>1415.2</ele>
      </trkpt>
      <trkpt lat="45.01099" lon="5.49106">
        <ele>1420.9</ele>
      </trkpt>
      <trkpt lat="45.01084" lon="5.49057">
        <ele>1421.1</ele>
      </trkpt>
      <trkpt lat="45.01081" lon="5.49032">
        <ele>1420.2</ele>
      </trkpt>
      <trkpt lat="45.01062" lon="5.49004">
        <ele>1418.9</ele>
      </trkpt>
      <trkpt lat="45.01022" lon="5.48995">
        <ele>1418</ele>
      </trkpt>
      <trkpt lat="45.01017" lon="5.4898">
        <ele>1417.3</ele>
      </trkpt>
      <trkpt lat="45.01023" lon="5.48936">
        <ele>1415.1</ele>
      </trkpt>
      <trkpt lat="45.01018" lon="5.48898">
        <ele>1414.2</ele>
      </trkpt>
      <trkpt lat="45.0101" lon="5.4887">
        <ele>1414</ele>
      </trkpt>
      <trkpt lat="45.01016" lon="5.48838">
        <ele>1413.8</ele>
      </trkpt>
      <trkpt lat="45.0101" lon="5.48807">
        <ele>1414.9</ele>
      </trkpt>
      <trkpt lat="45.00996" lon="5.48784">
        <ele>1415.3</ele>
      </trkpt>
      <trkpt lat="45.00979" lon="5.48768">
        <ele>1415.7</ele>
      </trkpt>
      <trkpt lat="45.00984" lon="5.48739">
        <ele>1417.9</ele>
      </trkpt>
      <trkpt lat="45.00972" lon="5.48698">
        <ele>1422.6</ele>
      </trkpt>
      <trkpt lat="45.00942" lon="5.48645">
        <ele>1428.9</ele>
      </trkpt>
      <trkpt lat="45.00921" lon="5.48583">
        <ele>1435.5</ele>
      </trkpt>
      <trkpt lat="45.00911" lon="5.48484">
        <ele>1443.4</ele>
      </trkpt>
      <trkpt lat="45.00917" lon="5.48437">
        <ele>1443.9</ele>
      </trkpt>
      <trkpt lat="45.0094" lon="5.48389">
        <ele>1446.5</ele>
      </trkpt>
      <trkpt lat="45.00969" lon="5.48363">
        <ele>1449.9</ele>
      </trkpt>
      <trkpt lat="45.01003" lon="5.48344">
        <ele>1454.9</ele>
      </trkpt>
      <trkpt lat="45.01035" lon="5.48337">
        <ele>1461.4</ele>
      </trkpt>
      <trkpt lat="45.01113" lon="5.48299">
        <ele>1468.5</ele>
      </trkpt>
      <trkpt lat="45.01192" lon="5.48245">
        <ele>1465.5</ele>
      </trkpt>
      <trkpt lat="45.01116" lon="5.48213">
        <ele>1459.3</ele>
      </trkpt>
      <trkpt lat="45.01116" lon="5.48213">
        <ele>1459.3</ele>
      </trkpt>
      <trkpt lat="45.01096" lon="5.4821">
        <ele>1456.5</ele>
      </trkpt>
      <trkpt lat="45.01072" lon="5.48193">
        <ele>1452</ele>
      </trkpt>
      <trkpt lat="45.0102" lon="5.48168">
        <ele>1443</ele>
      </trkpt>
      <trkpt lat="45.00975" lon="5.48136">
        <ele>1434.6</ele>
      </trkpt>
      <trkpt lat="45.00947" lon="5.48131">
        <ele>1429.4</ele>
      </trkpt>
      <trkpt lat="45.00918" lon="5.48117">
        <ele>1422.9</ele>
      </trkpt>
      <trkpt lat="45.00906" lon="5.48117">
        <ele>1419.4</ele>
      </trkpt>
      <trkpt lat="45.00899" lon="5.4809">
        <ele>1414.2</ele>
      </trkpt>
      <trkpt lat="45.00888" lon="5.48076">
        <ele>1409.1</ele>
      </trkpt>
      <trkpt lat="45.00881" lon="5.48059">
        <ele>1404.2</ele>
      </trkpt>
      <trkpt lat="45.00834" lon="5.48113">
        <ele>1396.9</ele>
      </trkpt>
      <trkpt lat="45.00825" lon="5.48127">
        <ele>1395.4</ele>
      </trkpt>
      <trkpt lat="45.00803" lon="5.48185">
        <ele>1395.3</ele>
      </trkpt>
      <trkpt lat="45.00791" lon="5.48197">
        <ele>1394</ele>
      </trkpt>
      <trkpt lat="45.00786" lon="5.48191">
        <ele>1391</ele>
      </trkpt>
      <trkpt lat="45.00787" lon="5.48161">
        <ele>1386</ele>
      </trkpt>
      <trkpt lat="45.00781" lon="5.48138">
        <ele>1382.2</ele>
      </trkpt>
      <trkpt lat="45.0078" lon="5.48121">
        <ele>1380.8</ele>
      </trkpt>
      <trkpt lat="45.00755" lon="5.48083">
        <ele>1370.6</ele>
      </trkpt>
      <trkpt lat="45.00756" lon="5.48056">
        <ele>1366</ele>
      </trkpt>
      <trkpt lat="45.00773" lon="5.4799">
        <ele>1358.9</ele>
      </trkpt>
      <trkpt lat="45.00796" lon="5.47928">
        <ele>1349.3</ele>
      </trkpt>
      <trkpt lat="45.00817" lon="5.47884">
        <ele>1343.6</ele>
      </trkpt>
      <trkpt lat="45.00855" lon="5.47779">
        <ele>1330.4</ele>
      </trkpt>
      <trkpt lat="45.00863" lon="5.47738">
        <ele>1327.8</ele>
      </trkpt>
      <trkpt lat="45.00963" lon="5.47669">
        <ele>1326.9</ele>
      </trkpt>
      <trkpt lat="45.00984" lon="5.47643">
        <ele>1326.9</ele>
      </trkpt>
      <trkpt lat="45.01" lon="5.4764">
        <ele>1326</ele>
      </trkpt>
      <trkpt lat="45.01035" lon="5.47623">
        <ele>1326.3</ele>
      </trkpt>
      <trkpt lat="45.01055" lon="5.47624">
        <ele>1326.6</ele>
      </trkpt>
      <trkpt lat="45.01079" lon="5.47636">
        <ele>1328.7</ele>
      </trkpt>
      <trkpt lat="45.01104" lon="5.47621">
        <ele>1328.5</ele>
      </trkpt>
      <trkpt lat="45.01198" lon="5.47593">
        <ele>1330.4</ele>
      </trkpt>
      <trkpt lat="45.01217" lon="5.47591">
        <ele>1330.5</ele>
      </trkpt>
      <trkpt lat="45.01236" lon="5.47583">
        <ele>1329.7</ele>
      </trkpt>
      <trkpt lat="45.01293" lon="5.47546">
        <ele>1329.9</ele>
      </trkpt>
      <trkpt lat="45.01325" lon="5.47517">
        <ele>1329.2</ele>
      </trkpt>
      <trkpt lat="45.01351" lon="5.47507">
        <ele>1328.2</ele>
      </trkpt>
      <trkpt lat="45.01414" lon="5.47493">
        <ele>1324.6</ele>
      </trkpt>
      <trkpt lat="45.0146" lon="5.47459">
        <ele>1321.3</ele>
      </trkpt>
      <trkpt lat="45.01512" lon="5.47461">
        <ele>1320.9</ele>
      </trkpt>
      <trkpt lat="45.01521" lon="5.47455">
        <ele>1320.4</ele>
      </trkpt>
      <trkpt lat="45.01532" lon="5.47444">
        <ele>1319.3</ele>
      </trkpt>
      <trkpt lat="45.01544" lon="5.47404">
        <ele>1316.9</ele>
      </trkpt>
      <trkpt lat="45.0159" lon="5.47463">
        <ele>1321.8</ele>
      </trkpt>
      <trkpt lat="45.01604" lon="5.47488">
        <ele>1323.3</ele>
      </trkpt>
      <trkpt lat="45.01631" lon="5.47502">
        <ele>1324.2</ele>
      </trkpt>
      <trkpt lat="45.01674" lon="5.47562">
        <ele>1330</ele>
      </trkpt>
      <trkpt lat="45.01685" lon="5.47565">
        <ele>1330.4</ele>
      </trkpt>
      <trkpt lat="45.01696" lon="5.47564">
        <ele>1330.4</ele>
      </trkpt>
      <trkpt lat="45.01709" lon="5.47555">
        <ele>1330</ele>
      </trkpt>
      <trkpt lat="45.01747" lon="5.4752">
        <ele>1328.9</ele>
      </trkpt>
      <trkpt lat="45.01772" lon="5.47521">
        <ele>1329.1</ele>
      </trkpt>
      <trkpt lat="45.01783" lon="5.47528">
        <ele>1329.3</ele>
      </trkpt>
      <trkpt lat="45.01808" lon="5.47565">
        <ele>1329.2</ele>
      </trkpt>
      <trkpt lat="45.01829" lon="5.47585">
        <ele>1328.5</ele>
      </trkpt>
      <trkpt lat="45.01843" lon="5.47588">
        <ele>1328.9</ele>
      </trkpt>
      <trkpt lat="45.01853" lon="5.47583">
        <ele>1327.8</ele>
      </trkpt>
      <trkpt lat="45.01871" lon="5.47563">
        <ele>1327.6</ele>
      </trkpt>
      <trkpt lat="45.01884" lon="5.47541">
        <ele>1327.2</ele>
      </trkpt>
      <trkpt lat="45.0189" lon="5.47494">
        <ele>1326.3</ele>
      </trkpt>
      <trkpt lat="45.01929" lon="5.47435">
        <ele>1320.3</ele>
      </trkpt>
      <trkpt lat="45.01961" lon="5.47395">
        <ele>1315.1</ele>
      </trkpt>
      <trkpt lat="45.01975" lon="5.47369">
        <ele>1314.1</ele>
      </trkpt>
      <trkpt lat="45.01982" lon="5.47346">
        <ele>1314.1</ele>
      </trkpt>
      <trkpt lat="45.02036" lon="5.47474">
        <ele>1306.5</ele>
      </trkpt>
      <trkpt lat="45.02036" lon="5.47505">
        <ele>1309.1</ele>
      </trkpt>
      <trkpt lat="45.02047" lon="5.47545">
        <ele>1309.8</ele>
      </trkpt>
      <trkpt lat="45.02063" lon="5.47562">
        <ele>1307.9</ele>
      </trkpt>
      <trkpt lat="45.02072" lon="5.47569">
        <ele>1306.7</ele>
      </trkpt>
      <trkpt lat="45.02122" lon="5.47574">
        <ele>1300.7</ele>
      </trkpt>
      <trkpt lat="45.02142" lon="5.47587">
        <ele>1299.5</ele>
      </trkpt>
      <trkpt lat="45.02206" lon="5.47608">
        <ele>1297.3</ele>
      </trkpt>
      <trkpt lat="45.02249" lon="5.4761">
        <ele>1295</ele>
      </trkpt>
      <trkpt lat="45.02273" lon="5.47622">
        <ele>1294.8</ele>
      </trkpt>
      <trkpt lat="45.02388" lon="5.47649">
        <ele>1292.1</ele>
      </trkpt>
      <trkpt lat="45.02423" lon="5.47666">
        <ele>1291.3</ele>
      </trkpt>
      <trkpt lat="45.0247" lon="5.47666">
        <ele>1286.8</ele>
      </trkpt>
      <trkpt lat="45.02518" lon="5.47681">
        <ele>1282.2</ele>
      </trkpt>
      <trkpt lat="45.02565" lon="5.47688">
        <ele>1277</ele>
      </trkpt>
      <trkpt lat="45.02587" lon="5.47697">
        <ele>1276.1</ele>
      </trkpt>
      <trkpt lat="45.02662" lon="5.47701">
        <ele>1278.5</ele>
      </trkpt>
      <trkpt lat="45.02707" lon="5.47709">
        <ele>1279.5</ele>
      </trkpt>
      <trkpt lat="45.02734" lon="5.47719">
        <ele>1280.1</ele>
      </trkpt>
      <trkpt lat="45.02763" lon="5.47714">
        <ele>1280.5</ele>
      </trkpt>
      <trkpt lat="45.02809" lon="5.47698">
        <ele>1282.5</ele>
      </trkpt>
      <trkpt lat="45.02833" lon="5.47696">
        <ele>1283.9</ele>
      </trkpt>
      <trkpt lat="45.02932" lon="5.47718">
        <ele>1283.7</ele>
      </trkpt>
      <trkpt lat="45.02993" lon="5.47725">
        <ele>1288.4</ele>
      </trkpt>
      <trkpt lat="45.03042" lon="5.47738">
        <ele>1290.1</ele>
      </trkpt>
      <trkpt lat="45.03082" lon="5.47751">
        <ele>1289</ele>
      </trkpt>
      <trkpt lat="45.03115" lon="5.47773">
        <ele>1292.3</ele>
      </trkpt>
      <trkpt lat="45.03175" lon="5.47783">
        <ele>1297.9</ele>
      </trkpt>
      <trkpt lat="45.03247" lon="5.47783">
        <ele>1303.6</ele>
      </trkpt>
      <trkpt lat="45.03269" lon="5.47796">
        <ele>1304.4</ele>
      </trkpt>
      <trkpt lat="45.0331" lon="5.47857">
        <ele>1304.2</ele>
      </trkpt>
      <trkpt lat="45.03337" lon="5.47887">
        <ele>1305.1</ele>
      </trkpt>
      <trkpt lat="45.03365" lon="5.47932">
        <ele>1312.3</ele>
      </trkpt>
      <trkpt lat="45.0339" lon="5.47955">
        <ele>1318.3</ele>
      </trkpt>
      <trkpt lat="45.03432" lon="5.47977">
        <ele>1322.8</ele>
      </trkpt>
      <trkpt lat="45.03564" lon="5.47973">
        <ele>1326.9</ele>
      </trkpt>
      <trkpt lat="45.03596" lon="5.4797">
        <ele>1327</ele>
      </trkpt>
      <trkpt lat="45.03641" lon="5.47958">
        <ele>1328</ele>
      </trkpt>
      <trkpt lat="45.03662" lon="5.47943">
        <ele>1328.4</ele>
      </trkpt>
      <trkpt lat="45.03688" lon="5.4791">
        <ele>1330.9</ele>
      </trkpt>
      <trkpt lat="45.03746" lon="5.47846">
        <ele>1337.4</ele>
      </trkpt>
      <trkpt lat="45.03766" lon="5.47813">
        <ele>1342.2</ele>
      </trkpt>
      <trkpt lat="45.03794" lon="5.47798">
        <ele>1344.9</ele>
      </trkpt>
      <trkpt lat="45.0393" lon="5.47757">
        <ele>1350.8</ele>
      </trkpt>
      <trkpt lat="45.04" lon="5.47719">
        <ele>1360.5</ele>
      </trkpt>
      <trkpt lat="45.04028" lon="5.47714">
        <ele>1363.6</ele>
      </trkpt>
      <trkpt lat="45.04094" lon="5.47685">
        <ele>1369.7</ele>
      </trkpt>
      <trkpt lat="45.04173" lon="5.47668">
        <ele>1372.9</ele>
      </trkpt>
      <trkpt lat="45.0424" lon="5.47647">
        <ele>1373.8</ele>
      </trkpt>
      <trkpt lat="45.04287" lon="5.47646">
        <ele>1374.2</ele>
      </trkpt>
      <trkpt lat="45.04309" lon="5.47652">
        <ele>1374</ele>
      </trkpt>
      <trkpt lat="45.04363" lon="5.47655">
        <ele>1375.1</ele>
      </trkpt>
      <trkpt lat="45.044" lon="5.47646">
        <ele>1376.8</ele>
      </trkpt>
      <trkpt lat="45.04466" lon="5.47645">
        <ele>1374.6</ele>
      </trkpt>
      <trkpt lat="45.04529" lon="5.47656">
        <ele>1373.5</ele>
      </trkpt>
      <trkpt lat="45.04636" lon="5.47666">
        <ele>1374.1</ele>
      </trkpt>
      <trkpt lat="45.04802" lon="5.47674">
        <ele>1365.6</ele>
      </trkpt>
      <trkpt lat="45.04916" lon="5.47666">
        <ele>1355</ele>
      </trkpt>
      <trkpt lat="45.04937" lon="5.47661">
        <ele>1352.8</ele>
      </trkpt>
      <trkpt lat="45.05082" lon="5.47589">
        <ele>1333.7</ele>
      </trkpt>
      <trkpt lat="45.0509" lon="5.47569">
        <ele>1330.5</ele>
      </trkpt>
      <trkpt lat="45.05095" lon="5.47563">
        <ele>1329.3</ele>
      </trkpt>
      <trkpt lat="45.051" lon="5.47535">
        <ele>1325.5</ele>
      </trkpt>
      <trkpt lat="45.05107" lon="5.47518">
        <ele>1322.8</ele>
      </trkpt>
      <trkpt lat="45.05124" lon="5.47491">
        <ele>1319.3</ele>
      </trkpt>
      <trkpt lat="45.05156" lon="5.47465">
        <ele>1317.5</ele>
      </trkpt>
      <trkpt lat="45.05275" lon="5.47529">
        <ele>1305.5</ele>
      </trkpt>
      <trkpt lat="45.05361" lon="5.47586">
        <ele>1293.3</ele>
      </trkpt>
      <trkpt lat="45.05489" lon="5.47637">
        <ele>1281.3</ele>
      </trkpt>
      <trkpt lat="45.05489" lon="5.47637">
        <ele>1281.3</ele>
      </trkpt>
      <trkpt lat="45.05543" lon="5.47647">
        <ele>1274.1</ele>
      </trkpt>
      <trkpt lat="45.05566" lon="5.47677">
        <ele>1270.3</ele>
      </trkpt>
      <trkpt lat="45.05619" lon="5.47731">
        <ele>1266.9</ele>
      </trkpt>
      <trkpt lat="45.05674" lon="5.47794">
        <ele>1262.3</ele>
      </trkpt>
      <trkpt lat="45.05739" lon="5.47929">
        <ele>1259.5</ele>
      </trkpt>
      <trkpt lat="45.05748" lon="5.47931">
        <ele>1258.5</ele>
      </trkpt>
      <trkpt lat="45.05759" lon="5.47947">
        <ele>1258.8</ele>
      </trkpt>
      <trkpt lat="45.05807" lon="5.48048">
        <ele>1251.9</ele>
      </trkpt>
      <trkpt lat="45.05855" lon="5.48124">
        <ele>1241.8</ele>
      </trkpt>
      <trkpt lat="45.0588" lon="5.48146">
        <ele>1236.8</ele>
      </trkpt>
      <trkpt lat="45.059" lon="5.48155">
        <ele>1232.4</ele>
      </trkpt>
      <trkpt lat="45.05943" lon="5.48196">
        <ele>1225.1</ele>
      </trkpt>
      <trkpt lat="45.05953" lon="5.48214">
        <ele>1222.9</ele>
      </trkpt>
      <trkpt lat="45.05983" lon="5.48249">
        <ele>1213.8</ele>
      </trkpt>
      <trkpt lat="45.06016" lon="5.48273">
        <ele>1207.1</ele>
      </trkpt>
      <trkpt lat="45.06131" lon="5.48334">
        <ele>1180.7</ele>
      </trkpt>
      <trkpt lat="45.06155" lon="5.48341">
        <ele>1177.1</ele>
      </trkpt>
      <trkpt lat="45.06177" lon="5.48337">
        <ele>1175.7</ele>
      </trkpt>
      <trkpt lat="45.06206" lon="5.48352">
        <ele>1173.2</ele>
      </trkpt>
      <trkpt lat="45.06254" lon="5.48384">
        <ele>1164.4</ele>
      </trkpt>
      <trkpt lat="45.0629" lon="5.48471">
        <ele>1156</ele>
      </trkpt>
      <trkpt lat="45.06327" lon="5.4855">
        <ele>1148.9</ele>
      </trkpt>
      <trkpt lat="45.0639" lon="5.48718">
        <ele>1147.6</ele>
      </trkpt>
      <trkpt lat="45.0642" lon="5.48787">
        <ele>1147.6</ele>
      </trkpt>
      <trkpt lat="45.06425" lon="5.48857">
        <ele>1156.2</ele>
      </trkpt>
      <trkpt lat="45.06424" lon="5.48933">
        <ele>1163.6</ele>
      </trkpt>
      <trkpt lat="45.06421" lon="5.48958">
        <ele>1164.5</ele>
      </trkpt>
      <trkpt lat="45.06392" lon="5.4905">
        <ele>1169.4</ele>
      </trkpt>
      <trkpt lat="45.06357" lon="5.49108">
        <ele>1176.6</ele>
      </trkpt>
      <trkpt lat="45.06352" lon="5.49125">
        <ele>1175.9</ele>
      </trkpt>
      <trkpt lat="45.06316" lon="5.49192">
        <ele>1185.8</ele>
      </trkpt>
      <trkpt lat="45.0631" lon="5.4921">
        <ele>1186.6</ele>
      </trkpt>
      <trkpt lat="45.06295" lon="5.49232">
        <ele>1192.7</ele>
      </trkpt>
      <trkpt lat="45.06285" lon="5.49258">
        <ele>1196.5</ele>
      </trkpt>
      <trkpt lat="45.06291" lon="5.49276">
        <ele>1193.6</ele>
      </trkpt>
      <trkpt lat="45.06304" lon="5.49291">
        <ele>1187</ele>
      </trkpt>
      <trkpt lat="45.06333" lon="5.49343">
        <ele>1179.4</ele>
      </trkpt>
      <trkpt lat="45.06341" lon="5.49365">
        <ele>1180.9</ele>
      </trkpt>
      <trkpt lat="45.06355" lon="5.49418">
        <ele>1187.8</ele>
      </trkpt>
      <trkpt lat="45.06377" lon="5.49459">
        <ele>1192.3</ele>
      </trkpt>
      <trkpt lat="45.06388" lon="5.49475">
        <ele>1192.7</ele>
      </trkpt>
      <trkpt lat="45.06407" lon="5.49489">
        <ele>1189.1</ele>
      </trkpt>
      <trkpt lat="45.06438" lon="5.49504">
        <ele>1179.1</ele>
      </trkpt>
      <trkpt lat="45.06449" lon="5.49522">
        <ele>1182</ele>
      </trkpt>
      <trkpt lat="45.06468" lon="5.4957">
        <ele>1196</ele>
      </trkpt>
      <trkpt lat="45.06502" lon="5.49622">
        <ele>1199.9</ele>
      </trkpt>
      <trkpt lat="45.06516" lon="5.49637">
        <ele>1201.2</ele>
      </trkpt>
      <trkpt lat="45.06538" lon="5.49644">
        <ele>1196.3</ele>
      </trkpt>
      <trkpt lat="45.06553" lon="5.49657">
        <ele>1196.5</ele>
      </trkpt>
      <trkpt lat="45.06565" lon="5.49675">
        <ele>1197.4</ele>
      </trkpt>
      <trkpt lat="45.06626" lon="5.4982">
        <ele>1196</ele>
      </trkpt>
      <trkpt lat="45.06626" lon="5.49845">
        <ele>1196.2</ele>
      </trkpt>
      <trkpt lat="45.06603" lon="5.49882">
        <ele>1203.6</ele>
      </trkpt>
      <trkpt lat="45.06598" lon="5.499">
        <ele>1205.3</ele>
      </trkpt>
      <trkpt lat="45.06629" lon="5.49972">
        <ele>1190.5</ele>
      </trkpt>
      <trkpt lat="45.06627" lon="5.49989">
        <ele>1189.3</ele>
      </trkpt>
      <trkpt lat="45.06619" lon="5.5">
        <ele>1190.8</ele>
      </trkpt>
      <trkpt lat="45.06591" lon="5.50019">
        <ele>1194.9</ele>
      </trkpt>
      <trkpt lat="45.06581" lon="5.5003">
        <ele>1194.9</ele>
      </trkpt>
      <trkpt lat="45.06486" lon="5.50078">
        <ele>1199.5</ele>
      </trkpt>
      <trkpt lat="45.06483" lon="5.50125">
        <ele>1189</ele>
      </trkpt>
      <trkpt lat="45.06434" lon="5.50228">
        <ele>1182.6</ele>
      </trkpt>
      <trkpt lat="45.06406" lon="5.50298">
        <ele>1180.1</ele>
      </trkpt>
      <trkpt lat="45.0639" lon="5.5036">
        <ele>1176.1</ele>
      </trkpt>
      <trkpt lat="45.06365" lon="5.50416">
        <ele>1176.7</ele>
      </trkpt>
      <trkpt lat="45.0636" lon="5.5044">
        <ele>1177.2</ele>
      </trkpt>
      <trkpt lat="45.06339" lon="5.50496">
        <ele>1178.6</ele>
      </trkpt>
      <trkpt lat="45.06336" lon="5.50515">
        <ele>1179.4</ele>
      </trkpt>
      <trkpt lat="45.06262" lon="5.50553">
        <ele>1189</ele>
      </trkpt>
      <trkpt lat="45.06208" lon="5.50587">
        <ele>1190.8</ele>
      </trkpt>
      <trkpt lat="45.0616" lon="5.50627">
        <ele>1192</ele>
      </trkpt>
      <trkpt lat="45.0615" lon="5.50654">
        <ele>1191.6</ele>
      </trkpt>
      <trkpt lat="45.06134" lon="5.50674">
        <ele>1191.9</ele>
      </trkpt>
      <trkpt lat="45.06134" lon="5.50679">
        <ele>1190.8</ele>
      </trkpt>
      <trkpt lat="45.0613" lon="5.50684">
        <ele>1190.6</ele>
      </trkpt>
      <trkpt lat="45.06125" lon="5.5069">
        <ele>1190.1</ele>
      </trkpt>
      <trkpt lat="45.06121" lon="5.5071">
        <ele>1185.9</ele>
      </trkpt>
      <trkpt lat="45.06119" lon="5.50721">
        <ele>1183.3</ele>
      </trkpt>
      <trkpt lat="45.06128" lon="5.50722">
        <ele>1181.4</ele>
      </trkpt>
      <trkpt lat="45.06136" lon="5.50728">
        <ele>1178.8</ele>
      </trkpt>
      <trkpt lat="45.06146" lon="5.50729">
        <ele>1177.2</ele>
      </trkpt>
      <trkpt lat="45.06157" lon="5.50733">
        <ele>1174.7</ele>
      </trkpt>
      <trkpt lat="45.06158" lon="5.50733">
        <ele>1174.6</ele>
      </trkpt>
      <trkpt lat="45.06165" lon="5.50738">
        <ele>1172.5</ele>
      </trkpt>
      <trkpt lat="45.06173" lon="5.50741">
        <ele>1171.8</ele>
      </trkpt>
      <trkpt lat="45.06185" lon="5.50745">
        <ele>1171.2</ele>
      </trkpt>
      <trkpt lat="45.06196" lon="5.5075">
        <ele>1170.4</ele>
      </trkpt>
      <trkpt lat="45.06203" lon="5.50754">
        <ele>1169.5</ele>
      </trkpt>
      <trkpt lat="45.06207" lon="5.50763">
        <ele>1167.9</ele>
      </trkpt>
      <trkpt lat="45.06201" lon="5.50767">
        <ele>1166.9</ele>
      </trkpt>
      <trkpt lat="45.06199" lon="5.50768">
        <ele>1166.7</ele>
      </trkpt>
      <trkpt lat="45.06191" lon="5.50771">
        <ele>1166.1</ele>
      </trkpt>
      <trkpt lat="45.06186" lon="5.50772">
        <ele>1165.8</ele>
      </trkpt>
      <trkpt lat="45.0618" lon="5.50773">
        <ele>1165.5</ele>
      </trkpt>
      <trkpt lat="45.06171" lon="5.50775">
        <ele>1165</ele>
      </trkpt>
      <trkpt lat="45.06161" lon="5.50779">
        <ele>1164.6</ele>
      </trkpt>
      <trkpt lat="45.06153" lon="5.50782">
        <ele>1164.8</ele>
      </trkpt>
      <trkpt lat="45.06148" lon="5.50785">
        <ele>1164.5</ele>
      </trkpt>
      <trkpt lat="45.06143" lon="5.5079">
        <ele>1163.8</ele>
      </trkpt>
      <trkpt lat="45.06135" lon="5.508">
        <ele>1162.2</ele>
      </trkpt>
      <trkpt lat="45.06128" lon="5.50802">
        <ele>1162.3</ele>
      </trkpt>
      <trkpt lat="45.0612" lon="5.5081">
        <ele>1160.9</ele>
      </trkpt>
      <trkpt lat="45.06117" lon="5.5082">
        <ele>1158.7</ele>
      </trkpt>
      <trkpt lat="45.0611" lon="5.50834">
        <ele>1155.6</ele>
      </trkpt>
      <trkpt lat="45.06108" lon="5.50841">
        <ele>1154.6</ele>
      </trkpt>
      <trkpt lat="45.06112" lon="5.50845">
        <ele>1153.9</ele>
      </trkpt>
      <trkpt lat="45.06115" lon="5.50851">
        <ele>1152.8</ele>
      </trkpt>
      <trkpt lat="45.06123" lon="5.50855">
        <ele>1152</ele>
      </trkpt>
      <trkpt lat="45.06128" lon="5.50868">
        <ele>1150</ele>
      </trkpt>
      <trkpt lat="45.06129" lon="5.5087">
        <ele>1149.7</ele>
      </trkpt>
      <trkpt lat="45.06133" lon="5.50882">
        <ele>1147.8</ele>
      </trkpt>
      <trkpt lat="45.06136" lon="5.50897">
        <ele>1145.7</ele>
      </trkpt>
      <trkpt lat="45.06137" lon="5.50922">
        <ele>1142.4</ele>
      </trkpt>
      <trkpt lat="45.06137" lon="5.50924">
        <ele>1142.3</ele>
      </trkpt>
      <trkpt lat="45.0614" lon="5.50939">
        <ele>1140.8</ele>
      </trkpt>
      <trkpt lat="45.06147" lon="5.5098">
        <ele>1137.4</ele>
      </trkpt>
      <trkpt lat="45.06143" lon="5.50995">
        <ele>1135.7</ele>
      </trkpt>
      <trkpt lat="45.06132" lon="5.51">
        <ele>1134.5</ele>
      </trkpt>
      <trkpt lat="45.06116" lon="5.50998">
        <ele>1133.6</ele>
      </trkpt>
      <trkpt lat="45.06091" lon="5.51016">
        <ele>1131.8</ele>
      </trkpt>
      <trkpt lat="45.06037" lon="5.51072">
        <ele>1131.9</ele>
      </trkpt>
      <trkpt lat="45.06013" lon="5.51128">
        <ele>1128.3</ele>
      </trkpt>
      <trkpt lat="45.05987" lon="5.51161">
        <ele>1126.2</ele>
      </trkpt>
      <trkpt lat="45.05971" lon="5.51216">
        <ele>1121.9</ele>
      </trkpt>
      <trkpt lat="45.05919" lon="5.51293">
        <ele>1114.6</ele>
      </trkpt>
      <trkpt lat="45.059" lon="5.51308">
        <ele>1115</ele>
      </trkpt>
      <trkpt lat="45.05891" lon="5.51344">
        <ele>1113.8</ele>
      </trkpt>
      <trkpt lat="45.05891" lon="5.51366">
        <ele>1112.8</ele>
      </trkpt>
      <trkpt lat="45.05885" lon="5.51395">
        <ele>1111.7</ele>
      </trkpt>
      <trkpt lat="45.05895" lon="5.51432">
        <ele>1110.1</ele>
      </trkpt>
      <trkpt lat="45.05904" lon="5.51496">
        <ele>1106.8</ele>
      </trkpt>
      <trkpt lat="45.05923" lon="5.51569">
        <ele>1103.9</ele>
      </trkpt>
      <trkpt lat="45.0592" lon="5.51596">
        <ele>1104</ele>
      </trkpt>
      <trkpt lat="45.05921" lon="5.51629">
        <ele>1104.7</ele>
      </trkpt>
      <trkpt lat="45.05949" lon="5.51738">
        <ele>1106.8</ele>
      </trkpt>
      <trkpt lat="45.05935" lon="5.51761">
        <ele>1108.7</ele>
      </trkpt>
      <trkpt lat="45.05938" lon="5.51765">
        <ele>1108.9</ele>
      </trkpt>
      <trkpt lat="45.05934" lon="5.51779">
        <ele>1109.8</ele>
      </trkpt>
      <trkpt lat="45.05933" lon="5.5183">
        <ele>1112.8</ele>
      </trkpt>
      <trkpt lat="45.05927" lon="5.51839">
        <ele>1113.8</ele>
      </trkpt>
      <trkpt lat="45.05917" lon="5.51875">
        <ele>1117.5</ele>
      </trkpt>
      <trkpt lat="45.05917" lon="5.51888">
        <ele>1118.6</ele>
      </trkpt>
      <trkpt lat="45.05899" lon="5.51957">
        <ele>1123.7</ele>
      </trkpt>
      <trkpt lat="45.05905" lon="5.51995">
        <ele>1124.8</ele>
      </trkpt>
      <trkpt lat="45.05883" lon="5.52034">
        <ele>1126.9</ele>
      </trkpt>
      <trkpt lat="45.05877" lon="5.5207">
        <ele>1127.1</ele>
      </trkpt>
      <trkpt lat="45.05843" lon="5.52093">
        <ele>1127</ele>
      </trkpt>
      <trkpt lat="45.05833" lon="5.52113">
        <ele>1127.1</ele>
      </trkpt>
      <trkpt lat="45.05837" lon="5.52136">
        <ele>1127.1</ele>
      </trkpt>
      <trkpt lat="45.05861" lon="5.52155">
        <ele>1127.9</ele>
      </trkpt>
      <trkpt lat="45.05902" lon="5.52176">
        <ele>1130.4</ele>
      </trkpt>
      <trkpt lat="45.05957" lon="5.52213">
        <ele>1133.3</ele>
      </trkpt>
      <trkpt lat="45.06001" lon="5.52255">
        <ele>1136.3</ele>
      </trkpt>
    </trkseg>
  </trk>
  <trk>
    <name><![CDATA[Site VTT-FFC Villard de Lans - Corrençon - Circuit N° 48 : Le sapin Bélier - 25883 - UtagawaVTT.com]]></name>
    <trkseg>
      <trkpt lat="45.05922" lon="5.52273">
        <ele>1137.4</ele>
      </trkpt>
      <trkpt lat="45.06025" lon="5.52315">
        <ele>1139.3</ele>
      </trkpt>
      <trkpt lat="45.06049" lon="5.52347">
        <ele>1139.8</ele>
      </trkpt>
      <trkpt lat="45.06047" lon="5.52377">
        <ele>1141.8</ele>
      </trkpt>
      <trkpt lat="45.06033" lon="5.52431">
        <ele>1146.9</ele>
      </trkpt>
      <trkpt lat="45.06081" lon="5.52481">
        <ele>1149.2</ele>
      </trkpt>
      <trkpt lat="45.06167" lon="5.52479">
        <ele>1147.2</ele>
      </trkpt>
      <trkpt lat="45.06183" lon="5.52595">
        <ele>1165.4</ele>
      </trkpt>
      <trkpt lat="45.06335" lon="5.52662">
        <ele>1174</ele>
      </trkpt>
      <trkpt lat="45.06264" lon="5.52735">
        <ele>1178.7</ele>
      </trkpt>
      <trkpt lat="45.06237" lon="5.52815">
        <ele>1185.1</ele>
      </trkpt>
      <trkpt lat="45.06152" lon="5.52869">
        <ele>1195</ele>
      </trkpt>
      <trkpt lat="45.06031" lon="5.528">
        <ele>1200.7</ele>
      </trkpt>
      <trkpt lat="45.05953" lon="5.52776">
        <ele>1199</ele>
      </trkpt>
      <trkpt lat="45.05877" lon="5.52722">
        <ele>1196.7</ele>
      </trkpt>
      <trkpt lat="45.05773" lon="5.52722">
        <ele>1205.3</ele>
      </trkpt>
      <trkpt lat="45.05739" lon="5.52691">
        <ele>1205.3</ele>
      </trkpt>
      <trkpt lat="45.05599" lon="5.5272">
        <ele>1214.6</ele>
      </trkpt>
      <trkpt lat="45.05547" lon="5.52713">
        <ele>1218.4</ele>
      </trkpt>
      <trkpt lat="45.05531" lon="5.52673">
        <ele>1217.4</ele>
      </trkpt>
      <trkpt lat="45.05444" lon="5.52656">
        <ele>1227.1</ele>
      </trkpt>
      <trkpt lat="45.05224" lon="5.52457">
        <ele>1239.2</ele>
      </trkpt>
      <trkpt lat="45.05163" lon="5.52411">
        <ele>1244.4</ele>
      </trkpt>
      <trkpt lat="45.05129" lon="5.52213">
        <ele>1250.4</ele>
      </trkpt>
      <trkpt lat="45.05004" lon="5.52149">
        <ele>1254.1</ele>
      </trkpt>
      <trkpt lat="45.04953" lon="5.52072">
        <ele>1246.4</ele>
      </trkpt>
      <trkpt lat="45.04817" lon="5.52108">
        <ele>1246.7</ele>
      </trkpt>
      <trkpt lat="45.04753" lon="5.52107">
        <ele>1244.8</ele>
      </trkpt>
      <trkpt lat="45.04684" lon="5.5217">
        <ele>1248.2</ele>
      </trkpt>
      <trkpt lat="45.04602" lon="5.52182">
        <ele>1251.7</ele>
      </trkpt>
      <trkpt lat="45.04603" lon="5.52029">
        <ele>1253</ele>
      </trkpt>
      <trkpt lat="45.04604" lon="5.51954">
        <ele>1253.6</ele>
      </trkpt>
      <trkpt lat="45.04526" lon="5.51878">
        <ele>1262</ele>
      </trkpt>
      <trkpt lat="45.04498" lon="5.51832">
        <ele>1266.3</ele>
      </trkpt>
      <trkpt lat="45.04429" lon="5.51798">
        <ele>1275.7</ele>
      </trkpt>
      <trkpt lat="45.04375" lon="5.51746">
        <ele>1279.3</ele>
      </trkpt>
      <trkpt lat="45.04269" lon="5.51782">
        <ele>1287.8</ele>
      </trkpt>
      <trkpt lat="45.04171" lon="5.51812">
        <ele>1292.9</ele>
      </trkpt>
      <trkpt lat="45.04121" lon="5.51855">
        <ele>1291.6</ele>
      </trkpt>
      <trkpt lat="45.04071" lon="5.51963">
        <ele>1276.8</ele>
      </trkpt>
      <trkpt lat="45.03922" lon="5.52033">
        <ele>1249</ele>
      </trkpt>
      <trkpt lat="45.03897" lon="5.52083">
        <ele>1235.8</ele>
      </trkpt>
      <trkpt lat="45.03934" lon="5.52142">
        <ele>1223.9</ele>
      </trkpt>
      <trkpt lat="45.03946" lon="5.52191">
        <ele>1211.5</ele>
      </trkpt>
      <trkpt lat="45.03906" lon="5.5223">
        <ele>1195.7</ele>
      </trkpt>
      <trkpt lat="45.03878" lon="5.52261">
        <ele>1184</ele>
      </trkpt>
      <trkpt lat="45.03827" lon="5.52291">
        <ele>1170.3</ele>
      </trkpt>
      <trkpt lat="45.03797" lon="5.52394">
        <ele>1141.4</ele>
      </trkpt>
      <trkpt lat="45.03664" lon="5.52417">
        <ele>1119.6</ele>
      </trkpt>
      <trkpt lat="45.03602" lon="5.52571">
        <ele>1104.3</ele>
      </trkpt>
      <trkpt lat="45.03507" lon="5.52478">
        <ele>1104.9</ele>
      </trkpt>
      <trkpt lat="45.03483" lon="5.52378">
        <ele>1102.4</ele>
      </trkpt>
      <trkpt lat="45.03379" lon="5.52295">
        <ele>1108.4</ele>
      </trkpt>
      <trkpt lat="45.03309" lon="5.52381">
        <ele>1102.6</ele>
      </trkpt>
      <trkpt lat="45.03181" lon="5.5266">
        <ele>1104.1</ele>
      </trkpt>
      <trkpt lat="45.03075" lon="5.52748">
        <ele>1102.4</ele>
      </trkpt>
      <trkpt lat="45.02922" lon="5.52769">
        <ele>1111</ele>
      </trkpt>
      <trkpt lat="45.02799" lon="5.52654">
        <ele>1122.1</ele>
      </trkpt>
      <trkpt lat="45.02794" lon="5.5248">
        <ele>1119.7</ele>
      </trkpt>
      <trkpt lat="45.0279" lon="5.52461">
        <ele>1119.7</ele>
      </trkpt>
      <trkpt lat="45.02786" lon="5.5245">
        <ele>1119.8</ele>
      </trkpt>
      <trkpt lat="45.02776" lon="5.5243">
        <ele>1120.2</ele>
      </trkpt>
      <trkpt lat="45.02754" lon="5.52371">
        <ele>1121.8</ele>
      </trkpt>
      <trkpt lat="45.02747" lon="5.52359">
        <ele>1122.2</ele>
      </trkpt>
      <trkpt lat="45.02698" lon="5.52235">
        <ele>1123</ele>
      </trkpt>
      <trkpt lat="45.02696" lon="5.52225">
        <ele>1122.7</ele>
      </trkpt>
      <trkpt lat="45.02697" lon="5.5222">
        <ele>1122.5</ele>
      </trkpt>
      <trkpt lat="45.02683" lon="5.5222">
        <ele>1123.7</ele>
      </trkpt>
      <trkpt lat="45.02678" lon="5.52218">
        <ele>1124.1</ele>
      </trkpt>
      <trkpt lat="45.02658" lon="5.52195">
        <ele>1125.2</ele>
      </trkpt>
      <trkpt lat="45.02642" lon="5.52186">
        <ele>1127.3</ele>
      </trkpt>
      <trkpt lat="45.02632" lon="5.52174">
        <ele>1128</ele>
      </trkpt>
      <trkpt lat="45.02614" lon="5.52147">
        <ele>1129.3</ele>
      </trkpt>
      <trkpt lat="45.02601" lon="5.52135">
        <ele>1130.7</ele>
      </trkpt>
      <trkpt lat="45.02588" lon="5.52128">
        <ele>1132.5</ele>
      </trkpt>
      <trkpt lat="45.0258" lon="5.52117">
        <ele>1133.2</ele>
      </trkpt>
      <trkpt lat="45.02575" lon="5.52105">
        <ele>1133.7</ele>
      </trkpt>
      <trkpt lat="45.02575" lon="5.52103">
        <ele>1133.5</ele>
      </trkpt>
      <trkpt lat="45.02623" lon="5.52026">
        <ele>1123.4</ele>
      </trkpt>
      <trkpt lat="45.02547" lon="5.51834">
        <ele>1137.6</ele>
      </trkpt>
      <trkpt lat="45.02417" lon="5.51733">
        <ele>1147.9</ele>
      </trkpt>
      <trkpt lat="45.02384" lon="5.51603">
        <ele>1166.5</ele>
      </trkpt>
      <trkpt lat="45.02513" lon="5.51541">
        <ele>1180.4</ele>
      </trkpt>
      <trkpt lat="45.0266" lon="5.51494">
        <ele>1192.4</ele>
      </trkpt>
      <trkpt lat="45.02784" lon="5.51302">
        <ele>1206.1</ele>
      </trkpt>
      <trkpt lat="45.02804" lon="5.51223">
        <ele>1205.9</ele>
      </trkpt>
      <trkpt lat="45.02959" lon="5.51086">
        <ele>1215.1</ele>
      </trkpt>
      <trkpt lat="45.0303" lon="5.50946">
        <ele>1216.6</ele>
      </trkpt>
      <trkpt lat="45.03083" lon="5.50796">
        <ele>1221.7</ele>
      </trkpt>
      <trkpt lat="45.03084" lon="5.50664">
        <ele>1227</ele>
      </trkpt>
      <trkpt lat="45.03201" lon="5.50542">
        <ele>1238.1</ele>
      </trkpt>
      <trkpt lat="45.0323" lon="5.50476">
        <ele>1246.3</ele>
      </trkpt>
      <trkpt lat="45.03327" lon="5.50448">
        <ele>1257.5</ele>
      </trkpt>
      <trkpt lat="45.03298" lon="5.50333">
        <ele>1270.6</ele>
      </trkpt>
      <trkpt lat="45.03402" lon="5.50253">
        <ele>1284.2</ele>
      </trkpt>
      <trkpt lat="45.03417" lon="5.50066">
        <ele>1307.9</ele>
      </trkpt>
      <trkpt lat="45.03537" lon="5.49928">
        <ele>1303.4</ele>
      </trkpt>
      <trkpt lat="45.03651" lon="5.49821">
        <ele>1294.8</ele>
      </trkpt>
      <trkpt lat="45.03937" lon="5.49799">
        <ele>1293</ele>
      </trkpt>
      <trkpt lat="45.04064" lon="5.49774">
        <ele>1298.8</ele>
      </trkpt>
      <trkpt lat="45.04151" lon="5.49871">
        <ele>1289.1</ele>
      </trkpt>
      <trkpt lat="45.04243" lon="5.49913">
        <ele>1290.1</ele>
      </trkpt>
      <trkpt lat="45.04261" lon="5.49917">
        <ele>1289.9</ele>
      </trkpt>
      <trkpt lat="45.04262" lon="5.49912">
        <ele>1290.2</ele>
      </trkpt>
      <trkpt lat="45.0426" lon="5.49913">
        <ele>1290.2</ele>
      </trkpt>
      <trkpt lat="45.04262" lon="5.49921">
        <ele>1289.8</ele>
      </trkpt>
      <trkpt lat="45.0428" lon="5.49881">
        <ele>1292.3</ele>
      </trkpt>
      <trkpt lat="45.04285" lon="5.49867">
        <ele>1293.4</ele>
      </trkpt>
      <trkpt lat="45.04284" lon="5.4985">
        <ele>1294.7</ele>
      </trkpt>
      <trkpt lat="45.04279" lon="5.49835">
        <ele>1295.9</ele>
      </trkpt>
      <trkpt lat="45.04271" lon="5.49823">
        <ele>1297.7</ele>
      </trkpt>
      <trkpt lat="45.04265" lon="5.49808">
        <ele>1300</ele>
      </trkpt>
      <trkpt lat="45.04262" lon="5.49795">
        <ele>1302.1</ele>
      </trkpt>
      <trkpt lat="45.0425" lon="5.49766">
        <ele>1306.5</ele>
      </trkpt>
      <trkpt lat="45.04234" lon="5.49747">
        <ele>1308.6</ele>
      </trkpt>
      <trkpt lat="45.04223" lon="5.4974">
        <ele>1310.5</ele>
      </trkpt>
      <trkpt lat="45.04211" lon="5.49733">
        <ele>1311.8</ele>
      </trkpt>
      <trkpt lat="45.04202" lon="5.49727">
        <ele>1313.2</ele>
      </trkpt>
      <trkpt lat="45.04183" lon="5.49718">
        <ele>1315.2</ele>
      </trkpt>
      <trkpt lat="45.04156" lon="5.49703">
        <ele>1319.4</ele>
      </trkpt>
      <trkpt lat="45.04138" lon="5.49695">
        <ele>1322.2</ele>
      </trkpt>
      <trkpt lat="45.04125" lon="5.49691">
        <ele>1323.6</ele>
      </trkpt>
      <trkpt lat="45.04112" lon="5.49689">
        <ele>1324.5</ele>
      </trkpt>
      <trkpt lat="45.04099" lon="5.49685">
        <ele>1325.9</ele>
      </trkpt>
      <trkpt lat="45.04087" lon="5.49683">
        <ele>1326.6</ele>
      </trkpt>
      <trkpt lat="45.04063" lon="5.49676">
        <ele>1329.1</ele>
      </trkpt>
      <trkpt lat="45.04051" lon="5.4967">
        <ele>1331.1</ele>
      </trkpt>
      <trkpt lat="45.04035" lon="5.49659">
        <ele>1335</ele>
      </trkpt>
      <trkpt lat="45.04023" lon="5.49653">
        <ele>1337.3</ele>
      </trkpt>
      <trkpt lat="45.04004" lon="5.49646">
        <ele>1339.8</ele>
      </trkpt>
      <trkpt lat="45.03994" lon="5.49635">
        <ele>1343.1</ele>
      </trkpt>
      <trkpt lat="45.03975" lon="5.49627">
        <ele>1345.2</ele>
      </trkpt>
      <trkpt lat="45.03961" lon="5.49626">
        <ele>1345.3</ele>
      </trkpt>
      <trkpt lat="45.03934" lon="5.49617">
        <ele>1347</ele>
      </trkpt>
      <trkpt lat="45.03924" lon="5.49611">
        <ele>1348.3</ele>
      </trkpt>
      <trkpt lat="45.03915" lon="5.49602">
        <ele>1350.2</ele>
      </trkpt>
      <trkpt lat="45.03908" lon="5.49592">
        <ele>1352.2</ele>
      </trkpt>
      <trkpt lat="45.03897" lon="5.49581">
        <ele>1354.3</ele>
      </trkpt>
      <trkpt lat="45.03888" lon="5.49574">
        <ele>1355.5</ele>
      </trkpt>
      <trkpt lat="45.03872" lon="5.49562">
        <ele>1357.4</ele>
      </trkpt>
      <trkpt lat="45.03863" lon="5.49553">
        <ele>1359</ele>
      </trkpt>
      <trkpt lat="45.03855" lon="5.49549">
        <ele>1359.5</ele>
      </trkpt>
      <trkpt lat="45.03842" lon="5.49541">
        <ele>1360.8</ele>
      </trkpt>
      <trkpt lat="45.03834" lon="5.49534">
        <ele>1361.8</ele>
      </trkpt>
      <trkpt lat="45.03827" lon="5.49525">
        <ele>1363.6</ele>
      </trkpt>
      <trkpt lat="45.03821" lon="5.4951">
        <ele>1366.7</ele>
      </trkpt>
      <trkpt lat="45.03817" lon="5.49498">
        <ele>1369.2</ele>
      </trkpt>
      <trkpt lat="45.03812" lon="5.49467">
        <ele>1377</ele>
      </trkpt>
      <trkpt lat="45.03809" lon="5.49455">
        <ele>1380</ele>
      </trkpt>
      <trkpt lat="45.03798" lon="5.49444">
        <ele>1382.6</ele>
      </trkpt>
      <trkpt lat="45.03789" lon="5.49438">
        <ele>1383.9</ele>
      </trkpt>
      <trkpt lat="45.03768" lon="5.4945">
        <ele>1379.5</ele>
      </trkpt>
      <trkpt lat="45.03759" lon="5.49452">
        <ele>1378.4</ele>
      </trkpt>
      <trkpt lat="45.0375" lon="5.4945">
        <ele>1378.7</ele>
      </trkpt>
      <trkpt lat="45.0374" lon="5.49445">
        <ele>1380</ele>
      </trkpt>
      <trkpt lat="45.03707" lon="5.49418">
        <ele>1387.1</ele>
      </trkpt>
      <trkpt lat="45.03689" lon="5.49408">
        <ele>1388.6</ele>
      </trkpt>
      <trkpt lat="45.0368" lon="5.494">
        <ele>1389.8</ele>
      </trkpt>
      <trkpt lat="45.03671" lon="5.49391">
        <ele>1391.7</ele>
      </trkpt>
      <trkpt lat="45.03665" lon="5.49376">
        <ele>1394.8</ele>
      </trkpt>
      <trkpt lat="45.03665" lon="5.4936">
        <ele>1398.3</ele>
      </trkpt>
      <trkpt lat="45.03671" lon="5.49346">
        <ele>1401</ele>
      </trkpt>
      <trkpt lat="45.03681" lon="5.49339">
        <ele>1402.3</ele>
      </trkpt>
      <trkpt lat="45.03692" lon="5.49335">
        <ele>1402.4</ele>
      </trkpt>
      <trkpt lat="45.03713" lon="5.49331">
        <ele>1402.2</ele>
      </trkpt>
      <trkpt lat="45.03731" lon="5.49324">
        <ele>1402.5</ele>
      </trkpt>
      <trkpt lat="45.03738" lon="5.49312">
        <ele>1404.4</ele>
      </trkpt>
      <trkpt lat="45.03745" lon="5.49302">
        <ele>1405.6</ele>
      </trkpt>
      <trkpt lat="45.03767" lon="5.4929">
        <ele>1406.4</ele>
      </trkpt>
      <trkpt lat="45.03777" lon="5.4928">
        <ele>1407.3</ele>
      </trkpt>
      <trkpt lat="45.03785" lon="5.49269">
        <ele>1408.5</ele>
      </trkpt>
      <trkpt lat="45.03793" lon="5.49256">
        <ele>1410</ele>
      </trkpt>
      <trkpt lat="45.03806" lon="5.4923">
        <ele>1411.9</ele>
      </trkpt>
      <trkpt lat="45.03815" lon="5.49217">
        <ele>1412.3</ele>
      </trkpt>
      <trkpt lat="45.03819" lon="5.49203">
        <ele>1413</ele>
      </trkpt>
      <trkpt lat="45.0382" lon="5.49191">
        <ele>1413.9</ele>
      </trkpt>
      <trkpt lat="45.03821" lon="5.49194">
        <ele>1413.5</ele>
      </trkpt>
      <trkpt lat="45.03806" lon="5.49133">
        <ele>1421</ele>
      </trkpt>
      <trkpt lat="45.038" lon="5.49118">
        <ele>1422.9</ele>
      </trkpt>
      <trkpt lat="45.03791" lon="5.49105">
        <ele>1424.5</ele>
      </trkpt>
      <trkpt lat="45.03779" lon="5.49095">
        <ele>1425.7</ele>
      </trkpt>
      <trkpt lat="45.03758" lon="5.49079">
        <ele>1427.5</ele>
      </trkpt>
      <trkpt lat="45.03748" lon="5.49068">
        <ele>1429.1</ele>
      </trkpt>
      <trkpt lat="45.03739" lon="5.49056">
        <ele>1430.9</ele>
      </trkpt>
      <trkpt lat="45.03729" lon="5.49046">
        <ele>1432.4</ele>
      </trkpt>
      <trkpt lat="45.03716" lon="5.49034">
        <ele>1433.8</ele>
      </trkpt>
      <trkpt lat="45.03704" lon="5.4903">
        <ele>1434.3</ele>
      </trkpt>
      <trkpt lat="45.03657" lon="5.49018">
        <ele>1435.4</ele>
      </trkpt>
      <trkpt lat="45.03624" lon="5.49007">
        <ele>1436.1</ele>
      </trkpt>
      <trkpt lat="45.03599" lon="5.48996">
        <ele>1436.8</ele>
      </trkpt>
      <trkpt lat="45.03579" lon="5.48981">
        <ele>1440.1</ele>
      </trkpt>
      <trkpt lat="45.03568" lon="5.48976">
        <ele>1441.7</ele>
      </trkpt>
      <trkpt lat="45.03558" lon="5.48975">
        <ele>1442.4</ele>
      </trkpt>
      <trkpt lat="45.03547" lon="5.48978">
        <ele>1442.4</ele>
      </trkpt>
      <trkpt lat="45.03539" lon="5.48991">
        <ele>1440.4</ele>
      </trkpt>
      <trkpt lat="45.03534" lon="5.49008">
        <ele>1439.3</ele>
      </trkpt>
      <trkpt lat="45.03526" lon="5.49019">
        <ele>1440.1</ele>
      </trkpt>
      <trkpt lat="45.03513" lon="5.49018">
        <ele>1440.7</ele>
      </trkpt>
      <trkpt lat="45.03499" lon="5.49015">
        <ele>1441.4</ele>
      </trkpt>
      <trkpt lat="45.03485" lon="5.49014">
        <ele>1442.4</ele>
      </trkpt>
      <trkpt lat="45.03459" lon="5.49011">
        <ele>1444.2</ele>
      </trkpt>
      <trkpt lat="45.03447" lon="5.49013">
        <ele>1445.1</ele>
      </trkpt>
      <trkpt lat="45.03438" lon="5.49016">
        <ele>1445.9</ele>
      </trkpt>
      <trkpt lat="45.03428" lon="5.49018">
        <ele>1446.6</ele>
      </trkpt>
      <trkpt lat="45.03408" lon="5.49028">
        <ele>1447.4</ele>
      </trkpt>
      <trkpt lat="45.03398" lon="5.49034">
        <ele>1447.1</ele>
      </trkpt>
      <trkpt lat="45.03388" lon="5.49039">
        <ele>1446.8</ele>
      </trkpt>
      <trkpt lat="45.03374" lon="5.49039">
        <ele>1446.2</ele>
      </trkpt>
      <trkpt lat="45.03349" lon="5.49036">
        <ele>1445.3</ele>
      </trkpt>
      <trkpt lat="45.03336" lon="5.49032">
        <ele>1444.9</ele>
      </trkpt>
      <trkpt lat="45.03324" lon="5.49031">
        <ele>1444.8</ele>
      </trkpt>
      <trkpt lat="45.03279" lon="5.49018">
        <ele>1444.9</ele>
      </trkpt>
      <trkpt lat="45.03265" lon="5.49015">
        <ele>1445</ele>
      </trkpt>
      <trkpt lat="45.03251" lon="5.49009">
        <ele>1445.3</ele>
      </trkpt>
      <trkpt lat="45.03237" lon="5.49006">
        <ele>1446.4</ele>
      </trkpt>
      <trkpt lat="45.03224" lon="5.4901">
        <ele>1446.9</ele>
      </trkpt>
      <trkpt lat="45.03214" lon="5.4902">
        <ele>1446.4</ele>
      </trkpt>
      <trkpt lat="45.03207" lon="5.49032">
        <ele>1445.2</ele>
      </trkpt>
      <trkpt lat="45.03205" lon="5.49049">
        <ele>1443.2</ele>
      </trkpt>
      <trkpt lat="45.03199" lon="5.4906">
        <ele>1441.8</ele>
      </trkpt>
      <trkpt lat="45.03181" lon="5.49058">
        <ele>1442.2</ele>
      </trkpt>
      <trkpt lat="45.03147" lon="5.49047">
        <ele>1444.9</ele>
      </trkpt>
      <trkpt lat="45.03136" lon="5.49049">
        <ele>1444.9</ele>
      </trkpt>
      <trkpt lat="45.03126" lon="5.49055">
        <ele>1444</ele>
      </trkpt>
      <trkpt lat="45.03115" lon="5.4906">
        <ele>1443.4</ele>
      </trkpt>
      <trkpt lat="45.03106" lon="5.49067">
        <ele>1442.3</ele>
      </trkpt>
      <trkpt lat="45.03097" lon="5.49075">
        <ele>1440.7</ele>
      </trkpt>
      <trkpt lat="45.03089" lon="5.49087">
        <ele>1439</ele>
      </trkpt>
      <trkpt lat="45.03079" lon="5.49093">
        <ele>1439.2</ele>
      </trkpt>
      <trkpt lat="45.0307" lon="5.4909">
        <ele>1439</ele>
      </trkpt>
      <trkpt lat="45.03058" lon="5.49082">
        <ele>1438.9</ele>
      </trkpt>
      <trkpt lat="45.03011" lon="5.4906">
        <ele>1442.3</ele>
      </trkpt>
      <trkpt lat="45.02998" lon="5.49054">
        <ele>1442.7</ele>
      </trkpt>
      <trkpt lat="45.02985" lon="5.49052">
        <ele>1442</ele>
      </trkpt>
      <trkpt lat="45.02975" lon="5.49056">
        <ele>1440.6</ele>
      </trkpt>
      <trkpt lat="45.02966" lon="5.49065">
        <ele>1438.4</ele>
      </trkpt>
      <trkpt lat="45.02954" lon="5.49071">
        <ele>1436.6</ele>
      </trkpt>
      <trkpt lat="45.02925" lon="5.49082">
        <ele>1432.8</ele>
      </trkpt>
      <trkpt lat="45.02897" lon="5.49084">
        <ele>1431.3</ele>
      </trkpt>
      <trkpt lat="45.02851" lon="5.49086">
        <ele>1429.8</ele>
      </trkpt>
      <trkpt lat="45.02837" lon="5.4908">
        <ele>1429.6</ele>
      </trkpt>
      <trkpt lat="45.02825" lon="5.49073">
        <ele>1430.5</ele>
      </trkpt>
      <trkpt lat="45.02802" lon="5.49065">
        <ele>1431.7</ele>
      </trkpt>
      <trkpt lat="45.02793" lon="5.49059">
        <ele>1432.4</ele>
      </trkpt>
      <trkpt lat="45.02762" lon="5.49034">
        <ele>1435.2</ele>
      </trkpt>
      <trkpt lat="45.02752" lon="5.49027">
        <ele>1435.8</ele>
      </trkpt>
      <trkpt lat="45.0274" lon="5.49027">
        <ele>1435.6</ele>
      </trkpt>
      <trkpt lat="45.02726" lon="5.4903">
        <ele>1435.1</ele>
      </trkpt>
      <trkpt lat="45.02711" lon="5.49037">
        <ele>1434.1</ele>
      </trkpt>
      <trkpt lat="45.02697" lon="5.49047">
        <ele>1432.7</ele>
      </trkpt>
      <trkpt lat="45.02686" lon="5.49059">
        <ele>1431.2</ele>
      </trkpt>
      <trkpt lat="45.02676" lon="5.49065">
        <ele>1430.3</ele>
      </trkpt>
      <trkpt lat="45.0265" lon="5.49068">
        <ele>1428.9</ele>
      </trkpt>
      <trkpt lat="45.02634" lon="5.49068">
        <ele>1427.9</ele>
      </trkpt>
      <trkpt lat="45.02618" lon="5.49063">
        <ele>1427.4</ele>
      </trkpt>
      <trkpt lat="45.02611" lon="5.49059">
        <ele>1427.3</ele>
      </trkpt>
      <trkpt lat="45.02602" lon="5.49046">
        <ele>1427.7</ele>
      </trkpt>
      <trkpt lat="45.02596" lon="5.49029">
        <ele>1428.3</ele>
      </trkpt>
      <trkpt lat="45.02592" lon="5.49016">
        <ele>1428.9</ele>
      </trkpt>
      <trkpt lat="45.02592" lon="5.49">
        <ele>1430</ele>
      </trkpt>
      <trkpt lat="45.0259" lon="5.48979">
        <ele>1431.7</ele>
      </trkpt>
      <trkpt lat="45.02584" lon="5.48961">
        <ele>1432.3</ele>
      </trkpt>
      <trkpt lat="45.02576" lon="5.48951">
        <ele>1434.9</ele>
      </trkpt>
      <trkpt lat="45.02569" lon="5.48944">
        <ele>1437.6</ele>
      </trkpt>
      <trkpt lat="45.02561" lon="5.48932">
        <ele>1441.2</ele>
      </trkpt>
      <trkpt lat="45.02557" lon="5.48916">
        <ele>1444.2</ele>
      </trkpt>
      <trkpt lat="45.02558" lon="5.48903">
        <ele>1445.7</ele>
      </trkpt>
      <trkpt lat="45.02563" lon="5.4889">
        <ele>1445.9</ele>
      </trkpt>
      <trkpt lat="45.02558" lon="5.48876">
        <ele>1449.4</ele>
      </trkpt>
      <trkpt lat="45.02561" lon="5.48862">
        <ele>1450.4</ele>
      </trkpt>
      <trkpt lat="45.0256" lon="5.48848">
        <ele>1452.5</ele>
      </trkpt>
      <trkpt lat="45.0257" lon="5.48817">
        <ele>1453.4</ele>
      </trkpt>
      <trkpt lat="45.02575" lon="5.48804">
        <ele>1453.5</ele>
      </trkpt>
      <trkpt lat="45.02573" lon="5.48788">
        <ele>1456</ele>
      </trkpt>
      <trkpt lat="45.02562" lon="5.48764">
        <ele>1462.3</ele>
      </trkpt>
      <trkpt lat="45.02561" lon="5.48747">
        <ele>1464.2</ele>
      </trkpt>
      <trkpt lat="45.02564" lon="5.48731">
        <ele>1463.9</ele>
      </trkpt>
      <trkpt lat="45.02559" lon="5.4872">
        <ele>1465.4</ele>
      </trkpt>
      <trkpt lat="45.02562" lon="5.48688">
        <ele>1465.5</ele>
      </trkpt>
      <trkpt lat="45.02563" lon="5.4867">
        <ele>1465.9</ele>
      </trkpt>
      <trkpt lat="45.02563" lon="5.48609">
        <ele>1465.1</ele>
      </trkpt>
      <trkpt lat="45.02566" lon="5.48595">
        <ele>1464.2</ele>
      </trkpt>
      <trkpt lat="45.02568" lon="5.48579">
        <ele>1463.7</ele>
      </trkpt>
      <trkpt lat="45.02568" lon="5.48561">
        <ele>1463.9</ele>
      </trkpt>
      <trkpt lat="45.0257" lon="5.48531">
        <ele>1463.8</ele>
      </trkpt>
      <trkpt lat="45.02573" lon="5.48517">
        <ele>1463.1</ele>
      </trkpt>
      <trkpt lat="45.02574" lon="5.48504">
        <ele>1462.9</ele>
      </trkpt>
      <trkpt lat="45.02586" lon="5.4844">
        <ele>1459.7</ele>
      </trkpt>
      <trkpt lat="45.02596" lon="5.48403">
        <ele>1458.6</ele>
      </trkpt>
      <trkpt lat="45.02598" lon="5.48388">
        <ele>1456.7</ele>
      </trkpt>
      <trkpt lat="45.02596" lon="5.48375">
        <ele>1454.7</ele>
      </trkpt>
      <trkpt lat="45.02592" lon="5.48363">
        <ele>1452.6</ele>
      </trkpt>
      <trkpt lat="45.02587" lon="5.48346">
        <ele>1450</ele>
      </trkpt>
      <trkpt lat="45.02586" lon="5.48331">
        <ele>1447.6</ele>
      </trkpt>
      <trkpt lat="45.02589" lon="5.48317">
        <ele>1443.8</ele>
      </trkpt>
      <trkpt lat="45.02591" lon="5.48302">
        <ele>1439.4</ele>
      </trkpt>
      <trkpt lat="45.02598" lon="5.48286">
        <ele>1434.9</ele>
      </trkpt>
      <trkpt lat="45.02603" lon="5.48275">
        <ele>1431.6</ele>
      </trkpt>
      <trkpt lat="45.02611" lon="5.48267">
        <ele>1429</ele>
      </trkpt>
      <trkpt lat="45.02617" lon="5.48258">
        <ele>1426.1</ele>
      </trkpt>
      <trkpt lat="45.02587" lon="5.48241">
        <ele>1420.1</ele>
      </trkpt>
      <trkpt lat="45.02613" lon="5.4822">
        <ele>1410.4</ele>
      </trkpt>
      <trkpt lat="45.02605" lon="5.48189">
        <ele>1396.9</ele>
      </trkpt>
      <trkpt lat="45.02688" lon="5.48181">
        <ele>1386.3</ele>
      </trkpt>
      <trkpt lat="45.02735" lon="5.48153">
        <ele>1370.5</ele>
      </trkpt>
      <trkpt lat="45.02763" lon="5.48117">
        <ele>1355.1</ele>
      </trkpt>
      <trkpt lat="45.02847" lon="5.48097">
        <ele>1341.2</ele>
      </trkpt>
      <trkpt lat="45.02888" lon="5.48061">
        <ele>1325.9</ele>
      </trkpt>
      <trkpt lat="45.02899" lon="5.47995">
        <ele>1302.8</ele>
      </trkpt>
      <trkpt lat="45.0293" lon="5.47931">
        <ele>1291.2</ele>
      </trkpt>
      <trkpt lat="45.02936" lon="5.47838">
        <ele>1289.5</ele>
      </trkpt>
      <trkpt lat="45.02937" lon="5.47743">
        <ele>1284.7</ele>
      </trkpt>
      <trkpt lat="45.02947" lon="5.47718">
        <ele>1284.7</ele>
      </trkpt>
      <trkpt lat="45.02992" lon="5.47724">
        <ele>1288.2</ele>
      </trkpt>
      <trkpt lat="45.03014" lon="5.4773">
        <ele>1289.6</ele>
      </trkpt>
      <trkpt lat="45.03036" lon="5.47737">
        <ele>1290.1</ele>
      </trkpt>
      <trkpt lat="45.03081" lon="5.47749">
        <ele>1289.1</ele>
      </trkpt>
      <trkpt lat="45.03114" lon="5.47769">
        <ele>1292.3</ele>
      </trkpt>
      <trkpt lat="45.03126" lon="5.47774">
        <ele>1293.4</ele>
      </trkpt>
      <trkpt lat="45.03137" lon="5.47776">
        <ele>1294.6</ele>
      </trkpt>
      <trkpt lat="45.03161" lon="5.4778">
        <ele>1296.9</ele>
      </trkpt>
      <trkpt lat="45.03209" lon="5.47781">
        <ele>1300.6</ele>
      </trkpt>
      <trkpt lat="45.03244" lon="5.47784">
        <ele>1303.3</ele>
      </trkpt>
      <trkpt lat="45.03255" lon="5.47788">
        <ele>1304</ele>
      </trkpt>
      <trkpt lat="45.03265" lon="5.47793">
        <ele>1304.3</ele>
      </trkpt>
      <trkpt lat="45.03274" lon="5.47802">
        <ele>1304.6</ele>
      </trkpt>
      <trkpt lat="45.03297" lon="5.47834">
        <ele>1305</ele>
      </trkpt>
      <trkpt lat="45.03311" lon="5.47856">
        <ele>1304.3</ele>
      </trkpt>
      <trkpt lat="45.03351" lon="5.47908">
        <ele>1307.7</ele>
      </trkpt>
      <trkpt lat="45.03378" lon="5.47948">
        <ele>1316.1</ele>
      </trkpt>
      <trkpt lat="45.03394" lon="5.47965">
        <ele>1319.3</ele>
      </trkpt>
      <trkpt lat="45.03402" lon="5.47971">
        <ele>1320.4</ele>
      </trkpt>
      <trkpt lat="45.03411" lon="5.47976">
        <ele>1321.3</ele>
      </trkpt>
      <trkpt lat="45.03421" lon="5.47978">
        <ele>1322</ele>
      </trkpt>
      <trkpt lat="45.03444" lon="5.47981">
        <ele>1323.6</ele>
      </trkpt>
      <trkpt lat="45.03463" lon="5.47981">
        <ele>1324.9</ele>
      </trkpt>
      <trkpt lat="45.03472" lon="5.47979">
        <ele>1325.6</ele>
      </trkpt>
      <trkpt lat="45.03522" lon="5.47974">
        <ele>1327.5</ele>
      </trkpt>
      <trkpt lat="45.03564" lon="5.47967">
        <ele>1327.4</ele>
      </trkpt>
      <trkpt lat="45.03617" lon="5.47962">
        <ele>1327.7</ele>
      </trkpt>
      <trkpt lat="45.03637" lon="5.47957">
        <ele>1328</ele>
      </trkpt>
      <trkpt lat="45.03647" lon="5.47954">
        <ele>1328.2</ele>
      </trkpt>
      <trkpt lat="45.03656" lon="5.47947">
        <ele>1328.4</ele>
      </trkpt>
      <trkpt lat="45.03666" lon="5.47939">
        <ele>1328.5</ele>
      </trkpt>
      <trkpt lat="45.03701" lon="5.47896">
        <ele>1333.3</ele>
      </trkpt>
      <trkpt lat="45.03757" lon="5.47834">
        <ele>1338.3</ele>
      </trkpt>
      <trkpt lat="45.03777" lon="5.47815">
        <ele>1342.2</ele>
      </trkpt>
      <trkpt lat="45.03788" lon="5.47807">
        <ele>1343.5</ele>
      </trkpt>
      <trkpt lat="45.038" lon="5.47804">
        <ele>1344.1</ele>
      </trkpt>
      <trkpt lat="45.03823" lon="5.47794">
        <ele>1345.3</ele>
      </trkpt>
      <trkpt lat="45.03882" lon="5.47773">
        <ele>1348.6</ele>
      </trkpt>
      <trkpt lat="45.03905" lon="5.47768">
        <ele>1349.5</ele>
      </trkpt>
      <trkpt lat="45.03949" lon="5.47749">
        <ele>1352.1</ele>
      </trkpt>
      <trkpt lat="45.0396" lon="5.47743">
        <ele>1353.9</ele>
      </trkpt>
      <trkpt lat="45.03991" lon="5.47729">
        <ele>1358.2</ele>
      </trkpt>
      <trkpt lat="45.04033" lon="5.47717">
        <ele>1363.5</ele>
      </trkpt>
      <trkpt lat="45.04044" lon="5.47713">
        <ele>1364.9</ele>
      </trkpt>
      <trkpt lat="45.04053" lon="5.47704">
        <ele>1366.5</ele>
      </trkpt>
      <trkpt lat="45.04074" lon="5.47691">
        <ele>1368.4</ele>
      </trkpt>
      <trkpt lat="45.04084" lon="5.47687">
        <ele>1369.1</ele>
      </trkpt>
      <trkpt lat="45.04105" lon="5.47679">
        <ele>1370.5</ele>
      </trkpt>
      <trkpt lat="45.0419" lon="5.4766">
        <ele>1373.2</ele>
      </trkpt>
      <trkpt lat="45.042" lon="5.47659">
        <ele>1373.1</ele>
      </trkpt>
      <trkpt lat="45.04223" lon="5.47654">
        <ele>1373.3</ele>
      </trkpt>
      <trkpt lat="45.04234" lon="5.47649">
        <ele>1373.7</ele>
      </trkpt>
      <trkpt lat="45.04246" lon="5.47648">
        <ele>1373.6</ele>
      </trkpt>
      <trkpt lat="45.04257" lon="5.47648">
        <ele>1373.5</ele>
      </trkpt>
      <trkpt lat="45.04268" lon="5.47646">
        <ele>1374</ele>
      </trkpt>
      <trkpt lat="45.0429" lon="5.47647">
        <ele>1374.2</ele>
      </trkpt>
      <trkpt lat="45.04302" lon="5.47649">
        <ele>1374.2</ele>
      </trkpt>
      <trkpt lat="45.04322" lon="5.47648">
        <ele>1374.6</ele>
      </trkpt>
      <trkpt lat="45.04333" lon="5.47651">
        <ele>1374.5</ele>
      </trkpt>
      <trkpt lat="45.04361" lon="5.47654">
        <ele>1375</ele>
      </trkpt>
      <trkpt lat="45.04394" lon="5.47652">
        <ele>1376.2</ele>
      </trkpt>
      <trkpt lat="45.04405" lon="5.47647">
        <ele>1376.9</ele>
      </trkpt>
      <trkpt lat="45.04417" lon="5.47645">
        <ele>1377.3</ele>
      </trkpt>
      <trkpt lat="45.0444" lon="5.47648">
        <ele>1375.9</ele>
      </trkpt>
      <trkpt lat="45.04451" lon="5.47647">
        <ele>1375.4</ele>
      </trkpt>
      <trkpt lat="45.04461" lon="5.47647">
        <ele>1374.8</ele>
      </trkpt>
      <trkpt lat="45.04471" lon="5.47652">
        <ele>1374.1</ele>
      </trkpt>
      <trkpt lat="45.04514" lon="5.47655">
        <ele>1372.9</ele>
      </trkpt>
      <trkpt lat="45.04524" lon="5.47663">
        <ele>1373.2</ele>
      </trkpt>
      <trkpt lat="45.04527" lon="5.47677">
        <ele>1374.4</ele>
      </trkpt>
      <trkpt lat="45.04527" lon="5.4769">
        <ele>1375.7</ele>
      </trkpt>
      <trkpt lat="45.04529" lon="5.47706">
        <ele>1377.5</ele>
      </trkpt>
      <trkpt lat="45.04554" lon="5.47743">
        <ele>1383.2</ele>
      </trkpt>
      <trkpt lat="45.04563" lon="5.47754">
        <ele>1385.3</ele>
      </trkpt>
      <trkpt lat="45.04591" lon="5.47784">
        <ele>1391.1</ele>
      </trkpt>
      <trkpt lat="45.04601" lon="5.47792">
        <ele>1391.8</ele>
      </trkpt>
      <trkpt lat="45.04641" lon="5.47819">
        <ele>1393.5</ele>
      </trkpt>
      <trkpt lat="45.04651" lon="5.47825">
        <ele>1393.7</ele>
      </trkpt>
      <trkpt lat="45.0467" lon="5.47832">
        <ele>1393.7</ele>
      </trkpt>
      <trkpt lat="45.04679" lon="5.47834">
        <ele>1393.6</ele>
      </trkpt>
      <trkpt lat="45.04698" lon="5.47842">
        <ele>1394.5</ele>
      </trkpt>
      <trkpt lat="45.04706" lon="5.47847">
        <ele>1395.4</ele>
      </trkpt>
      <trkpt lat="45.04716" lon="5.47851">
        <ele>1395.9</ele>
      </trkpt>
      <trkpt lat="45.04735" lon="5.47862">
        <ele>1397.6</ele>
      </trkpt>
      <trkpt lat="45.04752" lon="5.47869">
        <ele>1398.5</ele>
      </trkpt>
      <trkpt lat="45.04762" lon="5.47872">
        <ele>1398.6</ele>
      </trkpt>
      <trkpt lat="45.04791" lon="5.47884">
        <ele>1399.5</ele>
      </trkpt>
      <trkpt lat="45.04817" lon="5.47898">
        <ele>1400.8</ele>
      </trkpt>
      <trkpt lat="45.04839" lon="5.47908">
        <ele>1401.7</ele>
      </trkpt>
      <trkpt lat="45.0486" lon="5.47919">
        <ele>1404.1</ele>
      </trkpt>
      <trkpt lat="45.04872" lon="5.47923">
        <ele>1405.3</ele>
      </trkpt>
      <trkpt lat="45.04884" lon="5.47929">
        <ele>1407</ele>
      </trkpt>
      <trkpt lat="45.04898" lon="5.47931">
        <ele>1407.3</ele>
      </trkpt>
      <trkpt lat="45.04907" lon="5.47934">
        <ele>1408.2</ele>
      </trkpt>
      <trkpt lat="45.04935" lon="5.47947">
        <ele>1411.8</ele>
      </trkpt>
      <trkpt lat="45.04975" lon="5.47961">
        <ele>1415.5</ele>
      </trkpt>
      <trkpt lat="45.05024" lon="5.47974">
        <ele>1418.8</ele>
      </trkpt>
      <trkpt lat="45.05035" lon="5.47977">
        <ele>1419.1</ele>
      </trkpt>
      <trkpt lat="45.05037" lon="5.47976">
        <ele>1418.7</ele>
      </trkpt>
      <trkpt lat="45.05036" lon="5.47972">
        <ele>1417.3</ele>
      </trkpt>
      <trkpt lat="45.05037" lon="5.47971">
        <ele>1417.1</ele>
      </trkpt>
      <trkpt lat="45.05086" lon="5.47987">
        <ele>1420.6</ele>
      </trkpt>
      <trkpt lat="45.05094" lon="5.47994">
        <ele>1422.8</ele>
      </trkpt>
      <trkpt lat="45.05091" lon="5.48008">
        <ele>1429.4</ele>
      </trkpt>
      <trkpt lat="45.05058" lon="5.48002">
        <ele>1428.5</ele>
      </trkpt>
      <trkpt lat="45.0501" lon="5.48001">
        <ele>1430.1</ele>
      </trkpt>
      <trkpt lat="45.04998" lon="5.48002">
        <ele>1431.3</ele>
      </trkpt>
      <trkpt lat="45.04988" lon="5.48005">
        <ele>1433.1</ele>
      </trkpt>
      <trkpt lat="45.04954" lon="5.48016">
        <ele>1440.3</ele>
      </trkpt>
      <trkpt lat="45.04944" lon="5.48017">
        <ele>1440.7</ele>
      </trkpt>
      <trkpt lat="45.04905" lon="5.48023">
        <ele>1444.6</ele>
      </trkpt>
      <trkpt lat="45.0487" lon="5.48024">
        <ele>1447.6</ele>
      </trkpt>
      <trkpt lat="45.04858" lon="5.48023">
        <ele>1447.6</ele>
      </trkpt>
      <trkpt lat="45.04838" lon="5.48025">
        <ele>1449.8</ele>
      </trkpt>
      <trkpt lat="45.04784" lon="5.48039">
        <ele>1458.9</ele>
      </trkpt>
      <trkpt lat="45.04762" lon="5.4804">
        <ele>1460.5</ele>
      </trkpt>
      <trkpt lat="45.04708" lon="5.48049">
        <ele>1464.4</ele>
      </trkpt>
      <trkpt lat="45.04698" lon="5.48055">
        <ele>1467</ele>
      </trkpt>
      <trkpt lat="45.04689" lon="5.48057">
        <ele>1467.8</ele>
      </trkpt>
      <trkpt lat="45.04678" lon="5.48058">
        <ele>1468.1</ele>
      </trkpt>
      <trkpt lat="45.04668" lon="5.48061">
        <ele>1469.2</ele>
      </trkpt>
      <trkpt lat="45.04648" lon="5.48063">
        <ele>1470.5</ele>
      </trkpt>
      <trkpt lat="45.04629" lon="5.48069">
        <ele>1473.5</ele>
      </trkpt>
      <trkpt lat="45.04608" lon="5.48072">
        <ele>1475.6</ele>
      </trkpt>
      <trkpt lat="45.04568" lon="5.48089">
        <ele>1484.4</ele>
      </trkpt>
      <trkpt lat="45.04558" lon="5.48091">
        <ele>1484.8</ele>
      </trkpt>
      <trkpt lat="45.04546" lon="5.48097">
        <ele>1487.1</ele>
      </trkpt>
      <trkpt lat="45.04537" lon="5.48104">
        <ele>1490.2</ele>
      </trkpt>
      <trkpt lat="45.04529" lon="5.48114">
        <ele>1493.8</ele>
      </trkpt>
      <trkpt lat="45.04516" lon="5.48116">
        <ele>1494.5</ele>
      </trkpt>
      <trkpt lat="45.0447" lon="5.48131">
        <ele>1494.7</ele>
      </trkpt>
      <trkpt lat="45.04431" lon="5.48153">
        <ele>1494.7</ele>
      </trkpt>
      <trkpt lat="45.0442" lon="5.48163">
        <ele>1495.8</ele>
      </trkpt>
      <trkpt lat="45.04406" lon="5.48186">
        <ele>1496.1</ele>
      </trkpt>
      <trkpt lat="45.04403" lon="5.482">
        <ele>1496.7</ele>
      </trkpt>
      <trkpt lat="45.044" lon="5.48214">
        <ele>1497.6</ele>
      </trkpt>
      <trkpt lat="45.04403" lon="5.48246">
        <ele>1501.5</ele>
      </trkpt>
      <trkpt lat="45.04409" lon="5.48258">
        <ele>1503.4</ele>
      </trkpt>
      <trkpt lat="45.04414" lon="5.4827">
        <ele>1504</ele>
      </trkpt>
      <trkpt lat="45.0442" lon="5.48282">
        <ele>1504.8</ele>
      </trkpt>
      <trkpt lat="45.04428" lon="5.48292">
        <ele>1505.9</ele>
      </trkpt>
      <trkpt lat="45.04436" lon="5.48301">
        <ele>1507.6</ele>
      </trkpt>
      <trkpt lat="45.04445" lon="5.48312">
        <ele>1508.8</ele>
      </trkpt>
      <trkpt lat="45.04461" lon="5.48329">
        <ele>1512</ele>
      </trkpt>
      <trkpt lat="45.04489" lon="5.48356">
        <ele>1518.1</ele>
      </trkpt>
      <trkpt lat="45.04498" lon="5.48368">
        <ele>1520.1</ele>
      </trkpt>
      <trkpt lat="45.04507" lon="5.48374">
        <ele>1521.2</ele>
      </trkpt>
      <trkpt lat="45.04506" lon="5.48358">
        <ele>1522</ele>
      </trkpt>
      <trkpt lat="45.04499" lon="5.48346">
        <ele>1521.8</ele>
      </trkpt>
      <trkpt lat="45.04486" lon="5.48317">
        <ele>1520.2</ele>
      </trkpt>
      <trkpt lat="45.04486" lon="5.48303">
        <ele>1521</ele>
      </trkpt>
      <trkpt lat="45.04498" lon="5.48305">
        <ele>1524.2</ele>
      </trkpt>
      <trkpt lat="45.04509" lon="5.48314">
        <ele>1525</ele>
      </trkpt>
      <trkpt lat="45.04516" lon="5.48323">
        <ele>1525</ele>
      </trkpt>
      <trkpt lat="45.04528" lon="5.48346">
        <ele>1524.7</ele>
      </trkpt>
      <trkpt lat="45.04535" lon="5.48358">
        <ele>1524.7</ele>
      </trkpt>
      <trkpt lat="45.04545" lon="5.48367">
        <ele>1525.1</ele>
      </trkpt>
      <trkpt lat="45.04554" lon="5.48374">
        <ele>1525.8</ele>
      </trkpt>
      <trkpt lat="45.04582" lon="5.48403">
        <ele>1527.3</ele>
      </trkpt>
      <trkpt lat="45.04626" lon="5.48435">
        <ele>1525.4</ele>
      </trkpt>
      <trkpt lat="45.04648" lon="5.48452">
        <ele>1524.8</ele>
      </trkpt>
      <trkpt lat="45.04659" lon="5.48459">
        <ele>1524.4</ele>
      </trkpt>
      <trkpt lat="45.04682" lon="5.48475">
        <ele>1523.6</ele>
      </trkpt>
      <trkpt lat="45.04694" lon="5.48481">
        <ele>1523</ele>
      </trkpt>
      <trkpt lat="45.04706" lon="5.48485">
        <ele>1522.2</ele>
      </trkpt>
      <trkpt lat="45.04753" lon="5.48514">
        <ele>1518.9</ele>
      </trkpt>
      <trkpt lat="45.04787" lon="5.48538">
        <ele>1518.1</ele>
      </trkpt>
      <trkpt lat="45.04854" lon="5.48581">
        <ele>1512.1</ele>
      </trkpt>
      <trkpt lat="45.04864" lon="5.4859">
        <ele>1512</ele>
      </trkpt>
      <trkpt lat="45.04884" lon="5.4861">
        <ele>1512.8</ele>
      </trkpt>
      <trkpt lat="45.04898" lon="5.48632">
        <ele>1514.2</ele>
      </trkpt>
      <trkpt lat="45.04894" lon="5.48651">
        <ele>1515.9</ele>
      </trkpt>
      <trkpt lat="45.04878" lon="5.48691">
        <ele>1519.7</ele>
      </trkpt>
      <trkpt lat="45.04876" lon="5.48705">
        <ele>1521</ele>
      </trkpt>
      <trkpt lat="45.04863" lon="5.48771">
        <ele>1524.3</ele>
      </trkpt>
      <trkpt lat="45.04854" lon="5.48797">
        <ele>1523.8</ele>
      </trkpt>
      <trkpt lat="45.04847" lon="5.48811">
        <ele>1523.2</ele>
      </trkpt>
      <trkpt lat="45.0483" lon="5.48845">
        <ele>1521.8</ele>
      </trkpt>
      <trkpt lat="45.04819" lon="5.48864">
        <ele>1521</ele>
      </trkpt>
      <trkpt lat="45.04791" lon="5.48899">
        <ele>1517.4</ele>
      </trkpt>
      <trkpt lat="45.0476" lon="5.48934">
        <ele>1511.9</ele>
      </trkpt>
      <trkpt lat="45.04743" lon="5.48951">
        <ele>1509.4</ele>
      </trkpt>
      <trkpt lat="45.04734" lon="5.48957">
        <ele>1508.1</ele>
      </trkpt>
      <trkpt lat="45.04719" lon="5.48971">
        <ele>1505.3</ele>
      </trkpt>
      <trkpt lat="45.04705" lon="5.48986">
        <ele>1502.1</ele>
      </trkpt>
      <trkpt lat="45.04692" lon="5.48998">
        <ele>1498.7</ele>
      </trkpt>
      <trkpt lat="45.04666" lon="5.49009">
        <ele>1493.6</ele>
      </trkpt>
      <trkpt lat="45.04654" lon="5.49016">
        <ele>1491.9</ele>
      </trkpt>
      <trkpt lat="45.04637" lon="5.49023">
        <ele>1489.6</ele>
      </trkpt>
      <trkpt lat="45.0461" lon="5.4902">
        <ele>1486.5</ele>
      </trkpt>
      <trkpt lat="45.04598" lon="5.49023">
        <ele>1484.8</ele>
      </trkpt>
      <trkpt lat="45.04581" lon="5.49036">
        <ele>1481.8</ele>
      </trkpt>
      <trkpt lat="45.0456" lon="5.49049">
        <ele>1479.1</ele>
      </trkpt>
      <trkpt lat="45.04548" lon="5.49059">
        <ele>1477</ele>
      </trkpt>
      <trkpt lat="45.04539" lon="5.49071">
        <ele>1474.7</ele>
      </trkpt>
      <trkpt lat="45.04532" lon="5.49084">
        <ele>1472.5</ele>
      </trkpt>
      <trkpt lat="45.04532" lon="5.49101">
        <ele>1471.1</ele>
      </trkpt>
      <trkpt lat="45.04529" lon="5.49117">
        <ele>1469.6</ele>
      </trkpt>
      <trkpt lat="45.0452" lon="5.49206">
        <ele>1460.6</ele>
      </trkpt>
      <trkpt lat="45.04511" lon="5.49217">
        <ele>1458.3</ele>
      </trkpt>
      <trkpt lat="45.04503" lon="5.49231">
        <ele>1455.7</ele>
      </trkpt>
      <trkpt lat="45.04499" lon="5.49244">
        <ele>1453.6</ele>
      </trkpt>
      <trkpt lat="45.04492" lon="5.49256">
        <ele>1452.1</ele>
      </trkpt>
      <trkpt lat="45.04479" lon="5.49264">
        <ele>1450.8</ele>
      </trkpt>
      <trkpt lat="45.04452" lon="5.49274">
        <ele>1448.2</ele>
      </trkpt>
      <trkpt lat="45.04439" lon="5.49283">
        <ele>1446.7</ele>
      </trkpt>
      <trkpt lat="45.04413" lon="5.49293">
        <ele>1444.2</ele>
      </trkpt>
      <trkpt lat="45.04389" lon="5.493">
        <ele>1441.8</ele>
      </trkpt>
      <trkpt lat="45.04377" lon="5.49306">
        <ele>1440.5</ele>
      </trkpt>
      <trkpt lat="45.04367" lon="5.49313">
        <ele>1439.2</ele>
      </trkpt>
      <trkpt lat="45.04355" lon="5.4932">
        <ele>1437.8</ele>
      </trkpt>
      <trkpt lat="45.04344" lon="5.49323">
        <ele>1436.7</ele>
      </trkpt>
      <trkpt lat="45.04333" lon="5.49327">
        <ele>1435.4</ele>
      </trkpt>
      <trkpt lat="45.04316" lon="5.49328">
        <ele>1434.2</ele>
      </trkpt>
      <trkpt lat="45.04301" lon="5.49325">
        <ele>1433.3</ele>
      </trkpt>
      <trkpt lat="45.04275" lon="5.49326">
        <ele>1431.4</ele>
      </trkpt>
      <trkpt lat="45.04263" lon="5.49325">
        <ele>1430.7</ele>
      </trkpt>
      <trkpt lat="45.04238" lon="5.49319">
        <ele>1429.4</ele>
      </trkpt>
      <trkpt lat="45.04229" lon="5.49322">
        <ele>1428.4</ele>
      </trkpt>
      <trkpt lat="45.04204" lon="5.4933">
        <ele>1426</ele>
      </trkpt>
      <trkpt lat="45.0419" lon="5.4933">
        <ele>1425</ele>
      </trkpt>
      <trkpt lat="45.04177" lon="5.49332">
        <ele>1423.8</ele>
      </trkpt>
      <trkpt lat="45.04134" lon="5.49346">
        <ele>1418.9</ele>
      </trkpt>
      <trkpt lat="45.04117" lon="5.49344">
        <ele>1417.8</ele>
      </trkpt>
      <trkpt lat="45.04106" lon="5.49345">
        <ele>1416.7</ele>
      </trkpt>
      <trkpt lat="45.04086" lon="5.49354">
        <ele>1413.7</ele>
      </trkpt>
      <trkpt lat="45.04076" lon="5.49362">
        <ele>1411.5</ele>
      </trkpt>
      <trkpt lat="45.04063" lon="5.49365">
        <ele>1409.8</ele>
      </trkpt>
      <trkpt lat="45.04038" lon="5.49365">
        <ele>1407.4</ele>
      </trkpt>
      <trkpt lat="45.04027" lon="5.49371">
        <ele>1405.6</ele>
      </trkpt>
      <trkpt lat="45.04" lon="5.49382">
        <ele>1401.5</ele>
      </trkpt>
      <trkpt lat="45.03972" lon="5.49391">
        <ele>1398.2</ele>
      </trkpt>
      <trkpt lat="45.0394" lon="5.49393">
        <ele>1395.5</ele>
      </trkpt>
      <trkpt lat="45.0392" lon="5.49398">
        <ele>1393.5</ele>
      </trkpt>
      <trkpt lat="45.03903" lon="5.49398">
        <ele>1393.2</ele>
      </trkpt>
      <trkpt lat="45.03878" lon="5.49393">
        <ele>1393.2</ele>
      </trkpt>
      <trkpt lat="45.03865" lon="5.49392">
        <ele>1393.1</ele>
      </trkpt>
      <trkpt lat="45.03852" lon="5.49398">
        <ele>1392.6</ele>
      </trkpt>
      <trkpt lat="45.03839" lon="5.49398">
        <ele>1392.4</ele>
      </trkpt>
      <trkpt lat="45.03827" lon="5.49401">
        <ele>1392.1</ele>
      </trkpt>
      <trkpt lat="45.03816" lon="5.49397">
        <ele>1392.2</ele>
      </trkpt>
      <trkpt lat="45.03786" lon="5.49385">
        <ele>1393.2</ele>
      </trkpt>
      <trkpt lat="45.03777" lon="5.49383">
        <ele>1393.5</ele>
      </trkpt>
      <trkpt lat="45.03765" lon="5.49383">
        <ele>1393.4</ele>
      </trkpt>
      <trkpt lat="45.03756" lon="5.49382">
        <ele>1393.6</ele>
      </trkpt>
      <trkpt lat="45.03746" lon="5.49383">
        <ele>1393.5</ele>
      </trkpt>
      <trkpt lat="45.03734" lon="5.49381">
        <ele>1393.7</ele>
      </trkpt>
      <trkpt lat="45.03715" lon="5.49385">
        <ele>1393</ele>
      </trkpt>
      <trkpt lat="45.03691" lon="5.49384">
        <ele>1393.2</ele>
      </trkpt>
      <trkpt lat="45.0368" lon="5.49385">
        <ele>1393</ele>
      </trkpt>
      <trkpt lat="45.03675" lon="5.49395">
        <ele>1390.7</ele>
      </trkpt>
      <trkpt lat="45.03665" lon="5.49403">
        <ele>1389.1</ele>
      </trkpt>
      <trkpt lat="45.03655" lon="5.49399">
        <ele>1390.4</ele>
      </trkpt>
      <trkpt lat="45.03644" lon="5.49406">
        <ele>1389.4</ele>
      </trkpt>
      <trkpt lat="45.03636" lon="5.49414">
        <ele>1387.9</ele>
      </trkpt>
      <trkpt lat="45.03628" lon="5.49427">
        <ele>1384.9</ele>
      </trkpt>
      <trkpt lat="45.03597" lon="5.49463">
        <ele>1376.5</ele>
      </trkpt>
      <trkpt lat="45.03578" lon="5.49488">
        <ele>1370.1</ele>
      </trkpt>
      <trkpt lat="45.03567" lon="5.49496">
        <ele>1367.6</ele>
      </trkpt>
      <trkpt lat="45.03538" lon="5.49511">
        <ele>1362.8</ele>
      </trkpt>
      <trkpt lat="45.03526" lon="5.49516">
        <ele>1361.2</ele>
      </trkpt>
      <trkpt lat="45.03514" lon="5.49522">
        <ele>1359.4</ele>
      </trkpt>
      <trkpt lat="45.03505" lon="5.49524">
        <ele>1358.4</ele>
      </trkpt>
      <trkpt lat="45.0347" lon="5.49528">
        <ele>1356</ele>
      </trkpt>
      <trkpt lat="45.03462" lon="5.49538">
        <ele>1352.8</ele>
      </trkpt>
      <trkpt lat="45.03467" lon="5.49552">
        <ele>1348.9</ele>
      </trkpt>
      <trkpt lat="45.03471" lon="5.49564">
        <ele>1345.7</ele>
      </trkpt>
      <trkpt lat="45.03475" lon="5.49577">
        <ele>1342.3</ele>
      </trkpt>
      <trkpt lat="45.03469" lon="5.49591">
        <ele>1338.2</ele>
      </trkpt>
      <trkpt lat="45.03459" lon="5.49602">
        <ele>1335</ele>
      </trkpt>
      <trkpt lat="45.03449" lon="5.49617">
        <ele>1330.9</ele>
      </trkpt>
      <trkpt lat="45.03439" lon="5.49625">
        <ele>1328</ele>
      </trkpt>
      <trkpt lat="45.03427" lon="5.4963">
        <ele>1326.1</ele>
      </trkpt>
      <trkpt lat="45.03418" lon="5.49636">
        <ele>1323.8</ele>
      </trkpt>
      <trkpt lat="45.0341" lon="5.49645">
        <ele>1322.1</ele>
      </trkpt>
      <trkpt lat="45.03419" lon="5.49674">
        <ele>1315.8</ele>
      </trkpt>
      <trkpt lat="45.03409" lon="5.49709">
        <ele>1315.3</ele>
      </trkpt>
      <trkpt lat="45.03405" lon="5.4973">
        <ele>1315.4</ele>
      </trkpt>
      <trkpt lat="45.03405" lon="5.4975">
        <ele>1314.9</ele>
      </trkpt>
      <trkpt lat="45.03407" lon="5.49769">
        <ele>1315</ele>
      </trkpt>
      <trkpt lat="45.03407" lon="5.49786">
        <ele>1315.4</ele>
      </trkpt>
      <trkpt lat="45.0341" lon="5.49803">
        <ele>1315</ele>
      </trkpt>
      <trkpt lat="45.03415" lon="5.49817">
        <ele>1314</ele>
      </trkpt>
      <trkpt lat="45.03435" lon="5.49846">
        <ele>1311.6</ele>
      </trkpt>
      <trkpt lat="45.03442" lon="5.49859">
        <ele>1311.3</ele>
      </trkpt>
      <trkpt lat="45.03452" lon="5.49874">
        <ele>1310.6</ele>
      </trkpt>
      <trkpt lat="45.03461" lon="5.49887">
        <ele>1309.5</ele>
      </trkpt>
      <trkpt lat="45.03468" lon="5.499">
        <ele>1309.1</ele>
      </trkpt>
      <trkpt lat="45.03472" lon="5.49917">
        <ele>1309.4</ele>
      </trkpt>
      <trkpt lat="45.03479" lon="5.49949">
        <ele>1309.5</ele>
      </trkpt>
      <trkpt lat="45.03479" lon="5.49964">
        <ele>1310.2</ele>
      </trkpt>
      <trkpt lat="45.03477" lon="5.49982">
        <ele>1311.3</ele>
      </trkpt>
      <trkpt lat="45.03477" lon="5.49999">
        <ele>1312.1</ele>
      </trkpt>
      <trkpt lat="45.03475" lon="5.50014">
        <ele>1311.5</ele>
      </trkpt>
      <trkpt lat="45.03461" lon="5.5004">
        <ele>1310.3</ele>
      </trkpt>
      <trkpt lat="45.03454" lon="5.50062">
        <ele>1308.9</ele>
      </trkpt>
      <trkpt lat="45.03448" lon="5.501">
        <ele>1304.9</ele>
      </trkpt>
      <trkpt lat="45.03441" lon="5.50122">
        <ele>1301.5</ele>
      </trkpt>
      <trkpt lat="45.03436" lon="5.50142">
        <ele>1298.3</ele>
      </trkpt>
      <trkpt lat="45.0343" lon="5.50153">
        <ele>1296.4</ele>
      </trkpt>
      <trkpt lat="45.03436" lon="5.5017">
        <ele>1294.5</ele>
      </trkpt>
      <trkpt lat="45.03444" lon="5.5018">
        <ele>1294.1</ele>
      </trkpt>
      <trkpt lat="45.03463" lon="5.50196">
        <ele>1293.8</ele>
      </trkpt>
      <trkpt lat="45.03467" lon="5.50211">
        <ele>1292.3</ele>
      </trkpt>
      <trkpt lat="45.03474" lon="5.50224">
        <ele>1291.1</ele>
      </trkpt>
      <trkpt lat="45.03484" lon="5.50232">
        <ele>1290.6</ele>
      </trkpt>
      <trkpt lat="45.03496" lon="5.50231">
        <ele>1291.6</ele>
      </trkpt>
      <trkpt lat="45.03507" lon="5.50225">
        <ele>1292.4</ele>
      </trkpt>
      <trkpt lat="45.03518" lon="5.50224">
        <ele>1292.4</ele>
      </trkpt>
      <trkpt lat="45.03528" lon="5.50225">
        <ele>1291.9</ele>
      </trkpt>
      <trkpt lat="45.03536" lon="5.50232">
        <ele>1290.7</ele>
      </trkpt>
      <trkpt lat="45.03547" lon="5.50235">
        <ele>1289.9</ele>
      </trkpt>
      <trkpt lat="45.03556" lon="5.50244">
        <ele>1288.1</ele>
      </trkpt>
      <trkpt lat="45.03565" lon="5.50249">
        <ele>1286.9</ele>
      </trkpt>
      <trkpt lat="45.03575" lon="5.50259">
        <ele>1284.8</ele>
      </trkpt>
      <trkpt lat="45.03582" lon="5.5027">
        <ele>1282.7</ele>
      </trkpt>
      <trkpt lat="45.03584" lon="5.50287">
        <ele>1279.9</ele>
      </trkpt>
      <trkpt lat="45.03585" lon="5.50304">
        <ele>1276.9</ele>
      </trkpt>
      <trkpt lat="45.03583" lon="5.5032">
        <ele>1274.2</ele>
      </trkpt>
      <trkpt lat="45.03581" lon="5.50336">
        <ele>1271.7</ele>
      </trkpt>
      <trkpt lat="45.03576" lon="5.50351">
        <ele>1269.5</ele>
      </trkpt>
      <trkpt lat="45.0357" lon="5.50363">
        <ele>1267.7</ele>
      </trkpt>
      <trkpt lat="45.03583" lon="5.50367">
        <ele>1266.7</ele>
      </trkpt>
      <trkpt lat="45.03595" lon="5.50365">
        <ele>1267.5</ele>
      </trkpt>
      <trkpt lat="45.03604" lon="5.5037">
        <ele>1267.4</ele>
      </trkpt>
      <trkpt lat="45.03612" lon="5.50401">
        <ele>1263.5</ele>
      </trkpt>
      <trkpt lat="45.0362" lon="5.50439">
        <ele>1260.3</ele>
      </trkpt>
      <trkpt lat="45.03622" lon="5.50458">
        <ele>1259</ele>
      </trkpt>
      <trkpt lat="45.03626" lon="5.50482">
        <ele>1257.5</ele>
      </trkpt>
      <trkpt lat="45.03631" lon="5.50502">
        <ele>1256.5</ele>
      </trkpt>
      <trkpt lat="45.03636" lon="5.50518">
        <ele>1256.5</ele>
      </trkpt>
      <trkpt lat="45.03641" lon="5.50532">
        <ele>1256.3</ele>
      </trkpt>
      <trkpt lat="45.03642" lon="5.50553">
        <ele>1255.7</ele>
      </trkpt>
      <trkpt lat="45.03642" lon="5.50572">
        <ele>1255</ele>
      </trkpt>
      <trkpt lat="45.03648" lon="5.50586">
        <ele>1254.7</ele>
      </trkpt>
      <trkpt lat="45.03663" lon="5.50615">
        <ele>1253.5</ele>
      </trkpt>
      <trkpt lat="45.03666" lon="5.50631">
        <ele>1252.5</ele>
      </trkpt>
      <trkpt lat="45.03667" lon="5.50651">
        <ele>1251.1</ele>
      </trkpt>
      <trkpt lat="45.03671" lon="5.50684">
        <ele>1249</ele>
      </trkpt>
      <trkpt lat="45.03672" lon="5.50704">
        <ele>1247.8</ele>
      </trkpt>
      <trkpt lat="45.03669" lon="5.50722">
        <ele>1246.7</ele>
      </trkpt>
      <trkpt lat="45.03671" lon="5.50741">
        <ele>1245.5</ele>
      </trkpt>
      <trkpt lat="45.03675" lon="5.5076">
        <ele>1245.1</ele>
      </trkpt>
      <trkpt lat="45.03677" lon="5.50789">
        <ele>1245.3</ele>
      </trkpt>
      <trkpt lat="45.03679" lon="5.50804">
        <ele>1245.4</ele>
      </trkpt>
      <trkpt lat="45.03681" lon="5.50807">
        <ele>1245.3</ele>
      </trkpt>
      <trkpt lat="45.0368" lon="5.50898">
        <ele>1249.5</ele>
      </trkpt>
      <trkpt lat="45.03616" lon="5.51062">
        <ele>1255.9</ele>
      </trkpt>
      <trkpt lat="45.03584" lon="5.51234">
        <ele>1258.3</ele>
      </trkpt>
      <trkpt lat="45.03534" lon="5.51382">
        <ele>1260.1</ele>
      </trkpt>
      <trkpt lat="45.03566" lon="5.51439">
        <ele>1258.1</ele>
      </trkpt>
      <trkpt lat="45.03621" lon="5.51331">
        <ele>1264.6</ele>
      </trkpt>
      <trkpt lat="45.03696" lon="5.51265">
        <ele>1272.6</ele>
      </trkpt>
      <trkpt lat="45.03707" lon="5.51204">
        <ele>1272.7</ele>
      </trkpt>
      <trkpt lat="45.03851" lon="5.50994">
        <ele>1259.7</ele>
      </trkpt>
      <trkpt lat="45.03976" lon="5.50993">
        <ele>1266.2</ele>
      </trkpt>
      <trkpt lat="45.04032" lon="5.51028">
        <ele>1273.8</ele>
      </trkpt>
      <trkpt lat="45.04183" lon="5.5104">
        <ele>1267.3</ele>
      </trkpt>
      <trkpt lat="45.04241" lon="5.51076">
        <ele>1269.2</ele>
      </trkpt>
      <trkpt lat="45.04304" lon="5.51067">
        <ele>1258.7</ele>
      </trkpt>
      <trkpt lat="45.04433" lon="5.51131">
        <ele>1250.4</ele>
      </trkpt>
      <trkpt lat="45.04454" lon="5.51169">
        <ele>1252.2</ele>
      </trkpt>
      <trkpt lat="45.04573" lon="5.5121">
        <ele>1246.3</ele>
      </trkpt>
      <trkpt lat="45.04641" lon="5.51259">
        <ele>1245.4</ele>
      </trkpt>
      <trkpt lat="45.04683" lon="5.51324">
        <ele>1245.3</ele>
      </trkpt>
      <trkpt lat="45.04715" lon="5.51182">
        <ele>1225.7</ele>
      </trkpt>
      <trkpt lat="45.0476" lon="5.51196">
        <ele>1224.2</ele>
      </trkpt>
      <trkpt lat="45.0482" lon="5.51167">
        <ele>1216.1</ele>
      </trkpt>
      <trkpt lat="45.04836" lon="5.50959">
        <ele>1224.8</ele>
      </trkpt>
      <trkpt lat="45.04875" lon="5.5089">
        <ele>1226.5</ele>
      </trkpt>
      <trkpt lat="45.04928" lon="5.50891">
        <ele>1224.4</ele>
      </trkpt>
      <trkpt lat="45.04994" lon="5.50878">
        <ele>1222.5</ele>
      </trkpt>
      <trkpt lat="45.05054" lon="5.50905">
        <ele>1215.7</ele>
      </trkpt>
      <trkpt lat="45.05077" lon="5.50992">
        <ele>1208.9</ele>
      </trkpt>
      <trkpt lat="45.0505" lon="5.51026">
        <ele>1209.4</ele>
      </trkpt>
      <trkpt lat="45.05071" lon="5.51048">
        <ele>1207.5</ele>
      </trkpt>
      <trkpt lat="45.05059" lon="5.51201">
        <ele>1206</ele>
      </trkpt>
      <trkpt lat="45.05028" lon="5.5129">
        <ele>1211.8</ele>
      </trkpt>
      <trkpt lat="45.05044" lon="5.51368">
        <ele>1210.5</ele>
      </trkpt>
      <trkpt lat="45.05102" lon="5.51384">
        <ele>1207.1</ele>
      </trkpt>
      <trkpt lat="45.05157" lon="5.51348">
        <ele>1204.5</ele>
      </trkpt>
      <trkpt lat="45.05201" lon="5.51268">
        <ele>1202.5</ele>
      </trkpt>
      <trkpt lat="45.05285" lon="5.51221">
        <ele>1200.2</ele>
      </trkpt>
      <trkpt lat="45.05382" lon="5.51217">
        <ele>1196.7</ele>
      </trkpt>
      <trkpt lat="45.05363" lon="5.51311">
        <ele>1194.4</ele>
      </trkpt>
      <trkpt lat="45.05388" lon="5.51371">
        <ele>1189.2</ele>
      </trkpt>
      <trkpt lat="45.05404" lon="5.5142">
        <ele>1184.1</ele>
      </trkpt>
      <trkpt lat="45.05392" lon="5.51455">
        <ele>1180.1</ele>
      </trkpt>
      <trkpt lat="45.05411" lon="5.51471">
        <ele>1176.6</ele>
      </trkpt>
      <trkpt lat="45.05402" lon="5.515">
        <ele>1173.3</ele>
      </trkpt>
      <trkpt lat="45.05449" lon="5.51523">
        <ele>1167.9</ele>
      </trkpt>
      <trkpt lat="45.05503" lon="5.5154">
        <ele>1162.2</ele>
      </trkpt>
      <trkpt lat="45.05528" lon="5.5158">
        <ele>1154</ele>
      </trkpt>
      <trkpt lat="45.05559" lon="5.51581">
        <ele>1148</ele>
      </trkpt>
      <trkpt lat="45.05568" lon="5.51623">
        <ele>1148.3</ele>
      </trkpt>
      <trkpt lat="45.05594" lon="5.51643">
        <ele>1143</ele>
      </trkpt>
      <trkpt lat="45.05636" lon="5.51643">
        <ele>1134.3</ele>
      </trkpt>
      <trkpt lat="45.05701" lon="5.5165">
        <ele>1123.1</ele>
      </trkpt>
      <trkpt lat="45.058" lon="5.51632">
        <ele>1113</ele>
      </trkpt>
      <trkpt lat="45.0587" lon="5.51683">
        <ele>1110.5</ele>
      </trkpt>
      <trkpt lat="45.05921" lon="5.5173">
        <ele>1108</ele>
      </trkpt>
      <trkpt lat="45.05932" lon="5.51786">
        <ele>1110.4</ele>
      </trkpt>
      <trkpt lat="45.05931" lon="5.51821">
        <ele>1112.4</ele>
      </trkpt>
      <trkpt lat="45.05904" lon="5.51885">
        <ele>1119</ele>
      </trkpt>
      <trkpt lat="45.05861" lon="5.51866">
        <ele>1119.7</ele>
      </trkpt>
      <trkpt lat="45.05803" lon="5.5183">
        <ele>1120.8</ele>
      </trkpt>
      <trkpt lat="45.05763" lon="5.51823">
        <ele>1124.2</ele>
      </trkpt>
      <trkpt lat="45.05723" lon="5.51834">
        <ele>1128.6</ele>
      </trkpt>
      <trkpt lat="45.05686" lon="5.51858">
        <ele>1133.6</ele>
      </trkpt>
      <trkpt lat="45.05675" lon="5.51893">
        <ele>1136.3</ele>
      </trkpt>
      <trkpt lat="45.05674" lon="5.51935">
        <ele>1138.1</ele>
      </trkpt>
      <trkpt lat="45.05708" lon="5.51933">
        <ele>1136.3</ele>
      </trkpt>
      <trkpt lat="45.05726" lon="5.51945">
        <ele>1135.6</ele>
      </trkpt>
      <trkpt lat="45.0577" lon="5.51927">
        <ele>1132.3</ele>
      </trkpt>
      <trkpt lat="45.05796" lon="5.51922">
        <ele>1129.8</ele>
      </trkpt>
      <trkpt lat="45.05807" lon="5.5191">
        <ele>1128</ele>
      </trkpt>
      <trkpt lat="45.05821" lon="5.5189">
        <ele>1124.7</ele>
      </trkpt>
      <trkpt lat="45.05799" lon="5.5186">
        <ele>1123.9</ele>
      </trkpt>
      <trkpt lat="45.05815" lon="5.51849">
        <ele>1121.3</ele>
      </trkpt>
      <trkpt lat="45.05852" lon="5.5187">
        <ele>1120.5</ele>
      </trkpt>
      <trkpt lat="45.05899" lon="5.51901">
        <ele>1120.7</ele>
      </trkpt>
      <trkpt lat="45.05871" lon="5.51992">
        <ele>1127.5</ele>
      </trkpt>
      <trkpt lat="45.0584" lon="5.52074">
        <ele>1127.4</ele>
      </trkpt>
      <trkpt lat="45.05839" lon="5.52131">
        <ele>1127.1</ele>
      </trkpt>
      <trkpt lat="45.05941" lon="5.52195">
        <ele>1132.1</ele>
      </trkpt>
      <trkpt lat="45.05926" lon="5.52226">
        <ele>1134.2</ele>
      </trkpt>
    </trkseg>
  </trk>
  <trk>
    <name><![CDATA[Tour d'Autrans par les Naves - 17011 - UtagawaVTT.com]]></name>
    <trkseg>
      <trkpt lat="45.17585" lon="5.53967">
        <ele>1038.4</ele>
      </trkpt>
      <trkpt lat="45.1756" lon="5.53958">
        <ele>1037.4</ele>
      </trkpt>
      <trkpt lat="45.17553" lon="5.5396">
        <ele>1037.3</ele>
      </trkpt>
      <trkpt lat="45.17547" lon="5.53956">
        <ele>1037</ele>
      </trkpt>
      <trkpt lat="45.1755" lon="5.5395">
        <ele>1036.9</ele>
      </trkpt>
      <trkpt lat="45.1755" lon="5.53962">
        <ele>1037.4</ele>
      </trkpt>
      <trkpt lat="45.17555" lon="5.53957">
        <ele>1037.3</ele>
      </trkpt>
      <trkpt lat="45.17541" lon="5.53944">
        <ele>1036.4</ele>
      </trkpt>
      <trkpt lat="45.17416" lon="5.53855">
        <ele>1032</ele>
      </trkpt>
      <trkpt lat="45.17411" lon="5.53858">
        <ele>1032.3</ele>
      </trkpt>
      <trkpt lat="45.17409" lon="5.53876">
        <ele>1033.2</ele>
      </trkpt>
      <trkpt lat="45.17374" lon="5.54024">
        <ele>1036.3</ele>
      </trkpt>
      <trkpt lat="45.17363" lon="5.5403">
        <ele>1035.9</ele>
      </trkpt>
      <trkpt lat="45.17275" lon="5.53933">
        <ele>1034.4</ele>
      </trkpt>
      <trkpt lat="45.17274" lon="5.53937">
        <ele>1034.4</ele>
      </trkpt>
      <trkpt lat="45.17268" lon="5.53937">
        <ele>1034.1</ele>
      </trkpt>
      <trkpt lat="45.17266" lon="5.53964">
        <ele>1034.5</ele>
      </trkpt>
      <trkpt lat="45.17274" lon="5.54009">
        <ele>1035</ele>
      </trkpt>
      <trkpt lat="45.17294" lon="5.54199">
        <ele>1038.5</ele>
      </trkpt>
      <trkpt lat="45.1729" lon="5.54207">
        <ele>1038.8</ele>
      </trkpt>
      <trkpt lat="45.17282" lon="5.54202">
        <ele>1038.9</ele>
      </trkpt>
      <trkpt lat="45.17288" lon="5.54201">
        <ele>1038.7</ele>
      </trkpt>
      <trkpt lat="45.17289" lon="5.54208">
        <ele>1038.8</ele>
      </trkpt>
      <trkpt lat="45.1729" lon="5.54205">
        <ele>1038.8</ele>
      </trkpt>
      <trkpt lat="45.17251" lon="5.54183">
        <ele>1039.4</ele>
      </trkpt>
      <trkpt lat="45.17162" lon="5.54109">
        <ele>1044.3</ele>
      </trkpt>
      <trkpt lat="45.17083" lon="5.54034">
        <ele>1038.7</ele>
      </trkpt>
      <trkpt lat="45.17038" lon="5.53975">
        <ele>1039.1</ele>
      </trkpt>
      <trkpt lat="45.17018" lon="5.53956">
        <ele>1039.3</ele>
      </trkpt>
      <trkpt lat="45.16994" lon="5.53944">
        <ele>1040.3</ele>
      </trkpt>
      <trkpt lat="45.16956" lon="5.53935">
        <ele>1043.4</ele>
      </trkpt>
      <trkpt lat="45.16906" lon="5.53907">
        <ele>1042.4</ele>
      </trkpt>
      <trkpt lat="45.16861" lon="5.53892">
        <ele>1039</ele>
      </trkpt>
      <trkpt lat="45.16827" lon="5.53893">
        <ele>1038.7</ele>
      </trkpt>
      <trkpt lat="45.16787" lon="5.53904">
        <ele>1042.5</ele>
      </trkpt>
      <trkpt lat="45.16761" lon="5.53906">
        <ele>1043.9</ele>
      </trkpt>
      <trkpt lat="45.16741" lon="5.53899">
        <ele>1045.6</ele>
      </trkpt>
      <trkpt lat="45.16703" lon="5.53868">
        <ele>1048.9</ele>
      </trkpt>
      <trkpt lat="45.16664" lon="5.53824">
        <ele>1049.4</ele>
      </trkpt>
      <trkpt lat="45.16628" lon="5.53803">
        <ele>1050.3</ele>
      </trkpt>
      <trkpt lat="45.166" lon="5.53794">
        <ele>1051.3</ele>
      </trkpt>
      <trkpt lat="45.1652" lon="5.53759">
        <ele>1045.2</ele>
      </trkpt>
      <trkpt lat="45.16445" lon="5.53681">
        <ele>1043.6</ele>
      </trkpt>
      <trkpt lat="45.1642" lon="5.53672">
        <ele>1044.1</ele>
      </trkpt>
      <trkpt lat="45.16382" lon="5.53667">
        <ele>1046.6</ele>
      </trkpt>
      <trkpt lat="45.16371" lon="5.53661">
        <ele>1046.7</ele>
      </trkpt>
      <trkpt lat="45.16338" lon="5.53624">
        <ele>1045.6</ele>
      </trkpt>
      <trkpt lat="45.16316" lon="5.53608">
        <ele>1044.1</ele>
      </trkpt>
      <trkpt lat="45.16288" lon="5.53596">
        <ele>1042.6</ele>
      </trkpt>
      <trkpt lat="45.16259" lon="5.5359">
        <ele>1041.7</ele>
      </trkpt>
      <trkpt lat="45.16184" lon="5.53592">
        <ele>1037.1</ele>
      </trkpt>
      <trkpt lat="45.16167" lon="5.53587">
        <ele>1035.4</ele>
      </trkpt>
      <trkpt lat="45.16058" lon="5.53524">
        <ele>1037.8</ele>
      </trkpt>
      <trkpt lat="45.1603" lon="5.535">
        <ele>1040.4</ele>
      </trkpt>
      <trkpt lat="45.15992" lon="5.53451">
        <ele>1041.4</ele>
      </trkpt>
      <trkpt lat="45.15977" lon="5.53424">
        <ele>1042.3</ele>
      </trkpt>
      <trkpt lat="45.15967" lon="5.53399">
        <ele>1041.5</ele>
      </trkpt>
      <trkpt lat="45.15936" lon="5.53296">
        <ele>1032.4</ele>
      </trkpt>
      <trkpt lat="45.15915" lon="5.53256">
        <ele>1030.6</ele>
      </trkpt>
      <trkpt lat="45.15814" lon="5.53127">
        <ele>1020.9</ele>
      </trkpt>
      <trkpt lat="45.15783" lon="5.53077">
        <ele>1023.4</ele>
      </trkpt>
      <trkpt lat="45.15747" lon="5.5297">
        <ele>1021.2</ele>
      </trkpt>
      <trkpt lat="45.15738" lon="5.52957">
        <ele>1020.2</ele>
      </trkpt>
      <trkpt lat="45.15693" lon="5.52923">
        <ele>1018</ele>
      </trkpt>
      <trkpt lat="45.15662" lon="5.52905">
        <ele>1016.9</ele>
      </trkpt>
      <trkpt lat="45.15607" lon="5.52887">
        <ele>1014.9</ele>
      </trkpt>
      <trkpt lat="45.15498" lon="5.52835">
        <ele>1012.5</ele>
      </trkpt>
      <trkpt lat="45.15443" lon="5.52798">
        <ele>1019.9</ele>
      </trkpt>
      <trkpt lat="45.15357" lon="5.52749">
        <ele>1012.1</ele>
      </trkpt>
      <trkpt lat="45.1525" lon="5.527">
        <ele>1010.1</ele>
      </trkpt>
      <trkpt lat="45.15146" lon="5.52675">
        <ele>1012.3</ele>
      </trkpt>
      <trkpt lat="45.15091" lon="5.52655">
        <ele>1006.6</ele>
      </trkpt>
      <trkpt lat="45.14987" lon="5.52629">
        <ele>1003.6</ele>
      </trkpt>
      <trkpt lat="45.149" lon="5.52642">
        <ele>1004.1</ele>
      </trkpt>
      <trkpt lat="45.14856" lon="5.52672">
        <ele>1004.1</ele>
      </trkpt>
      <trkpt lat="45.1482" lon="5.5268">
        <ele>1004</ele>
      </trkpt>
      <trkpt lat="45.14772" lon="5.52671">
        <ele>1005.3</ele>
      </trkpt>
      <trkpt lat="45.147" lon="5.52647">
        <ele>1005.9</ele>
      </trkpt>
      <trkpt lat="45.14661" lon="5.52629">
        <ele>1004.7</ele>
      </trkpt>
      <trkpt lat="45.14647" lon="5.52617">
        <ele>1002.6</ele>
      </trkpt>
      <trkpt lat="45.14372" lon="5.52628">
        <ele>997.1</ele>
      </trkpt>
      <trkpt lat="45.1437" lon="5.52634">
        <ele>997.4</ele>
      </trkpt>
      <trkpt lat="45.14374" lon="5.52648">
        <ele>998.6</ele>
      </trkpt>
      <trkpt lat="45.14374" lon="5.52716">
        <ele>1004.7</ele>
      </trkpt>
      <trkpt lat="45.14382" lon="5.52856">
        <ele>1025</ele>
      </trkpt>
      <trkpt lat="45.14384" lon="5.52867">
        <ele>1026.7</ele>
      </trkpt>
      <trkpt lat="45.14411" lon="5.52927">
        <ele>1035.5</ele>
      </trkpt>
      <trkpt lat="45.14417" lon="5.52949">
        <ele>1035.6</ele>
      </trkpt>
      <trkpt lat="45.14412" lon="5.52979">
        <ele>1035.3</ele>
      </trkpt>
      <trkpt lat="45.14381" lon="5.52978">
        <ele>1035.2</ele>
      </trkpt>
      <trkpt lat="45.14275" lon="5.52994">
        <ele>1043.9</ele>
      </trkpt>
      <trkpt lat="45.14148" lon="5.52969">
        <ele>1054.6</ele>
      </trkpt>
      <trkpt lat="45.14095" lon="5.5295">
        <ele>1060.2</ele>
      </trkpt>
      <trkpt lat="45.14047" lon="5.5294">
        <ele>1062.7</ele>
      </trkpt>
      <trkpt lat="45.13973" lon="5.52935">
        <ele>1064.6</ele>
      </trkpt>
      <trkpt lat="45.13872" lon="5.5295">
        <ele>1063.9</ele>
      </trkpt>
      <trkpt lat="45.13785" lon="5.52983">
        <ele>1062.3</ele>
      </trkpt>
      <trkpt lat="45.13731" lon="5.52996">
        <ele>1059.1</ele>
      </trkpt>
      <trkpt lat="45.13687" lon="5.52999">
        <ele>1050.8</ele>
      </trkpt>
      <trkpt lat="45.13588" lon="5.52976">
        <ele>1034.3</ele>
      </trkpt>
      <trkpt lat="45.13583" lon="5.52978">
        <ele>1033.7</ele>
      </trkpt>
      <trkpt lat="45.13574" lon="5.52995">
        <ele>1032.3</ele>
      </trkpt>
      <trkpt lat="45.13564" lon="5.53022">
        <ele>1026.7</ele>
      </trkpt>
      <trkpt lat="45.13556" lon="5.53016">
        <ele>1025.6</ele>
      </trkpt>
      <trkpt lat="45.13545" lon="5.53025">
        <ele>1021.8</ele>
      </trkpt>
      <trkpt lat="45.13542" lon="5.53033">
        <ele>1020.1</ele>
      </trkpt>
      <trkpt lat="45.13545" lon="5.53054">
        <ele>1017.7</ele>
      </trkpt>
      <trkpt lat="45.13543" lon="5.53061">
        <ele>1016.2</ele>
      </trkpt>
      <trkpt lat="45.1353" lon="5.53058">
        <ele>1014</ele>
      </trkpt>
      <trkpt lat="45.13507" lon="5.53031">
        <ele>1012.4</ele>
      </trkpt>
      <trkpt lat="45.13496" lon="5.53023">
        <ele>1010.7</ele>
      </trkpt>
      <trkpt lat="45.13338" lon="5.53029">
        <ele>983.6</ele>
      </trkpt>
      <trkpt lat="45.13304" lon="5.53025">
        <ele>982.1</ele>
      </trkpt>
      <trkpt lat="45.13296" lon="5.5298">
        <ele>980.9</ele>
      </trkpt>
      <trkpt lat="45.13296" lon="5.52951">
        <ele>979.1</ele>
      </trkpt>
      <trkpt lat="45.13306" lon="5.52805">
        <ele>974.8</ele>
      </trkpt>
      <trkpt lat="45.13299" lon="5.52797">
        <ele>974.5</ele>
      </trkpt>
      <trkpt lat="45.1329" lon="5.52796">
        <ele>974.2</ele>
      </trkpt>
      <trkpt lat="45.13136" lon="5.52854">
        <ele>975.2</ele>
      </trkpt>
      <trkpt lat="45.13125" lon="5.52851">
        <ele>975.5</ele>
      </trkpt>
      <trkpt lat="45.13114" lon="5.5284">
        <ele>975.9</ele>
      </trkpt>
      <trkpt lat="45.1311" lon="5.52831">
        <ele>976</ele>
      </trkpt>
      <trkpt lat="45.13111" lon="5.52811">
        <ele>976.2</ele>
      </trkpt>
      <trkpt lat="45.13103" lon="5.52799">
        <ele>976.5</ele>
      </trkpt>
      <trkpt lat="45.13096" lon="5.52796">
        <ele>976.7</ele>
      </trkpt>
      <trkpt lat="45.13059" lon="5.52802">
        <ele>978</ele>
      </trkpt>
      <trkpt lat="45.12924" lon="5.52786">
        <ele>987.2</ele>
      </trkpt>
      <trkpt lat="45.12887" lon="5.52785">
        <ele>988.8</ele>
      </trkpt>
      <trkpt lat="45.12815" lon="5.5277">
        <ele>990.5</ele>
      </trkpt>
      <trkpt lat="45.128" lon="5.52763">
        <ele>990.4</ele>
      </trkpt>
      <trkpt lat="45.1279" lon="5.52754">
        <ele>990.4</ele>
      </trkpt>
      <trkpt lat="45.12794" lon="5.52726">
        <ele>991.2</ele>
      </trkpt>
      <trkpt lat="45.12796" lon="5.52691">
        <ele>992.4</ele>
      </trkpt>
      <trkpt lat="45.12796" lon="5.52543">
        <ele>993.7</ele>
      </trkpt>
      <trkpt lat="45.12794" lon="5.52504">
        <ele>994.4</ele>
      </trkpt>
      <trkpt lat="45.12795" lon="5.52594">
        <ele>993</ele>
      </trkpt>
      <trkpt lat="45.1279" lon="5.526">
        <ele>993</ele>
      </trkpt>
      <trkpt lat="45.12754" lon="5.52601">
        <ele>992.8</ele>
      </trkpt>
      <trkpt lat="45.12752" lon="5.52597">
        <ele>992.8</ele>
      </trkpt>
      <trkpt lat="45.12753" lon="5.52591">
        <ele>992.9</ele>
      </trkpt>
      <trkpt lat="45.12746" lon="5.52616">
        <ele>992.8</ele>
      </trkpt>
      <trkpt lat="45.12746" lon="5.52625">
        <ele>992.7</ele>
      </trkpt>
      <trkpt lat="45.12745" lon="5.52602">
        <ele>993.1</ele>
      </trkpt>
      <trkpt lat="45.12819" lon="5.52178">
        <ele>1002.6</ele>
      </trkpt>
      <trkpt lat="45.12813" lon="5.52175">
        <ele>1003.3</ele>
      </trkpt>
      <trkpt lat="45.12803" lon="5.52263">
        <ele>1005.5</ele>
      </trkpt>
      <trkpt lat="45.12827" lon="5.5229">
        <ele>1003.3</ele>
      </trkpt>
      <trkpt lat="45.12839" lon="5.52296">
        <ele>1002.2</ele>
      </trkpt>
      <trkpt lat="45.12896" lon="5.52287">
        <ele>996.7</ele>
      </trkpt>
      <trkpt lat="45.12983" lon="5.52306">
        <ele>990.2</ele>
      </trkpt>
      <trkpt lat="45.12999" lon="5.52306">
        <ele>989.1</ele>
      </trkpt>
      <trkpt lat="45.13029" lon="5.52316">
        <ele>989</ele>
      </trkpt>
      <trkpt lat="45.13171" lon="5.52252">
        <ele>984.3</ele>
      </trkpt>
      <trkpt lat="45.13174" lon="5.52283">
        <ele>984</ele>
      </trkpt>
      <trkpt lat="45.13184" lon="5.52317">
        <ele>983.2</ele>
      </trkpt>
      <trkpt lat="45.1319" lon="5.52352">
        <ele>981.4</ele>
      </trkpt>
      <trkpt lat="45.13194" lon="5.52605">
        <ele>979.5</ele>
      </trkpt>
      <trkpt lat="45.13203" lon="5.52611">
        <ele>979.3</ele>
      </trkpt>
      <trkpt lat="45.1325" lon="5.52577">
        <ele>980</ele>
      </trkpt>
      <trkpt lat="45.13297" lon="5.52534">
        <ele>978.8</ele>
      </trkpt>
      <trkpt lat="45.13328" lon="5.52496">
        <ele>979.8</ele>
      </trkpt>
      <trkpt lat="45.13372" lon="5.52451">
        <ele>976.8</ele>
      </trkpt>
      <trkpt lat="45.13445" lon="5.5239">
        <ele>978.4</ele>
      </trkpt>
      <trkpt lat="45.13489" lon="5.52377">
        <ele>980.5</ele>
      </trkpt>
      <trkpt lat="45.13549" lon="5.52342">
        <ele>978.8</ele>
      </trkpt>
      <trkpt lat="45.13618" lon="5.52319">
        <ele>978.9</ele>
      </trkpt>
      <trkpt lat="45.13642" lon="5.52314">
        <ele>980.1</ele>
      </trkpt>
      <trkpt lat="45.1369" lon="5.52315">
        <ele>980.6</ele>
      </trkpt>
      <trkpt lat="45.13699" lon="5.52312">
        <ele>980.5</ele>
      </trkpt>
      <trkpt lat="45.13734" lon="5.52286">
        <ele>979.2</ele>
      </trkpt>
      <trkpt lat="45.13762" lon="5.52276">
        <ele>978.4</ele>
      </trkpt>
      <trkpt lat="45.13933" lon="5.52256">
        <ele>982.4</ele>
      </trkpt>
      <trkpt lat="45.13948" lon="5.52249">
        <ele>983.2</ele>
      </trkpt>
      <trkpt lat="45.13949" lon="5.52244">
        <ele>983.4</ele>
      </trkpt>
      <trkpt lat="45.13995" lon="5.52229">
        <ele>985.8</ele>
      </trkpt>
      <trkpt lat="45.14035" lon="5.52205">
        <ele>988</ele>
      </trkpt>
      <trkpt lat="45.1409" lon="5.52162">
        <ele>989.5</ele>
      </trkpt>
      <trkpt lat="45.14109" lon="5.52143">
        <ele>987.9</ele>
      </trkpt>
      <trkpt lat="45.14151" lon="5.52117">
        <ele>986.8</ele>
      </trkpt>
      <trkpt lat="45.14201" lon="5.52106">
        <ele>989.7</ele>
      </trkpt>
      <trkpt lat="45.14291" lon="5.52122">
        <ele>990.5</ele>
      </trkpt>
      <trkpt lat="45.14305" lon="5.52117">
        <ele>989.8</ele>
      </trkpt>
      <trkpt lat="45.14333" lon="5.52097">
        <ele>989.2</ele>
      </trkpt>
      <trkpt lat="45.14352" lon="5.52087">
        <ele>989.8</ele>
      </trkpt>
      <trkpt lat="45.14405" lon="5.52087">
        <ele>989.9</ele>
      </trkpt>
      <trkpt lat="45.14431" lon="5.52075">
        <ele>990</ele>
      </trkpt>
      <trkpt lat="45.14478" lon="5.52043">
        <ele>988.8</ele>
      </trkpt>
      <trkpt lat="45.14492" lon="5.52028">
        <ele>987.9</ele>
      </trkpt>
      <trkpt lat="45.14503" lon="5.52011">
        <ele>987.2</ele>
      </trkpt>
      <trkpt lat="45.14528" lon="5.51935">
        <ele>992.7</ele>
      </trkpt>
      <trkpt lat="45.1457" lon="5.5183">
        <ele>1003.9</ele>
      </trkpt>
      <trkpt lat="45.14575" lon="5.51823">
        <ele>1004.4</ele>
      </trkpt>
      <trkpt lat="45.14644" lon="5.51919">
        <ele>1001.5</ele>
      </trkpt>
      <trkpt lat="45.14744" lon="5.52043">
        <ele>994.2</ele>
      </trkpt>
      <trkpt lat="45.14848" lon="5.52152">
        <ele>992.2</ele>
      </trkpt>
      <trkpt lat="45.14884" lon="5.5218">
        <ele>992.9</ele>
      </trkpt>
      <trkpt lat="45.14973" lon="5.52233">
        <ele>996.1</ele>
      </trkpt>
      <trkpt lat="45.15061" lon="5.5228">
        <ele>997.9</ele>
      </trkpt>
      <trkpt lat="45.15065" lon="5.5226">
        <ele>998.2</ele>
      </trkpt>
      <trkpt lat="45.15098" lon="5.5221">
        <ele>1006.6</ele>
      </trkpt>
      <trkpt lat="45.15112" lon="5.52182">
        <ele>1013.1</ele>
      </trkpt>
      <trkpt lat="45.15126" lon="5.5214">
        <ele>1024.5</ele>
      </trkpt>
      <trkpt lat="45.15125" lon="5.52119">
        <ele>1030.2</ele>
      </trkpt>
      <trkpt lat="45.15098" lon="5.52096">
        <ele>1036.1</ele>
      </trkpt>
      <trkpt lat="45.15076" lon="5.52068">
        <ele>1042.9</ele>
      </trkpt>
      <trkpt lat="45.15078" lon="5.52067">
        <ele>1043.3</ele>
      </trkpt>
      <trkpt lat="45.15075" lon="5.52065">
        <ele>1043.5</ele>
      </trkpt>
      <trkpt lat="45.15072" lon="5.52071">
        <ele>1041.8</ele>
      </trkpt>
      <trkpt lat="45.15058" lon="5.52037">
        <ele>1048.4</ele>
      </trkpt>
      <trkpt lat="45.15036" lon="5.52001">
        <ele>1054</ele>
      </trkpt>
      <trkpt lat="45.15029" lon="5.51974">
        <ele>1058.6</ele>
      </trkpt>
      <trkpt lat="45.15027" lon="5.51958">
        <ele>1061.7</ele>
      </trkpt>
      <trkpt lat="45.15016" lon="5.51927">
        <ele>1066.6</ele>
      </trkpt>
      <trkpt lat="45.15016" lon="5.51881">
        <ele>1073</ele>
      </trkpt>
      <trkpt lat="45.15025" lon="5.51865">
        <ele>1076.2</ele>
      </trkpt>
      <trkpt lat="45.15031" lon="5.51863">
        <ele>1077.3</ele>
      </trkpt>
      <trkpt lat="45.15039" lon="5.51854">
        <ele>1079.6</ele>
      </trkpt>
      <trkpt lat="45.15062" lon="5.51845">
        <ele>1084.6</ele>
      </trkpt>
      <trkpt lat="45.15088" lon="5.51794">
        <ele>1093.7</ele>
      </trkpt>
      <trkpt lat="45.15166" lon="5.51704">
        <ele>1104.7</ele>
      </trkpt>
      <trkpt lat="45.15181" lon="5.517">
        <ele>1104.4</ele>
      </trkpt>
      <trkpt lat="45.15197" lon="5.51706">
        <ele>1102.7</ele>
      </trkpt>
      <trkpt lat="45.15221" lon="5.51698">
        <ele>1102.6</ele>
      </trkpt>
      <trkpt lat="45.15232" lon="5.5168">
        <ele>1104.3</ele>
      </trkpt>
      <trkpt lat="45.15239" lon="5.51647">
        <ele>1108.5</ele>
      </trkpt>
      <trkpt lat="45.1524" lon="5.51612">
        <ele>1113.5</ele>
      </trkpt>
      <trkpt lat="45.15249" lon="5.51593">
        <ele>1115.6</ele>
      </trkpt>
      <trkpt lat="45.15257" lon="5.51589">
        <ele>1116.8</ele>
      </trkpt>
      <trkpt lat="45.15266" lon="5.51593">
        <ele>1117.1</ele>
      </trkpt>
      <trkpt lat="45.15281" lon="5.51615">
        <ele>1115</ele>
      </trkpt>
      <trkpt lat="45.15291" lon="5.51643">
        <ele>1111.2</ele>
      </trkpt>
      <trkpt lat="45.15315" lon="5.51687">
        <ele>1106.4</ele>
      </trkpt>
      <trkpt lat="45.1533" lon="5.51692">
        <ele>1106.7</ele>
      </trkpt>
      <trkpt lat="45.15349" lon="5.51687">
        <ele>1108.3</ele>
      </trkpt>
      <trkpt lat="45.15364" lon="5.51674">
        <ele>1110.8</ele>
      </trkpt>
      <trkpt lat="45.15382" lon="5.5164">
        <ele>1117.6</ele>
      </trkpt>
      <trkpt lat="45.15393" lon="5.51637">
        <ele>1118.9</ele>
      </trkpt>
      <trkpt lat="45.15398" lon="5.5164">
        <ele>1118.8</ele>
      </trkpt>
      <trkpt lat="45.15412" lon="5.51659">
        <ele>1116.1</ele>
      </trkpt>
      <trkpt lat="45.15431" lon="5.51666">
        <ele>1115.6</ele>
      </trkpt>
      <trkpt lat="45.1549" lon="5.51632">
        <ele>1122.9</ele>
      </trkpt>
      <trkpt lat="45.15516" lon="5.51609">
        <ele>1129.1</ele>
      </trkpt>
      <trkpt lat="45.1553" lon="5.51613">
        <ele>1129.8</ele>
      </trkpt>
      <trkpt lat="45.15543" lon="5.51643">
        <ele>1125.3</ele>
      </trkpt>
      <trkpt lat="45.15559" lon="5.51656">
        <ele>1124.1</ele>
      </trkpt>
      <trkpt lat="45.15576" lon="5.51657">
        <ele>1125.3</ele>
      </trkpt>
      <trkpt lat="45.1559" lon="5.51651">
        <ele>1128.1</ele>
      </trkpt>
      <trkpt lat="45.15628" lon="5.51625">
        <ele>1137</ele>
      </trkpt>
      <trkpt lat="45.1564" lon="5.51631">
        <ele>1136.9</ele>
      </trkpt>
      <trkpt lat="45.15658" lon="5.51665">
        <ele>1132.4</ele>
      </trkpt>
      <trkpt lat="45.15669" lon="5.51676">
        <ele>1131.5</ele>
      </trkpt>
      <trkpt lat="45.1568" lon="5.51681">
        <ele>1130.8</ele>
      </trkpt>
      <trkpt lat="45.15712" lon="5.51687">
        <ele>1130.6</ele>
      </trkpt>
      <trkpt lat="45.15738" lon="5.51686">
        <ele>1131.4</ele>
      </trkpt>
      <trkpt lat="45.15764" lon="5.5168">
        <ele>1132.2</ele>
      </trkpt>
      <trkpt lat="45.15793" lon="5.51659">
        <ele>1135.6</ele>
      </trkpt>
      <trkpt lat="45.15838" lon="5.51603">
        <ele>1150.2</ele>
      </trkpt>
      <trkpt lat="45.15846" lon="5.51598">
        <ele>1152.8</ele>
      </trkpt>
      <trkpt lat="45.15855" lon="5.51599">
        <ele>1154.1</ele>
      </trkpt>
      <trkpt lat="45.15866" lon="5.5161">
        <ele>1152.8</ele>
      </trkpt>
      <trkpt lat="45.15869" lon="5.51649">
        <ele>1142.6</ele>
      </trkpt>
      <trkpt lat="45.15872" lon="5.5166">
        <ele>1140.4</ele>
      </trkpt>
      <trkpt lat="45.15882" lon="5.51672">
        <ele>1138.9</ele>
      </trkpt>
      <trkpt lat="45.15968" lon="5.51707">
        <ele>1145.1</ele>
      </trkpt>
      <trkpt lat="45.16005" lon="5.51714">
        <ele>1148.8</ele>
      </trkpt>
      <trkpt lat="45.16045" lon="5.51711">
        <ele>1152.1</ele>
      </trkpt>
      <trkpt lat="45.16059" lon="5.51706">
        <ele>1154.5</ele>
      </trkpt>
      <trkpt lat="45.16094" lon="5.51674">
        <ele>1168.4</ele>
      </trkpt>
      <trkpt lat="45.16123" lon="5.51659">
        <ele>1176.8</ele>
      </trkpt>
      <trkpt lat="45.16135" lon="5.51657">
        <ele>1178.5</ele>
      </trkpt>
      <trkpt lat="45.16143" lon="5.51661">
        <ele>1177.9</ele>
      </trkpt>
      <trkpt lat="45.16154" lon="5.5165">
        <ele>1183</ele>
      </trkpt>
      <trkpt lat="45.16152" lon="5.51653">
        <ele>1181.9</ele>
      </trkpt>
      <trkpt lat="45.1616" lon="5.51667">
        <ele>1177.3</ele>
      </trkpt>
      <trkpt lat="45.16183" lon="5.51687">
        <ele>1174.8</ele>
      </trkpt>
      <trkpt lat="45.1619" lon="5.51704">
        <ele>1170.9</ele>
      </trkpt>
      <trkpt lat="45.16202" lon="5.51717">
        <ele>1169.4</ele>
      </trkpt>
      <trkpt lat="45.16217" lon="5.51724">
        <ele>1170.8</ele>
      </trkpt>
      <trkpt lat="45.16242" lon="5.51729">
        <ele>1175</ele>
      </trkpt>
      <trkpt lat="45.16306" lon="5.51731">
        <ele>1183.6</ele>
      </trkpt>
      <trkpt lat="45.16358" lon="5.51713">
        <ele>1196.5</ele>
      </trkpt>
      <trkpt lat="45.16383" lon="5.51711">
        <ele>1200</ele>
      </trkpt>
      <trkpt lat="45.16396" lon="5.51716">
        <ele>1199.9</ele>
      </trkpt>
      <trkpt lat="45.16415" lon="5.51733">
        <ele>1197.4</ele>
      </trkpt>
      <trkpt lat="45.16447" lon="5.51745">
        <ele>1198.2</ele>
      </trkpt>
      <trkpt lat="45.16445" lon="5.51747">
        <ele>1197.5</ele>
      </trkpt>
      <trkpt lat="45.1645" lon="5.51739">
        <ele>1200.2</ele>
      </trkpt>
      <trkpt lat="45.16461" lon="5.51745">
        <ele>1200.1</ele>
      </trkpt>
      <trkpt lat="45.16485" lon="5.51745">
        <ele>1203</ele>
      </trkpt>
      <trkpt lat="45.1651" lon="5.51729">
        <ele>1209.3</ele>
      </trkpt>
      <trkpt lat="45.16538" lon="5.5169">
        <ele>1218.1</ele>
      </trkpt>
      <trkpt lat="45.16558" lon="5.51675">
        <ele>1220.9</ele>
      </trkpt>
      <trkpt lat="45.16571" lon="5.51675">
        <ele>1221</ele>
      </trkpt>
      <trkpt lat="45.16584" lon="5.51688">
        <ele>1219.8</ele>
      </trkpt>
      <trkpt lat="45.16588" lon="5.51712">
        <ele>1218.4</ele>
      </trkpt>
      <trkpt lat="45.16581" lon="5.51749">
        <ele>1212.8</ele>
      </trkpt>
      <trkpt lat="45.16584" lon="5.51764">
        <ele>1210.4</ele>
      </trkpt>
      <trkpt lat="45.16595" lon="5.51773">
        <ele>1210.9</ele>
      </trkpt>
      <trkpt lat="45.16623" lon="5.51778">
        <ele>1215.8</ele>
      </trkpt>
      <trkpt lat="45.16698" lon="5.51799">
        <ele>1223.4</ele>
      </trkpt>
      <trkpt lat="45.16792" lon="5.518">
        <ele>1228.7</ele>
      </trkpt>
      <trkpt lat="45.16802" lon="5.51798">
        <ele>1228.9</ele>
      </trkpt>
      <trkpt lat="45.16828" lon="5.5178">
        <ele>1233</ele>
      </trkpt>
      <trkpt lat="45.16838" lon="5.51752">
        <ele>1240.2</ele>
      </trkpt>
      <trkpt lat="45.16853" lon="5.51726">
        <ele>1246.8</ele>
      </trkpt>
      <trkpt lat="45.1687" lon="5.51714">
        <ele>1249.5</ele>
      </trkpt>
      <trkpt lat="45.16884" lon="5.51712">
        <ele>1249.3</ele>
      </trkpt>
      <trkpt lat="45.16916" lon="5.51719">
        <ele>1245.4</ele>
      </trkpt>
      <trkpt lat="45.16968" lon="5.51745">
        <ele>1250.7</ele>
      </trkpt>
      <trkpt lat="45.16985" lon="5.51766">
        <ele>1250.7</ele>
      </trkpt>
      <trkpt lat="45.16993" lon="5.51771">
        <ele>1251.9</ele>
      </trkpt>
      <trkpt lat="45.17093" lon="5.51806">
        <ele>1266</ele>
      </trkpt>
      <trkpt lat="45.1712" lon="5.51806">
        <ele>1268.8</ele>
      </trkpt>
      <trkpt lat="45.17158" lon="5.518">
        <ele>1274.8</ele>
      </trkpt>
      <trkpt lat="45.17216" lon="5.51811">
        <ele>1278.1</ele>
      </trkpt>
      <trkpt lat="45.17286" lon="5.51838">
        <ele>1279.5</ele>
      </trkpt>
      <trkpt lat="45.17326" lon="5.51846">
        <ele>1284.7</ele>
      </trkpt>
      <trkpt lat="45.1741" lon="5.51849">
        <ele>1290.8</ele>
      </trkpt>
      <trkpt lat="45.17435" lon="5.51841">
        <ele>1294.3</ele>
      </trkpt>
      <trkpt lat="45.17498" lon="5.51806">
        <ele>1307.7</ele>
      </trkpt>
      <trkpt lat="45.17531" lon="5.51798">
        <ele>1315.2</ele>
      </trkpt>
      <trkpt lat="45.17564" lon="5.51802">
        <ele>1319.7</ele>
      </trkpt>
      <trkpt lat="45.17601" lon="5.51817">
        <ele>1323.5</ele>
      </trkpt>
      <trkpt lat="45.17659" lon="5.51872">
        <ele>1325.8</ele>
      </trkpt>
      <trkpt lat="45.17733" lon="5.51922">
        <ele>1324.1</ele>
      </trkpt>
      <trkpt lat="45.17789" lon="5.51941">
        <ele>1327.7</ele>
      </trkpt>
      <trkpt lat="45.17814" lon="5.51954">
        <ele>1328.6</ele>
      </trkpt>
      <trkpt lat="45.17843" lon="5.51977">
        <ele>1327.7</ele>
      </trkpt>
      <trkpt lat="45.17887" lon="5.5199">
        <ele>1331.9</ele>
      </trkpt>
      <trkpt lat="45.17983" lon="5.52086">
        <ele>1320.8</ele>
      </trkpt>
      <trkpt lat="45.18038" lon="5.52149">
        <ele>1314.7</ele>
      </trkpt>
      <trkpt lat="45.18053" lon="5.5216">
        <ele>1314.3</ele>
      </trkpt>
      <trkpt lat="45.18133" lon="5.52192">
        <ele>1323.5</ele>
      </trkpt>
      <trkpt lat="45.18157" lon="5.52215">
        <ele>1323.9</ele>
      </trkpt>
      <trkpt lat="45.18256" lon="5.5229">
        <ele>1330.9</ele>
      </trkpt>
      <trkpt lat="45.18285" lon="5.52318">
        <ele>1332.6</ele>
      </trkpt>
      <trkpt lat="45.18396" lon="5.52399">
        <ele>1343.7</ele>
      </trkpt>
      <trkpt lat="45.18477" lon="5.52477">
        <ele>1350.2</ele>
      </trkpt>
      <trkpt lat="45.18499" lon="5.52506">
        <ele>1352.3</ele>
      </trkpt>
      <trkpt lat="45.18522" lon="5.52549">
        <ele>1349.6</ele>
      </trkpt>
      <trkpt lat="45.18546" lon="5.52579">
        <ele>1351.1</ele>
      </trkpt>
      <trkpt lat="45.18606" lon="5.52626">
        <ele>1355.5</ele>
      </trkpt>
      <trkpt lat="45.18656" lon="5.52673">
        <ele>1357.1</ele>
      </trkpt>
      <trkpt lat="45.18768" lon="5.52804">
        <ele>1348.4</ele>
      </trkpt>
      <trkpt lat="45.18836" lon="5.52863">
        <ele>1348.7</ele>
      </trkpt>
      <trkpt lat="45.18883" lon="5.52885">
        <ele>1344.4</ele>
      </trkpt>
      <trkpt lat="45.18901" lon="5.52889">
        <ele>1344.2</ele>
      </trkpt>
      <trkpt lat="45.18973" lon="5.52887">
        <ele>1354.3</ele>
      </trkpt>
      <trkpt lat="45.18991" lon="5.52893">
        <ele>1355</ele>
      </trkpt>
      <trkpt lat="45.1923" lon="5.53009">
        <ele>1357.1</ele>
      </trkpt>
      <trkpt lat="45.19329" lon="5.53042">
        <ele>1363.5</ele>
      </trkpt>
      <trkpt lat="45.19478" lon="5.53107">
        <ele>1360.3</ele>
      </trkpt>
      <trkpt lat="45.19606" lon="5.53152">
        <ele>1355.7</ele>
      </trkpt>
      <trkpt lat="45.19642" lon="5.5316">
        <ele>1355.2</ele>
      </trkpt>
      <trkpt lat="45.19691" lon="5.53175">
        <ele>1355.5</ele>
      </trkpt>
      <trkpt lat="45.19702" lon="5.5318">
        <ele>1355.8</ele>
      </trkpt>
      <trkpt lat="45.19716" lon="5.53177">
        <ele>1358.8</ele>
      </trkpt>
      <trkpt lat="45.19721" lon="5.53181">
        <ele>1358.5</ele>
      </trkpt>
      <trkpt lat="45.19736" lon="5.53182">
        <ele>1360.8</ele>
      </trkpt>
      <trkpt lat="45.19743" lon="5.53178">
        <ele>1362.9</ele>
      </trkpt>
      <trkpt lat="45.19802" lon="5.5319">
        <ele>1371.6</ele>
      </trkpt>
      <trkpt lat="45.1987" lon="5.53197">
        <ele>1381.4</ele>
      </trkpt>
      <trkpt lat="45.19909" lon="5.53208">
        <ele>1384.4</ele>
      </trkpt>
      <trkpt lat="45.19914" lon="5.53206">
        <ele>1385.8</ele>
      </trkpt>
      <trkpt lat="45.20003" lon="5.53231">
        <ele>1393</ele>
      </trkpt>
      <trkpt lat="45.20017" lon="5.5323">
        <ele>1397.1</ele>
      </trkpt>
      <trkpt lat="45.20106" lon="5.53259">
        <ele>1412.5</ele>
      </trkpt>
      <trkpt lat="45.20107" lon="5.53256">
        <ele>1413.5</ele>
      </trkpt>
      <trkpt lat="45.20158" lon="5.53281">
        <ele>1419.2</ele>
      </trkpt>
      <trkpt lat="45.20272" lon="5.53354">
        <ele>1427.5</ele>
      </trkpt>
      <trkpt lat="45.20346" lon="5.53379">
        <ele>1434.6</ele>
      </trkpt>
      <trkpt lat="45.204" lon="5.53406">
        <ele>1434.7</ele>
      </trkpt>
      <trkpt lat="45.20446" lon="5.53435">
        <ele>1434.3</ele>
      </trkpt>
      <trkpt lat="45.20505" lon="5.53481">
        <ele>1431.6</ele>
      </trkpt>
      <trkpt lat="45.20547" lon="5.53508">
        <ele>1435.6</ele>
      </trkpt>
      <trkpt lat="45.20617" lon="5.53537">
        <ele>1445.5</ele>
      </trkpt>
      <trkpt lat="45.20633" lon="5.53541">
        <ele>1448.5</ele>
      </trkpt>
      <trkpt lat="45.20655" lon="5.53556">
        <ele>1449.9</ele>
      </trkpt>
      <trkpt lat="45.20694" lon="5.53575">
        <ele>1453.1</ele>
      </trkpt>
      <trkpt lat="45.20727" lon="5.53582">
        <ele>1457.6</ele>
      </trkpt>
      <trkpt lat="45.20786" lon="5.53619">
        <ele>1456.1</ele>
      </trkpt>
      <trkpt lat="45.20827" lon="5.53638">
        <ele>1458.9</ele>
      </trkpt>
      <trkpt lat="45.20874" lon="5.53649">
        <ele>1466.8</ele>
      </trkpt>
      <trkpt lat="45.2089" lon="5.53648">
        <ele>1470.8</ele>
      </trkpt>
      <trkpt lat="45.209" lon="5.53655">
        <ele>1471.2</ele>
      </trkpt>
      <trkpt lat="45.20905" lon="5.53663">
        <ele>1470.1</ele>
      </trkpt>
      <trkpt lat="45.20936" lon="5.5368">
        <ele>1470.8</ele>
      </trkpt>
      <trkpt lat="45.20995" lon="5.53665">
        <ele>1484.9</ele>
      </trkpt>
      <trkpt lat="45.21031" lon="5.53667">
        <ele>1490.5</ele>
      </trkpt>
      <trkpt lat="45.21139" lon="5.53702">
        <ele>1500</ele>
      </trkpt>
      <trkpt lat="45.21156" lon="5.53705">
        <ele>1502.4</ele>
      </trkpt>
      <trkpt lat="45.21265" lon="5.53742">
        <ele>1504</ele>
      </trkpt>
      <trkpt lat="45.21284" lon="5.53745">
        <ele>1506</ele>
      </trkpt>
      <trkpt lat="45.21342" lon="5.53733">
        <ele>1518.6</ele>
      </trkpt>
      <trkpt lat="45.21372" lon="5.53736">
        <ele>1519.6</ele>
      </trkpt>
      <trkpt lat="45.2142" lon="5.53734">
        <ele>1523.9</ele>
      </trkpt>
      <trkpt lat="45.21467" lon="5.53725">
        <ele>1532.4</ele>
      </trkpt>
      <trkpt lat="45.21555" lon="5.53697">
        <ele>1551.3</ele>
      </trkpt>
      <trkpt lat="45.21618" lon="5.53702">
        <ele>1556.1</ele>
      </trkpt>
      <trkpt lat="45.2166" lon="5.53715">
        <ele>1557</ele>
      </trkpt>
      <trkpt lat="45.21728" lon="5.53725">
        <ele>1561.4</ele>
      </trkpt>
      <trkpt lat="45.21773" lon="5.53738">
        <ele>1559.5</ele>
      </trkpt>
      <trkpt lat="45.218" lon="5.53741">
        <ele>1559.3</ele>
      </trkpt>
      <trkpt lat="45.21904" lon="5.53742">
        <ele>1564.2</ele>
      </trkpt>
      <trkpt lat="45.21955" lon="5.53751">
        <ele>1561.8</ele>
      </trkpt>
      <trkpt lat="45.21961" lon="5.53742">
        <ele>1565.2</ele>
      </trkpt>
      <trkpt lat="45.21955" lon="5.53761">
        <ele>1557.9</ele>
      </trkpt>
      <trkpt lat="45.21953" lon="5.53758">
        <ele>1559</ele>
      </trkpt>
      <trkpt lat="45.21955" lon="5.5375">
        <ele>1562.2</ele>
      </trkpt>
      <trkpt lat="45.2196" lon="5.53755">
        <ele>1560.2</ele>
      </trkpt>
      <trkpt lat="45.21976" lon="5.5374">
        <ele>1565.8</ele>
      </trkpt>
      <trkpt lat="45.21975" lon="5.53736">
        <ele>1567.3</ele>
      </trkpt>
      <trkpt lat="45.21997" lon="5.53728">
        <ele>1570.9</ele>
      </trkpt>
      <trkpt lat="45.2201" lon="5.53717">
        <ele>1575.2</ele>
      </trkpt>
      <trkpt lat="45.22039" lon="5.53703">
        <ele>1580.3</ele>
      </trkpt>
      <trkpt lat="45.22144" lon="5.53672">
        <ele>1584.1</ele>
      </trkpt>
      <trkpt lat="45.22221" lon="5.53681">
        <ele>1585.7</ele>
      </trkpt>
      <trkpt lat="45.22217" lon="5.53672">
        <ele>1586.6</ele>
      </trkpt>
      <trkpt lat="45.22227" lon="5.53681">
        <ele>1586.2</ele>
      </trkpt>
      <trkpt lat="45.22236" lon="5.53674">
        <ele>1587.9</ele>
      </trkpt>
      <trkpt lat="45.22244" lon="5.53677">
        <ele>1588.2</ele>
      </trkpt>
      <trkpt lat="45.22297" lon="5.53671">
        <ele>1590.2</ele>
      </trkpt>
      <trkpt lat="45.22298" lon="5.53674">
        <ele>1589.9</ele>
      </trkpt>
      <trkpt lat="45.22321" lon="5.53674">
        <ele>1590.2</ele>
      </trkpt>
      <trkpt lat="45.22348" lon="5.53681">
        <ele>1590.1</ele>
      </trkpt>
      <trkpt lat="45.22351" lon="5.53698">
        <ele>1588.6</ele>
      </trkpt>
      <trkpt lat="45.22387" lon="5.53706">
        <ele>1588</ele>
      </trkpt>
      <trkpt lat="45.22396" lon="5.53717">
        <ele>1586.9</ele>
      </trkpt>
      <trkpt lat="45.22483" lon="5.53741">
        <ele>1566.9</ele>
      </trkpt>
      <trkpt lat="45.225" lon="5.53752">
        <ele>1568.6</ele>
      </trkpt>
      <trkpt lat="45.22508" lon="5.53769">
        <ele>1565.3</ele>
      </trkpt>
      <trkpt lat="45.22549" lon="5.53765">
        <ele>1568.7</ele>
      </trkpt>
      <trkpt lat="45.22556" lon="5.53778">
        <ele>1567</ele>
      </trkpt>
      <trkpt lat="45.22559" lon="5.53793">
        <ele>1564.8</ele>
      </trkpt>
      <trkpt lat="45.22572" lon="5.53809">
        <ele>1563.4</ele>
      </trkpt>
      <trkpt lat="45.22604" lon="5.53823">
        <ele>1556.7</ele>
      </trkpt>
      <trkpt lat="45.2261" lon="5.53832">
        <ele>1557.3</ele>
      </trkpt>
      <trkpt lat="45.22643" lon="5.53857">
        <ele>1549.2</ele>
      </trkpt>
      <trkpt lat="45.22661" lon="5.53853">
        <ele>1548.8</ele>
      </trkpt>
      <trkpt lat="45.22678" lon="5.53854">
        <ele>1536.2</ele>
      </trkpt>
      <trkpt lat="45.22697" lon="5.53862">
        <ele>1518.8</ele>
      </trkpt>
      <trkpt lat="45.22711" lon="5.53873">
        <ele>1511.4</ele>
      </trkpt>
      <trkpt lat="45.22717" lon="5.53875">
        <ele>1507.9</ele>
      </trkpt>
      <trkpt lat="45.22732" lon="5.5389">
        <ele>1506.9</ele>
      </trkpt>
      <trkpt lat="45.22742" lon="5.53911">
        <ele>1518.6</ele>
      </trkpt>
      <trkpt lat="45.22756" lon="5.53925">
        <ele>1515.8</ele>
      </trkpt>
      <trkpt lat="45.22779" lon="5.53959">
        <ele>1504</ele>
      </trkpt>
      <trkpt lat="45.22778" lon="5.5397">
        <ele>1509.5</ele>
      </trkpt>
      <trkpt lat="45.22787" lon="5.53996">
        <ele>1518.1</ele>
      </trkpt>
      <trkpt lat="45.22793" lon="5.54047">
        <ele>1522.9</ele>
      </trkpt>
      <trkpt lat="45.22792" lon="5.54059">
        <ele>1524.3</ele>
      </trkpt>
      <trkpt lat="45.22786" lon="5.54081">
        <ele>1527.8</ele>
      </trkpt>
      <trkpt lat="45.22785" lon="5.54102">
        <ele>1528.8</ele>
      </trkpt>
      <trkpt lat="45.22787" lon="5.54116">
        <ele>1528.9</ele>
      </trkpt>
      <trkpt lat="45.22785" lon="5.54122">
        <ele>1529.4</ele>
      </trkpt>
      <trkpt lat="45.22811" lon="5.54156">
        <ele>1527.2</ele>
      </trkpt>
      <trkpt lat="45.22822" lon="5.54189">
        <ele>1531.6</ele>
      </trkpt>
      <trkpt lat="45.22889" lon="5.54262">
        <ele>1538.8</ele>
      </trkpt>
      <trkpt lat="45.22914" lon="5.5427">
        <ele>1537.4</ele>
      </trkpt>
      <trkpt lat="45.22944" lon="5.54301">
        <ele>1542.1</ele>
      </trkpt>
      <trkpt lat="45.22966" lon="5.54315">
        <ele>1542.9</ele>
      </trkpt>
      <trkpt lat="45.23044" lon="5.54314">
        <ele>1534.7</ele>
      </trkpt>
      <trkpt lat="45.23055" lon="5.54324">
        <ele>1536.5</ele>
      </trkpt>
      <trkpt lat="45.23087" lon="5.54331">
        <ele>1535.9</ele>
      </trkpt>
      <trkpt lat="45.23126" lon="5.54354">
        <ele>1534.3</ele>
      </trkpt>
      <trkpt lat="45.23152" lon="5.54384">
        <ele>1533.3</ele>
      </trkpt>
      <trkpt lat="45.23163" lon="5.54392">
        <ele>1531.9</ele>
      </trkpt>
      <trkpt lat="45.23176" lon="5.54388">
        <ele>1530.1</ele>
      </trkpt>
      <trkpt lat="45.23191" lon="5.54391">
        <ele>1528.9</ele>
      </trkpt>
      <trkpt lat="45.23213" lon="5.54384">
        <ele>1526.6</ele>
      </trkpt>
      <trkpt lat="45.23239" lon="5.54389">
        <ele>1524.4</ele>
      </trkpt>
      <trkpt lat="45.23242" lon="5.54386">
        <ele>1524.1</ele>
      </trkpt>
      <trkpt lat="45.2324" lon="5.54371">
        <ele>1524.3</ele>
      </trkpt>
      <trkpt lat="45.23244" lon="5.54371">
        <ele>1524</ele>
      </trkpt>
      <trkpt lat="45.23244" lon="5.54367">
        <ele>1524</ele>
      </trkpt>
      <trkpt lat="45.23248" lon="5.54367">
        <ele>1523.7</ele>
      </trkpt>
      <trkpt lat="45.23241" lon="5.54373">
        <ele>1524.2</ele>
      </trkpt>
      <trkpt lat="45.2324" lon="5.54383">
        <ele>1524.3</ele>
      </trkpt>
      <trkpt lat="45.23263" lon="5.54394">
        <ele>1520.9</ele>
      </trkpt>
      <trkpt lat="45.23268" lon="5.54414">
        <ele>1522.5</ele>
      </trkpt>
      <trkpt lat="45.23299" lon="5.54451">
        <ele>1523.6</ele>
      </trkpt>
      <trkpt lat="45.23311" lon="5.54459">
        <ele>1524.4</ele>
      </trkpt>
      <trkpt lat="45.23315" lon="5.54459">
        <ele>1524.7</ele>
      </trkpt>
      <trkpt lat="45.23322" lon="5.54466">
        <ele>1525.5</ele>
      </trkpt>
      <trkpt lat="45.2333" lon="5.54464">
        <ele>1525.8</ele>
      </trkpt>
      <trkpt lat="45.23344" lon="5.54468">
        <ele>1528.1</ele>
      </trkpt>
      <trkpt lat="45.23371" lon="5.54483">
        <ele>1535.1</ele>
      </trkpt>
      <trkpt lat="45.23381" lon="5.5448">
        <ele>1536.6</ele>
      </trkpt>
      <trkpt lat="45.23389" lon="5.54483">
        <ele>1538.8</ele>
      </trkpt>
      <trkpt lat="45.23395" lon="5.5448">
        <ele>1539.2</ele>
      </trkpt>
      <trkpt lat="45.23427" lon="5.54485">
        <ele>1544</ele>
      </trkpt>
      <trkpt lat="45.23433" lon="5.54491">
        <ele>1545.8</ele>
      </trkpt>
      <trkpt lat="45.23446" lon="5.5448">
        <ele>1540</ele>
      </trkpt>
      <trkpt lat="45.23461" lon="5.54476">
        <ele>1535.7</ele>
      </trkpt>
      <trkpt lat="45.2348" lon="5.54478">
        <ele>1533.7</ele>
      </trkpt>
      <trkpt lat="45.23492" lon="5.54484">
        <ele>1538.2</ele>
      </trkpt>
      <trkpt lat="45.23528" lon="5.54487">
        <ele>1509.8</ele>
      </trkpt>
      <trkpt lat="45.2354" lon="5.54495">
        <ele>1503.9</ele>
      </trkpt>
      <trkpt lat="45.23549" lon="5.54497">
        <ele>1496</ele>
      </trkpt>
      <trkpt lat="45.23557" lon="5.54492">
        <ele>1481.9</ele>
      </trkpt>
      <trkpt lat="45.23567" lon="5.54502">
        <ele>1476.4</ele>
      </trkpt>
      <trkpt lat="45.23563" lon="5.54496">
        <ele>1478.8</ele>
      </trkpt>
      <trkpt lat="45.23551" lon="5.54492">
        <ele>1489</ele>
      </trkpt>
      <trkpt lat="45.23546" lon="5.54495">
        <ele>1497.4</ele>
      </trkpt>
      <trkpt lat="45.2353" lon="5.54493">
        <ele>1513.5</ele>
      </trkpt>
      <trkpt lat="45.23529" lon="5.54505">
        <ele>1521.3</ele>
      </trkpt>
      <trkpt lat="45.23516" lon="5.54529">
        <ele>1536.5</ele>
      </trkpt>
      <trkpt lat="45.23515" lon="5.54541">
        <ele>1536.6</ele>
      </trkpt>
      <trkpt lat="45.23506" lon="5.54563">
        <ele>1548.9</ele>
      </trkpt>
      <trkpt lat="45.235" lon="5.54601">
        <ele>1558.1</ele>
      </trkpt>
      <trkpt lat="45.23494" lon="5.5462">
        <ele>1559.3</ele>
      </trkpt>
      <trkpt lat="45.23494" lon="5.54662">
        <ele>1561.9</ele>
      </trkpt>
      <trkpt lat="45.23507" lon="5.54702">
        <ele>1550.6</ele>
      </trkpt>
      <trkpt lat="45.2351" lon="5.54734">
        <ele>1548.2</ele>
      </trkpt>
      <trkpt lat="45.23506" lon="5.54772">
        <ele>1551.8</ele>
      </trkpt>
      <trkpt lat="45.23509" lon="5.54779">
        <ele>1547.7</ele>
      </trkpt>
      <trkpt lat="45.23508" lon="5.5481">
        <ele>1545.7</ele>
      </trkpt>
      <trkpt lat="45.23518" lon="5.54831">
        <ele>1534.5</ele>
      </trkpt>
      <trkpt lat="45.23518" lon="5.54837">
        <ele>1534.1</ele>
      </trkpt>
      <trkpt lat="45.23508" lon="5.54817">
        <ele>1545.3</ele>
      </trkpt>
      <trkpt lat="45.2351" lon="5.54805">
        <ele>1544.8</ele>
      </trkpt>
      <trkpt lat="45.23519" lon="5.54819">
        <ele>1534.2</ele>
      </trkpt>
      <trkpt lat="45.23517" lon="5.54827">
        <ele>1536.5</ele>
      </trkpt>
      <trkpt lat="45.23519" lon="5.54836">
        <ele>1533.5</ele>
      </trkpt>
      <trkpt lat="45.23516" lon="5.54845">
        <ele>1535.3</ele>
      </trkpt>
      <trkpt lat="45.2352" lon="5.54866">
        <ele>1529.4</ele>
      </trkpt>
      <trkpt lat="45.23538" lon="5.54899">
        <ele>1515.8</ele>
      </trkpt>
      <trkpt lat="45.2355" lon="5.54909">
        <ele>1510.4</ele>
      </trkpt>
      <trkpt lat="45.23555" lon="5.54929">
        <ele>1508</ele>
      </trkpt>
      <trkpt lat="45.23562" lon="5.54941">
        <ele>1505.2</ele>
      </trkpt>
      <trkpt lat="45.23569" lon="5.5497">
        <ele>1503.6</ele>
      </trkpt>
      <trkpt lat="45.23568" lon="5.54977">
        <ele>1503.9</ele>
      </trkpt>
      <trkpt lat="45.23576" lon="5.54987">
        <ele>1503.4</ele>
      </trkpt>
      <trkpt lat="45.2358" lon="5.54987">
        <ele>1503.1</ele>
      </trkpt>
      <trkpt lat="45.23584" lon="5.54998">
        <ele>1502.3</ele>
      </trkpt>
      <trkpt lat="45.23583" lon="5.55002">
        <ele>1503.6</ele>
      </trkpt>
      <trkpt lat="45.23588" lon="5.55008">
        <ele>1496.3</ele>
      </trkpt>
      <trkpt lat="45.23587" lon="5.55014">
        <ele>1495.8</ele>
      </trkpt>
      <trkpt lat="45.23603" lon="5.5505">
        <ele>1475.4</ele>
      </trkpt>
      <trkpt lat="45.23607" lon="5.55075">
        <ele>1472.7</ele>
      </trkpt>
      <trkpt lat="45.23613" lon="5.55085">
        <ele>1469.3</ele>
      </trkpt>
      <trkpt lat="45.23623" lon="5.55091">
        <ele>1462.2</ele>
      </trkpt>
      <trkpt lat="45.23633" lon="5.55128">
        <ele>1459.3</ele>
      </trkpt>
      <trkpt lat="45.23644" lon="5.55152">
        <ele>1458.2</ele>
      </trkpt>
      <trkpt lat="45.23667" lon="5.55161">
        <ele>1453.9</ele>
      </trkpt>
      <trkpt lat="45.23698" lon="5.55189">
        <ele>1414.3</ele>
      </trkpt>
      <trkpt lat="45.23699" lon="5.5522">
        <ele>1421.4</ele>
      </trkpt>
      <trkpt lat="45.23693" lon="5.55226">
        <ele>1430.8</ele>
      </trkpt>
      <trkpt lat="45.23692" lon="5.55222">
        <ele>1430.2</ele>
      </trkpt>
      <trkpt lat="45.23695" lon="5.55223">
        <ele>1426.8</ele>
      </trkpt>
      <trkpt lat="45.23689" lon="5.55243">
        <ele>1439.2</ele>
      </trkpt>
      <trkpt lat="45.23681" lon="5.55238">
        <ele>1446.6</ele>
      </trkpt>
      <trkpt lat="45.23675" lon="5.55241">
        <ele>1454</ele>
      </trkpt>
      <trkpt lat="45.23647" lon="5.55229">
        <ele>1462.6</ele>
      </trkpt>
      <trkpt lat="45.23643" lon="5.55231">
        <ele>1462.7</ele>
      </trkpt>
      <trkpt lat="45.23638" lon="5.55245">
        <ele>1462.9</ele>
      </trkpt>
      <trkpt lat="45.23629" lon="5.55257">
        <ele>1461.9</ele>
      </trkpt>
      <trkpt lat="45.23626" lon="5.5528">
        <ele>1460.1</ele>
      </trkpt>
      <trkpt lat="45.23622" lon="5.55289">
        <ele>1459.2</ele>
      </trkpt>
      <trkpt lat="45.23615" lon="5.55294">
        <ele>1458.3</ele>
      </trkpt>
      <trkpt lat="45.23583" lon="5.55288">
        <ele>1456.3</ele>
      </trkpt>
      <trkpt lat="45.23558" lon="5.55304">
        <ele>1452</ele>
      </trkpt>
      <trkpt lat="45.23519" lon="5.55343">
        <ele>1444</ele>
      </trkpt>
      <trkpt lat="45.23508" lon="5.55349">
        <ele>1442.2</ele>
      </trkpt>
      <trkpt lat="45.23501" lon="5.55347">
        <ele>1441.5</ele>
      </trkpt>
      <trkpt lat="45.235" lon="5.55359">
        <ele>1440.7</ele>
      </trkpt>
      <trkpt lat="45.23504" lon="5.55375">
        <ele>1440.5</ele>
      </trkpt>
      <trkpt lat="45.2352" lon="5.55401">
        <ele>1440.8</ele>
      </trkpt>
      <trkpt lat="45.23518" lon="5.55445">
        <ele>1439.4</ele>
      </trkpt>
      <trkpt lat="45.23513" lon="5.55466">
        <ele>1438.6</ele>
      </trkpt>
      <trkpt lat="45.235" lon="5.55486">
        <ele>1437.2</ele>
      </trkpt>
      <trkpt lat="45.23486" lon="5.55499">
        <ele>1435.7</ele>
      </trkpt>
      <trkpt lat="45.23475" lon="5.55534">
        <ele>1433.1</ele>
      </trkpt>
      <trkpt lat="45.23451" lon="5.5558">
        <ele>1428.3</ele>
      </trkpt>
      <trkpt lat="45.23438" lon="5.5559">
        <ele>1426.5</ele>
      </trkpt>
      <trkpt lat="45.23418" lon="5.55591">
        <ele>1424.1</ele>
      </trkpt>
      <trkpt lat="45.23385" lon="5.55612">
        <ele>1419.3</ele>
      </trkpt>
      <trkpt lat="45.23376" lon="5.55627">
        <ele>1417.9</ele>
      </trkpt>
      <trkpt lat="45.23372" lon="5.55654">
        <ele>1416.7</ele>
      </trkpt>
      <trkpt lat="45.23364" lon="5.55676">
        <ele>1415.8</ele>
      </trkpt>
      <trkpt lat="45.23351" lon="5.55699">
        <ele>1414.8</ele>
      </trkpt>
      <trkpt lat="45.2335" lon="5.5572">
        <ele>1415.3</ele>
      </trkpt>
      <trkpt lat="45.23357" lon="5.55726">
        <ele>1416.6</ele>
      </trkpt>
      <trkpt lat="45.23357" lon="5.55736">
        <ele>1416.9</ele>
      </trkpt>
      <trkpt lat="45.23315" lon="5.55767">
        <ele>1413.9</ele>
      </trkpt>
      <trkpt lat="45.23296" lon="5.55773">
        <ele>1412.8</ele>
      </trkpt>
      <trkpt lat="45.23278" lon="5.55772">
        <ele>1411.2</ele>
      </trkpt>
      <trkpt lat="45.23247" lon="5.55753">
        <ele>1406.7</ele>
      </trkpt>
      <trkpt lat="45.23231" lon="5.55737">
        <ele>1403.7</ele>
      </trkpt>
      <trkpt lat="45.23187" lon="5.55711">
        <ele>1396.7</ele>
      </trkpt>
      <trkpt lat="45.23126" lon="5.55714">
        <ele>1388.2</ele>
      </trkpt>
      <trkpt lat="45.23103" lon="5.55719">
        <ele>1384.8</ele>
      </trkpt>
      <trkpt lat="45.23092" lon="5.55725">
        <ele>1383.3</ele>
      </trkpt>
      <trkpt lat="45.23045" lon="5.55769">
        <ele>1378.8</ele>
      </trkpt>
      <trkpt lat="45.22976" lon="5.55813">
        <ele>1374.6</ele>
      </trkpt>
      <trkpt lat="45.22944" lon="5.55861">
        <ele>1374</ele>
      </trkpt>
      <trkpt lat="45.22905" lon="5.55907">
        <ele>1370.7</ele>
      </trkpt>
      <trkpt lat="45.22893" lon="5.55916">
        <ele>1369.2</ele>
      </trkpt>
      <trkpt lat="45.22844" lon="5.55983">
        <ele>1366.8</ele>
      </trkpt>
      <trkpt lat="45.22844" lon="5.55992">
        <ele>1367.6</ele>
      </trkpt>
      <trkpt lat="45.22838" lon="5.56">
        <ele>1367.5</ele>
      </trkpt>
      <trkpt lat="45.22825" lon="5.55994">
        <ele>1366.2</ele>
      </trkpt>
      <trkpt lat="45.22774" lon="5.55912">
        <ele>1356.7</ele>
      </trkpt>
      <trkpt lat="45.22752" lon="5.55858">
        <ele>1349.8</ele>
      </trkpt>
      <trkpt lat="45.22741" lon="5.55848">
        <ele>1348.1</ele>
      </trkpt>
      <trkpt lat="45.2271" lon="5.55834">
        <ele>1345.1</ele>
      </trkpt>
      <trkpt lat="45.22665" lon="5.55802">
        <ele>1341.1</ele>
      </trkpt>
      <trkpt lat="45.2259" lon="5.55754">
        <ele>1341.8</ele>
      </trkpt>
      <trkpt lat="45.22578" lon="5.5575">
        <ele>1342.4</ele>
      </trkpt>
      <trkpt lat="45.22532" lon="5.55758">
        <ele>1345.5</ele>
      </trkpt>
      <trkpt lat="45.22522" lon="5.55768">
        <ele>1345.7</ele>
      </trkpt>
      <trkpt lat="45.22502" lon="5.55811">
        <ele>1344.3</ele>
      </trkpt>
      <trkpt lat="45.2249" lon="5.55849">
        <ele>1342.9</ele>
      </trkpt>
      <trkpt lat="45.22467" lon="5.55892">
        <ele>1340.8</ele>
      </trkpt>
      <trkpt lat="45.2247" lon="5.55933">
        <ele>1340.5</ele>
      </trkpt>
      <trkpt lat="45.22466" lon="5.55961">
        <ele>1341.4</ele>
      </trkpt>
      <trkpt lat="45.2246" lon="5.55976">
        <ele>1341.6</ele>
      </trkpt>
      <trkpt lat="45.22456" lon="5.5603">
        <ele>1343.5</ele>
      </trkpt>
      <trkpt lat="45.22448" lon="5.56064">
        <ele>1344.2</ele>
      </trkpt>
      <trkpt lat="45.22455" lon="5.56133">
        <ele>1345.9</ele>
      </trkpt>
      <trkpt lat="45.22451" lon="5.56169">
        <ele>1345.5</ele>
      </trkpt>
      <trkpt lat="45.2243" lon="5.56238">
        <ele>1344.1</ele>
      </trkpt>
      <trkpt lat="45.22378" lon="5.56332">
        <ele>1335.8</ele>
      </trkpt>
      <trkpt lat="45.22355" lon="5.5639">
        <ele>1335.9</ele>
      </trkpt>
      <trkpt lat="45.22351" lon="5.56419">
        <ele>1336.5</ele>
      </trkpt>
      <trkpt lat="45.22356" lon="5.56453">
        <ele>1337.9</ele>
      </trkpt>
      <trkpt lat="45.22359" lon="5.56541">
        <ele>1340.2</ele>
      </trkpt>
      <trkpt lat="45.22355" lon="5.56567">
        <ele>1340.4</ele>
      </trkpt>
      <trkpt lat="45.22358" lon="5.56613">
        <ele>1342.3</ele>
      </trkpt>
      <trkpt lat="45.22361" lon="5.56629">
        <ele>1343.3</ele>
      </trkpt>
      <trkpt lat="45.22376" lon="5.56661">
        <ele>1346.4</ele>
      </trkpt>
      <trkpt lat="45.22381" lon="5.56692">
        <ele>1348.5</ele>
      </trkpt>
      <trkpt lat="45.22375" lon="5.56722">
        <ele>1349.5</ele>
      </trkpt>
      <trkpt lat="45.22398" lon="5.56768">
        <ele>1353.8</ele>
      </trkpt>
      <trkpt lat="45.22425" lon="5.56848">
        <ele>1358.8</ele>
      </trkpt>
      <trkpt lat="45.22429" lon="5.56899">
        <ele>1360.3</ele>
      </trkpt>
      <trkpt lat="45.22435" lon="5.56924">
        <ele>1362.1</ele>
      </trkpt>
      <trkpt lat="45.22434" lon="5.56936">
        <ele>1363.1</ele>
      </trkpt>
      <trkpt lat="45.22427" lon="5.5695">
        <ele>1363.7</ele>
      </trkpt>
      <trkpt lat="45.22423" lon="5.56973">
        <ele>1365.3</ele>
      </trkpt>
      <trkpt lat="45.22412" lon="5.56984">
        <ele>1365.2</ele>
      </trkpt>
      <trkpt lat="45.22394" lon="5.56989">
        <ele>1364.8</ele>
      </trkpt>
      <trkpt lat="45.22375" lon="5.56982">
        <ele>1363.2</ele>
      </trkpt>
      <trkpt lat="45.22365" lon="5.56971">
        <ele>1361.5</ele>
      </trkpt>
      <trkpt lat="45.22338" lon="5.56863">
        <ele>1351.8</ele>
      </trkpt>
      <trkpt lat="45.22332" lon="5.56827">
        <ele>1349.7</ele>
      </trkpt>
      <trkpt lat="45.22326" lon="5.5681">
        <ele>1348.7</ele>
      </trkpt>
      <trkpt lat="45.22306" lon="5.56782">
        <ele>1345.8</ele>
      </trkpt>
      <trkpt lat="45.22294" lon="5.56772">
        <ele>1344.2</ele>
      </trkpt>
      <trkpt lat="45.22279" lon="5.56766">
        <ele>1342.4</ele>
      </trkpt>
      <trkpt lat="45.22253" lon="5.56771">
        <ele>1340.3</ele>
      </trkpt>
      <trkpt lat="45.22195" lon="5.56803">
        <ele>1339.8</ele>
      </trkpt>
      <trkpt lat="45.22186" lon="5.56816">
        <ele>1340.3</ele>
      </trkpt>
      <trkpt lat="45.22164" lon="5.56906">
        <ele>1344.5</ele>
      </trkpt>
      <trkpt lat="45.22134" lon="5.56928">
        <ele>1349</ele>
      </trkpt>
      <trkpt lat="45.22114" lon="5.56933">
        <ele>1351.3</ele>
      </trkpt>
      <trkpt lat="45.22073" lon="5.56926">
        <ele>1351.8</ele>
      </trkpt>
      <trkpt lat="45.22055" lon="5.56914">
        <ele>1350.4</ele>
      </trkpt>
      <trkpt lat="45.22034" lon="5.56895">
        <ele>1349.4</ele>
      </trkpt>
      <trkpt lat="45.21981" lon="5.56865">
        <ele>1348.6</ele>
      </trkpt>
      <trkpt lat="45.21981" lon="5.56875">
        <ele>1349.5</ele>
      </trkpt>
      <trkpt lat="45.21965" lon="5.56885">
        <ele>1350.3</ele>
      </trkpt>
      <trkpt lat="45.21938" lon="5.56888">
        <ele>1350.2</ele>
      </trkpt>
      <trkpt lat="45.21923" lon="5.56895">
        <ele>1350.3</ele>
      </trkpt>
      <trkpt lat="45.21912" lon="5.56913">
        <ele>1350.4</ele>
      </trkpt>
      <trkpt lat="45.21913" lon="5.56936">
        <ele>1352</ele>
      </trkpt>
      <trkpt lat="45.21918" lon="5.56944">
        <ele>1353</ele>
      </trkpt>
      <trkpt lat="45.21925" lon="5.56948">
        <ele>1353.7</ele>
      </trkpt>
      <trkpt lat="45.21985" lon="5.56946">
        <ele>1356.8</ele>
      </trkpt>
      <trkpt lat="45.21998" lon="5.56956">
        <ele>1358.7</ele>
      </trkpt>
      <trkpt lat="45.22003" lon="5.56966">
        <ele>1359.9</ele>
      </trkpt>
      <trkpt lat="45.22004" lon="5.5698">
        <ele>1361.7</ele>
      </trkpt>
      <trkpt lat="45.21997" lon="5.57029">
        <ele>1364.7</ele>
      </trkpt>
      <trkpt lat="45.21998" lon="5.57045">
        <ele>1365.4</ele>
      </trkpt>
      <trkpt lat="45.22013" lon="5.5709">
        <ele>1368.5</ele>
      </trkpt>
      <trkpt lat="45.2201" lon="5.57113">
        <ele>1366.8</ele>
      </trkpt>
      <trkpt lat="45.21999" lon="5.57135">
        <ele>1363.8</ele>
      </trkpt>
      <trkpt lat="45.22001" lon="5.57152">
        <ele>1362.9</ele>
      </trkpt>
      <trkpt lat="45.22021" lon="5.57211">
        <ele>1361.5</ele>
      </trkpt>
      <trkpt lat="45.22033" lon="5.57235">
        <ele>1362</ele>
      </trkpt>
      <trkpt lat="45.22044" lon="5.57243">
        <ele>1364</ele>
      </trkpt>
      <trkpt lat="45.22055" lon="5.57241">
        <ele>1367.1</ele>
      </trkpt>
      <trkpt lat="45.22064" lon="5.57234">
        <ele>1369.9</ele>
      </trkpt>
      <trkpt lat="45.22086" lon="5.57196">
        <ele>1376.2</ele>
      </trkpt>
      <trkpt lat="45.22099" lon="5.57191">
        <ele>1377.6</ele>
      </trkpt>
      <trkpt lat="45.22108" lon="5.57197">
        <ele>1378.2</ele>
      </trkpt>
      <trkpt lat="45.22141" lon="5.57262">
        <ele>1381.7</ele>
      </trkpt>
      <trkpt lat="45.22173" lon="5.57292">
        <ele>1386.4</ele>
      </trkpt>
      <trkpt lat="45.22187" lon="5.57296">
        <ele>1387.5</ele>
      </trkpt>
      <trkpt lat="45.22208" lon="5.57292">
        <ele>1388.7</ele>
      </trkpt>
      <trkpt lat="45.22245" lon="5.57293">
        <ele>1391.3</ele>
      </trkpt>
      <trkpt lat="45.22256" lon="5.57299">
        <ele>1392.3</ele>
      </trkpt>
      <trkpt lat="45.22263" lon="5.57335">
        <ele>1395.5</ele>
      </trkpt>
      <trkpt lat="45.22284" lon="5.57371">
        <ele>1395.5</ele>
      </trkpt>
      <trkpt lat="45.22295" lon="5.57412">
        <ele>1394.6</ele>
      </trkpt>
      <trkpt lat="45.22305" lon="5.5743">
        <ele>1393.4</ele>
      </trkpt>
      <trkpt lat="45.22346" lon="5.57476">
        <ele>1393.2</ele>
      </trkpt>
      <trkpt lat="45.22381" lon="5.57504">
        <ele>1396</ele>
      </trkpt>
      <trkpt lat="45.22403" lon="5.57531">
        <ele>1393.2</ele>
      </trkpt>
      <trkpt lat="45.22423" lon="5.57544">
        <ele>1392.3</ele>
      </trkpt>
      <trkpt lat="45.22433" lon="5.57555">
        <ele>1390.7</ele>
      </trkpt>
      <trkpt lat="45.22435" lon="5.57564">
        <ele>1388.7</ele>
      </trkpt>
      <trkpt lat="45.22432" lon="5.57578">
        <ele>1384.8</ele>
      </trkpt>
      <trkpt lat="45.22426" lon="5.57583">
        <ele>1382.9</ele>
      </trkpt>
      <trkpt lat="45.224" lon="5.57584">
        <ele>1381.3</ele>
      </trkpt>
      <trkpt lat="45.22393" lon="5.57591">
        <ele>1379.3</ele>
      </trkpt>
      <trkpt lat="45.22391" lon="5.57599">
        <ele>1376.9</ele>
      </trkpt>
      <trkpt lat="45.22395" lon="5.57605">
        <ele>1375.5</ele>
      </trkpt>
      <trkpt lat="45.22452" lon="5.57616">
        <ele>1375.5</ele>
      </trkpt>
      <trkpt lat="45.22477" lon="5.57608">
        <ele>1378.9</ele>
      </trkpt>
      <trkpt lat="45.2248" lon="5.57611">
        <ele>1378.2</ele>
      </trkpt>
      <trkpt lat="45.22482" lon="5.57621">
        <ele>1374.7</ele>
      </trkpt>
      <trkpt lat="45.22479" lon="5.57631">
        <ele>1370.9</ele>
      </trkpt>
      <trkpt lat="45.22468" lon="5.57643">
        <ele>1366.9</ele>
      </trkpt>
      <trkpt lat="45.22458" lon="5.57646">
        <ele>1366</ele>
      </trkpt>
      <trkpt lat="45.22443" lon="5.57641">
        <ele>1367.8</ele>
      </trkpt>
      <trkpt lat="45.22437" lon="5.57644">
        <ele>1367</ele>
      </trkpt>
      <trkpt lat="45.22435" lon="5.57659">
        <ele>1363</ele>
      </trkpt>
      <trkpt lat="45.2244" lon="5.57664">
        <ele>1361.4</ele>
      </trkpt>
      <trkpt lat="45.22458" lon="5.57667">
        <ele>1359.3</ele>
      </trkpt>
      <trkpt lat="45.2251" lon="5.57652">
        <ele>1364.3</ele>
      </trkpt>
      <trkpt lat="45.22524" lon="5.57653">
        <ele>1366.2</ele>
      </trkpt>
      <trkpt lat="45.22569" lon="5.57685">
        <ele>1363.7</ele>
      </trkpt>
      <trkpt lat="45.22581" lon="5.57698">
        <ele>1361.4</ele>
      </trkpt>
      <trkpt lat="45.22601" lon="5.57734">
        <ele>1353.2</ele>
      </trkpt>
      <trkpt lat="45.22614" lon="5.57743">
        <ele>1352.4</ele>
      </trkpt>
      <trkpt lat="45.22647" lon="5.57754">
        <ele>1354.5</ele>
      </trkpt>
      <trkpt lat="45.22676" lon="5.57748">
        <ele>1361.5</ele>
      </trkpt>
      <trkpt lat="45.22704" lon="5.57752">
        <ele>1366</ele>
      </trkpt>
      <trkpt lat="45.22738" lon="5.57764">
        <ele>1369.7</ele>
      </trkpt>
      <trkpt lat="45.22758" lon="5.57783">
        <ele>1368.4</ele>
      </trkpt>
      <trkpt lat="45.22766" lon="5.57785">
        <ele>1369.4</ele>
      </trkpt>
      <trkpt lat="45.22789" lon="5.57804">
        <ele>1369</ele>
      </trkpt>
      <trkpt lat="45.22809" lon="5.57805">
        <ele>1372.5</ele>
      </trkpt>
      <trkpt lat="45.22829" lon="5.578">
        <ele>1377.8</ele>
      </trkpt>
      <trkpt lat="45.22862" lon="5.5782">
        <ele>1377.7</ele>
      </trkpt>
      <trkpt lat="45.22893" lon="5.57835">
        <ele>1377.4</ele>
      </trkpt>
      <trkpt lat="45.22982" lon="5.57847">
        <ele>1387.6</ele>
      </trkpt>
      <trkpt lat="45.22992" lon="5.5786">
        <ele>1384.9</ele>
      </trkpt>
      <trkpt lat="45.2298" lon="5.57846">
        <ele>1387.7</ele>
      </trkpt>
      <trkpt lat="45.22989" lon="5.57856">
        <ele>1386</ele>
      </trkpt>
      <trkpt lat="45.22995" lon="5.57883">
        <ele>1377.8</ele>
      </trkpt>
      <trkpt lat="45.23005" lon="5.57888">
        <ele>1377.2</ele>
      </trkpt>
      <trkpt lat="45.23025" lon="5.57889">
        <ele>1379.1</ele>
      </trkpt>
      <trkpt lat="45.23081" lon="5.57875">
        <ele>1391.6</ele>
      </trkpt>
      <trkpt lat="45.23116" lon="5.57873">
        <ele>1394.7</ele>
      </trkpt>
      <trkpt lat="45.23182" lon="5.57912">
        <ele>1378.8</ele>
      </trkpt>
      <trkpt lat="45.23202" lon="5.57908">
        <ele>1381.2</ele>
      </trkpt>
      <trkpt lat="45.23219" lon="5.57916">
        <ele>1377.4</ele>
      </trkpt>
      <trkpt lat="45.23228" lon="5.57934">
        <ele>1373.3</ele>
      </trkpt>
      <trkpt lat="45.23264" lon="5.57956">
        <ele>1370.2</ele>
      </trkpt>
      <trkpt lat="45.23288" lon="5.57965">
        <ele>1369.9</ele>
      </trkpt>
      <trkpt lat="45.23313" lon="5.57963">
        <ele>1372.5</ele>
      </trkpt>
      <trkpt lat="45.23331" lon="5.5797">
        <ele>1372</ele>
      </trkpt>
      <trkpt lat="45.23353" lon="5.57994">
        <ele>1368.7</ele>
      </trkpt>
      <trkpt lat="45.23355" lon="5.58004">
        <ele>1367.1</ele>
      </trkpt>
      <trkpt lat="45.2335" lon="5.58041">
        <ele>1363.3</ele>
      </trkpt>
      <trkpt lat="45.23354" lon="5.58063">
        <ele>1361.9</ele>
      </trkpt>
      <trkpt lat="45.23363" lon="5.58088">
        <ele>1361</ele>
      </trkpt>
      <trkpt lat="45.23384" lon="5.58109">
        <ele>1362</ele>
      </trkpt>
      <trkpt lat="45.2339" lon="5.58119">
        <ele>1361.8</ele>
      </trkpt>
      <trkpt lat="45.23389" lon="5.58172">
        <ele>1358.5</ele>
      </trkpt>
      <trkpt lat="45.23409" lon="5.58224">
        <ele>1357</ele>
      </trkpt>
      <trkpt lat="45.23406" lon="5.58252">
        <ele>1355.8</ele>
      </trkpt>
      <trkpt lat="45.23385" lon="5.58317">
        <ele>1358.2</ele>
      </trkpt>
      <trkpt lat="45.2338" lon="5.58325">
        <ele>1358.6</ele>
      </trkpt>
      <trkpt lat="45.2337" lon="5.58332">
        <ele>1358.9</ele>
      </trkpt>
      <trkpt lat="45.23353" lon="5.58336">
        <ele>1359.4</ele>
      </trkpt>
      <trkpt lat="45.23339" lon="5.58351">
        <ele>1361.6</ele>
      </trkpt>
      <trkpt lat="45.23338" lon="5.58356">
        <ele>1362.3</ele>
      </trkpt>
      <trkpt lat="45.23334" lon="5.58355">
        <ele>1362.1</ele>
      </trkpt>
      <trkpt lat="45.23303" lon="5.58323">
        <ele>1359.2</ele>
      </trkpt>
      <trkpt lat="45.23246" lon="5.58277">
        <ele>1354.7</ele>
      </trkpt>
      <trkpt lat="45.23232" lon="5.58271">
        <ele>1352.1</ele>
      </trkpt>
      <trkpt lat="45.232" lon="5.58278">
        <ele>1348.9</ele>
      </trkpt>
      <trkpt lat="45.23054" lon="5.58364">
        <ele>1342</ele>
      </trkpt>
      <trkpt lat="45.23038" lon="5.58367">
        <ele>1341.8</ele>
      </trkpt>
      <trkpt lat="45.23014" lon="5.58362">
        <ele>1338.8</ele>
      </trkpt>
      <trkpt lat="45.22976" lon="5.58335">
        <ele>1330.7</ele>
      </trkpt>
      <trkpt lat="45.22961" lon="5.58313">
        <ele>1327.2</ele>
      </trkpt>
      <trkpt lat="45.22954" lon="5.5828">
        <ele>1322</ele>
      </trkpt>
      <trkpt lat="45.22962" lon="5.58263">
        <ele>1319</ele>
      </trkpt>
      <trkpt lat="45.22964" lon="5.58262">
        <ele>1318.9</ele>
      </trkpt>
      <trkpt lat="45.22972" lon="5.58239">
        <ele>1315</ele>
      </trkpt>
      <trkpt lat="45.22931" lon="5.58186">
        <ele>1304.9</ele>
      </trkpt>
      <trkpt lat="45.22885" lon="5.58142">
        <ele>1299.8</ele>
      </trkpt>
      <trkpt lat="45.22864" lon="5.58132">
        <ele>1298.5</ele>
      </trkpt>
      <trkpt lat="45.22804" lon="5.58115">
        <ele>1292.6</ele>
      </trkpt>
      <trkpt lat="45.22733" lon="5.58081">
        <ele>1280.8</ele>
      </trkpt>
      <trkpt lat="45.22706" lon="5.58063">
        <ele>1281</ele>
      </trkpt>
      <trkpt lat="45.22704" lon="5.58052">
        <ele>1282.5</ele>
      </trkpt>
      <trkpt lat="45.22698" lon="5.58043">
        <ele>1283.1</ele>
      </trkpt>
      <trkpt lat="45.22701" lon="5.58031">
        <ele>1285.4</ele>
      </trkpt>
      <trkpt lat="45.227" lon="5.58024">
        <ele>1286.3</ele>
      </trkpt>
      <trkpt lat="45.22681" lon="5.58004">
        <ele>1285.5</ele>
      </trkpt>
      <trkpt lat="45.227" lon="5.58023">
        <ele>1286.3</ele>
      </trkpt>
      <trkpt lat="45.22701" lon="5.58032">
        <ele>1285</ele>
      </trkpt>
      <trkpt lat="45.22695" lon="5.58041">
        <ele>1282.9</ele>
      </trkpt>
      <trkpt lat="45.22685" lon="5.58047">
        <ele>1280.5</ele>
      </trkpt>
      <trkpt lat="45.22633" lon="5.58058">
        <ele>1274.5</ele>
      </trkpt>
      <trkpt lat="45.22615" lon="5.58057">
        <ele>1273.4</ele>
      </trkpt>
      <trkpt lat="45.22607" lon="5.58065">
        <ele>1272.4</ele>
      </trkpt>
      <trkpt lat="45.22605" lon="5.58088">
        <ele>1272</ele>
      </trkpt>
      <trkpt lat="45.22594" lon="5.58116">
        <ele>1278.3</ele>
      </trkpt>
      <trkpt lat="45.22575" lon="5.58129">
        <ele>1280.4</ele>
      </trkpt>
      <trkpt lat="45.22558" lon="5.58133">
        <ele>1280.6</ele>
      </trkpt>
      <trkpt lat="45.22497" lon="5.58137">
        <ele>1278.3</ele>
      </trkpt>
      <trkpt lat="45.22463" lon="5.58131">
        <ele>1275.5</ele>
      </trkpt>
      <trkpt lat="45.22399" lon="5.58139">
        <ele>1276.8</ele>
      </trkpt>
      <trkpt lat="45.22317" lon="5.58139">
        <ele>1277.4</ele>
      </trkpt>
      <trkpt lat="45.22273" lon="5.5816">
        <ele>1279.8</ele>
      </trkpt>
      <trkpt lat="45.22248" lon="5.58161">
        <ele>1278.2</ele>
      </trkpt>
      <trkpt lat="45.22201" lon="5.58151">
        <ele>1271.5</ele>
      </trkpt>
      <trkpt lat="45.22166" lon="5.58167">
        <ele>1274.2</ele>
      </trkpt>
      <trkpt lat="45.2213" lon="5.58157">
        <ele>1271.4</ele>
      </trkpt>
      <trkpt lat="45.21979" lon="5.5817">
        <ele>1284.3</ele>
      </trkpt>
      <trkpt lat="45.21949" lon="5.58168">
        <ele>1282.3</ele>
      </trkpt>
      <trkpt lat="45.21918" lon="5.58176">
        <ele>1285.4</ele>
      </trkpt>
      <trkpt lat="45.21872" lon="5.58217">
        <ele>1302.1</ele>
      </trkpt>
      <trkpt lat="45.21857" lon="5.58227">
        <ele>1305.1</ele>
      </trkpt>
      <trkpt lat="45.21797" lon="5.58236">
        <ele>1306.6</ele>
      </trkpt>
      <trkpt lat="45.21713" lon="5.58243">
        <ele>1313.2</ele>
      </trkpt>
      <trkpt lat="45.21682" lon="5.58229">
        <ele>1311.9</ele>
      </trkpt>
      <trkpt lat="45.21617" lon="5.58218">
        <ele>1319.6</ele>
      </trkpt>
      <trkpt lat="45.21592" lon="5.58203">
        <ele>1318</ele>
      </trkpt>
      <trkpt lat="45.21576" lon="5.58185">
        <ele>1312.3</ele>
      </trkpt>
      <trkpt lat="45.21566" lon="5.58184">
        <ele>1312.7</ele>
      </trkpt>
      <trkpt lat="45.21566" lon="5.58196">
        <ele>1317.9</ele>
      </trkpt>
      <trkpt lat="45.216" lon="5.58226">
        <ele>1326.3</ele>
      </trkpt>
      <trkpt lat="45.21639" lon="5.5825">
        <ele>1328.2</ele>
      </trkpt>
      <trkpt lat="45.2167" lon="5.58284">
        <ele>1334.5</ele>
      </trkpt>
      <trkpt lat="45.2175" lon="5.58347">
        <ele>1336.7</ele>
      </trkpt>
      <trkpt lat="45.21755" lon="5.58363">
        <ele>1341.8</ele>
      </trkpt>
      <trkpt lat="45.21752" lon="5.58369">
        <ele>1343.8</ele>
      </trkpt>
      <trkpt lat="45.21745" lon="5.58368">
        <ele>1345</ele>
      </trkpt>
      <trkpt lat="45.21723" lon="5.58353">
        <ele>1346</ele>
      </trkpt>
      <trkpt lat="45.21592" lon="5.58297">
        <ele>1359.3</ele>
      </trkpt>
      <trkpt lat="45.21539" lon="5.58287">
        <ele>1362.4</ele>
      </trkpt>
      <trkpt lat="45.21499" lon="5.58292">
        <ele>1369.7</ele>
      </trkpt>
      <trkpt lat="45.21403" lon="5.58261">
        <ele>1369.8</ele>
      </trkpt>
      <trkpt lat="45.21371" lon="5.58256">
        <ele>1369.6</ele>
      </trkpt>
      <trkpt lat="45.21281" lon="5.5827">
        <ele>1387.9</ele>
      </trkpt>
      <trkpt lat="45.21254" lon="5.58251">
        <ele>1383.5</ele>
      </trkpt>
      <trkpt lat="45.21213" lon="5.58234">
        <ele>1379.7</ele>
      </trkpt>
      <trkpt lat="45.21092" lon="5.58208">
        <ele>1388.1</ele>
      </trkpt>
      <trkpt lat="45.2107" lon="5.58199">
        <ele>1389.6</ele>
      </trkpt>
      <trkpt lat="45.21023" lon="5.58174">
        <ele>1391.5</ele>
      </trkpt>
      <trkpt lat="45.20981" lon="5.58173">
        <ele>1400.7</ele>
      </trkpt>
      <trkpt lat="45.20901" lon="5.58152">
        <ele>1399.9</ele>
      </trkpt>
      <trkpt lat="45.20855" lon="5.58145">
        <ele>1394.8</ele>
      </trkpt>
      <trkpt lat="45.20826" lon="5.58156">
        <ele>1400.7</ele>
      </trkpt>
      <trkpt lat="45.20827" lon="5.58159">
        <ele>1402.4</ele>
      </trkpt>
      <trkpt lat="45.20802" lon="5.58181">
        <ele>1409.9</ele>
      </trkpt>
      <trkpt lat="45.20788" lon="5.58211">
        <ele>1418.9</ele>
      </trkpt>
      <trkpt lat="45.20779" lon="5.58223">
        <ele>1421.6</ele>
      </trkpt>
      <trkpt lat="45.20766" lon="5.5823">
        <ele>1422.1</ele>
      </trkpt>
      <trkpt lat="45.2075" lon="5.5823">
        <ele>1419.6</ele>
      </trkpt>
      <trkpt lat="45.20737" lon="5.58216">
        <ele>1415.2</ele>
      </trkpt>
      <trkpt lat="45.20724" lon="5.58186">
        <ele>1406.6</ele>
      </trkpt>
      <trkpt lat="45.20721" lon="5.58171">
        <ele>1402.4</ele>
      </trkpt>
      <trkpt lat="45.20725" lon="5.58139">
        <ele>1389.7</ele>
      </trkpt>
      <trkpt lat="45.2072" lon="5.58099">
        <ele>1374.7</ele>
      </trkpt>
      <trkpt lat="45.20713" lon="5.58072">
        <ele>1364.8</ele>
      </trkpt>
      <trkpt lat="45.20699" lon="5.5805">
        <ele>1356.7</ele>
      </trkpt>
      <trkpt lat="45.20672" lon="5.58019">
        <ele>1347.3</ele>
      </trkpt>
      <trkpt lat="45.20643" lon="5.57993">
        <ele>1330.9</ele>
      </trkpt>
      <trkpt lat="45.20609" lon="5.57969">
        <ele>1314.5</ele>
      </trkpt>
      <trkpt lat="45.20581" lon="5.57966">
        <ele>1309.1</ele>
      </trkpt>
      <trkpt lat="45.20559" lon="5.5798">
        <ele>1308.8</ele>
      </trkpt>
      <trkpt lat="45.20517" lon="5.58015">
        <ele>1307.9</ele>
      </trkpt>
      <trkpt lat="45.205" lon="5.5802">
        <ele>1304.1</ele>
      </trkpt>
      <trkpt lat="45.20493" lon="5.58015">
        <ele>1305.2</ele>
      </trkpt>
      <trkpt lat="45.20481" lon="5.57992">
        <ele>1303.7</ele>
      </trkpt>
      <trkpt lat="45.20482" lon="5.57942">
        <ele>1289.2</ele>
      </trkpt>
      <trkpt lat="45.20488" lon="5.57922">
        <ele>1282</ele>
      </trkpt>
      <trkpt lat="45.20489" lon="5.57904">
        <ele>1275.9</ele>
      </trkpt>
      <trkpt lat="45.20475" lon="5.57852">
        <ele>1261.7</ele>
      </trkpt>
      <trkpt lat="45.20462" lon="5.57833">
        <ele>1257.4</ele>
      </trkpt>
      <trkpt lat="45.20445" lon="5.57825">
        <ele>1258</ele>
      </trkpt>
      <trkpt lat="45.20402" lon="5.57756">
        <ele>1238.1</ele>
      </trkpt>
      <trkpt lat="45.20383" lon="5.57739">
        <ele>1235.2</ele>
      </trkpt>
      <trkpt lat="45.20364" lon="5.57714">
        <ele>1228.4</ele>
      </trkpt>
      <trkpt lat="45.20333" lon="5.57683">
        <ele>1219.1</ele>
      </trkpt>
      <trkpt lat="45.2032" lon="5.57659">
        <ele>1210.6</ele>
      </trkpt>
      <trkpt lat="45.20276" lon="5.57627">
        <ele>1201.7</ele>
      </trkpt>
      <trkpt lat="45.2015" lon="5.5758">
        <ele>1192.5</ele>
      </trkpt>
      <trkpt lat="45.20122" lon="5.57573">
        <ele>1191.6</ele>
      </trkpt>
      <trkpt lat="45.20108" lon="5.57557">
        <ele>1186.9</ele>
      </trkpt>
      <trkpt lat="45.20101" lon="5.57531">
        <ele>1178.5</ele>
      </trkpt>
      <trkpt lat="45.20103" lon="5.57412">
        <ele>1146.4</ele>
      </trkpt>
      <trkpt lat="45.2011" lon="5.57281">
        <ele>1128.4</ele>
      </trkpt>
      <trkpt lat="45.20114" lon="5.57281">
        <ele>1128.6</ele>
      </trkpt>
      <trkpt lat="45.20113" lon="5.57278">
        <ele>1128.3</ele>
      </trkpt>
      <trkpt lat="45.20077" lon="5.57294">
        <ele>1127.9</ele>
      </trkpt>
      <trkpt lat="45.20055" lon="5.57296">
        <ele>1127.3</ele>
      </trkpt>
      <trkpt lat="45.19925" lon="5.57262">
        <ele>1122.9</ele>
      </trkpt>
      <trkpt lat="45.19901" lon="5.57248">
        <ele>1122.3</ele>
      </trkpt>
      <trkpt lat="45.19896" lon="5.57234">
        <ele>1121.8</ele>
      </trkpt>
      <trkpt lat="45.1989" lon="5.57197">
        <ele>1120.3</ele>
      </trkpt>
      <trkpt lat="45.19885" lon="5.57189">
        <ele>1120.1</ele>
      </trkpt>
      <trkpt lat="45.19867" lon="5.57174">
        <ele>1120.1</ele>
      </trkpt>
      <trkpt lat="45.19804" lon="5.57146">
        <ele>1118.7</ele>
      </trkpt>
      <trkpt lat="45.19788" lon="5.57144">
        <ele>1118</ele>
      </trkpt>
      <trkpt lat="45.19735" lon="5.57149">
        <ele>1117.5</ele>
      </trkpt>
      <trkpt lat="45.19584" lon="5.57109">
        <ele>1112.2</ele>
      </trkpt>
      <trkpt lat="45.19481" lon="5.57092">
        <ele>1116.8</ele>
      </trkpt>
      <trkpt lat="45.19467" lon="5.57087">
        <ele>1117.3</ele>
      </trkpt>
      <trkpt lat="45.19394" lon="5.57023">
        <ele>1114</ele>
      </trkpt>
      <trkpt lat="45.19328" lon="5.56983">
        <ele>1112.2</ele>
      </trkpt>
      <trkpt lat="45.1931" lon="5.56994">
        <ele>1112.1</ele>
      </trkpt>
      <trkpt lat="45.19287" lon="5.56994">
        <ele>1111.5</ele>
      </trkpt>
      <trkpt lat="45.19273" lon="5.56987">
        <ele>1110.7</ele>
      </trkpt>
      <trkpt lat="45.19195" lon="5.56918">
        <ele>1107.3</ele>
      </trkpt>
      <trkpt lat="45.19171" lon="5.56879">
        <ele>1101.2</ele>
      </trkpt>
      <trkpt lat="45.19127" lon="5.56822">
        <ele>1094.1</ele>
      </trkpt>
      <trkpt lat="45.19063" lon="5.56698">
        <ele>1089.4</ele>
      </trkpt>
      <trkpt lat="45.19019" lon="5.56647">
        <ele>1089.7</ele>
      </trkpt>
      <trkpt lat="45.19005" lon="5.56636">
        <ele>1090</ele>
      </trkpt>
      <trkpt lat="45.18906" lon="5.56588">
        <ele>1088.1</ele>
      </trkpt>
      <trkpt lat="45.18821" lon="5.56552">
        <ele>1086.4</ele>
      </trkpt>
      <trkpt lat="45.18694" lon="5.5647">
        <ele>1088.5</ele>
      </trkpt>
      <trkpt lat="45.18647" lon="5.56457">
        <ele>1089.6</ele>
      </trkpt>
      <trkpt lat="45.18595" lon="5.56431">
        <ele>1090.2</ele>
      </trkpt>
      <trkpt lat="45.18563" lon="5.56422">
        <ele>1088.3</ele>
      </trkpt>
      <trkpt lat="45.18517" lon="5.56424">
        <ele>1084.1</ele>
      </trkpt>
      <trkpt lat="45.18492" lon="5.56416">
        <ele>1081.9</ele>
      </trkpt>
      <trkpt lat="45.1848" lon="5.56406">
        <ele>1080.7</ele>
      </trkpt>
      <trkpt lat="45.18455" lon="5.56369">
        <ele>1078.5</ele>
      </trkpt>
      <trkpt lat="45.18423" lon="5.56333">
        <ele>1080.1</ele>
      </trkpt>
      <trkpt lat="45.18341" lon="5.56253">
        <ele>1078.2</ele>
      </trkpt>
      <trkpt lat="45.18247" lon="5.56208">
        <ele>1074.3</ele>
      </trkpt>
      <trkpt lat="45.18214" lon="5.56202">
        <ele>1077</ele>
      </trkpt>
      <trkpt lat="45.18155" lon="5.56203">
        <ele>1081.4</ele>
      </trkpt>
      <trkpt lat="45.1801" lon="5.56187">
        <ele>1085.6</ele>
      </trkpt>
      <trkpt lat="45.17985" lon="5.56177">
        <ele>1085.1</ele>
      </trkpt>
      <trkpt lat="45.1797" lon="5.56166">
        <ele>1084</ele>
      </trkpt>
      <trkpt lat="45.17915" lon="5.56107">
        <ele>1081.8</ele>
      </trkpt>
      <trkpt lat="45.17835" lon="5.56044">
        <ele>1080.6</ele>
      </trkpt>
      <trkpt lat="45.17706" lon="5.55965">
        <ele>1084.1</ele>
      </trkpt>
      <trkpt lat="45.17678" lon="5.55953">
        <ele>1085.8</ele>
      </trkpt>
      <trkpt lat="45.17611" lon="5.55948">
        <ele>1089.7</ele>
      </trkpt>
      <trkpt lat="45.17499" lon="5.55894">
        <ele>1096.4</ele>
      </trkpt>
      <trkpt lat="45.17482" lon="5.55897">
        <ele>1097.2</ele>
      </trkpt>
      <trkpt lat="45.17459" lon="5.55922">
        <ele>1099.5</ele>
      </trkpt>
      <trkpt lat="45.17453" lon="5.55921">
        <ele>1099.7</ele>
      </trkpt>
      <trkpt lat="45.1745" lon="5.55927">
        <ele>1099.8</ele>
      </trkpt>
      <trkpt lat="45.17351" lon="5.55835">
        <ele>1093.5</ele>
      </trkpt>
      <trkpt lat="45.17346" lon="5.55823">
        <ele>1093</ele>
      </trkpt>
      <trkpt lat="45.17343" lon="5.558">
        <ele>1092.2</ele>
      </trkpt>
      <trkpt lat="45.17345" lon="5.55785">
        <ele>1091.7</ele>
      </trkpt>
      <trkpt lat="45.1735" lon="5.55763">
        <ele>1090.9</ele>
      </trkpt>
      <trkpt lat="45.17378" lon="5.55716">
        <ele>1087.4</ele>
      </trkpt>
      <trkpt lat="45.17382" lon="5.55694">
        <ele>1085.8</ele>
      </trkpt>
      <trkpt lat="45.17383" lon="5.55657">
        <ele>1083.4</ele>
      </trkpt>
      <trkpt lat="45.17389" lon="5.55638">
        <ele>1081.8</ele>
      </trkpt>
      <trkpt lat="45.17399" lon="5.55622">
        <ele>1080.1</ele>
      </trkpt>
      <trkpt lat="45.17434" lon="5.55578">
        <ele>1075</ele>
      </trkpt>
      <trkpt lat="45.17491" lon="5.55491">
        <ele>1067.2</ele>
      </trkpt>
      <trkpt lat="45.17504" lon="5.55454">
        <ele>1065.6</ele>
      </trkpt>
      <trkpt lat="45.17511" lon="5.55416">
        <ele>1064.2</ele>
      </trkpt>
      <trkpt lat="45.17512" lon="5.55379">
        <ele>1066.8</ele>
      </trkpt>
      <trkpt lat="45.17504" lon="5.55317">
        <ele>1070.8</ele>
      </trkpt>
      <trkpt lat="45.17513" lon="5.55192">
        <ele>1065.7</ele>
      </trkpt>
      <trkpt lat="45.17532" lon="5.55135">
        <ele>1062</ele>
      </trkpt>
      <trkpt lat="45.17571" lon="5.55042">
        <ele>1057</ele>
      </trkpt>
      <trkpt lat="45.1757" lon="5.55018">
        <ele>1055.4</ele>
      </trkpt>
      <trkpt lat="45.17561" lon="5.54992">
        <ele>1054.4</ele>
      </trkpt>
      <trkpt lat="45.17514" lon="5.54907">
        <ele>1054.4</ele>
      </trkpt>
      <trkpt lat="45.17509" lon="5.54886">
        <ele>1054</ele>
      </trkpt>
      <trkpt lat="45.17509" lon="5.54865">
        <ele>1053.5</ele>
      </trkpt>
      <trkpt lat="45.17523" lon="5.54698">
        <ele>1049.2</ele>
      </trkpt>
      <trkpt lat="45.17529" lon="5.54672">
        <ele>1048.7</ele>
      </trkpt>
      <trkpt lat="45.1755" lon="5.5462">
        <ele>1047.6</ele>
      </trkpt>
      <trkpt lat="45.17576" lon="5.54568">
        <ele>1046.4</ele>
      </trkpt>
      <trkpt lat="45.17607" lon="5.54498">
        <ele>1044</ele>
      </trkpt>
      <trkpt lat="45.17665" lon="5.54384">
        <ele>1046.8</ele>
      </trkpt>
      <trkpt lat="45.17691" lon="5.54315">
        <ele>1047.6</ele>
      </trkpt>
      <trkpt lat="45.17708" lon="5.54278">
        <ele>1047.2</ele>
      </trkpt>
      <trkpt lat="45.17724" lon="5.54253">
        <ele>1047</ele>
      </trkpt>
      <trkpt lat="45.17719" lon="5.54242">
        <ele>1046.9</ele>
      </trkpt>
      <trkpt lat="45.17621" lon="5.54214">
        <ele>1045.1</ele>
      </trkpt>
      <trkpt lat="45.17563" lon="5.5421">
        <ele>1044.5</ele>
      </trkpt>
      <trkpt lat="45.17534" lon="5.54198">
        <ele>1044.4</ele>
      </trkpt>
      <trkpt lat="45.175" lon="5.54193">
        <ele>1044.7</ele>
      </trkpt>
      <trkpt lat="45.17472" lon="5.54143">
        <ele>1043.2</ele>
      </trkpt>
      <trkpt lat="45.17427" lon="5.54102">
        <ele>1040.7</ele>
      </trkpt>
      <trkpt lat="45.17381" lon="5.54052">
        <ele>1037</ele>
      </trkpt>
      <trkpt lat="45.17373" lon="5.54035">
        <ele>1036.3</ele>
      </trkpt>
      <trkpt lat="45.17367" lon="5.54026">
        <ele>1036</ele>
      </trkpt>
      <trkpt lat="45.17373" lon="5.5402">
        <ele>1036.2</ele>
      </trkpt>
      <trkpt lat="45.17382" lon="5.54001">
        <ele>1036.2</ele>
      </trkpt>
      <trkpt lat="45.17411" lon="5.5388">
        <ele>1033.4</ele>
      </trkpt>
      <trkpt lat="45.17416" lon="5.5387">
        <ele>1032.7</ele>
      </trkpt>
      <trkpt lat="45.17424" lon="5.53865">
        <ele>1032.7</ele>
      </trkpt>
      <trkpt lat="45.17447" lon="5.53872">
        <ele>1033.4</ele>
      </trkpt>
      <trkpt lat="45.17543" lon="5.53941">
        <ele>1036.4</ele>
      </trkpt>
      <trkpt lat="45.17583" lon="5.53964">
        <ele>1038.3</ele>
      </trkpt>
      <trkpt lat="45.17608" lon="5.53963">
        <ele>1038.5</ele>
      </trkpt>
    </trkseg>
  </trk>
  <trk>
    <name><![CDATA[Vertaco Bike 2016 - 50 km - 12638 - UtagawaVTT.com]]></name>
    <trkseg>
      <trkpt lat="45.12685" lon="5.52021">
        <ele>1010.9</ele>
      </trkpt>
      <trkpt lat="45.12691" lon="5.5201">
        <ele>1010.4</ele>
      </trkpt>
      <trkpt lat="45.12696" lon="5.52047">
        <ele>1011</ele>
      </trkpt>
      <trkpt lat="45.12692" lon="5.52038">
        <ele>1011</ele>
      </trkpt>
      <trkpt lat="45.12695" lon="5.52023">
        <ele>1010.6</ele>
      </trkpt>
      <trkpt lat="45.12718" lon="5.52029">
        <ele>1009.6</ele>
      </trkpt>
      <trkpt lat="45.12757" lon="5.52049">
        <ele>1007.6</ele>
      </trkpt>
      <trkpt lat="45.12812" lon="5.52097">
        <ele>1002.8</ele>
      </trkpt>
      <trkpt lat="45.12824" lon="5.52097">
        <ele>1001.8</ele>
      </trkpt>
      <trkpt lat="45.12881" lon="5.52042">
        <ele>1002</ele>
      </trkpt>
      <trkpt lat="45.12933" lon="5.52024">
        <ele>1001.6</ele>
      </trkpt>
      <trkpt lat="45.12994" lon="5.51972">
        <ele>1004.4</ele>
      </trkpt>
      <trkpt lat="45.13107" lon="5.5195">
        <ele>1004.4</ele>
      </trkpt>
      <trkpt lat="45.13117" lon="5.51957">
        <ele>1003.7</ele>
      </trkpt>
      <trkpt lat="45.1313" lon="5.52005">
        <ele>1001.3</ele>
      </trkpt>
      <trkpt lat="45.13128" lon="5.52071">
        <ele>997.2</ele>
      </trkpt>
      <trkpt lat="45.1316" lon="5.52153">
        <ele>990</ele>
      </trkpt>
      <trkpt lat="45.13171" lon="5.52278">
        <ele>983.9</ele>
      </trkpt>
      <trkpt lat="45.13186" lon="5.52327">
        <ele>982.8</ele>
      </trkpt>
      <trkpt lat="45.13192" lon="5.52372">
        <ele>980.2</ele>
      </trkpt>
      <trkpt lat="45.13191" lon="5.52606">
        <ele>979.5</ele>
      </trkpt>
      <trkpt lat="45.13197" lon="5.5261">
        <ele>979.4</ele>
      </trkpt>
      <trkpt lat="45.13269" lon="5.52557">
        <ele>979.2</ele>
      </trkpt>
      <trkpt lat="45.1336" lon="5.52454">
        <ele>977</ele>
      </trkpt>
      <trkpt lat="45.13451" lon="5.52385">
        <ele>978.6</ele>
      </trkpt>
      <trkpt lat="45.13492" lon="5.52375">
        <ele>980.6</ele>
      </trkpt>
      <trkpt lat="45.13566" lon="5.52335">
        <ele>977.9</ele>
      </trkpt>
      <trkpt lat="45.13638" lon="5.52314">
        <ele>979.9</ele>
      </trkpt>
      <trkpt lat="45.137" lon="5.52312">
        <ele>980.5</ele>
      </trkpt>
      <trkpt lat="45.1373" lon="5.52283">
        <ele>979.3</ele>
      </trkpt>
      <trkpt lat="45.13761" lon="5.52273">
        <ele>978.3</ele>
      </trkpt>
      <trkpt lat="45.13936" lon="5.52252">
        <ele>982.6</ele>
      </trkpt>
      <trkpt lat="45.14011" lon="5.52221">
        <ele>986.7</ele>
      </trkpt>
      <trkpt lat="45.14057" lon="5.52189">
        <ele>989</ele>
      </trkpt>
      <trkpt lat="45.14136" lon="5.52117">
        <ele>986.5</ele>
      </trkpt>
      <trkpt lat="45.14174" lon="5.52105">
        <ele>987.4</ele>
      </trkpt>
      <trkpt lat="45.14218" lon="5.52103">
        <ele>991.2</ele>
      </trkpt>
      <trkpt lat="45.14278" lon="5.5212">
        <ele>991.4</ele>
      </trkpt>
      <trkpt lat="45.14303" lon="5.52121">
        <ele>989.7</ele>
      </trkpt>
      <trkpt lat="45.14308" lon="5.5213">
        <ele>988.9</ele>
      </trkpt>
      <trkpt lat="45.14303" lon="5.52322">
        <ele>982.6</ele>
      </trkpt>
      <trkpt lat="45.14307" lon="5.5233">
        <ele>982.8</ele>
      </trkpt>
      <trkpt lat="45.14344" lon="5.52337">
        <ele>984</ele>
      </trkpt>
      <trkpt lat="45.14349" lon="5.52344">
        <ele>984.2</ele>
      </trkpt>
      <trkpt lat="45.14352" lon="5.52391">
        <ele>986</ele>
      </trkpt>
      <trkpt lat="45.14385" lon="5.52402">
        <ele>986.4</ele>
      </trkpt>
      <trkpt lat="45.14394" lon="5.52418">
        <ele>987</ele>
      </trkpt>
      <trkpt lat="45.14392" lon="5.52499">
        <ele>989.1</ele>
      </trkpt>
      <trkpt lat="45.14375" lon="5.52618">
        <ele>996.4</ele>
      </trkpt>
      <trkpt lat="45.14373" lon="5.52674">
        <ele>1000.5</ele>
      </trkpt>
      <trkpt lat="45.14383" lon="5.5286">
        <ele>1025.6</ele>
      </trkpt>
      <trkpt lat="45.14417" lon="5.5294">
        <ele>1035.7</ele>
      </trkpt>
      <trkpt lat="45.14412" lon="5.52969">
        <ele>1035.3</ele>
      </trkpt>
      <trkpt lat="45.14494" lon="5.53019">
        <ele>1052.3</ele>
      </trkpt>
      <trkpt lat="45.14522" lon="5.53025">
        <ele>1059.1</ele>
      </trkpt>
      <trkpt lat="45.14546" lon="5.53018">
        <ele>1065</ele>
      </trkpt>
      <trkpt lat="45.14569" lon="5.53024">
        <ele>1071.2</ele>
      </trkpt>
      <trkpt lat="45.14589" lon="5.53055">
        <ele>1079.2</ele>
      </trkpt>
      <trkpt lat="45.14594" lon="5.5305">
        <ele>1079</ele>
      </trkpt>
      <trkpt lat="45.14653" lon="5.53073">
        <ele>1089.6</ele>
      </trkpt>
      <trkpt lat="45.14805" lon="5.53184">
        <ele>1100</ele>
      </trkpt>
      <trkpt lat="45.14865" lon="5.53199">
        <ele>1104.2</ele>
      </trkpt>
      <trkpt lat="45.14921" lon="5.5318">
        <ele>1107.3</ele>
      </trkpt>
      <trkpt lat="45.14952" lon="5.53183">
        <ele>1110.6</ele>
      </trkpt>
      <trkpt lat="45.14969" lon="5.53175">
        <ele>1112.4</ele>
      </trkpt>
      <trkpt lat="45.14992" lon="5.5318">
        <ele>1114.9</ele>
      </trkpt>
      <trkpt lat="45.15014" lon="5.53168">
        <ele>1117.2</ele>
      </trkpt>
      <trkpt lat="45.15093" lon="5.53178">
        <ele>1122.5</ele>
      </trkpt>
      <trkpt lat="45.15162" lon="5.5322">
        <ele>1125</ele>
      </trkpt>
      <trkpt lat="45.15194" lon="5.53228">
        <ele>1125.6</ele>
      </trkpt>
      <trkpt lat="45.15225" lon="5.53246">
        <ele>1127.7</ele>
      </trkpt>
      <trkpt lat="45.15247" lon="5.5326">
        <ele>1127.8</ele>
      </trkpt>
      <trkpt lat="45.1525" lon="5.5327">
        <ele>1126.9</ele>
      </trkpt>
      <trkpt lat="45.15331" lon="5.53329">
        <ele>1130.1</ele>
      </trkpt>
      <trkpt lat="45.15341" lon="5.53348">
        <ele>1130.1</ele>
      </trkpt>
      <trkpt lat="45.15364" lon="5.53366">
        <ele>1129.8</ele>
      </trkpt>
      <trkpt lat="45.15366" lon="5.53376">
        <ele>1129.9</ele>
      </trkpt>
      <trkpt lat="45.15381" lon="5.53386">
        <ele>1130.8</ele>
      </trkpt>
      <trkpt lat="45.15388" lon="5.5343">
        <ele>1134.2</ele>
      </trkpt>
      <trkpt lat="45.15381" lon="5.53489">
        <ele>1139.7</ele>
      </trkpt>
      <trkpt lat="45.15356" lon="5.53514">
        <ele>1136.8</ele>
      </trkpt>
      <trkpt lat="45.15333" lon="5.53552">
        <ele>1135.6</ele>
      </trkpt>
      <trkpt lat="45.15327" lon="5.53572">
        <ele>1135.9</ele>
      </trkpt>
      <trkpt lat="45.15301" lon="5.53615">
        <ele>1129.3</ele>
      </trkpt>
      <trkpt lat="45.15245" lon="5.5366">
        <ele>1114.1</ele>
      </trkpt>
      <trkpt lat="45.15202" lon="5.53706">
        <ele>1101.3</ele>
      </trkpt>
      <trkpt lat="45.15183" lon="5.53715">
        <ele>1096.2</ele>
      </trkpt>
      <trkpt lat="45.15143" lon="5.53759">
        <ele>1085.4</ele>
      </trkpt>
      <trkpt lat="45.15128" lon="5.53844">
        <ele>1069.4</ele>
      </trkpt>
      <trkpt lat="45.15118" lon="5.5385">
        <ele>1065.8</ele>
      </trkpt>
      <trkpt lat="45.15105" lon="5.53882">
        <ele>1057.8</ele>
      </trkpt>
      <trkpt lat="45.15045" lon="5.53885">
        <ele>1045.7</ele>
      </trkpt>
      <trkpt lat="45.14971" lon="5.53918">
        <ele>1036.2</ele>
      </trkpt>
      <trkpt lat="45.14956" lon="5.53929">
        <ele>1034.6</ele>
      </trkpt>
      <trkpt lat="45.14944" lon="5.53949">
        <ele>1032.5</ele>
      </trkpt>
      <trkpt lat="45.14931" lon="5.53952">
        <ele>1031.2</ele>
      </trkpt>
      <trkpt lat="45.14913" lon="5.53942">
        <ele>1031</ele>
      </trkpt>
      <trkpt lat="45.14905" lon="5.53926">
        <ele>1032.8</ele>
      </trkpt>
      <trkpt lat="45.14882" lon="5.53958">
        <ele>1030.4</ele>
      </trkpt>
      <trkpt lat="45.14847" lon="5.53967">
        <ele>1029.9</ele>
      </trkpt>
      <trkpt lat="45.14825" lon="5.53987">
        <ele>1028</ele>
      </trkpt>
      <trkpt lat="45.14807" lon="5.53984">
        <ele>1030.3</ele>
      </trkpt>
      <trkpt lat="45.14694" lon="5.54055">
        <ele>1026.7</ele>
      </trkpt>
      <trkpt lat="45.14653" lon="5.54068">
        <ele>1021.4</ele>
      </trkpt>
      <trkpt lat="45.14587" lon="5.54117">
        <ele>1013.6</ele>
      </trkpt>
      <trkpt lat="45.14446" lon="5.54148">
        <ele>1007.7</ele>
      </trkpt>
      <trkpt lat="45.1439" lon="5.54184">
        <ele>1004.1</ele>
      </trkpt>
      <trkpt lat="45.14357" lon="5.54219">
        <ele>1000.9</ele>
      </trkpt>
      <trkpt lat="45.14336" lon="5.54217">
        <ele>999.4</ele>
      </trkpt>
      <trkpt lat="45.14298" lon="5.5424">
        <ele>1004.1</ele>
      </trkpt>
      <trkpt lat="45.14287" lon="5.54263">
        <ele>1005.8</ele>
      </trkpt>
      <trkpt lat="45.14275" lon="5.54268">
        <ele>1007.8</ele>
      </trkpt>
      <trkpt lat="45.14261" lon="5.54288">
        <ele>1010.3</ele>
      </trkpt>
      <trkpt lat="45.14228" lon="5.54311">
        <ele>1017.7</ele>
      </trkpt>
      <trkpt lat="45.14229" lon="5.54377">
        <ele>1014.7</ele>
      </trkpt>
      <trkpt lat="45.14082" lon="5.54415">
        <ele>1024.3</ele>
      </trkpt>
      <trkpt lat="45.14062" lon="5.5448">
        <ele>1024.2</ele>
      </trkpt>
      <trkpt lat="45.14031" lon="5.54532">
        <ele>1025.5</ele>
      </trkpt>
      <trkpt lat="45.13944" lon="5.54496">
        <ele>1028.8</ele>
      </trkpt>
      <trkpt lat="45.13813" lon="5.54489">
        <ele>1020.9</ele>
      </trkpt>
      <trkpt lat="45.13785" lon="5.54483">
        <ele>1018.5</ele>
      </trkpt>
      <trkpt lat="45.13742" lon="5.54458">
        <ele>1017.6</ele>
      </trkpt>
      <trkpt lat="45.13697" lon="5.54447">
        <ele>1018.5</ele>
      </trkpt>
      <trkpt lat="45.13574" lon="5.54341">
        <ele>1012.2</ele>
      </trkpt>
      <trkpt lat="45.13532" lon="5.5439">
        <ele>1007.8</ele>
      </trkpt>
      <trkpt lat="45.13469" lon="5.54435">
        <ele>1005.1</ele>
      </trkpt>
      <trkpt lat="45.13442" lon="5.54475">
        <ele>1005.9</ele>
      </trkpt>
      <trkpt lat="45.13432" lon="5.54473">
        <ele>1005.5</ele>
      </trkpt>
      <trkpt lat="45.13288" lon="5.54332">
        <ele>1004.2</ele>
      </trkpt>
      <trkpt lat="45.13228" lon="5.54283">
        <ele>1006.1</ele>
      </trkpt>
      <trkpt lat="45.13196" lon="5.54273">
        <ele>1004.6</ele>
      </trkpt>
      <trkpt lat="45.13038" lon="5.54278">
        <ele>991.3</ele>
      </trkpt>
      <trkpt lat="45.13026" lon="5.54299">
        <ele>991.9</ele>
      </trkpt>
      <trkpt lat="45.13018" lon="5.54389">
        <ele>1001.2</ele>
      </trkpt>
      <trkpt lat="45.13002" lon="5.54415">
        <ele>1004.8</ele>
      </trkpt>
      <trkpt lat="45.12943" lon="5.54424">
        <ele>1008</ele>
      </trkpt>
      <trkpt lat="45.12909" lon="5.54446">
        <ele>1015</ele>
      </trkpt>
      <trkpt lat="45.12859" lon="5.54395">
        <ele>1007.3</ele>
      </trkpt>
      <trkpt lat="45.12797" lon="5.54361">
        <ele>1003.2</ele>
      </trkpt>
      <trkpt lat="45.12738" lon="5.54304">
        <ele>992.8</ele>
      </trkpt>
      <trkpt lat="45.12707" lon="5.54285">
        <ele>991.2</ele>
      </trkpt>
      <trkpt lat="45.12652" lon="5.54269">
        <ele>989.9</ele>
      </trkpt>
      <trkpt lat="45.12601" lon="5.54243">
        <ele>983.1</ele>
      </trkpt>
      <trkpt lat="45.12561" lon="5.54237">
        <ele>982.9</ele>
      </trkpt>
      <trkpt lat="45.12531" lon="5.54196">
        <ele>982.2</ele>
      </trkpt>
      <trkpt lat="45.12524" lon="5.54116">
        <ele>980.1</ele>
      </trkpt>
      <trkpt lat="45.12533" lon="5.53995">
        <ele>980.2</ele>
      </trkpt>
      <trkpt lat="45.12532" lon="5.53895">
        <ele>984.6</ele>
      </trkpt>
      <trkpt lat="45.12524" lon="5.53857">
        <ele>988</ele>
      </trkpt>
      <trkpt lat="45.12528" lon="5.53731">
        <ele>982.9</ele>
      </trkpt>
      <trkpt lat="45.12533" lon="5.53688">
        <ele>981.5</ele>
      </trkpt>
      <trkpt lat="45.12544" lon="5.53652">
        <ele>981</ele>
      </trkpt>
      <trkpt lat="45.12567" lon="5.53465">
        <ele>972.6</ele>
      </trkpt>
      <trkpt lat="45.12582" lon="5.53418">
        <ele>971</ele>
      </trkpt>
      <trkpt lat="45.12628" lon="5.53335">
        <ele>968</ele>
      </trkpt>
      <trkpt lat="45.12649" lon="5.5325">
        <ele>967.4</ele>
      </trkpt>
      <trkpt lat="45.12649" lon="5.53218">
        <ele>967.5</ele>
      </trkpt>
      <trkpt lat="45.12678" lon="5.53189">
        <ele>967.7</ele>
      </trkpt>
      <trkpt lat="45.12682" lon="5.53148">
        <ele>968.9</ele>
      </trkpt>
      <trkpt lat="45.12675" lon="5.5307">
        <ele>974</ele>
      </trkpt>
      <trkpt lat="45.12683" lon="5.53021">
        <ele>975.5</ele>
      </trkpt>
      <trkpt lat="45.12706" lon="5.5296">
        <ele>978.2</ele>
      </trkpt>
      <trkpt lat="45.12702" lon="5.52825">
        <ele>988.9</ele>
      </trkpt>
      <trkpt lat="45.12716" lon="5.52749">
        <ele>991.3</ele>
      </trkpt>
      <trkpt lat="45.12712" lon="5.52727">
        <ele>992.1</ele>
      </trkpt>
      <trkpt lat="45.12729" lon="5.52716">
        <ele>991.7</ele>
      </trkpt>
      <trkpt lat="45.12736" lon="5.5267">
        <ele>992.6</ele>
      </trkpt>
      <trkpt lat="45.12743" lon="5.52646">
        <ele>992.6</ele>
      </trkpt>
      <trkpt lat="45.12762" lon="5.52493">
        <ele>995.1</ele>
      </trkpt>
      <trkpt lat="45.12814" lon="5.52155">
        <ele>1002.7</ele>
      </trkpt>
      <trkpt lat="45.12811" lon="5.52127">
        <ele>1003.1</ele>
      </trkpt>
      <trkpt lat="45.12787" lon="5.5208">
        <ele>1005</ele>
      </trkpt>
      <trkpt lat="45.12767" lon="5.52058">
        <ele>1006.9</ele>
      </trkpt>
      <trkpt lat="45.12718" lon="5.52028">
        <ele>1009.6</ele>
      </trkpt>
      <trkpt lat="45.12697" lon="5.52025">
        <ele>1010.5</ele>
      </trkpt>
      <trkpt lat="45.1274" lon="5.50615">
        <ele>1281.2</ele>
      </trkpt>
      <trkpt lat="45.12768" lon="5.50633">
        <ele>1278.2</ele>
      </trkpt>
      <trkpt lat="45.12792" lon="5.5061">
        <ele>1280.5</ele>
      </trkpt>
      <trkpt lat="45.12811" lon="5.506">
        <ele>1281.8</ele>
      </trkpt>
      <trkpt lat="45.12818" lon="5.50609">
        <ele>1280</ele>
      </trkpt>
      <trkpt lat="45.12825" lon="5.50601">
        <ele>1281.6</ele>
      </trkpt>
      <trkpt lat="45.12848" lon="5.50614">
        <ele>1279.5</ele>
      </trkpt>
      <trkpt lat="45.12851" lon="5.50622">
        <ele>1278</ele>
      </trkpt>
      <trkpt lat="45.12896" lon="5.50608">
        <ele>1283.7</ele>
      </trkpt>
      <trkpt lat="45.12913" lon="5.50569">
        <ele>1293.2</ele>
      </trkpt>
      <trkpt lat="45.12949" lon="5.50553">
        <ele>1294.7</ele>
      </trkpt>
      <trkpt lat="45.12971" lon="5.50527">
        <ele>1298.3</ele>
      </trkpt>
      <trkpt lat="45.12998" lon="5.50464">
        <ele>1309</ele>
      </trkpt>
      <trkpt lat="45.13012" lon="5.50462">
        <ele>1309.5</ele>
      </trkpt>
      <trkpt lat="45.13018" lon="5.5044">
        <ele>1313.7</ele>
      </trkpt>
      <trkpt lat="45.13032" lon="5.5043">
        <ele>1315.6</ele>
      </trkpt>
      <trkpt lat="45.13066" lon="5.50457">
        <ele>1311.4</ele>
      </trkpt>
      <trkpt lat="45.13069" lon="5.50476">
        <ele>1308.3</ele>
      </trkpt>
      <trkpt lat="45.13081" lon="5.5049">
        <ele>1306.6</ele>
      </trkpt>
      <trkpt lat="45.13122" lon="5.50486">
        <ele>1310.6</ele>
      </trkpt>
      <trkpt lat="45.1317" lon="5.50498">
        <ele>1312.4</ele>
      </trkpt>
      <trkpt lat="45.13226" lon="5.50472">
        <ele>1315.9</ele>
      </trkpt>
      <trkpt lat="45.13236" lon="5.50478">
        <ele>1314.5</ele>
      </trkpt>
      <trkpt lat="45.13243" lon="5.50499">
        <ele>1310.4</ele>
      </trkpt>
      <trkpt lat="45.13256" lon="5.50499">
        <ele>1308.6</ele>
      </trkpt>
      <trkpt lat="45.13259" lon="5.50481">
        <ele>1311.2</ele>
      </trkpt>
      <trkpt lat="45.13301" lon="5.50449">
        <ele>1307.1</ele>
      </trkpt>
      <trkpt lat="45.13302" lon="5.50507">
        <ele>1294.2</ele>
      </trkpt>
      <trkpt lat="45.13321" lon="5.50478">
        <ele>1295.5</ele>
      </trkpt>
      <trkpt lat="45.13329" lon="5.50483">
        <ele>1292.1</ele>
      </trkpt>
      <trkpt lat="45.13331" lon="5.50502">
        <ele>1287.3</ele>
      </trkpt>
      <trkpt lat="45.13317" lon="5.5054">
        <ele>1283.8</ele>
      </trkpt>
      <trkpt lat="45.13341" lon="5.50523">
        <ele>1283.1</ele>
      </trkpt>
      <trkpt lat="45.13373" lon="5.50536">
        <ele>1281.6</ele>
      </trkpt>
      <trkpt lat="45.13388" lon="5.50559">
        <ele>1278.2</ele>
      </trkpt>
      <trkpt lat="45.13398" lon="5.50582">
        <ele>1274.6</ele>
      </trkpt>
      <trkpt lat="45.13398" lon="5.50612">
        <ele>1268</ele>
      </trkpt>
      <trkpt lat="45.13405" lon="5.50623">
        <ele>1265.9</ele>
      </trkpt>
      <trkpt lat="45.13401" lon="5.50636">
        <ele>1263.2</ele>
      </trkpt>
      <trkpt lat="45.13421" lon="5.50671">
        <ele>1256.4</ele>
      </trkpt>
      <trkpt lat="45.13416" lon="5.5069">
        <ele>1253.1</ele>
      </trkpt>
      <trkpt lat="45.13403" lon="5.50715">
        <ele>1248.2</ele>
      </trkpt>
      <trkpt lat="45.13405" lon="5.50727">
        <ele>1246.2</ele>
      </trkpt>
      <trkpt lat="45.1339" lon="5.50735">
        <ele>1243.9</ele>
      </trkpt>
      <trkpt lat="45.13391" lon="5.50754">
        <ele>1240.8</ele>
      </trkpt>
      <trkpt lat="45.13398" lon="5.50769">
        <ele>1239</ele>
      </trkpt>
      <trkpt lat="45.13428" lon="5.50766">
        <ele>1240.5</ele>
      </trkpt>
      <trkpt lat="45.13466" lon="5.50814">
        <ele>1233</ele>
      </trkpt>
      <trkpt lat="45.13464" lon="5.50822">
        <ele>1232</ele>
      </trkpt>
      <trkpt lat="45.13469" lon="5.50843">
        <ele>1228.6</ele>
      </trkpt>
      <trkpt lat="45.13453" lon="5.50886">
        <ele>1221.4</ele>
      </trkpt>
      <trkpt lat="45.13395" lon="5.50919">
        <ele>1215.4</ele>
      </trkpt>
      <trkpt lat="45.13374" lon="5.5091">
        <ele>1215</ele>
      </trkpt>
      <trkpt lat="45.13352" lon="5.50857">
        <ele>1221.1</ele>
      </trkpt>
      <trkpt lat="45.13346" lon="5.50861">
        <ele>1220</ele>
      </trkpt>
      <trkpt lat="45.13347" lon="5.50876">
        <ele>1217.7</ele>
      </trkpt>
      <trkpt lat="45.13315" lon="5.50878">
        <ele>1216.3</ele>
      </trkpt>
      <trkpt lat="45.1331" lon="5.5089">
        <ele>1214.5</ele>
      </trkpt>
      <trkpt lat="45.13308" lon="5.50885">
        <ele>1215.3</ele>
      </trkpt>
      <trkpt lat="45.13284" lon="5.50911">
        <ele>1211.5</ele>
      </trkpt>
      <trkpt lat="45.13262" lon="5.50922">
        <ele>1210.2</ele>
      </trkpt>
      <trkpt lat="45.13266" lon="5.50936">
        <ele>1208.5</ele>
      </trkpt>
      <trkpt lat="45.13258" lon="5.50953">
        <ele>1206.6</ele>
      </trkpt>
      <trkpt lat="45.13258" lon="5.50993">
        <ele>1201.8</ele>
      </trkpt>
      <trkpt lat="45.1327" lon="5.51">
        <ele>1200.8</ele>
      </trkpt>
      <trkpt lat="45.13277" lon="5.50982">
        <ele>1202.8</ele>
      </trkpt>
      <trkpt lat="45.133" lon="5.50937">
        <ele>1207.9</ele>
      </trkpt>
      <trkpt lat="45.13316" lon="5.50936">
        <ele>1207.9</ele>
      </trkpt>
      <trkpt lat="45.13334" lon="5.51034">
        <ele>1193.9</ele>
      </trkpt>
      <trkpt lat="45.13345" lon="5.51047">
        <ele>1191.8</ele>
      </trkpt>
      <trkpt lat="45.13374" lon="5.5106">
        <ele>1189.9</ele>
      </trkpt>
      <trkpt lat="45.13433" lon="5.51068">
        <ele>1189</ele>
      </trkpt>
      <trkpt lat="45.13503" lon="5.51049">
        <ele>1190.4</ele>
      </trkpt>
      <trkpt lat="45.13566" lon="5.51076">
        <ele>1186</ele>
      </trkpt>
      <trkpt lat="45.13589" lon="5.51093">
        <ele>1182.8</ele>
      </trkpt>
      <trkpt lat="45.13588" lon="5.51104">
        <ele>1180.7</ele>
      </trkpt>
      <trkpt lat="45.13617" lon="5.51116">
        <ele>1176.7</ele>
      </trkpt>
      <trkpt lat="45.1369" lon="5.51128">
        <ele>1168.1</ele>
      </trkpt>
      <trkpt lat="45.13723" lon="5.51097">
        <ele>1167.3</ele>
      </trkpt>
      <trkpt lat="45.13755" lon="5.51085">
        <ele>1162.6</ele>
      </trkpt>
      <trkpt lat="45.13777" lon="5.51033">
        <ele>1160</ele>
      </trkpt>
      <trkpt lat="45.13773" lon="5.51009">
        <ele>1162.5</ele>
      </trkpt>
      <trkpt lat="45.1378" lon="5.50949">
        <ele>1167</ele>
      </trkpt>
      <trkpt lat="45.13793" lon="5.50962">
        <ele>1162.2</ele>
      </trkpt>
      <trkpt lat="45.13836" lon="5.50965">
        <ele>1150.7</ele>
      </trkpt>
      <trkpt lat="45.13848" lon="5.50974">
        <ele>1146.4</ele>
      </trkpt>
      <trkpt lat="45.13856" lon="5.5097">
        <ele>1146.2</ele>
      </trkpt>
      <trkpt lat="45.13887" lon="5.50989">
        <ele>1136.1</ele>
      </trkpt>
      <trkpt lat="45.13901" lon="5.50997">
        <ele>1132.3</ele>
      </trkpt>
      <trkpt lat="45.13952" lon="5.51037">
        <ele>1121.5</ele>
      </trkpt>
      <trkpt lat="45.13982" lon="5.51037">
        <ele>1117</ele>
      </trkpt>
      <trkpt lat="45.14" lon="5.51014">
        <ele>1118.4</ele>
      </trkpt>
      <trkpt lat="45.14013" lon="5.51011">
        <ele>1120.7</ele>
      </trkpt>
      <trkpt lat="45.14021" lon="5.51053">
        <ele>1115.1</ele>
      </trkpt>
      <trkpt lat="45.14013" lon="5.51071">
        <ele>1110.6</ele>
      </trkpt>
      <trkpt lat="45.13988" lon="5.51091">
        <ele>1108.4</ele>
      </trkpt>
      <trkpt lat="45.13982" lon="5.51107">
        <ele>1109</ele>
      </trkpt>
      <trkpt lat="45.13986" lon="5.51134">
        <ele>1107</ele>
      </trkpt>
      <trkpt lat="45.13982" lon="5.51143">
        <ele>1107.7</ele>
      </trkpt>
      <trkpt lat="45.13979" lon="5.51175">
        <ele>1106.6</ele>
      </trkpt>
      <trkpt lat="45.13986" lon="5.51199">
        <ele>1102.4</ele>
      </trkpt>
      <trkpt lat="45.13993" lon="5.51236">
        <ele>1097.5</ele>
      </trkpt>
      <trkpt lat="45.14014" lon="5.51269">
        <ele>1093.4</ele>
      </trkpt>
      <trkpt lat="45.14029" lon="5.51312">
        <ele>1087.8</ele>
      </trkpt>
      <trkpt lat="45.14027" lon="5.5133">
        <ele>1085.5</ele>
      </trkpt>
      <trkpt lat="45.14037" lon="5.51357">
        <ele>1080.1</ele>
      </trkpt>
      <trkpt lat="45.14038" lon="5.51382">
        <ele>1075.3</ele>
      </trkpt>
      <trkpt lat="45.14082" lon="5.51444">
        <ele>1058.6</ele>
      </trkpt>
      <trkpt lat="45.1408" lon="5.51447">
        <ele>1058.1</ele>
      </trkpt>
      <trkpt lat="45.14112" lon="5.51467">
        <ele>1052.1</ele>
      </trkpt>
      <trkpt lat="45.14162" lon="5.51465">
        <ele>1049.8</ele>
      </trkpt>
      <trkpt lat="45.14213" lon="5.51505">
        <ele>1040.7</ele>
      </trkpt>
      <trkpt lat="45.14234" lon="5.51498">
        <ele>1042.4</ele>
      </trkpt>
      <trkpt lat="45.14263" lon="5.51502">
        <ele>1041.9</ele>
      </trkpt>
      <trkpt lat="45.14285" lon="5.51515">
        <ele>1038.5</ele>
      </trkpt>
      <trkpt lat="45.14326" lon="5.51505">
        <ele>1042.2</ele>
      </trkpt>
      <trkpt lat="45.14382" lon="5.51504">
        <ele>1041.6</ele>
      </trkpt>
      <trkpt lat="45.14411" lon="5.51489">
        <ele>1045</ele>
      </trkpt>
      <trkpt lat="45.1442" lon="5.51475">
        <ele>1048.8</ele>
      </trkpt>
      <trkpt lat="45.14431" lon="5.51471">
        <ele>1051.3</ele>
      </trkpt>
      <trkpt lat="45.14459" lon="5.51489">
        <ele>1049.7</ele>
      </trkpt>
      <trkpt lat="45.14586" lon="5.5153">
        <ele>1059.8</ele>
      </trkpt>
      <trkpt lat="45.14638" lon="5.51556">
        <ele>1065.8</ele>
      </trkpt>
      <trkpt lat="45.14676" lon="5.51591">
        <ele>1067.9</ele>
      </trkpt>
      <trkpt lat="45.14746" lon="5.51675">
        <ele>1071</ele>
      </trkpt>
      <trkpt lat="45.14811" lon="5.51742">
        <ele>1073.8</ele>
      </trkpt>
      <trkpt lat="45.14835" lon="5.51759">
        <ele>1075.5</ele>
      </trkpt>
      <trkpt lat="45.1489" lon="5.51775">
        <ele>1074.3</ele>
      </trkpt>
      <trkpt lat="45.14907" lon="5.51772">
        <ele>1076.3</ele>
      </trkpt>
      <trkpt lat="45.14921" lon="5.51755">
        <ele>1080.9</ele>
      </trkpt>
      <trkpt lat="45.14944" lon="5.51698">
        <ele>1091.5</ele>
      </trkpt>
      <trkpt lat="45.14963" lon="5.51676">
        <ele>1094.3</ele>
      </trkpt>
      <trkpt lat="45.14987" lon="5.51678">
        <ele>1093.1</ele>
      </trkpt>
      <trkpt lat="45.14998" lon="5.51688">
        <ele>1091.5</ele>
      </trkpt>
      <trkpt lat="45.1502" lon="5.5174">
        <ele>1088.7</ele>
      </trkpt>
      <trkpt lat="45.15022" lon="5.51782">
        <ele>1084.6</ele>
      </trkpt>
      <trkpt lat="45.15034" lon="5.51811">
        <ele>1083.9</ele>
      </trkpt>
      <trkpt lat="45.15051" lon="5.51818">
        <ele>1086</ele>
      </trkpt>
      <trkpt lat="45.15061" lon="5.51815">
        <ele>1088.1</ele>
      </trkpt>
      <trkpt lat="45.15162" lon="5.51697">
        <ele>1105.7</ele>
      </trkpt>
      <trkpt lat="45.15186" lon="5.51692">
        <ele>1105.2</ele>
      </trkpt>
      <trkpt lat="45.15217" lon="5.51691">
        <ele>1103.6</ele>
      </trkpt>
      <trkpt lat="45.15231" lon="5.5168">
        <ele>1104.3</ele>
      </trkpt>
      <trkpt lat="45.15236" lon="5.516">
        <ele>1115.4</ele>
      </trkpt>
      <trkpt lat="45.15246" lon="5.51587">
        <ele>1116.8</ele>
      </trkpt>
      <trkpt lat="45.15262" lon="5.51585">
        <ele>1117.8</ele>
      </trkpt>
      <trkpt lat="45.15276" lon="5.51605">
        <ele>1116.1</ele>
      </trkpt>
      <trkpt lat="45.15306" lon="5.51674">
        <ele>1107.4</ele>
      </trkpt>
      <trkpt lat="45.15336" lon="5.51682">
        <ele>1108.3</ele>
      </trkpt>
      <trkpt lat="45.15355" lon="5.51672">
        <ele>1110.6</ele>
      </trkpt>
      <trkpt lat="45.15374" lon="5.51635">
        <ele>1118.1</ele>
      </trkpt>
      <trkpt lat="45.15386" lon="5.5163">
        <ele>1119.8</ele>
      </trkpt>
      <trkpt lat="45.15402" lon="5.51652">
        <ele>1116.7</ele>
      </trkpt>
      <trkpt lat="45.15421" lon="5.51662">
        <ele>1115.9</ele>
      </trkpt>
      <trkpt lat="45.15493" lon="5.51623">
        <ele>1124.6</ele>
      </trkpt>
      <trkpt lat="45.15518" lon="5.51602">
        <ele>1130.7</ele>
      </trkpt>
      <trkpt lat="45.15528" lon="5.51607">
        <ele>1130.8</ele>
      </trkpt>
      <trkpt lat="45.1554" lon="5.51637">
        <ele>1126.3</ele>
      </trkpt>
      <trkpt lat="45.15557" lon="5.51649">
        <ele>1125.5</ele>
      </trkpt>
      <trkpt lat="45.15582" lon="5.51649">
        <ele>1127.7</ele>
      </trkpt>
      <trkpt lat="45.15624" lon="5.5162">
        <ele>1137.7</ele>
      </trkpt>
      <trkpt lat="45.15643" lon="5.51629">
        <ele>1137.6</ele>
      </trkpt>
      <trkpt lat="45.15648" lon="5.51646">
        <ele>1134.9</ele>
      </trkpt>
      <trkpt lat="45.15667" lon="5.51667">
        <ele>1133</ele>
      </trkpt>
      <trkpt lat="45.15754" lon="5.51676">
        <ele>1133.8</ele>
      </trkpt>
      <trkpt lat="45.15812" lon="5.51635">
        <ele>1141.3</ele>
      </trkpt>
      <trkpt lat="45.15826" lon="5.51604">
        <ele>1149.4</ele>
      </trkpt>
      <trkpt lat="45.15841" lon="5.51591">
        <ele>1154</ele>
      </trkpt>
      <trkpt lat="45.15858" lon="5.51597">
        <ele>1155</ele>
      </trkpt>
      <trkpt lat="45.15869" lon="5.51621">
        <ele>1150.1</ele>
      </trkpt>
      <trkpt lat="45.15868" lon="5.5164">
        <ele>1145.1</ele>
      </trkpt>
      <trkpt lat="45.15881" lon="5.51667">
        <ele>1140</ele>
      </trkpt>
      <trkpt lat="45.15938" lon="5.51687">
        <ele>1145.2</ele>
      </trkpt>
      <trkpt lat="45.15973" lon="5.51705">
        <ele>1146.5</ele>
      </trkpt>
      <trkpt lat="45.16041" lon="5.51707">
        <ele>1153.2</ele>
      </trkpt>
      <trkpt lat="45.16068" lon="5.51696">
        <ele>1158.4</ele>
      </trkpt>
      <trkpt lat="45.16095" lon="5.51667">
        <ele>1171.1</ele>
      </trkpt>
      <trkpt lat="45.16129" lon="5.51656">
        <ele>1178.5</ele>
      </trkpt>
      <trkpt lat="45.16161" lon="5.51665">
        <ele>1178</ele>
      </trkpt>
      <trkpt lat="45.16185" lon="5.517">
        <ele>1171</ele>
      </trkpt>
      <trkpt lat="45.16224" lon="5.51721">
        <ele>1173.1</ele>
      </trkpt>
      <trkpt lat="45.16311" lon="5.51721">
        <ele>1187.6</ele>
      </trkpt>
      <trkpt lat="45.16388" lon="5.51699">
        <ele>1204.4</ele>
      </trkpt>
      <trkpt lat="45.16422" lon="5.5173">
        <ele>1199.1</ele>
      </trkpt>
      <trkpt lat="45.16451" lon="5.51739">
        <ele>1200.3</ele>
      </trkpt>
      <trkpt lat="45.1649" lon="5.51763">
        <ele>1199.6</ele>
      </trkpt>
      <trkpt lat="45.16519" lon="5.51764">
        <ele>1202.8</ele>
      </trkpt>
      <trkpt lat="45.16523" lon="5.51771">
        <ele>1201.7</ele>
      </trkpt>
      <trkpt lat="45.16521" lon="5.51828">
        <ele>1188.2</ele>
      </trkpt>
      <trkpt lat="45.16533" lon="5.51836">
        <ele>1188</ele>
      </trkpt>
      <trkpt lat="45.16543" lon="5.51865">
        <ele>1179.3</ele>
      </trkpt>
      <trkpt lat="45.16527" lon="5.51878">
        <ele>1172.6</ele>
      </trkpt>
      <trkpt lat="45.16514" lon="5.51877">
        <ele>1170.8</ele>
      </trkpt>
      <trkpt lat="45.16538" lon="5.51905">
        <ele>1165.1</ele>
      </trkpt>
      <trkpt lat="45.16551" lon="5.51938">
        <ele>1155.3</ele>
      </trkpt>
      <trkpt lat="45.16571" lon="5.5196">
        <ele>1150.5</ele>
      </trkpt>
      <trkpt lat="45.16576" lon="5.51977">
        <ele>1145.1</ele>
      </trkpt>
      <trkpt lat="45.16605" lon="5.52016">
        <ele>1135</ele>
      </trkpt>
      <trkpt lat="45.16632" lon="5.52029">
        <ele>1133.2</ele>
      </trkpt>
      <trkpt lat="45.16664" lon="5.52055">
        <ele>1127.1</ele>
      </trkpt>
      <trkpt lat="45.16707" lon="5.52094">
        <ele>1117.7</ele>
      </trkpt>
      <trkpt lat="45.16718" lon="5.52116">
        <ele>1113.1</ele>
      </trkpt>
      <trkpt lat="45.16765" lon="5.52155">
        <ele>1106.5</ele>
      </trkpt>
      <trkpt lat="45.16775" lon="5.52158">
        <ele>1106.3</ele>
      </trkpt>
      <trkpt lat="45.16805" lon="5.52154">
        <ele>1109.5</ele>
      </trkpt>
      <trkpt lat="45.16813" lon="5.52179">
        <ele>1104.8</ele>
      </trkpt>
      <trkpt lat="45.16798" lon="5.52253">
        <ele>1087.5</ele>
      </trkpt>
      <trkpt lat="45.16808" lon="5.52319">
        <ele>1071.7</ele>
      </trkpt>
      <trkpt lat="45.1682" lon="5.52335">
        <ele>1069</ele>
      </trkpt>
      <trkpt lat="45.16821" lon="5.52352">
        <ele>1065.4</ele>
      </trkpt>
      <trkpt lat="45.1684" lon="5.52375">
        <ele>1062.4</ele>
      </trkpt>
      <trkpt lat="45.16848" lon="5.52382">
        <ele>1061.8</ele>
      </trkpt>
      <trkpt lat="45.1689" lon="5.52377">
        <ele>1068.6</ele>
      </trkpt>
      <trkpt lat="45.16929" lon="5.5239">
        <ele>1070.4</ele>
      </trkpt>
      <trkpt lat="45.17019" lon="5.52381">
        <ele>1089.2</ele>
      </trkpt>
      <trkpt lat="45.17038" lon="5.52387">
        <ele>1089.4</ele>
      </trkpt>
      <trkpt lat="45.17042" lon="5.52394">
        <ele>1088.1</ele>
      </trkpt>
      <trkpt lat="45.17076" lon="5.52358">
        <ele>1098.7</ele>
      </trkpt>
      <trkpt lat="45.17093" lon="5.52359">
        <ele>1100.5</ele>
      </trkpt>
      <trkpt lat="45.17098" lon="5.52363">
        <ele>1100.3</ele>
      </trkpt>
      <trkpt lat="45.17116" lon="5.52437">
        <ele>1085.7</ele>
      </trkpt>
      <trkpt lat="45.1721" lon="5.52467">
        <ele>1086.2</ele>
      </trkpt>
      <trkpt lat="45.1725" lon="5.52507">
        <ele>1077.5</ele>
      </trkpt>
      <trkpt lat="45.1735" lon="5.52507">
        <ele>1064.8</ele>
      </trkpt>
      <trkpt lat="45.17467" lon="5.52535">
        <ele>1064.8</ele>
      </trkpt>
      <trkpt lat="45.17519" lon="5.52535">
        <ele>1071.9</ele>
      </trkpt>
      <trkpt lat="45.1758" lon="5.52572">
        <ele>1069.6</ele>
      </trkpt>
      <trkpt lat="45.17656" lon="5.52597">
        <ele>1082.7</ele>
      </trkpt>
      <trkpt lat="45.17695" lon="5.52581">
        <ele>1099.1</ele>
      </trkpt>
      <trkpt lat="45.17714" lon="5.52582">
        <ele>1104.7</ele>
      </trkpt>
      <trkpt lat="45.17721" lon="5.52579">
        <ele>1107.9</ele>
      </trkpt>
      <trkpt lat="45.17775" lon="5.52668">
        <ele>1100.3</ele>
      </trkpt>
      <trkpt lat="45.17795" lon="5.52728">
        <ele>1093.4</ele>
      </trkpt>
      <trkpt lat="45.17826" lon="5.52765">
        <ele>1092.8</ele>
      </trkpt>
      <trkpt lat="45.17898" lon="5.52801">
        <ele>1089.4</ele>
      </trkpt>
      <trkpt lat="45.17933" lon="5.5283">
        <ele>1082.6</ele>
      </trkpt>
      <trkpt lat="45.17941" lon="5.52853">
        <ele>1078</ele>
      </trkpt>
      <trkpt lat="45.17944" lon="5.52882">
        <ele>1072.3</ele>
      </trkpt>
      <trkpt lat="45.17907" lon="5.53056">
        <ele>1041.1</ele>
      </trkpt>
      <trkpt lat="45.1777" lon="5.53417">
        <ele>1036.3</ele>
      </trkpt>
      <trkpt lat="45.17684" lon="5.5362">
        <ele>1046.9</ele>
      </trkpt>
      <trkpt lat="45.17676" lon="5.53649">
        <ele>1048.3</ele>
      </trkpt>
      <trkpt lat="45.17676" lon="5.53688">
        <ele>1049.1</ele>
      </trkpt>
      <trkpt lat="45.17654" lon="5.53754">
        <ele>1046.8</ele>
      </trkpt>
      <trkpt lat="45.17649" lon="5.53813">
        <ele>1042.2</ele>
      </trkpt>
      <trkpt lat="45.17537" lon="5.54126">
        <ele>1043.3</ele>
      </trkpt>
      <trkpt lat="45.17526" lon="5.54185">
        <ele>1044.4</ele>
      </trkpt>
      <trkpt lat="45.17516" lon="5.54196">
        <ele>1044.5</ele>
      </trkpt>
      <trkpt lat="45.17496" lon="5.54214">
        <ele>1044.3</ele>
      </trkpt>
      <trkpt lat="45.17488" lon="5.54215">
        <ele>1044.1</ele>
      </trkpt>
      <trkpt lat="45.17494" lon="5.54224">
        <ele>1044.1</ele>
      </trkpt>
      <trkpt lat="45.17493" lon="5.5424">
        <ele>1043.9</ele>
      </trkpt>
      <trkpt lat="45.17541" lon="5.54282">
        <ele>1044.8</ele>
      </trkpt>
      <trkpt lat="45.17563" lon="5.54349">
        <ele>1044.8</ele>
      </trkpt>
      <trkpt lat="45.17621" lon="5.54461">
        <ele>1044.2</ele>
      </trkpt>
      <trkpt lat="45.17671" lon="5.54598">
        <ele>1044.7</ele>
      </trkpt>
      <trkpt lat="45.17698" lon="5.54708">
        <ele>1046.8</ele>
      </trkpt>
      <trkpt lat="45.1773" lon="5.5469">
        <ele>1047.6</ele>
      </trkpt>
      <trkpt lat="45.17751" lon="5.54703">
        <ele>1048</ele>
      </trkpt>
      <trkpt lat="45.17774" lon="5.54704">
        <ele>1048.7</ele>
      </trkpt>
      <trkpt lat="45.17813" lon="5.54628">
        <ele>1049.2</ele>
      </trkpt>
      <trkpt lat="45.17819" lon="5.54627">
        <ele>1049.3</ele>
      </trkpt>
      <trkpt lat="45.179" lon="5.54711">
        <ele>1051.7</ele>
      </trkpt>
      <trkpt lat="45.17916" lon="5.54689">
        <ele>1052</ele>
      </trkpt>
      <trkpt lat="45.17931" lon="5.54688">
        <ele>1052.8</ele>
      </trkpt>
      <trkpt lat="45.18002" lon="5.54748">
        <ele>1055.1</ele>
      </trkpt>
      <trkpt lat="45.18004" lon="5.548">
        <ele>1055.7</ele>
      </trkpt>
      <trkpt lat="45.18011" lon="5.54807">
        <ele>1056.1</ele>
      </trkpt>
      <trkpt lat="45.18044" lon="5.548">
        <ele>1057.1</ele>
      </trkpt>
      <trkpt lat="45.18046" lon="5.5481">
        <ele>1057.5</ele>
      </trkpt>
      <trkpt lat="45.18036" lon="5.54836">
        <ele>1057.8</ele>
      </trkpt>
      <trkpt lat="45.18037" lon="5.54844">
        <ele>1058.2</ele>
      </trkpt>
      <trkpt lat="45.18065" lon="5.54876">
        <ele>1061.6</ele>
      </trkpt>
      <trkpt lat="45.18095" lon="5.54876">
        <ele>1063.3</ele>
      </trkpt>
      <trkpt lat="45.18112" lon="5.54911">
        <ele>1066</ele>
      </trkpt>
      <trkpt lat="45.18141" lon="5.54933">
        <ele>1067.2</ele>
      </trkpt>
      <trkpt lat="45.18232" lon="5.54773">
        <ele>1070.2</ele>
      </trkpt>
      <trkpt lat="45.18238" lon="5.54772">
        <ele>1070.8</ele>
      </trkpt>
      <trkpt lat="45.18269" lon="5.54806">
        <ele>1071.6</ele>
      </trkpt>
      <trkpt lat="45.18269" lon="5.54826">
        <ele>1070.9</ele>
      </trkpt>
      <trkpt lat="45.18315" lon="5.54838">
        <ele>1074.6</ele>
      </trkpt>
      <trkpt lat="45.18345" lon="5.54877">
        <ele>1079.3</ele>
      </trkpt>
      <trkpt lat="45.18417" lon="5.54904">
        <ele>1092.4</ele>
      </trkpt>
      <trkpt lat="45.1846" lon="5.54977">
        <ele>1104.8</ele>
      </trkpt>
      <trkpt lat="45.18445" lon="5.55021">
        <ele>1108.7</ele>
      </trkpt>
      <trkpt lat="45.18443" lon="5.55048">
        <ele>1110.1</ele>
      </trkpt>
      <trkpt lat="45.18469" lon="5.55119">
        <ele>1118.9</ele>
      </trkpt>
      <trkpt lat="45.18531" lon="5.5514">
        <ele>1126.9</ele>
      </trkpt>
      <trkpt lat="45.1854" lon="5.55159">
        <ele>1129.8</ele>
      </trkpt>
      <trkpt lat="45.18563" lon="5.55271">
        <ele>1139.8</ele>
      </trkpt>
      <trkpt lat="45.18559" lon="5.55305">
        <ele>1138.6</ele>
      </trkpt>
      <trkpt lat="45.18576" lon="5.5537">
        <ele>1141.4</ele>
      </trkpt>
      <trkpt lat="45.18582" lon="5.55429">
        <ele>1140.8</ele>
      </trkpt>
      <trkpt lat="45.18603" lon="5.55477">
        <ele>1140.2</ele>
      </trkpt>
      <trkpt lat="45.18689" lon="5.55551">
        <ele>1152.8</ele>
      </trkpt>
      <trkpt lat="45.18768" lon="5.55614">
        <ele>1163.4</ele>
      </trkpt>
      <trkpt lat="45.18843" lon="5.55713">
        <ele>1167.2</ele>
      </trkpt>
      <trkpt lat="45.1889" lon="5.55799">
        <ele>1165.2</ele>
      </trkpt>
      <trkpt lat="45.18922" lon="5.55841">
        <ele>1170.9</ele>
      </trkpt>
      <trkpt lat="45.18947" lon="5.55866">
        <ele>1175.4</ele>
      </trkpt>
      <trkpt lat="45.18965" lon="5.55871">
        <ele>1178.4</ele>
      </trkpt>
      <trkpt lat="45.18987" lon="5.55895">
        <ele>1183.2</ele>
      </trkpt>
      <trkpt lat="45.1901" lon="5.55927">
        <ele>1187.4</ele>
      </trkpt>
      <trkpt lat="45.19105" lon="5.56001">
        <ele>1201.2</ele>
      </trkpt>
      <trkpt lat="45.19195" lon="5.56048">
        <ele>1209</ele>
      </trkpt>
      <trkpt lat="45.19252" lon="5.5611">
        <ele>1215.6</ele>
      </trkpt>
      <trkpt lat="45.19353" lon="5.56171">
        <ele>1224.3</ele>
      </trkpt>
      <trkpt lat="45.19443" lon="5.56213">
        <ele>1229.7</ele>
      </trkpt>
      <trkpt lat="45.1952" lon="5.56219">
        <ele>1238.8</ele>
      </trkpt>
      <trkpt lat="45.19543" lon="5.56233">
        <ele>1242.6</ele>
      </trkpt>
      <trkpt lat="45.1956" lon="5.5625">
        <ele>1244.7</ele>
      </trkpt>
      <trkpt lat="45.19561" lon="5.56261">
        <ele>1243</ele>
      </trkpt>
      <trkpt lat="45.19643" lon="5.5628">
        <ele>1256.3</ele>
      </trkpt>
      <trkpt lat="45.19671" lon="5.56305">
        <ele>1258</ele>
      </trkpt>
      <trkpt lat="45.19742" lon="5.56327">
        <ele>1264.7</ele>
      </trkpt>
      <trkpt lat="45.19744" lon="5.56333">
        <ele>1264.2</ele>
      </trkpt>
      <trkpt lat="45.19815" lon="5.56351">
        <ele>1267</ele>
      </trkpt>
      <trkpt lat="45.19829" lon="5.56339">
        <ele>1270</ele>
      </trkpt>
      <trkpt lat="45.19848" lon="5.56338">
        <ele>1269.9</ele>
      </trkpt>
      <trkpt lat="45.19879" lon="5.56361">
        <ele>1268.1</ele>
      </trkpt>
      <trkpt lat="45.19899" lon="5.56392">
        <ele>1268.1</ele>
      </trkpt>
      <trkpt lat="45.1992" lon="5.56393">
        <ele>1269.7</ele>
      </trkpt>
      <trkpt lat="45.19988" lon="5.56368">
        <ele>1274.6</ele>
      </trkpt>
      <trkpt lat="45.19997" lon="5.56372">
        <ele>1275.3</ele>
      </trkpt>
      <trkpt lat="45.20014" lon="5.56369">
        <ele>1276.6</ele>
      </trkpt>
      <trkpt lat="45.20013" lon="5.56359">
        <ele>1276.7</ele>
      </trkpt>
      <trkpt lat="45.20016" lon="5.56364">
        <ele>1276.9</ele>
      </trkpt>
      <trkpt lat="45.20041" lon="5.56306">
        <ele>1279.4</ele>
      </trkpt>
      <trkpt lat="45.20043" lon="5.56271">
        <ele>1279.7</ele>
      </trkpt>
      <trkpt lat="45.20069" lon="5.56243">
        <ele>1282.9</ele>
      </trkpt>
      <trkpt lat="45.20106" lon="5.56242">
        <ele>1286.7</ele>
      </trkpt>
      <trkpt lat="45.20121" lon="5.56251">
        <ele>1287.6</ele>
      </trkpt>
      <trkpt lat="45.20145" lon="5.56247">
        <ele>1290</ele>
      </trkpt>
      <trkpt lat="45.20165" lon="5.56255">
        <ele>1291.6</ele>
      </trkpt>
      <trkpt lat="45.20177" lon="5.56249">
        <ele>1293.2</ele>
      </trkpt>
      <trkpt lat="45.20181" lon="5.56258">
        <ele>1293.2</ele>
      </trkpt>
      <trkpt lat="45.20199" lon="5.56258">
        <ele>1295.2</ele>
      </trkpt>
      <trkpt lat="45.20277" lon="5.56219">
        <ele>1301.3</ele>
      </trkpt>
      <trkpt lat="45.20321" lon="5.56234">
        <ele>1305.2</ele>
      </trkpt>
      <trkpt lat="45.2034" lon="5.56255">
        <ele>1308.3</ele>
      </trkpt>
      <trkpt lat="45.2035" lon="5.56258">
        <ele>1308.6</ele>
      </trkpt>
      <trkpt lat="45.20391" lon="5.56246">
        <ele>1309.7</ele>
      </trkpt>
      <trkpt lat="45.20398" lon="5.56253">
        <ele>1310.3</ele>
      </trkpt>
      <trkpt lat="45.20441" lon="5.56258">
        <ele>1312.4</ele>
      </trkpt>
      <trkpt lat="45.20481" lon="5.56233">
        <ele>1313.7</ele>
      </trkpt>
      <trkpt lat="45.20508" lon="5.56229">
        <ele>1315.1</ele>
      </trkpt>
      <trkpt lat="45.20556" lon="5.56238">
        <ele>1320.4</ele>
      </trkpt>
      <trkpt lat="45.20598" lon="5.56241">
        <ele>1324.9</ele>
      </trkpt>
      <trkpt lat="45.20631" lon="5.5622">
        <ele>1325.3</ele>
      </trkpt>
      <trkpt lat="45.20706" lon="5.56192">
        <ele>1328.6</ele>
      </trkpt>
      <trkpt lat="45.20726" lon="5.56203">
        <ele>1330.8</ele>
      </trkpt>
      <trkpt lat="45.20729" lon="5.56213">
        <ele>1331.5</ele>
      </trkpt>
      <trkpt lat="45.20736" lon="5.56211">
        <ele>1331.8</ele>
      </trkpt>
      <trkpt lat="45.20736" lon="5.56235">
        <ele>1332.5</ele>
      </trkpt>
      <trkpt lat="45.20733" lon="5.56257">
        <ele>1333.1</ele>
      </trkpt>
      <trkpt lat="45.2074" lon="5.56265">
        <ele>1333.2</ele>
      </trkpt>
      <trkpt lat="45.20755" lon="5.56264">
        <ele>1333.8</ele>
      </trkpt>
      <trkpt lat="45.20756" lon="5.56272">
        <ele>1333.9</ele>
      </trkpt>
      <trkpt lat="45.20783" lon="5.56277">
        <ele>1337.1</ele>
      </trkpt>
      <trkpt lat="45.20798" lon="5.56326">
        <ele>1337.6</ele>
      </trkpt>
      <trkpt lat="45.20832" lon="5.56349">
        <ele>1338.4</ele>
      </trkpt>
      <trkpt lat="45.20858" lon="5.56352">
        <ele>1339.1</ele>
      </trkpt>
      <trkpt lat="45.20872" lon="5.56376">
        <ele>1336.8</ele>
      </trkpt>
      <trkpt lat="45.20917" lon="5.56366">
        <ele>1339.2</ele>
      </trkpt>
      <trkpt lat="45.20929" lon="5.56393">
        <ele>1334.3</ele>
      </trkpt>
      <trkpt lat="45.20916" lon="5.56456">
        <ele>1327.3</ele>
      </trkpt>
      <trkpt lat="45.20929" lon="5.56465">
        <ele>1325.4</ele>
      </trkpt>
      <trkpt lat="45.20986" lon="5.56479">
        <ele>1321</ele>
      </trkpt>
      <trkpt lat="45.21012" lon="5.56503">
        <ele>1317.7</ele>
      </trkpt>
      <trkpt lat="45.21069" lon="5.56499">
        <ele>1312.2</ele>
      </trkpt>
      <trkpt lat="45.21129" lon="5.56478">
        <ele>1309.9</ele>
      </trkpt>
      <trkpt lat="45.21158" lon="5.56482">
        <ele>1311</ele>
      </trkpt>
      <trkpt lat="45.21214" lon="5.56427">
        <ele>1314.3</ele>
      </trkpt>
      <trkpt lat="45.21225" lon="5.56385">
        <ele>1317</ele>
      </trkpt>
      <trkpt lat="45.21312" lon="5.56308">
        <ele>1322.2</ele>
      </trkpt>
      <trkpt lat="45.214" lon="5.56252">
        <ele>1311.2</ele>
      </trkpt>
      <trkpt lat="45.21429" lon="5.56218">
        <ele>1306.4</ele>
      </trkpt>
      <trkpt lat="45.21451" lon="5.56224">
        <ele>1306.8</ele>
      </trkpt>
      <trkpt lat="45.21457" lon="5.56237">
        <ele>1308.1</ele>
      </trkpt>
      <trkpt lat="45.21465" lon="5.56307">
        <ele>1314.8</ele>
      </trkpt>
      <trkpt lat="45.21461" lon="5.56349">
        <ele>1317.7</ele>
      </trkpt>
      <trkpt lat="45.21432" lon="5.5643">
        <ele>1319.9</ele>
      </trkpt>
      <trkpt lat="45.21426" lon="5.56463">
        <ele>1322.2</ele>
      </trkpt>
      <trkpt lat="45.21435" lon="5.56555">
        <ele>1327</ele>
      </trkpt>
      <trkpt lat="45.21391" lon="5.56624">
        <ele>1326.8</ele>
      </trkpt>
      <trkpt lat="45.21381" lon="5.56628">
        <ele>1326.8</ele>
      </trkpt>
      <trkpt lat="45.21383" lon="5.56655">
        <ele>1326.9</ele>
      </trkpt>
      <trkpt lat="45.21373" lon="5.56677">
        <ele>1326.7</ele>
      </trkpt>
      <trkpt lat="45.21347" lon="5.56698">
        <ele>1326.7</ele>
      </trkpt>
      <trkpt lat="45.21348" lon="5.56745">
        <ele>1326.2</ele>
      </trkpt>
      <trkpt lat="45.21373" lon="5.56789">
        <ele>1320.8</ele>
      </trkpt>
      <trkpt lat="45.21389" lon="5.56859">
        <ele>1313.8</ele>
      </trkpt>
      <trkpt lat="45.21389" lon="5.56969">
        <ele>1302.2</ele>
      </trkpt>
      <trkpt lat="45.21402" lon="5.56976">
        <ele>1302.1</ele>
      </trkpt>
      <trkpt lat="45.2141" lon="5.56972">
        <ele>1303.2</ele>
      </trkpt>
      <trkpt lat="45.21432" lon="5.5693">
        <ele>1308.8</ele>
      </trkpt>
      <trkpt lat="45.21441" lon="5.56925">
        <ele>1309.1</ele>
      </trkpt>
      <trkpt lat="45.21497" lon="5.56963">
        <ele>1303.6</ele>
      </trkpt>
      <trkpt lat="45.21522" lon="5.56993">
        <ele>1304.5</ele>
      </trkpt>
      <trkpt lat="45.21526" lon="5.57011">
        <ele>1305.1</ele>
      </trkpt>
      <trkpt lat="45.21521" lon="5.57039">
        <ele>1303.8</ele>
      </trkpt>
      <trkpt lat="45.21507" lon="5.57051">
        <ele>1300.8</ele>
      </trkpt>
      <trkpt lat="45.21494" lon="5.57046">
        <ele>1299</ele>
      </trkpt>
      <trkpt lat="45.21432" lon="5.57065">
        <ele>1292.2</ele>
      </trkpt>
      <trkpt lat="45.21412" lon="5.57098">
        <ele>1285.9</ele>
      </trkpt>
      <trkpt lat="45.21411" lon="5.57114">
        <ele>1284</ele>
      </trkpt>
      <trkpt lat="45.21439" lon="5.57154">
        <ele>1284.2</ele>
      </trkpt>
      <trkpt lat="45.21466" lon="5.57168">
        <ele>1287.7</ele>
      </trkpt>
      <trkpt lat="45.21493" lon="5.5717">
        <ele>1292.1</ele>
      </trkpt>
      <trkpt lat="45.21515" lon="5.57184">
        <ele>1292.7</ele>
      </trkpt>
      <trkpt lat="45.21533" lon="5.57215">
        <ele>1289.4</ele>
      </trkpt>
      <trkpt lat="45.2155" lon="5.5723">
        <ele>1289.6</ele>
      </trkpt>
      <trkpt lat="45.21583" lon="5.57225">
        <ele>1296.3</ele>
      </trkpt>
      <trkpt lat="45.21631" lon="5.57169">
        <ele>1305.1</ele>
      </trkpt>
      <trkpt lat="45.21679" lon="5.57138">
        <ele>1310.8</ele>
      </trkpt>
      <trkpt lat="45.21695" lon="5.57137">
        <ele>1311.6</ele>
      </trkpt>
      <trkpt lat="45.21744" lon="5.57181">
        <ele>1306.8</ele>
      </trkpt>
      <trkpt lat="45.2179" lon="5.57182">
        <ele>1312.1</ele>
      </trkpt>
      <trkpt lat="45.21826" lon="5.57213">
        <ele>1309.9</ele>
      </trkpt>
      <trkpt lat="45.21846" lon="5.57225">
        <ele>1311.2</ele>
      </trkpt>
      <trkpt lat="45.21878" lon="5.5728">
        <ele>1315.1</ele>
      </trkpt>
      <trkpt lat="45.21876" lon="5.57289">
        <ele>1315.1</ele>
      </trkpt>
      <trkpt lat="45.2177" lon="5.57353">
        <ele>1310.9</ele>
      </trkpt>
      <trkpt lat="45.21755" lon="5.57368">
        <ele>1309.7</ele>
      </trkpt>
      <trkpt lat="45.21747" lon="5.57408">
        <ele>1307.1</ele>
      </trkpt>
      <trkpt lat="45.21827" lon="5.57505">
        <ele>1299.9</ele>
      </trkpt>
      <trkpt lat="45.21859" lon="5.57521">
        <ele>1305.6</ele>
      </trkpt>
      <trkpt lat="45.21867" lon="5.57536">
        <ele>1304.8</ele>
      </trkpt>
      <trkpt lat="45.21874" lon="5.57587">
        <ele>1296.6</ele>
      </trkpt>
      <trkpt lat="45.21926" lon="5.5764">
        <ele>1298.2</ele>
      </trkpt>
      <trkpt lat="45.21975" lon="5.57658">
        <ele>1304.3</ele>
      </trkpt>
      <trkpt lat="45.22028" lon="5.57704">
        <ele>1296.9</ele>
      </trkpt>
      <trkpt lat="45.22109" lon="5.5774">
        <ele>1296.3</ele>
      </trkpt>
      <trkpt lat="45.22157" lon="5.57781">
        <ele>1289</ele>
      </trkpt>
      <trkpt lat="45.22233" lon="5.57805">
        <ele>1291</ele>
      </trkpt>
      <trkpt lat="45.22292" lon="5.57829">
        <ele>1283.8</ele>
      </trkpt>
      <trkpt lat="45.22344" lon="5.57822">
        <ele>1289.6</ele>
      </trkpt>
      <trkpt lat="45.22425" lon="5.57857">
        <ele>1286.3</ele>
      </trkpt>
      <trkpt lat="45.22466" lon="5.57891">
        <ele>1281.2</ele>
      </trkpt>
      <trkpt lat="45.22519" lon="5.57918">
        <ele>1280.8</ele>
      </trkpt>
      <trkpt lat="45.22554" lon="5.57944">
        <ele>1281.1</ele>
      </trkpt>
      <trkpt lat="45.22591" lon="5.5795">
        <ele>1285.3</ele>
      </trkpt>
      <trkpt lat="45.22627" lon="5.57967">
        <ele>1286.8</ele>
      </trkpt>
      <trkpt lat="45.22693" lon="5.5803">
        <ele>1284.1</ele>
      </trkpt>
      <trkpt lat="45.22703" lon="5.58057">
        <ele>1281.6</ele>
      </trkpt>
      <trkpt lat="45.22702" lon="5.58083">
        <ele>1277.5</ele>
      </trkpt>
      <trkpt lat="45.22708" lon="5.58093">
        <ele>1279.6</ele>
      </trkpt>
      <trkpt lat="45.22853" lon="5.59316">
        <ele>1611.5</ele>
      </trkpt>
      <trkpt lat="45.22865" lon="5.59369">
        <ele>1612.8</ele>
      </trkpt>
      <trkpt lat="45.22871" lon="5.59369">
        <ele>1612.6</ele>
      </trkpt>
      <trkpt lat="45.22672" lon="5.59378">
        <ele>1610</ele>
      </trkpt>
      <trkpt lat="45.22664" lon="5.5939">
        <ele>1610.1</ele>
      </trkpt>
      <trkpt lat="45.2262" lon="5.59395">
        <ele>1611.1</ele>
      </trkpt>
      <trkpt lat="45.2254" lon="5.59396">
        <ele>1612.9</ele>
      </trkpt>
      <trkpt lat="45.22443" lon="5.59385">
        <ele>1616.4</ele>
      </trkpt>
      <trkpt lat="45.22397" lon="5.59364">
        <ele>1618.1</ele>
      </trkpt>
      <trkpt lat="45.2235" lon="5.59374">
        <ele>1619.1</ele>
      </trkpt>
      <trkpt lat="45.22275" lon="5.59338">
        <ele>1621.4</ele>
      </trkpt>
      <trkpt lat="45.22197" lon="5.59239">
        <ele>1609.6</ele>
      </trkpt>
      <trkpt lat="45.22173" lon="5.59226">
        <ele>1607.1</ele>
      </trkpt>
      <trkpt lat="45.22111" lon="5.59249">
        <ele>1610.1</ele>
      </trkpt>
      <trkpt lat="45.22079" lon="5.59245">
        <ele>1609.7</ele>
      </trkpt>
      <trkpt lat="45.22039" lon="5.59238">
        <ele>1605.6</ele>
      </trkpt>
      <trkpt lat="45.22004" lon="5.59256">
        <ele>1606.1</ele>
      </trkpt>
      <trkpt lat="45.21962" lon="5.59262">
        <ele>1603.1</ele>
      </trkpt>
      <trkpt lat="45.21941" lon="5.59255">
        <ele>1600.6</ele>
      </trkpt>
      <trkpt lat="45.21923" lon="5.59262">
        <ele>1599.7</ele>
      </trkpt>
      <trkpt lat="45.21817" lon="5.59269">
        <ele>1597.7</ele>
      </trkpt>
      <trkpt lat="45.21788" lon="5.59314">
        <ele>1596.2</ele>
      </trkpt>
      <trkpt lat="45.21731" lon="5.59432">
        <ele>1588.4</ele>
      </trkpt>
      <trkpt lat="45.21708" lon="5.59432">
        <ele>1591</ele>
      </trkpt>
      <trkpt lat="45.21685" lon="5.59407">
        <ele>1594.8</ele>
      </trkpt>
      <trkpt lat="45.21656" lon="5.5938">
        <ele>1600.7</ele>
      </trkpt>
      <trkpt lat="45.21661" lon="5.59361">
        <ele>1600.6</ele>
      </trkpt>
      <trkpt lat="45.21653" lon="5.59277">
        <ele>1603.7</ele>
      </trkpt>
      <trkpt lat="45.21632" lon="5.59237">
        <ele>1608.3</ele>
      </trkpt>
      <trkpt lat="45.21603" lon="5.59196">
        <ele>1612.4</ele>
      </trkpt>
      <trkpt lat="45.21595" lon="5.59193">
        <ele>1613.6</ele>
      </trkpt>
      <trkpt lat="45.21579" lon="5.59164">
        <ele>1613.6</ele>
      </trkpt>
      <trkpt lat="45.21542" lon="5.59157">
        <ele>1618.1</ele>
      </trkpt>
      <trkpt lat="45.21511" lon="5.59145">
        <ele>1622.2</ele>
      </trkpt>
      <trkpt lat="45.21487" lon="5.59164">
        <ele>1623.2</ele>
      </trkpt>
      <trkpt lat="45.2148" lon="5.59163">
        <ele>1623.8</ele>
      </trkpt>
      <trkpt lat="45.2144" lon="5.59111">
        <ele>1627</ele>
      </trkpt>
      <trkpt lat="45.21431" lon="5.59085">
        <ele>1627</ele>
      </trkpt>
      <trkpt lat="45.21357" lon="5.59028">
        <ele>1630.3</ele>
      </trkpt>
      <trkpt lat="45.21336" lon="5.59025">
        <ele>1631.3</ele>
      </trkpt>
      <trkpt lat="45.21297" lon="5.59071">
        <ele>1632.5</ele>
      </trkpt>
      <trkpt lat="45.21238" lon="5.59078">
        <ele>1634.9</ele>
      </trkpt>
      <trkpt lat="45.21196" lon="5.59115">
        <ele>1631.7</ele>
      </trkpt>
      <trkpt lat="45.21174" lon="5.59151">
        <ele>1628.4</ele>
      </trkpt>
      <trkpt lat="45.21152" lon="5.59163">
        <ele>1626</ele>
      </trkpt>
      <trkpt lat="45.21137" lon="5.59163">
        <ele>1624.8</ele>
      </trkpt>
      <trkpt lat="45.21134" lon="5.5914">
        <ele>1626.5</ele>
      </trkpt>
      <trkpt lat="45.21125" lon="5.59123">
        <ele>1627.2</ele>
      </trkpt>
      <trkpt lat="45.21054" lon="5.59066">
        <ele>1627</ele>
      </trkpt>
      <trkpt lat="45.21051" lon="5.59057">
        <ele>1626.6</ele>
      </trkpt>
      <trkpt lat="45.21039" lon="5.59051">
        <ele>1625.6</ele>
      </trkpt>
      <trkpt lat="45.21013" lon="5.59058">
        <ele>1624.6</ele>
      </trkpt>
      <trkpt lat="45.20992" lon="5.59091">
        <ele>1626.5</ele>
      </trkpt>
      <trkpt lat="45.20987" lon="5.59126">
        <ele>1625.1</ele>
      </trkpt>
      <trkpt lat="45.20991" lon="5.59165">
        <ele>1623.8</ele>
      </trkpt>
      <trkpt lat="45.20988" lon="5.59175">
        <ele>1623.3</ele>
      </trkpt>
      <trkpt lat="45.20976" lon="5.59179">
        <ele>1622.7</ele>
      </trkpt>
      <trkpt lat="45.20934" lon="5.59175">
        <ele>1621.8</ele>
      </trkpt>
      <trkpt lat="45.20893" lon="5.59121">
        <ele>1623.3</ele>
      </trkpt>
      <trkpt lat="45.20865" lon="5.59114">
        <ele>1623.1</ele>
      </trkpt>
      <trkpt lat="45.20844" lon="5.59104">
        <ele>1622.9</ele>
      </trkpt>
      <trkpt lat="45.20812" lon="5.5911">
        <ele>1623.1</ele>
      </trkpt>
      <trkpt lat="45.20796" lon="5.59124">
        <ele>1623.2</ele>
      </trkpt>
      <trkpt lat="45.20732" lon="5.59156">
        <ele>1623.2</ele>
      </trkpt>
      <trkpt lat="45.20706" lon="5.59194">
        <ele>1622</ele>
      </trkpt>
      <trkpt lat="45.20701" lon="5.59217">
        <ele>1621.3</ele>
      </trkpt>
      <trkpt lat="45.20681" lon="5.59221">
        <ele>1621.5</ele>
      </trkpt>
      <trkpt lat="45.20622" lon="5.59208">
        <ele>1624.4</ele>
      </trkpt>
      <trkpt lat="45.20505" lon="5.59285">
        <ele>1627</ele>
      </trkpt>
      <trkpt lat="45.20481" lon="5.59312">
        <ele>1626</ele>
      </trkpt>
      <trkpt lat="45.20383" lon="5.59303">
        <ele>1626.6</ele>
      </trkpt>
      <trkpt lat="45.20268" lon="5.59259">
        <ele>1632.4</ele>
      </trkpt>
      <trkpt lat="45.20258" lon="5.59261">
        <ele>1632.6</ele>
      </trkpt>
      <trkpt lat="45.20124" lon="5.59223">
        <ele>1632.9</ele>
      </trkpt>
      <trkpt lat="45.20081" lon="5.59221">
        <ele>1631</ele>
      </trkpt>
      <trkpt lat="45.20012" lon="5.59196">
        <ele>1630.7</ele>
      </trkpt>
      <trkpt lat="45.19917" lon="5.59193">
        <ele>1629.8</ele>
      </trkpt>
      <trkpt lat="45.19879" lon="5.59179">
        <ele>1631.2</ele>
      </trkpt>
      <trkpt lat="45.19842" lon="5.59192">
        <ele>1631.3</ele>
      </trkpt>
      <trkpt lat="45.19814" lon="5.5918">
        <ele>1633.3</ele>
      </trkpt>
      <trkpt lat="45.19788" lon="5.59176">
        <ele>1635.1</ele>
      </trkpt>
      <trkpt lat="45.19793" lon="5.59182">
        <ele>1634.4</ele>
      </trkpt>
      <trkpt lat="45.19792" lon="5.59191">
        <ele>1633.9</ele>
      </trkpt>
      <trkpt lat="45.19771" lon="5.59196">
        <ele>1634.8</ele>
      </trkpt>
      <trkpt lat="45.19685" lon="5.59164">
        <ele>1648.8</ele>
      </trkpt>
      <trkpt lat="45.19653" lon="5.59157">
        <ele>1652</ele>
      </trkpt>
      <trkpt lat="45.19601" lon="5.59168">
        <ele>1655.6</ele>
      </trkpt>
      <trkpt lat="45.19526" lon="5.5919">
        <ele>1656.5</ele>
      </trkpt>
      <trkpt lat="45.19505" lon="5.59204">
        <ele>1657.2</ele>
      </trkpt>
      <trkpt lat="45.19457" lon="5.59216">
        <ele>1654.7</ele>
      </trkpt>
      <trkpt lat="45.19427" lon="5.59242">
        <ele>1654.6</ele>
      </trkpt>
      <trkpt lat="45.19388" lon="5.59246">
        <ele>1651.2</ele>
      </trkpt>
      <trkpt lat="45.19302" lon="5.59224">
        <ele>1641.8</ele>
      </trkpt>
      <trkpt lat="45.19198" lon="5.59203">
        <ele>1644.3</ele>
      </trkpt>
      <trkpt lat="45.19116" lon="5.59176">
        <ele>1660.6</ele>
      </trkpt>
      <trkpt lat="45.19104" lon="5.59166">
        <ele>1665.7</ele>
      </trkpt>
      <trkpt lat="45.19072" lon="5.5916">
        <ele>1669.9</ele>
      </trkpt>
      <trkpt lat="45.19042" lon="5.5914">
        <ele>1674</ele>
      </trkpt>
      <trkpt lat="45.18927" lon="5.59133">
        <ele>1685.2</ele>
      </trkpt>
      <trkpt lat="45.18877" lon="5.59141">
        <ele>1687.4</ele>
      </trkpt>
      <trkpt lat="45.18855" lon="5.59136">
        <ele>1690.1</ele>
      </trkpt>
      <trkpt lat="45.18816" lon="5.59148">
        <ele>1692.1</ele>
      </trkpt>
      <trkpt lat="45.18792" lon="5.59178">
        <ele>1690.7</ele>
      </trkpt>
      <trkpt lat="45.18755" lon="5.59193">
        <ele>1696.4</ele>
      </trkpt>
      <trkpt lat="45.1869" lon="5.5926">
        <ele>1687.5</ele>
      </trkpt>
      <trkpt lat="45.18659" lon="5.59257">
        <ele>1690.3</ele>
      </trkpt>
      <trkpt lat="45.18644" lon="5.59245">
        <ele>1689.9</ele>
      </trkpt>
      <trkpt lat="45.18599" lon="5.59172">
        <ele>1704.1</ele>
      </trkpt>
      <trkpt lat="45.1858" lon="5.59162">
        <ele>1702.7</ele>
      </trkpt>
      <trkpt lat="45.18567" lon="5.59144">
        <ele>1699.3</ele>
      </trkpt>
      <trkpt lat="45.18566" lon="5.59124">
        <ele>1702.3</ele>
      </trkpt>
      <trkpt lat="45.18525" lon="5.59069">
        <ele>1698</ele>
      </trkpt>
      <trkpt lat="45.18484" lon="5.59027">
        <ele>1690.4</ele>
      </trkpt>
      <trkpt lat="45.18476" lon="5.5899">
        <ele>1693.1</ele>
      </trkpt>
      <trkpt lat="45.18391" lon="5.58905">
        <ele>1677.4</ele>
      </trkpt>
      <trkpt lat="45.18387" lon="5.58899">
        <ele>1676.5</ele>
      </trkpt>
      <trkpt lat="45.18364" lon="5.58852">
        <ele>1677.3</ele>
      </trkpt>
      <trkpt lat="45.18316" lon="5.58803">
        <ele>1672.5</ele>
      </trkpt>
      <trkpt lat="45.18262" lon="5.58788">
        <ele>1660.9</ele>
      </trkpt>
      <trkpt lat="45.18235" lon="5.5875">
        <ele>1665</ele>
      </trkpt>
      <trkpt lat="45.18203" lon="5.58738">
        <ele>1659.3</ele>
      </trkpt>
      <trkpt lat="45.18147" lon="5.58696">
        <ele>1657.6</ele>
      </trkpt>
      <trkpt lat="45.18109" lon="5.58678">
        <ele>1661.3</ele>
      </trkpt>
      <trkpt lat="45.18009" lon="5.58609">
        <ele>1655.5</ele>
      </trkpt>
      <trkpt lat="45.17986" lon="5.58589">
        <ele>1656.5</ele>
      </trkpt>
      <trkpt lat="45.17988" lon="5.58554">
        <ele>1655.9</ele>
      </trkpt>
      <trkpt lat="45.17977" lon="5.58493">
        <ele>1653.9</ele>
      </trkpt>
      <trkpt lat="45.17961" lon="5.58428">
        <ele>1649.3</ele>
      </trkpt>
      <trkpt lat="45.17948" lon="5.584">
        <ele>1647.2</ele>
      </trkpt>
      <trkpt lat="45.17941" lon="5.58346">
        <ele>1640.1</ele>
      </trkpt>
      <trkpt lat="45.17926" lon="5.58294">
        <ele>1633.6</ele>
      </trkpt>
      <trkpt lat="45.17919" lon="5.58288">
        <ele>1633.3</ele>
      </trkpt>
      <trkpt lat="45.17869" lon="5.58164">
        <ele>1615.9</ele>
      </trkpt>
      <trkpt lat="45.17845" lon="5.58142">
        <ele>1610.4</ele>
      </trkpt>
      <trkpt lat="45.17811" lon="5.58095">
        <ele>1601.5</ele>
      </trkpt>
      <trkpt lat="45.17898" lon="5.58117">
        <ele>1603.6</ele>
      </trkpt>
      <trkpt lat="45.17958" lon="5.58113">
        <ele>1600.5</ele>
      </trkpt>
      <trkpt lat="45.18005" lon="5.5813">
        <ele>1600.5</ele>
      </trkpt>
      <trkpt lat="45.18042" lon="5.58131">
        <ele>1589.3</ele>
      </trkpt>
      <trkpt lat="45.18082" lon="5.58204">
        <ele>1588.1</ele>
      </trkpt>
      <trkpt lat="45.1811" lon="5.58227">
        <ele>1590.5</ele>
      </trkpt>
      <trkpt lat="45.18129" lon="5.5823">
        <ele>1590</ele>
      </trkpt>
      <trkpt lat="45.18118" lon="5.58142">
        <ele>1575</ele>
      </trkpt>
      <trkpt lat="45.18135" lon="5.58074">
        <ele>1561.7</ele>
      </trkpt>
      <trkpt lat="45.18135" lon="5.58005">
        <ele>1550</ele>
      </trkpt>
      <trkpt lat="45.18145" lon="5.57974">
        <ele>1545</ele>
      </trkpt>
      <trkpt lat="45.18141" lon="5.57955">
        <ele>1542.6</ele>
      </trkpt>
      <trkpt lat="45.18128" lon="5.57933">
        <ele>1539.8</ele>
      </trkpt>
      <trkpt lat="45.18124" lon="5.57893">
        <ele>1533.8</ele>
      </trkpt>
      <trkpt lat="45.18137" lon="5.57817">
        <ele>1521.3</ele>
      </trkpt>
      <trkpt lat="45.18119" lon="5.57821">
        <ele>1522.8</ele>
      </trkpt>
      <trkpt lat="45.18118" lon="5.57806">
        <ele>1520.9</ele>
      </trkpt>
      <trkpt lat="45.18133" lon="5.57758">
        <ele>1513.9</ele>
      </trkpt>
      <trkpt lat="45.18136" lon="5.57725">
        <ele>1508.4</ele>
      </trkpt>
      <trkpt lat="45.18129" lon="5.57687">
        <ele>1502.3</ele>
      </trkpt>
      <trkpt lat="45.18073" lon="5.5761">
        <ele>1482.2</ele>
      </trkpt>
      <trkpt lat="45.18048" lon="5.57597">
        <ele>1482.6</ele>
      </trkpt>
      <trkpt lat="45.18026" lon="5.57609">
        <ele>1489.2</ele>
      </trkpt>
      <trkpt lat="45.1804" lon="5.57522">
        <ele>1461.9</ele>
      </trkpt>
      <trkpt lat="45.17997" lon="5.57451">
        <ele>1445.2</ele>
      </trkpt>
      <trkpt lat="45.17977" lon="5.57456">
        <ele>1446.1</ele>
      </trkpt>
      <trkpt lat="45.17979" lon="5.57465">
        <ele>1449.6</ele>
      </trkpt>
      <trkpt lat="45.17971" lon="5.57469">
        <ele>1450.7</ele>
      </trkpt>
      <trkpt lat="45.17934" lon="5.57449">
        <ele>1440.8</ele>
      </trkpt>
      <trkpt lat="45.17887" lon="5.5748">
        <ele>1453.7</ele>
      </trkpt>
      <trkpt lat="45.17836" lon="5.57385">
        <ele>1429</ele>
      </trkpt>
      <trkpt lat="45.17813" lon="5.57318">
        <ele>1408.9</ele>
      </trkpt>
      <trkpt lat="45.17765" lon="5.57323">
        <ele>1410.7</ele>
      </trkpt>
      <trkpt lat="45.17734" lon="5.57293">
        <ele>1397.1</ele>
      </trkpt>
      <trkpt lat="45.17683" lon="5.57305">
        <ele>1396.2</ele>
      </trkpt>
      <trkpt lat="45.17668" lon="5.57319">
        <ele>1400.3</ele>
      </trkpt>
      <trkpt lat="45.17639" lon="5.57328">
        <ele>1413</ele>
      </trkpt>
      <trkpt lat="45.17633" lon="5.57312">
        <ele>1408.8</ele>
      </trkpt>
      <trkpt lat="45.17635" lon="5.5729">
        <ele>1400.2</ele>
      </trkpt>
      <trkpt lat="45.17624" lon="5.5726">
        <ele>1393.4</ele>
      </trkpt>
      <trkpt lat="45.17608" lon="5.57235">
        <ele>1392.5</ele>
      </trkpt>
      <trkpt lat="45.17573" lon="5.57125">
        <ele>1375.2</ele>
      </trkpt>
      <trkpt lat="45.17572" lon="5.57085">
        <ele>1362.9</ele>
      </trkpt>
      <trkpt lat="45.17578" lon="5.57064">
        <ele>1351.4</ele>
      </trkpt>
      <trkpt lat="45.17526" lon="5.57011">
        <ele>1346</ele>
      </trkpt>
      <trkpt lat="45.17459" lon="5.56957">
        <ele>1332</ele>
      </trkpt>
      <trkpt lat="45.17419" lon="5.56946">
        <ele>1331.3</ele>
      </trkpt>
      <trkpt lat="45.17404" lon="5.56953">
        <ele>1337.3</ele>
      </trkpt>
      <trkpt lat="45.17352" lon="5.56882">
        <ele>1310.9</ele>
      </trkpt>
      <trkpt lat="45.17327" lon="5.56865">
        <ele>1306.4</ele>
      </trkpt>
      <trkpt lat="45.17258" lon="5.56853">
        <ele>1308.8</ele>
      </trkpt>
      <trkpt lat="45.17219" lon="5.56804">
        <ele>1290.4</ele>
      </trkpt>
      <trkpt lat="45.17275" lon="5.56792">
        <ele>1276.6</ele>
      </trkpt>
      <trkpt lat="45.17288" lon="5.56777">
        <ele>1267.4</ele>
      </trkpt>
      <trkpt lat="45.17345" lon="5.56766">
        <ele>1254.8</ele>
      </trkpt>
      <trkpt lat="45.17407" lon="5.56775">
        <ele>1250.5</ele>
      </trkpt>
      <trkpt lat="45.17447" lon="5.56786">
        <ele>1248.2</ele>
      </trkpt>
      <trkpt lat="45.17515" lon="5.56768">
        <ele>1227.2</ele>
      </trkpt>
      <trkpt lat="45.17566" lon="5.56775">
        <ele>1220.2</ele>
      </trkpt>
      <trkpt lat="45.1758" lon="5.5677">
        <ele>1214.8</ele>
      </trkpt>
      <trkpt lat="45.17665" lon="5.56803">
        <ele>1207.2</ele>
      </trkpt>
      <trkpt lat="45.17716" lon="5.56844">
        <ele>1209.6</ele>
      </trkpt>
      <trkpt lat="45.17731" lon="5.56829">
        <ele>1199.3</ele>
      </trkpt>
      <trkpt lat="45.17722" lon="5.56797">
        <ele>1192.6</ele>
      </trkpt>
      <trkpt lat="45.17684" lon="5.56751">
        <ele>1184.2</ele>
      </trkpt>
      <trkpt lat="45.1764" lon="5.5672">
        <ele>1181.6</ele>
      </trkpt>
      <trkpt lat="45.1757" lon="5.56705">
        <ele>1189.5</ele>
      </trkpt>
      <trkpt lat="45.17504" lon="5.56675">
        <ele>1186.4</ele>
      </trkpt>
      <trkpt lat="45.17489" lon="5.56661">
        <ele>1182.6</ele>
      </trkpt>
      <trkpt lat="45.17311" lon="5.56574">
        <ele>1177.2</ele>
      </trkpt>
      <trkpt lat="45.17294" lon="5.5656">
        <ele>1174.9</ele>
      </trkpt>
      <trkpt lat="45.17272" lon="5.56562">
        <ele>1179</ele>
      </trkpt>
      <trkpt lat="45.17195" lon="5.56541">
        <ele>1179.2</ele>
      </trkpt>
      <trkpt lat="45.1709" lon="5.56467">
        <ele>1148.1</ele>
      </trkpt>
      <trkpt lat="45.17044" lon="5.56441">
        <ele>1150.1</ele>
      </trkpt>
      <trkpt lat="45.1704" lon="5.56392">
        <ele>1145.4</ele>
      </trkpt>
      <trkpt lat="45.17052" lon="5.56208">
        <ele>1124.7</ele>
      </trkpt>
      <trkpt lat="45.1706" lon="5.56162">
        <ele>1121.7</ele>
      </trkpt>
      <trkpt lat="45.17054" lon="5.56124">
        <ele>1120.9</ele>
      </trkpt>
      <trkpt lat="45.17015" lon="5.56081">
        <ele>1120.5</ele>
      </trkpt>
      <trkpt lat="45.16962" lon="5.56049">
        <ele>1117.1</ele>
      </trkpt>
      <trkpt lat="45.16892" lon="5.56041">
        <ele>1117.5</ele>
      </trkpt>
      <trkpt lat="45.16874" lon="5.56031">
        <ele>1118.3</ele>
      </trkpt>
      <trkpt lat="45.16836" lon="5.55987">
        <ele>1117.1</ele>
      </trkpt>
      <trkpt lat="45.16773" lon="5.55932">
        <ele>1110</ele>
      </trkpt>
      <trkpt lat="45.16705" lon="5.55946">
        <ele>1110.9</ele>
      </trkpt>
      <trkpt lat="45.16624" lon="5.55888">
        <ele>1101.2</ele>
      </trkpt>
      <trkpt lat="45.16514" lon="5.55835">
        <ele>1097.7</ele>
      </trkpt>
      <trkpt lat="45.16479" lon="5.55826">
        <ele>1100.6</ele>
      </trkpt>
      <trkpt lat="45.16443" lon="5.55798">
        <ele>1098.7</ele>
      </trkpt>
      <trkpt lat="45.16419" lon="5.55787">
        <ele>1097.6</ele>
      </trkpt>
      <trkpt lat="45.16362" lon="5.55782">
        <ele>1102.5</ele>
      </trkpt>
      <trkpt lat="45.16331" lon="5.55752">
        <ele>1097.9</ele>
      </trkpt>
      <trkpt lat="45.1629" lon="5.55686">
        <ele>1090.2</ele>
      </trkpt>
      <trkpt lat="45.16235" lon="5.55644">
        <ele>1088.4</ele>
      </trkpt>
      <trkpt lat="45.16151" lon="5.55613">
        <ele>1080.9</ele>
      </trkpt>
      <trkpt lat="45.16103" lon="5.55586">
        <ele>1073.4</ele>
      </trkpt>
      <trkpt lat="45.16089" lon="5.55568">
        <ele>1070.2</ele>
      </trkpt>
      <trkpt lat="45.16061" lon="5.55507">
        <ele>1061.7</ele>
      </trkpt>
      <trkpt lat="45.15922" lon="5.55487">
        <ele>1061.2</ele>
      </trkpt>
      <trkpt lat="45.15896" lon="5.55471">
        <ele>1060.4</ele>
      </trkpt>
      <trkpt lat="45.15767" lon="5.55334">
        <ele>1049.3</ele>
      </trkpt>
      <trkpt lat="45.15734" lon="5.55311">
        <ele>1048.2</ele>
      </trkpt>
      <trkpt lat="45.15698" lon="5.55316">
        <ele>1048.8</ele>
      </trkpt>
      <trkpt lat="45.1561" lon="5.55388">
        <ele>1055</ele>
      </trkpt>
      <trkpt lat="45.15599" lon="5.55383">
        <ele>1054.9</ele>
      </trkpt>
      <trkpt lat="45.15573" lon="5.55305">
        <ele>1047.2</ele>
      </trkpt>
      <trkpt lat="45.1551" lon="5.55265">
        <ele>1045.8</ele>
      </trkpt>
      <trkpt lat="45.1534" lon="5.55195">
        <ele>1042.2</ele>
      </trkpt>
      <trkpt lat="45.15192" lon="5.55157">
        <ele>1031.8</ele>
      </trkpt>
      <trkpt lat="45.15099" lon="5.551">
        <ele>1027.5</ele>
      </trkpt>
      <trkpt lat="45.15072" lon="5.55051">
        <ele>1031.4</ele>
      </trkpt>
      <trkpt lat="45.15032" lon="5.55028">
        <ele>1033.3</ele>
      </trkpt>
      <trkpt lat="45.1494" lon="5.54949">
        <ele>1023.1</ele>
      </trkpt>
      <trkpt lat="45.14829" lon="5.54913">
        <ele>1012.3</ele>
      </trkpt>
      <trkpt lat="45.14823" lon="5.54908">
        <ele>1012.7</ele>
      </trkpt>
      <trkpt lat="45.14796" lon="5.54803">
        <ele>1013.2</ele>
      </trkpt>
      <trkpt lat="45.14783" lon="5.5478">
        <ele>1012.6</ele>
      </trkpt>
      <trkpt lat="45.14698" lon="5.54668">
        <ele>1014.4</ele>
      </trkpt>
      <trkpt lat="45.14596" lon="5.54598">
        <ele>1012.3</ele>
      </trkpt>
      <trkpt lat="45.14571" lon="5.54611">
        <ele>1011.8</ele>
      </trkpt>
      <trkpt lat="45.14529" lon="5.54652">
        <ele>1014.8</ele>
      </trkpt>
      <trkpt lat="45.14489" lon="5.54673">
        <ele>1017.5</ele>
      </trkpt>
      <trkpt lat="45.14441" lon="5.54651">
        <ele>1017.6</ele>
      </trkpt>
      <trkpt lat="45.14418" lon="5.54611">
        <ele>1016.3</ele>
      </trkpt>
      <trkpt lat="45.14379" lon="5.54577">
        <ele>1010.1</ele>
      </trkpt>
      <trkpt lat="45.14341" lon="5.54571">
        <ele>1005.8</ele>
      </trkpt>
      <trkpt lat="45.14304" lon="5.54583">
        <ele>1007.1</ele>
      </trkpt>
      <trkpt lat="45.14248" lon="5.54588">
        <ele>1011.8</ele>
      </trkpt>
      <trkpt lat="45.14117" lon="5.54586">
        <ele>1015.1</ele>
      </trkpt>
      <trkpt lat="45.1406" lon="5.54563">
        <ele>1021.2</ele>
      </trkpt>
      <trkpt lat="45.13982" lon="5.54511">
        <ele>1029.2</ele>
      </trkpt>
      <trkpt lat="45.13954" lon="5.54502">
        <ele>1028.9</ele>
      </trkpt>
      <trkpt lat="45.13942" lon="5.54508">
        <ele>1028.5</ele>
      </trkpt>
      <trkpt lat="45.1394" lon="5.54526">
        <ele>1028.2</ele>
      </trkpt>
      <trkpt lat="45.13964" lon="5.54607">
        <ele>1029.5</ele>
      </trkpt>
      <trkpt lat="45.13952" lon="5.54646">
        <ele>1033.7</ele>
      </trkpt>
      <trkpt lat="45.13929" lon="5.54693">
        <ele>1038.1</ele>
      </trkpt>
      <trkpt lat="45.1387" lon="5.5475">
        <ele>1049.5</ele>
      </trkpt>
      <trkpt lat="45.13792" lon="5.54774">
        <ele>1058.7</ele>
      </trkpt>
      <trkpt lat="45.13782" lon="5.54818">
        <ele>1069.7</ele>
      </trkpt>
      <trkpt lat="45.13753" lon="5.54847">
        <ele>1076</ele>
      </trkpt>
      <trkpt lat="45.1375" lon="5.54856">
        <ele>1079</ele>
      </trkpt>
      <trkpt lat="45.1371" lon="5.54875">
        <ele>1089.7</ele>
      </trkpt>
      <trkpt lat="45.13655" lon="5.54852">
        <ele>1087.3</ele>
      </trkpt>
      <trkpt lat="45.13626" lon="5.54847">
        <ele>1088.7</ele>
      </trkpt>
      <trkpt lat="45.13563" lon="5.54859">
        <ele>1096.5</ele>
      </trkpt>
      <trkpt lat="45.13558" lon="5.54866">
        <ele>1099</ele>
      </trkpt>
      <trkpt lat="45.13504" lon="5.54889">
        <ele>1103.9</ele>
      </trkpt>
      <trkpt lat="45.13464" lon="5.54916">
        <ele>1109.6</ele>
      </trkpt>
      <trkpt lat="45.13419" lon="5.54971">
        <ele>1121.7</ele>
      </trkpt>
      <trkpt lat="45.134" lon="5.54975">
        <ele>1122.3</ele>
      </trkpt>
      <trkpt lat="45.13364" lon="5.54994">
        <ele>1127.4</ele>
      </trkpt>
      <trkpt lat="45.13326" lon="5.55018">
        <ele>1136.5</ele>
      </trkpt>
      <trkpt lat="45.13309" lon="5.5502">
        <ele>1137.5</ele>
      </trkpt>
      <trkpt lat="45.13232" lon="5.55042">
        <ele>1151.8</ele>
      </trkpt>
      <trkpt lat="45.13214" lon="5.5503">
        <ele>1151.4</ele>
      </trkpt>
      <trkpt lat="45.13192" lon="5.54997">
        <ele>1145.7</ele>
      </trkpt>
      <trkpt lat="45.13117" lon="5.54958">
        <ele>1145.6</ele>
      </trkpt>
      <trkpt lat="45.13083" lon="5.54962">
        <ele>1151.3</ele>
      </trkpt>
      <trkpt lat="45.13058" lon="5.54996">
        <ele>1165.9</ele>
      </trkpt>
      <trkpt lat="45.13041" lon="5.55008">
        <ele>1172.6</ele>
      </trkpt>
      <trkpt lat="45.13009" lon="5.55003">
        <ele>1174.9</ele>
      </trkpt>
      <trkpt lat="45.12992" lon="5.54988">
        <ele>1173</ele>
      </trkpt>
      <trkpt lat="45.12978" lon="5.54987">
        <ele>1176.3</ele>
      </trkpt>
      <trkpt lat="45.12945" lon="5.54958">
        <ele>1175.2</ele>
      </trkpt>
      <trkpt lat="45.12885" lon="5.54933">
        <ele>1179.6</ele>
      </trkpt>
      <trkpt lat="45.12859" lon="5.54935">
        <ele>1184.6</ele>
      </trkpt>
      <trkpt lat="45.128" lon="5.54951">
        <ele>1197.6</ele>
      </trkpt>
      <trkpt lat="45.12758" lon="5.54997">
        <ele>1213</ele>
      </trkpt>
      <trkpt lat="45.12745" lon="5.54999">
        <ele>1214.8</ele>
      </trkpt>
      <trkpt lat="45.12725" lon="5.54963">
        <ele>1210.2</ele>
      </trkpt>
      <trkpt lat="45.12668" lon="5.54969">
        <ele>1222.3</ele>
      </trkpt>
      <trkpt lat="45.12599" lon="5.54997">
        <ele>1232.4</ele>
      </trkpt>
      <trkpt lat="45.12504" lon="5.55118">
        <ele>1247.4</ele>
      </trkpt>
      <trkpt lat="45.12518" lon="5.55084">
        <ele>1246.3</ele>
      </trkpt>
      <trkpt lat="45.12516" lon="5.55069">
        <ele>1245</ele>
      </trkpt>
      <trkpt lat="45.12527" lon="5.55041">
        <ele>1242.4</ele>
      </trkpt>
      <trkpt lat="45.12535" lon="5.54987">
        <ele>1235.4</ele>
      </trkpt>
      <trkpt lat="45.12532" lon="5.54963">
        <ele>1230.7</ele>
      </trkpt>
      <trkpt lat="45.12492" lon="5.54841">
        <ele>1208</ele>
      </trkpt>
      <trkpt lat="45.12448" lon="5.54746">
        <ele>1193.2</ele>
      </trkpt>
      <trkpt lat="45.12407" lon="5.54676">
        <ele>1176.7</ele>
      </trkpt>
      <trkpt lat="45.12397" lon="5.54669">
        <ele>1175.9</ele>
      </trkpt>
      <trkpt lat="45.12437" lon="5.54662">
        <ele>1167.3</ele>
      </trkpt>
      <trkpt lat="45.12482" lon="5.54674">
        <ele>1164.8</ele>
      </trkpt>
      <trkpt lat="45.12541" lon="5.54652">
        <ele>1148.8</ele>
      </trkpt>
      <trkpt lat="45.12575" lon="5.54649">
        <ele>1142.9</ele>
      </trkpt>
      <trkpt lat="45.12627" lon="5.54653">
        <ele>1136</ele>
      </trkpt>
      <trkpt lat="45.12693" lon="5.54637">
        <ele>1116</ele>
      </trkpt>
      <trkpt lat="45.12752" lon="5.54642">
        <ele>1105.6</ele>
      </trkpt>
      <trkpt lat="45.12804" lon="5.54662">
        <ele>1101.5</ele>
      </trkpt>
      <trkpt lat="45.12856" lon="5.5466">
        <ele>1090</ele>
      </trkpt>
      <trkpt lat="45.12977" lon="5.54614">
        <ele>1062.4</ele>
      </trkpt>
      <trkpt lat="45.12957" lon="5.5462">
        <ele>1065.5</ele>
      </trkpt>
      <trkpt lat="45.12912" lon="5.546">
        <ele>1062.6</ele>
      </trkpt>
      <trkpt lat="45.12911" lon="5.54589">
        <ele>1059.4</ele>
      </trkpt>
      <trkpt lat="45.12935" lon="5.54582">
        <ele>1055.6</ele>
      </trkpt>
      <trkpt lat="45.12937" lon="5.54574">
        <ele>1052.5</ele>
      </trkpt>
      <trkpt lat="45.12923" lon="5.54548">
        <ele>1043.8</ele>
      </trkpt>
      <trkpt lat="45.12904" lon="5.5455">
        <ele>1047</ele>
      </trkpt>
      <trkpt lat="45.1291" lon="5.54528">
        <ele>1038.1</ele>
      </trkpt>
      <trkpt lat="45.12902" lon="5.54533">
        <ele>1041.3</ele>
      </trkpt>
      <trkpt lat="45.12897" lon="5.54522">
        <ele>1038.1</ele>
      </trkpt>
      <trkpt lat="45.12891" lon="5.54461">
        <ele>1020.8</ele>
      </trkpt>
      <trkpt lat="45.12898" lon="5.54448">
        <ele>1016.5</ele>
      </trkpt>
      <trkpt lat="45.1287" lon="5.54404">
        <ele>1008.5</ele>
      </trkpt>
      <trkpt lat="45.12702" lon="5.54282">
        <ele>991</ele>
      </trkpt>
      <trkpt lat="45.1264" lon="5.54266">
        <ele>989</ele>
      </trkpt>
      <trkpt lat="45.12601" lon="5.54237">
        <ele>982.9</ele>
      </trkpt>
      <trkpt lat="45.12564" lon="5.54239">
        <ele>982.8</ele>
      </trkpt>
      <trkpt lat="45.12526" lon="5.54184">
        <ele>981.7</ele>
      </trkpt>
      <trkpt lat="45.12526" lon="5.5409">
        <ele>979.9</ele>
      </trkpt>
      <trkpt lat="45.12539" lon="5.53983">
        <ele>980.5</ele>
      </trkpt>
      <trkpt lat="45.12538" lon="5.53946">
        <ele>981.5</ele>
      </trkpt>
      <trkpt lat="45.12528" lon="5.53839">
        <ele>989.5</ele>
      </trkpt>
      <trkpt lat="45.12533" lon="5.53708">
        <ele>982.3</ele>
      </trkpt>
      <trkpt lat="45.12543" lon="5.53672">
        <ele>981.8</ele>
      </trkpt>
      <trkpt lat="45.12561" lon="5.53514">
        <ele>974.5</ele>
      </trkpt>
      <trkpt lat="45.12569" lon="5.53464">
        <ele>972.6</ele>
      </trkpt>
      <trkpt lat="45.12637" lon="5.53315">
        <ele>967.9</ele>
      </trkpt>
      <trkpt lat="45.12646" lon="5.53271">
        <ele>967.6</ele>
      </trkpt>
      <trkpt lat="45.12649" lon="5.53221">
        <ele>967.5</ele>
      </trkpt>
      <trkpt lat="45.12677" lon="5.53185">
        <ele>967.7</ele>
      </trkpt>
      <trkpt lat="45.12683" lon="5.53157">
        <ele>968.2</ele>
      </trkpt>
      <trkpt lat="45.12675" lon="5.53104">
        <ele>972.1</ele>
      </trkpt>
      <trkpt lat="45.12678" lon="5.53065">
        <ele>974</ele>
      </trkpt>
      <trkpt lat="45.127" lon="5.52985">
        <ele>976.7</ele>
      </trkpt>
      <trkpt lat="45.12709" lon="5.5287">
        <ele>985.2</ele>
      </trkpt>
      <trkpt lat="45.12703" lon="5.52826">
        <ele>988.8</ele>
      </trkpt>
      <trkpt lat="45.12721" lon="5.52746">
        <ele>991.2</ele>
      </trkpt>
      <trkpt lat="45.12721" lon="5.52726">
        <ele>991.7</ele>
      </trkpt>
      <trkpt lat="45.12737" lon="5.52701">
        <ele>991.7</ele>
      </trkpt>
      <trkpt lat="45.12814" lon="5.52176">
        <ele>1003.1</ele>
      </trkpt>
      <trkpt lat="45.12811" lon="5.52127">
        <ele>1003.1</ele>
      </trkpt>
      <trkpt lat="45.12793" lon="5.52092">
        <ele>1004.5</ele>
      </trkpt>
      <trkpt lat="45.12758" lon="5.52052">
        <ele>1007.5</ele>
      </trkpt>
      <trkpt lat="45.12713" lon="5.52032">
        <ele>1009.8</ele>
      </trkpt>
    </trkseg>
  </trk>
</gpx>